<?xml version="1.0" encoding="UTF-8" standalone="no" ?>
<gpx xmlns="http://www.topografix.com/GPX/1/1" xmlns:xsi="http://www.w3.org/2001/XMLSchema-instance" xsi:schemaLocation="http://www.topografix.com/GPX/1/1 http://www.topografix.com/GPX/1/1/gpx.xsd" version="1.1" creator="VisuGPX - https://www.visugpx.com">
  <metadata>
    <name>2017-07-06 Bike ride-Amberieux-Rance O 35</name>
    <desc><![CDATA[2017-07-06 Bike ride-Amberieux-Rance O 35]]></desc>
  </metadata>
  <wpt lat="45.92447" lon="4.73721">
    <ele>174</ele>
    <name><![CDATA[2017-07-06 09:56 (Start)]]></name>
  </wpt>
  <wpt lat="45.92463" lon="4.73702">
    <ele>174</ele>
    <name><![CDATA[2017-07-06 09:56 (End)]]></name>
    <desc><![CDATA[Created by Google My Tracks on Android  Name: 2017-07-06 09:56 Activity type: biking Description: - Total distance: 36.04 km (22.4 mi) Total time: 1:56:37 Moving time: 1:53:50 Average speed: 18.54 km/h (11.5 mi/h) Average moving speed: 18.99 km/h (11.8 mi/h) Max speed: 50.31 km/h (31.3 mi/h) Average pace: 3:14 min/km (5:13 min/mi) Average moving pace: 3:10 min/km (5:05 min/mi) Fastest pace: 1:12 min/km (1:55 min/mi) Max elevation: 295 m (967 ft) Min elevation: 168 m (552 ft) Elevation gain: 530 m (1739 ft) Max grade: 14 % Min grade: -11 % Recorded: 06/07/2017 09:56]]></desc>
  </wpt>
  <trk>
    <name><![CDATA[2017-07-06 09:56]]></name>
    <trkseg>
      <trkpt lat="45.92447" lon="4.73721">
        <ele>174</ele>
        <time>2017-07-06T07:56:30.987Z</time>
      </trkpt>
      <trkpt lat="45.92445" lon="4.73724">
        <ele>174</ele>
        <time>2017-07-06T07:57:20Z</time>
      </trkpt>
      <trkpt lat="45.92444" lon="4.73727">
        <ele>174</ele>
        <time>2017-07-06T07:57:24Z</time>
      </trkpt>
      <trkpt lat="45.92445" lon="4.73708">
        <ele>174</ele>
        <time>2017-07-06T07:57:25Z</time>
      </trkpt>
      <trkpt lat="45.92446" lon="4.73716">
        <ele>174</ele>
        <time>2017-07-06T07:57:56Z</time>
      </trkpt>
      <trkpt lat="45.92456" lon="4.73714">
        <ele>174</ele>
        <time>2017-07-06T07:57:57Z</time>
      </trkpt>
      <trkpt lat="45.9246" lon="4.73704">
        <ele>174</ele>
        <time>2017-07-06T07:58:03Z</time>
      </trkpt>
      <trkpt lat="45.92461" lon="4.73702">
        <ele>174</ele>
        <time>2017-07-06T07:58:04Z</time>
      </trkpt>
      <trkpt lat="45.92462" lon="4.73693">
        <ele>174</ele>
        <time>2017-07-06T07:58:07Z</time>
      </trkpt>
      <trkpt lat="45.92462" lon="4.73689">
        <ele>174</ele>
        <time>2017-07-06T07:58:08Z</time>
      </trkpt>
      <trkpt lat="45.92463" lon="4.7368">
        <ele>174</ele>
        <time>2017-07-06T07:58:10Z</time>
      </trkpt>
      <trkpt lat="45.92464" lon="4.73674">
        <ele>174</ele>
        <time>2017-07-06T07:58:11Z</time>
      </trkpt>
      <trkpt lat="45.92466" lon="4.73663">
        <ele>174</ele>
        <time>2017-07-06T07:58:13Z</time>
      </trkpt>
      <trkpt lat="45.92467" lon="4.73657">
        <ele>174</ele>
        <time>2017-07-06T07:58:14Z</time>
      </trkpt>
      <trkpt lat="45.92474" lon="4.7365">
        <ele>174</ele>
        <time>2017-07-06T07:58:16Z</time>
      </trkpt>
      <trkpt lat="45.92478" lon="4.73649">
        <ele>174</ele>
        <time>2017-07-06T07:58:17Z</time>
      </trkpt>
      <trkpt lat="45.92482" lon="4.73648">
        <ele>174</ele>
        <time>2017-07-06T07:58:18Z</time>
      </trkpt>
      <trkpt lat="45.92487" lon="4.73648">
        <ele>174</ele>
        <time>2017-07-06T07:58:19Z</time>
      </trkpt>
      <trkpt lat="45.92492" lon="4.73649">
        <ele>174</ele>
        <time>2017-07-06T07:58:20Z</time>
      </trkpt>
      <trkpt lat="45.92497" lon="4.73649">
        <ele>174</ele>
        <time>2017-07-06T07:58:21Z</time>
      </trkpt>
      <trkpt lat="45.92502" lon="4.73649">
        <ele>174</ele>
        <time>2017-07-06T07:58:22Z</time>
      </trkpt>
      <trkpt lat="45.92507" lon="4.73649">
        <ele>174</ele>
        <time>2017-07-06T07:58:23Z</time>
      </trkpt>
      <trkpt lat="45.92513" lon="4.73649">
        <ele>174</ele>
        <time>2017-07-06T07:58:24Z</time>
      </trkpt>
      <trkpt lat="45.92518" lon="4.7365">
        <ele>174</ele>
        <time>2017-07-06T07:58:25Z</time>
      </trkpt>
      <trkpt lat="45.92524" lon="4.73649">
        <ele>173</ele>
        <time>2017-07-06T07:58:26Z</time>
      </trkpt>
      <trkpt lat="45.92531" lon="4.73648">
        <ele>173</ele>
        <time>2017-07-06T07:58:27Z</time>
      </trkpt>
      <trkpt lat="45.92537" lon="4.73647">
        <ele>173</ele>
        <time>2017-07-06T07:58:28Z</time>
      </trkpt>
      <trkpt lat="45.92543" lon="4.73645">
        <ele>173</ele>
        <time>2017-07-06T07:58:29Z</time>
      </trkpt>
      <trkpt lat="45.9255" lon="4.73644">
        <ele>173</ele>
        <time>2017-07-06T07:58:30Z</time>
      </trkpt>
      <trkpt lat="45.92556" lon="4.73642">
        <ele>173</ele>
        <time>2017-07-06T07:58:31Z</time>
      </trkpt>
      <trkpt lat="45.92561" lon="4.7364">
        <ele>173</ele>
        <time>2017-07-06T07:58:32Z</time>
      </trkpt>
      <trkpt lat="45.92567" lon="4.73638">
        <ele>173</ele>
        <time>2017-07-06T07:58:33Z</time>
      </trkpt>
      <trkpt lat="45.92572" lon="4.73636">
        <ele>173</ele>
        <time>2017-07-06T07:58:34Z</time>
      </trkpt>
      <trkpt lat="45.92578" lon="4.73634">
        <ele>172</ele>
        <time>2017-07-06T07:58:35Z</time>
      </trkpt>
      <trkpt lat="45.92583" lon="4.73633">
        <ele>172</ele>
        <time>2017-07-06T07:58:36Z</time>
      </trkpt>
      <trkpt lat="45.92589" lon="4.73634">
        <ele>172</ele>
        <time>2017-07-06T07:58:37Z</time>
      </trkpt>
      <trkpt lat="45.92595" lon="4.73634">
        <ele>172</ele>
        <time>2017-07-06T07:58:38Z</time>
      </trkpt>
      <trkpt lat="45.92601" lon="4.73635">
        <ele>172</ele>
        <time>2017-07-06T07:58:39Z</time>
      </trkpt>
      <trkpt lat="45.92606" lon="4.73637">
        <ele>172</ele>
        <time>2017-07-06T07:58:40Z</time>
      </trkpt>
      <trkpt lat="45.92612" lon="4.73641">
        <ele>172</ele>
        <time>2017-07-06T07:58:41Z</time>
      </trkpt>
      <trkpt lat="45.92616" lon="4.73648">
        <ele>173</ele>
        <time>2017-07-06T07:58:42Z</time>
      </trkpt>
      <trkpt lat="45.92619" lon="4.73656">
        <ele>173</ele>
        <time>2017-07-06T07:58:43Z</time>
      </trkpt>
      <trkpt lat="45.92621" lon="4.73663">
        <ele>173</ele>
        <time>2017-07-06T07:58:44Z</time>
      </trkpt>
      <trkpt lat="45.92624" lon="4.73669">
        <ele>172</ele>
        <time>2017-07-06T07:58:45Z</time>
      </trkpt>
      <trkpt lat="45.92627" lon="4.73675">
        <ele>173</ele>
        <time>2017-07-06T07:58:46Z</time>
      </trkpt>
      <trkpt lat="45.9263" lon="4.73681">
        <ele>173</ele>
        <time>2017-07-06T07:58:47Z</time>
      </trkpt>
      <trkpt lat="45.92634" lon="4.73686">
        <ele>173</ele>
        <time>2017-07-06T07:58:48Z</time>
      </trkpt>
      <trkpt lat="45.92639" lon="4.73692">
        <ele>173</ele>
        <time>2017-07-06T07:58:49Z</time>
      </trkpt>
      <trkpt lat="45.92644" lon="4.73696">
        <ele>173</ele>
        <time>2017-07-06T07:58:50Z</time>
      </trkpt>
      <trkpt lat="45.92649" lon="4.73701">
        <ele>173</ele>
        <time>2017-07-06T07:58:51Z</time>
      </trkpt>
      <trkpt lat="45.92655" lon="4.73705">
        <ele>173</ele>
        <time>2017-07-06T07:58:52Z</time>
      </trkpt>
      <trkpt lat="45.92661" lon="4.73708">
        <ele>173</ele>
        <time>2017-07-06T07:58:53Z</time>
      </trkpt>
      <trkpt lat="45.92667" lon="4.73711">
        <ele>174</ele>
        <time>2017-07-06T07:58:54Z</time>
      </trkpt>
      <trkpt lat="45.92674" lon="4.73713">
        <ele>174</ele>
        <time>2017-07-06T07:58:55Z</time>
      </trkpt>
      <trkpt lat="45.92682" lon="4.73714">
        <ele>173</ele>
        <time>2017-07-06T07:58:56Z</time>
      </trkpt>
      <trkpt lat="45.92688" lon="4.73715">
        <ele>173</ele>
        <time>2017-07-06T07:58:57Z</time>
      </trkpt>
      <trkpt lat="45.92694" lon="4.73716">
        <ele>173</ele>
        <time>2017-07-06T07:58:58Z</time>
      </trkpt>
      <trkpt lat="45.92702" lon="4.73718">
        <ele>173</ele>
        <time>2017-07-06T07:58:59Z</time>
      </trkpt>
      <trkpt lat="45.92708" lon="4.73719">
        <ele>173</ele>
        <time>2017-07-06T07:59:00Z</time>
      </trkpt>
      <trkpt lat="45.92713" lon="4.7372">
        <ele>173</ele>
        <time>2017-07-06T07:59:01Z</time>
      </trkpt>
      <trkpt lat="45.92719" lon="4.73721">
        <ele>173</ele>
        <time>2017-07-06T07:59:02Z</time>
      </trkpt>
      <trkpt lat="45.92724" lon="4.73722">
        <ele>173</ele>
        <time>2017-07-06T07:59:03Z</time>
      </trkpt>
      <trkpt lat="45.92729" lon="4.73722">
        <ele>173</ele>
        <time>2017-07-06T07:59:04Z</time>
      </trkpt>
      <trkpt lat="45.92734" lon="4.73723">
        <ele>173</ele>
        <time>2017-07-06T07:59:05Z</time>
      </trkpt>
      <trkpt lat="45.92739" lon="4.73724">
        <ele>173</ele>
        <time>2017-07-06T07:59:06Z</time>
      </trkpt>
      <trkpt lat="45.92744" lon="4.73725">
        <ele>173</ele>
        <time>2017-07-06T07:59:07Z</time>
      </trkpt>
      <trkpt lat="45.92749" lon="4.73726">
        <ele>173</ele>
        <time>2017-07-06T07:59:08Z</time>
      </trkpt>
      <trkpt lat="45.92754" lon="4.73729">
        <ele>172</ele>
        <time>2017-07-06T07:59:09Z</time>
      </trkpt>
      <trkpt lat="45.92759" lon="4.73731">
        <ele>172</ele>
        <time>2017-07-06T07:59:10Z</time>
      </trkpt>
      <trkpt lat="45.92763" lon="4.73733">
        <ele>172</ele>
        <time>2017-07-06T07:59:11Z</time>
      </trkpt>
      <trkpt lat="45.92768" lon="4.73735">
        <ele>172</ele>
        <time>2017-07-06T07:59:12Z</time>
      </trkpt>
      <trkpt lat="45.92772" lon="4.73738">
        <ele>172</ele>
        <time>2017-07-06T07:59:13Z</time>
      </trkpt>
      <trkpt lat="45.92778" lon="4.73743">
        <ele>172</ele>
        <time>2017-07-06T07:59:15Z</time>
      </trkpt>
      <trkpt lat="45.9278" lon="4.73746">
        <ele>172</ele>
        <time>2017-07-06T07:59:16Z</time>
      </trkpt>
      <trkpt lat="45.92782" lon="4.73752">
        <ele>173</ele>
        <time>2017-07-06T07:59:17Z</time>
      </trkpt>
      <trkpt lat="45.92786" lon="4.73756">
        <ele>173</ele>
        <time>2017-07-06T07:59:18Z</time>
      </trkpt>
      <trkpt lat="45.92791" lon="4.7376">
        <ele>173</ele>
        <time>2017-07-06T07:59:19Z</time>
      </trkpt>
      <trkpt lat="45.92796" lon="4.73763">
        <ele>173</ele>
        <time>2017-07-06T07:59:20Z</time>
      </trkpt>
      <trkpt lat="45.92801" lon="4.73765">
        <ele>173</ele>
        <time>2017-07-06T07:59:21Z</time>
      </trkpt>
      <trkpt lat="45.92806" lon="4.73769">
        <ele>173</ele>
        <time>2017-07-06T07:59:22Z</time>
      </trkpt>
      <trkpt lat="45.92812" lon="4.73772">
        <ele>173</ele>
        <time>2017-07-06T07:59:23Z</time>
      </trkpt>
      <trkpt lat="45.92818" lon="4.73776">
        <ele>173</ele>
        <time>2017-07-06T07:59:24Z</time>
      </trkpt>
      <trkpt lat="45.92824" lon="4.73781">
        <ele>173</ele>
        <time>2017-07-06T07:59:25Z</time>
      </trkpt>
      <trkpt lat="45.92831" lon="4.73785">
        <ele>173</ele>
        <time>2017-07-06T07:59:26Z</time>
      </trkpt>
      <trkpt lat="45.92837" lon="4.73789">
        <ele>173</ele>
        <time>2017-07-06T07:59:27Z</time>
      </trkpt>
      <trkpt lat="45.92843" lon="4.73794">
        <ele>173</ele>
        <time>2017-07-06T07:59:28Z</time>
      </trkpt>
      <trkpt lat="45.92849" lon="4.73799">
        <ele>173</ele>
        <time>2017-07-06T07:59:29Z</time>
      </trkpt>
      <trkpt lat="45.92853" lon="4.73807">
        <ele>173</ele>
        <time>2017-07-06T07:59:30Z</time>
      </trkpt>
      <trkpt lat="45.92857" lon="4.73815">
        <ele>173</ele>
        <time>2017-07-06T07:59:31Z</time>
      </trkpt>
      <trkpt lat="45.92859" lon="4.73824">
        <ele>173</ele>
        <time>2017-07-06T07:59:32Z</time>
      </trkpt>
      <trkpt lat="45.92861" lon="4.73833">
        <ele>173</ele>
        <time>2017-07-06T07:59:33Z</time>
      </trkpt>
      <trkpt lat="45.92863" lon="4.73841">
        <ele>173</ele>
        <time>2017-07-06T07:59:34Z</time>
      </trkpt>
      <trkpt lat="45.92866" lon="4.7385">
        <ele>173</ele>
        <time>2017-07-06T07:59:35Z</time>
      </trkpt>
      <trkpt lat="45.92868" lon="4.73859">
        <ele>173</ele>
        <time>2017-07-06T07:59:36Z</time>
      </trkpt>
      <trkpt lat="45.92871" lon="4.73867">
        <ele>173</ele>
        <time>2017-07-06T07:59:37Z</time>
      </trkpt>
      <trkpt lat="45.92873" lon="4.73875">
        <ele>173</ele>
        <time>2017-07-06T07:59:38Z</time>
      </trkpt>
      <trkpt lat="45.92875" lon="4.73883">
        <ele>173</ele>
        <time>2017-07-06T07:59:39Z</time>
      </trkpt>
      <trkpt lat="45.92875" lon="4.73893">
        <ele>173</ele>
        <time>2017-07-06T07:59:40Z</time>
      </trkpt>
      <trkpt lat="45.92877" lon="4.73904">
        <ele>173</ele>
        <time>2017-07-06T07:59:41Z</time>
      </trkpt>
      <trkpt lat="45.92879" lon="4.73915">
        <ele>173</ele>
        <time>2017-07-06T07:59:42Z</time>
      </trkpt>
      <trkpt lat="45.92879" lon="4.73924">
        <ele>172</ele>
        <time>2017-07-06T07:59:43Z</time>
      </trkpt>
      <trkpt lat="45.9288" lon="4.73934">
        <ele>172</ele>
        <time>2017-07-06T07:59:44Z</time>
      </trkpt>
      <trkpt lat="45.9288" lon="4.73943">
        <ele>172</ele>
        <time>2017-07-06T07:59:45Z</time>
      </trkpt>
      <trkpt lat="45.92881" lon="4.73951">
        <ele>172</ele>
        <time>2017-07-06T07:59:46Z</time>
      </trkpt>
      <trkpt lat="45.92881" lon="4.73959">
        <ele>172</ele>
        <time>2017-07-06T07:59:47Z</time>
      </trkpt>
      <trkpt lat="45.92881" lon="4.73966">
        <ele>172</ele>
        <time>2017-07-06T07:59:48Z</time>
      </trkpt>
      <trkpt lat="45.92881" lon="4.73973">
        <ele>172</ele>
        <time>2017-07-06T07:59:49Z</time>
      </trkpt>
      <trkpt lat="45.9288" lon="4.7398">
        <ele>172</ele>
        <time>2017-07-06T07:59:50Z</time>
      </trkpt>
      <trkpt lat="45.92879" lon="4.73987">
        <ele>172</ele>
        <time>2017-07-06T07:59:51Z</time>
      </trkpt>
      <trkpt lat="45.92877" lon="4.73994">
        <ele>172</ele>
        <time>2017-07-06T07:59:52Z</time>
      </trkpt>
      <trkpt lat="45.92874" lon="4.74001">
        <ele>172</ele>
        <time>2017-07-06T07:59:53Z</time>
      </trkpt>
      <trkpt lat="45.92872" lon="4.74009">
        <ele>172</ele>
        <time>2017-07-06T07:59:54Z</time>
      </trkpt>
      <trkpt lat="45.92871" lon="4.74017">
        <ele>172</ele>
        <time>2017-07-06T07:59:55Z</time>
      </trkpt>
      <trkpt lat="45.9287" lon="4.74025">
        <ele>172</ele>
        <time>2017-07-06T07:59:56Z</time>
      </trkpt>
      <trkpt lat="45.92869" lon="4.74033">
        <ele>172</ele>
        <time>2017-07-06T07:59:57Z</time>
      </trkpt>
      <trkpt lat="45.92867" lon="4.7404">
        <ele>172</ele>
        <time>2017-07-06T07:59:58Z</time>
      </trkpt>
      <trkpt lat="45.92864" lon="4.74047">
        <ele>172</ele>
        <time>2017-07-06T07:59:59Z</time>
      </trkpt>
      <trkpt lat="45.92859" lon="4.74054">
        <ele>172</ele>
        <time>2017-07-06T08:00:00Z</time>
      </trkpt>
      <trkpt lat="45.92855" lon="4.7406">
        <ele>172</ele>
        <time>2017-07-06T08:00:01Z</time>
      </trkpt>
      <trkpt lat="45.92852" lon="4.74064">
        <ele>172</ele>
        <time>2017-07-06T08:00:02Z</time>
      </trkpt>
      <trkpt lat="45.92847" lon="4.74069">
        <ele>172</ele>
        <time>2017-07-06T08:00:03Z</time>
      </trkpt>
      <trkpt lat="45.92843" lon="4.74075">
        <ele>172</ele>
        <time>2017-07-06T08:00:04Z</time>
      </trkpt>
      <trkpt lat="45.92838" lon="4.7408">
        <ele>171</ele>
        <time>2017-07-06T08:00:05Z</time>
      </trkpt>
      <trkpt lat="45.92833" lon="4.74086">
        <ele>171</ele>
        <time>2017-07-06T08:00:06Z</time>
      </trkpt>
      <trkpt lat="45.92828" lon="4.74092">
        <ele>171</ele>
        <time>2017-07-06T08:00:07Z</time>
      </trkpt>
      <trkpt lat="45.92823" lon="4.74097">
        <ele>171</ele>
        <time>2017-07-06T08:00:08Z</time>
      </trkpt>
      <trkpt lat="45.92818" lon="4.74102">
        <ele>171</ele>
        <time>2017-07-06T08:00:09Z</time>
      </trkpt>
      <trkpt lat="45.92813" lon="4.74108">
        <ele>172</ele>
        <time>2017-07-06T08:00:10Z</time>
      </trkpt>
      <trkpt lat="45.92808" lon="4.74113">
        <ele>172</ele>
        <time>2017-07-06T08:00:11Z</time>
      </trkpt>
      <trkpt lat="45.92803" lon="4.74118">
        <ele>172</ele>
        <time>2017-07-06T08:00:12Z</time>
      </trkpt>
      <trkpt lat="45.92799" lon="4.74123">
        <ele>172</ele>
        <time>2017-07-06T08:00:13Z</time>
      </trkpt>
      <trkpt lat="45.92794" lon="4.74128">
        <ele>172</ele>
        <time>2017-07-06T08:00:14Z</time>
      </trkpt>
      <trkpt lat="45.9279" lon="4.74133">
        <ele>172</ele>
        <time>2017-07-06T08:00:15Z</time>
      </trkpt>
      <trkpt lat="45.92786" lon="4.74137">
        <ele>172</ele>
        <time>2017-07-06T08:00:16Z</time>
      </trkpt>
      <trkpt lat="45.92781" lon="4.74142">
        <ele>172</ele>
        <time>2017-07-06T08:00:17Z</time>
      </trkpt>
      <trkpt lat="45.92777" lon="4.74147">
        <ele>172</ele>
        <time>2017-07-06T08:00:18Z</time>
      </trkpt>
      <trkpt lat="45.92773" lon="4.74152">
        <ele>172</ele>
        <time>2017-07-06T08:00:19Z</time>
      </trkpt>
      <trkpt lat="45.92768" lon="4.74157">
        <ele>172</ele>
        <time>2017-07-06T08:00:20Z</time>
      </trkpt>
      <trkpt lat="45.92763" lon="4.74163">
        <ele>172</ele>
        <time>2017-07-06T08:00:21Z</time>
      </trkpt>
      <trkpt lat="45.92758" lon="4.74169">
        <ele>172</ele>
        <time>2017-07-06T08:00:22Z</time>
      </trkpt>
      <trkpt lat="45.92753" lon="4.74174">
        <ele>172</ele>
        <time>2017-07-06T08:00:23Z</time>
      </trkpt>
      <trkpt lat="45.92748" lon="4.7418">
        <ele>172</ele>
        <time>2017-07-06T08:00:24Z</time>
      </trkpt>
      <trkpt lat="45.92743" lon="4.74186">
        <ele>172</ele>
        <time>2017-07-06T08:00:25Z</time>
      </trkpt>
      <trkpt lat="45.92739" lon="4.74192">
        <ele>171</ele>
        <time>2017-07-06T08:00:26Z</time>
      </trkpt>
      <trkpt lat="45.92734" lon="4.74198">
        <ele>171</ele>
        <time>2017-07-06T08:00:27Z</time>
      </trkpt>
      <trkpt lat="45.9273" lon="4.74204">
        <ele>171</ele>
        <time>2017-07-06T08:00:28Z</time>
      </trkpt>
      <trkpt lat="45.92725" lon="4.74211">
        <ele>171</ele>
        <time>2017-07-06T08:00:29Z</time>
      </trkpt>
      <trkpt lat="45.92721" lon="4.74217">
        <ele>171</ele>
        <time>2017-07-06T08:00:30Z</time>
      </trkpt>
      <trkpt lat="45.92716" lon="4.74223">
        <ele>171</ele>
        <time>2017-07-06T08:00:31Z</time>
      </trkpt>
      <trkpt lat="45.92712" lon="4.74229">
        <ele>171</ele>
        <time>2017-07-06T08:00:32Z</time>
      </trkpt>
      <trkpt lat="45.92708" lon="4.74235">
        <ele>171</ele>
        <time>2017-07-06T08:00:33Z</time>
      </trkpt>
      <trkpt lat="45.92704" lon="4.74242">
        <ele>171</ele>
        <time>2017-07-06T08:00:34Z</time>
      </trkpt>
      <trkpt lat="45.927" lon="4.74248">
        <ele>171</ele>
        <time>2017-07-06T08:00:35Z</time>
      </trkpt>
      <trkpt lat="45.92697" lon="4.74254">
        <ele>171</ele>
        <time>2017-07-06T08:00:36Z</time>
      </trkpt>
      <trkpt lat="45.92693" lon="4.7426">
        <ele>171</ele>
        <time>2017-07-06T08:00:37Z</time>
      </trkpt>
      <trkpt lat="45.92689" lon="4.74267">
        <ele>171</ele>
        <time>2017-07-06T08:00:38Z</time>
      </trkpt>
      <trkpt lat="45.92685" lon="4.74273">
        <ele>171</ele>
        <time>2017-07-06T08:00:39Z</time>
      </trkpt>
      <trkpt lat="45.92682" lon="4.7428">
        <ele>171</ele>
        <time>2017-07-06T08:00:40Z</time>
      </trkpt>
      <trkpt lat="45.92678" lon="4.74287">
        <ele>171</ele>
        <time>2017-07-06T08:00:41Z</time>
      </trkpt>
      <trkpt lat="45.92674" lon="4.74293">
        <ele>171</ele>
        <time>2017-07-06T08:00:42Z</time>
      </trkpt>
      <trkpt lat="45.92671" lon="4.743">
        <ele>171</ele>
        <time>2017-07-06T08:00:43Z</time>
      </trkpt>
      <trkpt lat="45.92667" lon="4.74307">
        <ele>171</ele>
        <time>2017-07-06T08:00:44Z</time>
      </trkpt>
      <trkpt lat="45.92663" lon="4.74314">
        <ele>171</ele>
        <time>2017-07-06T08:00:45Z</time>
      </trkpt>
      <trkpt lat="45.9266" lon="4.74321">
        <ele>171</ele>
        <time>2017-07-06T08:00:46Z</time>
      </trkpt>
      <trkpt lat="45.92656" lon="4.74328">
        <ele>171</ele>
        <time>2017-07-06T08:00:47Z</time>
      </trkpt>
      <trkpt lat="45.92652" lon="4.74335">
        <ele>171</ele>
        <time>2017-07-06T08:00:48Z</time>
      </trkpt>
      <trkpt lat="45.92648" lon="4.74342">
        <ele>171</ele>
        <time>2017-07-06T08:00:49Z</time>
      </trkpt>
      <trkpt lat="45.92644" lon="4.74349">
        <ele>171</ele>
        <time>2017-07-06T08:00:50Z</time>
      </trkpt>
      <trkpt lat="45.9264" lon="4.74357">
        <ele>171</ele>
        <time>2017-07-06T08:00:51Z</time>
      </trkpt>
      <trkpt lat="45.92636" lon="4.74364">
        <ele>171</ele>
        <time>2017-07-06T08:00:52Z</time>
      </trkpt>
      <trkpt lat="45.92632" lon="4.74372">
        <ele>171</ele>
        <time>2017-07-06T08:00:53Z</time>
      </trkpt>
      <trkpt lat="45.92628" lon="4.74379">
        <ele>170</ele>
        <time>2017-07-06T08:00:54Z</time>
      </trkpt>
      <trkpt lat="45.92624" lon="4.74387">
        <ele>170</ele>
        <time>2017-07-06T08:00:55Z</time>
      </trkpt>
      <trkpt lat="45.9262" lon="4.74394">
        <ele>170</ele>
        <time>2017-07-06T08:00:56Z</time>
      </trkpt>
      <trkpt lat="45.92616" lon="4.74401">
        <ele>170</ele>
        <time>2017-07-06T08:00:57Z</time>
      </trkpt>
      <trkpt lat="45.92612" lon="4.74407">
        <ele>170</ele>
        <time>2017-07-06T08:00:58Z</time>
      </trkpt>
      <trkpt lat="45.92608" lon="4.74414">
        <ele>170</ele>
        <time>2017-07-06T08:00:59Z</time>
      </trkpt>
      <trkpt lat="45.92604" lon="4.7442">
        <ele>170</ele>
        <time>2017-07-06T08:01:00Z</time>
      </trkpt>
      <trkpt lat="45.92601" lon="4.74427">
        <ele>170</ele>
        <time>2017-07-06T08:01:01Z</time>
      </trkpt>
      <trkpt lat="45.92597" lon="4.74434">
        <ele>170</ele>
        <time>2017-07-06T08:01:02Z</time>
      </trkpt>
      <trkpt lat="45.92593" lon="4.74441">
        <ele>170</ele>
        <time>2017-07-06T08:01:03Z</time>
      </trkpt>
      <trkpt lat="45.92589" lon="4.74449">
        <ele>170</ele>
        <time>2017-07-06T08:01:04Z</time>
      </trkpt>
      <trkpt lat="45.92585" lon="4.74457">
        <ele>170</ele>
        <time>2017-07-06T08:01:05Z</time>
      </trkpt>
      <trkpt lat="45.92581" lon="4.74464">
        <ele>170</ele>
        <time>2017-07-06T08:01:06Z</time>
      </trkpt>
      <trkpt lat="45.92577" lon="4.74472">
        <ele>170</ele>
        <time>2017-07-06T08:01:07Z</time>
      </trkpt>
      <trkpt lat="45.92573" lon="4.7448">
        <ele>170</ele>
        <time>2017-07-06T08:01:08Z</time>
      </trkpt>
      <trkpt lat="45.92568" lon="4.74488">
        <ele>170</ele>
        <time>2017-07-06T08:01:09Z</time>
      </trkpt>
      <trkpt lat="45.92564" lon="4.74496">
        <ele>170</ele>
        <time>2017-07-06T08:01:10Z</time>
      </trkpt>
      <trkpt lat="45.9256" lon="4.74503">
        <ele>170</ele>
        <time>2017-07-06T08:01:11Z</time>
      </trkpt>
      <trkpt lat="45.92556" lon="4.7451">
        <ele>170</ele>
        <time>2017-07-06T08:01:12Z</time>
      </trkpt>
      <trkpt lat="45.92552" lon="4.74517">
        <ele>170</ele>
        <time>2017-07-06T08:01:13Z</time>
      </trkpt>
      <trkpt lat="45.92549" lon="4.74525">
        <ele>170</ele>
        <time>2017-07-06T08:01:14Z</time>
      </trkpt>
      <trkpt lat="45.92545" lon="4.74532">
        <ele>170</ele>
        <time>2017-07-06T08:01:15Z</time>
      </trkpt>
      <trkpt lat="45.9254" lon="4.74538">
        <ele>171</ele>
        <time>2017-07-06T08:01:16Z</time>
      </trkpt>
      <trkpt lat="45.92536" lon="4.74545">
        <ele>171</ele>
        <time>2017-07-06T08:01:17Z</time>
      </trkpt>
      <trkpt lat="45.92532" lon="4.74552">
        <ele>171</ele>
        <time>2017-07-06T08:01:18Z</time>
      </trkpt>
      <trkpt lat="45.92527" lon="4.74558">
        <ele>171</ele>
        <time>2017-07-06T08:01:19Z</time>
      </trkpt>
      <trkpt lat="45.92523" lon="4.74565">
        <ele>171</ele>
        <time>2017-07-06T08:01:20Z</time>
      </trkpt>
      <trkpt lat="45.92518" lon="4.74571">
        <ele>171</ele>
        <time>2017-07-06T08:01:21Z</time>
      </trkpt>
      <trkpt lat="45.92513" lon="4.74577">
        <ele>171</ele>
        <time>2017-07-06T08:01:22Z</time>
      </trkpt>
      <trkpt lat="45.92508" lon="4.74582">
        <ele>171</ele>
        <time>2017-07-06T08:01:23Z</time>
      </trkpt>
      <trkpt lat="45.92503" lon="4.74588">
        <ele>171</ele>
        <time>2017-07-06T08:01:24Z</time>
      </trkpt>
      <trkpt lat="45.92499" lon="4.74594">
        <ele>171</ele>
        <time>2017-07-06T08:01:25Z</time>
      </trkpt>
      <trkpt lat="45.92494" lon="4.746">
        <ele>171</ele>
        <time>2017-07-06T08:01:26Z</time>
      </trkpt>
      <trkpt lat="45.92489" lon="4.74606">
        <ele>171</ele>
        <time>2017-07-06T08:01:27Z</time>
      </trkpt>
      <trkpt lat="45.92484" lon="4.74612">
        <ele>171</ele>
        <time>2017-07-06T08:01:28Z</time>
      </trkpt>
      <trkpt lat="45.9248" lon="4.74618">
        <ele>171</ele>
        <time>2017-07-06T08:01:29Z</time>
      </trkpt>
      <trkpt lat="45.92476" lon="4.74625">
        <ele>171</ele>
        <time>2017-07-06T08:01:30Z</time>
      </trkpt>
      <trkpt lat="45.92471" lon="4.74632">
        <ele>171</ele>
        <time>2017-07-06T08:01:31Z</time>
      </trkpt>
      <trkpt lat="45.92467" lon="4.74638">
        <ele>171</ele>
        <time>2017-07-06T08:01:32Z</time>
      </trkpt>
      <trkpt lat="45.92463" lon="4.74644">
        <ele>171</ele>
        <time>2017-07-06T08:01:33Z</time>
      </trkpt>
      <trkpt lat="45.92459" lon="4.7465">
        <ele>171</ele>
        <time>2017-07-06T08:01:34Z</time>
      </trkpt>
      <trkpt lat="45.92456" lon="4.74657">
        <ele>171</ele>
        <time>2017-07-06T08:01:35Z</time>
      </trkpt>
      <trkpt lat="45.92452" lon="4.74662">
        <ele>171</ele>
        <time>2017-07-06T08:01:36Z</time>
      </trkpt>
      <trkpt lat="45.92449" lon="4.74667">
        <ele>171</ele>
        <time>2017-07-06T08:01:37Z</time>
      </trkpt>
      <trkpt lat="45.92446" lon="4.74674">
        <ele>171</ele>
        <time>2017-07-06T08:01:38Z</time>
      </trkpt>
      <trkpt lat="45.92442" lon="4.74681">
        <ele>171</ele>
        <time>2017-07-06T08:01:39Z</time>
      </trkpt>
      <trkpt lat="45.92439" lon="4.74688">
        <ele>171</ele>
        <time>2017-07-06T08:01:40Z</time>
      </trkpt>
      <trkpt lat="45.92436" lon="4.74695">
        <ele>171</ele>
        <time>2017-07-06T08:01:41Z</time>
      </trkpt>
      <trkpt lat="45.92433" lon="4.74703">
        <ele>171</ele>
        <time>2017-07-06T08:01:42Z</time>
      </trkpt>
      <trkpt lat="45.9243" lon="4.74711">
        <ele>171</ele>
        <time>2017-07-06T08:01:43Z</time>
      </trkpt>
      <trkpt lat="45.92427" lon="4.7472">
        <ele>171</ele>
        <time>2017-07-06T08:01:44Z</time>
      </trkpt>
      <trkpt lat="45.92425" lon="4.74728">
        <ele>171</ele>
        <time>2017-07-06T08:01:45Z</time>
      </trkpt>
      <trkpt lat="45.92422" lon="4.74737">
        <ele>171</ele>
        <time>2017-07-06T08:01:46Z</time>
      </trkpt>
      <trkpt lat="45.9242" lon="4.74746">
        <ele>172</ele>
        <time>2017-07-06T08:01:47Z</time>
      </trkpt>
      <trkpt lat="45.92417" lon="4.74754">
        <ele>172</ele>
        <time>2017-07-06T08:01:48Z</time>
      </trkpt>
      <trkpt lat="45.92415" lon="4.74762">
        <ele>172</ele>
        <time>2017-07-06T08:01:49Z</time>
      </trkpt>
      <trkpt lat="45.92413" lon="4.74771">
        <ele>172</ele>
        <time>2017-07-06T08:01:50Z</time>
      </trkpt>
      <trkpt lat="45.92411" lon="4.74779">
        <ele>171</ele>
        <time>2017-07-06T08:01:51Z</time>
      </trkpt>
      <trkpt lat="45.92409" lon="4.74787">
        <ele>171</ele>
        <time>2017-07-06T08:01:52Z</time>
      </trkpt>
      <trkpt lat="45.92407" lon="4.74795">
        <ele>171</ele>
        <time>2017-07-06T08:01:53Z</time>
      </trkpt>
      <trkpt lat="45.92406" lon="4.74804">
        <ele>171</ele>
        <time>2017-07-06T08:01:54Z</time>
      </trkpt>
      <trkpt lat="45.92404" lon="4.74812">
        <ele>171</ele>
        <time>2017-07-06T08:01:55Z</time>
      </trkpt>
      <trkpt lat="45.92402" lon="4.74821">
        <ele>171</ele>
        <time>2017-07-06T08:01:56Z</time>
      </trkpt>
      <trkpt lat="45.92401" lon="4.74829">
        <ele>171</ele>
        <time>2017-07-06T08:01:57Z</time>
      </trkpt>
      <trkpt lat="45.92399" lon="4.74837">
        <ele>171</ele>
        <time>2017-07-06T08:01:58Z</time>
      </trkpt>
      <trkpt lat="45.92396" lon="4.74845">
        <ele>171</ele>
        <time>2017-07-06T08:01:59Z</time>
      </trkpt>
      <trkpt lat="45.92394" lon="4.74854">
        <ele>171</ele>
        <time>2017-07-06T08:02:00Z</time>
      </trkpt>
      <trkpt lat="45.92391" lon="4.74862">
        <ele>171</ele>
        <time>2017-07-06T08:02:01Z</time>
      </trkpt>
      <trkpt lat="45.92388" lon="4.7487">
        <ele>171</ele>
        <time>2017-07-06T08:02:02Z</time>
      </trkpt>
      <trkpt lat="45.92385" lon="4.74879">
        <ele>171</ele>
        <time>2017-07-06T08:02:03Z</time>
      </trkpt>
      <trkpt lat="45.92382" lon="4.74887">
        <ele>171</ele>
        <time>2017-07-06T08:02:04Z</time>
      </trkpt>
      <trkpt lat="45.92379" lon="4.74895">
        <ele>171</ele>
        <time>2017-07-06T08:02:05Z</time>
      </trkpt>
      <trkpt lat="45.92375" lon="4.74904">
        <ele>171</ele>
        <time>2017-07-06T08:02:06Z</time>
      </trkpt>
      <trkpt lat="45.92372" lon="4.74911">
        <ele>171</ele>
        <time>2017-07-06T08:02:07Z</time>
      </trkpt>
      <trkpt lat="45.92369" lon="4.74918">
        <ele>170</ele>
        <time>2017-07-06T08:02:08Z</time>
      </trkpt>
      <trkpt lat="45.92366" lon="4.74926">
        <ele>170</ele>
        <time>2017-07-06T08:02:09Z</time>
      </trkpt>
      <trkpt lat="45.92364" lon="4.74932">
        <ele>170</ele>
        <time>2017-07-06T08:02:10Z</time>
      </trkpt>
      <trkpt lat="45.92361" lon="4.74939">
        <ele>170</ele>
        <time>2017-07-06T08:02:11Z</time>
      </trkpt>
      <trkpt lat="45.92359" lon="4.74946">
        <ele>170</ele>
        <time>2017-07-06T08:02:12Z</time>
      </trkpt>
      <trkpt lat="45.92356" lon="4.74953">
        <ele>170</ele>
        <time>2017-07-06T08:02:13Z</time>
      </trkpt>
      <trkpt lat="45.92354" lon="4.74961">
        <ele>170</ele>
        <time>2017-07-06T08:02:14Z</time>
      </trkpt>
      <trkpt lat="45.92351" lon="4.74968">
        <ele>170</ele>
        <time>2017-07-06T08:02:15Z</time>
      </trkpt>
      <trkpt lat="45.92348" lon="4.74975">
        <ele>170</ele>
        <time>2017-07-06T08:02:16Z</time>
      </trkpt>
      <trkpt lat="45.92345" lon="4.74983">
        <ele>170</ele>
        <time>2017-07-06T08:02:17Z</time>
      </trkpt>
      <trkpt lat="45.92342" lon="4.74991">
        <ele>170</ele>
        <time>2017-07-06T08:02:18Z</time>
      </trkpt>
      <trkpt lat="45.92339" lon="4.74998">
        <ele>170</ele>
        <time>2017-07-06T08:02:19Z</time>
      </trkpt>
      <trkpt lat="45.92336" lon="4.75006">
        <ele>170</ele>
        <time>2017-07-06T08:02:20Z</time>
      </trkpt>
      <trkpt lat="45.92333" lon="4.75014">
        <ele>171</ele>
        <time>2017-07-06T08:02:21Z</time>
      </trkpt>
      <trkpt lat="45.9233" lon="4.75022">
        <ele>171</ele>
        <time>2017-07-06T08:02:22Z</time>
      </trkpt>
      <trkpt lat="45.92326" lon="4.75029">
        <ele>171</ele>
        <time>2017-07-06T08:02:23Z</time>
      </trkpt>
      <trkpt lat="45.92322" lon="4.75036">
        <ele>171</ele>
        <time>2017-07-06T08:02:24Z</time>
      </trkpt>
      <trkpt lat="45.92318" lon="4.75042">
        <ele>172</ele>
        <time>2017-07-06T08:02:25Z</time>
      </trkpt>
      <trkpt lat="45.92315" lon="4.75048">
        <ele>172</ele>
        <time>2017-07-06T08:02:26Z</time>
      </trkpt>
      <trkpt lat="45.92311" lon="4.75054">
        <ele>172</ele>
        <time>2017-07-06T08:02:27Z</time>
      </trkpt>
      <trkpt lat="45.92307" lon="4.7506">
        <ele>172</ele>
        <time>2017-07-06T08:02:28Z</time>
      </trkpt>
      <trkpt lat="45.92303" lon="4.75066">
        <ele>172</ele>
        <time>2017-07-06T08:02:29Z</time>
      </trkpt>
      <trkpt lat="45.92298" lon="4.75071">
        <ele>172</ele>
        <time>2017-07-06T08:02:30Z</time>
      </trkpt>
      <trkpt lat="45.92294" lon="4.75076">
        <ele>172</ele>
        <time>2017-07-06T08:02:31Z</time>
      </trkpt>
      <trkpt lat="45.92289" lon="4.75082">
        <ele>172</ele>
        <time>2017-07-06T08:02:32Z</time>
      </trkpt>
      <trkpt lat="45.92284" lon="4.75087">
        <ele>173</ele>
        <time>2017-07-06T08:02:33Z</time>
      </trkpt>
      <trkpt lat="45.92279" lon="4.75091">
        <ele>173</ele>
        <time>2017-07-06T08:02:34Z</time>
      </trkpt>
      <trkpt lat="45.92275" lon="4.75095">
        <ele>173</ele>
        <time>2017-07-06T08:02:35Z</time>
      </trkpt>
      <trkpt lat="45.9227" lon="4.751">
        <ele>173</ele>
        <time>2017-07-06T08:02:36Z</time>
      </trkpt>
      <trkpt lat="45.92266" lon="4.75104">
        <ele>173</ele>
        <time>2017-07-06T08:02:37Z</time>
      </trkpt>
      <trkpt lat="45.92261" lon="4.75109">
        <ele>174</ele>
        <time>2017-07-06T08:02:38Z</time>
      </trkpt>
      <trkpt lat="45.92257" lon="4.75114">
        <ele>174</ele>
        <time>2017-07-06T08:02:39Z</time>
      </trkpt>
      <trkpt lat="45.92253" lon="4.75119">
        <ele>174</ele>
        <time>2017-07-06T08:02:40Z</time>
      </trkpt>
      <trkpt lat="45.92249" lon="4.75124">
        <ele>174</ele>
        <time>2017-07-06T08:02:41Z</time>
      </trkpt>
      <trkpt lat="45.92244" lon="4.75129">
        <ele>174</ele>
        <time>2017-07-06T08:02:42Z</time>
      </trkpt>
      <trkpt lat="45.9224" lon="4.75134">
        <ele>174</ele>
        <time>2017-07-06T08:02:43Z</time>
      </trkpt>
      <trkpt lat="45.92236" lon="4.75141">
        <ele>174</ele>
        <time>2017-07-06T08:02:44Z</time>
      </trkpt>
      <trkpt lat="45.92232" lon="4.75147">
        <ele>174</ele>
        <time>2017-07-06T08:02:45Z</time>
      </trkpt>
      <trkpt lat="45.92229" lon="4.75153">
        <ele>174</ele>
        <time>2017-07-06T08:02:46Z</time>
      </trkpt>
      <trkpt lat="45.92226" lon="4.75159">
        <ele>174</ele>
        <time>2017-07-06T08:02:47Z</time>
      </trkpt>
      <trkpt lat="45.92224" lon="4.75166">
        <ele>174</ele>
        <time>2017-07-06T08:02:48Z</time>
      </trkpt>
      <trkpt lat="45.92221" lon="4.75172">
        <ele>175</ele>
        <time>2017-07-06T08:02:49Z</time>
      </trkpt>
      <trkpt lat="45.92219" lon="4.75179">
        <ele>175</ele>
        <time>2017-07-06T08:02:50Z</time>
      </trkpt>
      <trkpt lat="45.92217" lon="4.75186">
        <ele>175</ele>
        <time>2017-07-06T08:02:51Z</time>
      </trkpt>
      <trkpt lat="45.92215" lon="4.75193">
        <ele>175</ele>
        <time>2017-07-06T08:02:52Z</time>
      </trkpt>
      <trkpt lat="45.92214" lon="4.752">
        <ele>175</ele>
        <time>2017-07-06T08:02:53Z</time>
      </trkpt>
      <trkpt lat="45.92213" lon="4.75208">
        <ele>175</ele>
        <time>2017-07-06T08:02:54Z</time>
      </trkpt>
      <trkpt lat="45.92212" lon="4.75215">
        <ele>175</ele>
        <time>2017-07-06T08:02:55Z</time>
      </trkpt>
      <trkpt lat="45.92211" lon="4.75223">
        <ele>175</ele>
        <time>2017-07-06T08:02:56Z</time>
      </trkpt>
      <trkpt lat="45.92211" lon="4.75231">
        <ele>175</ele>
        <time>2017-07-06T08:02:57Z</time>
      </trkpt>
      <trkpt lat="45.92211" lon="4.75238">
        <ele>175</ele>
        <time>2017-07-06T08:02:58Z</time>
      </trkpt>
      <trkpt lat="45.9221" lon="4.75246">
        <ele>175</ele>
        <time>2017-07-06T08:02:59Z</time>
      </trkpt>
      <trkpt lat="45.9221" lon="4.75254">
        <ele>175</ele>
        <time>2017-07-06T08:03:00Z</time>
      </trkpt>
      <trkpt lat="45.9221" lon="4.75261">
        <ele>176</ele>
        <time>2017-07-06T08:03:01Z</time>
      </trkpt>
      <trkpt lat="45.92209" lon="4.75269">
        <ele>176</ele>
        <time>2017-07-06T08:03:02Z</time>
      </trkpt>
      <trkpt lat="45.9221" lon="4.75277">
        <ele>176</ele>
        <time>2017-07-06T08:03:03Z</time>
      </trkpt>
      <trkpt lat="45.9221" lon="4.75284">
        <ele>176</ele>
        <time>2017-07-06T08:03:04Z</time>
      </trkpt>
      <trkpt lat="45.9221" lon="4.75291">
        <ele>176</ele>
        <time>2017-07-06T08:03:05Z</time>
      </trkpt>
      <trkpt lat="45.9221" lon="4.75298">
        <ele>176</ele>
        <time>2017-07-06T08:03:06Z</time>
      </trkpt>
      <trkpt lat="45.9221" lon="4.75305">
        <ele>176</ele>
        <time>2017-07-06T08:03:07Z</time>
      </trkpt>
      <trkpt lat="45.92209" lon="4.75312">
        <ele>176</ele>
        <time>2017-07-06T08:03:08Z</time>
      </trkpt>
      <trkpt lat="45.92209" lon="4.75318">
        <ele>176</ele>
        <time>2017-07-06T08:03:09Z</time>
      </trkpt>
      <trkpt lat="45.92208" lon="4.75325">
        <ele>176</ele>
        <time>2017-07-06T08:03:10Z</time>
      </trkpt>
      <trkpt lat="45.92207" lon="4.75332">
        <ele>176</ele>
        <time>2017-07-06T08:03:11Z</time>
      </trkpt>
      <trkpt lat="45.92206" lon="4.75339">
        <ele>177</ele>
        <time>2017-07-06T08:03:12Z</time>
      </trkpt>
      <trkpt lat="45.92204" lon="4.75346">
        <ele>177</ele>
        <time>2017-07-06T08:03:13Z</time>
      </trkpt>
      <trkpt lat="45.92202" lon="4.75353">
        <ele>177</ele>
        <time>2017-07-06T08:03:14Z</time>
      </trkpt>
      <trkpt lat="45.922" lon="4.75359">
        <ele>177</ele>
        <time>2017-07-06T08:03:15Z</time>
      </trkpt>
      <trkpt lat="45.92197" lon="4.75365">
        <ele>177</ele>
        <time>2017-07-06T08:03:16Z</time>
      </trkpt>
      <trkpt lat="45.92195" lon="4.75372">
        <ele>177</ele>
        <time>2017-07-06T08:03:17Z</time>
      </trkpt>
      <trkpt lat="45.92193" lon="4.75378">
        <ele>177</ele>
        <time>2017-07-06T08:03:18Z</time>
      </trkpt>
      <trkpt lat="45.92191" lon="4.75385">
        <ele>177</ele>
        <time>2017-07-06T08:03:19Z</time>
      </trkpt>
      <trkpt lat="45.92189" lon="4.75393">
        <ele>177</ele>
        <time>2017-07-06T08:03:20Z</time>
      </trkpt>
      <trkpt lat="45.92186" lon="4.75399">
        <ele>177</ele>
        <time>2017-07-06T08:03:21Z</time>
      </trkpt>
      <trkpt lat="45.92184" lon="4.75406">
        <ele>177</ele>
        <time>2017-07-06T08:03:22Z</time>
      </trkpt>
      <trkpt lat="45.92181" lon="4.75413">
        <ele>177</ele>
        <time>2017-07-06T08:03:23Z</time>
      </trkpt>
      <trkpt lat="45.92179" lon="4.75419">
        <ele>177</ele>
        <time>2017-07-06T08:03:24Z</time>
      </trkpt>
      <trkpt lat="45.92176" lon="4.75426">
        <ele>177</ele>
        <time>2017-07-06T08:03:25Z</time>
      </trkpt>
      <trkpt lat="45.92174" lon="4.75432">
        <ele>177</ele>
        <time>2017-07-06T08:03:26Z</time>
      </trkpt>
      <trkpt lat="45.92172" lon="4.75439">
        <ele>177</ele>
        <time>2017-07-06T08:03:27Z</time>
      </trkpt>
      <trkpt lat="45.92169" lon="4.75445">
        <ele>176</ele>
        <time>2017-07-06T08:03:28Z</time>
      </trkpt>
      <trkpt lat="45.92167" lon="4.75452">
        <ele>176</ele>
        <time>2017-07-06T08:03:29Z</time>
      </trkpt>
      <trkpt lat="45.92165" lon="4.75459">
        <ele>176</ele>
        <time>2017-07-06T08:03:30Z</time>
      </trkpt>
      <trkpt lat="45.92162" lon="4.75465">
        <ele>176</ele>
        <time>2017-07-06T08:03:31Z</time>
      </trkpt>
      <trkpt lat="45.92159" lon="4.75473">
        <ele>176</ele>
        <time>2017-07-06T08:03:32Z</time>
      </trkpt>
      <trkpt lat="45.92156" lon="4.7548">
        <ele>176</ele>
        <time>2017-07-06T08:03:33Z</time>
      </trkpt>
      <trkpt lat="45.92151" lon="4.75487">
        <ele>176</ele>
        <time>2017-07-06T08:03:34Z</time>
      </trkpt>
      <trkpt lat="45.92148" lon="4.75494">
        <ele>175</ele>
        <time>2017-07-06T08:03:35Z</time>
      </trkpt>
      <trkpt lat="45.92144" lon="4.75501">
        <ele>175</ele>
        <time>2017-07-06T08:03:36Z</time>
      </trkpt>
      <trkpt lat="45.9214" lon="4.75508">
        <ele>174</ele>
        <time>2017-07-06T08:03:37Z</time>
      </trkpt>
      <trkpt lat="45.92137" lon="4.75514">
        <ele>174</ele>
        <time>2017-07-06T08:03:38Z</time>
      </trkpt>
      <trkpt lat="45.92132" lon="4.75521">
        <ele>174</ele>
        <time>2017-07-06T08:03:39Z</time>
      </trkpt>
      <trkpt lat="45.92129" lon="4.75527">
        <ele>174</ele>
        <time>2017-07-06T08:03:40Z</time>
      </trkpt>
      <trkpt lat="45.92126" lon="4.75534">
        <ele>174</ele>
        <time>2017-07-06T08:03:41Z</time>
      </trkpt>
      <trkpt lat="45.92123" lon="4.7554">
        <ele>174</ele>
        <time>2017-07-06T08:03:42Z</time>
      </trkpt>
      <trkpt lat="45.9212" lon="4.75547">
        <ele>174</ele>
        <time>2017-07-06T08:03:43Z</time>
      </trkpt>
      <trkpt lat="45.92117" lon="4.75553">
        <ele>174</ele>
        <time>2017-07-06T08:03:44Z</time>
      </trkpt>
      <trkpt lat="45.92114" lon="4.75559">
        <ele>174</ele>
        <time>2017-07-06T08:03:45Z</time>
      </trkpt>
      <trkpt lat="45.92111" lon="4.75565">
        <ele>174</ele>
        <time>2017-07-06T08:03:46Z</time>
      </trkpt>
      <trkpt lat="45.92109" lon="4.75571">
        <ele>174</ele>
        <time>2017-07-06T08:03:47Z</time>
      </trkpt>
      <trkpt lat="45.92109" lon="4.75579">
        <ele>174</ele>
        <time>2017-07-06T08:03:48Z</time>
      </trkpt>
      <trkpt lat="45.92111" lon="4.75586">
        <ele>174</ele>
        <time>2017-07-06T08:03:49Z</time>
      </trkpt>
      <trkpt lat="45.92114" lon="4.75592">
        <ele>174</ele>
        <time>2017-07-06T08:03:50Z</time>
      </trkpt>
      <trkpt lat="45.92119" lon="4.75597">
        <ele>174</ele>
        <time>2017-07-06T08:03:51Z</time>
      </trkpt>
      <trkpt lat="45.92123" lon="4.75602">
        <ele>174</ele>
        <time>2017-07-06T08:03:52Z</time>
      </trkpt>
      <trkpt lat="45.92127" lon="4.75606">
        <ele>174</ele>
        <time>2017-07-06T08:03:53Z</time>
      </trkpt>
      <trkpt lat="45.92132" lon="4.75611">
        <ele>174</ele>
        <time>2017-07-06T08:03:54Z</time>
      </trkpt>
      <trkpt lat="45.92137" lon="4.75616">
        <ele>174</ele>
        <time>2017-07-06T08:03:55Z</time>
      </trkpt>
      <trkpt lat="45.92142" lon="4.75621">
        <ele>174</ele>
        <time>2017-07-06T08:03:56Z</time>
      </trkpt>
      <trkpt lat="45.92147" lon="4.75626">
        <ele>174</ele>
        <time>2017-07-06T08:03:57Z</time>
      </trkpt>
      <trkpt lat="45.92152" lon="4.7563">
        <ele>174</ele>
        <time>2017-07-06T08:03:58Z</time>
      </trkpt>
      <trkpt lat="45.92156" lon="4.75635">
        <ele>174</ele>
        <time>2017-07-06T08:03:59Z</time>
      </trkpt>
      <trkpt lat="45.9216" lon="4.75639">
        <ele>174</ele>
        <time>2017-07-06T08:04:00Z</time>
      </trkpt>
      <trkpt lat="45.92164" lon="4.75642">
        <ele>174</ele>
        <time>2017-07-06T08:04:01Z</time>
      </trkpt>
      <trkpt lat="45.92169" lon="4.75646">
        <ele>174</ele>
        <time>2017-07-06T08:04:02Z</time>
      </trkpt>
      <trkpt lat="45.92173" lon="4.7565">
        <ele>174</ele>
        <time>2017-07-06T08:04:03Z</time>
      </trkpt>
      <trkpt lat="45.92177" lon="4.75654">
        <ele>174</ele>
        <time>2017-07-06T08:04:04Z</time>
      </trkpt>
      <trkpt lat="45.92182" lon="4.75659">
        <ele>174</ele>
        <time>2017-07-06T08:04:05Z</time>
      </trkpt>
      <trkpt lat="45.92186" lon="4.75663">
        <ele>174</ele>
        <time>2017-07-06T08:04:06Z</time>
      </trkpt>
      <trkpt lat="45.9219" lon="4.75668">
        <ele>174</ele>
        <time>2017-07-06T08:04:07Z</time>
      </trkpt>
      <trkpt lat="45.92195" lon="4.75672">
        <ele>174</ele>
        <time>2017-07-06T08:04:08Z</time>
      </trkpt>
      <trkpt lat="45.92199" lon="4.75676">
        <ele>174</ele>
        <time>2017-07-06T08:04:09Z</time>
      </trkpt>
      <trkpt lat="45.92204" lon="4.7568">
        <ele>174</ele>
        <time>2017-07-06T08:04:10Z</time>
      </trkpt>
      <trkpt lat="45.92208" lon="4.75684">
        <ele>174</ele>
        <time>2017-07-06T08:04:11Z</time>
      </trkpt>
      <trkpt lat="45.92212" lon="4.75687">
        <ele>174</ele>
        <time>2017-07-06T08:04:12Z</time>
      </trkpt>
      <trkpt lat="45.92216" lon="4.75691">
        <ele>174</ele>
        <time>2017-07-06T08:04:13Z</time>
      </trkpt>
      <trkpt lat="45.9222" lon="4.75695">
        <ele>174</ele>
        <time>2017-07-06T08:04:14Z</time>
      </trkpt>
      <trkpt lat="45.92224" lon="4.75699">
        <ele>174</ele>
        <time>2017-07-06T08:04:15Z</time>
      </trkpt>
      <trkpt lat="45.92228" lon="4.75704">
        <ele>174</ele>
        <time>2017-07-06T08:04:16Z</time>
      </trkpt>
      <trkpt lat="45.92232" lon="4.75709">
        <ele>174</ele>
        <time>2017-07-06T08:04:17Z</time>
      </trkpt>
      <trkpt lat="45.92235" lon="4.75715">
        <ele>174</ele>
        <time>2017-07-06T08:04:18Z</time>
      </trkpt>
      <trkpt lat="45.92238" lon="4.75721">
        <ele>174</ele>
        <time>2017-07-06T08:04:19Z</time>
      </trkpt>
      <trkpt lat="45.9224" lon="4.75727">
        <ele>174</ele>
        <time>2017-07-06T08:04:20Z</time>
      </trkpt>
      <trkpt lat="45.92242" lon="4.75733">
        <ele>174</ele>
        <time>2017-07-06T08:04:21Z</time>
      </trkpt>
      <trkpt lat="45.92244" lon="4.75739">
        <ele>174</ele>
        <time>2017-07-06T08:04:22Z</time>
      </trkpt>
      <trkpt lat="45.92246" lon="4.75745">
        <ele>174</ele>
        <time>2017-07-06T08:04:23Z</time>
      </trkpt>
      <trkpt lat="45.92247" lon="4.75752">
        <ele>174</ele>
        <time>2017-07-06T08:04:24Z</time>
      </trkpt>
      <trkpt lat="45.92248" lon="4.75759">
        <ele>174</ele>
        <time>2017-07-06T08:04:25Z</time>
      </trkpt>
      <trkpt lat="45.9225" lon="4.75767">
        <ele>174</ele>
        <time>2017-07-06T08:04:26Z</time>
      </trkpt>
      <trkpt lat="45.92251" lon="4.75775">
        <ele>174</ele>
        <time>2017-07-06T08:04:27Z</time>
      </trkpt>
      <trkpt lat="45.92253" lon="4.75782">
        <ele>174</ele>
        <time>2017-07-06T08:04:28Z</time>
      </trkpt>
      <trkpt lat="45.92254" lon="4.75789">
        <ele>174</ele>
        <time>2017-07-06T08:04:29Z</time>
      </trkpt>
      <trkpt lat="45.92256" lon="4.75797">
        <ele>174</ele>
        <time>2017-07-06T08:04:30Z</time>
      </trkpt>
      <trkpt lat="45.92258" lon="4.75804">
        <ele>174</ele>
        <time>2017-07-06T08:04:31Z</time>
      </trkpt>
      <trkpt lat="45.9226" lon="4.75811">
        <ele>174</ele>
        <time>2017-07-06T08:04:32Z</time>
      </trkpt>
      <trkpt lat="45.92263" lon="4.75817">
        <ele>174</ele>
        <time>2017-07-06T08:04:33Z</time>
      </trkpt>
      <trkpt lat="45.92266" lon="4.75823">
        <ele>174</ele>
        <time>2017-07-06T08:04:34Z</time>
      </trkpt>
      <trkpt lat="45.9227" lon="4.75827">
        <ele>174</ele>
        <time>2017-07-06T08:04:35Z</time>
      </trkpt>
      <trkpt lat="45.92275" lon="4.75831">
        <ele>174</ele>
        <time>2017-07-06T08:04:36Z</time>
      </trkpt>
      <trkpt lat="45.92279" lon="4.75835">
        <ele>173</ele>
        <time>2017-07-06T08:04:37Z</time>
      </trkpt>
      <trkpt lat="45.92284" lon="4.75839">
        <ele>173</ele>
        <time>2017-07-06T08:04:38Z</time>
      </trkpt>
      <trkpt lat="45.92289" lon="4.75842">
        <ele>173</ele>
        <time>2017-07-06T08:04:39Z</time>
      </trkpt>
      <trkpt lat="45.92294" lon="4.75845">
        <ele>173</ele>
        <time>2017-07-06T08:04:40Z</time>
      </trkpt>
      <trkpt lat="45.92298" lon="4.75848">
        <ele>173</ele>
        <time>2017-07-06T08:04:41Z</time>
      </trkpt>
      <trkpt lat="45.92303" lon="4.75851">
        <ele>173</ele>
        <time>2017-07-06T08:04:42Z</time>
      </trkpt>
      <trkpt lat="45.92308" lon="4.75854">
        <ele>173</ele>
        <time>2017-07-06T08:04:43Z</time>
      </trkpt>
      <trkpt lat="45.92313" lon="4.75857">
        <ele>173</ele>
        <time>2017-07-06T08:04:44Z</time>
      </trkpt>
      <trkpt lat="45.92318" lon="4.7586">
        <ele>173</ele>
        <time>2017-07-06T08:04:45Z</time>
      </trkpt>
      <trkpt lat="45.92323" lon="4.75864">
        <ele>173</ele>
        <time>2017-07-06T08:04:46Z</time>
      </trkpt>
      <trkpt lat="45.92328" lon="4.75867">
        <ele>173</ele>
        <time>2017-07-06T08:04:47Z</time>
      </trkpt>
      <trkpt lat="45.92334" lon="4.75871">
        <ele>173</ele>
        <time>2017-07-06T08:04:48Z</time>
      </trkpt>
      <trkpt lat="45.9234" lon="4.75874">
        <ele>173</ele>
        <time>2017-07-06T08:04:49Z</time>
      </trkpt>
      <trkpt lat="45.92345" lon="4.75878">
        <ele>173</ele>
        <time>2017-07-06T08:04:50Z</time>
      </trkpt>
      <trkpt lat="45.92351" lon="4.75882">
        <ele>173</ele>
        <time>2017-07-06T08:04:51Z</time>
      </trkpt>
      <trkpt lat="45.92357" lon="4.75886">
        <ele>173</ele>
        <time>2017-07-06T08:04:52Z</time>
      </trkpt>
      <trkpt lat="45.92363" lon="4.75889">
        <ele>173</ele>
        <time>2017-07-06T08:04:53Z</time>
      </trkpt>
      <trkpt lat="45.92368" lon="4.75893">
        <ele>173</ele>
        <time>2017-07-06T08:04:54Z</time>
      </trkpt>
      <trkpt lat="45.92374" lon="4.75896">
        <ele>173</ele>
        <time>2017-07-06T08:04:55Z</time>
      </trkpt>
      <trkpt lat="45.92379" lon="4.759">
        <ele>173</ele>
        <time>2017-07-06T08:04:56Z</time>
      </trkpt>
      <trkpt lat="45.92383" lon="4.75903">
        <ele>173</ele>
        <time>2017-07-06T08:04:57Z</time>
      </trkpt>
      <trkpt lat="45.92388" lon="4.75907">
        <ele>173</ele>
        <time>2017-07-06T08:04:58Z</time>
      </trkpt>
      <trkpt lat="45.92393" lon="4.7591">
        <ele>173</ele>
        <time>2017-07-06T08:04:59Z</time>
      </trkpt>
      <trkpt lat="45.92398" lon="4.75913">
        <ele>173</ele>
        <time>2017-07-06T08:05:00Z</time>
      </trkpt>
      <trkpt lat="45.92403" lon="4.75916">
        <ele>172</ele>
        <time>2017-07-06T08:05:01Z</time>
      </trkpt>
      <trkpt lat="45.92408" lon="4.7592">
        <ele>172</ele>
        <time>2017-07-06T08:05:02Z</time>
      </trkpt>
      <trkpt lat="45.92412" lon="4.75923">
        <ele>172</ele>
        <time>2017-07-06T08:05:03Z</time>
      </trkpt>
      <trkpt lat="45.92417" lon="4.75927">
        <ele>172</ele>
        <time>2017-07-06T08:05:04Z</time>
      </trkpt>
      <trkpt lat="45.92422" lon="4.75931">
        <ele>172</ele>
        <time>2017-07-06T08:05:05Z</time>
      </trkpt>
      <trkpt lat="45.92426" lon="4.75934">
        <ele>172</ele>
        <time>2017-07-06T08:05:06Z</time>
      </trkpt>
      <trkpt lat="45.92431" lon="4.75938">
        <ele>172</ele>
        <time>2017-07-06T08:05:07Z</time>
      </trkpt>
      <trkpt lat="45.92435" lon="4.75942">
        <ele>172</ele>
        <time>2017-07-06T08:05:08Z</time>
      </trkpt>
      <trkpt lat="45.9244" lon="4.75947">
        <ele>172</ele>
        <time>2017-07-06T08:05:09Z</time>
      </trkpt>
      <trkpt lat="45.92445" lon="4.7595">
        <ele>172</ele>
        <time>2017-07-06T08:05:10Z</time>
      </trkpt>
      <trkpt lat="45.9245" lon="4.75954">
        <ele>172</ele>
        <time>2017-07-06T08:05:11Z</time>
      </trkpt>
      <trkpt lat="45.92455" lon="4.75958">
        <ele>172</ele>
        <time>2017-07-06T08:05:12Z</time>
      </trkpt>
      <trkpt lat="45.9246" lon="4.75962">
        <ele>172</ele>
        <time>2017-07-06T08:05:13Z</time>
      </trkpt>
      <trkpt lat="45.92465" lon="4.75966">
        <ele>172</ele>
        <time>2017-07-06T08:05:14Z</time>
      </trkpt>
      <trkpt lat="45.9247" lon="4.75971">
        <ele>172</ele>
        <time>2017-07-06T08:05:15Z</time>
      </trkpt>
      <trkpt lat="45.92475" lon="4.75974">
        <ele>172</ele>
        <time>2017-07-06T08:05:16Z</time>
      </trkpt>
      <trkpt lat="45.9248" lon="4.75978">
        <ele>172</ele>
        <time>2017-07-06T08:05:17Z</time>
      </trkpt>
      <trkpt lat="45.92484" lon="4.75981">
        <ele>172</ele>
        <time>2017-07-06T08:05:18Z</time>
      </trkpt>
      <trkpt lat="45.92488" lon="4.75984">
        <ele>172</ele>
        <time>2017-07-06T08:05:19Z</time>
      </trkpt>
      <trkpt lat="45.92492" lon="4.75987">
        <ele>172</ele>
        <time>2017-07-06T08:05:20Z</time>
      </trkpt>
      <trkpt lat="45.925" lon="4.75993">
        <ele>172</ele>
        <time>2017-07-06T08:05:22Z</time>
      </trkpt>
      <trkpt lat="45.92505" lon="4.75996">
        <ele>172</ele>
        <time>2017-07-06T08:05:23Z</time>
      </trkpt>
      <trkpt lat="45.92509" lon="4.75998">
        <ele>172</ele>
        <time>2017-07-06T08:05:24Z</time>
      </trkpt>
      <trkpt lat="45.92513" lon="4.76001">
        <ele>172</ele>
        <time>2017-07-06T08:05:25Z</time>
      </trkpt>
      <trkpt lat="45.92517" lon="4.76005">
        <ele>172</ele>
        <time>2017-07-06T08:05:26Z</time>
      </trkpt>
      <trkpt lat="45.92521" lon="4.76008">
        <ele>172</ele>
        <time>2017-07-06T08:05:27Z</time>
      </trkpt>
      <trkpt lat="45.92529" lon="4.76014">
        <ele>172</ele>
        <time>2017-07-06T08:05:29Z</time>
      </trkpt>
      <trkpt lat="45.92532" lon="4.76016">
        <ele>172</ele>
        <time>2017-07-06T08:05:30Z</time>
      </trkpt>
      <trkpt lat="45.9254" lon="4.76022">
        <ele>172</ele>
        <time>2017-07-06T08:05:32Z</time>
      </trkpt>
      <trkpt lat="45.92544" lon="4.76024">
        <ele>172</ele>
        <time>2017-07-06T08:05:33Z</time>
      </trkpt>
      <trkpt lat="45.92552" lon="4.7603">
        <ele>172</ele>
        <time>2017-07-06T08:05:35Z</time>
      </trkpt>
      <trkpt lat="45.92556" lon="4.76032">
        <ele>172</ele>
        <time>2017-07-06T08:05:36Z</time>
      </trkpt>
      <trkpt lat="45.92564" lon="4.76038">
        <ele>172</ele>
        <time>2017-07-06T08:05:38Z</time>
      </trkpt>
      <trkpt lat="45.92568" lon="4.76041">
        <ele>172</ele>
        <time>2017-07-06T08:05:39Z</time>
      </trkpt>
      <trkpt lat="45.92572" lon="4.76044">
        <ele>171</ele>
        <time>2017-07-06T08:05:40Z</time>
      </trkpt>
      <trkpt lat="45.92576" lon="4.76048">
        <ele>171</ele>
        <time>2017-07-06T08:05:41Z</time>
      </trkpt>
      <trkpt lat="45.9258" lon="4.76051">
        <ele>171</ele>
        <time>2017-07-06T08:05:42Z</time>
      </trkpt>
      <trkpt lat="45.92585" lon="4.76054">
        <ele>171</ele>
        <time>2017-07-06T08:05:43Z</time>
      </trkpt>
      <trkpt lat="45.92589" lon="4.76057">
        <ele>171</ele>
        <time>2017-07-06T08:05:44Z</time>
      </trkpt>
      <trkpt lat="45.92594" lon="4.7606">
        <ele>171</ele>
        <time>2017-07-06T08:05:45Z</time>
      </trkpt>
      <trkpt lat="45.92599" lon="4.76063">
        <ele>171</ele>
        <time>2017-07-06T08:05:46Z</time>
      </trkpt>
      <trkpt lat="45.92603" lon="4.76067">
        <ele>171</ele>
        <time>2017-07-06T08:05:47Z</time>
      </trkpt>
      <trkpt lat="45.92608" lon="4.7607">
        <ele>171</ele>
        <time>2017-07-06T08:05:48Z</time>
      </trkpt>
      <trkpt lat="45.92613" lon="4.76074">
        <ele>171</ele>
        <time>2017-07-06T08:05:49Z</time>
      </trkpt>
      <trkpt lat="45.92618" lon="4.76077">
        <ele>171</ele>
        <time>2017-07-06T08:05:50Z</time>
      </trkpt>
      <trkpt lat="45.92624" lon="4.76081">
        <ele>171</ele>
        <time>2017-07-06T08:05:51Z</time>
      </trkpt>
      <trkpt lat="45.92629" lon="4.76084">
        <ele>170</ele>
        <time>2017-07-06T08:05:52Z</time>
      </trkpt>
      <trkpt lat="45.92635" lon="4.76088">
        <ele>170</ele>
        <time>2017-07-06T08:05:53Z</time>
      </trkpt>
      <trkpt lat="45.9264" lon="4.76092">
        <ele>170</ele>
        <time>2017-07-06T08:05:54Z</time>
      </trkpt>
      <trkpt lat="45.92646" lon="4.76095">
        <ele>170</ele>
        <time>2017-07-06T08:05:55Z</time>
      </trkpt>
      <trkpt lat="45.92653" lon="4.76099">
        <ele>170</ele>
        <time>2017-07-06T08:05:56Z</time>
      </trkpt>
      <trkpt lat="45.92659" lon="4.76104">
        <ele>170</ele>
        <time>2017-07-06T08:05:57Z</time>
      </trkpt>
      <trkpt lat="45.92665" lon="4.76108">
        <ele>170</ele>
        <time>2017-07-06T08:05:58Z</time>
      </trkpt>
      <trkpt lat="45.92672" lon="4.76112">
        <ele>169</ele>
        <time>2017-07-06T08:05:59Z</time>
      </trkpt>
      <trkpt lat="45.92678" lon="4.76117">
        <ele>169</ele>
        <time>2017-07-06T08:06:00Z</time>
      </trkpt>
      <trkpt lat="45.92685" lon="4.76121">
        <ele>169</ele>
        <time>2017-07-06T08:06:01Z</time>
      </trkpt>
      <trkpt lat="45.92692" lon="4.76125">
        <ele>169</ele>
        <time>2017-07-06T08:06:02Z</time>
      </trkpt>
      <trkpt lat="45.92699" lon="4.7613">
        <ele>169</ele>
        <time>2017-07-06T08:06:03Z</time>
      </trkpt>
      <trkpt lat="45.92705" lon="4.76134">
        <ele>169</ele>
        <time>2017-07-06T08:06:04Z</time>
      </trkpt>
      <trkpt lat="45.92712" lon="4.76139">
        <ele>168</ele>
        <time>2017-07-06T08:06:05Z</time>
      </trkpt>
      <trkpt lat="45.92719" lon="4.76143">
        <ele>168</ele>
        <time>2017-07-06T08:06:06Z</time>
      </trkpt>
      <trkpt lat="45.92725" lon="4.76148">
        <ele>168</ele>
        <time>2017-07-06T08:06:07Z</time>
      </trkpt>
      <trkpt lat="45.92732" lon="4.76153">
        <ele>168</ele>
        <time>2017-07-06T08:06:08Z</time>
      </trkpt>
      <trkpt lat="45.92738" lon="4.76158">
        <ele>168</ele>
        <time>2017-07-06T08:06:09Z</time>
      </trkpt>
      <trkpt lat="45.92744" lon="4.76163">
        <ele>167</ele>
        <time>2017-07-06T08:06:10Z</time>
      </trkpt>
      <trkpt lat="45.9275" lon="4.76168">
        <ele>167</ele>
        <time>2017-07-06T08:06:11Z</time>
      </trkpt>
      <trkpt lat="45.92756" lon="4.76172">
        <ele>167</ele>
        <time>2017-07-06T08:06:12Z</time>
      </trkpt>
      <trkpt lat="45.92761" lon="4.76177">
        <ele>167</ele>
        <time>2017-07-06T08:06:13Z</time>
      </trkpt>
      <trkpt lat="45.92766" lon="4.76181">
        <ele>167</ele>
        <time>2017-07-06T08:06:14Z</time>
      </trkpt>
      <trkpt lat="45.92772" lon="4.76186">
        <ele>167</ele>
        <time>2017-07-06T08:06:15Z</time>
      </trkpt>
      <trkpt lat="45.92776" lon="4.76191">
        <ele>168</ele>
        <time>2017-07-06T08:06:16Z</time>
      </trkpt>
      <trkpt lat="45.92781" lon="4.76196">
        <ele>168</ele>
        <time>2017-07-06T08:06:17Z</time>
      </trkpt>
      <trkpt lat="45.92786" lon="4.76201">
        <ele>168</ele>
        <time>2017-07-06T08:06:18Z</time>
      </trkpt>
      <trkpt lat="45.92791" lon="4.76205">
        <ele>168</ele>
        <time>2017-07-06T08:06:19Z</time>
      </trkpt>
      <trkpt lat="45.92796" lon="4.76209">
        <ele>168</ele>
        <time>2017-07-06T08:06:20Z</time>
      </trkpt>
      <trkpt lat="45.92801" lon="4.76213">
        <ele>168</ele>
        <time>2017-07-06T08:06:21Z</time>
      </trkpt>
      <trkpt lat="45.92806" lon="4.76218">
        <ele>168</ele>
        <time>2017-07-06T08:06:22Z</time>
      </trkpt>
      <trkpt lat="45.92811" lon="4.76222">
        <ele>168</ele>
        <time>2017-07-06T08:06:23Z</time>
      </trkpt>
      <trkpt lat="45.92815" lon="4.76226">
        <ele>168</ele>
        <time>2017-07-06T08:06:24Z</time>
      </trkpt>
      <trkpt lat="45.9282" lon="4.76231">
        <ele>168</ele>
        <time>2017-07-06T08:06:25Z</time>
      </trkpt>
      <trkpt lat="45.92824" lon="4.76236">
        <ele>168</ele>
        <time>2017-07-06T08:06:26Z</time>
      </trkpt>
      <trkpt lat="45.92828" lon="4.7624">
        <ele>169</ele>
        <time>2017-07-06T08:06:27Z</time>
      </trkpt>
      <trkpt lat="45.92832" lon="4.76245">
        <ele>169</ele>
        <time>2017-07-06T08:06:28Z</time>
      </trkpt>
      <trkpt lat="45.92837" lon="4.76249">
        <ele>169</ele>
        <time>2017-07-06T08:06:29Z</time>
      </trkpt>
      <trkpt lat="45.92841" lon="4.76254">
        <ele>169</ele>
        <time>2017-07-06T08:06:30Z</time>
      </trkpt>
      <trkpt lat="45.92845" lon="4.76259">
        <ele>169</ele>
        <time>2017-07-06T08:06:31Z</time>
      </trkpt>
      <trkpt lat="45.92849" lon="4.76264">
        <ele>169</ele>
        <time>2017-07-06T08:06:32Z</time>
      </trkpt>
      <trkpt lat="45.92854" lon="4.76268">
        <ele>169</ele>
        <time>2017-07-06T08:06:33Z</time>
      </trkpt>
      <trkpt lat="45.92859" lon="4.76274">
        <ele>169</ele>
        <time>2017-07-06T08:06:34Z</time>
      </trkpt>
      <trkpt lat="45.92864" lon="4.76279">
        <ele>169</ele>
        <time>2017-07-06T08:06:35Z</time>
      </trkpt>
      <trkpt lat="45.92868" lon="4.76284">
        <ele>169</ele>
        <time>2017-07-06T08:06:36Z</time>
      </trkpt>
      <trkpt lat="45.92873" lon="4.76288">
        <ele>169</ele>
        <time>2017-07-06T08:06:37Z</time>
      </trkpt>
      <trkpt lat="45.92878" lon="4.76292">
        <ele>169</ele>
        <time>2017-07-06T08:06:38Z</time>
      </trkpt>
      <trkpt lat="45.92883" lon="4.76297">
        <ele>169</ele>
        <time>2017-07-06T08:06:39Z</time>
      </trkpt>
      <trkpt lat="45.92886" lon="4.76301">
        <ele>169</ele>
        <time>2017-07-06T08:06:40Z</time>
      </trkpt>
      <trkpt lat="45.92891" lon="4.76305">
        <ele>169</ele>
        <time>2017-07-06T08:06:41Z</time>
      </trkpt>
      <trkpt lat="45.92896" lon="4.76309">
        <ele>169</ele>
        <time>2017-07-06T08:06:42Z</time>
      </trkpt>
      <trkpt lat="45.92901" lon="4.76313">
        <ele>169</ele>
        <time>2017-07-06T08:06:43Z</time>
      </trkpt>
      <trkpt lat="45.92905" lon="4.76318">
        <ele>169</ele>
        <time>2017-07-06T08:06:44Z</time>
      </trkpt>
      <trkpt lat="45.92911" lon="4.76323">
        <ele>169</ele>
        <time>2017-07-06T08:06:45Z</time>
      </trkpt>
      <trkpt lat="45.92916" lon="4.76329">
        <ele>169</ele>
        <time>2017-07-06T08:06:46Z</time>
      </trkpt>
      <trkpt lat="45.92921" lon="4.76334">
        <ele>169</ele>
        <time>2017-07-06T08:06:47Z</time>
      </trkpt>
      <trkpt lat="45.92927" lon="4.7634">
        <ele>169</ele>
        <time>2017-07-06T08:06:48Z</time>
      </trkpt>
      <trkpt lat="45.92932" lon="4.76345">
        <ele>169</ele>
        <time>2017-07-06T08:06:49Z</time>
      </trkpt>
      <trkpt lat="45.92937" lon="4.76349">
        <ele>169</ele>
        <time>2017-07-06T08:06:50Z</time>
      </trkpt>
      <trkpt lat="45.92942" lon="4.76355">
        <ele>169</ele>
        <time>2017-07-06T08:06:51Z</time>
      </trkpt>
      <trkpt lat="45.92947" lon="4.76359">
        <ele>169</ele>
        <time>2017-07-06T08:06:52Z</time>
      </trkpt>
      <trkpt lat="45.92952" lon="4.76364">
        <ele>169</ele>
        <time>2017-07-06T08:06:53Z</time>
      </trkpt>
      <trkpt lat="45.92956" lon="4.76368">
        <ele>169</ele>
        <time>2017-07-06T08:06:54Z</time>
      </trkpt>
      <trkpt lat="45.92961" lon="4.76373">
        <ele>169</ele>
        <time>2017-07-06T08:06:55Z</time>
      </trkpt>
      <trkpt lat="45.92965" lon="4.76377">
        <ele>169</ele>
        <time>2017-07-06T08:06:56Z</time>
      </trkpt>
      <trkpt lat="45.9297" lon="4.76382">
        <ele>169</ele>
        <time>2017-07-06T08:06:57Z</time>
      </trkpt>
      <trkpt lat="45.92975" lon="4.76386">
        <ele>169</ele>
        <time>2017-07-06T08:06:58Z</time>
      </trkpt>
      <trkpt lat="45.92979" lon="4.76391">
        <ele>169</ele>
        <time>2017-07-06T08:06:59Z</time>
      </trkpt>
      <trkpt lat="45.92984" lon="4.76396">
        <ele>169</ele>
        <time>2017-07-06T08:07:00Z</time>
      </trkpt>
      <trkpt lat="45.92988" lon="4.764">
        <ele>169</ele>
        <time>2017-07-06T08:07:01Z</time>
      </trkpt>
      <trkpt lat="45.92992" lon="4.76404">
        <ele>169</ele>
        <time>2017-07-06T08:07:02Z</time>
      </trkpt>
      <trkpt lat="45.92996" lon="4.76408">
        <ele>169</ele>
        <time>2017-07-06T08:07:03Z</time>
      </trkpt>
      <trkpt lat="45.92999" lon="4.76412">
        <ele>169</ele>
        <time>2017-07-06T08:07:04Z</time>
      </trkpt>
      <trkpt lat="45.93004" lon="4.76416">
        <ele>169</ele>
        <time>2017-07-06T08:07:05Z</time>
      </trkpt>
      <trkpt lat="45.93008" lon="4.7642">
        <ele>169</ele>
        <time>2017-07-06T08:07:06Z</time>
      </trkpt>
      <trkpt lat="45.93012" lon="4.76425">
        <ele>169</ele>
        <time>2017-07-06T08:07:07Z</time>
      </trkpt>
      <trkpt lat="45.93017" lon="4.7643">
        <ele>169</ele>
        <time>2017-07-06T08:07:08Z</time>
      </trkpt>
      <trkpt lat="45.93022" lon="4.76434">
        <ele>169</ele>
        <time>2017-07-06T08:07:09Z</time>
      </trkpt>
      <trkpt lat="45.93026" lon="4.76439">
        <ele>169</ele>
        <time>2017-07-06T08:07:10Z</time>
      </trkpt>
      <trkpt lat="45.93031" lon="4.76443">
        <ele>169</ele>
        <time>2017-07-06T08:07:11Z</time>
      </trkpt>
      <trkpt lat="45.93036" lon="4.76447">
        <ele>169</ele>
        <time>2017-07-06T08:07:12Z</time>
      </trkpt>
      <trkpt lat="45.93041" lon="4.76452">
        <ele>169</ele>
        <time>2017-07-06T08:07:13Z</time>
      </trkpt>
      <trkpt lat="45.93046" lon="4.76457">
        <ele>169</ele>
        <time>2017-07-06T08:07:14Z</time>
      </trkpt>
      <trkpt lat="45.9305" lon="4.76462">
        <ele>169</ele>
        <time>2017-07-06T08:07:15Z</time>
      </trkpt>
      <trkpt lat="45.93055" lon="4.76466">
        <ele>169</ele>
        <time>2017-07-06T08:07:16Z</time>
      </trkpt>
      <trkpt lat="45.9306" lon="4.76471">
        <ele>169</ele>
        <time>2017-07-06T08:07:17Z</time>
      </trkpt>
      <trkpt lat="45.93064" lon="4.76476">
        <ele>169</ele>
        <time>2017-07-06T08:07:18Z</time>
      </trkpt>
      <trkpt lat="45.9307" lon="4.76481">
        <ele>169</ele>
        <time>2017-07-06T08:07:19Z</time>
      </trkpt>
      <trkpt lat="45.93075" lon="4.76486">
        <ele>169</ele>
        <time>2017-07-06T08:07:20Z</time>
      </trkpt>
      <trkpt lat="45.9308" lon="4.76491">
        <ele>170</ele>
        <time>2017-07-06T08:07:21Z</time>
      </trkpt>
      <trkpt lat="45.93085" lon="4.76497">
        <ele>170</ele>
        <time>2017-07-06T08:07:22Z</time>
      </trkpt>
      <trkpt lat="45.9309" lon="4.76502">
        <ele>170</ele>
        <time>2017-07-06T08:07:23Z</time>
      </trkpt>
      <trkpt lat="45.93094" lon="4.76506">
        <ele>170</ele>
        <time>2017-07-06T08:07:24Z</time>
      </trkpt>
      <trkpt lat="45.93099" lon="4.76511">
        <ele>170</ele>
        <time>2017-07-06T08:07:25Z</time>
      </trkpt>
      <trkpt lat="45.93104" lon="4.76516">
        <ele>170</ele>
        <time>2017-07-06T08:07:26Z</time>
      </trkpt>
      <trkpt lat="45.93108" lon="4.7652">
        <ele>170</ele>
        <time>2017-07-06T08:07:27Z</time>
      </trkpt>
      <trkpt lat="45.93113" lon="4.76524">
        <ele>170</ele>
        <time>2017-07-06T08:07:28Z</time>
      </trkpt>
      <trkpt lat="45.93117" lon="4.76528">
        <ele>170</ele>
        <time>2017-07-06T08:07:29Z</time>
      </trkpt>
      <trkpt lat="45.93121" lon="4.76531">
        <ele>170</ele>
        <time>2017-07-06T08:07:30Z</time>
      </trkpt>
      <trkpt lat="45.93126" lon="4.76535">
        <ele>170</ele>
        <time>2017-07-06T08:07:31Z</time>
      </trkpt>
      <trkpt lat="45.9313" lon="4.76539">
        <ele>170</ele>
        <time>2017-07-06T08:07:32Z</time>
      </trkpt>
      <trkpt lat="45.93134" lon="4.76543">
        <ele>170</ele>
        <time>2017-07-06T08:07:33Z</time>
      </trkpt>
      <trkpt lat="45.93138" lon="4.76548">
        <ele>170</ele>
        <time>2017-07-06T08:07:34Z</time>
      </trkpt>
      <trkpt lat="45.93143" lon="4.76552">
        <ele>170</ele>
        <time>2017-07-06T08:07:35Z</time>
      </trkpt>
      <trkpt lat="45.93147" lon="4.76556">
        <ele>170</ele>
        <time>2017-07-06T08:07:36Z</time>
      </trkpt>
      <trkpt lat="45.93151" lon="4.76559">
        <ele>170</ele>
        <time>2017-07-06T08:07:37Z</time>
      </trkpt>
      <trkpt lat="45.93154" lon="4.76563">
        <ele>170</ele>
        <time>2017-07-06T08:07:38Z</time>
      </trkpt>
      <trkpt lat="45.93158" lon="4.76567">
        <ele>170</ele>
        <time>2017-07-06T08:07:39Z</time>
      </trkpt>
      <trkpt lat="45.93162" lon="4.76571">
        <ele>170</ele>
        <time>2017-07-06T08:07:40Z</time>
      </trkpt>
      <trkpt lat="45.93166" lon="4.76575">
        <ele>171</ele>
        <time>2017-07-06T08:07:41Z</time>
      </trkpt>
      <trkpt lat="45.93169" lon="4.7658">
        <ele>171</ele>
        <time>2017-07-06T08:07:42Z</time>
      </trkpt>
      <trkpt lat="45.93174" lon="4.76585">
        <ele>171</ele>
        <time>2017-07-06T08:07:43Z</time>
      </trkpt>
      <trkpt lat="45.93178" lon="4.7659">
        <ele>171</ele>
        <time>2017-07-06T08:07:44Z</time>
      </trkpt>
      <trkpt lat="45.93183" lon="4.76593">
        <ele>171</ele>
        <time>2017-07-06T08:07:45Z</time>
      </trkpt>
      <trkpt lat="45.93187" lon="4.76598">
        <ele>171</ele>
        <time>2017-07-06T08:07:46Z</time>
      </trkpt>
      <trkpt lat="45.93192" lon="4.76602">
        <ele>170</ele>
        <time>2017-07-06T08:07:47Z</time>
      </trkpt>
      <trkpt lat="45.93196" lon="4.76606">
        <ele>170</ele>
        <time>2017-07-06T08:07:48Z</time>
      </trkpt>
      <trkpt lat="45.93201" lon="4.76611">
        <ele>170</ele>
        <time>2017-07-06T08:07:49Z</time>
      </trkpt>
      <trkpt lat="45.93205" lon="4.76615">
        <ele>170</ele>
        <time>2017-07-06T08:07:50Z</time>
      </trkpt>
      <trkpt lat="45.93209" lon="4.7662">
        <ele>170</ele>
        <time>2017-07-06T08:07:51Z</time>
      </trkpt>
      <trkpt lat="45.93213" lon="4.76625">
        <ele>170</ele>
        <time>2017-07-06T08:07:52Z</time>
      </trkpt>
      <trkpt lat="45.93218" lon="4.7663">
        <ele>170</ele>
        <time>2017-07-06T08:07:53Z</time>
      </trkpt>
      <trkpt lat="45.93222" lon="4.76634">
        <ele>171</ele>
        <time>2017-07-06T08:07:54Z</time>
      </trkpt>
      <trkpt lat="45.93226" lon="4.76638">
        <ele>171</ele>
        <time>2017-07-06T08:07:55Z</time>
      </trkpt>
      <trkpt lat="45.93231" lon="4.76642">
        <ele>171</ele>
        <time>2017-07-06T08:07:56Z</time>
      </trkpt>
      <trkpt lat="45.93236" lon="4.76647">
        <ele>171</ele>
        <time>2017-07-06T08:07:57Z</time>
      </trkpt>
      <trkpt lat="45.93241" lon="4.76652">
        <ele>171</ele>
        <time>2017-07-06T08:07:58Z</time>
      </trkpt>
      <trkpt lat="45.93245" lon="4.76657">
        <ele>171</ele>
        <time>2017-07-06T08:07:59Z</time>
      </trkpt>
      <trkpt lat="45.9325" lon="4.76661">
        <ele>172</ele>
        <time>2017-07-06T08:08:00Z</time>
      </trkpt>
      <trkpt lat="45.93255" lon="4.76666">
        <ele>172</ele>
        <time>2017-07-06T08:08:01Z</time>
      </trkpt>
      <trkpt lat="45.93259" lon="4.76671">
        <ele>172</ele>
        <time>2017-07-06T08:08:02Z</time>
      </trkpt>
      <trkpt lat="45.93264" lon="4.76675">
        <ele>172</ele>
        <time>2017-07-06T08:08:03Z</time>
      </trkpt>
      <trkpt lat="45.93268" lon="4.7668">
        <ele>172</ele>
        <time>2017-07-06T08:08:04Z</time>
      </trkpt>
      <trkpt lat="45.93272" lon="4.76684">
        <ele>172</ele>
        <time>2017-07-06T08:08:05Z</time>
      </trkpt>
      <trkpt lat="45.93277" lon="4.76689">
        <ele>172</ele>
        <time>2017-07-06T08:08:06Z</time>
      </trkpt>
      <trkpt lat="45.93281" lon="4.76694">
        <ele>172</ele>
        <time>2017-07-06T08:08:07Z</time>
      </trkpt>
      <trkpt lat="45.93286" lon="4.76698">
        <ele>172</ele>
        <time>2017-07-06T08:08:08Z</time>
      </trkpt>
      <trkpt lat="45.93291" lon="4.76703">
        <ele>172</ele>
        <time>2017-07-06T08:08:09Z</time>
      </trkpt>
      <trkpt lat="45.93296" lon="4.76708">
        <ele>172</ele>
        <time>2017-07-06T08:08:10Z</time>
      </trkpt>
      <trkpt lat="45.93301" lon="4.76713">
        <ele>172</ele>
        <time>2017-07-06T08:08:11Z</time>
      </trkpt>
      <trkpt lat="45.93306" lon="4.76717">
        <ele>172</ele>
        <time>2017-07-06T08:08:12Z</time>
      </trkpt>
      <trkpt lat="45.93311" lon="4.76722">
        <ele>172</ele>
        <time>2017-07-06T08:08:13Z</time>
      </trkpt>
      <trkpt lat="45.93316" lon="4.76727">
        <ele>172</ele>
        <time>2017-07-06T08:08:14Z</time>
      </trkpt>
      <trkpt lat="45.93321" lon="4.76732">
        <ele>172</ele>
        <time>2017-07-06T08:08:15Z</time>
      </trkpt>
      <trkpt lat="45.93326" lon="4.76736">
        <ele>172</ele>
        <time>2017-07-06T08:08:16Z</time>
      </trkpt>
      <trkpt lat="45.93331" lon="4.76741">
        <ele>173</ele>
        <time>2017-07-06T08:08:17Z</time>
      </trkpt>
      <trkpt lat="45.93336" lon="4.76747">
        <ele>173</ele>
        <time>2017-07-06T08:08:18Z</time>
      </trkpt>
      <trkpt lat="45.93341" lon="4.76751">
        <ele>173</ele>
        <time>2017-07-06T08:08:19Z</time>
      </trkpt>
      <trkpt lat="45.93346" lon="4.76756">
        <ele>172</ele>
        <time>2017-07-06T08:08:20Z</time>
      </trkpt>
      <trkpt lat="45.9335" lon="4.7676">
        <ele>172</ele>
        <time>2017-07-06T08:08:21Z</time>
      </trkpt>
      <trkpt lat="45.93355" lon="4.76765">
        <ele>172</ele>
        <time>2017-07-06T08:08:22Z</time>
      </trkpt>
      <trkpt lat="45.93359" lon="4.76769">
        <ele>172</ele>
        <time>2017-07-06T08:08:23Z</time>
      </trkpt>
      <trkpt lat="45.93363" lon="4.76774">
        <ele>172</ele>
        <time>2017-07-06T08:08:24Z</time>
      </trkpt>
      <trkpt lat="45.93368" lon="4.76778">
        <ele>172</ele>
        <time>2017-07-06T08:08:25Z</time>
      </trkpt>
      <trkpt lat="45.93372" lon="4.76782">
        <ele>172</ele>
        <time>2017-07-06T08:08:26Z</time>
      </trkpt>
      <trkpt lat="45.93377" lon="4.76787">
        <ele>172</ele>
        <time>2017-07-06T08:08:27Z</time>
      </trkpt>
      <trkpt lat="45.93381" lon="4.76792">
        <ele>172</ele>
        <time>2017-07-06T08:08:28Z</time>
      </trkpt>
      <trkpt lat="45.93386" lon="4.76797">
        <ele>172</ele>
        <time>2017-07-06T08:08:29Z</time>
      </trkpt>
      <trkpt lat="45.93391" lon="4.76803">
        <ele>172</ele>
        <time>2017-07-06T08:08:30Z</time>
      </trkpt>
      <trkpt lat="45.93395" lon="4.76809">
        <ele>172</ele>
        <time>2017-07-06T08:08:31Z</time>
      </trkpt>
      <trkpt lat="45.934" lon="4.76815">
        <ele>172</ele>
        <time>2017-07-06T08:08:32Z</time>
      </trkpt>
      <trkpt lat="45.93404" lon="4.76822">
        <ele>172</ele>
        <time>2017-07-06T08:08:33Z</time>
      </trkpt>
      <trkpt lat="45.93408" lon="4.76829">
        <ele>172</ele>
        <time>2017-07-06T08:08:34Z</time>
      </trkpt>
      <trkpt lat="45.93412" lon="4.76836">
        <ele>172</ele>
        <time>2017-07-06T08:08:35Z</time>
      </trkpt>
      <trkpt lat="45.93415" lon="4.76842">
        <ele>172</ele>
        <time>2017-07-06T08:08:36Z</time>
      </trkpt>
      <trkpt lat="45.93419" lon="4.76849">
        <ele>171</ele>
        <time>2017-07-06T08:08:37Z</time>
      </trkpt>
      <trkpt lat="45.93423" lon="4.76857">
        <ele>171</ele>
        <time>2017-07-06T08:08:38Z</time>
      </trkpt>
      <trkpt lat="45.93426" lon="4.76864">
        <ele>171</ele>
        <time>2017-07-06T08:08:39Z</time>
      </trkpt>
      <trkpt lat="45.93429" lon="4.76872">
        <ele>171</ele>
        <time>2017-07-06T08:08:40Z</time>
      </trkpt>
      <trkpt lat="45.93433" lon="4.76879">
        <ele>171</ele>
        <time>2017-07-06T08:08:41Z</time>
      </trkpt>
      <trkpt lat="45.93436" lon="4.76886">
        <ele>171</ele>
        <time>2017-07-06T08:08:42Z</time>
      </trkpt>
      <trkpt lat="45.93438" lon="4.76894">
        <ele>170</ele>
        <time>2017-07-06T08:08:43Z</time>
      </trkpt>
      <trkpt lat="45.9344" lon="4.76901">
        <ele>170</ele>
        <time>2017-07-06T08:08:44Z</time>
      </trkpt>
      <trkpt lat="45.93442" lon="4.76909">
        <ele>170</ele>
        <time>2017-07-06T08:08:45Z</time>
      </trkpt>
      <trkpt lat="45.93444" lon="4.76916">
        <ele>170</ele>
        <time>2017-07-06T08:08:46Z</time>
      </trkpt>
      <trkpt lat="45.93445" lon="4.76923">
        <ele>170</ele>
        <time>2017-07-06T08:08:47Z</time>
      </trkpt>
      <trkpt lat="45.93447" lon="4.7693">
        <ele>170</ele>
        <time>2017-07-06T08:08:48Z</time>
      </trkpt>
      <trkpt lat="45.93448" lon="4.76937">
        <ele>170</ele>
        <time>2017-07-06T08:08:49Z</time>
      </trkpt>
      <trkpt lat="45.93449" lon="4.76945">
        <ele>170</ele>
        <time>2017-07-06T08:08:50Z</time>
      </trkpt>
      <trkpt lat="45.9345" lon="4.76953">
        <ele>170</ele>
        <time>2017-07-06T08:08:51Z</time>
      </trkpt>
      <trkpt lat="45.93451" lon="4.76961">
        <ele>170</ele>
        <time>2017-07-06T08:08:52Z</time>
      </trkpt>
      <trkpt lat="45.93452" lon="4.76969">
        <ele>170</ele>
        <time>2017-07-06T08:08:53Z</time>
      </trkpt>
      <trkpt lat="45.93453" lon="4.76977">
        <ele>170</ele>
        <time>2017-07-06T08:08:54Z</time>
      </trkpt>
      <trkpt lat="45.93454" lon="4.76986">
        <ele>170</ele>
        <time>2017-07-06T08:08:55Z</time>
      </trkpt>
      <trkpt lat="45.93456" lon="4.76994">
        <ele>170</ele>
        <time>2017-07-06T08:08:56Z</time>
      </trkpt>
      <trkpt lat="45.93457" lon="4.77003">
        <ele>170</ele>
        <time>2017-07-06T08:08:57Z</time>
      </trkpt>
      <trkpt lat="45.93458" lon="4.77012">
        <ele>170</ele>
        <time>2017-07-06T08:08:58Z</time>
      </trkpt>
      <trkpt lat="45.9346" lon="4.7702">
        <ele>170</ele>
        <time>2017-07-06T08:08:59Z</time>
      </trkpt>
      <trkpt lat="45.93461" lon="4.77028">
        <ele>170</ele>
        <time>2017-07-06T08:09:00Z</time>
      </trkpt>
      <trkpt lat="45.93462" lon="4.77036">
        <ele>170</ele>
        <time>2017-07-06T08:09:01Z</time>
      </trkpt>
      <trkpt lat="45.93464" lon="4.77043">
        <ele>170</ele>
        <time>2017-07-06T08:09:02Z</time>
      </trkpt>
      <trkpt lat="45.93465" lon="4.77051">
        <ele>170</ele>
        <time>2017-07-06T08:09:03Z</time>
      </trkpt>
      <trkpt lat="45.93467" lon="4.77059">
        <ele>170</ele>
        <time>2017-07-06T08:09:04Z</time>
      </trkpt>
      <trkpt lat="45.93468" lon="4.77067">
        <ele>170</ele>
        <time>2017-07-06T08:09:05Z</time>
      </trkpt>
      <trkpt lat="45.93469" lon="4.77075">
        <ele>170</ele>
        <time>2017-07-06T08:09:06Z</time>
      </trkpt>
      <trkpt lat="45.93471" lon="4.77083">
        <ele>170</ele>
        <time>2017-07-06T08:09:07Z</time>
      </trkpt>
      <trkpt lat="45.93472" lon="4.77092">
        <ele>169</ele>
        <time>2017-07-06T08:09:08Z</time>
      </trkpt>
      <trkpt lat="45.93474" lon="4.77101">
        <ele>169</ele>
        <time>2017-07-06T08:09:09Z</time>
      </trkpt>
      <trkpt lat="45.93476" lon="4.77109">
        <ele>169</ele>
        <time>2017-07-06T08:09:10Z</time>
      </trkpt>
      <trkpt lat="45.93477" lon="4.77117">
        <ele>169</ele>
        <time>2017-07-06T08:09:11Z</time>
      </trkpt>
      <trkpt lat="45.93479" lon="4.77125">
        <ele>169</ele>
        <time>2017-07-06T08:09:12Z</time>
      </trkpt>
      <trkpt lat="45.9348" lon="4.77133">
        <ele>169</ele>
        <time>2017-07-06T08:09:13Z</time>
      </trkpt>
      <trkpt lat="45.93482" lon="4.77141">
        <ele>169</ele>
        <time>2017-07-06T08:09:14Z</time>
      </trkpt>
      <trkpt lat="45.93483" lon="4.77149">
        <ele>169</ele>
        <time>2017-07-06T08:09:15Z</time>
      </trkpt>
      <trkpt lat="45.93485" lon="4.77157">
        <ele>169</ele>
        <time>2017-07-06T08:09:16Z</time>
      </trkpt>
      <trkpt lat="45.93486" lon="4.77164">
        <ele>169</ele>
        <time>2017-07-06T08:09:17Z</time>
      </trkpt>
      <trkpt lat="45.93487" lon="4.77171">
        <ele>169</ele>
        <time>2017-07-06T08:09:18Z</time>
      </trkpt>
      <trkpt lat="45.93489" lon="4.77178">
        <ele>169</ele>
        <time>2017-07-06T08:09:19Z</time>
      </trkpt>
      <trkpt lat="45.9349" lon="4.77185">
        <ele>169</ele>
        <time>2017-07-06T08:09:20Z</time>
      </trkpt>
      <trkpt lat="45.93492" lon="4.77193">
        <ele>169</ele>
        <time>2017-07-06T08:09:21Z</time>
      </trkpt>
      <trkpt lat="45.93494" lon="4.772">
        <ele>169</ele>
        <time>2017-07-06T08:09:22Z</time>
      </trkpt>
      <trkpt lat="45.93496" lon="4.77209">
        <ele>169</ele>
        <time>2017-07-06T08:09:23Z</time>
      </trkpt>
      <trkpt lat="45.93497" lon="4.77217">
        <ele>169</ele>
        <time>2017-07-06T08:09:24Z</time>
      </trkpt>
      <trkpt lat="45.935" lon="4.77225">
        <ele>170</ele>
        <time>2017-07-06T08:09:25Z</time>
      </trkpt>
      <trkpt lat="45.93501" lon="4.77233">
        <ele>169</ele>
        <time>2017-07-06T08:09:26Z</time>
      </trkpt>
      <trkpt lat="45.93503" lon="4.7724">
        <ele>170</ele>
        <time>2017-07-06T08:09:27Z</time>
      </trkpt>
      <trkpt lat="45.93504" lon="4.77248">
        <ele>170</ele>
        <time>2017-07-06T08:09:28Z</time>
      </trkpt>
      <trkpt lat="45.93506" lon="4.77255">
        <ele>170</ele>
        <time>2017-07-06T08:09:29Z</time>
      </trkpt>
      <trkpt lat="45.93508" lon="4.77262">
        <ele>170</ele>
        <time>2017-07-06T08:09:30Z</time>
      </trkpt>
      <trkpt lat="45.93509" lon="4.77269">
        <ele>170</ele>
        <time>2017-07-06T08:09:31Z</time>
      </trkpt>
      <trkpt lat="45.93511" lon="4.77276">
        <ele>170</ele>
        <time>2017-07-06T08:09:32Z</time>
      </trkpt>
      <trkpt lat="45.93513" lon="4.77283">
        <ele>170</ele>
        <time>2017-07-06T08:09:33Z</time>
      </trkpt>
      <trkpt lat="45.93514" lon="4.7729">
        <ele>170</ele>
        <time>2017-07-06T08:09:34Z</time>
      </trkpt>
      <trkpt lat="45.93516" lon="4.77298">
        <ele>170</ele>
        <time>2017-07-06T08:09:35Z</time>
      </trkpt>
      <trkpt lat="45.93518" lon="4.77306">
        <ele>170</ele>
        <time>2017-07-06T08:09:36Z</time>
      </trkpt>
      <trkpt lat="45.9352" lon="4.77314">
        <ele>170</ele>
        <time>2017-07-06T08:09:37Z</time>
      </trkpt>
      <trkpt lat="45.93521" lon="4.77322">
        <ele>170</ele>
        <time>2017-07-06T08:09:38Z</time>
      </trkpt>
      <trkpt lat="45.93523" lon="4.7733">
        <ele>170</ele>
        <time>2017-07-06T08:09:39Z</time>
      </trkpt>
      <trkpt lat="45.93525" lon="4.77338">
        <ele>170</ele>
        <time>2017-07-06T08:09:40Z</time>
      </trkpt>
      <trkpt lat="45.93527" lon="4.77346">
        <ele>170</ele>
        <time>2017-07-06T08:09:41Z</time>
      </trkpt>
      <trkpt lat="45.93528" lon="4.77354">
        <ele>170</ele>
        <time>2017-07-06T08:09:42Z</time>
      </trkpt>
      <trkpt lat="45.9353" lon="4.77361">
        <ele>170</ele>
        <time>2017-07-06T08:09:43Z</time>
      </trkpt>
      <trkpt lat="45.93531" lon="4.77368">
        <ele>170</ele>
        <time>2017-07-06T08:09:44Z</time>
      </trkpt>
      <trkpt lat="45.93533" lon="4.77375">
        <ele>170</ele>
        <time>2017-07-06T08:09:45Z</time>
      </trkpt>
      <trkpt lat="45.93535" lon="4.77384">
        <ele>170</ele>
        <time>2017-07-06T08:09:46Z</time>
      </trkpt>
      <trkpt lat="45.93537" lon="4.77392">
        <ele>170</ele>
        <time>2017-07-06T08:09:47Z</time>
      </trkpt>
      <trkpt lat="45.93538" lon="4.77399">
        <ele>170</ele>
        <time>2017-07-06T08:09:48Z</time>
      </trkpt>
      <trkpt lat="45.93539" lon="4.77407">
        <ele>170</ele>
        <time>2017-07-06T08:09:49Z</time>
      </trkpt>
      <trkpt lat="45.93541" lon="4.77415">
        <ele>170</ele>
        <time>2017-07-06T08:09:50Z</time>
      </trkpt>
      <trkpt lat="45.93543" lon="4.77422">
        <ele>170</ele>
        <time>2017-07-06T08:09:51Z</time>
      </trkpt>
      <trkpt lat="45.93544" lon="4.7743">
        <ele>169</ele>
        <time>2017-07-06T08:09:52Z</time>
      </trkpt>
      <trkpt lat="45.93546" lon="4.77438">
        <ele>169</ele>
        <time>2017-07-06T08:09:53Z</time>
      </trkpt>
      <trkpt lat="45.93548" lon="4.77447">
        <ele>169</ele>
        <time>2017-07-06T08:09:54Z</time>
      </trkpt>
      <trkpt lat="45.9355" lon="4.77455">
        <ele>169</ele>
        <time>2017-07-06T08:09:55Z</time>
      </trkpt>
      <trkpt lat="45.93552" lon="4.77464">
        <ele>169</ele>
        <time>2017-07-06T08:09:56Z</time>
      </trkpt>
      <trkpt lat="45.93553" lon="4.77472">
        <ele>169</ele>
        <time>2017-07-06T08:09:57Z</time>
      </trkpt>
      <trkpt lat="45.93555" lon="4.7748">
        <ele>169</ele>
        <time>2017-07-06T08:09:58Z</time>
      </trkpt>
      <trkpt lat="45.93557" lon="4.77488">
        <ele>169</ele>
        <time>2017-07-06T08:09:59Z</time>
      </trkpt>
      <trkpt lat="45.93559" lon="4.77496">
        <ele>169</ele>
        <time>2017-07-06T08:10:00Z</time>
      </trkpt>
      <trkpt lat="45.93561" lon="4.77503">
        <ele>169</ele>
        <time>2017-07-06T08:10:01Z</time>
      </trkpt>
      <trkpt lat="45.93563" lon="4.7751">
        <ele>169</ele>
        <time>2017-07-06T08:10:02Z</time>
      </trkpt>
      <trkpt lat="45.93564" lon="4.77517">
        <ele>169</ele>
        <time>2017-07-06T08:10:03Z</time>
      </trkpt>
      <trkpt lat="45.93566" lon="4.77524">
        <ele>169</ele>
        <time>2017-07-06T08:10:04Z</time>
      </trkpt>
      <trkpt lat="45.93568" lon="4.77531">
        <ele>169</ele>
        <time>2017-07-06T08:10:05Z</time>
      </trkpt>
      <trkpt lat="45.9357" lon="4.77538">
        <ele>169</ele>
        <time>2017-07-06T08:10:06Z</time>
      </trkpt>
      <trkpt lat="45.93572" lon="4.77546">
        <ele>169</ele>
        <time>2017-07-06T08:10:07Z</time>
      </trkpt>
      <trkpt lat="45.93574" lon="4.77553">
        <ele>169</ele>
        <time>2017-07-06T08:10:08Z</time>
      </trkpt>
      <trkpt lat="45.93576" lon="4.77561">
        <ele>169</ele>
        <time>2017-07-06T08:10:09Z</time>
      </trkpt>
      <trkpt lat="45.93578" lon="4.77569">
        <ele>170</ele>
        <time>2017-07-06T08:10:10Z</time>
      </trkpt>
      <trkpt lat="45.9358" lon="4.77577">
        <ele>170</ele>
        <time>2017-07-06T08:10:11Z</time>
      </trkpt>
      <trkpt lat="45.93582" lon="4.77584">
        <ele>170</ele>
        <time>2017-07-06T08:10:12Z</time>
      </trkpt>
      <trkpt lat="45.93585" lon="4.77591">
        <ele>170</ele>
        <time>2017-07-06T08:10:13Z</time>
      </trkpt>
      <trkpt lat="45.93587" lon="4.77599">
        <ele>170</ele>
        <time>2017-07-06T08:10:14Z</time>
      </trkpt>
      <trkpt lat="45.93589" lon="4.77606">
        <ele>170</ele>
        <time>2017-07-06T08:10:15Z</time>
      </trkpt>
      <trkpt lat="45.93591" lon="4.77612">
        <ele>170</ele>
        <time>2017-07-06T08:10:16Z</time>
      </trkpt>
      <trkpt lat="45.93594" lon="4.77619">
        <ele>170</ele>
        <time>2017-07-06T08:10:17Z</time>
      </trkpt>
      <trkpt lat="45.93597" lon="4.77626">
        <ele>169</ele>
        <time>2017-07-06T08:10:18Z</time>
      </trkpt>
      <trkpt lat="45.936" lon="4.77633">
        <ele>169</ele>
        <time>2017-07-06T08:10:19Z</time>
      </trkpt>
      <trkpt lat="45.93603" lon="4.77641">
        <ele>169</ele>
        <time>2017-07-06T08:10:20Z</time>
      </trkpt>
      <trkpt lat="45.93606" lon="4.77648">
        <ele>169</ele>
        <time>2017-07-06T08:10:21Z</time>
      </trkpt>
      <trkpt lat="45.93609" lon="4.77655">
        <ele>169</ele>
        <time>2017-07-06T08:10:22Z</time>
      </trkpt>
      <trkpt lat="45.93612" lon="4.77662">
        <ele>169</ele>
        <time>2017-07-06T08:10:23Z</time>
      </trkpt>
      <trkpt lat="45.93615" lon="4.77668">
        <ele>169</ele>
        <time>2017-07-06T08:10:24Z</time>
      </trkpt>
      <trkpt lat="45.93618" lon="4.77674">
        <ele>169</ele>
        <time>2017-07-06T08:10:25Z</time>
      </trkpt>
      <trkpt lat="45.9362" lon="4.7768">
        <ele>169</ele>
        <time>2017-07-06T08:10:26Z</time>
      </trkpt>
      <trkpt lat="45.93623" lon="4.77686">
        <ele>169</ele>
        <time>2017-07-06T08:10:27Z</time>
      </trkpt>
      <trkpt lat="45.93626" lon="4.77692">
        <ele>169</ele>
        <time>2017-07-06T08:10:28Z</time>
      </trkpt>
      <trkpt lat="45.93629" lon="4.77698">
        <ele>169</ele>
        <time>2017-07-06T08:10:29Z</time>
      </trkpt>
      <trkpt lat="45.93632" lon="4.77703">
        <ele>170</ele>
        <time>2017-07-06T08:10:30Z</time>
      </trkpt>
      <trkpt lat="45.93635" lon="4.77709">
        <ele>170</ele>
        <time>2017-07-06T08:10:31Z</time>
      </trkpt>
      <trkpt lat="45.93638" lon="4.77715">
        <ele>170</ele>
        <time>2017-07-06T08:10:32Z</time>
      </trkpt>
      <trkpt lat="45.93641" lon="4.7772">
        <ele>170</ele>
        <time>2017-07-06T08:10:33Z</time>
      </trkpt>
      <trkpt lat="45.93643" lon="4.77725">
        <ele>170</ele>
        <time>2017-07-06T08:10:34Z</time>
      </trkpt>
      <trkpt lat="45.93646" lon="4.7773">
        <ele>170</ele>
        <time>2017-07-06T08:10:35Z</time>
      </trkpt>
      <trkpt lat="45.93649" lon="4.77735">
        <ele>170</ele>
        <time>2017-07-06T08:10:36Z</time>
      </trkpt>
      <trkpt lat="45.93652" lon="4.7774">
        <ele>170</ele>
        <time>2017-07-06T08:10:37Z</time>
      </trkpt>
      <trkpt lat="45.93655" lon="4.77745">
        <ele>170</ele>
        <time>2017-07-06T08:10:38Z</time>
      </trkpt>
      <trkpt lat="45.93658" lon="4.7775">
        <ele>171</ele>
        <time>2017-07-06T08:10:39Z</time>
      </trkpt>
      <trkpt lat="45.93662" lon="4.77755">
        <ele>171</ele>
        <time>2017-07-06T08:10:40Z</time>
      </trkpt>
      <trkpt lat="45.93665" lon="4.77761">
        <ele>171</ele>
        <time>2017-07-06T08:10:41Z</time>
      </trkpt>
      <trkpt lat="45.93668" lon="4.77766">
        <ele>170</ele>
        <time>2017-07-06T08:10:42Z</time>
      </trkpt>
      <trkpt lat="45.93671" lon="4.7777">
        <ele>170</ele>
        <time>2017-07-06T08:10:43Z</time>
      </trkpt>
      <trkpt lat="45.93675" lon="4.77775">
        <ele>170</ele>
        <time>2017-07-06T08:10:44Z</time>
      </trkpt>
      <trkpt lat="45.93678" lon="4.7778">
        <ele>170</ele>
        <time>2017-07-06T08:10:45Z</time>
      </trkpt>
      <trkpt lat="45.93684" lon="4.77788">
        <ele>170</ele>
        <time>2017-07-06T08:10:47Z</time>
      </trkpt>
      <trkpt lat="45.93687" lon="4.77793">
        <ele>170</ele>
        <time>2017-07-06T08:10:48Z</time>
      </trkpt>
      <trkpt lat="45.93693" lon="4.77802">
        <ele>169</ele>
        <time>2017-07-06T08:10:50Z</time>
      </trkpt>
      <trkpt lat="45.93696" lon="4.77806">
        <ele>169</ele>
        <time>2017-07-06T08:10:51Z</time>
      </trkpt>
      <trkpt lat="45.93702" lon="4.77814">
        <ele>169</ele>
        <time>2017-07-06T08:10:53Z</time>
      </trkpt>
      <trkpt lat="45.93705" lon="4.77818">
        <ele>169</ele>
        <time>2017-07-06T08:10:54Z</time>
      </trkpt>
      <trkpt lat="45.93711" lon="4.77826">
        <ele>169</ele>
        <time>2017-07-06T08:10:56Z</time>
      </trkpt>
      <trkpt lat="45.93714" lon="4.7783">
        <ele>169</ele>
        <time>2017-07-06T08:10:57Z</time>
      </trkpt>
      <trkpt lat="45.93721" lon="4.77838">
        <ele>167</ele>
        <time>2017-07-06T08:10:59Z</time>
      </trkpt>
      <trkpt lat="45.93724" lon="4.77842">
        <ele>167</ele>
        <time>2017-07-06T08:11:00Z</time>
      </trkpt>
      <trkpt lat="45.9373" lon="4.7785">
        <ele>167</ele>
        <time>2017-07-06T08:11:02Z</time>
      </trkpt>
      <trkpt lat="45.93733" lon="4.77854">
        <ele>167</ele>
        <time>2017-07-06T08:11:03Z</time>
      </trkpt>
      <trkpt lat="45.93739" lon="4.77863">
        <ele>167</ele>
        <time>2017-07-06T08:11:05Z</time>
      </trkpt>
      <trkpt lat="45.93742" lon="4.77867">
        <ele>167</ele>
        <time>2017-07-06T08:11:06Z</time>
      </trkpt>
      <trkpt lat="45.93745" lon="4.77871">
        <ele>167</ele>
        <time>2017-07-06T08:11:07Z</time>
      </trkpt>
      <trkpt lat="45.93749" lon="4.77876">
        <ele>167</ele>
        <time>2017-07-06T08:11:08Z</time>
      </trkpt>
      <trkpt lat="45.93756" lon="4.77884">
        <ele>166</ele>
        <time>2017-07-06T08:11:10Z</time>
      </trkpt>
      <trkpt lat="45.93759" lon="4.77888">
        <ele>166</ele>
        <time>2017-07-06T08:11:11Z</time>
      </trkpt>
      <trkpt lat="45.93765" lon="4.77896">
        <ele>166</ele>
        <time>2017-07-06T08:11:13Z</time>
      </trkpt>
      <trkpt lat="45.93768" lon="4.779">
        <ele>166</ele>
        <time>2017-07-06T08:11:14Z</time>
      </trkpt>
      <trkpt lat="45.93774" lon="4.77908">
        <ele>166</ele>
        <time>2017-07-06T08:11:16Z</time>
      </trkpt>
      <trkpt lat="45.93777" lon="4.77913">
        <ele>166</ele>
        <time>2017-07-06T08:11:17Z</time>
      </trkpt>
      <trkpt lat="45.93784" lon="4.77921">
        <ele>168</ele>
        <time>2017-07-06T08:11:19Z</time>
      </trkpt>
      <trkpt lat="45.93787" lon="4.77926">
        <ele>168</ele>
        <time>2017-07-06T08:11:20Z</time>
      </trkpt>
      <trkpt lat="45.93794" lon="4.77935">
        <ele>168</ele>
        <time>2017-07-06T08:11:22Z</time>
      </trkpt>
      <trkpt lat="45.93797" lon="4.77939">
        <ele>169</ele>
        <time>2017-07-06T08:11:23Z</time>
      </trkpt>
      <trkpt lat="45.93801" lon="4.77944">
        <ele>169</ele>
        <time>2017-07-06T08:11:24Z</time>
      </trkpt>
      <trkpt lat="45.93804" lon="4.77948">
        <ele>169</ele>
        <time>2017-07-06T08:11:25Z</time>
      </trkpt>
      <trkpt lat="45.93808" lon="4.77953">
        <ele>170</ele>
        <time>2017-07-06T08:11:26Z</time>
      </trkpt>
      <trkpt lat="45.93812" lon="4.77957">
        <ele>170</ele>
        <time>2017-07-06T08:11:27Z</time>
      </trkpt>
      <trkpt lat="45.93816" lon="4.77962">
        <ele>170</ele>
        <time>2017-07-06T08:11:28Z</time>
      </trkpt>
      <trkpt lat="45.9382" lon="4.77968">
        <ele>171</ele>
        <time>2017-07-06T08:11:29Z</time>
      </trkpt>
      <trkpt lat="45.93824" lon="4.77973">
        <ele>172</ele>
        <time>2017-07-06T08:11:30Z</time>
      </trkpt>
      <trkpt lat="45.93828" lon="4.77978">
        <ele>173</ele>
        <time>2017-07-06T08:11:31Z</time>
      </trkpt>
      <trkpt lat="45.93832" lon="4.77984">
        <ele>174</ele>
        <time>2017-07-06T08:11:32Z</time>
      </trkpt>
      <trkpt lat="45.93835" lon="4.7799">
        <ele>179</ele>
        <time>2017-07-06T08:11:33Z</time>
      </trkpt>
      <trkpt lat="45.93839" lon="4.77997">
        <ele>179</ele>
        <time>2017-07-06T08:11:34Z</time>
      </trkpt>
      <trkpt lat="45.93841" lon="4.78005">
        <ele>180</ele>
        <time>2017-07-06T08:11:35Z</time>
      </trkpt>
      <trkpt lat="45.93843" lon="4.78014">
        <ele>181</ele>
        <time>2017-07-06T08:11:36Z</time>
      </trkpt>
      <trkpt lat="45.93844" lon="4.78023">
        <ele>182</ele>
        <time>2017-07-06T08:11:37Z</time>
      </trkpt>
      <trkpt lat="45.93846" lon="4.78031">
        <ele>182</ele>
        <time>2017-07-06T08:11:38Z</time>
      </trkpt>
      <trkpt lat="45.93847" lon="4.78039">
        <ele>182</ele>
        <time>2017-07-06T08:11:39Z</time>
      </trkpt>
      <trkpt lat="45.93849" lon="4.78047">
        <ele>183</ele>
        <time>2017-07-06T08:11:40Z</time>
      </trkpt>
      <trkpt lat="45.93849" lon="4.78054">
        <ele>183</ele>
        <time>2017-07-06T08:11:41Z</time>
      </trkpt>
      <trkpt lat="45.93848" lon="4.78061">
        <ele>182</ele>
        <time>2017-07-06T08:11:42Z</time>
      </trkpt>
      <trkpt lat="45.93847" lon="4.78068">
        <ele>182</ele>
        <time>2017-07-06T08:11:43Z</time>
      </trkpt>
      <trkpt lat="45.93845" lon="4.78076">
        <ele>182</ele>
        <time>2017-07-06T08:11:44Z</time>
      </trkpt>
      <trkpt lat="45.93844" lon="4.78083">
        <ele>181</ele>
        <time>2017-07-06T08:11:45Z</time>
      </trkpt>
      <trkpt lat="45.93842" lon="4.78091">
        <ele>182</ele>
        <time>2017-07-06T08:11:46Z</time>
      </trkpt>
      <trkpt lat="45.9384" lon="4.78098">
        <ele>183</ele>
        <time>2017-07-06T08:11:47Z</time>
      </trkpt>
      <trkpt lat="45.93838" lon="4.78106">
        <ele>183</ele>
        <time>2017-07-06T08:11:48Z</time>
      </trkpt>
      <trkpt lat="45.93836" lon="4.78113">
        <ele>184</ele>
        <time>2017-07-06T08:11:49Z</time>
      </trkpt>
      <trkpt lat="45.93835" lon="4.7812">
        <ele>184</ele>
        <time>2017-07-06T08:11:50Z</time>
      </trkpt>
      <trkpt lat="45.93833" lon="4.78127">
        <ele>180</ele>
        <time>2017-07-06T08:11:51Z</time>
      </trkpt>
      <trkpt lat="45.93831" lon="4.78133">
        <ele>180</ele>
        <time>2017-07-06T08:11:52Z</time>
      </trkpt>
      <trkpt lat="45.93829" lon="4.78139">
        <ele>180</ele>
        <time>2017-07-06T08:11:53Z</time>
      </trkpt>
      <trkpt lat="45.93828" lon="4.78145">
        <ele>180</ele>
        <time>2017-07-06T08:11:54Z</time>
      </trkpt>
      <trkpt lat="45.93827" lon="4.78152">
        <ele>180</ele>
        <time>2017-07-06T08:11:55Z</time>
      </trkpt>
      <trkpt lat="45.93825" lon="4.78158">
        <ele>181</ele>
        <time>2017-07-06T08:11:56Z</time>
      </trkpt>
      <trkpt lat="45.93825" lon="4.78165">
        <ele>181</ele>
        <time>2017-07-06T08:11:57Z</time>
      </trkpt>
      <trkpt lat="45.93823" lon="4.78171">
        <ele>182</ele>
        <time>2017-07-06T08:11:58Z</time>
      </trkpt>
      <trkpt lat="45.93822" lon="4.78178">
        <ele>182</ele>
        <time>2017-07-06T08:11:59Z</time>
      </trkpt>
      <trkpt lat="45.9382" lon="4.78184">
        <ele>182</ele>
        <time>2017-07-06T08:12:00Z</time>
      </trkpt>
      <trkpt lat="45.93819" lon="4.7819">
        <ele>182</ele>
        <time>2017-07-06T08:12:01Z</time>
      </trkpt>
      <trkpt lat="45.93818" lon="4.78197">
        <ele>182</ele>
        <time>2017-07-06T08:12:02Z</time>
      </trkpt>
      <trkpt lat="45.93817" lon="4.78203">
        <ele>182</ele>
        <time>2017-07-06T08:12:03Z</time>
      </trkpt>
      <trkpt lat="45.93815" lon="4.7821">
        <ele>182</ele>
        <time>2017-07-06T08:12:04Z</time>
      </trkpt>
      <trkpt lat="45.93814" lon="4.78216">
        <ele>182</ele>
        <time>2017-07-06T08:12:05Z</time>
      </trkpt>
      <trkpt lat="45.93813" lon="4.78222">
        <ele>182</ele>
        <time>2017-07-06T08:12:06Z</time>
      </trkpt>
      <trkpt lat="45.93811" lon="4.78228">
        <ele>182</ele>
        <time>2017-07-06T08:12:07Z</time>
      </trkpt>
      <trkpt lat="45.93808" lon="4.78234">
        <ele>182</ele>
        <time>2017-07-06T08:12:08Z</time>
      </trkpt>
      <trkpt lat="45.93805" lon="4.78239">
        <ele>182</ele>
        <time>2017-07-06T08:12:09Z</time>
      </trkpt>
      <trkpt lat="45.93802" lon="4.78244">
        <ele>182</ele>
        <time>2017-07-06T08:12:10Z</time>
      </trkpt>
      <trkpt lat="45.938" lon="4.7825">
        <ele>183</ele>
        <time>2017-07-06T08:12:11Z</time>
      </trkpt>
      <trkpt lat="45.93799" lon="4.78257">
        <ele>183</ele>
        <time>2017-07-06T08:12:12Z</time>
      </trkpt>
      <trkpt lat="45.93798" lon="4.78263">
        <ele>183</ele>
        <time>2017-07-06T08:12:13Z</time>
      </trkpt>
      <trkpt lat="45.93797" lon="4.7827">
        <ele>183</ele>
        <time>2017-07-06T08:12:14Z</time>
      </trkpt>
      <trkpt lat="45.93795" lon="4.78277">
        <ele>183</ele>
        <time>2017-07-06T08:12:15Z</time>
      </trkpt>
      <trkpt lat="45.93792" lon="4.78283">
        <ele>183</ele>
        <time>2017-07-06T08:12:16Z</time>
      </trkpt>
      <trkpt lat="45.9379" lon="4.7829">
        <ele>183</ele>
        <time>2017-07-06T08:12:17Z</time>
      </trkpt>
      <trkpt lat="45.93788" lon="4.78297">
        <ele>183</ele>
        <time>2017-07-06T08:12:18Z</time>
      </trkpt>
      <trkpt lat="45.93786" lon="4.78304">
        <ele>183</ele>
        <time>2017-07-06T08:12:19Z</time>
      </trkpt>
      <trkpt lat="45.93784" lon="4.78311">
        <ele>183</ele>
        <time>2017-07-06T08:12:20Z</time>
      </trkpt>
      <trkpt lat="45.93783" lon="4.78318">
        <ele>183</ele>
        <time>2017-07-06T08:12:21Z</time>
      </trkpt>
      <trkpt lat="45.93782" lon="4.78326">
        <ele>183</ele>
        <time>2017-07-06T08:12:22Z</time>
      </trkpt>
      <trkpt lat="45.93779" lon="4.78333">
        <ele>183</ele>
        <time>2017-07-06T08:12:23Z</time>
      </trkpt>
      <trkpt lat="45.93777" lon="4.7834">
        <ele>183</ele>
        <time>2017-07-06T08:12:24Z</time>
      </trkpt>
      <trkpt lat="45.93775" lon="4.78348">
        <ele>183</ele>
        <time>2017-07-06T08:12:25Z</time>
      </trkpt>
      <trkpt lat="45.93774" lon="4.78355">
        <ele>183</ele>
        <time>2017-07-06T08:12:26Z</time>
      </trkpt>
      <trkpt lat="45.93772" lon="4.78363">
        <ele>183</ele>
        <time>2017-07-06T08:12:27Z</time>
      </trkpt>
      <trkpt lat="45.93772" lon="4.78372">
        <ele>183</ele>
        <time>2017-07-06T08:12:28Z</time>
      </trkpt>
      <trkpt lat="45.9377" lon="4.7838">
        <ele>183</ele>
        <time>2017-07-06T08:12:29Z</time>
      </trkpt>
      <trkpt lat="45.93768" lon="4.78388">
        <ele>183</ele>
        <time>2017-07-06T08:12:30Z</time>
      </trkpt>
      <trkpt lat="45.93766" lon="4.78395">
        <ele>183</ele>
        <time>2017-07-06T08:12:31Z</time>
      </trkpt>
      <trkpt lat="45.93765" lon="4.78403">
        <ele>183</ele>
        <time>2017-07-06T08:12:32Z</time>
      </trkpt>
      <trkpt lat="45.93763" lon="4.7841">
        <ele>182</ele>
        <time>2017-07-06T08:12:33Z</time>
      </trkpt>
      <trkpt lat="45.93762" lon="4.78418">
        <ele>183</ele>
        <time>2017-07-06T08:12:34Z</time>
      </trkpt>
      <trkpt lat="45.9376" lon="4.78425">
        <ele>183</ele>
        <time>2017-07-06T08:12:35Z</time>
      </trkpt>
      <trkpt lat="45.93758" lon="4.78432">
        <ele>183</ele>
        <time>2017-07-06T08:12:36Z</time>
      </trkpt>
      <trkpt lat="45.93755" lon="4.7844">
        <ele>183</ele>
        <time>2017-07-06T08:12:37Z</time>
      </trkpt>
      <trkpt lat="45.93752" lon="4.78447">
        <ele>183</ele>
        <time>2017-07-06T08:12:38Z</time>
      </trkpt>
      <trkpt lat="45.9375" lon="4.78455">
        <ele>184</ele>
        <time>2017-07-06T08:12:39Z</time>
      </trkpt>
      <trkpt lat="45.93749" lon="4.78463">
        <ele>180</ele>
        <time>2017-07-06T08:12:40Z</time>
      </trkpt>
      <trkpt lat="45.93747" lon="4.78471">
        <ele>180</ele>
        <time>2017-07-06T08:12:41Z</time>
      </trkpt>
      <trkpt lat="45.93745" lon="4.78479">
        <ele>180</ele>
        <time>2017-07-06T08:12:42Z</time>
      </trkpt>
      <trkpt lat="45.93741" lon="4.78487">
        <ele>180</ele>
        <time>2017-07-06T08:12:43Z</time>
      </trkpt>
      <trkpt lat="45.93738" lon="4.78494">
        <ele>180</ele>
        <time>2017-07-06T08:12:44Z</time>
      </trkpt>
      <trkpt lat="45.93735" lon="4.78502">
        <ele>180</ele>
        <time>2017-07-06T08:12:45Z</time>
      </trkpt>
      <trkpt lat="45.93732" lon="4.7851">
        <ele>179</ele>
        <time>2017-07-06T08:12:46Z</time>
      </trkpt>
      <trkpt lat="45.93729" lon="4.78518">
        <ele>179</ele>
        <time>2017-07-06T08:12:47Z</time>
      </trkpt>
      <trkpt lat="45.93727" lon="4.78526">
        <ele>179</ele>
        <time>2017-07-06T08:12:48Z</time>
      </trkpt>
      <trkpt lat="45.93725" lon="4.78534">
        <ele>178</ele>
        <time>2017-07-06T08:12:49Z</time>
      </trkpt>
      <trkpt lat="45.93722" lon="4.78542">
        <ele>178</ele>
        <time>2017-07-06T08:12:50Z</time>
      </trkpt>
      <trkpt lat="45.9372" lon="4.78551">
        <ele>178</ele>
        <time>2017-07-06T08:12:51Z</time>
      </trkpt>
      <trkpt lat="45.93717" lon="4.78559">
        <ele>178</ele>
        <time>2017-07-06T08:12:52Z</time>
      </trkpt>
      <trkpt lat="45.93715" lon="4.78567">
        <ele>178</ele>
        <time>2017-07-06T08:12:53Z</time>
      </trkpt>
      <trkpt lat="45.93713" lon="4.78575">
        <ele>178</ele>
        <time>2017-07-06T08:12:54Z</time>
      </trkpt>
      <trkpt lat="45.93711" lon="4.78583">
        <ele>177</ele>
        <time>2017-07-06T08:12:55Z</time>
      </trkpt>
      <trkpt lat="45.93709" lon="4.78591">
        <ele>176</ele>
        <time>2017-07-06T08:12:56Z</time>
      </trkpt>
      <trkpt lat="45.93706" lon="4.78599">
        <ele>176</ele>
        <time>2017-07-06T08:12:57Z</time>
      </trkpt>
      <trkpt lat="45.93704" lon="4.78606">
        <ele>176</ele>
        <time>2017-07-06T08:12:58Z</time>
      </trkpt>
      <trkpt lat="45.93701" lon="4.78613">
        <ele>176</ele>
        <time>2017-07-06T08:12:59Z</time>
      </trkpt>
      <trkpt lat="45.937" lon="4.78625">
        <ele>176</ele>
        <time>2017-07-06T08:13:01Z</time>
      </trkpt>
      <trkpt lat="45.93702" lon="4.7863">
        <ele>176</ele>
        <time>2017-07-06T08:13:02Z</time>
      </trkpt>
      <trkpt lat="45.93707" lon="4.78632">
        <ele>176</ele>
        <time>2017-07-06T08:13:03Z</time>
      </trkpt>
      <trkpt lat="45.93711" lon="4.78633">
        <ele>176</ele>
        <time>2017-07-06T08:13:04Z</time>
      </trkpt>
      <trkpt lat="45.93719" lon="4.78629">
        <ele>177</ele>
        <time>2017-07-06T08:13:06Z</time>
      </trkpt>
      <trkpt lat="45.93724" lon="4.78628">
        <ele>177</ele>
        <time>2017-07-06T08:13:07Z</time>
      </trkpt>
      <trkpt lat="45.93732" lon="4.78626">
        <ele>177</ele>
        <time>2017-07-06T08:13:09Z</time>
      </trkpt>
      <trkpt lat="45.93736" lon="4.78625">
        <ele>177</ele>
        <time>2017-07-06T08:13:10Z</time>
      </trkpt>
      <trkpt lat="45.93743" lon="4.78623">
        <ele>177</ele>
        <time>2017-07-06T08:13:12Z</time>
      </trkpt>
      <trkpt lat="45.93747" lon="4.78622">
        <ele>177</ele>
        <time>2017-07-06T08:13:13Z</time>
      </trkpt>
      <trkpt lat="45.93754" lon="4.78619">
        <ele>181</ele>
        <time>2017-07-06T08:13:15Z</time>
      </trkpt>
      <trkpt lat="45.93757" lon="4.78618">
        <ele>181</ele>
        <time>2017-07-06T08:13:16Z</time>
      </trkpt>
      <trkpt lat="45.93764" lon="4.78616">
        <ele>181</ele>
        <time>2017-07-06T08:13:18Z</time>
      </trkpt>
      <trkpt lat="45.93768" lon="4.78615">
        <ele>181</ele>
        <time>2017-07-06T08:13:19Z</time>
      </trkpt>
      <trkpt lat="45.93774" lon="4.78613">
        <ele>181</ele>
        <time>2017-07-06T08:13:21Z</time>
      </trkpt>
      <trkpt lat="45.93778" lon="4.78613">
        <ele>181</ele>
        <time>2017-07-06T08:13:22Z</time>
      </trkpt>
      <trkpt lat="45.93785" lon="4.78613">
        <ele>182</ele>
        <time>2017-07-06T08:13:24Z</time>
      </trkpt>
      <trkpt lat="45.93789" lon="4.78612">
        <ele>182</ele>
        <time>2017-07-06T08:13:25Z</time>
      </trkpt>
      <trkpt lat="45.93797" lon="4.78611">
        <ele>182</ele>
        <time>2017-07-06T08:13:27Z</time>
      </trkpt>
      <trkpt lat="45.938" lon="4.78611">
        <ele>182</ele>
        <time>2017-07-06T08:13:28Z</time>
      </trkpt>
      <trkpt lat="45.93808" lon="4.78609">
        <ele>183</ele>
        <time>2017-07-06T08:13:30Z</time>
      </trkpt>
      <trkpt lat="45.93811" lon="4.78608">
        <ele>183</ele>
        <time>2017-07-06T08:13:31Z</time>
      </trkpt>
      <trkpt lat="45.93817" lon="4.78607">
        <ele>183</ele>
        <time>2017-07-06T08:13:33Z</time>
      </trkpt>
      <trkpt lat="45.93821" lon="4.78606">
        <ele>184</ele>
        <time>2017-07-06T08:13:34Z</time>
      </trkpt>
      <trkpt lat="45.93829" lon="4.78604">
        <ele>184</ele>
        <time>2017-07-06T08:13:37Z</time>
      </trkpt>
      <trkpt lat="45.93832" lon="4.78603">
        <ele>184</ele>
        <time>2017-07-06T08:13:38Z</time>
      </trkpt>
      <trkpt lat="45.9384" lon="4.78601">
        <ele>187</ele>
        <time>2017-07-06T08:13:41Z</time>
      </trkpt>
      <trkpt lat="45.93843" lon="4.786">
        <ele>188</ele>
        <time>2017-07-06T08:13:42Z</time>
      </trkpt>
      <trkpt lat="45.93851" lon="4.78597">
        <ele>188</ele>
        <time>2017-07-06T08:13:45Z</time>
      </trkpt>
      <trkpt lat="45.93853" lon="4.78597">
        <ele>188</ele>
        <time>2017-07-06T08:13:46Z</time>
      </trkpt>
      <trkpt lat="45.93861" lon="4.78595">
        <ele>188</ele>
        <time>2017-07-06T08:13:49Z</time>
      </trkpt>
      <trkpt lat="45.93864" lon="4.78594">
        <ele>188</ele>
        <time>2017-07-06T08:13:50Z</time>
      </trkpt>
      <trkpt lat="45.93871" lon="4.78591">
        <ele>189</ele>
        <time>2017-07-06T08:13:53Z</time>
      </trkpt>
      <trkpt lat="45.93875" lon="4.7859">
        <ele>189</ele>
        <time>2017-07-06T08:13:54Z</time>
      </trkpt>
      <trkpt lat="45.93883" lon="4.78588">
        <ele>189</ele>
        <time>2017-07-06T08:13:57Z</time>
      </trkpt>
      <trkpt lat="45.93886" lon="4.78587">
        <ele>190</ele>
        <time>2017-07-06T08:13:58Z</time>
      </trkpt>
      <trkpt lat="45.93893" lon="4.78584">
        <ele>190</ele>
        <time>2017-07-06T08:14:01Z</time>
      </trkpt>
      <trkpt lat="45.93895" lon="4.78584">
        <ele>190</ele>
        <time>2017-07-06T08:14:02Z</time>
      </trkpt>
      <trkpt lat="45.93903" lon="4.78583">
        <ele>192</ele>
        <time>2017-07-06T08:14:05Z</time>
      </trkpt>
      <trkpt lat="45.93905" lon="4.78582">
        <ele>192</ele>
        <time>2017-07-06T08:14:06Z</time>
      </trkpt>
      <trkpt lat="45.93912" lon="4.78579">
        <ele>193</ele>
        <time>2017-07-06T08:14:09Z</time>
      </trkpt>
      <trkpt lat="45.93914" lon="4.78577">
        <ele>193</ele>
        <time>2017-07-06T08:14:10Z</time>
      </trkpt>
      <trkpt lat="45.9392" lon="4.78571">
        <ele>195</ele>
        <time>2017-07-06T08:14:13Z</time>
      </trkpt>
      <trkpt lat="45.93922" lon="4.78569">
        <ele>195</ele>
        <time>2017-07-06T08:14:14Z</time>
      </trkpt>
      <trkpt lat="45.9393" lon="4.78574">
        <ele>196</ele>
        <time>2017-07-06T08:14:19Z</time>
      </trkpt>
      <trkpt lat="45.93931" lon="4.78577">
        <ele>195</ele>
        <time>2017-07-06T08:14:20Z</time>
      </trkpt>
      <trkpt lat="45.93932" lon="4.78589">
        <ele>195</ele>
        <time>2017-07-06T08:14:23Z</time>
      </trkpt>
      <trkpt lat="45.93933" lon="4.78595">
        <ele>195</ele>
        <time>2017-07-06T08:14:24Z</time>
      </trkpt>
      <trkpt lat="45.93935" lon="4.78604">
        <ele>195</ele>
        <time>2017-07-06T08:14:26Z</time>
      </trkpt>
      <trkpt lat="45.93936" lon="4.78609">
        <ele>196</ele>
        <time>2017-07-06T08:14:27Z</time>
      </trkpt>
      <trkpt lat="45.93936" lon="4.78619">
        <ele>196</ele>
        <time>2017-07-06T08:14:29Z</time>
      </trkpt>
      <trkpt lat="45.93937" lon="4.78624">
        <ele>196</ele>
        <time>2017-07-06T08:14:30Z</time>
      </trkpt>
      <trkpt lat="45.93938" lon="4.78634">
        <ele>195</ele>
        <time>2017-07-06T08:14:32Z</time>
      </trkpt>
      <trkpt lat="45.93939" lon="4.78639">
        <ele>195</ele>
        <time>2017-07-06T08:14:33Z</time>
      </trkpt>
      <trkpt lat="45.9394" lon="4.78651">
        <ele>195</ele>
        <time>2017-07-06T08:14:35Z</time>
      </trkpt>
      <trkpt lat="45.93939" lon="4.78657">
        <ele>194</ele>
        <time>2017-07-06T08:14:36Z</time>
      </trkpt>
      <trkpt lat="45.93939" lon="4.78667">
        <ele>193</ele>
        <time>2017-07-06T08:14:38Z</time>
      </trkpt>
      <trkpt lat="45.93939" lon="4.78672">
        <ele>193</ele>
        <time>2017-07-06T08:14:39Z</time>
      </trkpt>
      <trkpt lat="45.93938" lon="4.78681">
        <ele>194</ele>
        <time>2017-07-06T08:14:41Z</time>
      </trkpt>
      <trkpt lat="45.93938" lon="4.78686">
        <ele>194</ele>
        <time>2017-07-06T08:14:42Z</time>
      </trkpt>
      <trkpt lat="45.93938" lon="4.78698">
        <ele>194</ele>
        <time>2017-07-06T08:14:44Z</time>
      </trkpt>
      <trkpt lat="45.93938" lon="4.78704">
        <ele>194</ele>
        <time>2017-07-06T08:14:45Z</time>
      </trkpt>
      <trkpt lat="45.93938" lon="4.78716">
        <ele>194</ele>
        <time>2017-07-06T08:14:47Z</time>
      </trkpt>
      <trkpt lat="45.93939" lon="4.78723">
        <ele>194</ele>
        <time>2017-07-06T08:14:48Z</time>
      </trkpt>
      <trkpt lat="45.93939" lon="4.7873">
        <ele>194</ele>
        <time>2017-07-06T08:14:49Z</time>
      </trkpt>
      <trkpt lat="45.93939" lon="4.78736">
        <ele>194</ele>
        <time>2017-07-06T08:14:50Z</time>
      </trkpt>
      <trkpt lat="45.9394" lon="4.78749">
        <ele>193</ele>
        <time>2017-07-06T08:14:52Z</time>
      </trkpt>
      <trkpt lat="45.9394" lon="4.78755">
        <ele>193</ele>
        <time>2017-07-06T08:14:53Z</time>
      </trkpt>
      <trkpt lat="45.93941" lon="4.78762">
        <ele>194</ele>
        <time>2017-07-06T08:14:54Z</time>
      </trkpt>
      <trkpt lat="45.93941" lon="4.78769">
        <ele>194</ele>
        <time>2017-07-06T08:14:55Z</time>
      </trkpt>
      <trkpt lat="45.93941" lon="4.78776">
        <ele>194</ele>
        <time>2017-07-06T08:14:56Z</time>
      </trkpt>
      <trkpt lat="45.93942" lon="4.78784">
        <ele>194</ele>
        <time>2017-07-06T08:14:57Z</time>
      </trkpt>
      <trkpt lat="45.93942" lon="4.78791">
        <ele>194</ele>
        <time>2017-07-06T08:14:58Z</time>
      </trkpt>
      <trkpt lat="45.9394" lon="4.78799">
        <ele>194</ele>
        <time>2017-07-06T08:14:59Z</time>
      </trkpt>
      <trkpt lat="45.9394" lon="4.78807">
        <ele>194</ele>
        <time>2017-07-06T08:15:00Z</time>
      </trkpt>
      <trkpt lat="45.9394" lon="4.78814">
        <ele>194</ele>
        <time>2017-07-06T08:15:01Z</time>
      </trkpt>
      <trkpt lat="45.9394" lon="4.78821">
        <ele>194</ele>
        <time>2017-07-06T08:15:02Z</time>
      </trkpt>
      <trkpt lat="45.93939" lon="4.78829">
        <ele>194</ele>
        <time>2017-07-06T08:15:03Z</time>
      </trkpt>
      <trkpt lat="45.9394" lon="4.78836">
        <ele>193</ele>
        <time>2017-07-06T08:15:04Z</time>
      </trkpt>
      <trkpt lat="45.9394" lon="4.78844">
        <ele>193</ele>
        <time>2017-07-06T08:15:05Z</time>
      </trkpt>
      <trkpt lat="45.9394" lon="4.78851">
        <ele>194</ele>
        <time>2017-07-06T08:15:06Z</time>
      </trkpt>
      <trkpt lat="45.9394" lon="4.78859">
        <ele>194</ele>
        <time>2017-07-06T08:15:07Z</time>
      </trkpt>
      <trkpt lat="45.93941" lon="4.78866">
        <ele>194</ele>
        <time>2017-07-06T08:15:08Z</time>
      </trkpt>
      <trkpt lat="45.93941" lon="4.78874">
        <ele>194</ele>
        <time>2017-07-06T08:15:09Z</time>
      </trkpt>
      <trkpt lat="45.93941" lon="4.78882">
        <ele>194</ele>
        <time>2017-07-06T08:15:10Z</time>
      </trkpt>
      <trkpt lat="45.93941" lon="4.78889">
        <ele>194</ele>
        <time>2017-07-06T08:15:11Z</time>
      </trkpt>
      <trkpt lat="45.93942" lon="4.78897">
        <ele>193</ele>
        <time>2017-07-06T08:15:12Z</time>
      </trkpt>
      <trkpt lat="45.93943" lon="4.78905">
        <ele>193</ele>
        <time>2017-07-06T08:15:13Z</time>
      </trkpt>
      <trkpt lat="45.93941" lon="4.78912">
        <ele>193</ele>
        <time>2017-07-06T08:15:14Z</time>
      </trkpt>
      <trkpt lat="45.93941" lon="4.7892">
        <ele>193</ele>
        <time>2017-07-06T08:15:15Z</time>
      </trkpt>
      <trkpt lat="45.93942" lon="4.78927">
        <ele>193</ele>
        <time>2017-07-06T08:15:16Z</time>
      </trkpt>
      <trkpt lat="45.93942" lon="4.78935">
        <ele>193</ele>
        <time>2017-07-06T08:15:17Z</time>
      </trkpt>
      <trkpt lat="45.93941" lon="4.78943">
        <ele>194</ele>
        <time>2017-07-06T08:15:18Z</time>
      </trkpt>
      <trkpt lat="45.93941" lon="4.7895">
        <ele>194</ele>
        <time>2017-07-06T08:15:19Z</time>
      </trkpt>
      <trkpt lat="45.93941" lon="4.78957">
        <ele>194</ele>
        <time>2017-07-06T08:15:20Z</time>
      </trkpt>
      <trkpt lat="45.93941" lon="4.78964">
        <ele>194</ele>
        <time>2017-07-06T08:15:21Z</time>
      </trkpt>
      <trkpt lat="45.93942" lon="4.78971">
        <ele>194</ele>
        <time>2017-07-06T08:15:22Z</time>
      </trkpt>
      <trkpt lat="45.93943" lon="4.78978">
        <ele>194</ele>
        <time>2017-07-06T08:15:23Z</time>
      </trkpt>
      <trkpt lat="45.93943" lon="4.78985">
        <ele>194</ele>
        <time>2017-07-06T08:15:24Z</time>
      </trkpt>
      <trkpt lat="45.93944" lon="4.78992">
        <ele>194</ele>
        <time>2017-07-06T08:15:25Z</time>
      </trkpt>
      <trkpt lat="45.93944" lon="4.78999">
        <ele>194</ele>
        <time>2017-07-06T08:15:26Z</time>
      </trkpt>
      <trkpt lat="45.93945" lon="4.79006">
        <ele>195</ele>
        <time>2017-07-06T08:15:27Z</time>
      </trkpt>
      <trkpt lat="45.93945" lon="4.79013">
        <ele>195</ele>
        <time>2017-07-06T08:15:28Z</time>
      </trkpt>
      <trkpt lat="45.93946" lon="4.7902">
        <ele>195</ele>
        <time>2017-07-06T08:15:29Z</time>
      </trkpt>
      <trkpt lat="45.93948" lon="4.79027">
        <ele>195</ele>
        <time>2017-07-06T08:15:30Z</time>
      </trkpt>
      <trkpt lat="45.9395" lon="4.79034">
        <ele>196</ele>
        <time>2017-07-06T08:15:31Z</time>
      </trkpt>
      <trkpt lat="45.93951" lon="4.79046">
        <ele>196</ele>
        <time>2017-07-06T08:15:33Z</time>
      </trkpt>
      <trkpt lat="45.93951" lon="4.79052">
        <ele>196</ele>
        <time>2017-07-06T08:15:34Z</time>
      </trkpt>
      <trkpt lat="45.93951" lon="4.79062">
        <ele>196</ele>
        <time>2017-07-06T08:15:36Z</time>
      </trkpt>
      <trkpt lat="45.93952" lon="4.79067">
        <ele>196</ele>
        <time>2017-07-06T08:15:37Z</time>
      </trkpt>
      <trkpt lat="45.93952" lon="4.79077">
        <ele>196</ele>
        <time>2017-07-06T08:15:39Z</time>
      </trkpt>
      <trkpt lat="45.93952" lon="4.79083">
        <ele>196</ele>
        <time>2017-07-06T08:15:40Z</time>
      </trkpt>
      <trkpt lat="45.93952" lon="4.79094">
        <ele>197</ele>
        <time>2017-07-06T08:15:42Z</time>
      </trkpt>
      <trkpt lat="45.93952" lon="4.791">
        <ele>197</ele>
        <time>2017-07-06T08:15:43Z</time>
      </trkpt>
      <trkpt lat="45.93953" lon="4.79112">
        <ele>197</ele>
        <time>2017-07-06T08:15:45Z</time>
      </trkpt>
      <trkpt lat="45.93953" lon="4.79117">
        <ele>197</ele>
        <time>2017-07-06T08:15:46Z</time>
      </trkpt>
      <trkpt lat="45.93953" lon="4.79129">
        <ele>197</ele>
        <time>2017-07-06T08:15:48Z</time>
      </trkpt>
      <trkpt lat="45.93952" lon="4.79135">
        <ele>197</ele>
        <time>2017-07-06T08:15:49Z</time>
      </trkpt>
      <trkpt lat="45.93952" lon="4.79147">
        <ele>197</ele>
        <time>2017-07-06T08:15:51Z</time>
      </trkpt>
      <trkpt lat="45.93952" lon="4.79152">
        <ele>197</ele>
        <time>2017-07-06T08:15:52Z</time>
      </trkpt>
      <trkpt lat="45.93951" lon="4.79163">
        <ele>197</ele>
        <time>2017-07-06T08:15:54Z</time>
      </trkpt>
      <trkpt lat="45.9395" lon="4.79169">
        <ele>197</ele>
        <time>2017-07-06T08:15:55Z</time>
      </trkpt>
      <trkpt lat="45.9395" lon="4.79181">
        <ele>197</ele>
        <time>2017-07-06T08:15:57Z</time>
      </trkpt>
      <trkpt lat="45.93949" lon="4.79187">
        <ele>197</ele>
        <time>2017-07-06T08:15:58Z</time>
      </trkpt>
      <trkpt lat="45.9395" lon="4.79198">
        <ele>197</ele>
        <time>2017-07-06T08:16:00Z</time>
      </trkpt>
      <trkpt lat="45.9395" lon="4.79204">
        <ele>197</ele>
        <time>2017-07-06T08:16:01Z</time>
      </trkpt>
      <trkpt lat="45.93947" lon="4.79215">
        <ele>197</ele>
        <time>2017-07-06T08:16:03Z</time>
      </trkpt>
      <trkpt lat="45.93947" lon="4.79221">
        <ele>197</ele>
        <time>2017-07-06T08:16:04Z</time>
      </trkpt>
      <trkpt lat="45.93948" lon="4.79232">
        <ele>197</ele>
        <time>2017-07-06T08:16:06Z</time>
      </trkpt>
      <trkpt lat="45.93948" lon="4.79238">
        <ele>196</ele>
        <time>2017-07-06T08:16:07Z</time>
      </trkpt>
      <trkpt lat="45.93948" lon="4.7925">
        <ele>197</ele>
        <time>2017-07-06T08:16:09Z</time>
      </trkpt>
      <trkpt lat="45.93948" lon="4.79256">
        <ele>197</ele>
        <time>2017-07-06T08:16:10Z</time>
      </trkpt>
      <trkpt lat="45.93948" lon="4.79267">
        <ele>198</ele>
        <time>2017-07-06T08:16:12Z</time>
      </trkpt>
      <trkpt lat="45.93949" lon="4.79273">
        <ele>198</ele>
        <time>2017-07-06T08:16:13Z</time>
      </trkpt>
      <trkpt lat="45.9395" lon="4.79284">
        <ele>198</ele>
        <time>2017-07-06T08:16:15Z</time>
      </trkpt>
      <trkpt lat="45.9395" lon="4.7929">
        <ele>198</ele>
        <time>2017-07-06T08:16:16Z</time>
      </trkpt>
      <trkpt lat="45.9395" lon="4.79301">
        <ele>198</ele>
        <time>2017-07-06T08:16:18Z</time>
      </trkpt>
      <trkpt lat="45.93951" lon="4.79307">
        <ele>198</ele>
        <time>2017-07-06T08:16:19Z</time>
      </trkpt>
      <trkpt lat="45.93952" lon="4.79318">
        <ele>198</ele>
        <time>2017-07-06T08:16:21Z</time>
      </trkpt>
      <trkpt lat="45.93952" lon="4.79324">
        <ele>199</ele>
        <time>2017-07-06T08:16:22Z</time>
      </trkpt>
      <trkpt lat="45.93954" lon="4.79336">
        <ele>200</ele>
        <time>2017-07-06T08:16:24Z</time>
      </trkpt>
      <trkpt lat="45.93954" lon="4.79341">
        <ele>200</ele>
        <time>2017-07-06T08:16:25Z</time>
      </trkpt>
      <trkpt lat="45.93954" lon="4.79353">
        <ele>201</ele>
        <time>2017-07-06T08:16:27Z</time>
      </trkpt>
      <trkpt lat="45.93954" lon="4.79358">
        <ele>201</ele>
        <time>2017-07-06T08:16:28Z</time>
      </trkpt>
      <trkpt lat="45.93955" lon="4.79369">
        <ele>201</ele>
        <time>2017-07-06T08:16:30Z</time>
      </trkpt>
      <trkpt lat="45.93955" lon="4.79375">
        <ele>201</ele>
        <time>2017-07-06T08:16:31Z</time>
      </trkpt>
      <trkpt lat="45.93956" lon="4.79386">
        <ele>201</ele>
        <time>2017-07-06T08:16:33Z</time>
      </trkpt>
      <trkpt lat="45.93956" lon="4.79391">
        <ele>201</ele>
        <time>2017-07-06T08:16:34Z</time>
      </trkpt>
      <trkpt lat="45.93956" lon="4.79403">
        <ele>201</ele>
        <time>2017-07-06T08:16:36Z</time>
      </trkpt>
      <trkpt lat="45.93955" lon="4.79408">
        <ele>201</ele>
        <time>2017-07-06T08:16:37Z</time>
      </trkpt>
      <trkpt lat="45.93955" lon="4.79419">
        <ele>202</ele>
        <time>2017-07-06T08:16:39Z</time>
      </trkpt>
      <trkpt lat="45.93954" lon="4.79424">
        <ele>202</ele>
        <time>2017-07-06T08:16:40Z</time>
      </trkpt>
      <trkpt lat="45.93953" lon="4.79434">
        <ele>202</ele>
        <time>2017-07-06T08:16:42Z</time>
      </trkpt>
      <trkpt lat="45.93952" lon="4.79439">
        <ele>202</ele>
        <time>2017-07-06T08:16:43Z</time>
      </trkpt>
      <trkpt lat="45.93952" lon="4.79449">
        <ele>202</ele>
        <time>2017-07-06T08:16:45Z</time>
      </trkpt>
      <trkpt lat="45.93952" lon="4.79455">
        <ele>202</ele>
        <time>2017-07-06T08:16:46Z</time>
      </trkpt>
      <trkpt lat="45.93951" lon="4.79467">
        <ele>202</ele>
        <time>2017-07-06T08:16:48Z</time>
      </trkpt>
      <trkpt lat="45.93951" lon="4.79473">
        <ele>202</ele>
        <time>2017-07-06T08:16:49Z</time>
      </trkpt>
      <trkpt lat="45.93951" lon="4.79484">
        <ele>202</ele>
        <time>2017-07-06T08:16:51Z</time>
      </trkpt>
      <trkpt lat="45.93951" lon="4.7949">
        <ele>202</ele>
        <time>2017-07-06T08:16:52Z</time>
      </trkpt>
      <trkpt lat="45.93951" lon="4.79501">
        <ele>204</ele>
        <time>2017-07-06T08:16:54Z</time>
      </trkpt>
      <trkpt lat="45.93951" lon="4.79506">
        <ele>204</ele>
        <time>2017-07-06T08:16:55Z</time>
      </trkpt>
      <trkpt lat="45.93952" lon="4.79517">
        <ele>204</ele>
        <time>2017-07-06T08:16:57Z</time>
      </trkpt>
      <trkpt lat="45.93953" lon="4.79523">
        <ele>204</ele>
        <time>2017-07-06T08:16:58Z</time>
      </trkpt>
      <trkpt lat="45.93954" lon="4.79534">
        <ele>205</ele>
        <time>2017-07-06T08:17:00Z</time>
      </trkpt>
      <trkpt lat="45.93954" lon="4.7954">
        <ele>205</ele>
        <time>2017-07-06T08:17:01Z</time>
      </trkpt>
      <trkpt lat="45.93955" lon="4.79551">
        <ele>205</ele>
        <time>2017-07-06T08:17:03Z</time>
      </trkpt>
      <trkpt lat="45.93955" lon="4.79557">
        <ele>205</ele>
        <time>2017-07-06T08:17:04Z</time>
      </trkpt>
      <trkpt lat="45.93956" lon="4.79568">
        <ele>205</ele>
        <time>2017-07-06T08:17:06Z</time>
      </trkpt>
      <trkpt lat="45.93956" lon="4.79574">
        <ele>205</ele>
        <time>2017-07-06T08:17:07Z</time>
      </trkpt>
      <trkpt lat="45.93957" lon="4.79585">
        <ele>206</ele>
        <time>2017-07-06T08:17:09Z</time>
      </trkpt>
      <trkpt lat="45.93957" lon="4.79591">
        <ele>207</ele>
        <time>2017-07-06T08:17:10Z</time>
      </trkpt>
      <trkpt lat="45.93958" lon="4.79602">
        <ele>207</ele>
        <time>2017-07-06T08:17:12Z</time>
      </trkpt>
      <trkpt lat="45.93958" lon="4.79607">
        <ele>207</ele>
        <time>2017-07-06T08:17:13Z</time>
      </trkpt>
      <trkpt lat="45.93959" lon="4.79617">
        <ele>207</ele>
        <time>2017-07-06T08:17:15Z</time>
      </trkpt>
      <trkpt lat="45.9396" lon="4.79623">
        <ele>207</ele>
        <time>2017-07-06T08:17:16Z</time>
      </trkpt>
      <trkpt lat="45.93961" lon="4.79634">
        <ele>207</ele>
        <time>2017-07-06T08:17:18Z</time>
      </trkpt>
      <trkpt lat="45.93961" lon="4.79639">
        <ele>207</ele>
        <time>2017-07-06T08:17:19Z</time>
      </trkpt>
      <trkpt lat="45.93963" lon="4.79651">
        <ele>207</ele>
        <time>2017-07-06T08:17:21Z</time>
      </trkpt>
      <trkpt lat="45.93964" lon="4.79657">
        <ele>207</ele>
        <time>2017-07-06T08:17:22Z</time>
      </trkpt>
      <trkpt lat="45.93966" lon="4.79667">
        <ele>207</ele>
        <time>2017-07-06T08:17:24Z</time>
      </trkpt>
      <trkpt lat="45.93967" lon="4.79672">
        <ele>207</ele>
        <time>2017-07-06T08:17:25Z</time>
      </trkpt>
      <trkpt lat="45.93967" lon="4.79682">
        <ele>207</ele>
        <time>2017-07-06T08:17:27Z</time>
      </trkpt>
      <trkpt lat="45.93967" lon="4.79687">
        <ele>207</ele>
        <time>2017-07-06T08:17:28Z</time>
      </trkpt>
      <trkpt lat="45.93968" lon="4.79698">
        <ele>207</ele>
        <time>2017-07-06T08:17:30Z</time>
      </trkpt>
      <trkpt lat="45.93968" lon="4.79703">
        <ele>207</ele>
        <time>2017-07-06T08:17:31Z</time>
      </trkpt>
      <trkpt lat="45.93967" lon="4.79713">
        <ele>207</ele>
        <time>2017-07-06T08:17:33Z</time>
      </trkpt>
      <trkpt lat="45.93968" lon="4.79719">
        <ele>207</ele>
        <time>2017-07-06T08:17:34Z</time>
      </trkpt>
      <trkpt lat="45.93969" lon="4.79729">
        <ele>207</ele>
        <time>2017-07-06T08:17:36Z</time>
      </trkpt>
      <trkpt lat="45.93969" lon="4.79734">
        <ele>206</ele>
        <time>2017-07-06T08:17:37Z</time>
      </trkpt>
      <trkpt lat="45.9397" lon="4.79745">
        <ele>207</ele>
        <time>2017-07-06T08:17:39Z</time>
      </trkpt>
      <trkpt lat="45.93971" lon="4.79751">
        <ele>206</ele>
        <time>2017-07-06T08:17:40Z</time>
      </trkpt>
      <trkpt lat="45.93972" lon="4.79762">
        <ele>206</ele>
        <time>2017-07-06T08:17:42Z</time>
      </trkpt>
      <trkpt lat="45.93972" lon="4.79768">
        <ele>206</ele>
        <time>2017-07-06T08:17:43Z</time>
      </trkpt>
      <trkpt lat="45.93972" lon="4.79781">
        <ele>206</ele>
        <time>2017-07-06T08:17:45Z</time>
      </trkpt>
      <trkpt lat="45.93972" lon="4.79787">
        <ele>206</ele>
        <time>2017-07-06T08:17:46Z</time>
      </trkpt>
      <trkpt lat="45.93971" lon="4.79799">
        <ele>206</ele>
        <time>2017-07-06T08:17:48Z</time>
      </trkpt>
      <trkpt lat="45.9397" lon="4.79805">
        <ele>206</ele>
        <time>2017-07-06T08:17:49Z</time>
      </trkpt>
      <trkpt lat="45.93968" lon="4.79817">
        <ele>207</ele>
        <time>2017-07-06T08:17:51Z</time>
      </trkpt>
      <trkpt lat="45.93967" lon="4.79822">
        <ele>207</ele>
        <time>2017-07-06T08:17:52Z</time>
      </trkpt>
      <trkpt lat="45.93966" lon="4.79834">
        <ele>206</ele>
        <time>2017-07-06T08:17:54Z</time>
      </trkpt>
      <trkpt lat="45.93965" lon="4.79841">
        <ele>206</ele>
        <time>2017-07-06T08:17:55Z</time>
      </trkpt>
      <trkpt lat="45.93964" lon="4.79847">
        <ele>206</ele>
        <time>2017-07-06T08:17:56Z</time>
      </trkpt>
      <trkpt lat="45.93963" lon="4.79854">
        <ele>206</ele>
        <time>2017-07-06T08:17:57Z</time>
      </trkpt>
      <trkpt lat="45.93962" lon="4.79862">
        <ele>206</ele>
        <time>2017-07-06T08:17:58Z</time>
      </trkpt>
      <trkpt lat="45.9396" lon="4.79869">
        <ele>206</ele>
        <time>2017-07-06T08:17:59Z</time>
      </trkpt>
      <trkpt lat="45.9396" lon="4.79876">
        <ele>206</ele>
        <time>2017-07-06T08:18:00Z</time>
      </trkpt>
      <trkpt lat="45.93959" lon="4.79883">
        <ele>206</ele>
        <time>2017-07-06T08:18:01Z</time>
      </trkpt>
      <trkpt lat="45.93957" lon="4.79889">
        <ele>206</ele>
        <time>2017-07-06T08:18:02Z</time>
      </trkpt>
      <trkpt lat="45.93957" lon="4.79896">
        <ele>205</ele>
        <time>2017-07-06T08:18:03Z</time>
      </trkpt>
      <trkpt lat="45.93956" lon="4.79902">
        <ele>205</ele>
        <time>2017-07-06T08:18:04Z</time>
      </trkpt>
      <trkpt lat="45.93955" lon="4.79909">
        <ele>205</ele>
        <time>2017-07-06T08:18:05Z</time>
      </trkpt>
      <trkpt lat="45.93954" lon="4.79915">
        <ele>205</ele>
        <time>2017-07-06T08:18:06Z</time>
      </trkpt>
      <trkpt lat="45.93954" lon="4.79922">
        <ele>205</ele>
        <time>2017-07-06T08:18:07Z</time>
      </trkpt>
      <trkpt lat="45.93953" lon="4.79929">
        <ele>205</ele>
        <time>2017-07-06T08:18:08Z</time>
      </trkpt>
      <trkpt lat="45.93952" lon="4.79935">
        <ele>205</ele>
        <time>2017-07-06T08:18:09Z</time>
      </trkpt>
      <trkpt lat="45.9395" lon="4.79942">
        <ele>205</ele>
        <time>2017-07-06T08:18:10Z</time>
      </trkpt>
      <trkpt lat="45.93949" lon="4.79949">
        <ele>205</ele>
        <time>2017-07-06T08:18:11Z</time>
      </trkpt>
      <trkpt lat="45.93948" lon="4.79956">
        <ele>205</ele>
        <time>2017-07-06T08:18:12Z</time>
      </trkpt>
      <trkpt lat="45.93947" lon="4.79963">
        <ele>205</ele>
        <time>2017-07-06T08:18:13Z</time>
      </trkpt>
      <trkpt lat="45.93946" lon="4.7997">
        <ele>205</ele>
        <time>2017-07-06T08:18:14Z</time>
      </trkpt>
      <trkpt lat="45.93945" lon="4.79977">
        <ele>205</ele>
        <time>2017-07-06T08:18:15Z</time>
      </trkpt>
      <trkpt lat="45.93942" lon="4.79989">
        <ele>204</ele>
        <time>2017-07-06T08:18:17Z</time>
      </trkpt>
      <trkpt lat="45.93941" lon="4.79995">
        <ele>204</ele>
        <time>2017-07-06T08:18:18Z</time>
      </trkpt>
      <trkpt lat="45.93939" lon="4.80007">
        <ele>205</ele>
        <time>2017-07-06T08:18:20Z</time>
      </trkpt>
      <trkpt lat="45.93938" lon="4.80013">
        <ele>206</ele>
        <time>2017-07-06T08:18:21Z</time>
      </trkpt>
      <trkpt lat="45.93937" lon="4.80025">
        <ele>206</ele>
        <time>2017-07-06T08:18:23Z</time>
      </trkpt>
      <trkpt lat="45.93936" lon="4.80031">
        <ele>206</ele>
        <time>2017-07-06T08:18:24Z</time>
      </trkpt>
      <trkpt lat="45.93935" lon="4.80042">
        <ele>207</ele>
        <time>2017-07-06T08:18:26Z</time>
      </trkpt>
      <trkpt lat="45.93934" lon="4.80047">
        <ele>207</ele>
        <time>2017-07-06T08:18:27Z</time>
      </trkpt>
      <trkpt lat="45.93934" lon="4.80058">
        <ele>207</ele>
        <time>2017-07-06T08:18:29Z</time>
      </trkpt>
      <trkpt lat="45.93934" lon="4.80063">
        <ele>207</ele>
        <time>2017-07-06T08:18:30Z</time>
      </trkpt>
      <trkpt lat="45.93935" lon="4.80073">
        <ele>207</ele>
        <time>2017-07-06T08:18:32Z</time>
      </trkpt>
      <trkpt lat="45.93935" lon="4.80078">
        <ele>207</ele>
        <time>2017-07-06T08:18:33Z</time>
      </trkpt>
      <trkpt lat="45.93936" lon="4.8009">
        <ele>208</ele>
        <time>2017-07-06T08:18:35Z</time>
      </trkpt>
      <trkpt lat="45.93937" lon="4.80097">
        <ele>208</ele>
        <time>2017-07-06T08:18:36Z</time>
      </trkpt>
      <trkpt lat="45.93938" lon="4.80104">
        <ele>208</ele>
        <time>2017-07-06T08:18:37Z</time>
      </trkpt>
      <trkpt lat="45.93939" lon="4.80111">
        <ele>208</ele>
        <time>2017-07-06T08:18:38Z</time>
      </trkpt>
      <trkpt lat="45.9394" lon="4.80118">
        <ele>208</ele>
        <time>2017-07-06T08:18:39Z</time>
      </trkpt>
      <trkpt lat="45.9394" lon="4.80126">
        <ele>208</ele>
        <time>2017-07-06T08:18:40Z</time>
      </trkpt>
      <trkpt lat="45.93941" lon="4.80138">
        <ele>208</ele>
        <time>2017-07-06T08:18:42Z</time>
      </trkpt>
      <trkpt lat="45.93942" lon="4.80145">
        <ele>208</ele>
        <time>2017-07-06T08:18:43Z</time>
      </trkpt>
      <trkpt lat="45.93943" lon="4.80156">
        <ele>208</ele>
        <time>2017-07-06T08:18:45Z</time>
      </trkpt>
      <trkpt lat="45.93944" lon="4.80162">
        <ele>208</ele>
        <time>2017-07-06T08:18:46Z</time>
      </trkpt>
      <trkpt lat="45.93946" lon="4.80174">
        <ele>206</ele>
        <time>2017-07-06T08:18:48Z</time>
      </trkpt>
      <trkpt lat="45.93947" lon="4.8018">
        <ele>206</ele>
        <time>2017-07-06T08:18:49Z</time>
      </trkpt>
      <trkpt lat="45.93948" lon="4.80187">
        <ele>205</ele>
        <time>2017-07-06T08:18:50Z</time>
      </trkpt>
      <trkpt lat="45.9395" lon="4.80194">
        <ele>205</ele>
        <time>2017-07-06T08:18:51Z</time>
      </trkpt>
      <trkpt lat="45.93951" lon="4.802">
        <ele>205</ele>
        <time>2017-07-06T08:18:52Z</time>
      </trkpt>
      <trkpt lat="45.93952" lon="4.80207">
        <ele>205</ele>
        <time>2017-07-06T08:18:53Z</time>
      </trkpt>
      <trkpt lat="45.93953" lon="4.80214">
        <ele>205</ele>
        <time>2017-07-06T08:18:54Z</time>
      </trkpt>
      <trkpt lat="45.93955" lon="4.8022">
        <ele>205</ele>
        <time>2017-07-06T08:18:55Z</time>
      </trkpt>
      <trkpt lat="45.93957" lon="4.80226">
        <ele>205</ele>
        <time>2017-07-06T08:18:56Z</time>
      </trkpt>
      <trkpt lat="45.93959" lon="4.80232">
        <ele>204</ele>
        <time>2017-07-06T08:18:57Z</time>
      </trkpt>
      <trkpt lat="45.93961" lon="4.80238">
        <ele>204</ele>
        <time>2017-07-06T08:18:58Z</time>
      </trkpt>
      <trkpt lat="45.93962" lon="4.80244">
        <ele>204</ele>
        <time>2017-07-06T08:18:59Z</time>
      </trkpt>
      <trkpt lat="45.93964" lon="4.80251">
        <ele>202</ele>
        <time>2017-07-06T08:19:00Z</time>
      </trkpt>
      <trkpt lat="45.93966" lon="4.80257">
        <ele>202</ele>
        <time>2017-07-06T08:19:01Z</time>
      </trkpt>
      <trkpt lat="45.93968" lon="4.80264">
        <ele>202</ele>
        <time>2017-07-06T08:19:02Z</time>
      </trkpt>
      <trkpt lat="45.9397" lon="4.8027">
        <ele>202</ele>
        <time>2017-07-06T08:19:03Z</time>
      </trkpt>
      <trkpt lat="45.93973" lon="4.80282">
        <ele>202</ele>
        <time>2017-07-06T08:19:05Z</time>
      </trkpt>
      <trkpt lat="45.93974" lon="4.80287">
        <ele>203</ele>
        <time>2017-07-06T08:19:06Z</time>
      </trkpt>
      <trkpt lat="45.93977" lon="4.80297">
        <ele>203</ele>
        <time>2017-07-06T08:19:08Z</time>
      </trkpt>
      <trkpt lat="45.93978" lon="4.80302">
        <ele>203</ele>
        <time>2017-07-06T08:19:09Z</time>
      </trkpt>
      <trkpt lat="45.93981" lon="4.80311">
        <ele>203</ele>
        <time>2017-07-06T08:19:11Z</time>
      </trkpt>
      <trkpt lat="45.93983" lon="4.80315">
        <ele>203</ele>
        <time>2017-07-06T08:19:12Z</time>
      </trkpt>
      <trkpt lat="45.93985" lon="4.80323">
        <ele>204</ele>
        <time>2017-07-06T08:19:14Z</time>
      </trkpt>
      <trkpt lat="45.93986" lon="4.80327">
        <ele>204</ele>
        <time>2017-07-06T08:19:15Z</time>
      </trkpt>
      <trkpt lat="45.93989" lon="4.80335">
        <ele>206</ele>
        <time>2017-07-06T08:19:17Z</time>
      </trkpt>
      <trkpt lat="45.9399" lon="4.80339">
        <ele>206</ele>
        <time>2017-07-06T08:19:18Z</time>
      </trkpt>
      <trkpt lat="45.93993" lon="4.80347">
        <ele>206</ele>
        <time>2017-07-06T08:19:20Z</time>
      </trkpt>
      <trkpt lat="45.93994" lon="4.80352">
        <ele>206</ele>
        <time>2017-07-06T08:19:21Z</time>
      </trkpt>
      <trkpt lat="45.93997" lon="4.80363">
        <ele>207</ele>
        <time>2017-07-06T08:19:24Z</time>
      </trkpt>
      <trkpt lat="45.93998" lon="4.80367">
        <ele>207</ele>
        <time>2017-07-06T08:19:25Z</time>
      </trkpt>
      <trkpt lat="45.94001" lon="4.80379">
        <ele>216</ele>
        <time>2017-07-06T08:19:28Z</time>
      </trkpt>
      <trkpt lat="45.94003" lon="4.80383">
        <ele>216</ele>
        <time>2017-07-06T08:19:29Z</time>
      </trkpt>
      <trkpt lat="45.94006" lon="4.80394">
        <ele>217</ele>
        <time>2017-07-06T08:19:32Z</time>
      </trkpt>
      <trkpt lat="45.94007" lon="4.80398">
        <ele>217</ele>
        <time>2017-07-06T08:19:33Z</time>
      </trkpt>
      <trkpt lat="45.9401" lon="4.80409">
        <ele>217</ele>
        <time>2017-07-06T08:19:36Z</time>
      </trkpt>
      <trkpt lat="45.94012" lon="4.80412">
        <ele>217</ele>
        <time>2017-07-06T08:19:37Z</time>
      </trkpt>
      <trkpt lat="45.94014" lon="4.80422">
        <ele>220</ele>
        <time>2017-07-06T08:19:40Z</time>
      </trkpt>
      <trkpt lat="45.94015" lon="4.80426">
        <ele>221</ele>
        <time>2017-07-06T08:19:41Z</time>
      </trkpt>
      <trkpt lat="45.94017" lon="4.80437">
        <ele>222</ele>
        <time>2017-07-06T08:19:44Z</time>
      </trkpt>
      <trkpt lat="45.94017" lon="4.80441">
        <ele>222</ele>
        <time>2017-07-06T08:19:45Z</time>
      </trkpt>
      <trkpt lat="45.94019" lon="4.80453">
        <ele>223</ele>
        <time>2017-07-06T08:19:48Z</time>
      </trkpt>
      <trkpt lat="45.94019" lon="4.80457">
        <ele>223</ele>
        <time>2017-07-06T08:19:49Z</time>
      </trkpt>
      <trkpt lat="45.94019" lon="4.80469">
        <ele>223</ele>
        <time>2017-07-06T08:19:52Z</time>
      </trkpt>
      <trkpt lat="45.9402" lon="4.80473">
        <ele>223</ele>
        <time>2017-07-06T08:19:53Z</time>
      </trkpt>
      <trkpt lat="45.9402" lon="4.80485">
        <ele>223</ele>
        <time>2017-07-06T08:19:56Z</time>
      </trkpt>
      <trkpt lat="45.9402" lon="4.80489">
        <ele>223</ele>
        <time>2017-07-06T08:19:57Z</time>
      </trkpt>
      <trkpt lat="45.9402" lon="4.805">
        <ele>222</ele>
        <time>2017-07-06T08:20:00Z</time>
      </trkpt>
      <trkpt lat="45.9402" lon="4.80504">
        <ele>223</ele>
        <time>2017-07-06T08:20:01Z</time>
      </trkpt>
      <trkpt lat="45.94021" lon="4.80515">
        <ele>224</ele>
        <time>2017-07-06T08:20:04Z</time>
      </trkpt>
      <trkpt lat="45.94021" lon="4.80519">
        <ele>224</ele>
        <time>2017-07-06T08:20:05Z</time>
      </trkpt>
      <trkpt lat="45.94022" lon="4.80528">
        <ele>225</ele>
        <time>2017-07-06T08:20:08Z</time>
      </trkpt>
      <trkpt lat="45.94022" lon="4.80532">
        <ele>225</ele>
        <time>2017-07-06T08:20:09Z</time>
      </trkpt>
      <trkpt lat="45.94022" lon="4.80543">
        <ele>225</ele>
        <time>2017-07-06T08:20:12Z</time>
      </trkpt>
      <trkpt lat="45.94023" lon="4.80547">
        <ele>225</ele>
        <time>2017-07-06T08:20:13Z</time>
      </trkpt>
      <trkpt lat="45.94022" lon="4.80558">
        <ele>224</ele>
        <time>2017-07-06T08:20:16Z</time>
      </trkpt>
      <trkpt lat="45.94022" lon="4.80562">
        <ele>224</ele>
        <time>2017-07-06T08:20:17Z</time>
      </trkpt>
      <trkpt lat="45.94024" lon="4.80573">
        <ele>224</ele>
        <time>2017-07-06T08:20:20Z</time>
      </trkpt>
      <trkpt lat="45.94024" lon="4.80577">
        <ele>224</ele>
        <time>2017-07-06T08:20:21Z</time>
      </trkpt>
      <trkpt lat="45.94025" lon="4.80588">
        <ele>224</ele>
        <time>2017-07-06T08:20:24Z</time>
      </trkpt>
      <trkpt lat="45.94025" lon="4.80592">
        <ele>224</ele>
        <time>2017-07-06T08:20:25Z</time>
      </trkpt>
      <trkpt lat="45.94025" lon="4.80602">
        <ele>224</ele>
        <time>2017-07-06T08:20:28Z</time>
      </trkpt>
      <trkpt lat="45.94024" lon="4.80605">
        <ele>224</ele>
        <time>2017-07-06T08:20:29Z</time>
      </trkpt>
      <trkpt lat="45.94024" lon="4.80617">
        <ele>225</ele>
        <time>2017-07-06T08:20:33Z</time>
      </trkpt>
      <trkpt lat="45.94025" lon="4.8062">
        <ele>225</ele>
        <time>2017-07-06T08:20:34Z</time>
      </trkpt>
      <trkpt lat="45.94025" lon="4.80631">
        <ele>225</ele>
        <time>2017-07-06T08:20:37Z</time>
      </trkpt>
      <trkpt lat="45.94025" lon="4.80635">
        <ele>225</ele>
        <time>2017-07-06T08:20:38Z</time>
      </trkpt>
      <trkpt lat="45.94027" lon="4.80644">
        <ele>224</ele>
        <time>2017-07-06T08:20:41Z</time>
      </trkpt>
      <trkpt lat="45.94027" lon="4.80648">
        <ele>224</ele>
        <time>2017-07-06T08:20:42Z</time>
      </trkpt>
      <trkpt lat="45.94029" lon="4.80659">
        <ele>224</ele>
        <time>2017-07-06T08:20:45Z</time>
      </trkpt>
      <trkpt lat="45.94029" lon="4.80663">
        <ele>224</ele>
        <time>2017-07-06T08:20:46Z</time>
      </trkpt>
      <trkpt lat="45.94031" lon="4.80674">
        <ele>225</ele>
        <time>2017-07-06T08:20:49Z</time>
      </trkpt>
      <trkpt lat="45.94032" lon="4.80678">
        <ele>225</ele>
        <time>2017-07-06T08:20:50Z</time>
      </trkpt>
      <trkpt lat="45.94032" lon="4.80689">
        <ele>225</ele>
        <time>2017-07-06T08:20:53Z</time>
      </trkpt>
      <trkpt lat="45.94032" lon="4.80693">
        <ele>225</ele>
        <time>2017-07-06T08:20:54Z</time>
      </trkpt>
      <trkpt lat="45.94034" lon="4.80704">
        <ele>226</ele>
        <time>2017-07-06T08:20:57Z</time>
      </trkpt>
      <trkpt lat="45.94034" lon="4.80707">
        <ele>226</ele>
        <time>2017-07-06T08:20:58Z</time>
      </trkpt>
      <trkpt lat="45.94036" lon="4.80718">
        <ele>226</ele>
        <time>2017-07-06T08:21:01Z</time>
      </trkpt>
      <trkpt lat="45.94036" lon="4.80722">
        <ele>226</ele>
        <time>2017-07-06T08:21:02Z</time>
      </trkpt>
      <trkpt lat="45.94038" lon="4.80732">
        <ele>226</ele>
        <time>2017-07-06T08:21:05Z</time>
      </trkpt>
      <trkpt lat="45.94038" lon="4.80735">
        <ele>226</ele>
        <time>2017-07-06T08:21:06Z</time>
      </trkpt>
      <trkpt lat="45.94039" lon="4.80745">
        <ele>227</ele>
        <time>2017-07-06T08:21:09Z</time>
      </trkpt>
      <trkpt lat="45.94039" lon="4.80748">
        <ele>227</ele>
        <time>2017-07-06T08:21:10Z</time>
      </trkpt>
      <trkpt lat="45.94041" lon="4.80759">
        <ele>228</ele>
        <time>2017-07-06T08:21:13Z</time>
      </trkpt>
      <trkpt lat="45.94041" lon="4.80762">
        <ele>228</ele>
        <time>2017-07-06T08:21:14Z</time>
      </trkpt>
      <trkpt lat="45.94042" lon="4.80773">
        <ele>228</ele>
        <time>2017-07-06T08:21:17Z</time>
      </trkpt>
      <trkpt lat="45.94042" lon="4.80776">
        <ele>228</ele>
        <time>2017-07-06T08:21:18Z</time>
      </trkpt>
      <trkpt lat="45.94044" lon="4.80788">
        <ele>228</ele>
        <time>2017-07-06T08:21:21Z</time>
      </trkpt>
      <trkpt lat="45.94044" lon="4.80791">
        <ele>228</ele>
        <time>2017-07-06T08:21:22Z</time>
      </trkpt>
      <trkpt lat="45.94044" lon="4.80803">
        <ele>228</ele>
        <time>2017-07-06T08:21:25Z</time>
      </trkpt>
      <trkpt lat="45.94045" lon="4.80806">
        <ele>228</ele>
        <time>2017-07-06T08:21:26Z</time>
      </trkpt>
      <trkpt lat="45.94046" lon="4.80817">
        <ele>229</ele>
        <time>2017-07-06T08:21:29Z</time>
      </trkpt>
      <trkpt lat="45.94047" lon="4.8082">
        <ele>229</ele>
        <time>2017-07-06T08:21:30Z</time>
      </trkpt>
      <trkpt lat="45.94048" lon="4.80832">
        <ele>229</ele>
        <time>2017-07-06T08:21:33Z</time>
      </trkpt>
      <trkpt lat="45.94048" lon="4.80835">
        <ele>230</ele>
        <time>2017-07-06T08:21:34Z</time>
      </trkpt>
      <trkpt lat="45.9405" lon="4.80846">
        <ele>230</ele>
        <time>2017-07-06T08:21:37Z</time>
      </trkpt>
      <trkpt lat="45.9405" lon="4.8085">
        <ele>230</ele>
        <time>2017-07-06T08:21:38Z</time>
      </trkpt>
      <trkpt lat="45.94052" lon="4.80862">
        <ele>230</ele>
        <time>2017-07-06T08:21:41Z</time>
      </trkpt>
      <trkpt lat="45.94052" lon="4.80866">
        <ele>230</ele>
        <time>2017-07-06T08:21:42Z</time>
      </trkpt>
      <trkpt lat="45.94053" lon="4.80877">
        <ele>230</ele>
        <time>2017-07-06T08:21:45Z</time>
      </trkpt>
      <trkpt lat="45.94053" lon="4.8088">
        <ele>230</ele>
        <time>2017-07-06T08:21:46Z</time>
      </trkpt>
      <trkpt lat="45.94055" lon="4.80891">
        <ele>230</ele>
        <time>2017-07-06T08:21:49Z</time>
      </trkpt>
      <trkpt lat="45.94056" lon="4.80894">
        <ele>231</ele>
        <time>2017-07-06T08:21:50Z</time>
      </trkpt>
      <trkpt lat="45.94057" lon="4.80905">
        <ele>231</ele>
        <time>2017-07-06T08:21:53Z</time>
      </trkpt>
      <trkpt lat="45.94058" lon="4.80908">
        <ele>232</ele>
        <time>2017-07-06T08:21:54Z</time>
      </trkpt>
      <trkpt lat="45.9406" lon="4.80919">
        <ele>233</ele>
        <time>2017-07-06T08:21:57Z</time>
      </trkpt>
      <trkpt lat="45.9406" lon="4.80922">
        <ele>233</ele>
        <time>2017-07-06T08:21:58Z</time>
      </trkpt>
      <trkpt lat="45.94061" lon="4.80934">
        <ele>232</ele>
        <time>2017-07-06T08:22:02Z</time>
      </trkpt>
      <trkpt lat="45.94061" lon="4.80938">
        <ele>232</ele>
        <time>2017-07-06T08:22:03Z</time>
      </trkpt>
      <trkpt lat="45.94063" lon="4.80948">
        <ele>232</ele>
        <time>2017-07-06T08:22:06Z</time>
      </trkpt>
      <trkpt lat="45.94063" lon="4.80951">
        <ele>232</ele>
        <time>2017-07-06T08:22:07Z</time>
      </trkpt>
      <trkpt lat="45.94063" lon="4.80964">
        <ele>232</ele>
        <time>2017-07-06T08:22:11Z</time>
      </trkpt>
      <trkpt lat="45.94064" lon="4.80967">
        <ele>232</ele>
        <time>2017-07-06T08:22:12Z</time>
      </trkpt>
      <trkpt lat="45.94066" lon="4.80979">
        <ele>233</ele>
        <time>2017-07-06T08:22:16Z</time>
      </trkpt>
      <trkpt lat="45.94067" lon="4.80982">
        <ele>234</ele>
        <time>2017-07-06T08:22:17Z</time>
      </trkpt>
      <trkpt lat="45.94068" lon="4.80992">
        <ele>235</ele>
        <time>2017-07-06T08:22:20Z</time>
      </trkpt>
      <trkpt lat="45.94069" lon="4.80996">
        <ele>235</ele>
        <time>2017-07-06T08:22:21Z</time>
      </trkpt>
      <trkpt lat="45.94071" lon="4.81007">
        <ele>236</ele>
        <time>2017-07-06T08:22:24Z</time>
      </trkpt>
      <trkpt lat="45.94072" lon="4.8101">
        <ele>235</ele>
        <time>2017-07-06T08:22:25Z</time>
      </trkpt>
      <trkpt lat="45.94074" lon="4.8102">
        <ele>235</ele>
        <time>2017-07-06T08:22:28Z</time>
      </trkpt>
      <trkpt lat="45.94075" lon="4.81023">
        <ele>234</ele>
        <time>2017-07-06T08:22:29Z</time>
      </trkpt>
      <trkpt lat="45.94077" lon="4.81033">
        <ele>234</ele>
        <time>2017-07-06T08:22:32Z</time>
      </trkpt>
      <trkpt lat="45.94078" lon="4.81036">
        <ele>234</ele>
        <time>2017-07-06T08:22:33Z</time>
      </trkpt>
      <trkpt lat="45.94081" lon="4.81046">
        <ele>233</ele>
        <time>2017-07-06T08:22:36Z</time>
      </trkpt>
      <trkpt lat="45.94082" lon="4.81049">
        <ele>233</ele>
        <time>2017-07-06T08:22:37Z</time>
      </trkpt>
      <trkpt lat="45.94085" lon="4.81058">
        <ele>243</ele>
        <time>2017-07-06T08:22:40Z</time>
      </trkpt>
      <trkpt lat="45.94087" lon="4.81061">
        <ele>242</ele>
        <time>2017-07-06T08:22:41Z</time>
      </trkpt>
      <trkpt lat="45.94091" lon="4.81069">
        <ele>241</ele>
        <time>2017-07-06T08:22:44Z</time>
      </trkpt>
      <trkpt lat="45.94092" lon="4.81072">
        <ele>241</ele>
        <time>2017-07-06T08:22:45Z</time>
      </trkpt>
      <trkpt lat="45.94095" lon="4.81082">
        <ele>241</ele>
        <time>2017-07-06T08:22:49Z</time>
      </trkpt>
      <trkpt lat="45.94097" lon="4.81085">
        <ele>240</ele>
        <time>2017-07-06T08:22:50Z</time>
      </trkpt>
      <trkpt lat="45.94102" lon="4.81092">
        <ele>241</ele>
        <time>2017-07-06T08:22:53Z</time>
      </trkpt>
      <trkpt lat="45.94103" lon="4.81095">
        <ele>241</ele>
        <time>2017-07-06T08:22:54Z</time>
      </trkpt>
      <trkpt lat="45.94107" lon="4.81103">
        <ele>242</ele>
        <time>2017-07-06T08:22:57Z</time>
      </trkpt>
      <trkpt lat="45.94109" lon="4.81106">
        <ele>242</ele>
        <time>2017-07-06T08:22:58Z</time>
      </trkpt>
      <trkpt lat="45.94112" lon="4.81115">
        <ele>242</ele>
        <time>2017-07-06T08:23:01Z</time>
      </trkpt>
      <trkpt lat="45.94113" lon="4.81117">
        <ele>242</ele>
        <time>2017-07-06T08:23:02Z</time>
      </trkpt>
      <trkpt lat="45.94118" lon="4.81126">
        <ele>243</ele>
        <time>2017-07-06T08:23:05Z</time>
      </trkpt>
      <trkpt lat="45.94119" lon="4.81128">
        <ele>243</ele>
        <time>2017-07-06T08:23:06Z</time>
      </trkpt>
      <trkpt lat="45.94125" lon="4.81138">
        <ele>243</ele>
        <time>2017-07-06T08:23:10Z</time>
      </trkpt>
      <trkpt lat="45.94126" lon="4.8114">
        <ele>243</ele>
        <time>2017-07-06T08:23:11Z</time>
      </trkpt>
      <trkpt lat="45.94131" lon="4.81149">
        <ele>243</ele>
        <time>2017-07-06T08:23:14Z</time>
      </trkpt>
      <trkpt lat="45.94132" lon="4.81152">
        <ele>244</ele>
        <time>2017-07-06T08:23:15Z</time>
      </trkpt>
      <trkpt lat="45.94137" lon="4.81163">
        <ele>244</ele>
        <time>2017-07-06T08:23:19Z</time>
      </trkpt>
      <trkpt lat="45.94138" lon="4.81166">
        <ele>244</ele>
        <time>2017-07-06T08:23:20Z</time>
      </trkpt>
      <trkpt lat="45.94142" lon="4.81175">
        <ele>244</ele>
        <time>2017-07-06T08:23:23Z</time>
      </trkpt>
      <trkpt lat="45.94144" lon="4.81178">
        <ele>244</ele>
        <time>2017-07-06T08:23:24Z</time>
      </trkpt>
      <trkpt lat="45.94147" lon="4.81187">
        <ele>244</ele>
        <time>2017-07-06T08:23:27Z</time>
      </trkpt>
      <trkpt lat="45.94148" lon="4.8119">
        <ele>244</ele>
        <time>2017-07-06T08:23:28Z</time>
      </trkpt>
      <trkpt lat="45.9415" lon="4.812">
        <ele>244</ele>
        <time>2017-07-06T08:23:31Z</time>
      </trkpt>
      <trkpt lat="45.94151" lon="4.81203">
        <ele>244</ele>
        <time>2017-07-06T08:23:32Z</time>
      </trkpt>
      <trkpt lat="45.94154" lon="4.81214">
        <ele>245</ele>
        <time>2017-07-06T08:23:36Z</time>
      </trkpt>
      <trkpt lat="45.94155" lon="4.81217">
        <ele>245</ele>
        <time>2017-07-06T08:23:37Z</time>
      </trkpt>
      <trkpt lat="45.94157" lon="4.81227">
        <ele>246</ele>
        <time>2017-07-06T08:23:40Z</time>
      </trkpt>
      <trkpt lat="45.94158" lon="4.81231">
        <ele>246</ele>
        <time>2017-07-06T08:23:41Z</time>
      </trkpt>
      <trkpt lat="45.9416" lon="4.81242">
        <ele>247</ele>
        <time>2017-07-06T08:23:44Z</time>
      </trkpt>
      <trkpt lat="45.9416" lon="4.81245">
        <ele>248</ele>
        <time>2017-07-06T08:23:45Z</time>
      </trkpt>
      <trkpt lat="45.94161" lon="4.81255">
        <ele>249</ele>
        <time>2017-07-06T08:23:48Z</time>
      </trkpt>
      <trkpt lat="45.94162" lon="4.81259">
        <ele>248</ele>
        <time>2017-07-06T08:23:49Z</time>
      </trkpt>
      <trkpt lat="45.94163" lon="4.81271">
        <ele>247</ele>
        <time>2017-07-06T08:23:53Z</time>
      </trkpt>
      <trkpt lat="45.94163" lon="4.81275">
        <ele>247</ele>
        <time>2017-07-06T08:23:54Z</time>
      </trkpt>
      <trkpt lat="45.94163" lon="4.81287">
        <ele>247</ele>
        <time>2017-07-06T08:23:57Z</time>
      </trkpt>
      <trkpt lat="45.94164" lon="4.81291">
        <ele>247</ele>
        <time>2017-07-06T08:23:58Z</time>
      </trkpt>
      <trkpt lat="45.94165" lon="4.81304">
        <ele>248</ele>
        <time>2017-07-06T08:24:02Z</time>
      </trkpt>
      <trkpt lat="45.94165" lon="4.81307">
        <ele>248</ele>
        <time>2017-07-06T08:24:03Z</time>
      </trkpt>
      <trkpt lat="45.94166" lon="4.81318">
        <ele>249</ele>
        <time>2017-07-06T08:24:06Z</time>
      </trkpt>
      <trkpt lat="45.94166" lon="4.81321">
        <ele>249</ele>
        <time>2017-07-06T08:24:07Z</time>
      </trkpt>
      <trkpt lat="45.94166" lon="4.81332">
        <ele>251</ele>
        <time>2017-07-06T08:24:10Z</time>
      </trkpt>
      <trkpt lat="45.94165" lon="4.81335">
        <ele>252</ele>
        <time>2017-07-06T08:24:11Z</time>
      </trkpt>
      <trkpt lat="45.94165" lon="4.81346">
        <ele>251</ele>
        <time>2017-07-06T08:24:14Z</time>
      </trkpt>
      <trkpt lat="45.94164" lon="4.8135">
        <ele>251</ele>
        <time>2017-07-06T08:24:15Z</time>
      </trkpt>
      <trkpt lat="45.94163" lon="4.81361">
        <ele>251</ele>
        <time>2017-07-06T08:24:18Z</time>
      </trkpt>
      <trkpt lat="45.94162" lon="4.81365">
        <ele>251</ele>
        <time>2017-07-06T08:24:19Z</time>
      </trkpt>
      <trkpt lat="45.94162" lon="4.81376">
        <ele>251</ele>
        <time>2017-07-06T08:24:22Z</time>
      </trkpt>
      <trkpt lat="45.94162" lon="4.8138">
        <ele>251</ele>
        <time>2017-07-06T08:24:23Z</time>
      </trkpt>
      <trkpt lat="45.94161" lon="4.81392">
        <ele>252</ele>
        <time>2017-07-06T08:24:27Z</time>
      </trkpt>
      <trkpt lat="45.9416" lon="4.81394">
        <ele>252</ele>
        <time>2017-07-06T08:24:28Z</time>
      </trkpt>
      <trkpt lat="45.9416" lon="4.81406">
        <ele>253</ele>
        <time>2017-07-06T08:24:31Z</time>
      </trkpt>
      <trkpt lat="45.94159" lon="4.81409">
        <ele>254</ele>
        <time>2017-07-06T08:24:32Z</time>
      </trkpt>
      <trkpt lat="45.94158" lon="4.8142">
        <ele>256</ele>
        <time>2017-07-06T08:24:35Z</time>
      </trkpt>
      <trkpt lat="45.94157" lon="4.81424">
        <ele>256</ele>
        <time>2017-07-06T08:24:36Z</time>
      </trkpt>
      <trkpt lat="45.94156" lon="4.81434">
        <ele>256</ele>
        <time>2017-07-06T08:24:39Z</time>
      </trkpt>
      <trkpt lat="45.94156" lon="4.81437">
        <ele>256</ele>
        <time>2017-07-06T08:24:40Z</time>
      </trkpt>
      <trkpt lat="45.94155" lon="4.81448">
        <ele>257</ele>
        <time>2017-07-06T08:24:43Z</time>
      </trkpt>
      <trkpt lat="45.94154" lon="4.81452">
        <ele>257</ele>
        <time>2017-07-06T08:24:44Z</time>
      </trkpt>
      <trkpt lat="45.94153" lon="4.81461">
        <ele>257</ele>
        <time>2017-07-06T08:24:46Z</time>
      </trkpt>
      <trkpt lat="45.94153" lon="4.81466">
        <ele>258</ele>
        <time>2017-07-06T08:24:47Z</time>
      </trkpt>
      <trkpt lat="45.94152" lon="4.81475">
        <ele>258</ele>
        <time>2017-07-06T08:24:50Z</time>
      </trkpt>
      <trkpt lat="45.94153" lon="4.81479">
        <ele>259</ele>
        <time>2017-07-06T08:24:51Z</time>
      </trkpt>
      <trkpt lat="45.94152" lon="4.8149">
        <ele>260</ele>
        <time>2017-07-06T08:24:54Z</time>
      </trkpt>
      <trkpt lat="45.94152" lon="4.81493">
        <ele>260</ele>
        <time>2017-07-06T08:24:55Z</time>
      </trkpt>
      <trkpt lat="45.94151" lon="4.81505">
        <ele>263</ele>
        <time>2017-07-06T08:24:58Z</time>
      </trkpt>
      <trkpt lat="45.94151" lon="4.81508">
        <ele>263</ele>
        <time>2017-07-06T08:24:59Z</time>
      </trkpt>
      <trkpt lat="45.94151" lon="4.81518">
        <ele>263</ele>
        <time>2017-07-06T08:25:02Z</time>
      </trkpt>
      <trkpt lat="45.94151" lon="4.81521">
        <ele>263</ele>
        <time>2017-07-06T08:25:03Z</time>
      </trkpt>
      <trkpt lat="45.94151" lon="4.81532">
        <ele>264</ele>
        <time>2017-07-06T08:25:06Z</time>
      </trkpt>
      <trkpt lat="45.94151" lon="4.81537">
        <ele>264</ele>
        <time>2017-07-06T08:25:07Z</time>
      </trkpt>
      <trkpt lat="45.94151" lon="4.81547">
        <ele>264</ele>
        <time>2017-07-06T08:25:10Z</time>
      </trkpt>
      <trkpt lat="45.94151" lon="4.81551">
        <ele>264</ele>
        <time>2017-07-06T08:25:11Z</time>
      </trkpt>
      <trkpt lat="45.94153" lon="4.81562">
        <ele>265</ele>
        <time>2017-07-06T08:25:14Z</time>
      </trkpt>
      <trkpt lat="45.94153" lon="4.81566">
        <ele>265</ele>
        <time>2017-07-06T08:25:15Z</time>
      </trkpt>
      <trkpt lat="45.94153" lon="4.81578">
        <ele>266</ele>
        <time>2017-07-06T08:25:18Z</time>
      </trkpt>
      <trkpt lat="45.94153" lon="4.81582">
        <ele>266</ele>
        <time>2017-07-06T08:25:19Z</time>
      </trkpt>
      <trkpt lat="45.94155" lon="4.81593">
        <ele>267</ele>
        <time>2017-07-06T08:25:22Z</time>
      </trkpt>
      <trkpt lat="45.94155" lon="4.81597">
        <ele>267</ele>
        <time>2017-07-06T08:25:23Z</time>
      </trkpt>
      <trkpt lat="45.94158" lon="4.81609">
        <ele>267</ele>
        <time>2017-07-06T08:25:26Z</time>
      </trkpt>
      <trkpt lat="45.94158" lon="4.81613">
        <ele>267</ele>
        <time>2017-07-06T08:25:27Z</time>
      </trkpt>
      <trkpt lat="45.9416" lon="4.81621">
        <ele>268</ele>
        <time>2017-07-06T08:25:29Z</time>
      </trkpt>
      <trkpt lat="45.94161" lon="4.81625">
        <ele>268</ele>
        <time>2017-07-06T08:25:30Z</time>
      </trkpt>
      <trkpt lat="45.94163" lon="4.81633">
        <ele>268</ele>
        <time>2017-07-06T08:25:32Z</time>
      </trkpt>
      <trkpt lat="45.94164" lon="4.81637">
        <ele>268</ele>
        <time>2017-07-06T08:25:33Z</time>
      </trkpt>
      <trkpt lat="45.94167" lon="4.81649">
        <ele>268</ele>
        <time>2017-07-06T08:25:36Z</time>
      </trkpt>
      <trkpt lat="45.94168" lon="4.81653">
        <ele>268</ele>
        <time>2017-07-06T08:25:37Z</time>
      </trkpt>
      <trkpt lat="45.94171" lon="4.81664">
        <ele>269</ele>
        <time>2017-07-06T08:25:40Z</time>
      </trkpt>
      <trkpt lat="45.94172" lon="4.81668">
        <ele>268</ele>
        <time>2017-07-06T08:25:41Z</time>
      </trkpt>
      <trkpt lat="45.94176" lon="4.81679">
        <ele>268</ele>
        <time>2017-07-06T08:25:44Z</time>
      </trkpt>
      <trkpt lat="45.94177" lon="4.81683">
        <ele>268</ele>
        <time>2017-07-06T08:25:45Z</time>
      </trkpt>
      <trkpt lat="45.94179" lon="4.81692">
        <ele>267</ele>
        <time>2017-07-06T08:25:47Z</time>
      </trkpt>
      <trkpt lat="45.9418" lon="4.81695">
        <ele>267</ele>
        <time>2017-07-06T08:25:48Z</time>
      </trkpt>
      <trkpt lat="45.94185" lon="4.81706">
        <ele>267</ele>
        <time>2017-07-06T08:25:51Z</time>
      </trkpt>
      <trkpt lat="45.94186" lon="4.8171">
        <ele>267</ele>
        <time>2017-07-06T08:25:52Z</time>
      </trkpt>
      <trkpt lat="45.94186" lon="4.81723">
        <ele>267</ele>
        <time>2017-07-06T08:25:55Z</time>
      </trkpt>
      <trkpt lat="45.94185" lon="4.81727">
        <ele>267</ele>
        <time>2017-07-06T08:25:56Z</time>
      </trkpt>
      <trkpt lat="45.94186" lon="4.8174">
        <ele>267</ele>
        <time>2017-07-06T08:25:59Z</time>
      </trkpt>
      <trkpt lat="45.94187" lon="4.81744">
        <ele>267</ele>
        <time>2017-07-06T08:26:00Z</time>
      </trkpt>
      <trkpt lat="45.94191" lon="4.81754">
        <ele>266</ele>
        <time>2017-07-06T08:26:03Z</time>
      </trkpt>
      <trkpt lat="45.94193" lon="4.81758">
        <ele>266</ele>
        <time>2017-07-06T08:26:04Z</time>
      </trkpt>
      <trkpt lat="45.94195" lon="4.81767">
        <ele>266</ele>
        <time>2017-07-06T08:26:06Z</time>
      </trkpt>
      <trkpt lat="45.94196" lon="4.81771">
        <ele>266</ele>
        <time>2017-07-06T08:26:07Z</time>
      </trkpt>
      <trkpt lat="45.94197" lon="4.81783">
        <ele>266</ele>
        <time>2017-07-06T08:26:10Z</time>
      </trkpt>
      <trkpt lat="45.94197" lon="4.81787">
        <ele>266</ele>
        <time>2017-07-06T08:26:11Z</time>
      </trkpt>
      <trkpt lat="45.94198" lon="4.81797">
        <ele>266</ele>
        <time>2017-07-06T08:26:13Z</time>
      </trkpt>
      <trkpt lat="45.94198" lon="4.81802">
        <ele>266</ele>
        <time>2017-07-06T08:26:14Z</time>
      </trkpt>
      <trkpt lat="45.94198" lon="4.81812">
        <ele>266</ele>
        <time>2017-07-06T08:26:16Z</time>
      </trkpt>
      <trkpt lat="45.94199" lon="4.81816">
        <ele>266</ele>
        <time>2017-07-06T08:26:17Z</time>
      </trkpt>
      <trkpt lat="45.94201" lon="4.81826">
        <ele>266</ele>
        <time>2017-07-06T08:26:19Z</time>
      </trkpt>
      <trkpt lat="45.94201" lon="4.8183">
        <ele>266</ele>
        <time>2017-07-06T08:26:20Z</time>
      </trkpt>
      <trkpt lat="45.94202" lon="4.81839">
        <ele>266</ele>
        <time>2017-07-06T08:26:22Z</time>
      </trkpt>
      <trkpt lat="45.94203" lon="4.81843">
        <ele>266</ele>
        <time>2017-07-06T08:26:23Z</time>
      </trkpt>
      <trkpt lat="45.94204" lon="4.81853">
        <ele>266</ele>
        <time>2017-07-06T08:26:25Z</time>
      </trkpt>
      <trkpt lat="45.94205" lon="4.81858">
        <ele>266</ele>
        <time>2017-07-06T08:26:26Z</time>
      </trkpt>
      <trkpt lat="45.94207" lon="4.81867">
        <ele>265</ele>
        <time>2017-07-06T08:26:28Z</time>
      </trkpt>
      <trkpt lat="45.94209" lon="4.81872">
        <ele>265</ele>
        <time>2017-07-06T08:26:29Z</time>
      </trkpt>
      <trkpt lat="45.94211" lon="4.81881">
        <ele>265</ele>
        <time>2017-07-06T08:26:31Z</time>
      </trkpt>
      <trkpt lat="45.94212" lon="4.81886">
        <ele>265</ele>
        <time>2017-07-06T08:26:32Z</time>
      </trkpt>
      <trkpt lat="45.94214" lon="4.81897">
        <ele>265</ele>
        <time>2017-07-06T08:26:34Z</time>
      </trkpt>
      <trkpt lat="45.94215" lon="4.81902">
        <ele>265</ele>
        <time>2017-07-06T08:26:35Z</time>
      </trkpt>
      <trkpt lat="45.94217" lon="4.81913">
        <ele>265</ele>
        <time>2017-07-06T08:26:37Z</time>
      </trkpt>
      <trkpt lat="45.94218" lon="4.81918">
        <ele>264</ele>
        <time>2017-07-06T08:26:38Z</time>
      </trkpt>
      <trkpt lat="45.9422" lon="4.81929">
        <ele>264</ele>
        <time>2017-07-06T08:26:40Z</time>
      </trkpt>
      <trkpt lat="45.94221" lon="4.81934">
        <ele>264</ele>
        <time>2017-07-06T08:26:41Z</time>
      </trkpt>
      <trkpt lat="45.94223" lon="4.81944">
        <ele>264</ele>
        <time>2017-07-06T08:26:43Z</time>
      </trkpt>
      <trkpt lat="45.94224" lon="4.8195">
        <ele>264</ele>
        <time>2017-07-06T08:26:44Z</time>
      </trkpt>
      <trkpt lat="45.94226" lon="4.81962">
        <ele>264</ele>
        <time>2017-07-06T08:26:46Z</time>
      </trkpt>
      <trkpt lat="45.94227" lon="4.81968">
        <ele>264</ele>
        <time>2017-07-06T08:26:47Z</time>
      </trkpt>
      <trkpt lat="45.9423" lon="4.81979">
        <ele>264</ele>
        <time>2017-07-06T08:26:49Z</time>
      </trkpt>
      <trkpt lat="45.94231" lon="4.81984">
        <ele>263</ele>
        <time>2017-07-06T08:26:50Z</time>
      </trkpt>
      <trkpt lat="45.94233" lon="4.81995">
        <ele>263</ele>
        <time>2017-07-06T08:26:52Z</time>
      </trkpt>
      <trkpt lat="45.94234" lon="4.82">
        <ele>263</ele>
        <time>2017-07-06T08:26:53Z</time>
      </trkpt>
      <trkpt lat="45.94237" lon="4.8201">
        <ele>263</ele>
        <time>2017-07-06T08:26:55Z</time>
      </trkpt>
      <trkpt lat="45.94238" lon="4.82016">
        <ele>263</ele>
        <time>2017-07-06T08:26:56Z</time>
      </trkpt>
      <trkpt lat="45.9424" lon="4.82028">
        <ele>263</ele>
        <time>2017-07-06T08:26:58Z</time>
      </trkpt>
      <trkpt lat="45.94241" lon="4.82034">
        <ele>263</ele>
        <time>2017-07-06T08:26:59Z</time>
      </trkpt>
      <trkpt lat="45.94242" lon="4.8204">
        <ele>263</ele>
        <time>2017-07-06T08:27:00Z</time>
      </trkpt>
      <trkpt lat="45.94244" lon="4.82047">
        <ele>263</ele>
        <time>2017-07-06T08:27:01Z</time>
      </trkpt>
      <trkpt lat="45.94245" lon="4.82053">
        <ele>263</ele>
        <time>2017-07-06T08:27:02Z</time>
      </trkpt>
      <trkpt lat="45.94246" lon="4.82059">
        <ele>263</ele>
        <time>2017-07-06T08:27:03Z</time>
      </trkpt>
      <trkpt lat="45.94248" lon="4.82066">
        <ele>263</ele>
        <time>2017-07-06T08:27:04Z</time>
      </trkpt>
      <trkpt lat="45.94249" lon="4.82072">
        <ele>263</ele>
        <time>2017-07-06T08:27:05Z</time>
      </trkpt>
      <trkpt lat="45.94252" lon="4.82084">
        <ele>262</ele>
        <time>2017-07-06T08:27:07Z</time>
      </trkpt>
      <trkpt lat="45.94253" lon="4.8209">
        <ele>262</ele>
        <time>2017-07-06T08:27:08Z</time>
      </trkpt>
      <trkpt lat="45.94254" lon="4.82096">
        <ele>262</ele>
        <time>2017-07-06T08:27:09Z</time>
      </trkpt>
      <trkpt lat="45.94256" lon="4.82103">
        <ele>262</ele>
        <time>2017-07-06T08:27:10Z</time>
      </trkpt>
      <trkpt lat="45.94258" lon="4.82115">
        <ele>263</ele>
        <time>2017-07-06T08:27:12Z</time>
      </trkpt>
      <trkpt lat="45.94259" lon="4.82121">
        <ele>263</ele>
        <time>2017-07-06T08:27:13Z</time>
      </trkpt>
      <trkpt lat="45.94262" lon="4.82132">
        <ele>263</ele>
        <time>2017-07-06T08:27:15Z</time>
      </trkpt>
      <trkpt lat="45.94263" lon="4.82138">
        <ele>263</ele>
        <time>2017-07-06T08:27:16Z</time>
      </trkpt>
      <trkpt lat="45.94264" lon="4.82144">
        <ele>263</ele>
        <time>2017-07-06T08:27:17Z</time>
      </trkpt>
      <trkpt lat="45.94266" lon="4.82151">
        <ele>263</ele>
        <time>2017-07-06T08:27:18Z</time>
      </trkpt>
      <trkpt lat="45.94267" lon="4.82158">
        <ele>263</ele>
        <time>2017-07-06T08:27:19Z</time>
      </trkpt>
      <trkpt lat="45.94269" lon="4.82166">
        <ele>263</ele>
        <time>2017-07-06T08:27:20Z</time>
      </trkpt>
      <trkpt lat="45.9427" lon="4.82173">
        <ele>264</ele>
        <time>2017-07-06T08:27:21Z</time>
      </trkpt>
      <trkpt lat="45.94272" lon="4.8218">
        <ele>264</ele>
        <time>2017-07-06T08:27:22Z</time>
      </trkpt>
      <trkpt lat="45.94273" lon="4.82186">
        <ele>264</ele>
        <time>2017-07-06T08:27:23Z</time>
      </trkpt>
      <trkpt lat="45.94274" lon="4.82193">
        <ele>264</ele>
        <time>2017-07-06T08:27:24Z</time>
      </trkpt>
      <trkpt lat="45.94275" lon="4.822">
        <ele>264</ele>
        <time>2017-07-06T08:27:25Z</time>
      </trkpt>
      <trkpt lat="45.94276" lon="4.82206">
        <ele>264</ele>
        <time>2017-07-06T08:27:26Z</time>
      </trkpt>
      <trkpt lat="45.94277" lon="4.82218">
        <ele>264</ele>
        <time>2017-07-06T08:27:28Z</time>
      </trkpt>
      <trkpt lat="45.94278" lon="4.82224">
        <ele>264</ele>
        <time>2017-07-06T08:27:29Z</time>
      </trkpt>
      <trkpt lat="45.94278" lon="4.82231">
        <ele>264</ele>
        <time>2017-07-06T08:27:30Z</time>
      </trkpt>
      <trkpt lat="45.94279" lon="4.82238">
        <ele>264</ele>
        <time>2017-07-06T08:27:31Z</time>
      </trkpt>
      <trkpt lat="45.94279" lon="4.82245">
        <ele>264</ele>
        <time>2017-07-06T08:27:32Z</time>
      </trkpt>
      <trkpt lat="45.94279" lon="4.82253">
        <ele>265</ele>
        <time>2017-07-06T08:27:33Z</time>
      </trkpt>
      <trkpt lat="45.9428" lon="4.8226">
        <ele>265</ele>
        <time>2017-07-06T08:27:34Z</time>
      </trkpt>
      <trkpt lat="45.9428" lon="4.82267">
        <ele>265</ele>
        <time>2017-07-06T08:27:35Z</time>
      </trkpt>
      <trkpt lat="45.9428" lon="4.82274">
        <ele>265</ele>
        <time>2017-07-06T08:27:36Z</time>
      </trkpt>
      <trkpt lat="45.9428" lon="4.8228">
        <ele>265</ele>
        <time>2017-07-06T08:27:37Z</time>
      </trkpt>
      <trkpt lat="45.9428" lon="4.82287">
        <ele>265</ele>
        <time>2017-07-06T08:27:38Z</time>
      </trkpt>
      <trkpt lat="45.94281" lon="4.82294">
        <ele>265</ele>
        <time>2017-07-06T08:27:39Z</time>
      </trkpt>
      <trkpt lat="45.94281" lon="4.823">
        <ele>265</ele>
        <time>2017-07-06T08:27:40Z</time>
      </trkpt>
      <trkpt lat="45.94281" lon="4.82308">
        <ele>265</ele>
        <time>2017-07-06T08:27:41Z</time>
      </trkpt>
      <trkpt lat="45.94282" lon="4.82315">
        <ele>265</ele>
        <time>2017-07-06T08:27:42Z</time>
      </trkpt>
      <trkpt lat="45.94282" lon="4.82323">
        <ele>265</ele>
        <time>2017-07-06T08:27:43Z</time>
      </trkpt>
      <trkpt lat="45.94283" lon="4.82329">
        <ele>265</ele>
        <time>2017-07-06T08:27:44Z</time>
      </trkpt>
      <trkpt lat="45.94283" lon="4.82336">
        <ele>264</ele>
        <time>2017-07-06T08:27:45Z</time>
      </trkpt>
      <trkpt lat="45.94284" lon="4.82348">
        <ele>264</ele>
        <time>2017-07-06T08:27:47Z</time>
      </trkpt>
      <trkpt lat="45.94284" lon="4.82354">
        <ele>264</ele>
        <time>2017-07-06T08:27:48Z</time>
      </trkpt>
      <trkpt lat="45.94285" lon="4.82367">
        <ele>264</ele>
        <time>2017-07-06T08:27:50Z</time>
      </trkpt>
      <trkpt lat="45.94285" lon="4.82373">
        <ele>264</ele>
        <time>2017-07-06T08:27:51Z</time>
      </trkpt>
      <trkpt lat="45.94286" lon="4.8238">
        <ele>264</ele>
        <time>2017-07-06T08:27:52Z</time>
      </trkpt>
      <trkpt lat="45.94286" lon="4.82388">
        <ele>264</ele>
        <time>2017-07-06T08:27:53Z</time>
      </trkpt>
      <trkpt lat="45.94287" lon="4.82395">
        <ele>264</ele>
        <time>2017-07-06T08:27:54Z</time>
      </trkpt>
      <trkpt lat="45.94287" lon="4.82402">
        <ele>264</ele>
        <time>2017-07-06T08:27:55Z</time>
      </trkpt>
      <trkpt lat="45.94288" lon="4.82408">
        <ele>264</ele>
        <time>2017-07-06T08:27:56Z</time>
      </trkpt>
      <trkpt lat="45.94288" lon="4.82415">
        <ele>264</ele>
        <time>2017-07-06T08:27:57Z</time>
      </trkpt>
      <trkpt lat="45.94289" lon="4.82427">
        <ele>264</ele>
        <time>2017-07-06T08:27:59Z</time>
      </trkpt>
      <trkpt lat="45.94289" lon="4.82433">
        <ele>264</ele>
        <time>2017-07-06T08:28:00Z</time>
      </trkpt>
      <trkpt lat="45.94289" lon="4.82446">
        <ele>264</ele>
        <time>2017-07-06T08:28:02Z</time>
      </trkpt>
      <trkpt lat="45.9429" lon="4.82452">
        <ele>264</ele>
        <time>2017-07-06T08:28:03Z</time>
      </trkpt>
      <trkpt lat="45.9429" lon="4.82459">
        <ele>264</ele>
        <time>2017-07-06T08:28:04Z</time>
      </trkpt>
      <trkpt lat="45.9429" lon="4.82465">
        <ele>264</ele>
        <time>2017-07-06T08:28:05Z</time>
      </trkpt>
      <trkpt lat="45.94291" lon="4.82477">
        <ele>264</ele>
        <time>2017-07-06T08:28:07Z</time>
      </trkpt>
      <trkpt lat="45.94291" lon="4.82484">
        <ele>264</ele>
        <time>2017-07-06T08:28:08Z</time>
      </trkpt>
      <trkpt lat="45.94291" lon="4.82496">
        <ele>264</ele>
        <time>2017-07-06T08:28:10Z</time>
      </trkpt>
      <trkpt lat="45.94291" lon="4.82502">
        <ele>264</ele>
        <time>2017-07-06T08:28:11Z</time>
      </trkpt>
      <trkpt lat="45.94292" lon="4.82514">
        <ele>264</ele>
        <time>2017-07-06T08:28:13Z</time>
      </trkpt>
      <trkpt lat="45.94292" lon="4.8252">
        <ele>264</ele>
        <time>2017-07-06T08:28:14Z</time>
      </trkpt>
      <trkpt lat="45.94292" lon="4.82532">
        <ele>264</ele>
        <time>2017-07-06T08:28:16Z</time>
      </trkpt>
      <trkpt lat="45.94292" lon="4.82538">
        <ele>264</ele>
        <time>2017-07-06T08:28:17Z</time>
      </trkpt>
      <trkpt lat="45.94292" lon="4.82544">
        <ele>264</ele>
        <time>2017-07-06T08:28:18Z</time>
      </trkpt>
      <trkpt lat="45.94292" lon="4.82551">
        <ele>264</ele>
        <time>2017-07-06T08:28:19Z</time>
      </trkpt>
      <trkpt lat="45.94291" lon="4.82557">
        <ele>264</ele>
        <time>2017-07-06T08:28:20Z</time>
      </trkpt>
      <trkpt lat="45.94291" lon="4.82564">
        <ele>264</ele>
        <time>2017-07-06T08:28:21Z</time>
      </trkpt>
      <trkpt lat="45.94291" lon="4.82572">
        <ele>264</ele>
        <time>2017-07-06T08:28:22Z</time>
      </trkpt>
      <trkpt lat="45.94291" lon="4.82578">
        <ele>265</ele>
        <time>2017-07-06T08:28:23Z</time>
      </trkpt>
      <trkpt lat="45.94291" lon="4.8259">
        <ele>265</ele>
        <time>2017-07-06T08:28:25Z</time>
      </trkpt>
      <trkpt lat="45.94291" lon="4.82596">
        <ele>265</ele>
        <time>2017-07-06T08:28:26Z</time>
      </trkpt>
      <trkpt lat="45.94291" lon="4.82606">
        <ele>265</ele>
        <time>2017-07-06T08:28:28Z</time>
      </trkpt>
      <trkpt lat="45.94291" lon="4.82612">
        <ele>265</ele>
        <time>2017-07-06T08:28:29Z</time>
      </trkpt>
      <trkpt lat="45.94291" lon="4.82621">
        <ele>265</ele>
        <time>2017-07-06T08:28:31Z</time>
      </trkpt>
      <trkpt lat="45.94291" lon="4.82626">
        <ele>265</ele>
        <time>2017-07-06T08:28:32Z</time>
      </trkpt>
      <trkpt lat="45.9429" lon="4.82637">
        <ele>265</ele>
        <time>2017-07-06T08:28:34Z</time>
      </trkpt>
      <trkpt lat="45.9429" lon="4.82643">
        <ele>265</ele>
        <time>2017-07-06T08:28:35Z</time>
      </trkpt>
      <trkpt lat="45.9429" lon="4.8265">
        <ele>265</ele>
        <time>2017-07-06T08:28:36Z</time>
      </trkpt>
      <trkpt lat="45.9429" lon="4.82657">
        <ele>265</ele>
        <time>2017-07-06T08:28:37Z</time>
      </trkpt>
      <trkpt lat="45.9429" lon="4.82664">
        <ele>265</ele>
        <time>2017-07-06T08:28:38Z</time>
      </trkpt>
      <trkpt lat="45.9429" lon="4.8267">
        <ele>265</ele>
        <time>2017-07-06T08:28:39Z</time>
      </trkpt>
      <trkpt lat="45.9429" lon="4.82683">
        <ele>265</ele>
        <time>2017-07-06T08:28:41Z</time>
      </trkpt>
      <trkpt lat="45.9429" lon="4.82689">
        <ele>265</ele>
        <time>2017-07-06T08:28:42Z</time>
      </trkpt>
      <trkpt lat="45.9429" lon="4.82702">
        <ele>265</ele>
        <time>2017-07-06T08:28:44Z</time>
      </trkpt>
      <trkpt lat="45.9429" lon="4.82708">
        <ele>265</ele>
        <time>2017-07-06T08:28:45Z</time>
      </trkpt>
      <trkpt lat="45.9429" lon="4.82715">
        <ele>265</ele>
        <time>2017-07-06T08:28:46Z</time>
      </trkpt>
      <trkpt lat="45.9429" lon="4.82721">
        <ele>265</ele>
        <time>2017-07-06T08:28:47Z</time>
      </trkpt>
      <trkpt lat="45.9429" lon="4.82728">
        <ele>265</ele>
        <time>2017-07-06T08:28:48Z</time>
      </trkpt>
      <trkpt lat="45.94289" lon="4.82735">
        <ele>265</ele>
        <time>2017-07-06T08:28:49Z</time>
      </trkpt>
      <trkpt lat="45.94289" lon="4.82742">
        <ele>265</ele>
        <time>2017-07-06T08:28:50Z</time>
      </trkpt>
      <trkpt lat="45.94289" lon="4.82749">
        <ele>265</ele>
        <time>2017-07-06T08:28:51Z</time>
      </trkpt>
      <trkpt lat="45.94288" lon="4.82761">
        <ele>265</ele>
        <time>2017-07-06T08:28:53Z</time>
      </trkpt>
      <trkpt lat="45.94289" lon="4.82767">
        <ele>265</ele>
        <time>2017-07-06T08:28:54Z</time>
      </trkpt>
      <trkpt lat="45.94289" lon="4.82778">
        <ele>265</ele>
        <time>2017-07-06T08:28:56Z</time>
      </trkpt>
      <trkpt lat="45.94289" lon="4.82784">
        <ele>265</ele>
        <time>2017-07-06T08:28:57Z</time>
      </trkpt>
      <trkpt lat="45.94288" lon="4.82796">
        <ele>265</ele>
        <time>2017-07-06T08:28:59Z</time>
      </trkpt>
      <trkpt lat="45.94288" lon="4.82802">
        <ele>265</ele>
        <time>2017-07-06T08:29:00Z</time>
      </trkpt>
      <trkpt lat="45.94288" lon="4.82809">
        <ele>265</ele>
        <time>2017-07-06T08:29:01Z</time>
      </trkpt>
      <trkpt lat="45.94288" lon="4.82816">
        <ele>265</ele>
        <time>2017-07-06T08:29:02Z</time>
      </trkpt>
      <trkpt lat="45.94288" lon="4.82824">
        <ele>265</ele>
        <time>2017-07-06T08:29:03Z</time>
      </trkpt>
      <trkpt lat="45.94288" lon="4.82831">
        <ele>265</ele>
        <time>2017-07-06T08:29:04Z</time>
      </trkpt>
      <trkpt lat="45.94288" lon="4.82839">
        <ele>265</ele>
        <time>2017-07-06T08:29:05Z</time>
      </trkpt>
      <trkpt lat="45.94288" lon="4.82845">
        <ele>265</ele>
        <time>2017-07-06T08:29:06Z</time>
      </trkpt>
      <trkpt lat="45.94288" lon="4.82852">
        <ele>265</ele>
        <time>2017-07-06T08:29:07Z</time>
      </trkpt>
      <trkpt lat="45.94287" lon="4.82859">
        <ele>265</ele>
        <time>2017-07-06T08:29:08Z</time>
      </trkpt>
      <trkpt lat="45.94287" lon="4.82871">
        <ele>265</ele>
        <time>2017-07-06T08:29:10Z</time>
      </trkpt>
      <trkpt lat="45.94287" lon="4.82878">
        <ele>265</ele>
        <time>2017-07-06T08:29:11Z</time>
      </trkpt>
      <trkpt lat="45.94286" lon="4.82884">
        <ele>265</ele>
        <time>2017-07-06T08:29:12Z</time>
      </trkpt>
      <trkpt lat="45.94286" lon="4.82891">
        <ele>265</ele>
        <time>2017-07-06T08:29:13Z</time>
      </trkpt>
      <trkpt lat="45.94285" lon="4.82898">
        <ele>265</ele>
        <time>2017-07-06T08:29:14Z</time>
      </trkpt>
      <trkpt lat="45.94284" lon="4.82905">
        <ele>265</ele>
        <time>2017-07-06T08:29:15Z</time>
      </trkpt>
      <trkpt lat="45.94284" lon="4.82912">
        <ele>265</ele>
        <time>2017-07-06T08:29:16Z</time>
      </trkpt>
      <trkpt lat="45.94283" lon="4.82918">
        <ele>265</ele>
        <time>2017-07-06T08:29:17Z</time>
      </trkpt>
      <trkpt lat="45.94281" lon="4.82925">
        <ele>265</ele>
        <time>2017-07-06T08:29:18Z</time>
      </trkpt>
      <trkpt lat="45.9428" lon="4.82931">
        <ele>265</ele>
        <time>2017-07-06T08:29:19Z</time>
      </trkpt>
      <trkpt lat="45.94279" lon="4.82938">
        <ele>265</ele>
        <time>2017-07-06T08:29:20Z</time>
      </trkpt>
      <trkpt lat="45.94278" lon="4.82944">
        <ele>265</ele>
        <time>2017-07-06T08:29:21Z</time>
      </trkpt>
      <trkpt lat="45.94277" lon="4.82956">
        <ele>265</ele>
        <time>2017-07-06T08:29:23Z</time>
      </trkpt>
      <trkpt lat="45.94278" lon="4.82961">
        <ele>265</ele>
        <time>2017-07-06T08:29:24Z</time>
      </trkpt>
      <trkpt lat="45.94282" lon="4.82972">
        <ele>265</ele>
        <time>2017-07-06T08:29:26Z</time>
      </trkpt>
      <trkpt lat="45.94285" lon="4.82979">
        <ele>265</ele>
        <time>2017-07-06T08:29:27Z</time>
      </trkpt>
      <trkpt lat="45.94287" lon="4.82986">
        <ele>265</ele>
        <time>2017-07-06T08:29:28Z</time>
      </trkpt>
      <trkpt lat="45.94289" lon="4.82993">
        <ele>265</ele>
        <time>2017-07-06T08:29:29Z</time>
      </trkpt>
      <trkpt lat="45.94291" lon="4.83">
        <ele>265</ele>
        <time>2017-07-06T08:29:30Z</time>
      </trkpt>
      <trkpt lat="45.94293" lon="4.83007">
        <ele>266</ele>
        <time>2017-07-06T08:29:31Z</time>
      </trkpt>
      <trkpt lat="45.94294" lon="4.83014">
        <ele>266</ele>
        <time>2017-07-06T08:29:32Z</time>
      </trkpt>
      <trkpt lat="45.94295" lon="4.83021">
        <ele>266</ele>
        <time>2017-07-06T08:29:33Z</time>
      </trkpt>
      <trkpt lat="45.94297" lon="4.83027">
        <ele>266</ele>
        <time>2017-07-06T08:29:34Z</time>
      </trkpt>
      <trkpt lat="45.94298" lon="4.83034">
        <ele>266</ele>
        <time>2017-07-06T08:29:35Z</time>
      </trkpt>
      <trkpt lat="45.94299" lon="4.83041">
        <ele>266</ele>
        <time>2017-07-06T08:29:36Z</time>
      </trkpt>
      <trkpt lat="45.943" lon="4.83047">
        <ele>266</ele>
        <time>2017-07-06T08:29:37Z</time>
      </trkpt>
      <trkpt lat="45.94303" lon="4.83059">
        <ele>266</ele>
        <time>2017-07-06T08:29:39Z</time>
      </trkpt>
      <trkpt lat="45.94304" lon="4.83065">
        <ele>266</ele>
        <time>2017-07-06T08:29:40Z</time>
      </trkpt>
      <trkpt lat="45.94306" lon="4.83072">
        <ele>266</ele>
        <time>2017-07-06T08:29:41Z</time>
      </trkpt>
      <trkpt lat="45.94308" lon="4.83079">
        <ele>266</ele>
        <time>2017-07-06T08:29:42Z</time>
      </trkpt>
      <trkpt lat="45.9431" lon="4.83086">
        <ele>266</ele>
        <time>2017-07-06T08:29:43Z</time>
      </trkpt>
      <trkpt lat="45.94312" lon="4.83093">
        <ele>266</ele>
        <time>2017-07-06T08:29:44Z</time>
      </trkpt>
      <trkpt lat="45.94314" lon="4.83101">
        <ele>266</ele>
        <time>2017-07-06T08:29:45Z</time>
      </trkpt>
      <trkpt lat="45.94316" lon="4.83107">
        <ele>266</ele>
        <time>2017-07-06T08:29:46Z</time>
      </trkpt>
      <trkpt lat="45.94318" lon="4.83114">
        <ele>266</ele>
        <time>2017-07-06T08:29:47Z</time>
      </trkpt>
      <trkpt lat="45.9432" lon="4.83121">
        <ele>266</ele>
        <time>2017-07-06T08:29:48Z</time>
      </trkpt>
      <trkpt lat="45.94322" lon="4.83127">
        <ele>266</ele>
        <time>2017-07-06T08:29:49Z</time>
      </trkpt>
      <trkpt lat="45.94324" lon="4.83133">
        <ele>266</ele>
        <time>2017-07-06T08:29:50Z</time>
      </trkpt>
      <trkpt lat="45.94326" lon="4.8314">
        <ele>266</ele>
        <time>2017-07-06T08:29:51Z</time>
      </trkpt>
      <trkpt lat="45.94328" lon="4.83146">
        <ele>266</ele>
        <time>2017-07-06T08:29:52Z</time>
      </trkpt>
      <trkpt lat="45.9433" lon="4.83152">
        <ele>266</ele>
        <time>2017-07-06T08:29:53Z</time>
      </trkpt>
      <trkpt lat="45.94332" lon="4.83158">
        <ele>266</ele>
        <time>2017-07-06T08:29:54Z</time>
      </trkpt>
      <trkpt lat="45.94335" lon="4.83163">
        <ele>266</ele>
        <time>2017-07-06T08:29:55Z</time>
      </trkpt>
      <trkpt lat="45.94337" lon="4.83169">
        <ele>266</ele>
        <time>2017-07-06T08:29:56Z</time>
      </trkpt>
      <trkpt lat="45.94339" lon="4.83175">
        <ele>266</ele>
        <time>2017-07-06T08:29:57Z</time>
      </trkpt>
      <trkpt lat="45.94341" lon="4.83181">
        <ele>266</ele>
        <time>2017-07-06T08:29:58Z</time>
      </trkpt>
      <trkpt lat="45.94343" lon="4.83187">
        <ele>266</ele>
        <time>2017-07-06T08:29:59Z</time>
      </trkpt>
      <trkpt lat="45.94346" lon="4.83193">
        <ele>266</ele>
        <time>2017-07-06T08:30:00Z</time>
      </trkpt>
      <trkpt lat="45.94348" lon="4.832">
        <ele>266</ele>
        <time>2017-07-06T08:30:01Z</time>
      </trkpt>
      <trkpt lat="45.94351" lon="4.83207">
        <ele>266</ele>
        <time>2017-07-06T08:30:02Z</time>
      </trkpt>
      <trkpt lat="45.94353" lon="4.83214">
        <ele>266</ele>
        <time>2017-07-06T08:30:03Z</time>
      </trkpt>
      <trkpt lat="45.94356" lon="4.83222">
        <ele>266</ele>
        <time>2017-07-06T08:30:04Z</time>
      </trkpt>
      <trkpt lat="45.94358" lon="4.83228">
        <ele>266</ele>
        <time>2017-07-06T08:30:05Z</time>
      </trkpt>
      <trkpt lat="45.9436" lon="4.83235">
        <ele>265</ele>
        <time>2017-07-06T08:30:06Z</time>
      </trkpt>
      <trkpt lat="45.94363" lon="4.83242">
        <ele>265</ele>
        <time>2017-07-06T08:30:07Z</time>
      </trkpt>
      <trkpt lat="45.94366" lon="4.83249">
        <ele>265</ele>
        <time>2017-07-06T08:30:08Z</time>
      </trkpt>
      <trkpt lat="45.94368" lon="4.83257">
        <ele>265</ele>
        <time>2017-07-06T08:30:09Z</time>
      </trkpt>
      <trkpt lat="45.94371" lon="4.83264">
        <ele>264</ele>
        <time>2017-07-06T08:30:10Z</time>
      </trkpt>
      <trkpt lat="45.94373" lon="4.83271">
        <ele>264</ele>
        <time>2017-07-06T08:30:11Z</time>
      </trkpt>
      <trkpt lat="45.94376" lon="4.83279">
        <ele>264</ele>
        <time>2017-07-06T08:30:12Z</time>
      </trkpt>
      <trkpt lat="45.94378" lon="4.83286">
        <ele>264</ele>
        <time>2017-07-06T08:30:13Z</time>
      </trkpt>
      <trkpt lat="45.94381" lon="4.83293">
        <ele>264</ele>
        <time>2017-07-06T08:30:14Z</time>
      </trkpt>
      <trkpt lat="45.94383" lon="4.83301">
        <ele>264</ele>
        <time>2017-07-06T08:30:15Z</time>
      </trkpt>
      <trkpt lat="45.94386" lon="4.83308">
        <ele>264</ele>
        <time>2017-07-06T08:30:16Z</time>
      </trkpt>
      <trkpt lat="45.94388" lon="4.83315">
        <ele>264</ele>
        <time>2017-07-06T08:30:17Z</time>
      </trkpt>
      <trkpt lat="45.94391" lon="4.83322">
        <ele>264</ele>
        <time>2017-07-06T08:30:18Z</time>
      </trkpt>
      <trkpt lat="45.94393" lon="4.83329">
        <ele>264</ele>
        <time>2017-07-06T08:30:19Z</time>
      </trkpt>
      <trkpt lat="45.94396" lon="4.83336">
        <ele>263</ele>
        <time>2017-07-06T08:30:20Z</time>
      </trkpt>
      <trkpt lat="45.94398" lon="4.83343">
        <ele>263</ele>
        <time>2017-07-06T08:30:21Z</time>
      </trkpt>
      <trkpt lat="45.94401" lon="4.8335">
        <ele>263</ele>
        <time>2017-07-06T08:30:22Z</time>
      </trkpt>
      <trkpt lat="45.94404" lon="4.83357">
        <ele>264</ele>
        <time>2017-07-06T08:30:23Z</time>
      </trkpt>
      <trkpt lat="45.94407" lon="4.83365">
        <ele>264</ele>
        <time>2017-07-06T08:30:24Z</time>
      </trkpt>
      <trkpt lat="45.94411" lon="4.83372">
        <ele>264</ele>
        <time>2017-07-06T08:30:25Z</time>
      </trkpt>
      <trkpt lat="45.94414" lon="4.8338">
        <ele>264</ele>
        <time>2017-07-06T08:30:26Z</time>
      </trkpt>
      <trkpt lat="45.94417" lon="4.83387">
        <ele>264</ele>
        <time>2017-07-06T08:30:27Z</time>
      </trkpt>
      <trkpt lat="45.94421" lon="4.83394">
        <ele>264</ele>
        <time>2017-07-06T08:30:28Z</time>
      </trkpt>
      <trkpt lat="45.94424" lon="4.83402">
        <ele>264</ele>
        <time>2017-07-06T08:30:29Z</time>
      </trkpt>
      <trkpt lat="45.94427" lon="4.83409">
        <ele>264</ele>
        <time>2017-07-06T08:30:30Z</time>
      </trkpt>
      <trkpt lat="45.9443" lon="4.83415">
        <ele>264</ele>
        <time>2017-07-06T08:30:31Z</time>
      </trkpt>
      <trkpt lat="45.94434" lon="4.83422">
        <ele>264</ele>
        <time>2017-07-06T08:30:32Z</time>
      </trkpt>
      <trkpt lat="45.94437" lon="4.83429">
        <ele>264</ele>
        <time>2017-07-06T08:30:33Z</time>
      </trkpt>
      <trkpt lat="45.9444" lon="4.83435">
        <ele>263</ele>
        <time>2017-07-06T08:30:34Z</time>
      </trkpt>
      <trkpt lat="45.94443" lon="4.83441">
        <ele>263</ele>
        <time>2017-07-06T08:30:35Z</time>
      </trkpt>
      <trkpt lat="45.94446" lon="4.83447">
        <ele>263</ele>
        <time>2017-07-06T08:30:36Z</time>
      </trkpt>
      <trkpt lat="45.9445" lon="4.83454">
        <ele>263</ele>
        <time>2017-07-06T08:30:37Z</time>
      </trkpt>
      <trkpt lat="45.94453" lon="4.83459">
        <ele>263</ele>
        <time>2017-07-06T08:30:38Z</time>
      </trkpt>
      <trkpt lat="45.94457" lon="4.83466">
        <ele>263</ele>
        <time>2017-07-06T08:30:39Z</time>
      </trkpt>
      <trkpt lat="45.9446" lon="4.83472">
        <ele>263</ele>
        <time>2017-07-06T08:30:40Z</time>
      </trkpt>
      <trkpt lat="45.94463" lon="4.83478">
        <ele>263</ele>
        <time>2017-07-06T08:30:41Z</time>
      </trkpt>
      <trkpt lat="45.94467" lon="4.83484">
        <ele>263</ele>
        <time>2017-07-06T08:30:42Z</time>
      </trkpt>
      <trkpt lat="45.94471" lon="4.83491">
        <ele>263</ele>
        <time>2017-07-06T08:30:43Z</time>
      </trkpt>
      <trkpt lat="45.94475" lon="4.83497">
        <ele>263</ele>
        <time>2017-07-06T08:30:44Z</time>
      </trkpt>
      <trkpt lat="45.94479" lon="4.83504">
        <ele>262</ele>
        <time>2017-07-06T08:30:45Z</time>
      </trkpt>
      <trkpt lat="45.94482" lon="4.8351">
        <ele>262</ele>
        <time>2017-07-06T08:30:46Z</time>
      </trkpt>
      <trkpt lat="45.94486" lon="4.83516">
        <ele>262</ele>
        <time>2017-07-06T08:30:47Z</time>
      </trkpt>
      <trkpt lat="45.9449" lon="4.83523">
        <ele>262</ele>
        <time>2017-07-06T08:30:48Z</time>
      </trkpt>
      <trkpt lat="45.94494" lon="4.83529">
        <ele>262</ele>
        <time>2017-07-06T08:30:49Z</time>
      </trkpt>
      <trkpt lat="45.94498" lon="4.83535">
        <ele>262</ele>
        <time>2017-07-06T08:30:50Z</time>
      </trkpt>
      <trkpt lat="45.94502" lon="4.83541">
        <ele>262</ele>
        <time>2017-07-06T08:30:51Z</time>
      </trkpt>
      <trkpt lat="45.94505" lon="4.83547">
        <ele>261</ele>
        <time>2017-07-06T08:30:52Z</time>
      </trkpt>
      <trkpt lat="45.94508" lon="4.83553">
        <ele>261</ele>
        <time>2017-07-06T08:30:53Z</time>
      </trkpt>
      <trkpt lat="45.94512" lon="4.83559">
        <ele>261</ele>
        <time>2017-07-06T08:30:54Z</time>
      </trkpt>
      <trkpt lat="45.94515" lon="4.83566">
        <ele>261</ele>
        <time>2017-07-06T08:30:55Z</time>
      </trkpt>
      <trkpt lat="45.94518" lon="4.83572">
        <ele>261</ele>
        <time>2017-07-06T08:30:56Z</time>
      </trkpt>
      <trkpt lat="45.9452" lon="4.83579">
        <ele>261</ele>
        <time>2017-07-06T08:30:57Z</time>
      </trkpt>
      <trkpt lat="45.94522" lon="4.83585">
        <ele>261</ele>
        <time>2017-07-06T08:30:58Z</time>
      </trkpt>
      <trkpt lat="45.94525" lon="4.83592">
        <ele>261</ele>
        <time>2017-07-06T08:30:59Z</time>
      </trkpt>
      <trkpt lat="45.94527" lon="4.83598">
        <ele>261</ele>
        <time>2017-07-06T08:31:00Z</time>
      </trkpt>
      <trkpt lat="45.94529" lon="4.83605">
        <ele>261</ele>
        <time>2017-07-06T08:31:01Z</time>
      </trkpt>
      <trkpt lat="45.9453" lon="4.83612">
        <ele>261</ele>
        <time>2017-07-06T08:31:02Z</time>
      </trkpt>
      <trkpt lat="45.94531" lon="4.83618">
        <ele>261</ele>
        <time>2017-07-06T08:31:03Z</time>
      </trkpt>
      <trkpt lat="45.94533" lon="4.83625">
        <ele>261</ele>
        <time>2017-07-06T08:31:04Z</time>
      </trkpt>
      <trkpt lat="45.94534" lon="4.83631">
        <ele>261</ele>
        <time>2017-07-06T08:31:05Z</time>
      </trkpt>
      <trkpt lat="45.94535" lon="4.83638">
        <ele>261</ele>
        <time>2017-07-06T08:31:06Z</time>
      </trkpt>
      <trkpt lat="45.94536" lon="4.83644">
        <ele>261</ele>
        <time>2017-07-06T08:31:07Z</time>
      </trkpt>
      <trkpt lat="45.94537" lon="4.83651">
        <ele>261</ele>
        <time>2017-07-06T08:31:08Z</time>
      </trkpt>
      <trkpt lat="45.94538" lon="4.83658">
        <ele>261</ele>
        <time>2017-07-06T08:31:09Z</time>
      </trkpt>
      <trkpt lat="45.94539" lon="4.83666">
        <ele>261</ele>
        <time>2017-07-06T08:31:10Z</time>
      </trkpt>
      <trkpt lat="45.9454" lon="4.83673">
        <ele>262</ele>
        <time>2017-07-06T08:31:11Z</time>
      </trkpt>
      <trkpt lat="45.94541" lon="4.83681">
        <ele>262</ele>
        <time>2017-07-06T08:31:12Z</time>
      </trkpt>
      <trkpt lat="45.94542" lon="4.83688">
        <ele>262</ele>
        <time>2017-07-06T08:31:13Z</time>
      </trkpt>
      <trkpt lat="45.94543" lon="4.83695">
        <ele>262</ele>
        <time>2017-07-06T08:31:14Z</time>
      </trkpt>
      <trkpt lat="45.94544" lon="4.83702">
        <ele>262</ele>
        <time>2017-07-06T08:31:15Z</time>
      </trkpt>
      <trkpt lat="45.94544" lon="4.83708">
        <ele>262</ele>
        <time>2017-07-06T08:31:16Z</time>
      </trkpt>
      <trkpt lat="45.94546" lon="4.83715">
        <ele>262</ele>
        <time>2017-07-06T08:31:17Z</time>
      </trkpt>
      <trkpt lat="45.94547" lon="4.83721">
        <ele>262</ele>
        <time>2017-07-06T08:31:18Z</time>
      </trkpt>
      <trkpt lat="45.94548" lon="4.83728">
        <ele>262</ele>
        <time>2017-07-06T08:31:19Z</time>
      </trkpt>
      <trkpt lat="45.94549" lon="4.83735">
        <ele>262</ele>
        <time>2017-07-06T08:31:20Z</time>
      </trkpt>
      <trkpt lat="45.9455" lon="4.83742">
        <ele>262</ele>
        <time>2017-07-06T08:31:21Z</time>
      </trkpt>
      <trkpt lat="45.94551" lon="4.83749">
        <ele>262</ele>
        <time>2017-07-06T08:31:22Z</time>
      </trkpt>
      <trkpt lat="45.94552" lon="4.83757">
        <ele>263</ele>
        <time>2017-07-06T08:31:23Z</time>
      </trkpt>
      <trkpt lat="45.94553" lon="4.83765">
        <ele>263</ele>
        <time>2017-07-06T08:31:24Z</time>
      </trkpt>
      <trkpt lat="45.94555" lon="4.83773">
        <ele>264</ele>
        <time>2017-07-06T08:31:25Z</time>
      </trkpt>
      <trkpt lat="45.94556" lon="4.83782">
        <ele>264</ele>
        <time>2017-07-06T08:31:26Z</time>
      </trkpt>
      <trkpt lat="45.94557" lon="4.8379">
        <ele>264</ele>
        <time>2017-07-06T08:31:27Z</time>
      </trkpt>
      <trkpt lat="45.94558" lon="4.83799">
        <ele>264</ele>
        <time>2017-07-06T08:31:28Z</time>
      </trkpt>
      <trkpt lat="45.9456" lon="4.83807">
        <ele>264</ele>
        <time>2017-07-06T08:31:29Z</time>
      </trkpt>
      <trkpt lat="45.94561" lon="4.83815">
        <ele>264</ele>
        <time>2017-07-06T08:31:30Z</time>
      </trkpt>
      <trkpt lat="45.94562" lon="4.83823">
        <ele>264</ele>
        <time>2017-07-06T08:31:31Z</time>
      </trkpt>
      <trkpt lat="45.94563" lon="4.8383">
        <ele>265</ele>
        <time>2017-07-06T08:31:32Z</time>
      </trkpt>
      <trkpt lat="45.94564" lon="4.83837">
        <ele>266</ele>
        <time>2017-07-06T08:31:33Z</time>
      </trkpt>
      <trkpt lat="45.94565" lon="4.83844">
        <ele>266</ele>
        <time>2017-07-06T08:31:34Z</time>
      </trkpt>
      <trkpt lat="45.94566" lon="4.83851">
        <ele>266</ele>
        <time>2017-07-06T08:31:35Z</time>
      </trkpt>
      <trkpt lat="45.94567" lon="4.83857">
        <ele>267</ele>
        <time>2017-07-06T08:31:36Z</time>
      </trkpt>
      <trkpt lat="45.94568" lon="4.83864">
        <ele>267</ele>
        <time>2017-07-06T08:31:37Z</time>
      </trkpt>
      <trkpt lat="45.94569" lon="4.83872">
        <ele>267</ele>
        <time>2017-07-06T08:31:38Z</time>
      </trkpt>
      <trkpt lat="45.9457" lon="4.83879">
        <ele>267</ele>
        <time>2017-07-06T08:31:39Z</time>
      </trkpt>
      <trkpt lat="45.94571" lon="4.83886">
        <ele>267</ele>
        <time>2017-07-06T08:31:40Z</time>
      </trkpt>
      <trkpt lat="45.94572" lon="4.83893">
        <ele>267</ele>
        <time>2017-07-06T08:31:41Z</time>
      </trkpt>
      <trkpt lat="45.94574" lon="4.839">
        <ele>268</ele>
        <time>2017-07-06T08:31:42Z</time>
      </trkpt>
      <trkpt lat="45.94575" lon="4.83907">
        <ele>268</ele>
        <time>2017-07-06T08:31:43Z</time>
      </trkpt>
      <trkpt lat="45.94576" lon="4.83914">
        <ele>268</ele>
        <time>2017-07-06T08:31:44Z</time>
      </trkpt>
      <trkpt lat="45.94577" lon="4.83922">
        <ele>268</ele>
        <time>2017-07-06T08:31:45Z</time>
      </trkpt>
      <trkpt lat="45.94578" lon="4.8393">
        <ele>268</ele>
        <time>2017-07-06T08:31:46Z</time>
      </trkpt>
      <trkpt lat="45.9458" lon="4.83938">
        <ele>269</ele>
        <time>2017-07-06T08:31:47Z</time>
      </trkpt>
      <trkpt lat="45.94581" lon="4.83946">
        <ele>269</ele>
        <time>2017-07-06T08:31:48Z</time>
      </trkpt>
      <trkpt lat="45.94582" lon="4.83954">
        <ele>269</ele>
        <time>2017-07-06T08:31:49Z</time>
      </trkpt>
      <trkpt lat="45.94583" lon="4.83962">
        <ele>269</ele>
        <time>2017-07-06T08:31:50Z</time>
      </trkpt>
      <trkpt lat="45.94584" lon="4.83969">
        <ele>268</ele>
        <time>2017-07-06T08:31:51Z</time>
      </trkpt>
      <trkpt lat="45.94585" lon="4.83976">
        <ele>268</ele>
        <time>2017-07-06T08:31:52Z</time>
      </trkpt>
      <trkpt lat="45.94587" lon="4.83982">
        <ele>268</ele>
        <time>2017-07-06T08:31:53Z</time>
      </trkpt>
      <trkpt lat="45.94588" lon="4.83989">
        <ele>269</ele>
        <time>2017-07-06T08:31:54Z</time>
      </trkpt>
      <trkpt lat="45.94589" lon="4.83995">
        <ele>269</ele>
        <time>2017-07-06T08:31:55Z</time>
      </trkpt>
      <trkpt lat="45.9459" lon="4.84001">
        <ele>269</ele>
        <time>2017-07-06T08:31:56Z</time>
      </trkpt>
      <trkpt lat="45.94591" lon="4.84008">
        <ele>269</ele>
        <time>2017-07-06T08:31:57Z</time>
      </trkpt>
      <trkpt lat="45.94592" lon="4.84015">
        <ele>269</ele>
        <time>2017-07-06T08:31:58Z</time>
      </trkpt>
      <trkpt lat="45.94593" lon="4.84022">
        <ele>269</ele>
        <time>2017-07-06T08:31:59Z</time>
      </trkpt>
      <trkpt lat="45.94594" lon="4.84029">
        <ele>269</ele>
        <time>2017-07-06T08:32:00Z</time>
      </trkpt>
      <trkpt lat="45.94595" lon="4.84036">
        <ele>269</ele>
        <time>2017-07-06T08:32:01Z</time>
      </trkpt>
      <trkpt lat="45.94596" lon="4.84042">
        <ele>269</ele>
        <time>2017-07-06T08:32:02Z</time>
      </trkpt>
      <trkpt lat="45.94598" lon="4.84055">
        <ele>269</ele>
        <time>2017-07-06T08:32:04Z</time>
      </trkpt>
      <trkpt lat="45.94599" lon="4.84061">
        <ele>269</ele>
        <time>2017-07-06T08:32:05Z</time>
      </trkpt>
      <trkpt lat="45.94601" lon="4.84072">
        <ele>269</ele>
        <time>2017-07-06T08:32:07Z</time>
      </trkpt>
      <trkpt lat="45.94602" lon="4.84078">
        <ele>269</ele>
        <time>2017-07-06T08:32:08Z</time>
      </trkpt>
      <trkpt lat="45.94603" lon="4.84084">
        <ele>269</ele>
        <time>2017-07-06T08:32:09Z</time>
      </trkpt>
      <trkpt lat="45.94603" lon="4.84091">
        <ele>269</ele>
        <time>2017-07-06T08:32:10Z</time>
      </trkpt>
      <trkpt lat="45.94604" lon="4.84097">
        <ele>269</ele>
        <time>2017-07-06T08:32:11Z</time>
      </trkpt>
      <trkpt lat="45.94605" lon="4.84104">
        <ele>269</ele>
        <time>2017-07-06T08:32:12Z</time>
      </trkpt>
      <trkpt lat="45.94607" lon="4.84111">
        <ele>269</ele>
        <time>2017-07-06T08:32:13Z</time>
      </trkpt>
      <trkpt lat="45.94608" lon="4.84119">
        <ele>269</ele>
        <time>2017-07-06T08:32:14Z</time>
      </trkpt>
      <trkpt lat="45.94609" lon="4.84126">
        <ele>269</ele>
        <time>2017-07-06T08:32:15Z</time>
      </trkpt>
      <trkpt lat="45.9461" lon="4.84134">
        <ele>269</ele>
        <time>2017-07-06T08:32:16Z</time>
      </trkpt>
      <trkpt lat="45.94612" lon="4.84141">
        <ele>269</ele>
        <time>2017-07-06T08:32:17Z</time>
      </trkpt>
      <trkpt lat="45.94613" lon="4.84148">
        <ele>269</ele>
        <time>2017-07-06T08:32:18Z</time>
      </trkpt>
      <trkpt lat="45.94614" lon="4.84155">
        <ele>269</ele>
        <time>2017-07-06T08:32:19Z</time>
      </trkpt>
      <trkpt lat="45.94615" lon="4.84162">
        <ele>269</ele>
        <time>2017-07-06T08:32:20Z</time>
      </trkpt>
      <trkpt lat="45.94616" lon="4.84169">
        <ele>269</ele>
        <time>2017-07-06T08:32:21Z</time>
      </trkpt>
      <trkpt lat="45.94617" lon="4.84176">
        <ele>269</ele>
        <time>2017-07-06T08:32:22Z</time>
      </trkpt>
      <trkpt lat="45.94618" lon="4.84182">
        <ele>269</ele>
        <time>2017-07-06T08:32:23Z</time>
      </trkpt>
      <trkpt lat="45.9462" lon="4.84189">
        <ele>269</ele>
        <time>2017-07-06T08:32:24Z</time>
      </trkpt>
      <trkpt lat="45.94622" lon="4.842">
        <ele>269</ele>
        <time>2017-07-06T08:32:26Z</time>
      </trkpt>
      <trkpt lat="45.94623" lon="4.84206">
        <ele>269</ele>
        <time>2017-07-06T08:32:27Z</time>
      </trkpt>
      <trkpt lat="45.94624" lon="4.84218">
        <ele>269</ele>
        <time>2017-07-06T08:32:29Z</time>
      </trkpt>
      <trkpt lat="45.94625" lon="4.84224">
        <ele>269</ele>
        <time>2017-07-06T08:32:30Z</time>
      </trkpt>
      <trkpt lat="45.94626" lon="4.8423">
        <ele>269</ele>
        <time>2017-07-06T08:32:31Z</time>
      </trkpt>
      <trkpt lat="45.94627" lon="4.84236">
        <ele>269</ele>
        <time>2017-07-06T08:32:32Z</time>
      </trkpt>
      <trkpt lat="45.94628" lon="4.84243">
        <ele>269</ele>
        <time>2017-07-06T08:32:33Z</time>
      </trkpt>
      <trkpt lat="45.94629" lon="4.8425">
        <ele>269</ele>
        <time>2017-07-06T08:32:34Z</time>
      </trkpt>
      <trkpt lat="45.9463" lon="4.84258">
        <ele>269</ele>
        <time>2017-07-06T08:32:35Z</time>
      </trkpt>
      <trkpt lat="45.94631" lon="4.84265">
        <ele>269</ele>
        <time>2017-07-06T08:32:36Z</time>
      </trkpt>
      <trkpt lat="45.94632" lon="4.84272">
        <ele>269</ele>
        <time>2017-07-06T08:32:37Z</time>
      </trkpt>
      <trkpt lat="45.94633" lon="4.84279">
        <ele>269</ele>
        <time>2017-07-06T08:32:38Z</time>
      </trkpt>
      <trkpt lat="45.94634" lon="4.84285">
        <ele>269</ele>
        <time>2017-07-06T08:32:39Z</time>
      </trkpt>
      <trkpt lat="45.94634" lon="4.84292">
        <ele>269</ele>
        <time>2017-07-06T08:32:40Z</time>
      </trkpt>
      <trkpt lat="45.94636" lon="4.84304">
        <ele>269</ele>
        <time>2017-07-06T08:32:42Z</time>
      </trkpt>
      <trkpt lat="45.94637" lon="4.8431">
        <ele>269</ele>
        <time>2017-07-06T08:32:43Z</time>
      </trkpt>
      <trkpt lat="45.94638" lon="4.84317">
        <ele>269</ele>
        <time>2017-07-06T08:32:44Z</time>
      </trkpt>
      <trkpt lat="45.94639" lon="4.84324">
        <ele>269</ele>
        <time>2017-07-06T08:32:45Z</time>
      </trkpt>
      <trkpt lat="45.9464" lon="4.84331">
        <ele>268</ele>
        <time>2017-07-06T08:32:46Z</time>
      </trkpt>
      <trkpt lat="45.94641" lon="4.84338">
        <ele>268</ele>
        <time>2017-07-06T08:32:47Z</time>
      </trkpt>
      <trkpt lat="45.94642" lon="4.84345">
        <ele>268</ele>
        <time>2017-07-06T08:32:48Z</time>
      </trkpt>
      <trkpt lat="45.94643" lon="4.84353">
        <ele>268</ele>
        <time>2017-07-06T08:32:49Z</time>
      </trkpt>
      <trkpt lat="45.94643" lon="4.84361">
        <ele>268</ele>
        <time>2017-07-06T08:32:50Z</time>
      </trkpt>
      <trkpt lat="45.94644" lon="4.84368">
        <ele>268</ele>
        <time>2017-07-06T08:32:51Z</time>
      </trkpt>
      <trkpt lat="45.94645" lon="4.84375">
        <ele>268</ele>
        <time>2017-07-06T08:32:52Z</time>
      </trkpt>
      <trkpt lat="45.94646" lon="4.84383">
        <ele>268</ele>
        <time>2017-07-06T08:32:53Z</time>
      </trkpt>
      <trkpt lat="45.94647" lon="4.8439">
        <ele>268</ele>
        <time>2017-07-06T08:32:54Z</time>
      </trkpt>
      <trkpt lat="45.94647" lon="4.84397">
        <ele>268</ele>
        <time>2017-07-06T08:32:55Z</time>
      </trkpt>
      <trkpt lat="45.94648" lon="4.84403">
        <ele>268</ele>
        <time>2017-07-06T08:32:56Z</time>
      </trkpt>
      <trkpt lat="45.94649" lon="4.8441">
        <ele>268</ele>
        <time>2017-07-06T08:32:57Z</time>
      </trkpt>
      <trkpt lat="45.9465" lon="4.84416">
        <ele>268</ele>
        <time>2017-07-06T08:32:58Z</time>
      </trkpt>
      <trkpt lat="45.9465" lon="4.84423">
        <ele>268</ele>
        <time>2017-07-06T08:32:59Z</time>
      </trkpt>
      <trkpt lat="45.94651" lon="4.84429">
        <ele>268</ele>
        <time>2017-07-06T08:33:00Z</time>
      </trkpt>
      <trkpt lat="45.94652" lon="4.84437">
        <ele>268</ele>
        <time>2017-07-06T08:33:01Z</time>
      </trkpt>
      <trkpt lat="45.94653" lon="4.84444">
        <ele>268</ele>
        <time>2017-07-06T08:33:02Z</time>
      </trkpt>
      <trkpt lat="45.94653" lon="4.84451">
        <ele>268</ele>
        <time>2017-07-06T08:33:03Z</time>
      </trkpt>
      <trkpt lat="45.94654" lon="4.84459">
        <ele>268</ele>
        <time>2017-07-06T08:33:04Z</time>
      </trkpt>
      <trkpt lat="45.94655" lon="4.84467">
        <ele>268</ele>
        <time>2017-07-06T08:33:05Z</time>
      </trkpt>
      <trkpt lat="45.94656" lon="4.84475">
        <ele>268</ele>
        <time>2017-07-06T08:33:06Z</time>
      </trkpt>
      <trkpt lat="45.94656" lon="4.84483">
        <ele>268</ele>
        <time>2017-07-06T08:33:07Z</time>
      </trkpt>
      <trkpt lat="45.94657" lon="4.84491">
        <ele>268</ele>
        <time>2017-07-06T08:33:08Z</time>
      </trkpt>
      <trkpt lat="45.94658" lon="4.84498">
        <ele>268</ele>
        <time>2017-07-06T08:33:09Z</time>
      </trkpt>
      <trkpt lat="45.94659" lon="4.84506">
        <ele>268</ele>
        <time>2017-07-06T08:33:10Z</time>
      </trkpt>
      <trkpt lat="45.94659" lon="4.84513">
        <ele>268</ele>
        <time>2017-07-06T08:33:11Z</time>
      </trkpt>
      <trkpt lat="45.9466" lon="4.8452">
        <ele>268</ele>
        <time>2017-07-06T08:33:12Z</time>
      </trkpt>
      <trkpt lat="45.9466" lon="4.84527">
        <ele>268</ele>
        <time>2017-07-06T08:33:13Z</time>
      </trkpt>
      <trkpt lat="45.94661" lon="4.84534">
        <ele>268</ele>
        <time>2017-07-06T08:33:14Z</time>
      </trkpt>
      <trkpt lat="45.94662" lon="4.84541">
        <ele>268</ele>
        <time>2017-07-06T08:33:15Z</time>
      </trkpt>
      <trkpt lat="45.94662" lon="4.84548">
        <ele>268</ele>
        <time>2017-07-06T08:33:16Z</time>
      </trkpt>
      <trkpt lat="45.94663" lon="4.84555">
        <ele>268</ele>
        <time>2017-07-06T08:33:17Z</time>
      </trkpt>
      <trkpt lat="45.94663" lon="4.84562">
        <ele>268</ele>
        <time>2017-07-06T08:33:18Z</time>
      </trkpt>
      <trkpt lat="45.94664" lon="4.84569">
        <ele>268</ele>
        <time>2017-07-06T08:33:19Z</time>
      </trkpt>
      <trkpt lat="45.94664" lon="4.84577">
        <ele>268</ele>
        <time>2017-07-06T08:33:20Z</time>
      </trkpt>
      <trkpt lat="45.94665" lon="4.84585">
        <ele>268</ele>
        <time>2017-07-06T08:33:21Z</time>
      </trkpt>
      <trkpt lat="45.94665" lon="4.84593">
        <ele>268</ele>
        <time>2017-07-06T08:33:22Z</time>
      </trkpt>
      <trkpt lat="45.94666" lon="4.84602">
        <ele>268</ele>
        <time>2017-07-06T08:33:23Z</time>
      </trkpt>
      <trkpt lat="45.94666" lon="4.8461">
        <ele>268</ele>
        <time>2017-07-06T08:33:24Z</time>
      </trkpt>
      <trkpt lat="45.94666" lon="4.84618">
        <ele>268</ele>
        <time>2017-07-06T08:33:25Z</time>
      </trkpt>
      <trkpt lat="45.94667" lon="4.84625">
        <ele>268</ele>
        <time>2017-07-06T08:33:26Z</time>
      </trkpt>
      <trkpt lat="45.94667" lon="4.84633">
        <ele>268</ele>
        <time>2017-07-06T08:33:27Z</time>
      </trkpt>
      <trkpt lat="45.94667" lon="4.84641">
        <ele>268</ele>
        <time>2017-07-06T08:33:28Z</time>
      </trkpt>
      <trkpt lat="45.94667" lon="4.84648">
        <ele>268</ele>
        <time>2017-07-06T08:33:29Z</time>
      </trkpt>
      <trkpt lat="45.94668" lon="4.84655">
        <ele>268</ele>
        <time>2017-07-06T08:33:30Z</time>
      </trkpt>
      <trkpt lat="45.94668" lon="4.84662">
        <ele>269</ele>
        <time>2017-07-06T08:33:31Z</time>
      </trkpt>
      <trkpt lat="45.94669" lon="4.84669">
        <ele>269</ele>
        <time>2017-07-06T08:33:32Z</time>
      </trkpt>
      <trkpt lat="45.94669" lon="4.84676">
        <ele>269</ele>
        <time>2017-07-06T08:33:33Z</time>
      </trkpt>
      <trkpt lat="45.94669" lon="4.84682">
        <ele>269</ele>
        <time>2017-07-06T08:33:34Z</time>
      </trkpt>
      <trkpt lat="45.94669" lon="4.84689">
        <ele>269</ele>
        <time>2017-07-06T08:33:35Z</time>
      </trkpt>
      <trkpt lat="45.9467" lon="4.84696">
        <ele>269</ele>
        <time>2017-07-06T08:33:36Z</time>
      </trkpt>
      <trkpt lat="45.9467" lon="4.84703">
        <ele>269</ele>
        <time>2017-07-06T08:33:37Z</time>
      </trkpt>
      <trkpt lat="45.9467" lon="4.8471">
        <ele>269</ele>
        <time>2017-07-06T08:33:38Z</time>
      </trkpt>
      <trkpt lat="45.9467" lon="4.84718">
        <ele>269</ele>
        <time>2017-07-06T08:33:39Z</time>
      </trkpt>
      <trkpt lat="45.94671" lon="4.84726">
        <ele>269</ele>
        <time>2017-07-06T08:33:40Z</time>
      </trkpt>
      <trkpt lat="45.94671" lon="4.84733">
        <ele>269</ele>
        <time>2017-07-06T08:33:41Z</time>
      </trkpt>
      <trkpt lat="45.94672" lon="4.84741">
        <ele>269</ele>
        <time>2017-07-06T08:33:42Z</time>
      </trkpt>
      <trkpt lat="45.94672" lon="4.84748">
        <ele>269</ele>
        <time>2017-07-06T08:33:43Z</time>
      </trkpt>
      <trkpt lat="45.94672" lon="4.84755">
        <ele>269</ele>
        <time>2017-07-06T08:33:44Z</time>
      </trkpt>
      <trkpt lat="45.94673" lon="4.84762">
        <ele>269</ele>
        <time>2017-07-06T08:33:45Z</time>
      </trkpt>
      <trkpt lat="45.94673" lon="4.84769">
        <ele>269</ele>
        <time>2017-07-06T08:33:46Z</time>
      </trkpt>
      <trkpt lat="45.94673" lon="4.84776">
        <ele>269</ele>
        <time>2017-07-06T08:33:47Z</time>
      </trkpt>
      <trkpt lat="45.94674" lon="4.84783">
        <ele>269</ele>
        <time>2017-07-06T08:33:48Z</time>
      </trkpt>
      <trkpt lat="45.94674" lon="4.84791">
        <ele>269</ele>
        <time>2017-07-06T08:33:49Z</time>
      </trkpt>
      <trkpt lat="45.94675" lon="4.84798">
        <ele>268</ele>
        <time>2017-07-06T08:33:50Z</time>
      </trkpt>
      <trkpt lat="45.94675" lon="4.84806">
        <ele>268</ele>
        <time>2017-07-06T08:33:51Z</time>
      </trkpt>
      <trkpt lat="45.94676" lon="4.84813">
        <ele>268</ele>
        <time>2017-07-06T08:33:52Z</time>
      </trkpt>
      <trkpt lat="45.94677" lon="4.8482">
        <ele>268</ele>
        <time>2017-07-06T08:33:53Z</time>
      </trkpt>
      <trkpt lat="45.94678" lon="4.84827">
        <ele>268</ele>
        <time>2017-07-06T08:33:54Z</time>
      </trkpt>
      <trkpt lat="45.94678" lon="4.84834">
        <ele>268</ele>
        <time>2017-07-06T08:33:55Z</time>
      </trkpt>
      <trkpt lat="45.94679" lon="4.84841">
        <ele>268</ele>
        <time>2017-07-06T08:33:56Z</time>
      </trkpt>
      <trkpt lat="45.94679" lon="4.84848">
        <ele>268</ele>
        <time>2017-07-06T08:33:57Z</time>
      </trkpt>
      <trkpt lat="45.9468" lon="4.84856">
        <ele>268</ele>
        <time>2017-07-06T08:33:58Z</time>
      </trkpt>
      <trkpt lat="45.94681" lon="4.84863">
        <ele>268</ele>
        <time>2017-07-06T08:33:59Z</time>
      </trkpt>
      <trkpt lat="45.94682" lon="4.84871">
        <ele>268</ele>
        <time>2017-07-06T08:34:00Z</time>
      </trkpt>
      <trkpt lat="45.94682" lon="4.84879">
        <ele>268</ele>
        <time>2017-07-06T08:34:01Z</time>
      </trkpt>
      <trkpt lat="45.94683" lon="4.84888">
        <ele>268</ele>
        <time>2017-07-06T08:34:02Z</time>
      </trkpt>
      <trkpt lat="45.94684" lon="4.84895">
        <ele>268</ele>
        <time>2017-07-06T08:34:03Z</time>
      </trkpt>
      <trkpt lat="45.94685" lon="4.84903">
        <ele>269</ele>
        <time>2017-07-06T08:34:04Z</time>
      </trkpt>
      <trkpt lat="45.94685" lon="4.8491">
        <ele>269</ele>
        <time>2017-07-06T08:34:05Z</time>
      </trkpt>
      <trkpt lat="45.94686" lon="4.84917">
        <ele>269</ele>
        <time>2017-07-06T08:34:06Z</time>
      </trkpt>
      <trkpt lat="45.94687" lon="4.84924">
        <ele>269</ele>
        <time>2017-07-06T08:34:07Z</time>
      </trkpt>
      <trkpt lat="45.94688" lon="4.8493">
        <ele>269</ele>
        <time>2017-07-06T08:34:08Z</time>
      </trkpt>
      <trkpt lat="45.94688" lon="4.84937">
        <ele>269</ele>
        <time>2017-07-06T08:34:09Z</time>
      </trkpt>
      <trkpt lat="45.94689" lon="4.84943">
        <ele>269</ele>
        <time>2017-07-06T08:34:10Z</time>
      </trkpt>
      <trkpt lat="45.9469" lon="4.8495">
        <ele>269</ele>
        <time>2017-07-06T08:34:11Z</time>
      </trkpt>
      <trkpt lat="45.94691" lon="4.84957">
        <ele>269</ele>
        <time>2017-07-06T08:34:12Z</time>
      </trkpt>
      <trkpt lat="45.94691" lon="4.84964">
        <ele>269</ele>
        <time>2017-07-06T08:34:13Z</time>
      </trkpt>
      <trkpt lat="45.94692" lon="4.84972">
        <ele>269</ele>
        <time>2017-07-06T08:34:14Z</time>
      </trkpt>
      <trkpt lat="45.94693" lon="4.84979">
        <ele>269</ele>
        <time>2017-07-06T08:34:15Z</time>
      </trkpt>
      <trkpt lat="45.94694" lon="4.84987">
        <ele>269</ele>
        <time>2017-07-06T08:34:16Z</time>
      </trkpt>
      <trkpt lat="45.94695" lon="4.84994">
        <ele>269</ele>
        <time>2017-07-06T08:34:17Z</time>
      </trkpt>
      <trkpt lat="45.94695" lon="4.85001">
        <ele>269</ele>
        <time>2017-07-06T08:34:18Z</time>
      </trkpt>
      <trkpt lat="45.94696" lon="4.85008">
        <ele>269</ele>
        <time>2017-07-06T08:34:19Z</time>
      </trkpt>
      <trkpt lat="45.94697" lon="4.85015">
        <ele>269</ele>
        <time>2017-07-06T08:34:20Z</time>
      </trkpt>
      <trkpt lat="45.94698" lon="4.85021">
        <ele>269</ele>
        <time>2017-07-06T08:34:21Z</time>
      </trkpt>
      <trkpt lat="45.94699" lon="4.85034">
        <ele>269</ele>
        <time>2017-07-06T08:34:23Z</time>
      </trkpt>
      <trkpt lat="45.947" lon="4.8504">
        <ele>269</ele>
        <time>2017-07-06T08:34:24Z</time>
      </trkpt>
      <trkpt lat="45.947" lon="4.85047">
        <ele>269</ele>
        <time>2017-07-06T08:34:25Z</time>
      </trkpt>
      <trkpt lat="45.94701" lon="4.85054">
        <ele>269</ele>
        <time>2017-07-06T08:34:26Z</time>
      </trkpt>
      <trkpt lat="45.94702" lon="4.85061">
        <ele>269</ele>
        <time>2017-07-06T08:34:27Z</time>
      </trkpt>
      <trkpt lat="45.94702" lon="4.85069">
        <ele>269</ele>
        <time>2017-07-06T08:34:28Z</time>
      </trkpt>
      <trkpt lat="45.94703" lon="4.85076">
        <ele>269</ele>
        <time>2017-07-06T08:34:29Z</time>
      </trkpt>
      <trkpt lat="45.94704" lon="4.85083">
        <ele>269</ele>
        <time>2017-07-06T08:34:30Z</time>
      </trkpt>
      <trkpt lat="45.94704" lon="4.8509">
        <ele>269</ele>
        <time>2017-07-06T08:34:31Z</time>
      </trkpt>
      <trkpt lat="45.94705" lon="4.85097">
        <ele>269</ele>
        <time>2017-07-06T08:34:32Z</time>
      </trkpt>
      <trkpt lat="45.94706" lon="4.85103">
        <ele>269</ele>
        <time>2017-07-06T08:34:33Z</time>
      </trkpt>
      <trkpt lat="45.94707" lon="4.85109">
        <ele>269</ele>
        <time>2017-07-06T08:34:34Z</time>
      </trkpt>
      <trkpt lat="45.94708" lon="4.85122">
        <ele>269</ele>
        <time>2017-07-06T08:34:36Z</time>
      </trkpt>
      <trkpt lat="45.94709" lon="4.85129">
        <ele>269</ele>
        <time>2017-07-06T08:34:37Z</time>
      </trkpt>
      <trkpt lat="45.9471" lon="4.85136">
        <ele>269</ele>
        <time>2017-07-06T08:34:38Z</time>
      </trkpt>
      <trkpt lat="45.94711" lon="4.85143">
        <ele>269</ele>
        <time>2017-07-06T08:34:39Z</time>
      </trkpt>
      <trkpt lat="45.94712" lon="4.85151">
        <ele>269</ele>
        <time>2017-07-06T08:34:40Z</time>
      </trkpt>
      <trkpt lat="45.94712" lon="4.85158">
        <ele>269</ele>
        <time>2017-07-06T08:34:41Z</time>
      </trkpt>
      <trkpt lat="45.94713" lon="4.85166">
        <ele>269</ele>
        <time>2017-07-06T08:34:42Z</time>
      </trkpt>
      <trkpt lat="45.94714" lon="4.85173">
        <ele>269</ele>
        <time>2017-07-06T08:34:43Z</time>
      </trkpt>
      <trkpt lat="45.94714" lon="4.8518">
        <ele>269</ele>
        <time>2017-07-06T08:34:44Z</time>
      </trkpt>
      <trkpt lat="45.94715" lon="4.85186">
        <ele>269</ele>
        <time>2017-07-06T08:34:45Z</time>
      </trkpt>
      <trkpt lat="45.94716" lon="4.85193">
        <ele>269</ele>
        <time>2017-07-06T08:34:46Z</time>
      </trkpt>
      <trkpt lat="45.94716" lon="4.85199">
        <ele>269</ele>
        <time>2017-07-06T08:34:47Z</time>
      </trkpt>
      <trkpt lat="45.94717" lon="4.85206">
        <ele>269</ele>
        <time>2017-07-06T08:34:48Z</time>
      </trkpt>
      <trkpt lat="45.94718" lon="4.85213">
        <ele>269</ele>
        <time>2017-07-06T08:34:49Z</time>
      </trkpt>
      <trkpt lat="45.94718" lon="4.8522">
        <ele>269</ele>
        <time>2017-07-06T08:34:50Z</time>
      </trkpt>
      <trkpt lat="45.94719" lon="4.85228">
        <ele>269</ele>
        <time>2017-07-06T08:34:51Z</time>
      </trkpt>
      <trkpt lat="45.9472" lon="4.85236">
        <ele>269</ele>
        <time>2017-07-06T08:34:52Z</time>
      </trkpt>
      <trkpt lat="45.94721" lon="4.85243">
        <ele>269</ele>
        <time>2017-07-06T08:34:53Z</time>
      </trkpt>
      <trkpt lat="45.94722" lon="4.8525">
        <ele>269</ele>
        <time>2017-07-06T08:34:54Z</time>
      </trkpt>
      <trkpt lat="45.94723" lon="4.85257">
        <ele>269</ele>
        <time>2017-07-06T08:34:55Z</time>
      </trkpt>
      <trkpt lat="45.94723" lon="4.85264">
        <ele>269</ele>
        <time>2017-07-06T08:34:56Z</time>
      </trkpt>
      <trkpt lat="45.94724" lon="4.85271">
        <ele>269</ele>
        <time>2017-07-06T08:34:57Z</time>
      </trkpt>
      <trkpt lat="45.94725" lon="4.85277">
        <ele>269</ele>
        <time>2017-07-06T08:34:58Z</time>
      </trkpt>
      <trkpt lat="45.94725" lon="4.85283">
        <ele>269</ele>
        <time>2017-07-06T08:34:59Z</time>
      </trkpt>
      <trkpt lat="45.94726" lon="4.8529">
        <ele>269</ele>
        <time>2017-07-06T08:35:00Z</time>
      </trkpt>
      <trkpt lat="45.94727" lon="4.85297">
        <ele>270</ele>
        <time>2017-07-06T08:35:01Z</time>
      </trkpt>
      <trkpt lat="45.94727" lon="4.85304">
        <ele>270</ele>
        <time>2017-07-06T08:35:02Z</time>
      </trkpt>
      <trkpt lat="45.94728" lon="4.85311">
        <ele>270</ele>
        <time>2017-07-06T08:35:03Z</time>
      </trkpt>
      <trkpt lat="45.94729" lon="4.85318">
        <ele>270</ele>
        <time>2017-07-06T08:35:04Z</time>
      </trkpt>
      <trkpt lat="45.94729" lon="4.85325">
        <ele>270</ele>
        <time>2017-07-06T08:35:05Z</time>
      </trkpt>
      <trkpt lat="45.9473" lon="4.85331">
        <ele>270</ele>
        <time>2017-07-06T08:35:06Z</time>
      </trkpt>
      <trkpt lat="45.94731" lon="4.85338">
        <ele>271</ele>
        <time>2017-07-06T08:35:07Z</time>
      </trkpt>
      <trkpt lat="45.94732" lon="4.85345">
        <ele>271</ele>
        <time>2017-07-06T08:35:08Z</time>
      </trkpt>
      <trkpt lat="45.94732" lon="4.85352">
        <ele>271</ele>
        <time>2017-07-06T08:35:09Z</time>
      </trkpt>
      <trkpt lat="45.94733" lon="4.85359">
        <ele>271</ele>
        <time>2017-07-06T08:35:10Z</time>
      </trkpt>
      <trkpt lat="45.94734" lon="4.85366">
        <ele>271</ele>
        <time>2017-07-06T08:35:11Z</time>
      </trkpt>
      <trkpt lat="45.94734" lon="4.85373">
        <ele>271</ele>
        <time>2017-07-06T08:35:12Z</time>
      </trkpt>
      <trkpt lat="45.94735" lon="4.85381">
        <ele>271</ele>
        <time>2017-07-06T08:35:13Z</time>
      </trkpt>
      <trkpt lat="45.94736" lon="4.85389">
        <ele>272</ele>
        <time>2017-07-06T08:35:14Z</time>
      </trkpt>
      <trkpt lat="45.94737" lon="4.85396">
        <ele>272</ele>
        <time>2017-07-06T08:35:15Z</time>
      </trkpt>
      <trkpt lat="45.94737" lon="4.85403">
        <ele>272</ele>
        <time>2017-07-06T08:35:16Z</time>
      </trkpt>
      <trkpt lat="45.94738" lon="4.8541">
        <ele>272</ele>
        <time>2017-07-06T08:35:17Z</time>
      </trkpt>
      <trkpt lat="45.94739" lon="4.85422">
        <ele>273</ele>
        <time>2017-07-06T08:35:19Z</time>
      </trkpt>
      <trkpt lat="45.9474" lon="4.85428">
        <ele>273</ele>
        <time>2017-07-06T08:35:20Z</time>
      </trkpt>
      <trkpt lat="45.94742" lon="4.85441">
        <ele>274</ele>
        <time>2017-07-06T08:35:22Z</time>
      </trkpt>
      <trkpt lat="45.94742" lon="4.85447">
        <ele>274</ele>
        <time>2017-07-06T08:35:23Z</time>
      </trkpt>
      <trkpt lat="45.94743" lon="4.85454">
        <ele>274</ele>
        <time>2017-07-06T08:35:24Z</time>
      </trkpt>
      <trkpt lat="45.94743" lon="4.85461">
        <ele>274</ele>
        <time>2017-07-06T08:35:25Z</time>
      </trkpt>
      <trkpt lat="45.94744" lon="4.85469">
        <ele>274</ele>
        <time>2017-07-06T08:35:26Z</time>
      </trkpt>
      <trkpt lat="45.94746" lon="4.85476">
        <ele>275</ele>
        <time>2017-07-06T08:35:27Z</time>
      </trkpt>
      <trkpt lat="45.94747" lon="4.85483">
        <ele>275</ele>
        <time>2017-07-06T08:35:28Z</time>
      </trkpt>
      <trkpt lat="45.94748" lon="4.85491">
        <ele>275</ele>
        <time>2017-07-06T08:35:29Z</time>
      </trkpt>
      <trkpt lat="45.94749" lon="4.85498">
        <ele>276</ele>
        <time>2017-07-06T08:35:30Z</time>
      </trkpt>
      <trkpt lat="45.9475" lon="4.85505">
        <ele>276</ele>
        <time>2017-07-06T08:35:31Z</time>
      </trkpt>
      <trkpt lat="45.94751" lon="4.85512">
        <ele>277</ele>
        <time>2017-07-06T08:35:32Z</time>
      </trkpt>
      <trkpt lat="45.94752" lon="4.8552">
        <ele>277</ele>
        <time>2017-07-06T08:35:33Z</time>
      </trkpt>
      <trkpt lat="45.94753" lon="4.85527">
        <ele>277</ele>
        <time>2017-07-06T08:35:34Z</time>
      </trkpt>
      <trkpt lat="45.94754" lon="4.85534">
        <ele>278</ele>
        <time>2017-07-06T08:35:35Z</time>
      </trkpt>
      <trkpt lat="45.94755" lon="4.85541">
        <ele>278</ele>
        <time>2017-07-06T08:35:36Z</time>
      </trkpt>
      <trkpt lat="45.94756" lon="4.85548">
        <ele>278</ele>
        <time>2017-07-06T08:35:37Z</time>
      </trkpt>
      <trkpt lat="45.94757" lon="4.85554">
        <ele>278</ele>
        <time>2017-07-06T08:35:38Z</time>
      </trkpt>
      <trkpt lat="45.94758" lon="4.85561">
        <ele>278</ele>
        <time>2017-07-06T08:35:39Z</time>
      </trkpt>
      <trkpt lat="45.9476" lon="4.85568">
        <ele>279</ele>
        <time>2017-07-06T08:35:40Z</time>
      </trkpt>
      <trkpt lat="45.94761" lon="4.85574">
        <ele>279</ele>
        <time>2017-07-06T08:35:41Z</time>
      </trkpt>
      <trkpt lat="45.94762" lon="4.8558">
        <ele>279</ele>
        <time>2017-07-06T08:35:42Z</time>
      </trkpt>
      <trkpt lat="45.94763" lon="4.85586">
        <ele>280</ele>
        <time>2017-07-06T08:35:43Z</time>
      </trkpt>
      <trkpt lat="45.94765" lon="4.85598">
        <ele>280</ele>
        <time>2017-07-06T08:35:45Z</time>
      </trkpt>
      <trkpt lat="45.94767" lon="4.85605">
        <ele>280</ele>
        <time>2017-07-06T08:35:46Z</time>
      </trkpt>
      <trkpt lat="45.94768" lon="4.85611">
        <ele>280</ele>
        <time>2017-07-06T08:35:47Z</time>
      </trkpt>
      <trkpt lat="45.94769" lon="4.85617">
        <ele>280</ele>
        <time>2017-07-06T08:35:48Z</time>
      </trkpt>
      <trkpt lat="45.94771" lon="4.85623">
        <ele>280</ele>
        <time>2017-07-06T08:35:49Z</time>
      </trkpt>
      <trkpt lat="45.94772" lon="4.8563">
        <ele>280</ele>
        <time>2017-07-06T08:35:50Z</time>
      </trkpt>
      <trkpt lat="45.94774" lon="4.85636">
        <ele>281</ele>
        <time>2017-07-06T08:35:51Z</time>
      </trkpt>
      <trkpt lat="45.94776" lon="4.85643">
        <ele>281</ele>
        <time>2017-07-06T08:35:52Z</time>
      </trkpt>
      <trkpt lat="45.94777" lon="4.85649">
        <ele>281</ele>
        <time>2017-07-06T08:35:53Z</time>
      </trkpt>
      <trkpt lat="45.94779" lon="4.85656">
        <ele>281</ele>
        <time>2017-07-06T08:35:54Z</time>
      </trkpt>
      <trkpt lat="45.94782" lon="4.85667">
        <ele>280</ele>
        <time>2017-07-06T08:35:56Z</time>
      </trkpt>
      <trkpt lat="45.94783" lon="4.85672">
        <ele>280</ele>
        <time>2017-07-06T08:35:57Z</time>
      </trkpt>
      <trkpt lat="45.94786" lon="4.85682">
        <ele>280</ele>
        <time>2017-07-06T08:35:59Z</time>
      </trkpt>
      <trkpt lat="45.94787" lon="4.85686">
        <ele>280</ele>
        <time>2017-07-06T08:36:00Z</time>
      </trkpt>
      <trkpt lat="45.94789" lon="4.85695">
        <ele>280</ele>
        <time>2017-07-06T08:36:02Z</time>
      </trkpt>
      <trkpt lat="45.94791" lon="4.857">
        <ele>280</ele>
        <time>2017-07-06T08:36:03Z</time>
      </trkpt>
      <trkpt lat="45.94794" lon="4.85711">
        <ele>280</ele>
        <time>2017-07-06T08:36:05Z</time>
      </trkpt>
      <trkpt lat="45.94796" lon="4.85717">
        <ele>280</ele>
        <time>2017-07-06T08:36:06Z</time>
      </trkpt>
      <trkpt lat="45.94798" lon="4.85728">
        <ele>280</ele>
        <time>2017-07-06T08:36:08Z</time>
      </trkpt>
      <trkpt lat="45.948" lon="4.85734">
        <ele>280</ele>
        <time>2017-07-06T08:36:09Z</time>
      </trkpt>
      <trkpt lat="45.94803" lon="4.85746">
        <ele>279</ele>
        <time>2017-07-06T08:36:11Z</time>
      </trkpt>
      <trkpt lat="45.94804" lon="4.85753">
        <ele>278</ele>
        <time>2017-07-06T08:36:12Z</time>
      </trkpt>
      <trkpt lat="45.94806" lon="4.85759">
        <ele>278</ele>
        <time>2017-07-06T08:36:13Z</time>
      </trkpt>
      <trkpt lat="45.94808" lon="4.85766">
        <ele>278</ele>
        <time>2017-07-06T08:36:14Z</time>
      </trkpt>
      <trkpt lat="45.9481" lon="4.85772">
        <ele>278</ele>
        <time>2017-07-06T08:36:15Z</time>
      </trkpt>
      <trkpt lat="45.94812" lon="4.85779">
        <ele>278</ele>
        <time>2017-07-06T08:36:16Z</time>
      </trkpt>
      <trkpt lat="45.94813" lon="4.85786">
        <ele>278</ele>
        <time>2017-07-06T08:36:17Z</time>
      </trkpt>
      <trkpt lat="45.94815" lon="4.85794">
        <ele>278</ele>
        <time>2017-07-06T08:36:18Z</time>
      </trkpt>
      <trkpt lat="45.94817" lon="4.85801">
        <ele>278</ele>
        <time>2017-07-06T08:36:19Z</time>
      </trkpt>
      <trkpt lat="45.94819" lon="4.85808">
        <ele>278</ele>
        <time>2017-07-06T08:36:20Z</time>
      </trkpt>
      <trkpt lat="45.9482" lon="4.85816">
        <ele>278</ele>
        <time>2017-07-06T08:36:21Z</time>
      </trkpt>
      <trkpt lat="45.94822" lon="4.85823">
        <ele>278</ele>
        <time>2017-07-06T08:36:22Z</time>
      </trkpt>
      <trkpt lat="45.94824" lon="4.8583">
        <ele>277</ele>
        <time>2017-07-06T08:36:23Z</time>
      </trkpt>
      <trkpt lat="45.94826" lon="4.85837">
        <ele>277</ele>
        <time>2017-07-06T08:36:24Z</time>
      </trkpt>
      <trkpt lat="45.94828" lon="4.85844">
        <ele>277</ele>
        <time>2017-07-06T08:36:25Z</time>
      </trkpt>
      <trkpt lat="45.9483" lon="4.85851">
        <ele>277</ele>
        <time>2017-07-06T08:36:26Z</time>
      </trkpt>
      <trkpt lat="45.94832" lon="4.85858">
        <ele>277</ele>
        <time>2017-07-06T08:36:27Z</time>
      </trkpt>
      <trkpt lat="45.94834" lon="4.85865">
        <ele>276</ele>
        <time>2017-07-06T08:36:28Z</time>
      </trkpt>
      <trkpt lat="45.94836" lon="4.85872">
        <ele>276</ele>
        <time>2017-07-06T08:36:29Z</time>
      </trkpt>
      <trkpt lat="45.94838" lon="4.85879">
        <ele>276</ele>
        <time>2017-07-06T08:36:30Z</time>
      </trkpt>
      <trkpt lat="45.9484" lon="4.85887">
        <ele>276</ele>
        <time>2017-07-06T08:36:31Z</time>
      </trkpt>
      <trkpt lat="45.94842" lon="4.85894">
        <ele>276</ele>
        <time>2017-07-06T08:36:32Z</time>
      </trkpt>
      <trkpt lat="45.94844" lon="4.85901">
        <ele>276</ele>
        <time>2017-07-06T08:36:33Z</time>
      </trkpt>
      <trkpt lat="45.94846" lon="4.85909">
        <ele>275</ele>
        <time>2017-07-06T08:36:34Z</time>
      </trkpt>
      <trkpt lat="45.94848" lon="4.85917">
        <ele>275</ele>
        <time>2017-07-06T08:36:35Z</time>
      </trkpt>
      <trkpt lat="45.9485" lon="4.85924">
        <ele>275</ele>
        <time>2017-07-06T08:36:36Z</time>
      </trkpt>
      <trkpt lat="45.94852" lon="4.85931">
        <ele>275</ele>
        <time>2017-07-06T08:36:37Z</time>
      </trkpt>
      <trkpt lat="45.94854" lon="4.85939">
        <ele>275</ele>
        <time>2017-07-06T08:36:38Z</time>
      </trkpt>
      <trkpt lat="45.94856" lon="4.85946">
        <ele>275</ele>
        <time>2017-07-06T08:36:39Z</time>
      </trkpt>
      <trkpt lat="45.94858" lon="4.85954">
        <ele>275</ele>
        <time>2017-07-06T08:36:40Z</time>
      </trkpt>
      <trkpt lat="45.9486" lon="4.85961">
        <ele>275</ele>
        <time>2017-07-06T08:36:41Z</time>
      </trkpt>
      <trkpt lat="45.94862" lon="4.85968">
        <ele>275</ele>
        <time>2017-07-06T08:36:42Z</time>
      </trkpt>
      <trkpt lat="45.94863" lon="4.85976">
        <ele>275</ele>
        <time>2017-07-06T08:36:43Z</time>
      </trkpt>
      <trkpt lat="45.94865" lon="4.85983">
        <ele>275</ele>
        <time>2017-07-06T08:36:44Z</time>
      </trkpt>
      <trkpt lat="45.94867" lon="4.8599">
        <ele>275</ele>
        <time>2017-07-06T08:36:45Z</time>
      </trkpt>
      <trkpt lat="45.94868" lon="4.85997">
        <ele>275</ele>
        <time>2017-07-06T08:36:46Z</time>
      </trkpt>
      <trkpt lat="45.9487" lon="4.86004">
        <ele>274</ele>
        <time>2017-07-06T08:36:47Z</time>
      </trkpt>
      <trkpt lat="45.94872" lon="4.86011">
        <ele>274</ele>
        <time>2017-07-06T08:36:48Z</time>
      </trkpt>
      <trkpt lat="45.94874" lon="4.86017">
        <ele>274</ele>
        <time>2017-07-06T08:36:49Z</time>
      </trkpt>
      <trkpt lat="45.94876" lon="4.86024">
        <ele>274</ele>
        <time>2017-07-06T08:36:50Z</time>
      </trkpt>
      <trkpt lat="45.94877" lon="4.86031">
        <ele>274</ele>
        <time>2017-07-06T08:36:51Z</time>
      </trkpt>
      <trkpt lat="45.94879" lon="4.86038">
        <ele>274</ele>
        <time>2017-07-06T08:36:52Z</time>
      </trkpt>
      <trkpt lat="45.94881" lon="4.86045">
        <ele>274</ele>
        <time>2017-07-06T08:36:53Z</time>
      </trkpt>
      <trkpt lat="45.94883" lon="4.86052">
        <ele>274</ele>
        <time>2017-07-06T08:36:54Z</time>
      </trkpt>
      <trkpt lat="45.94885" lon="4.8606">
        <ele>274</ele>
        <time>2017-07-06T08:36:55Z</time>
      </trkpt>
      <trkpt lat="45.94887" lon="4.86067">
        <ele>274</ele>
        <time>2017-07-06T08:36:56Z</time>
      </trkpt>
      <trkpt lat="45.94889" lon="4.86074">
        <ele>274</ele>
        <time>2017-07-06T08:36:57Z</time>
      </trkpt>
      <trkpt lat="45.94891" lon="4.8608">
        <ele>274</ele>
        <time>2017-07-06T08:36:58Z</time>
      </trkpt>
      <trkpt lat="45.94893" lon="4.86087">
        <ele>274</ele>
        <time>2017-07-06T08:36:59Z</time>
      </trkpt>
      <trkpt lat="45.94895" lon="4.86094">
        <ele>274</ele>
        <time>2017-07-06T08:37:00Z</time>
      </trkpt>
      <trkpt lat="45.94897" lon="4.861">
        <ele>274</ele>
        <time>2017-07-06T08:37:01Z</time>
      </trkpt>
      <trkpt lat="45.949" lon="4.86107">
        <ele>274</ele>
        <time>2017-07-06T08:37:02Z</time>
      </trkpt>
      <trkpt lat="45.94902" lon="4.86114">
        <ele>274</ele>
        <time>2017-07-06T08:37:03Z</time>
      </trkpt>
      <trkpt lat="45.94905" lon="4.8612">
        <ele>274</ele>
        <time>2017-07-06T08:37:04Z</time>
      </trkpt>
      <trkpt lat="45.94908" lon="4.86127">
        <ele>274</ele>
        <time>2017-07-06T08:37:05Z</time>
      </trkpt>
      <trkpt lat="45.94911" lon="4.86133">
        <ele>274</ele>
        <time>2017-07-06T08:37:06Z</time>
      </trkpt>
      <trkpt lat="45.94915" lon="4.86139">
        <ele>274</ele>
        <time>2017-07-06T08:37:07Z</time>
      </trkpt>
      <trkpt lat="45.94919" lon="4.86144">
        <ele>273</ele>
        <time>2017-07-06T08:37:08Z</time>
      </trkpt>
      <trkpt lat="45.94923" lon="4.8615">
        <ele>273</ele>
        <time>2017-07-06T08:37:09Z</time>
      </trkpt>
      <trkpt lat="45.94927" lon="4.86155">
        <ele>273</ele>
        <time>2017-07-06T08:37:10Z</time>
      </trkpt>
      <trkpt lat="45.94931" lon="4.86161">
        <ele>273</ele>
        <time>2017-07-06T08:37:11Z</time>
      </trkpt>
      <trkpt lat="45.94935" lon="4.86167">
        <ele>273</ele>
        <time>2017-07-06T08:37:12Z</time>
      </trkpt>
      <trkpt lat="45.94939" lon="4.86172">
        <ele>273</ele>
        <time>2017-07-06T08:37:13Z</time>
      </trkpt>
      <trkpt lat="45.94944" lon="4.86177">
        <ele>273</ele>
        <time>2017-07-06T08:37:14Z</time>
      </trkpt>
      <trkpt lat="45.94948" lon="4.86183">
        <ele>273</ele>
        <time>2017-07-06T08:37:15Z</time>
      </trkpt>
      <trkpt lat="45.94952" lon="4.86188">
        <ele>273</ele>
        <time>2017-07-06T08:37:16Z</time>
      </trkpt>
      <trkpt lat="45.94957" lon="4.86194">
        <ele>273</ele>
        <time>2017-07-06T08:37:17Z</time>
      </trkpt>
      <trkpt lat="45.94961" lon="4.862">
        <ele>272</ele>
        <time>2017-07-06T08:37:18Z</time>
      </trkpt>
      <trkpt lat="45.94966" lon="4.86206">
        <ele>272</ele>
        <time>2017-07-06T08:37:19Z</time>
      </trkpt>
      <trkpt lat="45.94971" lon="4.86212">
        <ele>272</ele>
        <time>2017-07-06T08:37:20Z</time>
      </trkpt>
      <trkpt lat="45.94975" lon="4.86217">
        <ele>272</ele>
        <time>2017-07-06T08:37:21Z</time>
      </trkpt>
      <trkpt lat="45.9498" lon="4.86223">
        <ele>272</ele>
        <time>2017-07-06T08:37:22Z</time>
      </trkpt>
      <trkpt lat="45.94985" lon="4.86229">
        <ele>272</ele>
        <time>2017-07-06T08:37:23Z</time>
      </trkpt>
      <trkpt lat="45.9499" lon="4.86235">
        <ele>272</ele>
        <time>2017-07-06T08:37:24Z</time>
      </trkpt>
      <trkpt lat="45.94995" lon="4.86241">
        <ele>272</ele>
        <time>2017-07-06T08:37:25Z</time>
      </trkpt>
      <trkpt lat="45.95" lon="4.86247">
        <ele>272</ele>
        <time>2017-07-06T08:37:26Z</time>
      </trkpt>
      <trkpt lat="45.95005" lon="4.86254">
        <ele>272</ele>
        <time>2017-07-06T08:37:27Z</time>
      </trkpt>
      <trkpt lat="45.9501" lon="4.8626">
        <ele>272</ele>
        <time>2017-07-06T08:37:28Z</time>
      </trkpt>
      <trkpt lat="45.95015" lon="4.86266">
        <ele>271</ele>
        <time>2017-07-06T08:37:29Z</time>
      </trkpt>
      <trkpt lat="45.95021" lon="4.86273">
        <ele>271</ele>
        <time>2017-07-06T08:37:30Z</time>
      </trkpt>
      <trkpt lat="45.95026" lon="4.86279">
        <ele>271</ele>
        <time>2017-07-06T08:37:31Z</time>
      </trkpt>
      <trkpt lat="45.95031" lon="4.86286">
        <ele>271</ele>
        <time>2017-07-06T08:37:32Z</time>
      </trkpt>
      <trkpt lat="45.95037" lon="4.86293">
        <ele>271</ele>
        <time>2017-07-06T08:37:33Z</time>
      </trkpt>
      <trkpt lat="45.95042" lon="4.86299">
        <ele>271</ele>
        <time>2017-07-06T08:37:34Z</time>
      </trkpt>
      <trkpt lat="45.95048" lon="4.86306">
        <ele>271</ele>
        <time>2017-07-06T08:37:35Z</time>
      </trkpt>
      <trkpt lat="45.95054" lon="4.86313">
        <ele>271</ele>
        <time>2017-07-06T08:37:36Z</time>
      </trkpt>
      <trkpt lat="45.95059" lon="4.86319">
        <ele>270</ele>
        <time>2017-07-06T08:37:37Z</time>
      </trkpt>
      <trkpt lat="45.95065" lon="4.86326">
        <ele>270</ele>
        <time>2017-07-06T08:37:38Z</time>
      </trkpt>
      <trkpt lat="45.9507" lon="4.86333">
        <ele>270</ele>
        <time>2017-07-06T08:37:39Z</time>
      </trkpt>
      <trkpt lat="45.95076" lon="4.8634">
        <ele>270</ele>
        <time>2017-07-06T08:37:40Z</time>
      </trkpt>
      <trkpt lat="45.95081" lon="4.86347">
        <ele>270</ele>
        <time>2017-07-06T08:37:41Z</time>
      </trkpt>
      <trkpt lat="45.95087" lon="4.86353">
        <ele>269</ele>
        <time>2017-07-06T08:37:42Z</time>
      </trkpt>
      <trkpt lat="45.95092" lon="4.8636">
        <ele>269</ele>
        <time>2017-07-06T08:37:43Z</time>
      </trkpt>
      <trkpt lat="45.95098" lon="4.86367">
        <ele>269</ele>
        <time>2017-07-06T08:37:44Z</time>
      </trkpt>
      <trkpt lat="45.95103" lon="4.86373">
        <ele>269</ele>
        <time>2017-07-06T08:37:45Z</time>
      </trkpt>
      <trkpt lat="45.95108" lon="4.8638">
        <ele>269</ele>
        <time>2017-07-06T08:37:46Z</time>
      </trkpt>
      <trkpt lat="45.95114" lon="4.86386">
        <ele>269</ele>
        <time>2017-07-06T08:37:47Z</time>
      </trkpt>
      <trkpt lat="45.95119" lon="4.86392">
        <ele>269</ele>
        <time>2017-07-06T08:37:48Z</time>
      </trkpt>
      <trkpt lat="45.95124" lon="4.86398">
        <ele>269</ele>
        <time>2017-07-06T08:37:49Z</time>
      </trkpt>
      <trkpt lat="45.95129" lon="4.86404">
        <ele>268</ele>
        <time>2017-07-06T08:37:50Z</time>
      </trkpt>
      <trkpt lat="45.95133" lon="4.8641">
        <ele>268</ele>
        <time>2017-07-06T08:37:51Z</time>
      </trkpt>
      <trkpt lat="45.95138" lon="4.86415">
        <ele>268</ele>
        <time>2017-07-06T08:37:52Z</time>
      </trkpt>
      <trkpt lat="45.95143" lon="4.86421">
        <ele>268</ele>
        <time>2017-07-06T08:37:53Z</time>
      </trkpt>
      <trkpt lat="45.95147" lon="4.86427">
        <ele>268</ele>
        <time>2017-07-06T08:37:54Z</time>
      </trkpt>
      <trkpt lat="45.95152" lon="4.86432">
        <ele>268</ele>
        <time>2017-07-06T08:37:55Z</time>
      </trkpt>
      <trkpt lat="45.95156" lon="4.86437">
        <ele>268</ele>
        <time>2017-07-06T08:37:56Z</time>
      </trkpt>
      <trkpt lat="45.9516" lon="4.86442">
        <ele>268</ele>
        <time>2017-07-06T08:37:57Z</time>
      </trkpt>
      <trkpt lat="45.95165" lon="4.86447">
        <ele>269</ele>
        <time>2017-07-06T08:37:58Z</time>
      </trkpt>
      <trkpt lat="45.95169" lon="4.86452">
        <ele>268</ele>
        <time>2017-07-06T08:37:59Z</time>
      </trkpt>
      <trkpt lat="45.95173" lon="4.86457">
        <ele>268</ele>
        <time>2017-07-06T08:38:00Z</time>
      </trkpt>
      <trkpt lat="45.95179" lon="4.86464">
        <ele>268</ele>
        <time>2017-07-06T08:38:02Z</time>
      </trkpt>
      <trkpt lat="45.95181" lon="4.86467">
        <ele>268</ele>
        <time>2017-07-06T08:38:03Z</time>
      </trkpt>
      <trkpt lat="45.95186" lon="4.86473">
        <ele>268</ele>
        <time>2017-07-06T08:38:05Z</time>
      </trkpt>
      <trkpt lat="45.95189" lon="4.86476">
        <ele>268</ele>
        <time>2017-07-06T08:38:06Z</time>
      </trkpt>
      <trkpt lat="45.95195" lon="4.86481">
        <ele>268</ele>
        <time>2017-07-06T08:38:09Z</time>
      </trkpt>
      <trkpt lat="45.95198" lon="4.86484">
        <ele>268</ele>
        <time>2017-07-06T08:38:10Z</time>
      </trkpt>
      <trkpt lat="45.95201" lon="4.86488">
        <ele>268</ele>
        <time>2017-07-06T08:38:11Z</time>
      </trkpt>
      <trkpt lat="45.95205" lon="4.86493">
        <ele>268</ele>
        <time>2017-07-06T08:38:12Z</time>
      </trkpt>
      <trkpt lat="45.95209" lon="4.86499">
        <ele>268</ele>
        <time>2017-07-06T08:38:13Z</time>
      </trkpt>
      <trkpt lat="45.95213" lon="4.86505">
        <ele>268</ele>
        <time>2017-07-06T08:38:14Z</time>
      </trkpt>
      <trkpt lat="45.95218" lon="4.86512">
        <ele>268</ele>
        <time>2017-07-06T08:38:15Z</time>
      </trkpt>
      <trkpt lat="45.95222" lon="4.86517">
        <ele>268</ele>
        <time>2017-07-06T08:38:16Z</time>
      </trkpt>
      <trkpt lat="45.95227" lon="4.86522">
        <ele>268</ele>
        <time>2017-07-06T08:38:17Z</time>
      </trkpt>
      <trkpt lat="45.95233" lon="4.86527">
        <ele>268</ele>
        <time>2017-07-06T08:38:18Z</time>
      </trkpt>
      <trkpt lat="45.95238" lon="4.86532">
        <ele>268</ele>
        <time>2017-07-06T08:38:19Z</time>
      </trkpt>
      <trkpt lat="45.95243" lon="4.86538">
        <ele>268</ele>
        <time>2017-07-06T08:38:20Z</time>
      </trkpt>
      <trkpt lat="45.95247" lon="4.86544">
        <ele>268</ele>
        <time>2017-07-06T08:38:21Z</time>
      </trkpt>
      <trkpt lat="45.95251" lon="4.86549">
        <ele>267</ele>
        <time>2017-07-06T08:38:22Z</time>
      </trkpt>
      <trkpt lat="45.95255" lon="4.86555">
        <ele>267</ele>
        <time>2017-07-06T08:38:23Z</time>
      </trkpt>
      <trkpt lat="45.95258" lon="4.86562">
        <ele>267</ele>
        <time>2017-07-06T08:38:24Z</time>
      </trkpt>
      <trkpt lat="45.95259" lon="4.86569">
        <ele>267</ele>
        <time>2017-07-06T08:38:25Z</time>
      </trkpt>
      <trkpt lat="45.95258" lon="4.86576">
        <ele>268</ele>
        <time>2017-07-06T08:38:26Z</time>
      </trkpt>
      <trkpt lat="45.95252" lon="4.86585">
        <ele>268</ele>
        <time>2017-07-06T08:38:28Z</time>
      </trkpt>
      <trkpt lat="45.95248" lon="4.86587">
        <ele>268</ele>
        <time>2017-07-06T08:38:29Z</time>
      </trkpt>
      <trkpt lat="45.95241" lon="4.86587">
        <ele>268</ele>
        <time>2017-07-06T08:38:31Z</time>
      </trkpt>
      <trkpt lat="45.95236" lon="4.86586">
        <ele>269</ele>
        <time>2017-07-06T08:38:32Z</time>
      </trkpt>
      <trkpt lat="45.95232" lon="4.86585">
        <ele>269</ele>
        <time>2017-07-06T08:38:33Z</time>
      </trkpt>
      <trkpt lat="45.95227" lon="4.86584">
        <ele>269</ele>
        <time>2017-07-06T08:38:34Z</time>
      </trkpt>
      <trkpt lat="45.95222" lon="4.86583">
        <ele>268</ele>
        <time>2017-07-06T08:38:35Z</time>
      </trkpt>
      <trkpt lat="45.95218" lon="4.86582">
        <ele>268</ele>
        <time>2017-07-06T08:38:36Z</time>
      </trkpt>
      <trkpt lat="45.95213" lon="4.8658">
        <ele>268</ele>
        <time>2017-07-06T08:38:37Z</time>
      </trkpt>
      <trkpt lat="45.95208" lon="4.86579">
        <ele>268</ele>
        <time>2017-07-06T08:38:38Z</time>
      </trkpt>
      <trkpt lat="45.95203" lon="4.86579">
        <ele>268</ele>
        <time>2017-07-06T08:38:39Z</time>
      </trkpt>
      <trkpt lat="45.95199" lon="4.86579">
        <ele>268</ele>
        <time>2017-07-06T08:38:40Z</time>
      </trkpt>
      <trkpt lat="45.9519" lon="4.86579">
        <ele>269</ele>
        <time>2017-07-06T08:38:42Z</time>
      </trkpt>
      <trkpt lat="45.95185" lon="4.86579">
        <ele>269</ele>
        <time>2017-07-06T08:38:43Z</time>
      </trkpt>
      <trkpt lat="45.95177" lon="4.8658">
        <ele>269</ele>
        <time>2017-07-06T08:38:45Z</time>
      </trkpt>
      <trkpt lat="45.95173" lon="4.8658">
        <ele>269</ele>
        <time>2017-07-06T08:38:46Z</time>
      </trkpt>
      <trkpt lat="45.95164" lon="4.8658">
        <ele>269</ele>
        <time>2017-07-06T08:38:48Z</time>
      </trkpt>
      <trkpt lat="45.9516" lon="4.86581">
        <ele>269</ele>
        <time>2017-07-06T08:38:49Z</time>
      </trkpt>
      <trkpt lat="45.95152" lon="4.86581">
        <ele>269</ele>
        <time>2017-07-06T08:38:51Z</time>
      </trkpt>
      <trkpt lat="45.95148" lon="4.86582">
        <ele>270</ele>
        <time>2017-07-06T08:38:52Z</time>
      </trkpt>
      <trkpt lat="45.9514" lon="4.86583">
        <ele>270</ele>
        <time>2017-07-06T08:38:54Z</time>
      </trkpt>
      <trkpt lat="45.95136" lon="4.86583">
        <ele>270</ele>
        <time>2017-07-06T08:38:55Z</time>
      </trkpt>
      <trkpt lat="45.95128" lon="4.86584">
        <ele>270</ele>
        <time>2017-07-06T08:38:57Z</time>
      </trkpt>
      <trkpt lat="45.95125" lon="4.86585">
        <ele>270</ele>
        <time>2017-07-06T08:38:58Z</time>
      </trkpt>
      <trkpt lat="45.95117" lon="4.86586">
        <ele>270</ele>
        <time>2017-07-06T08:39:00Z</time>
      </trkpt>
      <trkpt lat="45.95113" lon="4.86586">
        <ele>270</ele>
        <time>2017-07-06T08:39:01Z</time>
      </trkpt>
      <trkpt lat="45.95106" lon="4.86588">
        <ele>271</ele>
        <time>2017-07-06T08:39:03Z</time>
      </trkpt>
      <trkpt lat="45.95102" lon="4.86588">
        <ele>271</ele>
        <time>2017-07-06T08:39:04Z</time>
      </trkpt>
      <trkpt lat="45.95095" lon="4.8659">
        <ele>271</ele>
        <time>2017-07-06T08:39:06Z</time>
      </trkpt>
      <trkpt lat="45.95091" lon="4.86591">
        <ele>271</ele>
        <time>2017-07-06T08:39:07Z</time>
      </trkpt>
      <trkpt lat="45.95084" lon="4.86593">
        <ele>271</ele>
        <time>2017-07-06T08:39:09Z</time>
      </trkpt>
      <trkpt lat="45.9508" lon="4.86593">
        <ele>272</ele>
        <time>2017-07-06T08:39:10Z</time>
      </trkpt>
      <trkpt lat="45.95073" lon="4.86596">
        <ele>272</ele>
        <time>2017-07-06T08:39:12Z</time>
      </trkpt>
      <trkpt lat="45.95069" lon="4.86597">
        <ele>272</ele>
        <time>2017-07-06T08:39:13Z</time>
      </trkpt>
      <trkpt lat="45.95062" lon="4.866">
        <ele>272</ele>
        <time>2017-07-06T08:39:15Z</time>
      </trkpt>
      <trkpt lat="45.95058" lon="4.86601">
        <ele>272</ele>
        <time>2017-07-06T08:39:16Z</time>
      </trkpt>
      <trkpt lat="45.95051" lon="4.86604">
        <ele>272</ele>
        <time>2017-07-06T08:39:18Z</time>
      </trkpt>
      <trkpt lat="45.95047" lon="4.86605">
        <ele>272</ele>
        <time>2017-07-06T08:39:19Z</time>
      </trkpt>
      <trkpt lat="45.9504" lon="4.86607">
        <ele>273</ele>
        <time>2017-07-06T08:39:21Z</time>
      </trkpt>
      <trkpt lat="45.95037" lon="4.86608">
        <ele>273</ele>
        <time>2017-07-06T08:39:22Z</time>
      </trkpt>
      <trkpt lat="45.9503" lon="4.8661">
        <ele>273</ele>
        <time>2017-07-06T08:39:24Z</time>
      </trkpt>
      <trkpt lat="45.95026" lon="4.86611">
        <ele>273</ele>
        <time>2017-07-06T08:39:25Z</time>
      </trkpt>
      <trkpt lat="45.95019" lon="4.86612">
        <ele>273</ele>
        <time>2017-07-06T08:39:27Z</time>
      </trkpt>
      <trkpt lat="45.95016" lon="4.86612">
        <ele>273</ele>
        <time>2017-07-06T08:39:28Z</time>
      </trkpt>
      <trkpt lat="45.95009" lon="4.86613">
        <ele>273</ele>
        <time>2017-07-06T08:39:30Z</time>
      </trkpt>
      <trkpt lat="45.95006" lon="4.86613">
        <ele>273</ele>
        <time>2017-07-06T08:39:31Z</time>
      </trkpt>
      <trkpt lat="45.94999" lon="4.86615">
        <ele>275</ele>
        <time>2017-07-06T08:39:33Z</time>
      </trkpt>
      <trkpt lat="45.94996" lon="4.86616">
        <ele>275</ele>
        <time>2017-07-06T08:39:34Z</time>
      </trkpt>
      <trkpt lat="45.94989" lon="4.86617">
        <ele>275</ele>
        <time>2017-07-06T08:39:36Z</time>
      </trkpt>
      <trkpt lat="45.94985" lon="4.86617">
        <ele>275</ele>
        <time>2017-07-06T08:39:37Z</time>
      </trkpt>
      <trkpt lat="45.94978" lon="4.8662">
        <ele>275</ele>
        <time>2017-07-06T08:39:39Z</time>
      </trkpt>
      <trkpt lat="45.94974" lon="4.86621">
        <ele>275</ele>
        <time>2017-07-06T08:39:40Z</time>
      </trkpt>
      <trkpt lat="45.94967" lon="4.86625">
        <ele>275</ele>
        <time>2017-07-06T08:39:42Z</time>
      </trkpt>
      <trkpt lat="45.94964" lon="4.86627">
        <ele>275</ele>
        <time>2017-07-06T08:39:43Z</time>
      </trkpt>
      <trkpt lat="45.94958" lon="4.86632">
        <ele>276</ele>
        <time>2017-07-06T08:39:45Z</time>
      </trkpt>
      <trkpt lat="45.94955" lon="4.86635">
        <ele>276</ele>
        <time>2017-07-06T08:39:46Z</time>
      </trkpt>
      <trkpt lat="45.94949" lon="4.86643">
        <ele>276</ele>
        <time>2017-07-06T08:39:48Z</time>
      </trkpt>
      <trkpt lat="45.94947" lon="4.86648">
        <ele>276</ele>
        <time>2017-07-06T08:39:49Z</time>
      </trkpt>
      <trkpt lat="45.94943" lon="4.86657">
        <ele>276</ele>
        <time>2017-07-06T08:39:51Z</time>
      </trkpt>
      <trkpt lat="45.94942" lon="4.86661">
        <ele>276</ele>
        <time>2017-07-06T08:39:52Z</time>
      </trkpt>
      <trkpt lat="45.94941" lon="4.8667">
        <ele>276</ele>
        <time>2017-07-06T08:39:54Z</time>
      </trkpt>
      <trkpt lat="45.94941" lon="4.86675">
        <ele>276</ele>
        <time>2017-07-06T08:39:55Z</time>
      </trkpt>
      <trkpt lat="45.94941" lon="4.86684">
        <ele>276</ele>
        <time>2017-07-06T08:39:57Z</time>
      </trkpt>
      <trkpt lat="45.94942" lon="4.8669">
        <ele>276</ele>
        <time>2017-07-06T08:39:58Z</time>
      </trkpt>
      <trkpt lat="45.94944" lon="4.86701">
        <ele>276</ele>
        <time>2017-07-06T08:40:00Z</time>
      </trkpt>
      <trkpt lat="45.94945" lon="4.86707">
        <ele>275</ele>
        <time>2017-07-06T08:40:01Z</time>
      </trkpt>
      <trkpt lat="45.94948" lon="4.86719">
        <ele>275</ele>
        <time>2017-07-06T08:40:03Z</time>
      </trkpt>
      <trkpt lat="45.9495" lon="4.86725">
        <ele>275</ele>
        <time>2017-07-06T08:40:04Z</time>
      </trkpt>
      <trkpt lat="45.94954" lon="4.86735">
        <ele>275</ele>
        <time>2017-07-06T08:40:06Z</time>
      </trkpt>
      <trkpt lat="45.94956" lon="4.8674">
        <ele>275</ele>
        <time>2017-07-06T08:40:07Z</time>
      </trkpt>
      <trkpt lat="45.9496" lon="4.8675">
        <ele>275</ele>
        <time>2017-07-06T08:40:09Z</time>
      </trkpt>
      <trkpt lat="45.94962" lon="4.86755">
        <ele>275</ele>
        <time>2017-07-06T08:40:10Z</time>
      </trkpt>
      <trkpt lat="45.94966" lon="4.86763">
        <ele>275</ele>
        <time>2017-07-06T08:40:12Z</time>
      </trkpt>
      <trkpt lat="45.94969" lon="4.86768">
        <ele>275</ele>
        <time>2017-07-06T08:40:13Z</time>
      </trkpt>
      <trkpt lat="45.94972" lon="4.86773">
        <ele>275</ele>
        <time>2017-07-06T08:40:14Z</time>
      </trkpt>
      <trkpt lat="45.94975" lon="4.86778">
        <ele>275</ele>
        <time>2017-07-06T08:40:15Z</time>
      </trkpt>
      <trkpt lat="45.94978" lon="4.86784">
        <ele>275</ele>
        <time>2017-07-06T08:40:16Z</time>
      </trkpt>
      <trkpt lat="45.94981" lon="4.86789">
        <ele>276</ele>
        <time>2017-07-06T08:40:17Z</time>
      </trkpt>
      <trkpt lat="45.94984" lon="4.86794">
        <ele>276</ele>
        <time>2017-07-06T08:40:18Z</time>
      </trkpt>
      <trkpt lat="45.94987" lon="4.868">
        <ele>276</ele>
        <time>2017-07-06T08:40:19Z</time>
      </trkpt>
      <trkpt lat="45.94992" lon="4.8681">
        <ele>276</ele>
        <time>2017-07-06T08:40:21Z</time>
      </trkpt>
      <trkpt lat="45.94994" lon="4.86815">
        <ele>276</ele>
        <time>2017-07-06T08:40:22Z</time>
      </trkpt>
      <trkpt lat="45.94997" lon="4.8682">
        <ele>276</ele>
        <time>2017-07-06T08:40:23Z</time>
      </trkpt>
      <trkpt lat="45.95" lon="4.86825">
        <ele>276</ele>
        <time>2017-07-06T08:40:24Z</time>
      </trkpt>
      <trkpt lat="45.95002" lon="4.86831">
        <ele>276</ele>
        <time>2017-07-06T08:40:25Z</time>
      </trkpt>
      <trkpt lat="45.95005" lon="4.86836">
        <ele>276</ele>
        <time>2017-07-06T08:40:26Z</time>
      </trkpt>
      <trkpt lat="45.95007" lon="4.86842">
        <ele>276</ele>
        <time>2017-07-06T08:40:27Z</time>
      </trkpt>
      <trkpt lat="45.95009" lon="4.86848">
        <ele>275</ele>
        <time>2017-07-06T08:40:28Z</time>
      </trkpt>
      <trkpt lat="45.95011" lon="4.86854">
        <ele>275</ele>
        <time>2017-07-06T08:40:29Z</time>
      </trkpt>
      <trkpt lat="45.95013" lon="4.8686">
        <ele>275</ele>
        <time>2017-07-06T08:40:30Z</time>
      </trkpt>
      <trkpt lat="45.95016" lon="4.86866">
        <ele>275</ele>
        <time>2017-07-06T08:40:31Z</time>
      </trkpt>
      <trkpt lat="45.95018" lon="4.86871">
        <ele>275</ele>
        <time>2017-07-06T08:40:32Z</time>
      </trkpt>
      <trkpt lat="45.95021" lon="4.86883">
        <ele>275</ele>
        <time>2017-07-06T08:40:34Z</time>
      </trkpt>
      <trkpt lat="45.95023" lon="4.86889">
        <ele>275</ele>
        <time>2017-07-06T08:40:35Z</time>
      </trkpt>
      <trkpt lat="45.95025" lon="4.86895">
        <ele>275</ele>
        <time>2017-07-06T08:40:36Z</time>
      </trkpt>
      <trkpt lat="45.95027" lon="4.86902">
        <ele>275</ele>
        <time>2017-07-06T08:40:37Z</time>
      </trkpt>
      <trkpt lat="45.95029" lon="4.8691">
        <ele>275</ele>
        <time>2017-07-06T08:40:38Z</time>
      </trkpt>
      <trkpt lat="45.95031" lon="4.86917">
        <ele>275</ele>
        <time>2017-07-06T08:40:39Z</time>
      </trkpt>
      <trkpt lat="45.95033" lon="4.86924">
        <ele>276</ele>
        <time>2017-07-06T08:40:40Z</time>
      </trkpt>
      <trkpt lat="45.95035" lon="4.8693">
        <ele>276</ele>
        <time>2017-07-06T08:40:41Z</time>
      </trkpt>
      <trkpt lat="45.95037" lon="4.86937">
        <ele>276</ele>
        <time>2017-07-06T08:40:42Z</time>
      </trkpt>
      <trkpt lat="45.95039" lon="4.86943">
        <ele>276</ele>
        <time>2017-07-06T08:40:43Z</time>
      </trkpt>
      <trkpt lat="45.95042" lon="4.86955">
        <ele>276</ele>
        <time>2017-07-06T08:40:45Z</time>
      </trkpt>
      <trkpt lat="45.95045" lon="4.86961">
        <ele>276</ele>
        <time>2017-07-06T08:40:46Z</time>
      </trkpt>
      <trkpt lat="45.95047" lon="4.86966">
        <ele>276</ele>
        <time>2017-07-06T08:40:47Z</time>
      </trkpt>
      <trkpt lat="45.95049" lon="4.86972">
        <ele>276</ele>
        <time>2017-07-06T08:40:48Z</time>
      </trkpt>
      <trkpt lat="45.95053" lon="4.86983">
        <ele>276</ele>
        <time>2017-07-06T08:40:50Z</time>
      </trkpt>
      <trkpt lat="45.95056" lon="4.86988">
        <ele>276</ele>
        <time>2017-07-06T08:40:51Z</time>
      </trkpt>
      <trkpt lat="45.95058" lon="4.86993">
        <ele>276</ele>
        <time>2017-07-06T08:40:52Z</time>
      </trkpt>
      <trkpt lat="45.95061" lon="4.86999">
        <ele>276</ele>
        <time>2017-07-06T08:40:53Z</time>
      </trkpt>
      <trkpt lat="45.95064" lon="4.87004">
        <ele>277</ele>
        <time>2017-07-06T08:40:54Z</time>
      </trkpt>
      <trkpt lat="45.95066" lon="4.87009">
        <ele>277</ele>
        <time>2017-07-06T08:40:55Z</time>
      </trkpt>
      <trkpt lat="45.95069" lon="4.87015">
        <ele>277</ele>
        <time>2017-07-06T08:40:56Z</time>
      </trkpt>
      <trkpt lat="45.95072" lon="4.87021">
        <ele>277</ele>
        <time>2017-07-06T08:40:57Z</time>
      </trkpt>
      <trkpt lat="45.95075" lon="4.87027">
        <ele>277</ele>
        <time>2017-07-06T08:40:58Z</time>
      </trkpt>
      <trkpt lat="45.95079" lon="4.87034">
        <ele>277</ele>
        <time>2017-07-06T08:40:59Z</time>
      </trkpt>
      <trkpt lat="45.95082" lon="4.87041">
        <ele>277</ele>
        <time>2017-07-06T08:41:00Z</time>
      </trkpt>
      <trkpt lat="45.95086" lon="4.87048">
        <ele>277</ele>
        <time>2017-07-06T08:41:01Z</time>
      </trkpt>
      <trkpt lat="45.95089" lon="4.87055">
        <ele>277</ele>
        <time>2017-07-06T08:41:02Z</time>
      </trkpt>
      <trkpt lat="45.95091" lon="4.87061">
        <ele>277</ele>
        <time>2017-07-06T08:41:03Z</time>
      </trkpt>
      <trkpt lat="45.95094" lon="4.87068">
        <ele>277</ele>
        <time>2017-07-06T08:41:04Z</time>
      </trkpt>
      <trkpt lat="45.95097" lon="4.87074">
        <ele>277</ele>
        <time>2017-07-06T08:41:05Z</time>
      </trkpt>
      <trkpt lat="45.951" lon="4.87081">
        <ele>277</ele>
        <time>2017-07-06T08:41:06Z</time>
      </trkpt>
      <trkpt lat="45.95102" lon="4.87087">
        <ele>277</ele>
        <time>2017-07-06T08:41:07Z</time>
      </trkpt>
      <trkpt lat="45.95104" lon="4.87094">
        <ele>277</ele>
        <time>2017-07-06T08:41:08Z</time>
      </trkpt>
      <trkpt lat="45.95107" lon="4.871">
        <ele>277</ele>
        <time>2017-07-06T08:41:09Z</time>
      </trkpt>
      <trkpt lat="45.95108" lon="4.87106">
        <ele>277</ele>
        <time>2017-07-06T08:41:10Z</time>
      </trkpt>
      <trkpt lat="45.95109" lon="4.87112">
        <ele>277</ele>
        <time>2017-07-06T08:41:11Z</time>
      </trkpt>
      <trkpt lat="45.95112" lon="4.87124">
        <ele>277</ele>
        <time>2017-07-06T08:41:13Z</time>
      </trkpt>
      <trkpt lat="45.95113" lon="4.8713">
        <ele>277</ele>
        <time>2017-07-06T08:41:14Z</time>
      </trkpt>
      <trkpt lat="45.95115" lon="4.87137">
        <ele>277</ele>
        <time>2017-07-06T08:41:15Z</time>
      </trkpt>
      <trkpt lat="45.95115" lon="4.87143">
        <ele>277</ele>
        <time>2017-07-06T08:41:16Z</time>
      </trkpt>
      <trkpt lat="45.95117" lon="4.87151">
        <ele>277</ele>
        <time>2017-07-06T08:41:17Z</time>
      </trkpt>
      <trkpt lat="45.95119" lon="4.87159">
        <ele>277</ele>
        <time>2017-07-06T08:41:18Z</time>
      </trkpt>
      <trkpt lat="45.95122" lon="4.87166">
        <ele>277</ele>
        <time>2017-07-06T08:41:19Z</time>
      </trkpt>
      <trkpt lat="45.95123" lon="4.87173">
        <ele>276</ele>
        <time>2017-07-06T08:41:20Z</time>
      </trkpt>
      <trkpt lat="45.95125" lon="4.8718">
        <ele>276</ele>
        <time>2017-07-06T08:41:21Z</time>
      </trkpt>
      <trkpt lat="45.95126" lon="4.87187">
        <ele>276</ele>
        <time>2017-07-06T08:41:22Z</time>
      </trkpt>
      <trkpt lat="45.95127" lon="4.87195">
        <ele>276</ele>
        <time>2017-07-06T08:41:23Z</time>
      </trkpt>
      <trkpt lat="45.95129" lon="4.87203">
        <ele>276</ele>
        <time>2017-07-06T08:41:24Z</time>
      </trkpt>
      <trkpt lat="45.95131" lon="4.87212">
        <ele>276</ele>
        <time>2017-07-06T08:41:25Z</time>
      </trkpt>
      <trkpt lat="45.95133" lon="4.87222">
        <ele>276</ele>
        <time>2017-07-06T08:41:26Z</time>
      </trkpt>
      <trkpt lat="45.95135" lon="4.87231">
        <ele>276</ele>
        <time>2017-07-06T08:41:27Z</time>
      </trkpt>
      <trkpt lat="45.95137" lon="4.8724">
        <ele>276</ele>
        <time>2017-07-06T08:41:28Z</time>
      </trkpt>
      <trkpt lat="45.95139" lon="4.8725">
        <ele>275</ele>
        <time>2017-07-06T08:41:29Z</time>
      </trkpt>
      <trkpt lat="45.95141" lon="4.87259">
        <ele>274</ele>
        <time>2017-07-06T08:41:30Z</time>
      </trkpt>
      <trkpt lat="45.95143" lon="4.87269">
        <ele>274</ele>
        <time>2017-07-06T08:41:31Z</time>
      </trkpt>
      <trkpt lat="45.95145" lon="4.8728">
        <ele>274</ele>
        <time>2017-07-06T08:41:32Z</time>
      </trkpt>
      <trkpt lat="45.95148" lon="4.8729">
        <ele>274</ele>
        <time>2017-07-06T08:41:33Z</time>
      </trkpt>
      <trkpt lat="45.9515" lon="4.87301">
        <ele>274</ele>
        <time>2017-07-06T08:41:34Z</time>
      </trkpt>
      <trkpt lat="45.95152" lon="4.87311">
        <ele>273</ele>
        <time>2017-07-06T08:41:35Z</time>
      </trkpt>
      <trkpt lat="45.95155" lon="4.87321">
        <ele>273</ele>
        <time>2017-07-06T08:41:36Z</time>
      </trkpt>
      <trkpt lat="45.95157" lon="4.87331">
        <ele>272</ele>
        <time>2017-07-06T08:41:37Z</time>
      </trkpt>
      <trkpt lat="45.95159" lon="4.87341">
        <ele>272</ele>
        <time>2017-07-06T08:41:38Z</time>
      </trkpt>
      <trkpt lat="45.95161" lon="4.87351">
        <ele>272</ele>
        <time>2017-07-06T08:41:39Z</time>
      </trkpt>
      <trkpt lat="45.95164" lon="4.87361">
        <ele>272</ele>
        <time>2017-07-06T08:41:40Z</time>
      </trkpt>
      <trkpt lat="45.95166" lon="4.8737">
        <ele>272</ele>
        <time>2017-07-06T08:41:41Z</time>
      </trkpt>
      <trkpt lat="45.95168" lon="4.87379">
        <ele>271</ele>
        <time>2017-07-06T08:41:42Z</time>
      </trkpt>
      <trkpt lat="45.9517" lon="4.87388">
        <ele>271</ele>
        <time>2017-07-06T08:41:43Z</time>
      </trkpt>
      <trkpt lat="45.95171" lon="4.87396">
        <ele>271</ele>
        <time>2017-07-06T08:41:44Z</time>
      </trkpt>
      <trkpt lat="45.95173" lon="4.87404">
        <ele>271</ele>
        <time>2017-07-06T08:41:45Z</time>
      </trkpt>
      <trkpt lat="45.95174" lon="4.87413">
        <ele>271</ele>
        <time>2017-07-06T08:41:46Z</time>
      </trkpt>
      <trkpt lat="45.95176" lon="4.87421">
        <ele>271</ele>
        <time>2017-07-06T08:41:47Z</time>
      </trkpt>
      <trkpt lat="45.95179" lon="4.8743">
        <ele>271</ele>
        <time>2017-07-06T08:41:48Z</time>
      </trkpt>
      <trkpt lat="45.95181" lon="4.87438">
        <ele>272</ele>
        <time>2017-07-06T08:41:49Z</time>
      </trkpt>
      <trkpt lat="45.95183" lon="4.87446">
        <ele>272</ele>
        <time>2017-07-06T08:41:50Z</time>
      </trkpt>
      <trkpt lat="45.95185" lon="4.87454">
        <ele>272</ele>
        <time>2017-07-06T08:41:51Z</time>
      </trkpt>
      <trkpt lat="45.95186" lon="4.87462">
        <ele>272</ele>
        <time>2017-07-06T08:41:52Z</time>
      </trkpt>
      <trkpt lat="45.95188" lon="4.8747">
        <ele>272</ele>
        <time>2017-07-06T08:41:53Z</time>
      </trkpt>
      <trkpt lat="45.9519" lon="4.87478">
        <ele>272</ele>
        <time>2017-07-06T08:41:54Z</time>
      </trkpt>
      <trkpt lat="45.95192" lon="4.87484">
        <ele>272</ele>
        <time>2017-07-06T08:41:55Z</time>
      </trkpt>
      <trkpt lat="45.95193" lon="4.87491">
        <ele>272</ele>
        <time>2017-07-06T08:41:56Z</time>
      </trkpt>
      <trkpt lat="45.95196" lon="4.87503">
        <ele>273</ele>
        <time>2017-07-06T08:41:58Z</time>
      </trkpt>
      <trkpt lat="45.95197" lon="4.87509">
        <ele>273</ele>
        <time>2017-07-06T08:41:59Z</time>
      </trkpt>
      <trkpt lat="45.95199" lon="4.87516">
        <ele>273</ele>
        <time>2017-07-06T08:42:00Z</time>
      </trkpt>
      <trkpt lat="45.952" lon="4.87523">
        <ele>274</ele>
        <time>2017-07-06T08:42:01Z</time>
      </trkpt>
      <trkpt lat="45.95202" lon="4.8753">
        <ele>274</ele>
        <time>2017-07-06T08:42:02Z</time>
      </trkpt>
      <trkpt lat="45.95204" lon="4.87537">
        <ele>274</ele>
        <time>2017-07-06T08:42:03Z</time>
      </trkpt>
      <trkpt lat="45.95205" lon="4.87544">
        <ele>274</ele>
        <time>2017-07-06T08:42:04Z</time>
      </trkpt>
      <trkpt lat="45.95205" lon="4.87552">
        <ele>274</ele>
        <time>2017-07-06T08:42:05Z</time>
      </trkpt>
      <trkpt lat="45.95206" lon="4.87558">
        <ele>274</ele>
        <time>2017-07-06T08:42:06Z</time>
      </trkpt>
      <trkpt lat="45.95206" lon="4.87565">
        <ele>274</ele>
        <time>2017-07-06T08:42:07Z</time>
      </trkpt>
      <trkpt lat="45.95207" lon="4.87573">
        <ele>274</ele>
        <time>2017-07-06T08:42:08Z</time>
      </trkpt>
      <trkpt lat="45.95207" lon="4.8758">
        <ele>274</ele>
        <time>2017-07-06T08:42:09Z</time>
      </trkpt>
      <trkpt lat="45.95207" lon="4.87588">
        <ele>276</ele>
        <time>2017-07-06T08:42:10Z</time>
      </trkpt>
      <trkpt lat="45.95208" lon="4.87595">
        <ele>276</ele>
        <time>2017-07-06T08:42:11Z</time>
      </trkpt>
      <trkpt lat="45.95209" lon="4.87604">
        <ele>276</ele>
        <time>2017-07-06T08:42:12Z</time>
      </trkpt>
      <trkpt lat="45.95211" lon="4.87612">
        <ele>276</ele>
        <time>2017-07-06T08:42:13Z</time>
      </trkpt>
      <trkpt lat="45.95212" lon="4.8762">
        <ele>276</ele>
        <time>2017-07-06T08:42:14Z</time>
      </trkpt>
      <trkpt lat="45.95213" lon="4.87627">
        <ele>276</ele>
        <time>2017-07-06T08:42:15Z</time>
      </trkpt>
      <trkpt lat="45.95214" lon="4.87635">
        <ele>276</ele>
        <time>2017-07-06T08:42:16Z</time>
      </trkpt>
      <trkpt lat="45.95214" lon="4.87642">
        <ele>276</ele>
        <time>2017-07-06T08:42:17Z</time>
      </trkpt>
      <trkpt lat="45.95215" lon="4.87649">
        <ele>276</ele>
        <time>2017-07-06T08:42:18Z</time>
      </trkpt>
      <trkpt lat="45.95216" lon="4.87658">
        <ele>277</ele>
        <time>2017-07-06T08:42:19Z</time>
      </trkpt>
      <trkpt lat="45.95217" lon="4.87665">
        <ele>277</ele>
        <time>2017-07-06T08:42:20Z</time>
      </trkpt>
      <trkpt lat="45.95218" lon="4.87673">
        <ele>278</ele>
        <time>2017-07-06T08:42:21Z</time>
      </trkpt>
      <trkpt lat="45.95219" lon="4.8768">
        <ele>279</ele>
        <time>2017-07-06T08:42:22Z</time>
      </trkpt>
      <trkpt lat="45.95221" lon="4.87688">
        <ele>279</ele>
        <time>2017-07-06T08:42:23Z</time>
      </trkpt>
      <trkpt lat="45.95222" lon="4.87694">
        <ele>279</ele>
        <time>2017-07-06T08:42:24Z</time>
      </trkpt>
      <trkpt lat="45.95223" lon="4.87701">
        <ele>279</ele>
        <time>2017-07-06T08:42:25Z</time>
      </trkpt>
      <trkpt lat="45.95224" lon="4.87708">
        <ele>279</ele>
        <time>2017-07-06T08:42:26Z</time>
      </trkpt>
      <trkpt lat="45.95226" lon="4.87715">
        <ele>279</ele>
        <time>2017-07-06T08:42:27Z</time>
      </trkpt>
      <trkpt lat="45.95228" lon="4.87722">
        <ele>280</ele>
        <time>2017-07-06T08:42:28Z</time>
      </trkpt>
      <trkpt lat="45.95229" lon="4.87728">
        <ele>280</ele>
        <time>2017-07-06T08:42:29Z</time>
      </trkpt>
      <trkpt lat="45.95231" lon="4.87739">
        <ele>280</ele>
        <time>2017-07-06T08:42:31Z</time>
      </trkpt>
      <trkpt lat="45.95232" lon="4.87744">
        <ele>280</ele>
        <time>2017-07-06T08:42:32Z</time>
      </trkpt>
      <trkpt lat="45.95235" lon="4.87754">
        <ele>281</ele>
        <time>2017-07-06T08:42:34Z</time>
      </trkpt>
      <trkpt lat="45.95236" lon="4.87759">
        <ele>281</ele>
        <time>2017-07-06T08:42:35Z</time>
      </trkpt>
      <trkpt lat="45.95238" lon="4.87771">
        <ele>282</ele>
        <time>2017-07-06T08:42:37Z</time>
      </trkpt>
      <trkpt lat="45.95239" lon="4.87777">
        <ele>282</ele>
        <time>2017-07-06T08:42:38Z</time>
      </trkpt>
      <trkpt lat="45.9524" lon="4.87784">
        <ele>282</ele>
        <time>2017-07-06T08:42:39Z</time>
      </trkpt>
      <trkpt lat="45.95241" lon="4.8779">
        <ele>282</ele>
        <time>2017-07-06T08:42:40Z</time>
      </trkpt>
      <trkpt lat="45.95242" lon="4.87797">
        <ele>282</ele>
        <time>2017-07-06T08:42:41Z</time>
      </trkpt>
      <trkpt lat="45.95244" lon="4.87803">
        <ele>282</ele>
        <time>2017-07-06T08:42:42Z</time>
      </trkpt>
      <trkpt lat="45.95245" lon="4.87814">
        <ele>282</ele>
        <time>2017-07-06T08:42:44Z</time>
      </trkpt>
      <trkpt lat="45.95246" lon="4.87819">
        <ele>282</ele>
        <time>2017-07-06T08:42:45Z</time>
      </trkpt>
      <trkpt lat="45.95247" lon="4.87829">
        <ele>282</ele>
        <time>2017-07-06T08:42:47Z</time>
      </trkpt>
      <trkpt lat="45.95248" lon="4.87835">
        <ele>282</ele>
        <time>2017-07-06T08:42:48Z</time>
      </trkpt>
      <trkpt lat="45.95249" lon="4.87841">
        <ele>283</ele>
        <time>2017-07-06T08:42:49Z</time>
      </trkpt>
      <trkpt lat="45.95249" lon="4.87848">
        <ele>283</ele>
        <time>2017-07-06T08:42:50Z</time>
      </trkpt>
      <trkpt lat="45.95251" lon="4.8786">
        <ele>281</ele>
        <time>2017-07-06T08:42:52Z</time>
      </trkpt>
      <trkpt lat="45.95253" lon="4.87866">
        <ele>281</ele>
        <time>2017-07-06T08:42:53Z</time>
      </trkpt>
      <trkpt lat="45.95255" lon="4.87873">
        <ele>281</ele>
        <time>2017-07-06T08:42:54Z</time>
      </trkpt>
      <trkpt lat="45.95256" lon="4.87878">
        <ele>281</ele>
        <time>2017-07-06T08:42:55Z</time>
      </trkpt>
      <trkpt lat="45.95259" lon="4.8789">
        <ele>281</ele>
        <time>2017-07-06T08:42:57Z</time>
      </trkpt>
      <trkpt lat="45.9526" lon="4.87896">
        <ele>281</ele>
        <time>2017-07-06T08:42:58Z</time>
      </trkpt>
      <trkpt lat="45.95262" lon="4.87906">
        <ele>281</ele>
        <time>2017-07-06T08:43:00Z</time>
      </trkpt>
      <trkpt lat="45.95262" lon="4.87912">
        <ele>282</ele>
        <time>2017-07-06T08:43:01Z</time>
      </trkpt>
      <trkpt lat="45.95263" lon="4.87924">
        <ele>281</ele>
        <time>2017-07-06T08:43:03Z</time>
      </trkpt>
      <trkpt lat="45.95262" lon="4.87931">
        <ele>281</ele>
        <time>2017-07-06T08:43:04Z</time>
      </trkpt>
      <trkpt lat="45.95261" lon="4.87937">
        <ele>280</ele>
        <time>2017-07-06T08:43:05Z</time>
      </trkpt>
      <trkpt lat="45.95259" lon="4.87943">
        <ele>280</ele>
        <time>2017-07-06T08:43:06Z</time>
      </trkpt>
      <trkpt lat="45.95257" lon="4.87949">
        <ele>280</ele>
        <time>2017-07-06T08:43:07Z</time>
      </trkpt>
      <trkpt lat="45.95254" lon="4.87955">
        <ele>280</ele>
        <time>2017-07-06T08:43:08Z</time>
      </trkpt>
      <trkpt lat="45.95249" lon="4.87965">
        <ele>282</ele>
        <time>2017-07-06T08:43:10Z</time>
      </trkpt>
      <trkpt lat="45.95246" lon="4.87969">
        <ele>282</ele>
        <time>2017-07-06T08:43:11Z</time>
      </trkpt>
      <trkpt lat="45.9524" lon="4.87977">
        <ele>282</ele>
        <time>2017-07-06T08:43:13Z</time>
      </trkpt>
      <trkpt lat="45.95237" lon="4.87982">
        <ele>281</ele>
        <time>2017-07-06T08:43:14Z</time>
      </trkpt>
      <trkpt lat="45.95232" lon="4.8799">
        <ele>281</ele>
        <time>2017-07-06T08:43:16Z</time>
      </trkpt>
      <trkpt lat="45.95229" lon="4.87994">
        <ele>281</ele>
        <time>2017-07-06T08:43:17Z</time>
      </trkpt>
      <trkpt lat="45.95223" lon="4.88002">
        <ele>281</ele>
        <time>2017-07-06T08:43:19Z</time>
      </trkpt>
      <trkpt lat="45.9522" lon="4.88007">
        <ele>281</ele>
        <time>2017-07-06T08:43:20Z</time>
      </trkpt>
      <trkpt lat="45.95216" lon="4.88011">
        <ele>281</ele>
        <time>2017-07-06T08:43:21Z</time>
      </trkpt>
      <trkpt lat="45.95213" lon="4.88016">
        <ele>281</ele>
        <time>2017-07-06T08:43:22Z</time>
      </trkpt>
      <trkpt lat="45.95208" lon="4.88025">
        <ele>281</ele>
        <time>2017-07-06T08:43:24Z</time>
      </trkpt>
      <trkpt lat="45.95205" lon="4.88029">
        <ele>281</ele>
        <time>2017-07-06T08:43:25Z</time>
      </trkpt>
      <trkpt lat="45.952" lon="4.88038">
        <ele>281</ele>
        <time>2017-07-06T08:43:27Z</time>
      </trkpt>
      <trkpt lat="45.95197" lon="4.88043">
        <ele>281</ele>
        <time>2017-07-06T08:43:28Z</time>
      </trkpt>
      <trkpt lat="45.95193" lon="4.88054">
        <ele>281</ele>
        <time>2017-07-06T08:43:30Z</time>
      </trkpt>
      <trkpt lat="45.95191" lon="4.8806">
        <ele>281</ele>
        <time>2017-07-06T08:43:31Z</time>
      </trkpt>
      <trkpt lat="45.95189" lon="4.88066">
        <ele>281</ele>
        <time>2017-07-06T08:43:32Z</time>
      </trkpt>
      <trkpt lat="45.95187" lon="4.88072">
        <ele>281</ele>
        <time>2017-07-06T08:43:33Z</time>
      </trkpt>
      <trkpt lat="45.95185" lon="4.88084">
        <ele>282</ele>
        <time>2017-07-06T08:43:35Z</time>
      </trkpt>
      <trkpt lat="45.95184" lon="4.88089">
        <ele>282</ele>
        <time>2017-07-06T08:43:36Z</time>
      </trkpt>
      <trkpt lat="45.95182" lon="4.881">
        <ele>282</ele>
        <time>2017-07-06T08:43:38Z</time>
      </trkpt>
      <trkpt lat="45.9518" lon="4.88105">
        <ele>282</ele>
        <time>2017-07-06T08:43:39Z</time>
      </trkpt>
      <trkpt lat="45.95178" lon="4.88117">
        <ele>282</ele>
        <time>2017-07-06T08:43:41Z</time>
      </trkpt>
      <trkpt lat="45.95176" lon="4.88122">
        <ele>282</ele>
        <time>2017-07-06T08:43:42Z</time>
      </trkpt>
      <trkpt lat="45.95174" lon="4.88133">
        <ele>283</ele>
        <time>2017-07-06T08:43:44Z</time>
      </trkpt>
      <trkpt lat="45.95174" lon="4.88138">
        <ele>283</ele>
        <time>2017-07-06T08:43:45Z</time>
      </trkpt>
      <trkpt lat="45.95171" lon="4.88148">
        <ele>283</ele>
        <time>2017-07-06T08:43:47Z</time>
      </trkpt>
      <trkpt lat="45.9517" lon="4.88152">
        <ele>284</ele>
        <time>2017-07-06T08:43:48Z</time>
      </trkpt>
      <trkpt lat="45.95168" lon="4.88162">
        <ele>284</ele>
        <time>2017-07-06T08:43:51Z</time>
      </trkpt>
      <trkpt lat="45.95168" lon="4.88165">
        <ele>285</ele>
        <time>2017-07-06T08:43:52Z</time>
      </trkpt>
      <trkpt lat="45.95163" lon="4.88175">
        <ele>286</ele>
        <time>2017-07-06T08:43:57Z</time>
      </trkpt>
      <trkpt lat="45.9516" lon="4.88175">
        <ele>286</ele>
        <time>2017-07-06T08:43:58Z</time>
      </trkpt>
      <trkpt lat="45.95153" lon="4.88176">
        <ele>286</ele>
        <time>2017-07-06T08:44:01Z</time>
      </trkpt>
      <trkpt lat="45.9515" lon="4.88177">
        <ele>286</ele>
        <time>2017-07-06T08:44:02Z</time>
      </trkpt>
      <trkpt lat="45.95142" lon="4.8818">
        <ele>286</ele>
        <time>2017-07-06T08:44:05Z</time>
      </trkpt>
      <trkpt lat="45.95139" lon="4.88182">
        <ele>286</ele>
        <time>2017-07-06T08:44:06Z</time>
      </trkpt>
      <trkpt lat="45.95134" lon="4.88188">
        <ele>286</ele>
        <time>2017-07-06T08:44:08Z</time>
      </trkpt>
      <trkpt lat="45.95132" lon="4.88191">
        <ele>286</ele>
        <time>2017-07-06T08:44:09Z</time>
      </trkpt>
      <trkpt lat="45.95127" lon="4.88197">
        <ele>287</ele>
        <time>2017-07-06T08:44:11Z</time>
      </trkpt>
      <trkpt lat="45.95124" lon="4.882">
        <ele>287</ele>
        <time>2017-07-06T08:44:12Z</time>
      </trkpt>
      <trkpt lat="45.9512" lon="4.88207">
        <ele>287</ele>
        <time>2017-07-06T08:44:14Z</time>
      </trkpt>
      <trkpt lat="45.95117" lon="4.88211">
        <ele>287</ele>
        <time>2017-07-06T08:44:15Z</time>
      </trkpt>
      <trkpt lat="45.95113" lon="4.88219">
        <ele>287</ele>
        <time>2017-07-06T08:44:17Z</time>
      </trkpt>
      <trkpt lat="45.95111" lon="4.88222">
        <ele>287</ele>
        <time>2017-07-06T08:44:18Z</time>
      </trkpt>
      <trkpt lat="45.9511" lon="4.88234">
        <ele>287</ele>
        <time>2017-07-06T08:44:22Z</time>
      </trkpt>
      <trkpt lat="45.95114" lon="4.88237">
        <ele>287</ele>
        <time>2017-07-06T08:44:23Z</time>
      </trkpt>
      <trkpt lat="45.95121" lon="4.8824">
        <ele>287</ele>
        <time>2017-07-06T08:44:25Z</time>
      </trkpt>
      <trkpt lat="45.95125" lon="4.8824">
        <ele>287</ele>
        <time>2017-07-06T08:44:26Z</time>
      </trkpt>
      <trkpt lat="45.95132" lon="4.88241">
        <ele>287</ele>
        <time>2017-07-06T08:44:28Z</time>
      </trkpt>
      <trkpt lat="45.95136" lon="4.88241">
        <ele>287</ele>
        <time>2017-07-06T08:44:29Z</time>
      </trkpt>
      <trkpt lat="45.95143" lon="4.88242">
        <ele>288</ele>
        <time>2017-07-06T08:44:31Z</time>
      </trkpt>
      <trkpt lat="45.95146" lon="4.88242">
        <ele>288</ele>
        <time>2017-07-06T08:44:32Z</time>
      </trkpt>
      <trkpt lat="45.95152" lon="4.88244">
        <ele>288</ele>
        <time>2017-07-06T08:44:34Z</time>
      </trkpt>
      <trkpt lat="45.95155" lon="4.88245">
        <ele>288</ele>
        <time>2017-07-06T08:44:35Z</time>
      </trkpt>
      <trkpt lat="45.95161" lon="4.88247">
        <ele>288</ele>
        <time>2017-07-06T08:44:37Z</time>
      </trkpt>
      <trkpt lat="45.95165" lon="4.88248">
        <ele>289</ele>
        <time>2017-07-06T08:44:38Z</time>
      </trkpt>
      <trkpt lat="45.95174" lon="4.88251">
        <ele>289</ele>
        <time>2017-07-06T08:44:40Z</time>
      </trkpt>
      <trkpt lat="45.95178" lon="4.88253">
        <ele>289</ele>
        <time>2017-07-06T08:44:41Z</time>
      </trkpt>
      <trkpt lat="45.95182" lon="4.8826">
        <ele>289</ele>
        <time>2017-07-06T08:44:43Z</time>
      </trkpt>
      <trkpt lat="45.95183" lon="4.88264">
        <ele>289</ele>
        <time>2017-07-06T08:44:44Z</time>
      </trkpt>
      <trkpt lat="45.95186" lon="4.88275">
        <ele>289</ele>
        <time>2017-07-06T08:44:47Z</time>
      </trkpt>
      <trkpt lat="45.95186" lon="4.88277">
        <ele>289</ele>
        <time>2017-07-06T08:44:48Z</time>
      </trkpt>
      <trkpt lat="45.95186" lon="4.8829">
        <ele>290</ele>
        <time>2017-07-06T08:44:52Z</time>
      </trkpt>
      <trkpt lat="45.95185" lon="4.88293">
        <ele>290</ele>
        <time>2017-07-06T08:44:53Z</time>
      </trkpt>
      <trkpt lat="45.95182" lon="4.88302">
        <ele>290</ele>
        <time>2017-07-06T08:44:56Z</time>
      </trkpt>
      <trkpt lat="45.95183" lon="4.88307">
        <ele>290</ele>
        <time>2017-07-06T08:44:57Z</time>
      </trkpt>
      <trkpt lat="45.95184" lon="4.88317">
        <ele>290</ele>
        <time>2017-07-06T08:45:00Z</time>
      </trkpt>
      <trkpt lat="45.95183" lon="4.88321">
        <ele>290</ele>
        <time>2017-07-06T08:45:01Z</time>
      </trkpt>
      <trkpt lat="45.9518" lon="4.8833">
        <ele>291</ele>
        <time>2017-07-06T08:45:03Z</time>
      </trkpt>
      <trkpt lat="45.95179" lon="4.88334">
        <ele>292</ele>
        <time>2017-07-06T08:45:04Z</time>
      </trkpt>
      <trkpt lat="45.95176" lon="4.88342">
        <ele>292</ele>
        <time>2017-07-06T08:45:06Z</time>
      </trkpt>
      <trkpt lat="45.95176" lon="4.88346">
        <ele>292</ele>
        <time>2017-07-06T08:45:07Z</time>
      </trkpt>
      <trkpt lat="45.95175" lon="4.88356">
        <ele>292</ele>
        <time>2017-07-06T08:45:09Z</time>
      </trkpt>
      <trkpt lat="45.95176" lon="4.8836">
        <ele>292</ele>
        <time>2017-07-06T08:45:10Z</time>
      </trkpt>
      <trkpt lat="45.95177" lon="4.88369">
        <ele>292</ele>
        <time>2017-07-06T08:45:12Z</time>
      </trkpt>
      <trkpt lat="45.95178" lon="4.88373">
        <ele>292</ele>
        <time>2017-07-06T08:45:13Z</time>
      </trkpt>
      <trkpt lat="45.95182" lon="4.88381">
        <ele>292</ele>
        <time>2017-07-06T08:45:16Z</time>
      </trkpt>
      <trkpt lat="45.95184" lon="4.88384">
        <ele>292</ele>
        <time>2017-07-06T08:45:17Z</time>
      </trkpt>
      <trkpt lat="45.95189" lon="4.88392">
        <ele>292</ele>
        <time>2017-07-06T08:45:20Z</time>
      </trkpt>
      <trkpt lat="45.95191" lon="4.88394">
        <ele>292</ele>
        <time>2017-07-06T08:45:21Z</time>
      </trkpt>
      <trkpt lat="45.95196" lon="4.88398">
        <ele>292</ele>
        <time>2017-07-06T08:45:23Z</time>
      </trkpt>
      <trkpt lat="45.95199" lon="4.88401">
        <ele>292</ele>
        <time>2017-07-06T08:45:24Z</time>
      </trkpt>
      <trkpt lat="45.95207" lon="4.88406">
        <ele>292</ele>
        <time>2017-07-06T08:45:26Z</time>
      </trkpt>
      <trkpt lat="45.95209" lon="4.88407">
        <ele>292</ele>
        <time>2017-07-06T08:45:27Z</time>
      </trkpt>
      <trkpt lat="45.95214" lon="4.88403">
        <ele>292</ele>
        <time>2017-07-06T08:45:29Z</time>
      </trkpt>
      <trkpt lat="45.95216" lon="4.88399">
        <ele>292</ele>
        <time>2017-07-06T08:45:30Z</time>
      </trkpt>
      <trkpt lat="45.95219" lon="4.8839">
        <ele>291</ele>
        <time>2017-07-06T08:45:32Z</time>
      </trkpt>
      <trkpt lat="45.9522" lon="4.88385">
        <ele>291</ele>
        <time>2017-07-06T08:45:33Z</time>
      </trkpt>
      <trkpt lat="45.95222" lon="4.88375">
        <ele>291</ele>
        <time>2017-07-06T08:45:35Z</time>
      </trkpt>
      <trkpt lat="45.95222" lon="4.88369">
        <ele>291</ele>
        <time>2017-07-06T08:45:36Z</time>
      </trkpt>
      <trkpt lat="45.95223" lon="4.88358">
        <ele>291</ele>
        <time>2017-07-06T08:45:38Z</time>
      </trkpt>
      <trkpt lat="45.95222" lon="4.88354">
        <ele>291</ele>
        <time>2017-07-06T08:45:39Z</time>
      </trkpt>
      <trkpt lat="45.9522" lon="4.88345">
        <ele>291</ele>
        <time>2017-07-06T08:45:41Z</time>
      </trkpt>
      <trkpt lat="45.95219" lon="4.88341">
        <ele>291</ele>
        <time>2017-07-06T08:45:42Z</time>
      </trkpt>
      <trkpt lat="45.95216" lon="4.88333">
        <ele>290</ele>
        <time>2017-07-06T08:45:44Z</time>
      </trkpt>
      <trkpt lat="45.95215" lon="4.88329">
        <ele>290</ele>
        <time>2017-07-06T08:45:45Z</time>
      </trkpt>
      <trkpt lat="45.95212" lon="4.8832">
        <ele>290</ele>
        <time>2017-07-06T08:45:47Z</time>
      </trkpt>
      <trkpt lat="45.9521" lon="4.88316">
        <ele>290</ele>
        <time>2017-07-06T08:45:48Z</time>
      </trkpt>
      <trkpt lat="45.95206" lon="4.88308">
        <ele>290</ele>
        <time>2017-07-06T08:45:50Z</time>
      </trkpt>
      <trkpt lat="45.95203" lon="4.88303">
        <ele>290</ele>
        <time>2017-07-06T08:45:51Z</time>
      </trkpt>
      <trkpt lat="45.95197" lon="4.88296">
        <ele>290</ele>
        <time>2017-07-06T08:45:53Z</time>
      </trkpt>
      <trkpt lat="45.95193" lon="4.88294">
        <ele>290</ele>
        <time>2017-07-06T08:45:54Z</time>
      </trkpt>
      <trkpt lat="45.95187" lon="4.88287">
        <ele>289</ele>
        <time>2017-07-06T08:45:56Z</time>
      </trkpt>
      <trkpt lat="45.95185" lon="4.88282">
        <ele>289</ele>
        <time>2017-07-06T08:45:57Z</time>
      </trkpt>
      <trkpt lat="45.95182" lon="4.88274">
        <ele>289</ele>
        <time>2017-07-06T08:45:59Z</time>
      </trkpt>
      <trkpt lat="45.95181" lon="4.8827">
        <ele>289</ele>
        <time>2017-07-06T08:46:00Z</time>
      </trkpt>
      <trkpt lat="45.95187" lon="4.88262">
        <ele>289</ele>
        <time>2017-07-06T08:46:04Z</time>
      </trkpt>
      <trkpt lat="45.9519" lon="4.88263">
        <ele>289</ele>
        <time>2017-07-06T08:46:05Z</time>
      </trkpt>
      <trkpt lat="45.95195" lon="4.88265">
        <ele>289</ele>
        <time>2017-07-06T08:46:07Z</time>
      </trkpt>
      <trkpt lat="45.95199" lon="4.88267">
        <ele>289</ele>
        <time>2017-07-06T08:46:08Z</time>
      </trkpt>
      <trkpt lat="45.95207" lon="4.88271">
        <ele>289</ele>
        <time>2017-07-06T08:46:11Z</time>
      </trkpt>
      <trkpt lat="45.95209" lon="4.88272">
        <ele>289</ele>
        <time>2017-07-06T08:46:12Z</time>
      </trkpt>
      <trkpt lat="45.95218" lon="4.88275">
        <ele>289</ele>
        <time>2017-07-06T08:46:15Z</time>
      </trkpt>
      <trkpt lat="45.95221" lon="4.88276">
        <ele>289</ele>
        <time>2017-07-06T08:46:16Z</time>
      </trkpt>
      <trkpt lat="45.95228" lon="4.88279">
        <ele>289</ele>
        <time>2017-07-06T08:46:18Z</time>
      </trkpt>
      <trkpt lat="45.95231" lon="4.8828">
        <ele>289</ele>
        <time>2017-07-06T08:46:19Z</time>
      </trkpt>
      <trkpt lat="45.95237" lon="4.88283">
        <ele>289</ele>
        <time>2017-07-06T08:46:21Z</time>
      </trkpt>
      <trkpt lat="45.9524" lon="4.88284">
        <ele>289</ele>
        <time>2017-07-06T08:46:22Z</time>
      </trkpt>
      <trkpt lat="45.95247" lon="4.88287">
        <ele>289</ele>
        <time>2017-07-06T08:46:24Z</time>
      </trkpt>
      <trkpt lat="45.9525" lon="4.88288">
        <ele>286</ele>
        <time>2017-07-06T08:46:25Z</time>
      </trkpt>
      <trkpt lat="45.95257" lon="4.88293">
        <ele>286</ele>
        <time>2017-07-06T08:46:27Z</time>
      </trkpt>
      <trkpt lat="45.95261" lon="4.88295">
        <ele>286</ele>
        <time>2017-07-06T08:46:28Z</time>
      </trkpt>
      <trkpt lat="45.95267" lon="4.883">
        <ele>286</ele>
        <time>2017-07-06T08:46:30Z</time>
      </trkpt>
      <trkpt lat="45.95271" lon="4.88301">
        <ele>286</ele>
        <time>2017-07-06T08:46:31Z</time>
      </trkpt>
      <trkpt lat="45.95278" lon="4.88306">
        <ele>286</ele>
        <time>2017-07-06T08:46:33Z</time>
      </trkpt>
      <trkpt lat="45.95281" lon="4.88309">
        <ele>286</ele>
        <time>2017-07-06T08:46:34Z</time>
      </trkpt>
      <trkpt lat="45.95288" lon="4.88318">
        <ele>286</ele>
        <time>2017-07-06T08:46:38Z</time>
      </trkpt>
      <trkpt lat="45.95288" lon="4.88319">
        <ele>285</ele>
        <time>2017-07-06T08:46:39Z</time>
      </trkpt>
      <trkpt lat="45.95289" lon="4.88319">
        <ele>285</ele>
        <time>2017-07-06T08:46:40Z</time>
      </trkpt>
      <trkpt lat="45.95289" lon="4.88314">
        <ele>285</ele>
        <time>2017-07-06T08:46:51Z</time>
      </trkpt>
      <trkpt lat="45.95288" lon="4.88311">
        <ele>285</ele>
        <time>2017-07-06T08:46:52Z</time>
      </trkpt>
      <trkpt lat="45.95283" lon="4.88302">
        <ele>286</ele>
        <time>2017-07-06T08:46:56Z</time>
      </trkpt>
      <trkpt lat="45.95281" lon="4.88301">
        <ele>286</ele>
        <time>2017-07-06T08:46:57Z</time>
      </trkpt>
      <trkpt lat="45.95275" lon="4.88295">
        <ele>286</ele>
        <time>2017-07-06T08:47:00Z</time>
      </trkpt>
      <trkpt lat="45.95271" lon="4.88293">
        <ele>286</ele>
        <time>2017-07-06T08:47:01Z</time>
      </trkpt>
      <trkpt lat="45.95265" lon="4.88289">
        <ele>286</ele>
        <time>2017-07-06T08:47:03Z</time>
      </trkpt>
      <trkpt lat="45.95262" lon="4.88287">
        <ele>286</ele>
        <time>2017-07-06T08:47:04Z</time>
      </trkpt>
      <trkpt lat="45.95255" lon="4.88283">
        <ele>286</ele>
        <time>2017-07-06T08:47:06Z</time>
      </trkpt>
      <trkpt lat="45.95251" lon="4.88281">
        <ele>286</ele>
        <time>2017-07-06T08:47:07Z</time>
      </trkpt>
      <trkpt lat="45.95244" lon="4.88277">
        <ele>288</ele>
        <time>2017-07-06T08:47:09Z</time>
      </trkpt>
      <trkpt lat="45.9524" lon="4.88276">
        <ele>288</ele>
        <time>2017-07-06T08:47:10Z</time>
      </trkpt>
      <trkpt lat="45.95234" lon="4.88273">
        <ele>288</ele>
        <time>2017-07-06T08:47:12Z</time>
      </trkpt>
      <trkpt lat="45.9523" lon="4.88271">
        <ele>288</ele>
        <time>2017-07-06T08:47:13Z</time>
      </trkpt>
      <trkpt lat="45.95222" lon="4.88268">
        <ele>288</ele>
        <time>2017-07-06T08:47:15Z</time>
      </trkpt>
      <trkpt lat="45.95219" lon="4.88267">
        <ele>289</ele>
        <time>2017-07-06T08:47:16Z</time>
      </trkpt>
      <trkpt lat="45.9521" lon="4.88263">
        <ele>289</ele>
        <time>2017-07-06T08:47:18Z</time>
      </trkpt>
      <trkpt lat="45.95206" lon="4.88262">
        <ele>289</ele>
        <time>2017-07-06T08:47:19Z</time>
      </trkpt>
      <trkpt lat="45.95198" lon="4.88258">
        <ele>289</ele>
        <time>2017-07-06T08:47:21Z</time>
      </trkpt>
      <trkpt lat="45.95194" lon="4.88256">
        <ele>289</ele>
        <time>2017-07-06T08:47:22Z</time>
      </trkpt>
      <trkpt lat="45.95186" lon="4.88251">
        <ele>289</ele>
        <time>2017-07-06T08:47:24Z</time>
      </trkpt>
      <trkpt lat="45.95182" lon="4.88249">
        <ele>287</ele>
        <time>2017-07-06T08:47:25Z</time>
      </trkpt>
      <trkpt lat="45.95175" lon="4.88246">
        <ele>288</ele>
        <time>2017-07-06T08:47:27Z</time>
      </trkpt>
      <trkpt lat="45.95171" lon="4.88244">
        <ele>288</ele>
        <time>2017-07-06T08:47:28Z</time>
      </trkpt>
      <trkpt lat="45.95164" lon="4.88242">
        <ele>288</ele>
        <time>2017-07-06T08:47:30Z</time>
      </trkpt>
      <trkpt lat="45.95161" lon="4.88242">
        <ele>288</ele>
        <time>2017-07-06T08:47:31Z</time>
      </trkpt>
      <trkpt lat="45.95153" lon="4.88241">
        <ele>288</ele>
        <time>2017-07-06T08:47:33Z</time>
      </trkpt>
      <trkpt lat="45.95149" lon="4.8824">
        <ele>288</ele>
        <time>2017-07-06T08:47:34Z</time>
      </trkpt>
      <trkpt lat="45.9514" lon="4.88239">
        <ele>287</ele>
        <time>2017-07-06T08:47:36Z</time>
      </trkpt>
      <trkpt lat="45.95136" lon="4.88239">
        <ele>287</ele>
        <time>2017-07-06T08:47:37Z</time>
      </trkpt>
      <trkpt lat="45.95129" lon="4.88238">
        <ele>287</ele>
        <time>2017-07-06T08:47:39Z</time>
      </trkpt>
      <trkpt lat="45.95126" lon="4.88236">
        <ele>287</ele>
        <time>2017-07-06T08:47:40Z</time>
      </trkpt>
      <trkpt lat="45.95124" lon="4.88224">
        <ele>287</ele>
        <time>2017-07-06T08:47:42Z</time>
      </trkpt>
      <trkpt lat="45.95125" lon="4.88216">
        <ele>287</ele>
        <time>2017-07-06T08:47:43Z</time>
      </trkpt>
      <trkpt lat="45.95128" lon="4.88209">
        <ele>287</ele>
        <time>2017-07-06T08:47:44Z</time>
      </trkpt>
      <trkpt lat="45.95131" lon="4.88202">
        <ele>287</ele>
        <time>2017-07-06T08:47:45Z</time>
      </trkpt>
      <trkpt lat="45.95135" lon="4.88196">
        <ele>287</ele>
        <time>2017-07-06T08:47:46Z</time>
      </trkpt>
      <trkpt lat="45.9514" lon="4.88191">
        <ele>286</ele>
        <time>2017-07-06T08:47:47Z</time>
      </trkpt>
      <trkpt lat="45.95145" lon="4.88186">
        <ele>286</ele>
        <time>2017-07-06T08:47:48Z</time>
      </trkpt>
      <trkpt lat="45.95151" lon="4.88182">
        <ele>286</ele>
        <time>2017-07-06T08:47:49Z</time>
      </trkpt>
      <trkpt lat="45.95158" lon="4.88179">
        <ele>286</ele>
        <time>2017-07-06T08:47:50Z</time>
      </trkpt>
      <trkpt lat="45.95164" lon="4.88177">
        <ele>286</ele>
        <time>2017-07-06T08:47:51Z</time>
      </trkpt>
      <trkpt lat="45.95171" lon="4.88175">
        <ele>285</ele>
        <time>2017-07-06T08:47:52Z</time>
      </trkpt>
      <trkpt lat="45.95178" lon="4.88174">
        <ele>285</ele>
        <time>2017-07-06T08:47:53Z</time>
      </trkpt>
      <trkpt lat="45.95185" lon="4.88172">
        <ele>285</ele>
        <time>2017-07-06T08:47:54Z</time>
      </trkpt>
      <trkpt lat="45.95192" lon="4.88171">
        <ele>285</ele>
        <time>2017-07-06T08:47:55Z</time>
      </trkpt>
      <trkpt lat="45.952" lon="4.88171">
        <ele>285</ele>
        <time>2017-07-06T08:47:56Z</time>
      </trkpt>
      <trkpt lat="45.95208" lon="4.8817">
        <ele>284</ele>
        <time>2017-07-06T08:47:57Z</time>
      </trkpt>
      <trkpt lat="45.95216" lon="4.88169">
        <ele>284</ele>
        <time>2017-07-06T08:47:58Z</time>
      </trkpt>
      <trkpt lat="45.95224" lon="4.88169">
        <ele>284</ele>
        <time>2017-07-06T08:47:59Z</time>
      </trkpt>
      <trkpt lat="45.95232" lon="4.88168">
        <ele>283</ele>
        <time>2017-07-06T08:48:00Z</time>
      </trkpt>
      <trkpt lat="45.95241" lon="4.88168">
        <ele>282</ele>
        <time>2017-07-06T08:48:01Z</time>
      </trkpt>
      <trkpt lat="45.9525" lon="4.88169">
        <ele>281</ele>
        <time>2017-07-06T08:48:02Z</time>
      </trkpt>
      <trkpt lat="45.95259" lon="4.88169">
        <ele>281</ele>
        <time>2017-07-06T08:48:03Z</time>
      </trkpt>
      <trkpt lat="45.95268" lon="4.8817">
        <ele>281</ele>
        <time>2017-07-06T08:48:04Z</time>
      </trkpt>
      <trkpt lat="45.95277" lon="4.8817">
        <ele>281</ele>
        <time>2017-07-06T08:48:05Z</time>
      </trkpt>
      <trkpt lat="45.95287" lon="4.88171">
        <ele>281</ele>
        <time>2017-07-06T08:48:06Z</time>
      </trkpt>
      <trkpt lat="45.95296" lon="4.88172">
        <ele>281</ele>
        <time>2017-07-06T08:48:07Z</time>
      </trkpt>
      <trkpt lat="45.95306" lon="4.88173">
        <ele>280</ele>
        <time>2017-07-06T08:48:08Z</time>
      </trkpt>
      <trkpt lat="45.95315" lon="4.88174">
        <ele>280</ele>
        <time>2017-07-06T08:48:09Z</time>
      </trkpt>
      <trkpt lat="45.95325" lon="4.88174">
        <ele>279</ele>
        <time>2017-07-06T08:48:10Z</time>
      </trkpt>
      <trkpt lat="45.95335" lon="4.88174">
        <ele>278</ele>
        <time>2017-07-06T08:48:11Z</time>
      </trkpt>
      <trkpt lat="45.95345" lon="4.88173">
        <ele>278</ele>
        <time>2017-07-06T08:48:12Z</time>
      </trkpt>
      <trkpt lat="45.95355" lon="4.88172">
        <ele>278</ele>
        <time>2017-07-06T08:48:13Z</time>
      </trkpt>
      <trkpt lat="45.95364" lon="4.88171">
        <ele>278</ele>
        <time>2017-07-06T08:48:14Z</time>
      </trkpt>
      <trkpt lat="45.95373" lon="4.88168">
        <ele>278</ele>
        <time>2017-07-06T08:48:15Z</time>
      </trkpt>
      <trkpt lat="45.95383" lon="4.88165">
        <ele>276</ele>
        <time>2017-07-06T08:48:16Z</time>
      </trkpt>
      <trkpt lat="45.95392" lon="4.88163">
        <ele>276</ele>
        <time>2017-07-06T08:48:17Z</time>
      </trkpt>
      <trkpt lat="45.95401" lon="4.8816">
        <ele>276</ele>
        <time>2017-07-06T08:48:18Z</time>
      </trkpt>
      <trkpt lat="45.95409" lon="4.88157">
        <ele>276</ele>
        <time>2017-07-06T08:48:19Z</time>
      </trkpt>
      <trkpt lat="45.95417" lon="4.88153">
        <ele>276</ele>
        <time>2017-07-06T08:48:20Z</time>
      </trkpt>
      <trkpt lat="45.95425" lon="4.8815">
        <ele>276</ele>
        <time>2017-07-06T08:48:21Z</time>
      </trkpt>
      <trkpt lat="45.95433" lon="4.88146">
        <ele>276</ele>
        <time>2017-07-06T08:48:22Z</time>
      </trkpt>
      <trkpt lat="45.9544" lon="4.88143">
        <ele>276</ele>
        <time>2017-07-06T08:48:23Z</time>
      </trkpt>
      <trkpt lat="45.95447" lon="4.8814">
        <ele>276</ele>
        <time>2017-07-06T08:48:24Z</time>
      </trkpt>
      <trkpt lat="45.95454" lon="4.88137">
        <ele>276</ele>
        <time>2017-07-06T08:48:25Z</time>
      </trkpt>
      <trkpt lat="45.95461" lon="4.88134">
        <ele>276</ele>
        <time>2017-07-06T08:48:26Z</time>
      </trkpt>
      <trkpt lat="45.95467" lon="4.88131">
        <ele>276</ele>
        <time>2017-07-06T08:48:27Z</time>
      </trkpt>
      <trkpt lat="45.95474" lon="4.88127">
        <ele>276</ele>
        <time>2017-07-06T08:48:28Z</time>
      </trkpt>
      <trkpt lat="45.9548" lon="4.88124">
        <ele>276</ele>
        <time>2017-07-06T08:48:29Z</time>
      </trkpt>
      <trkpt lat="45.95487" lon="4.88121">
        <ele>276</ele>
        <time>2017-07-06T08:48:30Z</time>
      </trkpt>
      <trkpt lat="45.95493" lon="4.88119">
        <ele>276</ele>
        <time>2017-07-06T08:48:31Z</time>
      </trkpt>
      <trkpt lat="45.95499" lon="4.88116">
        <ele>276</ele>
        <time>2017-07-06T08:48:32Z</time>
      </trkpt>
      <trkpt lat="45.95505" lon="4.88114">
        <ele>276</ele>
        <time>2017-07-06T08:48:33Z</time>
      </trkpt>
      <trkpt lat="45.9551" lon="4.88111">
        <ele>276</ele>
        <time>2017-07-06T08:48:34Z</time>
      </trkpt>
      <trkpt lat="45.95515" lon="4.88109">
        <ele>276</ele>
        <time>2017-07-06T08:48:35Z</time>
      </trkpt>
      <trkpt lat="45.9552" lon="4.88106">
        <ele>277</ele>
        <time>2017-07-06T08:48:36Z</time>
      </trkpt>
      <trkpt lat="45.95525" lon="4.88104">
        <ele>277</ele>
        <time>2017-07-06T08:48:37Z</time>
      </trkpt>
      <trkpt lat="45.9553" lon="4.88102">
        <ele>277</ele>
        <time>2017-07-06T08:48:38Z</time>
      </trkpt>
      <trkpt lat="45.95535" lon="4.88099">
        <ele>277</ele>
        <time>2017-07-06T08:48:39Z</time>
      </trkpt>
      <trkpt lat="45.95541" lon="4.88097">
        <ele>277</ele>
        <time>2017-07-06T08:48:40Z</time>
      </trkpt>
      <trkpt lat="45.95547" lon="4.88094">
        <ele>277</ele>
        <time>2017-07-06T08:48:41Z</time>
      </trkpt>
      <trkpt lat="45.95552" lon="4.88092">
        <ele>277</ele>
        <time>2017-07-06T08:48:42Z</time>
      </trkpt>
      <trkpt lat="45.95558" lon="4.88089">
        <ele>277</ele>
        <time>2017-07-06T08:48:43Z</time>
      </trkpt>
      <trkpt lat="45.95563" lon="4.88086">
        <ele>277</ele>
        <time>2017-07-06T08:48:44Z</time>
      </trkpt>
      <trkpt lat="45.95568" lon="4.88083">
        <ele>276</ele>
        <time>2017-07-06T08:48:45Z</time>
      </trkpt>
      <trkpt lat="45.95572" lon="4.8808">
        <ele>277</ele>
        <time>2017-07-06T08:48:46Z</time>
      </trkpt>
      <trkpt lat="45.95577" lon="4.88076">
        <ele>277</ele>
        <time>2017-07-06T08:48:47Z</time>
      </trkpt>
      <trkpt lat="45.95581" lon="4.88073">
        <ele>277</ele>
        <time>2017-07-06T08:48:48Z</time>
      </trkpt>
      <trkpt lat="45.95585" lon="4.8807">
        <ele>278</ele>
        <time>2017-07-06T08:48:49Z</time>
      </trkpt>
      <trkpt lat="45.95589" lon="4.88067">
        <ele>278</ele>
        <time>2017-07-06T08:48:50Z</time>
      </trkpt>
      <trkpt lat="45.95593" lon="4.88064">
        <ele>278</ele>
        <time>2017-07-06T08:48:51Z</time>
      </trkpt>
      <trkpt lat="45.95597" lon="4.8806">
        <ele>278</ele>
        <time>2017-07-06T08:48:52Z</time>
      </trkpt>
      <trkpt lat="45.95604" lon="4.88053">
        <ele>278</ele>
        <time>2017-07-06T08:48:54Z</time>
      </trkpt>
      <trkpt lat="45.95608" lon="4.8805">
        <ele>278</ele>
        <time>2017-07-06T08:48:55Z</time>
      </trkpt>
      <trkpt lat="45.95613" lon="4.88046">
        <ele>278</ele>
        <time>2017-07-06T08:48:56Z</time>
      </trkpt>
      <trkpt lat="45.95618" lon="4.88042">
        <ele>278</ele>
        <time>2017-07-06T08:48:57Z</time>
      </trkpt>
      <trkpt lat="45.95623" lon="4.88038">
        <ele>278</ele>
        <time>2017-07-06T08:48:58Z</time>
      </trkpt>
      <trkpt lat="45.95628" lon="4.88034">
        <ele>279</ele>
        <time>2017-07-06T08:48:59Z</time>
      </trkpt>
      <trkpt lat="45.95632" lon="4.88029">
        <ele>279</ele>
        <time>2017-07-06T08:49:00Z</time>
      </trkpt>
      <trkpt lat="45.95636" lon="4.88025">
        <ele>279</ele>
        <time>2017-07-06T08:49:01Z</time>
      </trkpt>
      <trkpt lat="45.9564" lon="4.88021">
        <ele>279</ele>
        <time>2017-07-06T08:49:02Z</time>
      </trkpt>
      <trkpt lat="45.95644" lon="4.88017">
        <ele>279</ele>
        <time>2017-07-06T08:49:03Z</time>
      </trkpt>
      <trkpt lat="45.95648" lon="4.88013">
        <ele>279</ele>
        <time>2017-07-06T08:49:04Z</time>
      </trkpt>
      <trkpt lat="45.95653" lon="4.88009">
        <ele>280</ele>
        <time>2017-07-06T08:49:05Z</time>
      </trkpt>
      <trkpt lat="45.95657" lon="4.88005">
        <ele>280</ele>
        <time>2017-07-06T08:49:06Z</time>
      </trkpt>
      <trkpt lat="45.95662" lon="4.88001">
        <ele>281</ele>
        <time>2017-07-06T08:49:07Z</time>
      </trkpt>
      <trkpt lat="45.95666" lon="4.87997">
        <ele>281</ele>
        <time>2017-07-06T08:49:08Z</time>
      </trkpt>
      <trkpt lat="45.9567" lon="4.87993">
        <ele>281</ele>
        <time>2017-07-06T08:49:09Z</time>
      </trkpt>
      <trkpt lat="45.95675" lon="4.87989">
        <ele>282</ele>
        <time>2017-07-06T08:49:10Z</time>
      </trkpt>
      <trkpt lat="45.9568" lon="4.87985">
        <ele>282</ele>
        <time>2017-07-06T08:49:11Z</time>
      </trkpt>
      <trkpt lat="45.95685" lon="4.8798">
        <ele>282</ele>
        <time>2017-07-06T08:49:12Z</time>
      </trkpt>
      <trkpt lat="45.9569" lon="4.87976">
        <ele>282</ele>
        <time>2017-07-06T08:49:13Z</time>
      </trkpt>
      <trkpt lat="45.95694" lon="4.87972">
        <ele>282</ele>
        <time>2017-07-06T08:49:14Z</time>
      </trkpt>
      <trkpt lat="45.95698" lon="4.87968">
        <ele>283</ele>
        <time>2017-07-06T08:49:15Z</time>
      </trkpt>
      <trkpt lat="45.95703" lon="4.87964">
        <ele>283</ele>
        <time>2017-07-06T08:49:16Z</time>
      </trkpt>
      <trkpt lat="45.95707" lon="4.8796">
        <ele>283</ele>
        <time>2017-07-06T08:49:17Z</time>
      </trkpt>
      <trkpt lat="45.95711" lon="4.87955">
        <ele>283</ele>
        <time>2017-07-06T08:49:18Z</time>
      </trkpt>
      <trkpt lat="45.95716" lon="4.87951">
        <ele>283</ele>
        <time>2017-07-06T08:49:19Z</time>
      </trkpt>
      <trkpt lat="45.95721" lon="4.87948">
        <ele>283</ele>
        <time>2017-07-06T08:49:20Z</time>
      </trkpt>
      <trkpt lat="45.95725" lon="4.87944">
        <ele>283</ele>
        <time>2017-07-06T08:49:21Z</time>
      </trkpt>
      <trkpt lat="45.9573" lon="4.8794">
        <ele>283</ele>
        <time>2017-07-06T08:49:22Z</time>
      </trkpt>
      <trkpt lat="45.95735" lon="4.87936">
        <ele>284</ele>
        <time>2017-07-06T08:49:23Z</time>
      </trkpt>
      <trkpt lat="45.95739" lon="4.87932">
        <ele>284</ele>
        <time>2017-07-06T08:49:24Z</time>
      </trkpt>
      <trkpt lat="45.95743" lon="4.87928">
        <ele>284</ele>
        <time>2017-07-06T08:49:25Z</time>
      </trkpt>
      <trkpt lat="45.95747" lon="4.87924">
        <ele>284</ele>
        <time>2017-07-06T08:49:26Z</time>
      </trkpt>
      <trkpt lat="45.95751" lon="4.87921">
        <ele>285</ele>
        <time>2017-07-06T08:49:27Z</time>
      </trkpt>
      <trkpt lat="45.95758" lon="4.87916">
        <ele>285</ele>
        <time>2017-07-06T08:49:29Z</time>
      </trkpt>
      <trkpt lat="45.95762" lon="4.87912">
        <ele>286</ele>
        <time>2017-07-06T08:49:30Z</time>
      </trkpt>
      <trkpt lat="45.95769" lon="4.87907">
        <ele>286</ele>
        <time>2017-07-06T08:49:32Z</time>
      </trkpt>
      <trkpt lat="45.95773" lon="4.87905">
        <ele>286</ele>
        <time>2017-07-06T08:49:33Z</time>
      </trkpt>
      <trkpt lat="45.95781" lon="4.87899">
        <ele>286</ele>
        <time>2017-07-06T08:49:35Z</time>
      </trkpt>
      <trkpt lat="45.95784" lon="4.87897">
        <ele>286</ele>
        <time>2017-07-06T08:49:36Z</time>
      </trkpt>
      <trkpt lat="45.9579" lon="4.87893">
        <ele>286</ele>
        <time>2017-07-06T08:49:38Z</time>
      </trkpt>
      <trkpt lat="45.95793" lon="4.87892">
        <ele>286</ele>
        <time>2017-07-06T08:49:39Z</time>
      </trkpt>
      <trkpt lat="45.95798" lon="4.87889">
        <ele>287</ele>
        <time>2017-07-06T08:49:41Z</time>
      </trkpt>
      <trkpt lat="45.95801" lon="4.87887">
        <ele>287</ele>
        <time>2017-07-06T08:49:42Z</time>
      </trkpt>
      <trkpt lat="45.95808" lon="4.87884">
        <ele>287</ele>
        <time>2017-07-06T08:49:44Z</time>
      </trkpt>
      <trkpt lat="45.95811" lon="4.87883">
        <ele>287</ele>
        <time>2017-07-06T08:49:45Z</time>
      </trkpt>
      <trkpt lat="45.95818" lon="4.87881">
        <ele>287</ele>
        <time>2017-07-06T08:49:47Z</time>
      </trkpt>
      <trkpt lat="45.95821" lon="4.87879">
        <ele>287</ele>
        <time>2017-07-06T08:49:48Z</time>
      </trkpt>
      <trkpt lat="45.95828" lon="4.87877">
        <ele>287</ele>
        <time>2017-07-06T08:49:51Z</time>
      </trkpt>
      <trkpt lat="45.9583" lon="4.87876">
        <ele>287</ele>
        <time>2017-07-06T08:49:52Z</time>
      </trkpt>
      <trkpt lat="45.95836" lon="4.87873">
        <ele>289</ele>
        <time>2017-07-06T08:49:54Z</time>
      </trkpt>
      <trkpt lat="45.95838" lon="4.8787">
        <ele>289</ele>
        <time>2017-07-06T08:49:55Z</time>
      </trkpt>
      <trkpt lat="45.95845" lon="4.87863">
        <ele>289</ele>
        <time>2017-07-06T08:49:57Z</time>
      </trkpt>
      <trkpt lat="45.95849" lon="4.87859">
        <ele>289</ele>
        <time>2017-07-06T08:49:58Z</time>
      </trkpt>
      <trkpt lat="45.95857" lon="4.87852">
        <ele>289</ele>
        <time>2017-07-06T08:50:00Z</time>
      </trkpt>
      <trkpt lat="45.9586" lon="4.87848">
        <ele>289</ele>
        <time>2017-07-06T08:50:01Z</time>
      </trkpt>
      <trkpt lat="45.95867" lon="4.8784">
        <ele>289</ele>
        <time>2017-07-06T08:50:03Z</time>
      </trkpt>
      <trkpt lat="45.9587" lon="4.87837">
        <ele>289</ele>
        <time>2017-07-06T08:50:04Z</time>
      </trkpt>
      <trkpt lat="45.95877" lon="4.8783">
        <ele>288</ele>
        <time>2017-07-06T08:50:06Z</time>
      </trkpt>
      <trkpt lat="45.95881" lon="4.87826">
        <ele>288</ele>
        <time>2017-07-06T08:50:07Z</time>
      </trkpt>
      <trkpt lat="45.95887" lon="4.87819">
        <ele>288</ele>
        <time>2017-07-06T08:50:09Z</time>
      </trkpt>
      <trkpt lat="45.9589" lon="4.87814">
        <ele>288</ele>
        <time>2017-07-06T08:50:10Z</time>
      </trkpt>
      <trkpt lat="45.95897" lon="4.87806">
        <ele>288</ele>
        <time>2017-07-06T08:50:12Z</time>
      </trkpt>
      <trkpt lat="45.95899" lon="4.87801">
        <ele>288</ele>
        <time>2017-07-06T08:50:13Z</time>
      </trkpt>
      <trkpt lat="45.95904" lon="4.87793">
        <ele>288</ele>
        <time>2017-07-06T08:50:15Z</time>
      </trkpt>
      <trkpt lat="45.95907" lon="4.87789">
        <ele>288</ele>
        <time>2017-07-06T08:50:16Z</time>
      </trkpt>
      <trkpt lat="45.95912" lon="4.87781">
        <ele>288</ele>
        <time>2017-07-06T08:50:18Z</time>
      </trkpt>
      <trkpt lat="45.95915" lon="4.87776">
        <ele>288</ele>
        <time>2017-07-06T08:50:19Z</time>
      </trkpt>
      <trkpt lat="45.95919" lon="4.87772">
        <ele>289</ele>
        <time>2017-07-06T08:50:20Z</time>
      </trkpt>
      <trkpt lat="45.95922" lon="4.87766">
        <ele>288</ele>
        <time>2017-07-06T08:50:21Z</time>
      </trkpt>
      <trkpt lat="45.95925" lon="4.87761">
        <ele>288</ele>
        <time>2017-07-06T08:50:22Z</time>
      </trkpt>
      <trkpt lat="45.95928" lon="4.87756">
        <ele>288</ele>
        <time>2017-07-06T08:50:23Z</time>
      </trkpt>
      <trkpt lat="45.95932" lon="4.87751">
        <ele>288</ele>
        <time>2017-07-06T08:50:24Z</time>
      </trkpt>
      <trkpt lat="45.95935" lon="4.87747">
        <ele>288</ele>
        <time>2017-07-06T08:50:25Z</time>
      </trkpt>
      <trkpt lat="45.9594" lon="4.87738">
        <ele>288</ele>
        <time>2017-07-06T08:50:27Z</time>
      </trkpt>
      <trkpt lat="45.95943" lon="4.87734">
        <ele>289</ele>
        <time>2017-07-06T08:50:28Z</time>
      </trkpt>
      <trkpt lat="45.95949" lon="4.87725">
        <ele>289</ele>
        <time>2017-07-06T08:50:30Z</time>
      </trkpt>
      <trkpt lat="45.95953" lon="4.8772">
        <ele>289</ele>
        <time>2017-07-06T08:50:31Z</time>
      </trkpt>
      <trkpt lat="45.95957" lon="4.87715">
        <ele>289</ele>
        <time>2017-07-06T08:50:32Z</time>
      </trkpt>
      <trkpt lat="45.95961" lon="4.87711">
        <ele>289</ele>
        <time>2017-07-06T08:50:33Z</time>
      </trkpt>
      <trkpt lat="45.95964" lon="4.87706">
        <ele>289</ele>
        <time>2017-07-06T08:50:34Z</time>
      </trkpt>
      <trkpt lat="45.95968" lon="4.87701">
        <ele>289</ele>
        <time>2017-07-06T08:50:35Z</time>
      </trkpt>
      <trkpt lat="45.95971" lon="4.87696">
        <ele>289</ele>
        <time>2017-07-06T08:50:36Z</time>
      </trkpt>
      <trkpt lat="45.95974" lon="4.87692">
        <ele>289</ele>
        <time>2017-07-06T08:50:37Z</time>
      </trkpt>
      <trkpt lat="45.95978" lon="4.87688">
        <ele>289</ele>
        <time>2017-07-06T08:50:38Z</time>
      </trkpt>
      <trkpt lat="45.95982" lon="4.87683">
        <ele>289</ele>
        <time>2017-07-06T08:50:39Z</time>
      </trkpt>
      <trkpt lat="45.95985" lon="4.8768">
        <ele>289</ele>
        <time>2017-07-06T08:50:40Z</time>
      </trkpt>
      <trkpt lat="45.95989" lon="4.87676">
        <ele>289</ele>
        <time>2017-07-06T08:50:41Z</time>
      </trkpt>
      <trkpt lat="45.95993" lon="4.87671">
        <ele>290</ele>
        <time>2017-07-06T08:50:42Z</time>
      </trkpt>
      <trkpt lat="45.95996" lon="4.87667">
        <ele>290</ele>
        <time>2017-07-06T08:50:43Z</time>
      </trkpt>
      <trkpt lat="45.96" lon="4.87663">
        <ele>290</ele>
        <time>2017-07-06T08:50:44Z</time>
      </trkpt>
      <trkpt lat="45.96003" lon="4.87659">
        <ele>290</ele>
        <time>2017-07-06T08:50:45Z</time>
      </trkpt>
      <trkpt lat="45.96007" lon="4.87654">
        <ele>289</ele>
        <time>2017-07-06T08:50:46Z</time>
      </trkpt>
      <trkpt lat="45.96011" lon="4.8765">
        <ele>289</ele>
        <time>2017-07-06T08:50:47Z</time>
      </trkpt>
      <trkpt lat="45.96015" lon="4.87646">
        <ele>289</ele>
        <time>2017-07-06T08:50:48Z</time>
      </trkpt>
      <trkpt lat="45.96018" lon="4.87642">
        <ele>289</ele>
        <time>2017-07-06T08:50:49Z</time>
      </trkpt>
      <trkpt lat="45.96023" lon="4.87637">
        <ele>289</ele>
        <time>2017-07-06T08:50:50Z</time>
      </trkpt>
      <trkpt lat="45.96027" lon="4.87632">
        <ele>289</ele>
        <time>2017-07-06T08:50:51Z</time>
      </trkpt>
      <trkpt lat="45.96031" lon="4.87627">
        <ele>289</ele>
        <time>2017-07-06T08:50:52Z</time>
      </trkpt>
      <trkpt lat="45.96036" lon="4.87622">
        <ele>289</ele>
        <time>2017-07-06T08:50:53Z</time>
      </trkpt>
      <trkpt lat="45.9604" lon="4.87617">
        <ele>289</ele>
        <time>2017-07-06T08:50:54Z</time>
      </trkpt>
      <trkpt lat="45.96044" lon="4.87612">
        <ele>289</ele>
        <time>2017-07-06T08:50:55Z</time>
      </trkpt>
      <trkpt lat="45.96049" lon="4.87607">
        <ele>289</ele>
        <time>2017-07-06T08:50:56Z</time>
      </trkpt>
      <trkpt lat="45.96053" lon="4.87603">
        <ele>289</ele>
        <time>2017-07-06T08:50:57Z</time>
      </trkpt>
      <trkpt lat="45.96057" lon="4.87598">
        <ele>288</ele>
        <time>2017-07-06T08:50:58Z</time>
      </trkpt>
      <trkpt lat="45.96062" lon="4.87593">
        <ele>288</ele>
        <time>2017-07-06T08:50:59Z</time>
      </trkpt>
      <trkpt lat="45.96066" lon="4.87588">
        <ele>288</ele>
        <time>2017-07-06T08:51:00Z</time>
      </trkpt>
      <trkpt lat="45.96071" lon="4.87583">
        <ele>288</ele>
        <time>2017-07-06T08:51:01Z</time>
      </trkpt>
      <trkpt lat="45.96075" lon="4.87578">
        <ele>288</ele>
        <time>2017-07-06T08:51:02Z</time>
      </trkpt>
      <trkpt lat="45.9608" lon="4.87573">
        <ele>288</ele>
        <time>2017-07-06T08:51:03Z</time>
      </trkpt>
      <trkpt lat="45.96084" lon="4.87567">
        <ele>287</ele>
        <time>2017-07-06T08:51:04Z</time>
      </trkpt>
      <trkpt lat="45.96089" lon="4.87562">
        <ele>287</ele>
        <time>2017-07-06T08:51:05Z</time>
      </trkpt>
      <trkpt lat="45.96093" lon="4.87557">
        <ele>287</ele>
        <time>2017-07-06T08:51:06Z</time>
      </trkpt>
      <trkpt lat="45.96098" lon="4.87551">
        <ele>287</ele>
        <time>2017-07-06T08:51:07Z</time>
      </trkpt>
      <trkpt lat="45.96103" lon="4.87546">
        <ele>287</ele>
        <time>2017-07-06T08:51:08Z</time>
      </trkpt>
      <trkpt lat="45.96108" lon="4.87541">
        <ele>287</ele>
        <time>2017-07-06T08:51:09Z</time>
      </trkpt>
      <trkpt lat="45.96112" lon="4.87536">
        <ele>287</ele>
        <time>2017-07-06T08:51:10Z</time>
      </trkpt>
      <trkpt lat="45.96117" lon="4.8753">
        <ele>287</ele>
        <time>2017-07-06T08:51:11Z</time>
      </trkpt>
      <trkpt lat="45.96122" lon="4.87524">
        <ele>286</ele>
        <time>2017-07-06T08:51:12Z</time>
      </trkpt>
      <trkpt lat="45.96127" lon="4.87519">
        <ele>286</ele>
        <time>2017-07-06T08:51:13Z</time>
      </trkpt>
      <trkpt lat="45.96132" lon="4.87513">
        <ele>286</ele>
        <time>2017-07-06T08:51:14Z</time>
      </trkpt>
      <trkpt lat="45.96137" lon="4.87507">
        <ele>286</ele>
        <time>2017-07-06T08:51:15Z</time>
      </trkpt>
      <trkpt lat="45.96142" lon="4.87501">
        <ele>286</ele>
        <time>2017-07-06T08:51:16Z</time>
      </trkpt>
      <trkpt lat="45.96147" lon="4.87495">
        <ele>285</ele>
        <time>2017-07-06T08:51:17Z</time>
      </trkpt>
      <trkpt lat="45.96153" lon="4.87489">
        <ele>285</ele>
        <time>2017-07-06T08:51:18Z</time>
      </trkpt>
      <trkpt lat="45.96158" lon="4.87483">
        <ele>285</ele>
        <time>2017-07-06T08:51:19Z</time>
      </trkpt>
      <trkpt lat="45.96164" lon="4.87478">
        <ele>285</ele>
        <time>2017-07-06T08:51:20Z</time>
      </trkpt>
      <trkpt lat="45.96169" lon="4.87471">
        <ele>284</ele>
        <time>2017-07-06T08:51:21Z</time>
      </trkpt>
      <trkpt lat="45.96175" lon="4.87465">
        <ele>284</ele>
        <time>2017-07-06T08:51:22Z</time>
      </trkpt>
      <trkpt lat="45.9618" lon="4.87459">
        <ele>284</ele>
        <time>2017-07-06T08:51:23Z</time>
      </trkpt>
      <trkpt lat="45.96186" lon="4.87452">
        <ele>284</ele>
        <time>2017-07-06T08:51:24Z</time>
      </trkpt>
      <trkpt lat="45.96192" lon="4.87446">
        <ele>284</ele>
        <time>2017-07-06T08:51:25Z</time>
      </trkpt>
      <trkpt lat="45.96197" lon="4.87439">
        <ele>284</ele>
        <time>2017-07-06T08:51:26Z</time>
      </trkpt>
      <trkpt lat="45.96203" lon="4.87433">
        <ele>284</ele>
        <time>2017-07-06T08:51:27Z</time>
      </trkpt>
      <trkpt lat="45.96208" lon="4.87426">
        <ele>284</ele>
        <time>2017-07-06T08:51:28Z</time>
      </trkpt>
      <trkpt lat="45.96214" lon="4.8742">
        <ele>284</ele>
        <time>2017-07-06T08:51:29Z</time>
      </trkpt>
      <trkpt lat="45.9622" lon="4.87414">
        <ele>283</ele>
        <time>2017-07-06T08:51:30Z</time>
      </trkpt>
      <trkpt lat="45.96225" lon="4.87407">
        <ele>283</ele>
        <time>2017-07-06T08:51:31Z</time>
      </trkpt>
      <trkpt lat="45.9623" lon="4.874">
        <ele>283</ele>
        <time>2017-07-06T08:51:32Z</time>
      </trkpt>
      <trkpt lat="45.96236" lon="4.87394">
        <ele>283</ele>
        <time>2017-07-06T08:51:33Z</time>
      </trkpt>
      <trkpt lat="45.96241" lon="4.87387">
        <ele>283</ele>
        <time>2017-07-06T08:51:34Z</time>
      </trkpt>
      <trkpt lat="45.96246" lon="4.87381">
        <ele>283</ele>
        <time>2017-07-06T08:51:35Z</time>
      </trkpt>
      <trkpt lat="45.96251" lon="4.87375">
        <ele>283</ele>
        <time>2017-07-06T08:51:36Z</time>
      </trkpt>
      <trkpt lat="45.96256" lon="4.87369">
        <ele>283</ele>
        <time>2017-07-06T08:51:37Z</time>
      </trkpt>
      <trkpt lat="45.96261" lon="4.87363">
        <ele>283</ele>
        <time>2017-07-06T08:51:38Z</time>
      </trkpt>
      <trkpt lat="45.96265" lon="4.87357">
        <ele>283</ele>
        <time>2017-07-06T08:51:39Z</time>
      </trkpt>
      <trkpt lat="45.9627" lon="4.87351">
        <ele>283</ele>
        <time>2017-07-06T08:51:40Z</time>
      </trkpt>
      <trkpt lat="45.96275" lon="4.87345">
        <ele>283</ele>
        <time>2017-07-06T08:51:41Z</time>
      </trkpt>
      <trkpt lat="45.9628" lon="4.87339">
        <ele>284</ele>
        <time>2017-07-06T08:51:42Z</time>
      </trkpt>
      <trkpt lat="45.96284" lon="4.87333">
        <ele>283</ele>
        <time>2017-07-06T08:51:43Z</time>
      </trkpt>
      <trkpt lat="45.9629" lon="4.87326">
        <ele>283</ele>
        <time>2017-07-06T08:51:44Z</time>
      </trkpt>
      <trkpt lat="45.96295" lon="4.8732">
        <ele>283</ele>
        <time>2017-07-06T08:51:45Z</time>
      </trkpt>
      <trkpt lat="45.963" lon="4.87313">
        <ele>283</ele>
        <time>2017-07-06T08:51:46Z</time>
      </trkpt>
      <trkpt lat="45.96306" lon="4.87306">
        <ele>283</ele>
        <time>2017-07-06T08:51:47Z</time>
      </trkpt>
      <trkpt lat="45.96311" lon="4.873">
        <ele>283</ele>
        <time>2017-07-06T08:51:48Z</time>
      </trkpt>
      <trkpt lat="45.96316" lon="4.87293">
        <ele>283</ele>
        <time>2017-07-06T08:51:49Z</time>
      </trkpt>
      <trkpt lat="45.96321" lon="4.87286">
        <ele>283</ele>
        <time>2017-07-06T08:51:50Z</time>
      </trkpt>
      <trkpt lat="45.96326" lon="4.8728">
        <ele>283</ele>
        <time>2017-07-06T08:51:51Z</time>
      </trkpt>
      <trkpt lat="45.96331" lon="4.87273">
        <ele>283</ele>
        <time>2017-07-06T08:51:52Z</time>
      </trkpt>
      <trkpt lat="45.96336" lon="4.87266">
        <ele>283</ele>
        <time>2017-07-06T08:51:53Z</time>
      </trkpt>
      <trkpt lat="45.96341" lon="4.8726">
        <ele>283</ele>
        <time>2017-07-06T08:51:54Z</time>
      </trkpt>
      <trkpt lat="45.96346" lon="4.87254">
        <ele>283</ele>
        <time>2017-07-06T08:51:55Z</time>
      </trkpt>
      <trkpt lat="45.9635" lon="4.87247">
        <ele>283</ele>
        <time>2017-07-06T08:51:56Z</time>
      </trkpt>
      <trkpt lat="45.96355" lon="4.87241">
        <ele>282</ele>
        <time>2017-07-06T08:51:57Z</time>
      </trkpt>
      <trkpt lat="45.9636" lon="4.87235">
        <ele>282</ele>
        <time>2017-07-06T08:51:58Z</time>
      </trkpt>
      <trkpt lat="45.96365" lon="4.87228">
        <ele>282</ele>
        <time>2017-07-06T08:51:59Z</time>
      </trkpt>
      <trkpt lat="45.9637" lon="4.87222">
        <ele>282</ele>
        <time>2017-07-06T08:52:00Z</time>
      </trkpt>
      <trkpt lat="45.96374" lon="4.87216">
        <ele>282</ele>
        <time>2017-07-06T08:52:01Z</time>
      </trkpt>
      <trkpt lat="45.96379" lon="4.87209">
        <ele>282</ele>
        <time>2017-07-06T08:52:02Z</time>
      </trkpt>
      <trkpt lat="45.96384" lon="4.87203">
        <ele>282</ele>
        <time>2017-07-06T08:52:03Z</time>
      </trkpt>
      <trkpt lat="45.96389" lon="4.87196">
        <ele>282</ele>
        <time>2017-07-06T08:52:04Z</time>
      </trkpt>
      <trkpt lat="45.96394" lon="4.87189">
        <ele>282</ele>
        <time>2017-07-06T08:52:05Z</time>
      </trkpt>
      <trkpt lat="45.96399" lon="4.87183">
        <ele>282</ele>
        <time>2017-07-06T08:52:06Z</time>
      </trkpt>
      <trkpt lat="45.96404" lon="4.87177">
        <ele>281</ele>
        <time>2017-07-06T08:52:07Z</time>
      </trkpt>
      <trkpt lat="45.96409" lon="4.8717">
        <ele>281</ele>
        <time>2017-07-06T08:52:08Z</time>
      </trkpt>
      <trkpt lat="45.96414" lon="4.87163">
        <ele>281</ele>
        <time>2017-07-06T08:52:09Z</time>
      </trkpt>
      <trkpt lat="45.96419" lon="4.87157">
        <ele>281</ele>
        <time>2017-07-06T08:52:10Z</time>
      </trkpt>
      <trkpt lat="45.96423" lon="4.8715">
        <ele>281</ele>
        <time>2017-07-06T08:52:11Z</time>
      </trkpt>
      <trkpt lat="45.96428" lon="4.87144">
        <ele>281</ele>
        <time>2017-07-06T08:52:12Z</time>
      </trkpt>
      <trkpt lat="45.96432" lon="4.87138">
        <ele>281</ele>
        <time>2017-07-06T08:52:13Z</time>
      </trkpt>
      <trkpt lat="45.96437" lon="4.87133">
        <ele>281</ele>
        <time>2017-07-06T08:52:14Z</time>
      </trkpt>
      <trkpt lat="45.96441" lon="4.87127">
        <ele>281</ele>
        <time>2017-07-06T08:52:15Z</time>
      </trkpt>
      <trkpt lat="45.96445" lon="4.87121">
        <ele>281</ele>
        <time>2017-07-06T08:52:16Z</time>
      </trkpt>
      <trkpt lat="45.96449" lon="4.87116">
        <ele>281</ele>
        <time>2017-07-06T08:52:17Z</time>
      </trkpt>
      <trkpt lat="45.96453" lon="4.87111">
        <ele>281</ele>
        <time>2017-07-06T08:52:18Z</time>
      </trkpt>
      <trkpt lat="45.96457" lon="4.87106">
        <ele>281</ele>
        <time>2017-07-06T08:52:19Z</time>
      </trkpt>
      <trkpt lat="45.96461" lon="4.87101">
        <ele>282</ele>
        <time>2017-07-06T08:52:20Z</time>
      </trkpt>
      <trkpt lat="45.96464" lon="4.87096">
        <ele>282</ele>
        <time>2017-07-06T08:52:21Z</time>
      </trkpt>
      <trkpt lat="45.96468" lon="4.8709">
        <ele>282</ele>
        <time>2017-07-06T08:52:22Z</time>
      </trkpt>
      <trkpt lat="45.96473" lon="4.87084">
        <ele>282</ele>
        <time>2017-07-06T08:52:23Z</time>
      </trkpt>
      <trkpt lat="45.96477" lon="4.87078">
        <ele>282</ele>
        <time>2017-07-06T08:52:24Z</time>
      </trkpt>
      <trkpt lat="45.96481" lon="4.87073">
        <ele>282</ele>
        <time>2017-07-06T08:52:25Z</time>
      </trkpt>
      <trkpt lat="45.96485" lon="4.87069">
        <ele>282</ele>
        <time>2017-07-06T08:52:26Z</time>
      </trkpt>
      <trkpt lat="45.96489" lon="4.87064">
        <ele>282</ele>
        <time>2017-07-06T08:52:27Z</time>
      </trkpt>
      <trkpt lat="45.96492" lon="4.87059">
        <ele>281</ele>
        <time>2017-07-06T08:52:28Z</time>
      </trkpt>
      <trkpt lat="45.96496" lon="4.87054">
        <ele>281</ele>
        <time>2017-07-06T08:52:29Z</time>
      </trkpt>
      <trkpt lat="45.96501" lon="4.87048">
        <ele>282</ele>
        <time>2017-07-06T08:52:31Z</time>
      </trkpt>
      <trkpt lat="45.96505" lon="4.87047">
        <ele>282</ele>
        <time>2017-07-06T08:52:32Z</time>
      </trkpt>
      <trkpt lat="45.9651" lon="4.87051">
        <ele>283</ele>
        <time>2017-07-06T08:52:34Z</time>
      </trkpt>
      <trkpt lat="45.96512" lon="4.87055">
        <ele>283</ele>
        <time>2017-07-06T08:52:35Z</time>
      </trkpt>
      <trkpt lat="45.96517" lon="4.87065">
        <ele>283</ele>
        <time>2017-07-06T08:52:38Z</time>
      </trkpt>
      <trkpt lat="45.96519" lon="4.87067">
        <ele>283</ele>
        <time>2017-07-06T08:52:39Z</time>
      </trkpt>
      <trkpt lat="45.96526" lon="4.87069">
        <ele>283</ele>
        <time>2017-07-06T08:52:41Z</time>
      </trkpt>
      <trkpt lat="45.96528" lon="4.87068">
        <ele>283</ele>
        <time>2017-07-06T08:52:42Z</time>
      </trkpt>
      <trkpt lat="45.96534" lon="4.87062">
        <ele>283</ele>
        <time>2017-07-06T08:52:45Z</time>
      </trkpt>
      <trkpt lat="45.96537" lon="4.87062">
        <ele>283</ele>
        <time>2017-07-06T08:52:46Z</time>
      </trkpt>
      <trkpt lat="45.9654" lon="4.87072">
        <ele>283</ele>
        <time>2017-07-06T08:52:50Z</time>
      </trkpt>
      <trkpt lat="45.96542" lon="4.87074">
        <ele>283</ele>
        <time>2017-07-06T08:52:51Z</time>
      </trkpt>
      <trkpt lat="45.96548" lon="4.87074">
        <ele>283</ele>
        <time>2017-07-06T08:52:54Z</time>
      </trkpt>
      <trkpt lat="45.96551" lon="4.87074">
        <ele>283</ele>
        <time>2017-07-06T08:52:55Z</time>
      </trkpt>
      <trkpt lat="45.96558" lon="4.87067">
        <ele>283</ele>
        <time>2017-07-06T08:52:59Z</time>
      </trkpt>
      <trkpt lat="45.96558" lon="4.87062">
        <ele>283</ele>
        <time>2017-07-06T08:53:00Z</time>
      </trkpt>
      <trkpt lat="45.96557" lon="4.87053">
        <ele>283</ele>
        <time>2017-07-06T08:53:02Z</time>
      </trkpt>
      <trkpt lat="45.96557" lon="4.87048">
        <ele>283</ele>
        <time>2017-07-06T08:53:03Z</time>
      </trkpt>
      <trkpt lat="45.96556" lon="4.87038">
        <ele>283</ele>
        <time>2017-07-06T08:53:05Z</time>
      </trkpt>
      <trkpt lat="45.96555" lon="4.87034">
        <ele>283</ele>
        <time>2017-07-06T08:53:06Z</time>
      </trkpt>
      <trkpt lat="45.96552" lon="4.87026">
        <ele>283</ele>
        <time>2017-07-06T08:53:08Z</time>
      </trkpt>
      <trkpt lat="45.9655" lon="4.87023">
        <ele>283</ele>
        <time>2017-07-06T08:53:09Z</time>
      </trkpt>
      <trkpt lat="45.96545" lon="4.87028">
        <ele>283</ele>
        <time>2017-07-06T08:53:23Z</time>
      </trkpt>
      <trkpt lat="45.96546" lon="4.87029">
        <ele>283</ele>
        <time>2017-07-06T08:53:24Z</time>
      </trkpt>
      <trkpt lat="45.96548" lon="4.87029">
        <ele>283</ele>
        <time>2017-07-06T08:53:29Z</time>
      </trkpt>
      <trkpt lat="45.96548" lon="4.87028">
        <ele>283</ele>
        <time>2017-07-06T08:53:30Z</time>
      </trkpt>
      <trkpt lat="45.9654" lon="4.87029">
        <ele>283</ele>
        <time>2017-07-06T08:59:47Z</time>
      </trkpt>
      <trkpt lat="45.96538" lon="4.87029">
        <ele>283</ele>
        <time>2017-07-06T08:59:48Z</time>
      </trkpt>
      <trkpt lat="45.96531" lon="4.87021">
        <ele>283</ele>
        <time>2017-07-06T09:00:04Z</time>
      </trkpt>
      <trkpt lat="45.96532" lon="4.87019">
        <ele>283</ele>
        <time>2017-07-06T09:00:05Z</time>
      </trkpt>
      <trkpt lat="45.96534" lon="4.87009">
        <ele>283</ele>
        <time>2017-07-06T09:00:09Z</time>
      </trkpt>
      <trkpt lat="45.96535" lon="4.87007">
        <ele>283</ele>
        <time>2017-07-06T09:00:10Z</time>
      </trkpt>
      <trkpt lat="45.9654" lon="4.86996">
        <ele>283</ele>
        <time>2017-07-06T09:00:14Z</time>
      </trkpt>
      <trkpt lat="45.96542" lon="4.86993">
        <ele>283</ele>
        <time>2017-07-06T09:00:15Z</time>
      </trkpt>
      <trkpt lat="45.96547" lon="4.86986">
        <ele>283</ele>
        <time>2017-07-06T09:00:17Z</time>
      </trkpt>
      <trkpt lat="45.9655" lon="4.86982">
        <ele>283</ele>
        <time>2017-07-06T09:00:18Z</time>
      </trkpt>
      <trkpt lat="45.96556" lon="4.86974">
        <ele>283</ele>
        <time>2017-07-06T09:00:20Z</time>
      </trkpt>
      <trkpt lat="45.96558" lon="4.8697">
        <ele>283</ele>
        <time>2017-07-06T09:00:21Z</time>
      </trkpt>
      <trkpt lat="45.96563" lon="4.86961">
        <ele>283</ele>
        <time>2017-07-06T09:00:24Z</time>
      </trkpt>
      <trkpt lat="45.96565" lon="4.86958">
        <ele>284</ele>
        <time>2017-07-06T09:00:25Z</time>
      </trkpt>
      <trkpt lat="45.96571" lon="4.86948">
        <ele>284</ele>
        <time>2017-07-06T09:00:28Z</time>
      </trkpt>
      <trkpt lat="45.96573" lon="4.86945">
        <ele>284</ele>
        <time>2017-07-06T09:00:29Z</time>
      </trkpt>
      <trkpt lat="45.96577" lon="4.86937">
        <ele>284</ele>
        <time>2017-07-06T09:00:31Z</time>
      </trkpt>
      <trkpt lat="45.9658" lon="4.86934">
        <ele>284</ele>
        <time>2017-07-06T09:00:32Z</time>
      </trkpt>
      <trkpt lat="45.96584" lon="4.86925">
        <ele>285</ele>
        <time>2017-07-06T09:00:34Z</time>
      </trkpt>
      <trkpt lat="45.96587" lon="4.86921">
        <ele>285</ele>
        <time>2017-07-06T09:00:35Z</time>
      </trkpt>
      <trkpt lat="45.96593" lon="4.86912">
        <ele>286</ele>
        <time>2017-07-06T09:00:37Z</time>
      </trkpt>
      <trkpt lat="45.96596" lon="4.86907">
        <ele>286</ele>
        <time>2017-07-06T09:00:38Z</time>
      </trkpt>
      <trkpt lat="45.96601" lon="4.86899">
        <ele>286</ele>
        <time>2017-07-06T09:00:40Z</time>
      </trkpt>
      <trkpt lat="45.96603" lon="4.86895">
        <ele>286</ele>
        <time>2017-07-06T09:00:41Z</time>
      </trkpt>
      <trkpt lat="45.96607" lon="4.86888">
        <ele>287</ele>
        <time>2017-07-06T09:00:43Z</time>
      </trkpt>
      <trkpt lat="45.9661" lon="4.86885">
        <ele>287</ele>
        <time>2017-07-06T09:00:44Z</time>
      </trkpt>
      <trkpt lat="45.96614" lon="4.86878">
        <ele>287</ele>
        <time>2017-07-06T09:00:46Z</time>
      </trkpt>
      <trkpt lat="45.96615" lon="4.86873">
        <ele>287</ele>
        <time>2017-07-06T09:00:47Z</time>
      </trkpt>
      <trkpt lat="45.96619" lon="4.86866">
        <ele>287</ele>
        <time>2017-07-06T09:00:49Z</time>
      </trkpt>
      <trkpt lat="45.96621" lon="4.86862">
        <ele>287</ele>
        <time>2017-07-06T09:00:50Z</time>
      </trkpt>
      <trkpt lat="45.96627" lon="4.86854">
        <ele>287</ele>
        <time>2017-07-06T09:00:52Z</time>
      </trkpt>
      <trkpt lat="45.96629" lon="4.8685">
        <ele>287</ele>
        <time>2017-07-06T09:00:53Z</time>
      </trkpt>
      <trkpt lat="45.96634" lon="4.86841">
        <ele>287</ele>
        <time>2017-07-06T09:00:56Z</time>
      </trkpt>
      <trkpt lat="45.96635" lon="4.8684">
        <ele>287</ele>
        <time>2017-07-06T09:00:57Z</time>
      </trkpt>
      <trkpt lat="45.96639" lon="4.8683">
        <ele>288</ele>
        <time>2017-07-06T09:01:39Z</time>
      </trkpt>
      <trkpt lat="45.96643" lon="4.86826">
        <ele>288</ele>
        <time>2017-07-06T09:01:40Z</time>
      </trkpt>
      <trkpt lat="45.96647" lon="4.86819">
        <ele>288</ele>
        <time>2017-07-06T09:01:42Z</time>
      </trkpt>
      <trkpt lat="45.9665" lon="4.86815">
        <ele>288</ele>
        <time>2017-07-06T09:01:43Z</time>
      </trkpt>
      <trkpt lat="45.96655" lon="4.86807">
        <ele>288</ele>
        <time>2017-07-06T09:01:45Z</time>
      </trkpt>
      <trkpt lat="45.96659" lon="4.86802">
        <ele>288</ele>
        <time>2017-07-06T09:01:46Z</time>
      </trkpt>
      <trkpt lat="45.96662" lon="4.86797">
        <ele>288</ele>
        <time>2017-07-06T09:01:47Z</time>
      </trkpt>
      <trkpt lat="45.96665" lon="4.86791">
        <ele>288</ele>
        <time>2017-07-06T09:01:48Z</time>
      </trkpt>
      <trkpt lat="45.96668" lon="4.86786">
        <ele>289</ele>
        <time>2017-07-06T09:01:49Z</time>
      </trkpt>
      <trkpt lat="45.96671" lon="4.86781">
        <ele>289</ele>
        <time>2017-07-06T09:01:50Z</time>
      </trkpt>
      <trkpt lat="45.96676" lon="4.86772">
        <ele>289</ele>
        <time>2017-07-06T09:01:52Z</time>
      </trkpt>
      <trkpt lat="45.96679" lon="4.86768">
        <ele>289</ele>
        <time>2017-07-06T09:01:53Z</time>
      </trkpt>
      <trkpt lat="45.96685" lon="4.86758">
        <ele>289</ele>
        <time>2017-07-06T09:01:55Z</time>
      </trkpt>
      <trkpt lat="45.96688" lon="4.86753">
        <ele>289</ele>
        <time>2017-07-06T09:01:56Z</time>
      </trkpt>
      <trkpt lat="45.96691" lon="4.86749">
        <ele>289</ele>
        <time>2017-07-06T09:01:57Z</time>
      </trkpt>
      <trkpt lat="45.96694" lon="4.86743">
        <ele>289</ele>
        <time>2017-07-06T09:01:58Z</time>
      </trkpt>
      <trkpt lat="45.96697" lon="4.86738">
        <ele>289</ele>
        <time>2017-07-06T09:01:59Z</time>
      </trkpt>
      <trkpt lat="45.96701" lon="4.86733">
        <ele>289</ele>
        <time>2017-07-06T09:02:00Z</time>
      </trkpt>
      <trkpt lat="45.96704" lon="4.86728">
        <ele>289</ele>
        <time>2017-07-06T09:02:01Z</time>
      </trkpt>
      <trkpt lat="45.96707" lon="4.86722">
        <ele>289</ele>
        <time>2017-07-06T09:02:02Z</time>
      </trkpt>
      <trkpt lat="45.96712" lon="4.86712">
        <ele>289</ele>
        <time>2017-07-06T09:02:04Z</time>
      </trkpt>
      <trkpt lat="45.96715" lon="4.86708">
        <ele>289</ele>
        <time>2017-07-06T09:02:05Z</time>
      </trkpt>
      <trkpt lat="45.9672" lon="4.86699">
        <ele>289</ele>
        <time>2017-07-06T09:02:07Z</time>
      </trkpt>
      <trkpt lat="45.96723" lon="4.86695">
        <ele>289</ele>
        <time>2017-07-06T09:02:08Z</time>
      </trkpt>
      <trkpt lat="45.96728" lon="4.86686">
        <ele>289</ele>
        <time>2017-07-06T09:02:10Z</time>
      </trkpt>
      <trkpt lat="45.96731" lon="4.86682">
        <ele>289</ele>
        <time>2017-07-06T09:02:11Z</time>
      </trkpt>
      <trkpt lat="45.96734" lon="4.86677">
        <ele>290</ele>
        <time>2017-07-06T09:02:12Z</time>
      </trkpt>
      <trkpt lat="45.96736" lon="4.86671">
        <ele>290</ele>
        <time>2017-07-06T09:02:13Z</time>
      </trkpt>
      <trkpt lat="45.96739" lon="4.86665">
        <ele>290</ele>
        <time>2017-07-06T09:02:14Z</time>
      </trkpt>
      <trkpt lat="45.96742" lon="4.8666">
        <ele>290</ele>
        <time>2017-07-06T09:02:15Z</time>
      </trkpt>
      <trkpt lat="45.96748" lon="4.86651">
        <ele>290</ele>
        <time>2017-07-06T09:02:17Z</time>
      </trkpt>
      <trkpt lat="45.9675" lon="4.86646">
        <ele>290</ele>
        <time>2017-07-06T09:02:18Z</time>
      </trkpt>
      <trkpt lat="45.96756" lon="4.86637">
        <ele>290</ele>
        <time>2017-07-06T09:02:20Z</time>
      </trkpt>
      <trkpt lat="45.96759" lon="4.86632">
        <ele>290</ele>
        <time>2017-07-06T09:02:21Z</time>
      </trkpt>
      <trkpt lat="45.96762" lon="4.86627">
        <ele>289</ele>
        <time>2017-07-06T09:02:22Z</time>
      </trkpt>
      <trkpt lat="45.96765" lon="4.86622">
        <ele>289</ele>
        <time>2017-07-06T09:02:23Z</time>
      </trkpt>
      <trkpt lat="45.96769" lon="4.86617">
        <ele>289</ele>
        <time>2017-07-06T09:02:24Z</time>
      </trkpt>
      <trkpt lat="45.96772" lon="4.86612">
        <ele>289</ele>
        <time>2017-07-06T09:02:25Z</time>
      </trkpt>
      <trkpt lat="45.96775" lon="4.86607">
        <ele>289</ele>
        <time>2017-07-06T09:02:26Z</time>
      </trkpt>
      <trkpt lat="45.96778" lon="4.86602">
        <ele>289</ele>
        <time>2017-07-06T09:02:27Z</time>
      </trkpt>
      <trkpt lat="45.96784" lon="4.86592">
        <ele>289</ele>
        <time>2017-07-06T09:02:29Z</time>
      </trkpt>
      <trkpt lat="45.96787" lon="4.86588">
        <ele>289</ele>
        <time>2017-07-06T09:02:30Z</time>
      </trkpt>
      <trkpt lat="45.96793" lon="4.86579">
        <ele>290</ele>
        <time>2017-07-06T09:02:32Z</time>
      </trkpt>
      <trkpt lat="45.96796" lon="4.86574">
        <ele>290</ele>
        <time>2017-07-06T09:02:33Z</time>
      </trkpt>
      <trkpt lat="45.96798" lon="4.86569">
        <ele>290</ele>
        <time>2017-07-06T09:02:34Z</time>
      </trkpt>
      <trkpt lat="45.96802" lon="4.86564">
        <ele>290</ele>
        <time>2017-07-06T09:02:35Z</time>
      </trkpt>
      <trkpt lat="45.96805" lon="4.86559">
        <ele>290</ele>
        <time>2017-07-06T09:02:36Z</time>
      </trkpt>
      <trkpt lat="45.96808" lon="4.86554">
        <ele>290</ele>
        <time>2017-07-06T09:02:37Z</time>
      </trkpt>
      <trkpt lat="45.96811" lon="4.86549">
        <ele>290</ele>
        <time>2017-07-06T09:02:38Z</time>
      </trkpt>
      <trkpt lat="45.96814" lon="4.86544">
        <ele>290</ele>
        <time>2017-07-06T09:02:39Z</time>
      </trkpt>
      <trkpt lat="45.96817" lon="4.86538">
        <ele>290</ele>
        <time>2017-07-06T09:02:40Z</time>
      </trkpt>
      <trkpt lat="45.9682" lon="4.86532">
        <ele>290</ele>
        <time>2017-07-06T09:02:41Z</time>
      </trkpt>
      <trkpt lat="45.96824" lon="4.86527">
        <ele>289</ele>
        <time>2017-07-06T09:02:42Z</time>
      </trkpt>
      <trkpt lat="45.96827" lon="4.86521">
        <ele>289</ele>
        <time>2017-07-06T09:02:43Z</time>
      </trkpt>
      <trkpt lat="45.9683" lon="4.86514">
        <ele>289</ele>
        <time>2017-07-06T09:02:44Z</time>
      </trkpt>
      <trkpt lat="45.96833" lon="4.86508">
        <ele>289</ele>
        <time>2017-07-06T09:02:45Z</time>
      </trkpt>
      <trkpt lat="45.96836" lon="4.86502">
        <ele>289</ele>
        <time>2017-07-06T09:02:46Z</time>
      </trkpt>
      <trkpt lat="45.96839" lon="4.86496">
        <ele>289</ele>
        <time>2017-07-06T09:02:47Z</time>
      </trkpt>
      <trkpt lat="45.96841" lon="4.86489">
        <ele>289</ele>
        <time>2017-07-06T09:02:48Z</time>
      </trkpt>
      <trkpt lat="45.96843" lon="4.86483">
        <ele>289</ele>
        <time>2017-07-06T09:02:49Z</time>
      </trkpt>
      <trkpt lat="45.96845" lon="4.86476">
        <ele>289</ele>
        <time>2017-07-06T09:02:50Z</time>
      </trkpt>
      <trkpt lat="45.96847" lon="4.8647">
        <ele>289</ele>
        <time>2017-07-06T09:02:51Z</time>
      </trkpt>
      <trkpt lat="45.96849" lon="4.86464">
        <ele>289</ele>
        <time>2017-07-06T09:02:52Z</time>
      </trkpt>
      <trkpt lat="45.9685" lon="4.86458">
        <ele>289</ele>
        <time>2017-07-06T09:02:53Z</time>
      </trkpt>
      <trkpt lat="45.96852" lon="4.86451">
        <ele>289</ele>
        <time>2017-07-06T09:02:54Z</time>
      </trkpt>
      <trkpt lat="45.96853" lon="4.86444">
        <ele>290</ele>
        <time>2017-07-06T09:02:55Z</time>
      </trkpt>
      <trkpt lat="45.96855" lon="4.86437">
        <ele>290</ele>
        <time>2017-07-06T09:02:56Z</time>
      </trkpt>
      <trkpt lat="45.96857" lon="4.8643">
        <ele>290</ele>
        <time>2017-07-06T09:02:57Z</time>
      </trkpt>
      <trkpt lat="45.96858" lon="4.86422">
        <ele>290</ele>
        <time>2017-07-06T09:02:58Z</time>
      </trkpt>
      <trkpt lat="45.96859" lon="4.86415">
        <ele>290</ele>
        <time>2017-07-06T09:02:59Z</time>
      </trkpt>
      <trkpt lat="45.9686" lon="4.86408">
        <ele>290</ele>
        <time>2017-07-06T09:03:00Z</time>
      </trkpt>
      <trkpt lat="45.96862" lon="4.86401">
        <ele>290</ele>
        <time>2017-07-06T09:03:01Z</time>
      </trkpt>
      <trkpt lat="45.96863" lon="4.86394">
        <ele>290</ele>
        <time>2017-07-06T09:03:02Z</time>
      </trkpt>
      <trkpt lat="45.96864" lon="4.86387">
        <ele>290</ele>
        <time>2017-07-06T09:03:03Z</time>
      </trkpt>
      <trkpt lat="45.96865" lon="4.86375">
        <ele>290</ele>
        <time>2017-07-06T09:03:05Z</time>
      </trkpt>
      <trkpt lat="45.96866" lon="4.86369">
        <ele>290</ele>
        <time>2017-07-06T09:03:06Z</time>
      </trkpt>
      <trkpt lat="45.96867" lon="4.86362">
        <ele>290</ele>
        <time>2017-07-06T09:03:07Z</time>
      </trkpt>
      <trkpt lat="45.96868" lon="4.86356">
        <ele>290</ele>
        <time>2017-07-06T09:03:08Z</time>
      </trkpt>
      <trkpt lat="45.96869" lon="4.86349">
        <ele>290</ele>
        <time>2017-07-06T09:03:09Z</time>
      </trkpt>
      <trkpt lat="45.9687" lon="4.86343">
        <ele>290</ele>
        <time>2017-07-06T09:03:10Z</time>
      </trkpt>
      <trkpt lat="45.96871" lon="4.86336">
        <ele>290</ele>
        <time>2017-07-06T09:03:11Z</time>
      </trkpt>
      <trkpt lat="45.96871" lon="4.86328">
        <ele>289</ele>
        <time>2017-07-06T09:03:12Z</time>
      </trkpt>
      <trkpt lat="45.96872" lon="4.86321">
        <ele>289</ele>
        <time>2017-07-06T09:03:13Z</time>
      </trkpt>
      <trkpt lat="45.96873" lon="4.86314">
        <ele>289</ele>
        <time>2017-07-06T09:03:14Z</time>
      </trkpt>
      <trkpt lat="45.96874" lon="4.86307">
        <ele>289</ele>
        <time>2017-07-06T09:03:15Z</time>
      </trkpt>
      <trkpt lat="45.96875" lon="4.863">
        <ele>289</ele>
        <time>2017-07-06T09:03:16Z</time>
      </trkpt>
      <trkpt lat="45.96876" lon="4.86293">
        <ele>289</ele>
        <time>2017-07-06T09:03:17Z</time>
      </trkpt>
      <trkpt lat="45.96877" lon="4.86286">
        <ele>289</ele>
        <time>2017-07-06T09:03:18Z</time>
      </trkpt>
      <trkpt lat="45.96879" lon="4.86273">
        <ele>289</ele>
        <time>2017-07-06T09:03:20Z</time>
      </trkpt>
      <trkpt lat="45.9688" lon="4.86267">
        <ele>288</ele>
        <time>2017-07-06T09:03:21Z</time>
      </trkpt>
      <trkpt lat="45.96882" lon="4.86255">
        <ele>288</ele>
        <time>2017-07-06T09:03:23Z</time>
      </trkpt>
      <trkpt lat="45.96883" lon="4.8625">
        <ele>288</ele>
        <time>2017-07-06T09:03:24Z</time>
      </trkpt>
      <trkpt lat="45.96884" lon="4.86237">
        <ele>288</ele>
        <time>2017-07-06T09:03:26Z</time>
      </trkpt>
      <trkpt lat="45.96885" lon="4.86231">
        <ele>289</ele>
        <time>2017-07-06T09:03:27Z</time>
      </trkpt>
      <trkpt lat="45.96886" lon="4.86224">
        <ele>289</ele>
        <time>2017-07-06T09:03:28Z</time>
      </trkpt>
      <trkpt lat="45.96887" lon="4.86217">
        <ele>289</ele>
        <time>2017-07-06T09:03:29Z</time>
      </trkpt>
      <trkpt lat="45.96888" lon="4.86209">
        <ele>289</ele>
        <time>2017-07-06T09:03:30Z</time>
      </trkpt>
      <trkpt lat="45.96889" lon="4.86201">
        <ele>289</ele>
        <time>2017-07-06T09:03:31Z</time>
      </trkpt>
      <trkpt lat="45.9689" lon="4.86193">
        <ele>289</ele>
        <time>2017-07-06T09:03:32Z</time>
      </trkpt>
      <trkpt lat="45.96891" lon="4.86185">
        <ele>289</ele>
        <time>2017-07-06T09:03:33Z</time>
      </trkpt>
      <trkpt lat="45.96892" lon="4.86178">
        <ele>289</ele>
        <time>2017-07-06T09:03:34Z</time>
      </trkpt>
      <trkpt lat="45.96893" lon="4.8617">
        <ele>288</ele>
        <time>2017-07-06T09:03:35Z</time>
      </trkpt>
      <trkpt lat="45.96895" lon="4.86161">
        <ele>289</ele>
        <time>2017-07-06T09:03:36Z</time>
      </trkpt>
      <trkpt lat="45.96896" lon="4.86152">
        <ele>289</ele>
        <time>2017-07-06T09:03:37Z</time>
      </trkpt>
      <trkpt lat="45.96897" lon="4.86142">
        <ele>289</ele>
        <time>2017-07-06T09:03:38Z</time>
      </trkpt>
      <trkpt lat="45.96899" lon="4.86133">
        <ele>289</ele>
        <time>2017-07-06T09:03:39Z</time>
      </trkpt>
      <trkpt lat="45.969" lon="4.86123">
        <ele>289</ele>
        <time>2017-07-06T09:03:40Z</time>
      </trkpt>
      <trkpt lat="45.96901" lon="4.86113">
        <ele>289</ele>
        <time>2017-07-06T09:03:41Z</time>
      </trkpt>
      <trkpt lat="45.96903" lon="4.86103">
        <ele>288</ele>
        <time>2017-07-06T09:03:42Z</time>
      </trkpt>
      <trkpt lat="45.96904" lon="4.86093">
        <ele>288</ele>
        <time>2017-07-06T09:03:43Z</time>
      </trkpt>
      <trkpt lat="45.96904" lon="4.86083">
        <ele>288</ele>
        <time>2017-07-06T09:03:44Z</time>
      </trkpt>
      <trkpt lat="45.96905" lon="4.86073">
        <ele>288</ele>
        <time>2017-07-06T09:03:45Z</time>
      </trkpt>
      <trkpt lat="45.96906" lon="4.86064">
        <ele>288</ele>
        <time>2017-07-06T09:03:46Z</time>
      </trkpt>
      <trkpt lat="45.96907" lon="4.86054">
        <ele>289</ele>
        <time>2017-07-06T09:03:47Z</time>
      </trkpt>
      <trkpt lat="45.96907" lon="4.86045">
        <ele>289</ele>
        <time>2017-07-06T09:03:48Z</time>
      </trkpt>
      <trkpt lat="45.96908" lon="4.86036">
        <ele>289</ele>
        <time>2017-07-06T09:03:49Z</time>
      </trkpt>
      <trkpt lat="45.9691" lon="4.86026">
        <ele>289</ele>
        <time>2017-07-06T09:03:50Z</time>
      </trkpt>
      <trkpt lat="45.96911" lon="4.86017">
        <ele>289</ele>
        <time>2017-07-06T09:03:51Z</time>
      </trkpt>
      <trkpt lat="45.96913" lon="4.86007">
        <ele>288</ele>
        <time>2017-07-06T09:03:52Z</time>
      </trkpt>
      <trkpt lat="45.96915" lon="4.85997">
        <ele>288</ele>
        <time>2017-07-06T09:03:53Z</time>
      </trkpt>
      <trkpt lat="45.96917" lon="4.85987">
        <ele>287</ele>
        <time>2017-07-06T09:03:54Z</time>
      </trkpt>
      <trkpt lat="45.9692" lon="4.85977">
        <ele>287</ele>
        <time>2017-07-06T09:03:55Z</time>
      </trkpt>
      <trkpt lat="45.96922" lon="4.85967">
        <ele>287</ele>
        <time>2017-07-06T09:03:56Z</time>
      </trkpt>
      <trkpt lat="45.96925" lon="4.85958">
        <ele>287</ele>
        <time>2017-07-06T09:03:57Z</time>
      </trkpt>
      <trkpt lat="45.96928" lon="4.85948">
        <ele>286</ele>
        <time>2017-07-06T09:03:58Z</time>
      </trkpt>
      <trkpt lat="45.9693" lon="4.85937">
        <ele>286</ele>
        <time>2017-07-06T09:03:59Z</time>
      </trkpt>
      <trkpt lat="45.96933" lon="4.85927">
        <ele>286</ele>
        <time>2017-07-06T09:04:00Z</time>
      </trkpt>
      <trkpt lat="45.96936" lon="4.85916">
        <ele>286</ele>
        <time>2017-07-06T09:04:01Z</time>
      </trkpt>
      <trkpt lat="45.96939" lon="4.85905">
        <ele>286</ele>
        <time>2017-07-06T09:04:02Z</time>
      </trkpt>
      <trkpt lat="45.96942" lon="4.85895">
        <ele>285</ele>
        <time>2017-07-06T09:04:03Z</time>
      </trkpt>
      <trkpt lat="45.96944" lon="4.85884">
        <ele>285</ele>
        <time>2017-07-06T09:04:04Z</time>
      </trkpt>
      <trkpt lat="45.96947" lon="4.85874">
        <ele>285</ele>
        <time>2017-07-06T09:04:05Z</time>
      </trkpt>
      <trkpt lat="45.9695" lon="4.85864">
        <ele>285</ele>
        <time>2017-07-06T09:04:06Z</time>
      </trkpt>
      <trkpt lat="45.96952" lon="4.85854">
        <ele>285</ele>
        <time>2017-07-06T09:04:07Z</time>
      </trkpt>
      <trkpt lat="45.96955" lon="4.85844">
        <ele>285</ele>
        <time>2017-07-06T09:04:08Z</time>
      </trkpt>
      <trkpt lat="45.96957" lon="4.85835">
        <ele>285</ele>
        <time>2017-07-06T09:04:09Z</time>
      </trkpt>
      <trkpt lat="45.9696" lon="4.85825">
        <ele>285</ele>
        <time>2017-07-06T09:04:10Z</time>
      </trkpt>
      <trkpt lat="45.96962" lon="4.85816">
        <ele>285</ele>
        <time>2017-07-06T09:04:11Z</time>
      </trkpt>
      <trkpt lat="45.96964" lon="4.85807">
        <ele>285</ele>
        <time>2017-07-06T09:04:12Z</time>
      </trkpt>
      <trkpt lat="45.96967" lon="4.85798">
        <ele>285</ele>
        <time>2017-07-06T09:04:13Z</time>
      </trkpt>
      <trkpt lat="45.96969" lon="4.85789">
        <ele>285</ele>
        <time>2017-07-06T09:04:14Z</time>
      </trkpt>
      <trkpt lat="45.96971" lon="4.85781">
        <ele>285</ele>
        <time>2017-07-06T09:04:15Z</time>
      </trkpt>
      <trkpt lat="45.96974" lon="4.85772">
        <ele>285</ele>
        <time>2017-07-06T09:04:16Z</time>
      </trkpt>
      <trkpt lat="45.96976" lon="4.85764">
        <ele>285</ele>
        <time>2017-07-06T09:04:17Z</time>
      </trkpt>
      <trkpt lat="45.96978" lon="4.85755">
        <ele>285</ele>
        <time>2017-07-06T09:04:18Z</time>
      </trkpt>
      <trkpt lat="45.96981" lon="4.85746">
        <ele>285</ele>
        <time>2017-07-06T09:04:19Z</time>
      </trkpt>
      <trkpt lat="45.96983" lon="4.85737">
        <ele>285</ele>
        <time>2017-07-06T09:04:20Z</time>
      </trkpt>
      <trkpt lat="45.96986" lon="4.85729">
        <ele>285</ele>
        <time>2017-07-06T09:04:21Z</time>
      </trkpt>
      <trkpt lat="45.96988" lon="4.8572">
        <ele>285</ele>
        <time>2017-07-06T09:04:22Z</time>
      </trkpt>
      <trkpt lat="45.9699" lon="4.85712">
        <ele>285</ele>
        <time>2017-07-06T09:04:23Z</time>
      </trkpt>
      <trkpt lat="45.96992" lon="4.85704">
        <ele>285</ele>
        <time>2017-07-06T09:04:24Z</time>
      </trkpt>
      <trkpt lat="45.96994" lon="4.85696">
        <ele>285</ele>
        <time>2017-07-06T09:04:25Z</time>
      </trkpt>
      <trkpt lat="45.96996" lon="4.85688">
        <ele>285</ele>
        <time>2017-07-06T09:04:26Z</time>
      </trkpt>
      <trkpt lat="45.96998" lon="4.85679">
        <ele>286</ele>
        <time>2017-07-06T09:04:27Z</time>
      </trkpt>
      <trkpt lat="45.97" lon="4.85671">
        <ele>286</ele>
        <time>2017-07-06T09:04:28Z</time>
      </trkpt>
      <trkpt lat="45.97002" lon="4.85663">
        <ele>286</ele>
        <time>2017-07-06T09:04:29Z</time>
      </trkpt>
      <trkpt lat="45.97004" lon="4.85656">
        <ele>285</ele>
        <time>2017-07-06T09:04:30Z</time>
      </trkpt>
      <trkpt lat="45.97006" lon="4.85648">
        <ele>285</ele>
        <time>2017-07-06T09:04:31Z</time>
      </trkpt>
      <trkpt lat="45.97008" lon="4.85639">
        <ele>284</ele>
        <time>2017-07-06T09:04:32Z</time>
      </trkpt>
      <trkpt lat="45.97009" lon="4.85631">
        <ele>284</ele>
        <time>2017-07-06T09:04:33Z</time>
      </trkpt>
      <trkpt lat="45.97011" lon="4.85623">
        <ele>284</ele>
        <time>2017-07-06T09:04:34Z</time>
      </trkpt>
      <trkpt lat="45.97013" lon="4.85614">
        <ele>284</ele>
        <time>2017-07-06T09:04:35Z</time>
      </trkpt>
      <trkpt lat="45.97016" lon="4.85605">
        <ele>284</ele>
        <time>2017-07-06T09:04:36Z</time>
      </trkpt>
      <trkpt lat="45.97019" lon="4.85597">
        <ele>284</ele>
        <time>2017-07-06T09:04:37Z</time>
      </trkpt>
      <trkpt lat="45.97022" lon="4.85587">
        <ele>284</ele>
        <time>2017-07-06T09:04:38Z</time>
      </trkpt>
      <trkpt lat="45.97024" lon="4.85578">
        <ele>283</ele>
        <time>2017-07-06T09:04:39Z</time>
      </trkpt>
      <trkpt lat="45.97027" lon="4.85569">
        <ele>283</ele>
        <time>2017-07-06T09:04:40Z</time>
      </trkpt>
      <trkpt lat="45.9703" lon="4.85559">
        <ele>283</ele>
        <time>2017-07-06T09:04:41Z</time>
      </trkpt>
      <trkpt lat="45.97033" lon="4.85549">
        <ele>283</ele>
        <time>2017-07-06T09:04:42Z</time>
      </trkpt>
      <trkpt lat="45.97036" lon="4.85539">
        <ele>282</ele>
        <time>2017-07-06T09:04:43Z</time>
      </trkpt>
      <trkpt lat="45.9704" lon="4.85528">
        <ele>282</ele>
        <time>2017-07-06T09:04:44Z</time>
      </trkpt>
      <trkpt lat="45.97043" lon="4.85518">
        <ele>282</ele>
        <time>2017-07-06T09:04:45Z</time>
      </trkpt>
      <trkpt lat="45.97046" lon="4.85509">
        <ele>282</ele>
        <time>2017-07-06T09:04:46Z</time>
      </trkpt>
      <trkpt lat="45.97049" lon="4.85498">
        <ele>281</ele>
        <time>2017-07-06T09:04:47Z</time>
      </trkpt>
      <trkpt lat="45.97052" lon="4.85488">
        <ele>281</ele>
        <time>2017-07-06T09:04:48Z</time>
      </trkpt>
      <trkpt lat="45.97055" lon="4.85478">
        <ele>281</ele>
        <time>2017-07-06T09:04:49Z</time>
      </trkpt>
      <trkpt lat="45.97058" lon="4.85467">
        <ele>281</ele>
        <time>2017-07-06T09:04:50Z</time>
      </trkpt>
      <trkpt lat="45.97062" lon="4.85457">
        <ele>281</ele>
        <time>2017-07-06T09:04:51Z</time>
      </trkpt>
      <trkpt lat="45.97066" lon="4.85446">
        <ele>281</ele>
        <time>2017-07-06T09:04:52Z</time>
      </trkpt>
      <trkpt lat="45.97069" lon="4.85434">
        <ele>281</ele>
        <time>2017-07-06T09:04:53Z</time>
      </trkpt>
      <trkpt lat="45.97073" lon="4.85423">
        <ele>281</ele>
        <time>2017-07-06T09:04:54Z</time>
      </trkpt>
      <trkpt lat="45.97077" lon="4.85412">
        <ele>280</ele>
        <time>2017-07-06T09:04:55Z</time>
      </trkpt>
      <trkpt lat="45.9708" lon="4.85401">
        <ele>281</ele>
        <time>2017-07-06T09:04:56Z</time>
      </trkpt>
      <trkpt lat="45.97084" lon="4.8539">
        <ele>280</ele>
        <time>2017-07-06T09:04:57Z</time>
      </trkpt>
      <trkpt lat="45.97087" lon="4.85379">
        <ele>280</ele>
        <time>2017-07-06T09:04:58Z</time>
      </trkpt>
      <trkpt lat="45.97091" lon="4.85368">
        <ele>280</ele>
        <time>2017-07-06T09:04:59Z</time>
      </trkpt>
      <trkpt lat="45.97094" lon="4.85357">
        <ele>280</ele>
        <time>2017-07-06T09:05:00Z</time>
      </trkpt>
      <trkpt lat="45.97098" lon="4.85347">
        <ele>280</ele>
        <time>2017-07-06T09:05:01Z</time>
      </trkpt>
      <trkpt lat="45.97102" lon="4.85336">
        <ele>280</ele>
        <time>2017-07-06T09:05:02Z</time>
      </trkpt>
      <trkpt lat="45.97105" lon="4.85325">
        <ele>280</ele>
        <time>2017-07-06T09:05:03Z</time>
      </trkpt>
      <trkpt lat="45.97109" lon="4.85315">
        <ele>280</ele>
        <time>2017-07-06T09:05:04Z</time>
      </trkpt>
      <trkpt lat="45.97113" lon="4.85305">
        <ele>280</ele>
        <time>2017-07-06T09:05:05Z</time>
      </trkpt>
      <trkpt lat="45.97117" lon="4.85296">
        <ele>280</ele>
        <time>2017-07-06T09:05:06Z</time>
      </trkpt>
      <trkpt lat="45.97121" lon="4.85286">
        <ele>280</ele>
        <time>2017-07-06T09:05:07Z</time>
      </trkpt>
      <trkpt lat="45.97126" lon="4.85277">
        <ele>279</ele>
        <time>2017-07-06T09:05:08Z</time>
      </trkpt>
      <trkpt lat="45.9713" lon="4.85268">
        <ele>279</ele>
        <time>2017-07-06T09:05:09Z</time>
      </trkpt>
      <trkpt lat="45.97134" lon="4.85259">
        <ele>279</ele>
        <time>2017-07-06T09:05:10Z</time>
      </trkpt>
      <trkpt lat="45.97139" lon="4.8525">
        <ele>279</ele>
        <time>2017-07-06T09:05:11Z</time>
      </trkpt>
      <trkpt lat="45.97144" lon="4.85241">
        <ele>279</ele>
        <time>2017-07-06T09:05:12Z</time>
      </trkpt>
      <trkpt lat="45.97149" lon="4.85232">
        <ele>279</ele>
        <time>2017-07-06T09:05:13Z</time>
      </trkpt>
      <trkpt lat="45.97153" lon="4.85222">
        <ele>279</ele>
        <time>2017-07-06T09:05:14Z</time>
      </trkpt>
      <trkpt lat="45.97158" lon="4.85212">
        <ele>279</ele>
        <time>2017-07-06T09:05:15Z</time>
      </trkpt>
      <trkpt lat="45.97163" lon="4.85202">
        <ele>279</ele>
        <time>2017-07-06T09:05:16Z</time>
      </trkpt>
      <trkpt lat="45.97168" lon="4.85192">
        <ele>278</ele>
        <time>2017-07-06T09:05:17Z</time>
      </trkpt>
      <trkpt lat="45.97173" lon="4.85182">
        <ele>278</ele>
        <time>2017-07-06T09:05:18Z</time>
      </trkpt>
      <trkpt lat="45.97178" lon="4.85172">
        <ele>278</ele>
        <time>2017-07-06T09:05:19Z</time>
      </trkpt>
      <trkpt lat="45.97183" lon="4.85162">
        <ele>278</ele>
        <time>2017-07-06T09:05:20Z</time>
      </trkpt>
      <trkpt lat="45.97187" lon="4.85152">
        <ele>278</ele>
        <time>2017-07-06T09:05:21Z</time>
      </trkpt>
      <trkpt lat="45.97192" lon="4.85143">
        <ele>278</ele>
        <time>2017-07-06T09:05:22Z</time>
      </trkpt>
      <trkpt lat="45.97196" lon="4.85133">
        <ele>278</ele>
        <time>2017-07-06T09:05:23Z</time>
      </trkpt>
      <trkpt lat="45.97201" lon="4.85124">
        <ele>278</ele>
        <time>2017-07-06T09:05:24Z</time>
      </trkpt>
      <trkpt lat="45.97206" lon="4.85115">
        <ele>278</ele>
        <time>2017-07-06T09:05:25Z</time>
      </trkpt>
      <trkpt lat="45.9721" lon="4.85106">
        <ele>278</ele>
        <time>2017-07-06T09:05:26Z</time>
      </trkpt>
      <trkpt lat="45.97214" lon="4.85097">
        <ele>278</ele>
        <time>2017-07-06T09:05:27Z</time>
      </trkpt>
      <trkpt lat="45.97217" lon="4.85088">
        <ele>278</ele>
        <time>2017-07-06T09:05:28Z</time>
      </trkpt>
      <trkpt lat="45.97221" lon="4.8508">
        <ele>278</ele>
        <time>2017-07-06T09:05:29Z</time>
      </trkpt>
      <trkpt lat="45.97225" lon="4.85072">
        <ele>278</ele>
        <time>2017-07-06T09:05:30Z</time>
      </trkpt>
      <trkpt lat="45.97229" lon="4.85063">
        <ele>278</ele>
        <time>2017-07-06T09:05:31Z</time>
      </trkpt>
      <trkpt lat="45.97234" lon="4.85054">
        <ele>279</ele>
        <time>2017-07-06T09:05:32Z</time>
      </trkpt>
      <trkpt lat="45.97238" lon="4.85045">
        <ele>279</ele>
        <time>2017-07-06T09:05:33Z</time>
      </trkpt>
      <trkpt lat="45.97242" lon="4.85036">
        <ele>279</ele>
        <time>2017-07-06T09:05:34Z</time>
      </trkpt>
      <trkpt lat="45.97246" lon="4.85026">
        <ele>279</ele>
        <time>2017-07-06T09:05:35Z</time>
      </trkpt>
      <trkpt lat="45.97251" lon="4.85017">
        <ele>279</ele>
        <time>2017-07-06T09:05:36Z</time>
      </trkpt>
      <trkpt lat="45.97255" lon="4.85008">
        <ele>279</ele>
        <time>2017-07-06T09:05:37Z</time>
      </trkpt>
      <trkpt lat="45.97259" lon="4.84999">
        <ele>279</ele>
        <time>2017-07-06T09:05:38Z</time>
      </trkpt>
      <trkpt lat="45.97263" lon="4.84991">
        <ele>279</ele>
        <time>2017-07-06T09:05:39Z</time>
      </trkpt>
      <trkpt lat="45.97267" lon="4.84982">
        <ele>279</ele>
        <time>2017-07-06T09:05:40Z</time>
      </trkpt>
      <trkpt lat="45.97271" lon="4.84974">
        <ele>278</ele>
        <time>2017-07-06T09:05:41Z</time>
      </trkpt>
      <trkpt lat="45.97275" lon="4.84966">
        <ele>278</ele>
        <time>2017-07-06T09:05:42Z</time>
      </trkpt>
      <trkpt lat="45.97279" lon="4.84958">
        <ele>278</ele>
        <time>2017-07-06T09:05:43Z</time>
      </trkpt>
      <trkpt lat="45.97283" lon="4.8495">
        <ele>278</ele>
        <time>2017-07-06T09:05:44Z</time>
      </trkpt>
      <trkpt lat="45.97287" lon="4.84943">
        <ele>278</ele>
        <time>2017-07-06T09:05:45Z</time>
      </trkpt>
      <trkpt lat="45.97291" lon="4.84936">
        <ele>278</ele>
        <time>2017-07-06T09:05:46Z</time>
      </trkpt>
      <trkpt lat="45.97296" lon="4.84929">
        <ele>278</ele>
        <time>2017-07-06T09:05:47Z</time>
      </trkpt>
      <trkpt lat="45.973" lon="4.84922">
        <ele>278</ele>
        <time>2017-07-06T09:05:48Z</time>
      </trkpt>
      <trkpt lat="45.97304" lon="4.84915">
        <ele>278</ele>
        <time>2017-07-06T09:05:49Z</time>
      </trkpt>
      <trkpt lat="45.97309" lon="4.84909">
        <ele>278</ele>
        <time>2017-07-06T09:05:50Z</time>
      </trkpt>
      <trkpt lat="45.97313" lon="4.84902">
        <ele>278</ele>
        <time>2017-07-06T09:05:51Z</time>
      </trkpt>
      <trkpt lat="45.97317" lon="4.84894">
        <ele>278</ele>
        <time>2017-07-06T09:05:52Z</time>
      </trkpt>
      <trkpt lat="45.97322" lon="4.84887">
        <ele>278</ele>
        <time>2017-07-06T09:05:53Z</time>
      </trkpt>
      <trkpt lat="45.97326" lon="4.84879">
        <ele>278</ele>
        <time>2017-07-06T09:05:54Z</time>
      </trkpt>
      <trkpt lat="45.9733" lon="4.84872">
        <ele>278</ele>
        <time>2017-07-06T09:05:55Z</time>
      </trkpt>
      <trkpt lat="45.97334" lon="4.84865">
        <ele>277</ele>
        <time>2017-07-06T09:05:56Z</time>
      </trkpt>
      <trkpt lat="45.97338" lon="4.84857">
        <ele>277</ele>
        <time>2017-07-06T09:05:57Z</time>
      </trkpt>
      <trkpt lat="45.97341" lon="4.84849">
        <ele>277</ele>
        <time>2017-07-06T09:05:58Z</time>
      </trkpt>
      <trkpt lat="45.97345" lon="4.84842">
        <ele>277</ele>
        <time>2017-07-06T09:05:59Z</time>
      </trkpt>
      <trkpt lat="45.97348" lon="4.84834">
        <ele>277</ele>
        <time>2017-07-06T09:06:00Z</time>
      </trkpt>
      <trkpt lat="45.97351" lon="4.84827">
        <ele>278</ele>
        <time>2017-07-06T09:06:01Z</time>
      </trkpt>
      <trkpt lat="45.97354" lon="4.8482">
        <ele>278</ele>
        <time>2017-07-06T09:06:02Z</time>
      </trkpt>
      <trkpt lat="45.97357" lon="4.84813">
        <ele>278</ele>
        <time>2017-07-06T09:06:03Z</time>
      </trkpt>
      <trkpt lat="45.9736" lon="4.84805">
        <ele>278</ele>
        <time>2017-07-06T09:06:04Z</time>
      </trkpt>
      <trkpt lat="45.97362" lon="4.84799">
        <ele>278</ele>
        <time>2017-07-06T09:06:05Z</time>
      </trkpt>
      <trkpt lat="45.97365" lon="4.84792">
        <ele>278</ele>
        <time>2017-07-06T09:06:06Z</time>
      </trkpt>
      <trkpt lat="45.97367" lon="4.84785">
        <ele>278</ele>
        <time>2017-07-06T09:06:07Z</time>
      </trkpt>
      <trkpt lat="45.9737" lon="4.84778">
        <ele>278</ele>
        <time>2017-07-06T09:06:08Z</time>
      </trkpt>
      <trkpt lat="45.97372" lon="4.84771">
        <ele>278</ele>
        <time>2017-07-06T09:06:09Z</time>
      </trkpt>
      <trkpt lat="45.97375" lon="4.84764">
        <ele>278</ele>
        <time>2017-07-06T09:06:10Z</time>
      </trkpt>
      <trkpt lat="45.97378" lon="4.84757">
        <ele>278</ele>
        <time>2017-07-06T09:06:11Z</time>
      </trkpt>
      <trkpt lat="45.97381" lon="4.8475">
        <ele>278</ele>
        <time>2017-07-06T09:06:12Z</time>
      </trkpt>
      <trkpt lat="45.97384" lon="4.84743">
        <ele>278</ele>
        <time>2017-07-06T09:06:13Z</time>
      </trkpt>
      <trkpt lat="45.97388" lon="4.84737">
        <ele>278</ele>
        <time>2017-07-06T09:06:14Z</time>
      </trkpt>
      <trkpt lat="45.97392" lon="4.84732">
        <ele>278</ele>
        <time>2017-07-06T09:06:15Z</time>
      </trkpt>
      <trkpt lat="45.97397" lon="4.84728">
        <ele>278</ele>
        <time>2017-07-06T09:06:16Z</time>
      </trkpt>
      <trkpt lat="45.97402" lon="4.84724">
        <ele>278</ele>
        <time>2017-07-06T09:06:17Z</time>
      </trkpt>
      <trkpt lat="45.97407" lon="4.8472">
        <ele>278</ele>
        <time>2017-07-06T09:06:18Z</time>
      </trkpt>
      <trkpt lat="45.97413" lon="4.84716">
        <ele>278</ele>
        <time>2017-07-06T09:06:19Z</time>
      </trkpt>
      <trkpt lat="45.97418" lon="4.84713">
        <ele>276</ele>
        <time>2017-07-06T09:06:20Z</time>
      </trkpt>
      <trkpt lat="45.97424" lon="4.84709">
        <ele>276</ele>
        <time>2017-07-06T09:06:21Z</time>
      </trkpt>
      <trkpt lat="45.97429" lon="4.84705">
        <ele>276</ele>
        <time>2017-07-06T09:06:22Z</time>
      </trkpt>
      <trkpt lat="45.97435" lon="4.84701">
        <ele>276</ele>
        <time>2017-07-06T09:06:23Z</time>
      </trkpt>
      <trkpt lat="45.97441" lon="4.84696">
        <ele>276</ele>
        <time>2017-07-06T09:06:24Z</time>
      </trkpt>
      <trkpt lat="45.97447" lon="4.84692">
        <ele>276</ele>
        <time>2017-07-06T09:06:25Z</time>
      </trkpt>
      <trkpt lat="45.97453" lon="4.84687">
        <ele>276</ele>
        <time>2017-07-06T09:06:26Z</time>
      </trkpt>
      <trkpt lat="45.97458" lon="4.84683">
        <ele>276</ele>
        <time>2017-07-06T09:06:27Z</time>
      </trkpt>
      <trkpt lat="45.97464" lon="4.84679">
        <ele>276</ele>
        <time>2017-07-06T09:06:28Z</time>
      </trkpt>
      <trkpt lat="45.9747" lon="4.84675">
        <ele>276</ele>
        <time>2017-07-06T09:06:29Z</time>
      </trkpt>
      <trkpt lat="45.97476" lon="4.84672">
        <ele>276</ele>
        <time>2017-07-06T09:06:30Z</time>
      </trkpt>
      <trkpt lat="45.97481" lon="4.84669">
        <ele>276</ele>
        <time>2017-07-06T09:06:31Z</time>
      </trkpt>
      <trkpt lat="45.97487" lon="4.84665">
        <ele>275</ele>
        <time>2017-07-06T09:06:32Z</time>
      </trkpt>
      <trkpt lat="45.97492" lon="4.84662">
        <ele>275</ele>
        <time>2017-07-06T09:06:33Z</time>
      </trkpt>
      <trkpt lat="45.97498" lon="4.84658">
        <ele>275</ele>
        <time>2017-07-06T09:06:34Z</time>
      </trkpt>
      <trkpt lat="45.97504" lon="4.84654">
        <ele>275</ele>
        <time>2017-07-06T09:06:35Z</time>
      </trkpt>
      <trkpt lat="45.9751" lon="4.8465">
        <ele>275</ele>
        <time>2017-07-06T09:06:36Z</time>
      </trkpt>
      <trkpt lat="45.97516" lon="4.84646">
        <ele>275</ele>
        <time>2017-07-06T09:06:37Z</time>
      </trkpt>
      <trkpt lat="45.97521" lon="4.84641">
        <ele>275</ele>
        <time>2017-07-06T09:06:38Z</time>
      </trkpt>
      <trkpt lat="45.97527" lon="4.84637">
        <ele>275</ele>
        <time>2017-07-06T09:06:39Z</time>
      </trkpt>
      <trkpt lat="45.97533" lon="4.84632">
        <ele>275</ele>
        <time>2017-07-06T09:06:40Z</time>
      </trkpt>
      <trkpt lat="45.97539" lon="4.84628">
        <ele>275</ele>
        <time>2017-07-06T09:06:41Z</time>
      </trkpt>
      <trkpt lat="45.97544" lon="4.84623">
        <ele>274</ele>
        <time>2017-07-06T09:06:42Z</time>
      </trkpt>
      <trkpt lat="45.9755" lon="4.84618">
        <ele>274</ele>
        <time>2017-07-06T09:06:43Z</time>
      </trkpt>
      <trkpt lat="45.97555" lon="4.84613">
        <ele>274</ele>
        <time>2017-07-06T09:06:44Z</time>
      </trkpt>
      <trkpt lat="45.9756" lon="4.84608">
        <ele>274</ele>
        <time>2017-07-06T09:06:45Z</time>
      </trkpt>
      <trkpt lat="45.97565" lon="4.84603">
        <ele>274</ele>
        <time>2017-07-06T09:06:46Z</time>
      </trkpt>
      <trkpt lat="45.9757" lon="4.84597">
        <ele>274</ele>
        <time>2017-07-06T09:06:47Z</time>
      </trkpt>
      <trkpt lat="45.97574" lon="4.84592">
        <ele>274</ele>
        <time>2017-07-06T09:06:48Z</time>
      </trkpt>
      <trkpt lat="45.97579" lon="4.84587">
        <ele>274</ele>
        <time>2017-07-06T09:06:49Z</time>
      </trkpt>
      <trkpt lat="45.97584" lon="4.84581">
        <ele>274</ele>
        <time>2017-07-06T09:06:50Z</time>
      </trkpt>
      <trkpt lat="45.97588" lon="4.84575">
        <ele>274</ele>
        <time>2017-07-06T09:06:51Z</time>
      </trkpt>
      <trkpt lat="45.97593" lon="4.84569">
        <ele>274</ele>
        <time>2017-07-06T09:06:52Z</time>
      </trkpt>
      <trkpt lat="45.97598" lon="4.84564">
        <ele>274</ele>
        <time>2017-07-06T09:06:53Z</time>
      </trkpt>
      <trkpt lat="45.97602" lon="4.84558">
        <ele>275</ele>
        <time>2017-07-06T09:06:54Z</time>
      </trkpt>
      <trkpt lat="45.97607" lon="4.84552">
        <ele>275</ele>
        <time>2017-07-06T09:06:55Z</time>
      </trkpt>
      <trkpt lat="45.97611" lon="4.84546">
        <ele>275</ele>
        <time>2017-07-06T09:06:56Z</time>
      </trkpt>
      <trkpt lat="45.97616" lon="4.8454">
        <ele>275</ele>
        <time>2017-07-06T09:06:57Z</time>
      </trkpt>
      <trkpt lat="45.9762" lon="4.84535">
        <ele>275</ele>
        <time>2017-07-06T09:06:58Z</time>
      </trkpt>
      <trkpt lat="45.97624" lon="4.8453">
        <ele>275</ele>
        <time>2017-07-06T09:06:59Z</time>
      </trkpt>
      <trkpt lat="45.97629" lon="4.84524">
        <ele>275</ele>
        <time>2017-07-06T09:07:00Z</time>
      </trkpt>
      <trkpt lat="45.97633" lon="4.84519">
        <ele>275</ele>
        <time>2017-07-06T09:07:01Z</time>
      </trkpt>
      <trkpt lat="45.97637" lon="4.84514">
        <ele>275</ele>
        <time>2017-07-06T09:07:02Z</time>
      </trkpt>
      <trkpt lat="45.97642" lon="4.84508">
        <ele>275</ele>
        <time>2017-07-06T09:07:03Z</time>
      </trkpt>
      <trkpt lat="45.97647" lon="4.84503">
        <ele>275</ele>
        <time>2017-07-06T09:07:04Z</time>
      </trkpt>
      <trkpt lat="45.97652" lon="4.84497">
        <ele>275</ele>
        <time>2017-07-06T09:07:05Z</time>
      </trkpt>
      <trkpt lat="45.97657" lon="4.84492">
        <ele>275</ele>
        <time>2017-07-06T09:07:06Z</time>
      </trkpt>
      <trkpt lat="45.97662" lon="4.84487">
        <ele>275</ele>
        <time>2017-07-06T09:07:07Z</time>
      </trkpt>
      <trkpt lat="45.97668" lon="4.84483">
        <ele>276</ele>
        <time>2017-07-06T09:07:08Z</time>
      </trkpt>
      <trkpt lat="45.97673" lon="4.84478">
        <ele>276</ele>
        <time>2017-07-06T09:07:09Z</time>
      </trkpt>
      <trkpt lat="45.97678" lon="4.84474">
        <ele>276</ele>
        <time>2017-07-06T09:07:10Z</time>
      </trkpt>
      <trkpt lat="45.97684" lon="4.8447">
        <ele>277</ele>
        <time>2017-07-06T09:07:11Z</time>
      </trkpt>
      <trkpt lat="45.97689" lon="4.84467">
        <ele>277</ele>
        <time>2017-07-06T09:07:12Z</time>
      </trkpt>
      <trkpt lat="45.97695" lon="4.84464">
        <ele>277</ele>
        <time>2017-07-06T09:07:13Z</time>
      </trkpt>
      <trkpt lat="45.977" lon="4.84462">
        <ele>277</ele>
        <time>2017-07-06T09:07:14Z</time>
      </trkpt>
      <trkpt lat="45.97705" lon="4.84459">
        <ele>277</ele>
        <time>2017-07-06T09:07:15Z</time>
      </trkpt>
      <trkpt lat="45.97711" lon="4.84457">
        <ele>277</ele>
        <time>2017-07-06T09:07:16Z</time>
      </trkpt>
      <trkpt lat="45.97716" lon="4.84454">
        <ele>277</ele>
        <time>2017-07-06T09:07:17Z</time>
      </trkpt>
      <trkpt lat="45.97722" lon="4.84452">
        <ele>277</ele>
        <time>2017-07-06T09:07:18Z</time>
      </trkpt>
      <trkpt lat="45.97728" lon="4.8445">
        <ele>277</ele>
        <time>2017-07-06T09:07:19Z</time>
      </trkpt>
      <trkpt lat="45.97734" lon="4.84448">
        <ele>277</ele>
        <time>2017-07-06T09:07:20Z</time>
      </trkpt>
      <trkpt lat="45.9774" lon="4.84446">
        <ele>277</ele>
        <time>2017-07-06T09:07:21Z</time>
      </trkpt>
      <trkpt lat="45.97747" lon="4.84444">
        <ele>277</ele>
        <time>2017-07-06T09:07:22Z</time>
      </trkpt>
      <trkpt lat="45.97753" lon="4.84442">
        <ele>277</ele>
        <time>2017-07-06T09:07:23Z</time>
      </trkpt>
      <trkpt lat="45.9776" lon="4.84439">
        <ele>277</ele>
        <time>2017-07-06T09:07:24Z</time>
      </trkpt>
      <trkpt lat="45.97767" lon="4.84437">
        <ele>277</ele>
        <time>2017-07-06T09:07:25Z</time>
      </trkpt>
      <trkpt lat="45.97774" lon="4.84435">
        <ele>277</ele>
        <time>2017-07-06T09:07:26Z</time>
      </trkpt>
      <trkpt lat="45.9778" lon="4.84432">
        <ele>277</ele>
        <time>2017-07-06T09:07:27Z</time>
      </trkpt>
      <trkpt lat="45.97787" lon="4.8443">
        <ele>277</ele>
        <time>2017-07-06T09:07:28Z</time>
      </trkpt>
      <trkpt lat="45.97794" lon="4.84427">
        <ele>277</ele>
        <time>2017-07-06T09:07:29Z</time>
      </trkpt>
      <trkpt lat="45.978" lon="4.84424">
        <ele>277</ele>
        <time>2017-07-06T09:07:30Z</time>
      </trkpt>
      <trkpt lat="45.97806" lon="4.84421">
        <ele>277</ele>
        <time>2017-07-06T09:07:31Z</time>
      </trkpt>
      <trkpt lat="45.97813" lon="4.84417">
        <ele>276</ele>
        <time>2017-07-06T09:07:32Z</time>
      </trkpt>
      <trkpt lat="45.97819" lon="4.84413">
        <ele>276</ele>
        <time>2017-07-06T09:07:33Z</time>
      </trkpt>
      <trkpt lat="45.97826" lon="4.84408">
        <ele>276</ele>
        <time>2017-07-06T09:07:34Z</time>
      </trkpt>
      <trkpt lat="45.97832" lon="4.84403">
        <ele>276</ele>
        <time>2017-07-06T09:07:35Z</time>
      </trkpt>
      <trkpt lat="45.97838" lon="4.84397">
        <ele>276</ele>
        <time>2017-07-06T09:07:36Z</time>
      </trkpt>
      <trkpt lat="45.97844" lon="4.84392">
        <ele>276</ele>
        <time>2017-07-06T09:07:37Z</time>
      </trkpt>
      <trkpt lat="45.97849" lon="4.84385">
        <ele>276</ele>
        <time>2017-07-06T09:07:38Z</time>
      </trkpt>
      <trkpt lat="45.97854" lon="4.84379">
        <ele>276</ele>
        <time>2017-07-06T09:07:39Z</time>
      </trkpt>
      <trkpt lat="45.97859" lon="4.84372">
        <ele>276</ele>
        <time>2017-07-06T09:07:40Z</time>
      </trkpt>
      <trkpt lat="45.97864" lon="4.84365">
        <ele>276</ele>
        <time>2017-07-06T09:07:41Z</time>
      </trkpt>
      <trkpt lat="45.97868" lon="4.84358">
        <ele>276</ele>
        <time>2017-07-06T09:07:42Z</time>
      </trkpt>
      <trkpt lat="45.97873" lon="4.84352">
        <ele>276</ele>
        <time>2017-07-06T09:07:43Z</time>
      </trkpt>
      <trkpt lat="45.97877" lon="4.84345">
        <ele>275</ele>
        <time>2017-07-06T09:07:44Z</time>
      </trkpt>
      <trkpt lat="45.97881" lon="4.84338">
        <ele>275</ele>
        <time>2017-07-06T09:07:45Z</time>
      </trkpt>
      <trkpt lat="45.97885" lon="4.84331">
        <ele>275</ele>
        <time>2017-07-06T09:07:46Z</time>
      </trkpt>
      <trkpt lat="45.97889" lon="4.84324">
        <ele>275</ele>
        <time>2017-07-06T09:07:47Z</time>
      </trkpt>
      <trkpt lat="45.97893" lon="4.84317">
        <ele>275</ele>
        <time>2017-07-06T09:07:48Z</time>
      </trkpt>
      <trkpt lat="45.97897" lon="4.84311">
        <ele>275</ele>
        <time>2017-07-06T09:07:49Z</time>
      </trkpt>
      <trkpt lat="45.97901" lon="4.84305">
        <ele>275</ele>
        <time>2017-07-06T09:07:50Z</time>
      </trkpt>
      <trkpt lat="45.97905" lon="4.84299">
        <ele>275</ele>
        <time>2017-07-06T09:07:51Z</time>
      </trkpt>
      <trkpt lat="45.97909" lon="4.84293">
        <ele>275</ele>
        <time>2017-07-06T09:07:52Z</time>
      </trkpt>
      <trkpt lat="45.97914" lon="4.84288">
        <ele>275</ele>
        <time>2017-07-06T09:07:53Z</time>
      </trkpt>
      <trkpt lat="45.97918" lon="4.84283">
        <ele>275</ele>
        <time>2017-07-06T09:07:54Z</time>
      </trkpt>
      <trkpt lat="45.97923" lon="4.84277">
        <ele>275</ele>
        <time>2017-07-06T09:07:55Z</time>
      </trkpt>
      <trkpt lat="45.97928" lon="4.84272">
        <ele>275</ele>
        <time>2017-07-06T09:07:56Z</time>
      </trkpt>
      <trkpt lat="45.97932" lon="4.84267">
        <ele>275</ele>
        <time>2017-07-06T09:07:57Z</time>
      </trkpt>
      <trkpt lat="45.97937" lon="4.84261">
        <ele>275</ele>
        <time>2017-07-06T09:07:58Z</time>
      </trkpt>
      <trkpt lat="45.97942" lon="4.84257">
        <ele>275</ele>
        <time>2017-07-06T09:07:59Z</time>
      </trkpt>
      <trkpt lat="45.97947" lon="4.84253">
        <ele>275</ele>
        <time>2017-07-06T09:08:00Z</time>
      </trkpt>
      <trkpt lat="45.97952" lon="4.84249">
        <ele>275</ele>
        <time>2017-07-06T09:08:01Z</time>
      </trkpt>
      <trkpt lat="45.97956" lon="4.84244">
        <ele>275</ele>
        <time>2017-07-06T09:08:02Z</time>
      </trkpt>
      <trkpt lat="45.97961" lon="4.84239">
        <ele>274</ele>
        <time>2017-07-06T09:08:03Z</time>
      </trkpt>
      <trkpt lat="45.97966" lon="4.84234">
        <ele>274</ele>
        <time>2017-07-06T09:08:04Z</time>
      </trkpt>
      <trkpt lat="45.9797" lon="4.8423">
        <ele>274</ele>
        <time>2017-07-06T09:08:05Z</time>
      </trkpt>
      <trkpt lat="45.97975" lon="4.84225">
        <ele>274</ele>
        <time>2017-07-06T09:08:06Z</time>
      </trkpt>
      <trkpt lat="45.9798" lon="4.84221">
        <ele>274</ele>
        <time>2017-07-06T09:08:07Z</time>
      </trkpt>
      <trkpt lat="45.97985" lon="4.84217">
        <ele>274</ele>
        <time>2017-07-06T09:08:08Z</time>
      </trkpt>
      <trkpt lat="45.97989" lon="4.84212">
        <ele>274</ele>
        <time>2017-07-06T09:08:09Z</time>
      </trkpt>
      <trkpt lat="45.97994" lon="4.84208">
        <ele>274</ele>
        <time>2017-07-06T09:08:10Z</time>
      </trkpt>
      <trkpt lat="45.97999" lon="4.84203">
        <ele>274</ele>
        <time>2017-07-06T09:08:11Z</time>
      </trkpt>
      <trkpt lat="45.98004" lon="4.84199">
        <ele>274</ele>
        <time>2017-07-06T09:08:12Z</time>
      </trkpt>
      <trkpt lat="45.98008" lon="4.84194">
        <ele>274</ele>
        <time>2017-07-06T09:08:13Z</time>
      </trkpt>
      <trkpt lat="45.98014" lon="4.8419">
        <ele>274</ele>
        <time>2017-07-06T09:08:14Z</time>
      </trkpt>
      <trkpt lat="45.98019" lon="4.84185">
        <ele>274</ele>
        <time>2017-07-06T09:08:15Z</time>
      </trkpt>
      <trkpt lat="45.98024" lon="4.8418">
        <ele>274</ele>
        <time>2017-07-06T09:08:16Z</time>
      </trkpt>
      <trkpt lat="45.9803" lon="4.84174">
        <ele>274</ele>
        <time>2017-07-06T09:08:17Z</time>
      </trkpt>
      <trkpt lat="45.98035" lon="4.84169">
        <ele>273</ele>
        <time>2017-07-06T09:08:18Z</time>
      </trkpt>
      <trkpt lat="45.98041" lon="4.84164">
        <ele>273</ele>
        <time>2017-07-06T09:08:19Z</time>
      </trkpt>
      <trkpt lat="45.98047" lon="4.84158">
        <ele>273</ele>
        <time>2017-07-06T09:08:20Z</time>
      </trkpt>
      <trkpt lat="45.98052" lon="4.84153">
        <ele>273</ele>
        <time>2017-07-06T09:08:21Z</time>
      </trkpt>
      <trkpt lat="45.98058" lon="4.84148">
        <ele>273</ele>
        <time>2017-07-06T09:08:22Z</time>
      </trkpt>
      <trkpt lat="45.98063" lon="4.84143">
        <ele>273</ele>
        <time>2017-07-06T09:08:23Z</time>
      </trkpt>
      <trkpt lat="45.98068" lon="4.84139">
        <ele>273</ele>
        <time>2017-07-06T09:08:24Z</time>
      </trkpt>
      <trkpt lat="45.98074" lon="4.84134">
        <ele>273</ele>
        <time>2017-07-06T09:08:25Z</time>
      </trkpt>
      <trkpt lat="45.98079" lon="4.84129">
        <ele>273</ele>
        <time>2017-07-06T09:08:26Z</time>
      </trkpt>
      <trkpt lat="45.98084" lon="4.84125">
        <ele>273</ele>
        <time>2017-07-06T09:08:27Z</time>
      </trkpt>
      <trkpt lat="45.98088" lon="4.8412">
        <ele>273</ele>
        <time>2017-07-06T09:08:28Z</time>
      </trkpt>
      <trkpt lat="45.98093" lon="4.84115">
        <ele>273</ele>
        <time>2017-07-06T09:08:29Z</time>
      </trkpt>
      <trkpt lat="45.98098" lon="4.8411">
        <ele>273</ele>
        <time>2017-07-06T09:08:30Z</time>
      </trkpt>
      <trkpt lat="45.98103" lon="4.84105">
        <ele>273</ele>
        <time>2017-07-06T09:08:31Z</time>
      </trkpt>
      <trkpt lat="45.98108" lon="4.841">
        <ele>273</ele>
        <time>2017-07-06T09:08:32Z</time>
      </trkpt>
      <trkpt lat="45.98113" lon="4.84095">
        <ele>273</ele>
        <time>2017-07-06T09:08:33Z</time>
      </trkpt>
      <trkpt lat="45.98119" lon="4.8409">
        <ele>273</ele>
        <time>2017-07-06T09:08:34Z</time>
      </trkpt>
      <trkpt lat="45.98124" lon="4.84084">
        <ele>273</ele>
        <time>2017-07-06T09:08:35Z</time>
      </trkpt>
      <trkpt lat="45.9813" lon="4.84078">
        <ele>273</ele>
        <time>2017-07-06T09:08:36Z</time>
      </trkpt>
      <trkpt lat="45.98135" lon="4.84072">
        <ele>273</ele>
        <time>2017-07-06T09:08:37Z</time>
      </trkpt>
      <trkpt lat="45.9814" lon="4.84066">
        <ele>273</ele>
        <time>2017-07-06T09:08:38Z</time>
      </trkpt>
      <trkpt lat="45.98145" lon="4.84059">
        <ele>273</ele>
        <time>2017-07-06T09:08:39Z</time>
      </trkpt>
      <trkpt lat="45.9815" lon="4.84053">
        <ele>273</ele>
        <time>2017-07-06T09:08:40Z</time>
      </trkpt>
      <trkpt lat="45.98155" lon="4.84046">
        <ele>273</ele>
        <time>2017-07-06T09:08:41Z</time>
      </trkpt>
      <trkpt lat="45.98159" lon="4.84038">
        <ele>273</ele>
        <time>2017-07-06T09:08:42Z</time>
      </trkpt>
      <trkpt lat="45.98163" lon="4.84031">
        <ele>273</ele>
        <time>2017-07-06T09:08:43Z</time>
      </trkpt>
      <trkpt lat="45.98167" lon="4.84024">
        <ele>273</ele>
        <time>2017-07-06T09:08:44Z</time>
      </trkpt>
      <trkpt lat="45.9817" lon="4.84016">
        <ele>273</ele>
        <time>2017-07-06T09:08:45Z</time>
      </trkpt>
      <trkpt lat="45.98174" lon="4.84009">
        <ele>273</ele>
        <time>2017-07-06T09:08:46Z</time>
      </trkpt>
      <trkpt lat="45.98177" lon="4.84001">
        <ele>273</ele>
        <time>2017-07-06T09:08:47Z</time>
      </trkpt>
      <trkpt lat="45.98181" lon="4.83993">
        <ele>273</ele>
        <time>2017-07-06T09:08:48Z</time>
      </trkpt>
      <trkpt lat="45.98184" lon="4.83986">
        <ele>273</ele>
        <time>2017-07-06T09:08:49Z</time>
      </trkpt>
      <trkpt lat="45.98187" lon="4.83978">
        <ele>273</ele>
        <time>2017-07-06T09:08:50Z</time>
      </trkpt>
      <trkpt lat="45.98189" lon="4.83971">
        <ele>273</ele>
        <time>2017-07-06T09:08:51Z</time>
      </trkpt>
      <trkpt lat="45.98192" lon="4.83963">
        <ele>273</ele>
        <time>2017-07-06T09:08:52Z</time>
      </trkpt>
      <trkpt lat="45.98195" lon="4.83955">
        <ele>273</ele>
        <time>2017-07-06T09:08:53Z</time>
      </trkpt>
      <trkpt lat="45.98198" lon="4.83947">
        <ele>273</ele>
        <time>2017-07-06T09:08:54Z</time>
      </trkpt>
      <trkpt lat="45.982" lon="4.83939">
        <ele>273</ele>
        <time>2017-07-06T09:08:55Z</time>
      </trkpt>
      <trkpt lat="45.98203" lon="4.83931">
        <ele>273</ele>
        <time>2017-07-06T09:08:56Z</time>
      </trkpt>
      <trkpt lat="45.98206" lon="4.83922">
        <ele>273</ele>
        <time>2017-07-06T09:08:57Z</time>
      </trkpt>
      <trkpt lat="45.98209" lon="4.83914">
        <ele>273</ele>
        <time>2017-07-06T09:08:58Z</time>
      </trkpt>
      <trkpt lat="45.98211" lon="4.83906">
        <ele>273</ele>
        <time>2017-07-06T09:08:59Z</time>
      </trkpt>
      <trkpt lat="45.98214" lon="4.83898">
        <ele>273</ele>
        <time>2017-07-06T09:09:00Z</time>
      </trkpt>
      <trkpt lat="45.98217" lon="4.83891">
        <ele>273</ele>
        <time>2017-07-06T09:09:01Z</time>
      </trkpt>
      <trkpt lat="45.9822" lon="4.83883">
        <ele>272</ele>
        <time>2017-07-06T09:09:02Z</time>
      </trkpt>
      <trkpt lat="45.98222" lon="4.83876">
        <ele>272</ele>
        <time>2017-07-06T09:09:03Z</time>
      </trkpt>
      <trkpt lat="45.98225" lon="4.83868">
        <ele>272</ele>
        <time>2017-07-06T09:09:04Z</time>
      </trkpt>
      <trkpt lat="45.98227" lon="4.8386">
        <ele>272</ele>
        <time>2017-07-06T09:09:05Z</time>
      </trkpt>
      <trkpt lat="45.9823" lon="4.83853">
        <ele>272</ele>
        <time>2017-07-06T09:09:06Z</time>
      </trkpt>
      <trkpt lat="45.98232" lon="4.83844">
        <ele>272</ele>
        <time>2017-07-06T09:09:07Z</time>
      </trkpt>
      <trkpt lat="45.98235" lon="4.83836">
        <ele>272</ele>
        <time>2017-07-06T09:09:08Z</time>
      </trkpt>
      <trkpt lat="45.98238" lon="4.83827">
        <ele>272</ele>
        <time>2017-07-06T09:09:09Z</time>
      </trkpt>
      <trkpt lat="45.98241" lon="4.83819">
        <ele>272</ele>
        <time>2017-07-06T09:09:10Z</time>
      </trkpt>
      <trkpt lat="45.98243" lon="4.8381">
        <ele>272</ele>
        <time>2017-07-06T09:09:11Z</time>
      </trkpt>
      <trkpt lat="45.98246" lon="4.83801">
        <ele>272</ele>
        <time>2017-07-06T09:09:12Z</time>
      </trkpt>
      <trkpt lat="45.98249" lon="4.83793">
        <ele>272</ele>
        <time>2017-07-06T09:09:13Z</time>
      </trkpt>
      <trkpt lat="45.98252" lon="4.83784">
        <ele>272</ele>
        <time>2017-07-06T09:09:14Z</time>
      </trkpt>
      <trkpt lat="45.98255" lon="4.83776">
        <ele>272</ele>
        <time>2017-07-06T09:09:15Z</time>
      </trkpt>
      <trkpt lat="45.98258" lon="4.83768">
        <ele>272</ele>
        <time>2017-07-06T09:09:16Z</time>
      </trkpt>
      <trkpt lat="45.98261" lon="4.8376">
        <ele>272</ele>
        <time>2017-07-06T09:09:17Z</time>
      </trkpt>
      <trkpt lat="45.98264" lon="4.83752">
        <ele>272</ele>
        <time>2017-07-06T09:09:18Z</time>
      </trkpt>
      <trkpt lat="45.98266" lon="4.83745">
        <ele>272</ele>
        <time>2017-07-06T09:09:19Z</time>
      </trkpt>
      <trkpt lat="45.98269" lon="4.83737">
        <ele>272</ele>
        <time>2017-07-06T09:09:20Z</time>
      </trkpt>
      <trkpt lat="45.98271" lon="4.83729">
        <ele>272</ele>
        <time>2017-07-06T09:09:21Z</time>
      </trkpt>
      <trkpt lat="45.98274" lon="4.83722">
        <ele>272</ele>
        <time>2017-07-06T09:09:22Z</time>
      </trkpt>
      <trkpt lat="45.98277" lon="4.83714">
        <ele>272</ele>
        <time>2017-07-06T09:09:23Z</time>
      </trkpt>
      <trkpt lat="45.9828" lon="4.83706">
        <ele>272</ele>
        <time>2017-07-06T09:09:24Z</time>
      </trkpt>
      <trkpt lat="45.98282" lon="4.83698">
        <ele>272</ele>
        <time>2017-07-06T09:09:25Z</time>
      </trkpt>
      <trkpt lat="45.98286" lon="4.8369">
        <ele>272</ele>
        <time>2017-07-06T09:09:26Z</time>
      </trkpt>
      <trkpt lat="45.98289" lon="4.83682">
        <ele>272</ele>
        <time>2017-07-06T09:09:27Z</time>
      </trkpt>
      <trkpt lat="45.98292" lon="4.83674">
        <ele>272</ele>
        <time>2017-07-06T09:09:28Z</time>
      </trkpt>
      <trkpt lat="45.98295" lon="4.83666">
        <ele>271</ele>
        <time>2017-07-06T09:09:29Z</time>
      </trkpt>
      <trkpt lat="45.98298" lon="4.83658">
        <ele>271</ele>
        <time>2017-07-06T09:09:30Z</time>
      </trkpt>
      <trkpt lat="45.98301" lon="4.83651">
        <ele>271</ele>
        <time>2017-07-06T09:09:31Z</time>
      </trkpt>
      <trkpt lat="45.98305" lon="4.83644">
        <ele>271</ele>
        <time>2017-07-06T09:09:32Z</time>
      </trkpt>
      <trkpt lat="45.98308" lon="4.83637">
        <ele>271</ele>
        <time>2017-07-06T09:09:33Z</time>
      </trkpt>
      <trkpt lat="45.98311" lon="4.83629">
        <ele>271</ele>
        <time>2017-07-06T09:09:34Z</time>
      </trkpt>
      <trkpt lat="45.98314" lon="4.83623">
        <ele>271</ele>
        <time>2017-07-06T09:09:35Z</time>
      </trkpt>
      <trkpt lat="45.98318" lon="4.83617">
        <ele>271</ele>
        <time>2017-07-06T09:09:36Z</time>
      </trkpt>
      <trkpt lat="45.98322" lon="4.83611">
        <ele>271</ele>
        <time>2017-07-06T09:09:37Z</time>
      </trkpt>
      <trkpt lat="45.98326" lon="4.83605">
        <ele>271</ele>
        <time>2017-07-06T09:09:38Z</time>
      </trkpt>
      <trkpt lat="45.9833" lon="4.83599">
        <ele>271</ele>
        <time>2017-07-06T09:09:39Z</time>
      </trkpt>
      <trkpt lat="45.98334" lon="4.83593">
        <ele>270</ele>
        <time>2017-07-06T09:09:40Z</time>
      </trkpt>
      <trkpt lat="45.98338" lon="4.83587">
        <ele>270</ele>
        <time>2017-07-06T09:09:41Z</time>
      </trkpt>
      <trkpt lat="45.98343" lon="4.83582">
        <ele>270</ele>
        <time>2017-07-06T09:09:42Z</time>
      </trkpt>
      <trkpt lat="45.98348" lon="4.83575">
        <ele>270</ele>
        <time>2017-07-06T09:09:43Z</time>
      </trkpt>
      <trkpt lat="45.98353" lon="4.83569">
        <ele>269</ele>
        <time>2017-07-06T09:09:44Z</time>
      </trkpt>
      <trkpt lat="45.98358" lon="4.83562">
        <ele>269</ele>
        <time>2017-07-06T09:09:45Z</time>
      </trkpt>
      <trkpt lat="45.98363" lon="4.83555">
        <ele>269</ele>
        <time>2017-07-06T09:09:46Z</time>
      </trkpt>
      <trkpt lat="45.98368" lon="4.83548">
        <ele>269</ele>
        <time>2017-07-06T09:09:47Z</time>
      </trkpt>
      <trkpt lat="45.98373" lon="4.83541">
        <ele>269</ele>
        <time>2017-07-06T09:09:48Z</time>
      </trkpt>
      <trkpt lat="45.98379" lon="4.83534">
        <ele>269</ele>
        <time>2017-07-06T09:09:49Z</time>
      </trkpt>
      <trkpt lat="45.98384" lon="4.83528">
        <ele>269</ele>
        <time>2017-07-06T09:09:50Z</time>
      </trkpt>
      <trkpt lat="45.98389" lon="4.83521">
        <ele>269</ele>
        <time>2017-07-06T09:09:51Z</time>
      </trkpt>
      <trkpt lat="45.98394" lon="4.83514">
        <ele>269</ele>
        <time>2017-07-06T09:09:52Z</time>
      </trkpt>
      <trkpt lat="45.98399" lon="4.83507">
        <ele>269</ele>
        <time>2017-07-06T09:09:53Z</time>
      </trkpt>
      <trkpt lat="45.98405" lon="4.835">
        <ele>268</ele>
        <time>2017-07-06T09:09:54Z</time>
      </trkpt>
      <trkpt lat="45.9841" lon="4.83493">
        <ele>268</ele>
        <time>2017-07-06T09:09:55Z</time>
      </trkpt>
      <trkpt lat="45.98415" lon="4.83486">
        <ele>269</ele>
        <time>2017-07-06T09:09:56Z</time>
      </trkpt>
      <trkpt lat="45.9842" lon="4.83478">
        <ele>268</ele>
        <time>2017-07-06T09:09:57Z</time>
      </trkpt>
      <trkpt lat="45.98426" lon="4.83472">
        <ele>268</ele>
        <time>2017-07-06T09:09:58Z</time>
      </trkpt>
      <trkpt lat="45.98431" lon="4.83465">
        <ele>268</ele>
        <time>2017-07-06T09:09:59Z</time>
      </trkpt>
      <trkpt lat="45.98436" lon="4.83458">
        <ele>268</ele>
        <time>2017-07-06T09:10:00Z</time>
      </trkpt>
      <trkpt lat="45.9844" lon="4.83451">
        <ele>268</ele>
        <time>2017-07-06T09:10:01Z</time>
      </trkpt>
      <trkpt lat="45.98445" lon="4.83445">
        <ele>268</ele>
        <time>2017-07-06T09:10:02Z</time>
      </trkpt>
      <trkpt lat="45.98451" lon="4.83438">
        <ele>268</ele>
        <time>2017-07-06T09:10:03Z</time>
      </trkpt>
      <trkpt lat="45.98456" lon="4.83431">
        <ele>268</ele>
        <time>2017-07-06T09:10:04Z</time>
      </trkpt>
      <trkpt lat="45.98461" lon="4.83424">
        <ele>269</ele>
        <time>2017-07-06T09:10:05Z</time>
      </trkpt>
      <trkpt lat="45.98466" lon="4.83418">
        <ele>269</ele>
        <time>2017-07-06T09:10:06Z</time>
      </trkpt>
      <trkpt lat="45.98472" lon="4.8341">
        <ele>269</ele>
        <time>2017-07-06T09:10:07Z</time>
      </trkpt>
      <trkpt lat="45.98477" lon="4.83403">
        <ele>269</ele>
        <time>2017-07-06T09:10:08Z</time>
      </trkpt>
      <trkpt lat="45.98482" lon="4.83396">
        <ele>269</ele>
        <time>2017-07-06T09:10:09Z</time>
      </trkpt>
      <trkpt lat="45.98487" lon="4.83389">
        <ele>269</ele>
        <time>2017-07-06T09:10:10Z</time>
      </trkpt>
      <trkpt lat="45.98493" lon="4.83382">
        <ele>269</ele>
        <time>2017-07-06T09:10:11Z</time>
      </trkpt>
      <trkpt lat="45.98498" lon="4.83375">
        <ele>270</ele>
        <time>2017-07-06T09:10:12Z</time>
      </trkpt>
      <trkpt lat="45.98503" lon="4.83368">
        <ele>269</ele>
        <time>2017-07-06T09:10:13Z</time>
      </trkpt>
      <trkpt lat="45.98508" lon="4.83361">
        <ele>269</ele>
        <time>2017-07-06T09:10:14Z</time>
      </trkpt>
      <trkpt lat="45.98513" lon="4.83354">
        <ele>270</ele>
        <time>2017-07-06T09:10:15Z</time>
      </trkpt>
      <trkpt lat="45.98518" lon="4.83348">
        <ele>270</ele>
        <time>2017-07-06T09:10:16Z</time>
      </trkpt>
      <trkpt lat="45.98523" lon="4.83341">
        <ele>270</ele>
        <time>2017-07-06T09:10:17Z</time>
      </trkpt>
      <trkpt lat="45.98528" lon="4.83335">
        <ele>269</ele>
        <time>2017-07-06T09:10:18Z</time>
      </trkpt>
      <trkpt lat="45.98532" lon="4.83329">
        <ele>269</ele>
        <time>2017-07-06T09:10:19Z</time>
      </trkpt>
      <trkpt lat="45.98536" lon="4.83323">
        <ele>269</ele>
        <time>2017-07-06T09:10:20Z</time>
      </trkpt>
      <trkpt lat="45.98541" lon="4.83317">
        <ele>269</ele>
        <time>2017-07-06T09:10:21Z</time>
      </trkpt>
      <trkpt lat="45.98545" lon="4.83311">
        <ele>269</ele>
        <time>2017-07-06T09:10:22Z</time>
      </trkpt>
      <trkpt lat="45.9855" lon="4.83305">
        <ele>269</ele>
        <time>2017-07-06T09:10:23Z</time>
      </trkpt>
      <trkpt lat="45.98555" lon="4.83298">
        <ele>269</ele>
        <time>2017-07-06T09:10:24Z</time>
      </trkpt>
      <trkpt lat="45.98559" lon="4.83292">
        <ele>269</ele>
        <time>2017-07-06T09:10:25Z</time>
      </trkpt>
      <trkpt lat="45.98564" lon="4.83285">
        <ele>269</ele>
        <time>2017-07-06T09:10:26Z</time>
      </trkpt>
      <trkpt lat="45.98569" lon="4.83279">
        <ele>269</ele>
        <time>2017-07-06T09:10:27Z</time>
      </trkpt>
      <trkpt lat="45.98574" lon="4.83272">
        <ele>269</ele>
        <time>2017-07-06T09:10:28Z</time>
      </trkpt>
      <trkpt lat="45.98578" lon="4.83266">
        <ele>269</ele>
        <time>2017-07-06T09:10:29Z</time>
      </trkpt>
      <trkpt lat="45.98583" lon="4.83259">
        <ele>268</ele>
        <time>2017-07-06T09:10:30Z</time>
      </trkpt>
      <trkpt lat="45.98588" lon="4.83253">
        <ele>268</ele>
        <time>2017-07-06T09:10:31Z</time>
      </trkpt>
      <trkpt lat="45.98592" lon="4.83247">
        <ele>268</ele>
        <time>2017-07-06T09:10:32Z</time>
      </trkpt>
      <trkpt lat="45.98597" lon="4.8324">
        <ele>268</ele>
        <time>2017-07-06T09:10:33Z</time>
      </trkpt>
      <trkpt lat="45.98602" lon="4.83234">
        <ele>268</ele>
        <time>2017-07-06T09:10:34Z</time>
      </trkpt>
      <trkpt lat="45.98606" lon="4.83228">
        <ele>267</ele>
        <time>2017-07-06T09:10:35Z</time>
      </trkpt>
      <trkpt lat="45.98611" lon="4.83222">
        <ele>267</ele>
        <time>2017-07-06T09:10:36Z</time>
      </trkpt>
      <trkpt lat="45.98616" lon="4.83216">
        <ele>267</ele>
        <time>2017-07-06T09:10:37Z</time>
      </trkpt>
      <trkpt lat="45.98621" lon="4.8321">
        <ele>267</ele>
        <time>2017-07-06T09:10:38Z</time>
      </trkpt>
      <trkpt lat="45.98626" lon="4.83204">
        <ele>267</ele>
        <time>2017-07-06T09:10:39Z</time>
      </trkpt>
      <trkpt lat="45.98631" lon="4.83197">
        <ele>267</ele>
        <time>2017-07-06T09:10:40Z</time>
      </trkpt>
      <trkpt lat="45.98636" lon="4.83191">
        <ele>267</ele>
        <time>2017-07-06T09:10:41Z</time>
      </trkpt>
      <trkpt lat="45.98642" lon="4.83186">
        <ele>267</ele>
        <time>2017-07-06T09:10:42Z</time>
      </trkpt>
      <trkpt lat="45.98648" lon="4.8318">
        <ele>267</ele>
        <time>2017-07-06T09:10:43Z</time>
      </trkpt>
      <trkpt lat="45.98654" lon="4.83174">
        <ele>267</ele>
        <time>2017-07-06T09:10:44Z</time>
      </trkpt>
      <trkpt lat="45.98661" lon="4.83169">
        <ele>266</ele>
        <time>2017-07-06T09:10:45Z</time>
      </trkpt>
      <trkpt lat="45.98668" lon="4.83164">
        <ele>266</ele>
        <time>2017-07-06T09:10:46Z</time>
      </trkpt>
      <trkpt lat="45.98675" lon="4.83159">
        <ele>266</ele>
        <time>2017-07-06T09:10:47Z</time>
      </trkpt>
      <trkpt lat="45.98682" lon="4.83153">
        <ele>266</ele>
        <time>2017-07-06T09:10:48Z</time>
      </trkpt>
      <trkpt lat="45.98689" lon="4.83148">
        <ele>266</ele>
        <time>2017-07-06T09:10:49Z</time>
      </trkpt>
      <trkpt lat="45.98696" lon="4.83143">
        <ele>266</ele>
        <time>2017-07-06T09:10:50Z</time>
      </trkpt>
      <trkpt lat="45.98703" lon="4.83137">
        <ele>266</ele>
        <time>2017-07-06T09:10:51Z</time>
      </trkpt>
      <trkpt lat="45.9871" lon="4.83132">
        <ele>266</ele>
        <time>2017-07-06T09:10:52Z</time>
      </trkpt>
      <trkpt lat="45.98717" lon="4.83126">
        <ele>266</ele>
        <time>2017-07-06T09:10:53Z</time>
      </trkpt>
      <trkpt lat="45.98723" lon="4.8312">
        <ele>266</ele>
        <time>2017-07-06T09:10:54Z</time>
      </trkpt>
      <trkpt lat="45.9873" lon="4.83114">
        <ele>267</ele>
        <time>2017-07-06T09:10:55Z</time>
      </trkpt>
      <trkpt lat="45.98736" lon="4.83109">
        <ele>267</ele>
        <time>2017-07-06T09:10:56Z</time>
      </trkpt>
      <trkpt lat="45.98743" lon="4.83104">
        <ele>267</ele>
        <time>2017-07-06T09:10:57Z</time>
      </trkpt>
      <trkpt lat="45.9875" lon="4.83098">
        <ele>267</ele>
        <time>2017-07-06T09:10:58Z</time>
      </trkpt>
      <trkpt lat="45.98757" lon="4.83093">
        <ele>266</ele>
        <time>2017-07-06T09:10:59Z</time>
      </trkpt>
      <trkpt lat="45.98763" lon="4.83087">
        <ele>265</ele>
        <time>2017-07-06T09:11:00Z</time>
      </trkpt>
      <trkpt lat="45.9877" lon="4.83081">
        <ele>266</ele>
        <time>2017-07-06T09:11:01Z</time>
      </trkpt>
      <trkpt lat="45.98777" lon="4.83074">
        <ele>265</ele>
        <time>2017-07-06T09:11:02Z</time>
      </trkpt>
      <trkpt lat="45.98784" lon="4.83068">
        <ele>265</ele>
        <time>2017-07-06T09:11:03Z</time>
      </trkpt>
      <trkpt lat="45.98792" lon="4.83062">
        <ele>265</ele>
        <time>2017-07-06T09:11:04Z</time>
      </trkpt>
      <trkpt lat="45.988" lon="4.83055">
        <ele>264</ele>
        <time>2017-07-06T09:11:05Z</time>
      </trkpt>
      <trkpt lat="45.98807" lon="4.83048">
        <ele>264</ele>
        <time>2017-07-06T09:11:06Z</time>
      </trkpt>
      <trkpt lat="45.98816" lon="4.83041">
        <ele>264</ele>
        <time>2017-07-06T09:11:07Z</time>
      </trkpt>
      <trkpt lat="45.98824" lon="4.83035">
        <ele>264</ele>
        <time>2017-07-06T09:11:08Z</time>
      </trkpt>
      <trkpt lat="45.98833" lon="4.83028">
        <ele>264</ele>
        <time>2017-07-06T09:11:09Z</time>
      </trkpt>
      <trkpt lat="45.98843" lon="4.83022">
        <ele>261</ele>
        <time>2017-07-06T09:11:10Z</time>
      </trkpt>
      <trkpt lat="45.98852" lon="4.83015">
        <ele>261</ele>
        <time>2017-07-06T09:11:11Z</time>
      </trkpt>
      <trkpt lat="45.98862" lon="4.83008">
        <ele>260</ele>
        <time>2017-07-06T09:11:12Z</time>
      </trkpt>
      <trkpt lat="45.98871" lon="4.83001">
        <ele>260</ele>
        <time>2017-07-06T09:11:13Z</time>
      </trkpt>
      <trkpt lat="45.98881" lon="4.82994">
        <ele>259</ele>
        <time>2017-07-06T09:11:14Z</time>
      </trkpt>
      <trkpt lat="45.98891" lon="4.82986">
        <ele>259</ele>
        <time>2017-07-06T09:11:15Z</time>
      </trkpt>
      <trkpt lat="45.98901" lon="4.82978">
        <ele>259</ele>
        <time>2017-07-06T09:11:16Z</time>
      </trkpt>
      <trkpt lat="45.9891" lon="4.82968">
        <ele>259</ele>
        <time>2017-07-06T09:11:17Z</time>
      </trkpt>
      <trkpt lat="45.98918" lon="4.82955">
        <ele>255</ele>
        <time>2017-07-06T09:11:18Z</time>
      </trkpt>
      <trkpt lat="45.98925" lon="4.82941">
        <ele>255</ele>
        <time>2017-07-06T09:11:19Z</time>
      </trkpt>
      <trkpt lat="45.98932" lon="4.82926">
        <ele>255</ele>
        <time>2017-07-06T09:11:20Z</time>
      </trkpt>
      <trkpt lat="45.98939" lon="4.82911">
        <ele>254</ele>
        <time>2017-07-06T09:11:21Z</time>
      </trkpt>
      <trkpt lat="45.98946" lon="4.82895">
        <ele>253</ele>
        <time>2017-07-06T09:11:22Z</time>
      </trkpt>
      <trkpt lat="45.98952" lon="4.8288">
        <ele>253</ele>
        <time>2017-07-06T09:11:23Z</time>
      </trkpt>
      <trkpt lat="45.98959" lon="4.82864">
        <ele>252</ele>
        <time>2017-07-06T09:11:24Z</time>
      </trkpt>
      <trkpt lat="45.98966" lon="4.82848">
        <ele>252</ele>
        <time>2017-07-06T09:11:25Z</time>
      </trkpt>
      <trkpt lat="45.98973" lon="4.82832">
        <ele>249</ele>
        <time>2017-07-06T09:11:26Z</time>
      </trkpt>
      <trkpt lat="45.9898" lon="4.82816">
        <ele>248</ele>
        <time>2017-07-06T09:11:27Z</time>
      </trkpt>
      <trkpt lat="45.98987" lon="4.82799">
        <ele>248</ele>
        <time>2017-07-06T09:11:28Z</time>
      </trkpt>
      <trkpt lat="45.98995" lon="4.82783">
        <ele>246</ele>
        <time>2017-07-06T09:11:29Z</time>
      </trkpt>
      <trkpt lat="45.99002" lon="4.82766">
        <ele>241</ele>
        <time>2017-07-06T09:11:30Z</time>
      </trkpt>
      <trkpt lat="45.99009" lon="4.8275">
        <ele>240</ele>
        <time>2017-07-06T09:11:31Z</time>
      </trkpt>
      <trkpt lat="45.99016" lon="4.82733">
        <ele>239</ele>
        <time>2017-07-06T09:11:32Z</time>
      </trkpt>
      <trkpt lat="45.99023" lon="4.82717">
        <ele>239</ele>
        <time>2017-07-06T09:11:33Z</time>
      </trkpt>
      <trkpt lat="45.9903" lon="4.82701">
        <ele>238</ele>
        <time>2017-07-06T09:11:34Z</time>
      </trkpt>
      <trkpt lat="45.99037" lon="4.82685">
        <ele>238</ele>
        <time>2017-07-06T09:11:35Z</time>
      </trkpt>
      <trkpt lat="45.99044" lon="4.82669">
        <ele>238</ele>
        <time>2017-07-06T09:11:36Z</time>
      </trkpt>
      <trkpt lat="45.99051" lon="4.82654">
        <ele>236</ele>
        <time>2017-07-06T09:11:37Z</time>
      </trkpt>
      <trkpt lat="45.99056" lon="4.8264">
        <ele>236</ele>
        <time>2017-07-06T09:11:38Z</time>
      </trkpt>
      <trkpt lat="45.99061" lon="4.82628">
        <ele>236</ele>
        <time>2017-07-06T09:11:39Z</time>
      </trkpt>
      <trkpt lat="45.99066" lon="4.82616">
        <ele>236</ele>
        <time>2017-07-06T09:11:40Z</time>
      </trkpt>
      <trkpt lat="45.9907" lon="4.82607">
        <ele>236</ele>
        <time>2017-07-06T09:11:41Z</time>
      </trkpt>
      <trkpt lat="45.99073" lon="4.82599">
        <ele>235</ele>
        <time>2017-07-06T09:11:42Z</time>
      </trkpt>
      <trkpt lat="45.99074" lon="4.82592">
        <ele>235</ele>
        <time>2017-07-06T09:11:43Z</time>
      </trkpt>
      <trkpt lat="45.99074" lon="4.82585">
        <ele>235</ele>
        <time>2017-07-06T09:11:44Z</time>
      </trkpt>
      <trkpt lat="45.99073" lon="4.82578">
        <ele>235</ele>
        <time>2017-07-06T09:11:45Z</time>
      </trkpt>
      <trkpt lat="45.99069" lon="4.82572">
        <ele>235</ele>
        <time>2017-07-06T09:11:46Z</time>
      </trkpt>
      <trkpt lat="45.99064" lon="4.82568">
        <ele>235</ele>
        <time>2017-07-06T09:11:47Z</time>
      </trkpt>
      <trkpt lat="45.99059" lon="4.82566">
        <ele>235</ele>
        <time>2017-07-06T09:11:48Z</time>
      </trkpt>
      <trkpt lat="45.99053" lon="4.82565">
        <ele>235</ele>
        <time>2017-07-06T09:11:49Z</time>
      </trkpt>
      <trkpt lat="45.99048" lon="4.82564">
        <ele>235</ele>
        <time>2017-07-06T09:11:50Z</time>
      </trkpt>
      <trkpt lat="45.99043" lon="4.82561">
        <ele>235</ele>
        <time>2017-07-06T09:11:51Z</time>
      </trkpt>
      <trkpt lat="45.99039" lon="4.82558">
        <ele>235</ele>
        <time>2017-07-06T09:11:52Z</time>
      </trkpt>
      <trkpt lat="45.99031" lon="4.82552">
        <ele>235</ele>
        <time>2017-07-06T09:11:54Z</time>
      </trkpt>
      <trkpt lat="45.99027" lon="4.82548">
        <ele>235</ele>
        <time>2017-07-06T09:11:55Z</time>
      </trkpt>
      <trkpt lat="45.99024" lon="4.82544">
        <ele>235</ele>
        <time>2017-07-06T09:11:56Z</time>
      </trkpt>
      <trkpt lat="45.9902" lon="4.8254">
        <ele>235</ele>
        <time>2017-07-06T09:11:57Z</time>
      </trkpt>
      <trkpt lat="45.99017" lon="4.82535">
        <ele>235</ele>
        <time>2017-07-06T09:11:58Z</time>
      </trkpt>
      <trkpt lat="45.99014" lon="4.8253">
        <ele>235</ele>
        <time>2017-07-06T09:11:59Z</time>
      </trkpt>
      <trkpt lat="45.99011" lon="4.82525">
        <ele>235</ele>
        <time>2017-07-06T09:12:00Z</time>
      </trkpt>
      <trkpt lat="45.99008" lon="4.82519">
        <ele>235</ele>
        <time>2017-07-06T09:12:01Z</time>
      </trkpt>
      <trkpt lat="45.99006" lon="4.82514">
        <ele>235</ele>
        <time>2017-07-06T09:12:02Z</time>
      </trkpt>
      <trkpt lat="45.99003" lon="4.82508">
        <ele>235</ele>
        <time>2017-07-06T09:12:03Z</time>
      </trkpt>
      <trkpt lat="45.99" lon="4.82501">
        <ele>235</ele>
        <time>2017-07-06T09:12:04Z</time>
      </trkpt>
      <trkpt lat="45.98997" lon="4.82494">
        <ele>235</ele>
        <time>2017-07-06T09:12:05Z</time>
      </trkpt>
      <trkpt lat="45.98994" lon="4.82487">
        <ele>236</ele>
        <time>2017-07-06T09:12:06Z</time>
      </trkpt>
      <trkpt lat="45.98992" lon="4.8248">
        <ele>236</ele>
        <time>2017-07-06T09:12:07Z</time>
      </trkpt>
      <trkpt lat="45.98989" lon="4.82472">
        <ele>236</ele>
        <time>2017-07-06T09:12:08Z</time>
      </trkpt>
      <trkpt lat="45.98987" lon="4.82465">
        <ele>236</ele>
        <time>2017-07-06T09:12:09Z</time>
      </trkpt>
      <trkpt lat="45.98984" lon="4.82458">
        <ele>236</ele>
        <time>2017-07-06T09:12:10Z</time>
      </trkpt>
      <trkpt lat="45.98983" lon="4.82452">
        <ele>236</ele>
        <time>2017-07-06T09:12:11Z</time>
      </trkpt>
      <trkpt lat="45.98981" lon="4.82445">
        <ele>236</ele>
        <time>2017-07-06T09:12:12Z</time>
      </trkpt>
      <trkpt lat="45.98979" lon="4.82439">
        <ele>236</ele>
        <time>2017-07-06T09:12:13Z</time>
      </trkpt>
      <trkpt lat="45.98978" lon="4.82432">
        <ele>236</ele>
        <time>2017-07-06T09:12:14Z</time>
      </trkpt>
      <trkpt lat="45.98977" lon="4.82426">
        <ele>236</ele>
        <time>2017-07-06T09:12:15Z</time>
      </trkpt>
      <trkpt lat="45.98975" lon="4.82418">
        <ele>236</ele>
        <time>2017-07-06T09:12:16Z</time>
      </trkpt>
      <trkpt lat="45.98973" lon="4.8241">
        <ele>235</ele>
        <time>2017-07-06T09:12:17Z</time>
      </trkpt>
      <trkpt lat="45.98971" lon="4.82403">
        <ele>235</ele>
        <time>2017-07-06T09:12:18Z</time>
      </trkpt>
      <trkpt lat="45.98969" lon="4.82396">
        <ele>235</ele>
        <time>2017-07-06T09:12:19Z</time>
      </trkpt>
      <trkpt lat="45.98968" lon="4.82389">
        <ele>235</ele>
        <time>2017-07-06T09:12:20Z</time>
      </trkpt>
      <trkpt lat="45.98966" lon="4.82382">
        <ele>235</ele>
        <time>2017-07-06T09:12:21Z</time>
      </trkpt>
      <trkpt lat="45.98964" lon="4.82376">
        <ele>235</ele>
        <time>2017-07-06T09:12:22Z</time>
      </trkpt>
      <trkpt lat="45.98962" lon="4.82369">
        <ele>235</ele>
        <time>2017-07-06T09:12:23Z</time>
      </trkpt>
      <trkpt lat="45.9896" lon="4.82362">
        <ele>235</ele>
        <time>2017-07-06T09:12:24Z</time>
      </trkpt>
      <trkpt lat="45.98958" lon="4.82355">
        <ele>235</ele>
        <time>2017-07-06T09:12:25Z</time>
      </trkpt>
      <trkpt lat="45.98955" lon="4.82348">
        <ele>235</ele>
        <time>2017-07-06T09:12:26Z</time>
      </trkpt>
      <trkpt lat="45.98952" lon="4.82342">
        <ele>235</ele>
        <time>2017-07-06T09:12:27Z</time>
      </trkpt>
      <trkpt lat="45.98949" lon="4.82336">
        <ele>235</ele>
        <time>2017-07-06T09:12:28Z</time>
      </trkpt>
      <trkpt lat="45.98946" lon="4.82331">
        <ele>234</ele>
        <time>2017-07-06T09:12:29Z</time>
      </trkpt>
      <trkpt lat="45.98942" lon="4.82326">
        <ele>234</ele>
        <time>2017-07-06T09:12:30Z</time>
      </trkpt>
      <trkpt lat="45.98939" lon="4.8232">
        <ele>234</ele>
        <time>2017-07-06T09:12:31Z</time>
      </trkpt>
      <trkpt lat="45.98935" lon="4.82316">
        <ele>234</ele>
        <time>2017-07-06T09:12:32Z</time>
      </trkpt>
      <trkpt lat="45.98932" lon="4.82312">
        <ele>234</ele>
        <time>2017-07-06T09:12:33Z</time>
      </trkpt>
      <trkpt lat="45.98925" lon="4.82304">
        <ele>234</ele>
        <time>2017-07-06T09:12:35Z</time>
      </trkpt>
      <trkpt lat="45.98921" lon="4.823">
        <ele>234</ele>
        <time>2017-07-06T09:12:36Z</time>
      </trkpt>
      <trkpt lat="45.98917" lon="4.82296">
        <ele>234</ele>
        <time>2017-07-06T09:12:37Z</time>
      </trkpt>
      <trkpt lat="45.98913" lon="4.82292">
        <ele>236</ele>
        <time>2017-07-06T09:12:38Z</time>
      </trkpt>
      <trkpt lat="45.98909" lon="4.82287">
        <ele>236</ele>
        <time>2017-07-06T09:12:39Z</time>
      </trkpt>
      <trkpt lat="45.98906" lon="4.82283">
        <ele>236</ele>
        <time>2017-07-06T09:12:40Z</time>
      </trkpt>
      <trkpt lat="45.98902" lon="4.82278">
        <ele>236</ele>
        <time>2017-07-06T09:12:41Z</time>
      </trkpt>
      <trkpt lat="45.98898" lon="4.82273">
        <ele>236</ele>
        <time>2017-07-06T09:12:42Z</time>
      </trkpt>
      <trkpt lat="45.98895" lon="4.82268">
        <ele>236</ele>
        <time>2017-07-06T09:12:43Z</time>
      </trkpt>
      <trkpt lat="45.98891" lon="4.82262">
        <ele>236</ele>
        <time>2017-07-06T09:12:44Z</time>
      </trkpt>
      <trkpt lat="45.98888" lon="4.82256">
        <ele>236</ele>
        <time>2017-07-06T09:12:45Z</time>
      </trkpt>
      <trkpt lat="45.98885" lon="4.8225">
        <ele>235</ele>
        <time>2017-07-06T09:12:46Z</time>
      </trkpt>
      <trkpt lat="45.98883" lon="4.82244">
        <ele>236</ele>
        <time>2017-07-06T09:12:47Z</time>
      </trkpt>
      <trkpt lat="45.9888" lon="4.82238">
        <ele>236</ele>
        <time>2017-07-06T09:12:48Z</time>
      </trkpt>
      <trkpt lat="45.98878" lon="4.82233">
        <ele>236</ele>
        <time>2017-07-06T09:12:49Z</time>
      </trkpt>
      <trkpt lat="45.98875" lon="4.82227">
        <ele>236</ele>
        <time>2017-07-06T09:12:50Z</time>
      </trkpt>
      <trkpt lat="45.98873" lon="4.82222">
        <ele>236</ele>
        <time>2017-07-06T09:12:51Z</time>
      </trkpt>
      <trkpt lat="45.9887" lon="4.82217">
        <ele>236</ele>
        <time>2017-07-06T09:12:52Z</time>
      </trkpt>
      <trkpt lat="45.98868" lon="4.82211">
        <ele>236</ele>
        <time>2017-07-06T09:12:53Z</time>
      </trkpt>
      <trkpt lat="45.98866" lon="4.82205">
        <ele>236</ele>
        <time>2017-07-06T09:12:54Z</time>
      </trkpt>
      <trkpt lat="45.98864" lon="4.82199">
        <ele>236</ele>
        <time>2017-07-06T09:12:55Z</time>
      </trkpt>
      <trkpt lat="45.98861" lon="4.82193">
        <ele>236</ele>
        <time>2017-07-06T09:12:56Z</time>
      </trkpt>
      <trkpt lat="45.98859" lon="4.82187">
        <ele>236</ele>
        <time>2017-07-06T09:12:57Z</time>
      </trkpt>
      <trkpt lat="45.98856" lon="4.8218">
        <ele>236</ele>
        <time>2017-07-06T09:12:58Z</time>
      </trkpt>
      <trkpt lat="45.98854" lon="4.82174">
        <ele>236</ele>
        <time>2017-07-06T09:12:59Z</time>
      </trkpt>
      <trkpt lat="45.98852" lon="4.82167">
        <ele>236</ele>
        <time>2017-07-06T09:13:00Z</time>
      </trkpt>
      <trkpt lat="45.9885" lon="4.8216">
        <ele>236</ele>
        <time>2017-07-06T09:13:01Z</time>
      </trkpt>
      <trkpt lat="45.98848" lon="4.82153">
        <ele>236</ele>
        <time>2017-07-06T09:13:02Z</time>
      </trkpt>
      <trkpt lat="45.98846" lon="4.82146">
        <ele>236</ele>
        <time>2017-07-06T09:13:03Z</time>
      </trkpt>
      <trkpt lat="45.98844" lon="4.8214">
        <ele>236</ele>
        <time>2017-07-06T09:13:04Z</time>
      </trkpt>
      <trkpt lat="45.98843" lon="4.82133">
        <ele>236</ele>
        <time>2017-07-06T09:13:05Z</time>
      </trkpt>
      <trkpt lat="45.98841" lon="4.82126">
        <ele>236</ele>
        <time>2017-07-06T09:13:06Z</time>
      </trkpt>
      <trkpt lat="45.9884" lon="4.82118">
        <ele>235</ele>
        <time>2017-07-06T09:13:07Z</time>
      </trkpt>
      <trkpt lat="45.98838" lon="4.82111">
        <ele>235</ele>
        <time>2017-07-06T09:13:08Z</time>
      </trkpt>
      <trkpt lat="45.98837" lon="4.82104">
        <ele>236</ele>
        <time>2017-07-06T09:13:09Z</time>
      </trkpt>
      <trkpt lat="45.98836" lon="4.82096">
        <ele>236</ele>
        <time>2017-07-06T09:13:10Z</time>
      </trkpt>
      <trkpt lat="45.98834" lon="4.82089">
        <ele>236</ele>
        <time>2017-07-06T09:13:11Z</time>
      </trkpt>
      <trkpt lat="45.98833" lon="4.82082">
        <ele>236</ele>
        <time>2017-07-06T09:13:12Z</time>
      </trkpt>
      <trkpt lat="45.98832" lon="4.82076">
        <ele>237</ele>
        <time>2017-07-06T09:13:13Z</time>
      </trkpt>
      <trkpt lat="45.98831" lon="4.82069">
        <ele>237</ele>
        <time>2017-07-06T09:13:14Z</time>
      </trkpt>
      <trkpt lat="45.98829" lon="4.82057">
        <ele>237</ele>
        <time>2017-07-06T09:13:16Z</time>
      </trkpt>
      <trkpt lat="45.98828" lon="4.8205">
        <ele>237</ele>
        <time>2017-07-06T09:13:17Z</time>
      </trkpt>
      <trkpt lat="45.98827" lon="4.82043">
        <ele>238</ele>
        <time>2017-07-06T09:13:18Z</time>
      </trkpt>
      <trkpt lat="45.98826" lon="4.82037">
        <ele>238</ele>
        <time>2017-07-06T09:13:19Z</time>
      </trkpt>
      <trkpt lat="45.98825" lon="4.82031">
        <ele>238</ele>
        <time>2017-07-06T09:13:20Z</time>
      </trkpt>
      <trkpt lat="45.98824" lon="4.82024">
        <ele>238</ele>
        <time>2017-07-06T09:13:21Z</time>
      </trkpt>
      <trkpt lat="45.98823" lon="4.82018">
        <ele>238</ele>
        <time>2017-07-06T09:13:22Z</time>
      </trkpt>
      <trkpt lat="45.98822" lon="4.82011">
        <ele>238</ele>
        <time>2017-07-06T09:13:23Z</time>
      </trkpt>
      <trkpt lat="45.98821" lon="4.82004">
        <ele>238</ele>
        <time>2017-07-06T09:13:24Z</time>
      </trkpt>
      <trkpt lat="45.98819" lon="4.81997">
        <ele>238</ele>
        <time>2017-07-06T09:13:25Z</time>
      </trkpt>
      <trkpt lat="45.98819" lon="4.8199">
        <ele>238</ele>
        <time>2017-07-06T09:13:26Z</time>
      </trkpt>
      <trkpt lat="45.98818" lon="4.81983">
        <ele>238</ele>
        <time>2017-07-06T09:13:27Z</time>
      </trkpt>
      <trkpt lat="45.98816" lon="4.81971">
        <ele>239</ele>
        <time>2017-07-06T09:13:29Z</time>
      </trkpt>
      <trkpt lat="45.98815" lon="4.81965">
        <ele>239</ele>
        <time>2017-07-06T09:13:30Z</time>
      </trkpt>
      <trkpt lat="45.98813" lon="4.81953">
        <ele>239</ele>
        <time>2017-07-06T09:13:32Z</time>
      </trkpt>
      <trkpt lat="45.98813" lon="4.81947">
        <ele>239</ele>
        <time>2017-07-06T09:13:33Z</time>
      </trkpt>
      <trkpt lat="45.98812" lon="4.8194">
        <ele>239</ele>
        <time>2017-07-06T09:13:34Z</time>
      </trkpt>
      <trkpt lat="45.98811" lon="4.81934">
        <ele>239</ele>
        <time>2017-07-06T09:13:35Z</time>
      </trkpt>
      <trkpt lat="45.9881" lon="4.81927">
        <ele>239</ele>
        <time>2017-07-06T09:13:36Z</time>
      </trkpt>
      <trkpt lat="45.98809" lon="4.8192">
        <ele>239</ele>
        <time>2017-07-06T09:13:37Z</time>
      </trkpt>
      <trkpt lat="45.98808" lon="4.81912">
        <ele>239</ele>
        <time>2017-07-06T09:13:38Z</time>
      </trkpt>
      <trkpt lat="45.98806" lon="4.81905">
        <ele>239</ele>
        <time>2017-07-06T09:13:39Z</time>
      </trkpt>
      <trkpt lat="45.98805" lon="4.81898">
        <ele>239</ele>
        <time>2017-07-06T09:13:40Z</time>
      </trkpt>
      <trkpt lat="45.98803" lon="4.81892">
        <ele>239</ele>
        <time>2017-07-06T09:13:41Z</time>
      </trkpt>
      <trkpt lat="45.988" lon="4.81882">
        <ele>239</ele>
        <time>2017-07-06T09:13:43Z</time>
      </trkpt>
      <trkpt lat="45.98798" lon="4.81877">
        <ele>239</ele>
        <time>2017-07-06T09:13:44Z</time>
      </trkpt>
      <trkpt lat="45.98795" lon="4.81867">
        <ele>239</ele>
        <time>2017-07-06T09:13:46Z</time>
      </trkpt>
      <trkpt lat="45.98793" lon="4.81861">
        <ele>239</ele>
        <time>2017-07-06T09:13:47Z</time>
      </trkpt>
      <trkpt lat="45.9879" lon="4.81856">
        <ele>239</ele>
        <time>2017-07-06T09:13:48Z</time>
      </trkpt>
      <trkpt lat="45.98787" lon="4.8185">
        <ele>239</ele>
        <time>2017-07-06T09:13:49Z</time>
      </trkpt>
      <trkpt lat="45.98784" lon="4.81845">
        <ele>239</ele>
        <time>2017-07-06T09:13:50Z</time>
      </trkpt>
      <trkpt lat="45.98781" lon="4.81839">
        <ele>239</ele>
        <time>2017-07-06T09:13:51Z</time>
      </trkpt>
      <trkpt lat="45.98778" lon="4.81833">
        <ele>240</ele>
        <time>2017-07-06T09:13:52Z</time>
      </trkpt>
      <trkpt lat="45.98776" lon="4.81827">
        <ele>240</ele>
        <time>2017-07-06T09:13:53Z</time>
      </trkpt>
      <trkpt lat="45.98773" lon="4.81821">
        <ele>240</ele>
        <time>2017-07-06T09:13:54Z</time>
      </trkpt>
      <trkpt lat="45.9877" lon="4.81816">
        <ele>240</ele>
        <time>2017-07-06T09:13:55Z</time>
      </trkpt>
      <trkpt lat="45.98765" lon="4.81806">
        <ele>240</ele>
        <time>2017-07-06T09:13:57Z</time>
      </trkpt>
      <trkpt lat="45.98762" lon="4.81801">
        <ele>240</ele>
        <time>2017-07-06T09:13:58Z</time>
      </trkpt>
      <trkpt lat="45.98757" lon="4.81792">
        <ele>240</ele>
        <time>2017-07-06T09:14:00Z</time>
      </trkpt>
      <trkpt lat="45.98754" lon="4.81788">
        <ele>241</ele>
        <time>2017-07-06T09:14:01Z</time>
      </trkpt>
      <trkpt lat="45.9875" lon="4.81781">
        <ele>241</ele>
        <time>2017-07-06T09:14:03Z</time>
      </trkpt>
      <trkpt lat="45.98748" lon="4.81776">
        <ele>240</ele>
        <time>2017-07-06T09:14:04Z</time>
      </trkpt>
      <trkpt lat="45.98744" lon="4.81767">
        <ele>240</ele>
        <time>2017-07-06T09:14:06Z</time>
      </trkpt>
      <trkpt lat="45.98741" lon="4.81762">
        <ele>240</ele>
        <time>2017-07-06T09:14:07Z</time>
      </trkpt>
      <trkpt lat="45.98736" lon="4.81753">
        <ele>240</ele>
        <time>2017-07-06T09:14:09Z</time>
      </trkpt>
      <trkpt lat="45.98733" lon="4.81747">
        <ele>240</ele>
        <time>2017-07-06T09:14:10Z</time>
      </trkpt>
      <trkpt lat="45.9873" lon="4.81743">
        <ele>240</ele>
        <time>2017-07-06T09:14:11Z</time>
      </trkpt>
      <trkpt lat="45.98727" lon="4.81738">
        <ele>239</ele>
        <time>2017-07-06T09:14:12Z</time>
      </trkpt>
      <trkpt lat="45.98719" lon="4.81734">
        <ele>239</ele>
        <time>2017-07-06T09:14:14Z</time>
      </trkpt>
      <trkpt lat="45.98715" lon="4.81733">
        <ele>239</ele>
        <time>2017-07-06T09:14:15Z</time>
      </trkpt>
      <trkpt lat="45.98707" lon="4.81734">
        <ele>239</ele>
        <time>2017-07-06T09:14:17Z</time>
      </trkpt>
      <trkpt lat="45.98703" lon="4.81733">
        <ele>239</ele>
        <time>2017-07-06T09:14:18Z</time>
      </trkpt>
      <trkpt lat="45.98694" lon="4.81735">
        <ele>238</ele>
        <time>2017-07-06T09:14:20Z</time>
      </trkpt>
      <trkpt lat="45.9869" lon="4.81736">
        <ele>238</ele>
        <time>2017-07-06T09:14:21Z</time>
      </trkpt>
      <trkpt lat="45.98682" lon="4.81737">
        <ele>238</ele>
        <time>2017-07-06T09:14:23Z</time>
      </trkpt>
      <trkpt lat="45.98678" lon="4.81738">
        <ele>238</ele>
        <time>2017-07-06T09:14:24Z</time>
      </trkpt>
      <trkpt lat="45.98669" lon="4.8174">
        <ele>238</ele>
        <time>2017-07-06T09:14:26Z</time>
      </trkpt>
      <trkpt lat="45.98665" lon="4.81741">
        <ele>238</ele>
        <time>2017-07-06T09:14:27Z</time>
      </trkpt>
      <trkpt lat="45.9866" lon="4.81742">
        <ele>237</ele>
        <time>2017-07-06T09:14:28Z</time>
      </trkpt>
      <trkpt lat="45.98656" lon="4.81743">
        <ele>237</ele>
        <time>2017-07-06T09:14:29Z</time>
      </trkpt>
      <trkpt lat="45.98651" lon="4.81745">
        <ele>237</ele>
        <time>2017-07-06T09:14:30Z</time>
      </trkpt>
      <trkpt lat="45.98645" lon="4.81746">
        <ele>237</ele>
        <time>2017-07-06T09:14:31Z</time>
      </trkpt>
      <trkpt lat="45.9864" lon="4.81748">
        <ele>237</ele>
        <time>2017-07-06T09:14:32Z</time>
      </trkpt>
      <trkpt lat="45.98634" lon="4.8175">
        <ele>237</ele>
        <time>2017-07-06T09:14:33Z</time>
      </trkpt>
      <trkpt lat="45.98629" lon="4.81751">
        <ele>238</ele>
        <time>2017-07-06T09:14:34Z</time>
      </trkpt>
      <trkpt lat="45.98623" lon="4.81752">
        <ele>238</ele>
        <time>2017-07-06T09:14:35Z</time>
      </trkpt>
      <trkpt lat="45.98618" lon="4.81754">
        <ele>238</ele>
        <time>2017-07-06T09:14:36Z</time>
      </trkpt>
      <trkpt lat="45.98613" lon="4.81756">
        <ele>238</ele>
        <time>2017-07-06T09:14:37Z</time>
      </trkpt>
      <trkpt lat="45.98608" lon="4.81758">
        <ele>238</ele>
        <time>2017-07-06T09:14:38Z</time>
      </trkpt>
      <trkpt lat="45.98603" lon="4.8176">
        <ele>238</ele>
        <time>2017-07-06T09:14:39Z</time>
      </trkpt>
      <trkpt lat="45.98598" lon="4.81762">
        <ele>238</ele>
        <time>2017-07-06T09:14:40Z</time>
      </trkpt>
      <trkpt lat="45.98593" lon="4.81765">
        <ele>238</ele>
        <time>2017-07-06T09:14:41Z</time>
      </trkpt>
      <trkpt lat="45.98588" lon="4.81768">
        <ele>238</ele>
        <time>2017-07-06T09:14:42Z</time>
      </trkpt>
      <trkpt lat="45.98583" lon="4.81772">
        <ele>237</ele>
        <time>2017-07-06T09:14:43Z</time>
      </trkpt>
      <trkpt lat="45.98579" lon="4.81776">
        <ele>237</ele>
        <time>2017-07-06T09:14:44Z</time>
      </trkpt>
      <trkpt lat="45.98575" lon="4.81781">
        <ele>238</ele>
        <time>2017-07-06T09:14:45Z</time>
      </trkpt>
      <trkpt lat="45.98572" lon="4.81785">
        <ele>238</ele>
        <time>2017-07-06T09:14:46Z</time>
      </trkpt>
      <trkpt lat="45.98569" lon="4.8179">
        <ele>238</ele>
        <time>2017-07-06T09:14:47Z</time>
      </trkpt>
      <trkpt lat="45.98565" lon="4.81795">
        <ele>238</ele>
        <time>2017-07-06T09:14:48Z</time>
      </trkpt>
      <trkpt lat="45.98562" lon="4.81799">
        <ele>238</ele>
        <time>2017-07-06T09:14:49Z</time>
      </trkpt>
      <trkpt lat="45.98558" lon="4.81803">
        <ele>238</ele>
        <time>2017-07-06T09:14:50Z</time>
      </trkpt>
      <trkpt lat="45.98552" lon="4.81807">
        <ele>238</ele>
        <time>2017-07-06T09:14:51Z</time>
      </trkpt>
      <trkpt lat="45.98547" lon="4.81808">
        <ele>238</ele>
        <time>2017-07-06T09:14:52Z</time>
      </trkpt>
      <trkpt lat="45.98542" lon="4.81806">
        <ele>238</ele>
        <time>2017-07-06T09:14:53Z</time>
      </trkpt>
      <trkpt lat="45.98538" lon="4.81803">
        <ele>238</ele>
        <time>2017-07-06T09:14:54Z</time>
      </trkpt>
      <trkpt lat="45.98534" lon="4.81799">
        <ele>238</ele>
        <time>2017-07-06T09:14:55Z</time>
      </trkpt>
      <trkpt lat="45.9853" lon="4.81794">
        <ele>238</ele>
        <time>2017-07-06T09:14:56Z</time>
      </trkpt>
      <trkpt lat="45.98527" lon="4.81789">
        <ele>238</ele>
        <time>2017-07-06T09:14:57Z</time>
      </trkpt>
      <trkpt lat="45.98523" lon="4.81784">
        <ele>238</ele>
        <time>2017-07-06T09:14:58Z</time>
      </trkpt>
      <trkpt lat="45.9852" lon="4.81778">
        <ele>238</ele>
        <time>2017-07-06T09:14:59Z</time>
      </trkpt>
      <trkpt lat="45.98516" lon="4.81773">
        <ele>238</ele>
        <time>2017-07-06T09:15:00Z</time>
      </trkpt>
      <trkpt lat="45.98513" lon="4.81767">
        <ele>237</ele>
        <time>2017-07-06T09:15:01Z</time>
      </trkpt>
      <trkpt lat="45.9851" lon="4.81763">
        <ele>237</ele>
        <time>2017-07-06T09:15:02Z</time>
      </trkpt>
      <trkpt lat="45.98506" lon="4.81758">
        <ele>237</ele>
        <time>2017-07-06T09:15:03Z</time>
      </trkpt>
      <trkpt lat="45.98502" lon="4.81754">
        <ele>237</ele>
        <time>2017-07-06T09:15:04Z</time>
      </trkpt>
      <trkpt lat="45.98499" lon="4.81751">
        <ele>237</ele>
        <time>2017-07-06T09:15:05Z</time>
      </trkpt>
      <trkpt lat="45.98495" lon="4.81747">
        <ele>237</ele>
        <time>2017-07-06T09:15:06Z</time>
      </trkpt>
      <trkpt lat="45.98491" lon="4.81744">
        <ele>238</ele>
        <time>2017-07-06T09:15:07Z</time>
      </trkpt>
      <trkpt lat="45.98487" lon="4.8174">
        <ele>238</ele>
        <time>2017-07-06T09:15:08Z</time>
      </trkpt>
      <trkpt lat="45.98483" lon="4.81736">
        <ele>238</ele>
        <time>2017-07-06T09:15:09Z</time>
      </trkpt>
      <trkpt lat="45.98479" lon="4.81732">
        <ele>238</ele>
        <time>2017-07-06T09:15:10Z</time>
      </trkpt>
      <trkpt lat="45.98475" lon="4.81727">
        <ele>239</ele>
        <time>2017-07-06T09:15:11Z</time>
      </trkpt>
      <trkpt lat="45.98471" lon="4.81722">
        <ele>239</ele>
        <time>2017-07-06T09:15:12Z</time>
      </trkpt>
      <trkpt lat="45.98467" lon="4.81718">
        <ele>239</ele>
        <time>2017-07-06T09:15:13Z</time>
      </trkpt>
      <trkpt lat="45.98461" lon="4.81709">
        <ele>239</ele>
        <time>2017-07-06T09:15:15Z</time>
      </trkpt>
      <trkpt lat="45.98457" lon="4.81705">
        <ele>239</ele>
        <time>2017-07-06T09:15:16Z</time>
      </trkpt>
      <trkpt lat="45.98452" lon="4.81696">
        <ele>239</ele>
        <time>2017-07-06T09:15:18Z</time>
      </trkpt>
      <trkpt lat="45.9845" lon="4.81692">
        <ele>239</ele>
        <time>2017-07-06T09:15:19Z</time>
      </trkpt>
      <trkpt lat="45.98446" lon="4.81682">
        <ele>239</ele>
        <time>2017-07-06T09:15:21Z</time>
      </trkpt>
      <trkpt lat="45.98443" lon="4.81677">
        <ele>239</ele>
        <time>2017-07-06T09:15:22Z</time>
      </trkpt>
      <trkpt lat="45.98436" lon="4.8167">
        <ele>240</ele>
        <time>2017-07-06T09:15:24Z</time>
      </trkpt>
      <trkpt lat="45.98432" lon="4.81667">
        <ele>239</ele>
        <time>2017-07-06T09:15:25Z</time>
      </trkpt>
      <trkpt lat="45.98424" lon="4.81664">
        <ele>240</ele>
        <time>2017-07-06T09:15:27Z</time>
      </trkpt>
      <trkpt lat="45.98419" lon="4.81663">
        <ele>240</ele>
        <time>2017-07-06T09:15:28Z</time>
      </trkpt>
      <trkpt lat="45.98411" lon="4.81664">
        <ele>241</ele>
        <time>2017-07-06T09:15:30Z</time>
      </trkpt>
      <trkpt lat="45.98407" lon="4.81665">
        <ele>241</ele>
        <time>2017-07-06T09:15:31Z</time>
      </trkpt>
      <trkpt lat="45.98399" lon="4.81667">
        <ele>242</ele>
        <time>2017-07-06T09:15:33Z</time>
      </trkpt>
      <trkpt lat="45.98395" lon="4.81668">
        <ele>243</ele>
        <time>2017-07-06T09:15:34Z</time>
      </trkpt>
      <trkpt lat="45.98386" lon="4.8167">
        <ele>243</ele>
        <time>2017-07-06T09:15:36Z</time>
      </trkpt>
      <trkpt lat="45.98382" lon="4.81671">
        <ele>244</ele>
        <time>2017-07-06T09:15:37Z</time>
      </trkpt>
      <trkpt lat="45.98374" lon="4.81672">
        <ele>244</ele>
        <time>2017-07-06T09:15:39Z</time>
      </trkpt>
      <trkpt lat="45.9837" lon="4.81674">
        <ele>244</ele>
        <time>2017-07-06T09:15:40Z</time>
      </trkpt>
      <trkpt lat="45.98361" lon="4.81675">
        <ele>244</ele>
        <time>2017-07-06T09:15:42Z</time>
      </trkpt>
      <trkpt lat="45.98357" lon="4.81675">
        <ele>245</ele>
        <time>2017-07-06T09:15:43Z</time>
      </trkpt>
      <trkpt lat="45.98349" lon="4.81674">
        <ele>245</ele>
        <time>2017-07-06T09:15:45Z</time>
      </trkpt>
      <trkpt lat="45.98345" lon="4.81673">
        <ele>245</ele>
        <time>2017-07-06T09:15:46Z</time>
      </trkpt>
      <trkpt lat="45.98337" lon="4.81671">
        <ele>246</ele>
        <time>2017-07-06T09:15:48Z</time>
      </trkpt>
      <trkpt lat="45.98334" lon="4.81669">
        <ele>246</ele>
        <time>2017-07-06T09:15:49Z</time>
      </trkpt>
      <trkpt lat="45.98328" lon="4.81665">
        <ele>246</ele>
        <time>2017-07-06T09:15:51Z</time>
      </trkpt>
      <trkpt lat="45.98325" lon="4.81663">
        <ele>246</ele>
        <time>2017-07-06T09:15:52Z</time>
      </trkpt>
      <trkpt lat="45.98319" lon="4.81658">
        <ele>246</ele>
        <time>2017-07-06T09:15:54Z</time>
      </trkpt>
      <trkpt lat="45.98315" lon="4.81655">
        <ele>246</ele>
        <time>2017-07-06T09:15:55Z</time>
      </trkpt>
      <trkpt lat="45.98309" lon="4.81648">
        <ele>246</ele>
        <time>2017-07-06T09:15:57Z</time>
      </trkpt>
      <trkpt lat="45.98305" lon="4.81645">
        <ele>246</ele>
        <time>2017-07-06T09:15:58Z</time>
      </trkpt>
      <trkpt lat="45.98299" lon="4.81639">
        <ele>247</ele>
        <time>2017-07-06T09:16:00Z</time>
      </trkpt>
      <trkpt lat="45.98295" lon="4.81635">
        <ele>247</ele>
        <time>2017-07-06T09:16:01Z</time>
      </trkpt>
      <trkpt lat="45.98289" lon="4.81628">
        <ele>247</ele>
        <time>2017-07-06T09:16:03Z</time>
      </trkpt>
      <trkpt lat="45.98286" lon="4.81623">
        <ele>247</ele>
        <time>2017-07-06T09:16:04Z</time>
      </trkpt>
      <trkpt lat="45.98281" lon="4.81614">
        <ele>247</ele>
        <time>2017-07-06T09:16:06Z</time>
      </trkpt>
      <trkpt lat="45.98279" lon="4.81609">
        <ele>247</ele>
        <time>2017-07-06T09:16:07Z</time>
      </trkpt>
      <trkpt lat="45.98275" lon="4.81598">
        <ele>247</ele>
        <time>2017-07-06T09:16:09Z</time>
      </trkpt>
      <trkpt lat="45.98273" lon="4.81592">
        <ele>247</ele>
        <time>2017-07-06T09:16:10Z</time>
      </trkpt>
      <trkpt lat="45.98268" lon="4.81582">
        <ele>247</ele>
        <time>2017-07-06T09:16:12Z</time>
      </trkpt>
      <trkpt lat="45.98267" lon="4.81577">
        <ele>247</ele>
        <time>2017-07-06T09:16:13Z</time>
      </trkpt>
      <trkpt lat="45.98263" lon="4.81566">
        <ele>247</ele>
        <time>2017-07-06T09:16:15Z</time>
      </trkpt>
      <trkpt lat="45.98262" lon="4.8156">
        <ele>247</ele>
        <time>2017-07-06T09:16:16Z</time>
      </trkpt>
      <trkpt lat="45.98258" lon="4.81549">
        <ele>247</ele>
        <time>2017-07-06T09:16:18Z</time>
      </trkpt>
      <trkpt lat="45.98256" lon="4.81544">
        <ele>247</ele>
        <time>2017-07-06T09:16:19Z</time>
      </trkpt>
      <trkpt lat="45.98252" lon="4.81532">
        <ele>247</ele>
        <time>2017-07-06T09:16:21Z</time>
      </trkpt>
      <trkpt lat="45.98251" lon="4.81527">
        <ele>247</ele>
        <time>2017-07-06T09:16:22Z</time>
      </trkpt>
      <trkpt lat="45.98249" lon="4.81521">
        <ele>249</ele>
        <time>2017-07-06T09:16:23Z</time>
      </trkpt>
      <trkpt lat="45.98247" lon="4.81515">
        <ele>249</ele>
        <time>2017-07-06T09:16:24Z</time>
      </trkpt>
      <trkpt lat="45.98245" lon="4.81509">
        <ele>249</ele>
        <time>2017-07-06T09:16:25Z</time>
      </trkpt>
      <trkpt lat="45.98243" lon="4.81503">
        <ele>249</ele>
        <time>2017-07-06T09:16:26Z</time>
      </trkpt>
      <trkpt lat="45.98241" lon="4.81497">
        <ele>249</ele>
        <time>2017-07-06T09:16:27Z</time>
      </trkpt>
      <trkpt lat="45.98239" lon="4.81491">
        <ele>249</ele>
        <time>2017-07-06T09:16:28Z</time>
      </trkpt>
      <trkpt lat="45.98237" lon="4.81484">
        <ele>249</ele>
        <time>2017-07-06T09:16:29Z</time>
      </trkpt>
      <trkpt lat="45.98236" lon="4.81478">
        <ele>249</ele>
        <time>2017-07-06T09:16:30Z</time>
      </trkpt>
      <trkpt lat="45.98232" lon="4.81467">
        <ele>249</ele>
        <time>2017-07-06T09:16:32Z</time>
      </trkpt>
      <trkpt lat="45.9823" lon="4.81461">
        <ele>249</ele>
        <time>2017-07-06T09:16:33Z</time>
      </trkpt>
      <trkpt lat="45.98227" lon="4.8145">
        <ele>249</ele>
        <time>2017-07-06T09:16:35Z</time>
      </trkpt>
      <trkpt lat="45.98225" lon="4.81445">
        <ele>249</ele>
        <time>2017-07-06T09:16:36Z</time>
      </trkpt>
      <trkpt lat="45.98221" lon="4.81436">
        <ele>249</ele>
        <time>2017-07-06T09:16:38Z</time>
      </trkpt>
      <trkpt lat="45.9822" lon="4.81432">
        <ele>249</ele>
        <time>2017-07-06T09:16:39Z</time>
      </trkpt>
      <trkpt lat="45.98216" lon="4.81422">
        <ele>249</ele>
        <time>2017-07-06T09:16:41Z</time>
      </trkpt>
      <trkpt lat="45.98215" lon="4.81417">
        <ele>249</ele>
        <time>2017-07-06T09:16:42Z</time>
      </trkpt>
      <trkpt lat="45.98212" lon="4.81406">
        <ele>248</ele>
        <time>2017-07-06T09:16:44Z</time>
      </trkpt>
      <trkpt lat="45.9821" lon="4.81401">
        <ele>248</ele>
        <time>2017-07-06T09:16:45Z</time>
      </trkpt>
      <trkpt lat="45.98207" lon="4.8139">
        <ele>248</ele>
        <time>2017-07-06T09:16:47Z</time>
      </trkpt>
      <trkpt lat="45.98205" lon="4.81384">
        <ele>248</ele>
        <time>2017-07-06T09:16:48Z</time>
      </trkpt>
      <trkpt lat="45.98202" lon="4.81373">
        <ele>248</ele>
        <time>2017-07-06T09:16:50Z</time>
      </trkpt>
      <trkpt lat="45.98201" lon="4.81367">
        <ele>248</ele>
        <time>2017-07-06T09:16:51Z</time>
      </trkpt>
      <trkpt lat="45.98199" lon="4.81361">
        <ele>248</ele>
        <time>2017-07-06T09:16:52Z</time>
      </trkpt>
      <trkpt lat="45.98197" lon="4.81355">
        <ele>248</ele>
        <time>2017-07-06T09:16:53Z</time>
      </trkpt>
      <trkpt lat="45.98196" lon="4.81348">
        <ele>248</ele>
        <time>2017-07-06T09:16:54Z</time>
      </trkpt>
      <trkpt lat="45.98194" lon="4.81341">
        <ele>248</ele>
        <time>2017-07-06T09:16:55Z</time>
      </trkpt>
      <trkpt lat="45.98191" lon="4.81334">
        <ele>248</ele>
        <time>2017-07-06T09:16:56Z</time>
      </trkpt>
      <trkpt lat="45.9819" lon="4.81327">
        <ele>247</ele>
        <time>2017-07-06T09:16:57Z</time>
      </trkpt>
      <trkpt lat="45.98189" lon="4.8132">
        <ele>247</ele>
        <time>2017-07-06T09:16:58Z</time>
      </trkpt>
      <trkpt lat="45.98187" lon="4.81313">
        <ele>247</ele>
        <time>2017-07-06T09:16:59Z</time>
      </trkpt>
      <trkpt lat="45.98186" lon="4.81306">
        <ele>247</ele>
        <time>2017-07-06T09:17:00Z</time>
      </trkpt>
      <trkpt lat="45.98184" lon="4.81299">
        <ele>247</ele>
        <time>2017-07-06T09:17:01Z</time>
      </trkpt>
      <trkpt lat="45.98183" lon="4.81292">
        <ele>247</ele>
        <time>2017-07-06T09:17:02Z</time>
      </trkpt>
      <trkpt lat="45.98182" lon="4.81285">
        <ele>247</ele>
        <time>2017-07-06T09:17:03Z</time>
      </trkpt>
      <trkpt lat="45.9818" lon="4.81278">
        <ele>247</ele>
        <time>2017-07-06T09:17:04Z</time>
      </trkpt>
      <trkpt lat="45.98179" lon="4.81271">
        <ele>247</ele>
        <time>2017-07-06T09:17:05Z</time>
      </trkpt>
      <trkpt lat="45.98178" lon="4.81264">
        <ele>247</ele>
        <time>2017-07-06T09:17:06Z</time>
      </trkpt>
      <trkpt lat="45.98177" lon="4.81256">
        <ele>247</ele>
        <time>2017-07-06T09:17:07Z</time>
      </trkpt>
      <trkpt lat="45.98176" lon="4.81248">
        <ele>247</ele>
        <time>2017-07-06T09:17:08Z</time>
      </trkpt>
      <trkpt lat="45.98174" lon="4.81241">
        <ele>247</ele>
        <time>2017-07-06T09:17:09Z</time>
      </trkpt>
      <trkpt lat="45.98173" lon="4.81234">
        <ele>246</ele>
        <time>2017-07-06T09:17:10Z</time>
      </trkpt>
      <trkpt lat="45.98172" lon="4.81227">
        <ele>246</ele>
        <time>2017-07-06T09:17:11Z</time>
      </trkpt>
      <trkpt lat="45.98171" lon="4.81219">
        <ele>246</ele>
        <time>2017-07-06T09:17:12Z</time>
      </trkpt>
      <trkpt lat="45.98169" lon="4.81211">
        <ele>246</ele>
        <time>2017-07-06T09:17:13Z</time>
      </trkpt>
      <trkpt lat="45.98168" lon="4.81204">
        <ele>245</ele>
        <time>2017-07-06T09:17:14Z</time>
      </trkpt>
      <trkpt lat="45.98167" lon="4.81196">
        <ele>245</ele>
        <time>2017-07-06T09:17:15Z</time>
      </trkpt>
      <trkpt lat="45.98166" lon="4.81188">
        <ele>246</ele>
        <time>2017-07-06T09:17:16Z</time>
      </trkpt>
      <trkpt lat="45.98165" lon="4.81181">
        <ele>246</ele>
        <time>2017-07-06T09:17:17Z</time>
      </trkpt>
      <trkpt lat="45.98163" lon="4.81173">
        <ele>245</ele>
        <time>2017-07-06T09:17:18Z</time>
      </trkpt>
      <trkpt lat="45.98161" lon="4.81166">
        <ele>245</ele>
        <time>2017-07-06T09:17:19Z</time>
      </trkpt>
      <trkpt lat="45.98158" lon="4.8116">
        <ele>245</ele>
        <time>2017-07-06T09:17:20Z</time>
      </trkpt>
      <trkpt lat="45.98156" lon="4.81152">
        <ele>245</ele>
        <time>2017-07-06T09:17:21Z</time>
      </trkpt>
      <trkpt lat="45.98154" lon="4.81145">
        <ele>245</ele>
        <time>2017-07-06T09:17:22Z</time>
      </trkpt>
      <trkpt lat="45.98152" lon="4.81138">
        <ele>245</ele>
        <time>2017-07-06T09:17:23Z</time>
      </trkpt>
      <trkpt lat="45.98149" lon="4.81131">
        <ele>245</ele>
        <time>2017-07-06T09:17:24Z</time>
      </trkpt>
      <trkpt lat="45.98147" lon="4.81124">
        <ele>245</ele>
        <time>2017-07-06T09:17:25Z</time>
      </trkpt>
      <trkpt lat="45.98144" lon="4.81117">
        <ele>245</ele>
        <time>2017-07-06T09:17:26Z</time>
      </trkpt>
      <trkpt lat="45.98142" lon="4.8111">
        <ele>245</ele>
        <time>2017-07-06T09:17:27Z</time>
      </trkpt>
      <trkpt lat="45.98139" lon="4.81102">
        <ele>245</ele>
        <time>2017-07-06T09:17:28Z</time>
      </trkpt>
      <trkpt lat="45.98136" lon="4.81095">
        <ele>245</ele>
        <time>2017-07-06T09:17:29Z</time>
      </trkpt>
      <trkpt lat="45.98133" lon="4.81088">
        <ele>245</ele>
        <time>2017-07-06T09:17:30Z</time>
      </trkpt>
      <trkpt lat="45.98131" lon="4.81081">
        <ele>243</ele>
        <time>2017-07-06T09:17:31Z</time>
      </trkpt>
      <trkpt lat="45.98128" lon="4.81074">
        <ele>243</ele>
        <time>2017-07-06T09:17:32Z</time>
      </trkpt>
      <trkpt lat="45.98125" lon="4.81067">
        <ele>243</ele>
        <time>2017-07-06T09:17:33Z</time>
      </trkpt>
      <trkpt lat="45.98123" lon="4.8106">
        <ele>243</ele>
        <time>2017-07-06T09:17:34Z</time>
      </trkpt>
      <trkpt lat="45.9812" lon="4.81053">
        <ele>243</ele>
        <time>2017-07-06T09:17:35Z</time>
      </trkpt>
      <trkpt lat="45.98118" lon="4.81045">
        <ele>242</ele>
        <time>2017-07-06T09:17:36Z</time>
      </trkpt>
      <trkpt lat="45.98116" lon="4.81038">
        <ele>242</ele>
        <time>2017-07-06T09:17:37Z</time>
      </trkpt>
      <trkpt lat="45.98113" lon="4.81031">
        <ele>242</ele>
        <time>2017-07-06T09:17:38Z</time>
      </trkpt>
      <trkpt lat="45.98111" lon="4.81024">
        <ele>242</ele>
        <time>2017-07-06T09:17:39Z</time>
      </trkpt>
      <trkpt lat="45.98108" lon="4.81018">
        <ele>242</ele>
        <time>2017-07-06T09:17:40Z</time>
      </trkpt>
      <trkpt lat="45.98106" lon="4.81011">
        <ele>242</ele>
        <time>2017-07-06T09:17:41Z</time>
      </trkpt>
      <trkpt lat="45.98104" lon="4.81004">
        <ele>242</ele>
        <time>2017-07-06T09:17:42Z</time>
      </trkpt>
      <trkpt lat="45.98102" lon="4.80998">
        <ele>240</ele>
        <time>2017-07-06T09:17:43Z</time>
      </trkpt>
      <trkpt lat="45.98099" lon="4.80986">
        <ele>240</ele>
        <time>2017-07-06T09:17:45Z</time>
      </trkpt>
      <trkpt lat="45.98097" lon="4.80981">
        <ele>239</ele>
        <time>2017-07-06T09:17:46Z</time>
      </trkpt>
      <trkpt lat="45.98095" lon="4.80976">
        <ele>239</ele>
        <time>2017-07-06T09:17:47Z</time>
      </trkpt>
      <trkpt lat="45.98093" lon="4.80969">
        <ele>239</ele>
        <time>2017-07-06T09:17:48Z</time>
      </trkpt>
      <trkpt lat="45.98091" lon="4.80962">
        <ele>239</ele>
        <time>2017-07-06T09:17:49Z</time>
      </trkpt>
      <trkpt lat="45.98089" lon="4.80954">
        <ele>238</ele>
        <time>2017-07-06T09:17:50Z</time>
      </trkpt>
      <trkpt lat="45.98087" lon="4.80945">
        <ele>238</ele>
        <time>2017-07-06T09:17:51Z</time>
      </trkpt>
      <trkpt lat="45.98085" lon="4.80935">
        <ele>238</ele>
        <time>2017-07-06T09:17:52Z</time>
      </trkpt>
      <trkpt lat="45.98082" lon="4.80925">
        <ele>240</ele>
        <time>2017-07-06T09:17:53Z</time>
      </trkpt>
      <trkpt lat="45.9808" lon="4.80914">
        <ele>239</ele>
        <time>2017-07-06T09:17:54Z</time>
      </trkpt>
      <trkpt lat="45.98078" lon="4.80903">
        <ele>238</ele>
        <time>2017-07-06T09:17:55Z</time>
      </trkpt>
      <trkpt lat="45.98074" lon="4.80892">
        <ele>238</ele>
        <time>2017-07-06T09:17:56Z</time>
      </trkpt>
      <trkpt lat="45.98071" lon="4.80881">
        <ele>237</ele>
        <time>2017-07-06T09:17:57Z</time>
      </trkpt>
      <trkpt lat="45.98068" lon="4.8087">
        <ele>237</ele>
        <time>2017-07-06T09:17:58Z</time>
      </trkpt>
      <trkpt lat="45.98066" lon="4.80857">
        <ele>236</ele>
        <time>2017-07-06T09:17:59Z</time>
      </trkpt>
      <trkpt lat="45.98063" lon="4.80845">
        <ele>236</ele>
        <time>2017-07-06T09:18:00Z</time>
      </trkpt>
      <trkpt lat="45.9806" lon="4.80833">
        <ele>234</ele>
        <time>2017-07-06T09:18:01Z</time>
      </trkpt>
      <trkpt lat="45.98057" lon="4.8082">
        <ele>234</ele>
        <time>2017-07-06T09:18:02Z</time>
      </trkpt>
      <trkpt lat="45.98054" lon="4.80808">
        <ele>234</ele>
        <time>2017-07-06T09:18:03Z</time>
      </trkpt>
      <trkpt lat="45.98051" lon="4.80797">
        <ele>233</ele>
        <time>2017-07-06T09:18:04Z</time>
      </trkpt>
      <trkpt lat="45.98048" lon="4.80785">
        <ele>233</ele>
        <time>2017-07-06T09:18:05Z</time>
      </trkpt>
      <trkpt lat="45.98046" lon="4.80774">
        <ele>233</ele>
        <time>2017-07-06T09:18:06Z</time>
      </trkpt>
      <trkpt lat="45.98043" lon="4.80763">
        <ele>233</ele>
        <time>2017-07-06T09:18:07Z</time>
      </trkpt>
      <trkpt lat="45.98041" lon="4.80753">
        <ele>233</ele>
        <time>2017-07-06T09:18:08Z</time>
      </trkpt>
      <trkpt lat="45.98039" lon="4.80744">
        <ele>231</ele>
        <time>2017-07-06T09:18:09Z</time>
      </trkpt>
      <trkpt lat="45.98037" lon="4.80736">
        <ele>231</ele>
        <time>2017-07-06T09:18:10Z</time>
      </trkpt>
      <trkpt lat="45.98035" lon="4.80728">
        <ele>231</ele>
        <time>2017-07-06T09:18:11Z</time>
      </trkpt>
      <trkpt lat="45.98033" lon="4.80721">
        <ele>231</ele>
        <time>2017-07-06T09:18:12Z</time>
      </trkpt>
      <trkpt lat="45.98031" lon="4.8071">
        <ele>231</ele>
        <time>2017-07-06T09:18:14Z</time>
      </trkpt>
      <trkpt lat="45.98032" lon="4.80705">
        <ele>231</ele>
        <time>2017-07-06T09:18:15Z</time>
      </trkpt>
      <trkpt lat="45.98039" lon="4.80699">
        <ele>230</ele>
        <time>2017-07-06T09:18:17Z</time>
      </trkpt>
      <trkpt lat="45.98044" lon="4.80698">
        <ele>230</ele>
        <time>2017-07-06T09:18:18Z</time>
      </trkpt>
      <trkpt lat="45.9805" lon="4.80698">
        <ele>230</ele>
        <time>2017-07-06T09:18:19Z</time>
      </trkpt>
      <trkpt lat="45.98056" lon="4.80697">
        <ele>230</ele>
        <time>2017-07-06T09:18:20Z</time>
      </trkpt>
      <trkpt lat="45.98062" lon="4.80696">
        <ele>230</ele>
        <time>2017-07-06T09:18:21Z</time>
      </trkpt>
      <trkpt lat="45.98069" lon="4.80696">
        <ele>230</ele>
        <time>2017-07-06T09:18:22Z</time>
      </trkpt>
      <trkpt lat="45.98076" lon="4.80695">
        <ele>230</ele>
        <time>2017-07-06T09:18:23Z</time>
      </trkpt>
      <trkpt lat="45.98084" lon="4.80694">
        <ele>228</ele>
        <time>2017-07-06T09:18:24Z</time>
      </trkpt>
      <trkpt lat="45.98091" lon="4.80695">
        <ele>228</ele>
        <time>2017-07-06T09:18:25Z</time>
      </trkpt>
      <trkpt lat="45.98099" lon="4.80695">
        <ele>228</ele>
        <time>2017-07-06T09:18:26Z</time>
      </trkpt>
      <trkpt lat="45.98107" lon="4.80694">
        <ele>228</ele>
        <time>2017-07-06T09:18:27Z</time>
      </trkpt>
      <trkpt lat="45.98115" lon="4.80694">
        <ele>228</ele>
        <time>2017-07-06T09:18:28Z</time>
      </trkpt>
      <trkpt lat="45.98123" lon="4.80694">
        <ele>228</ele>
        <time>2017-07-06T09:18:29Z</time>
      </trkpt>
      <trkpt lat="45.98131" lon="4.80694">
        <ele>228</ele>
        <time>2017-07-06T09:18:30Z</time>
      </trkpt>
      <trkpt lat="45.98139" lon="4.80693">
        <ele>228</ele>
        <time>2017-07-06T09:18:31Z</time>
      </trkpt>
      <trkpt lat="45.98148" lon="4.80693">
        <ele>228</ele>
        <time>2017-07-06T09:18:32Z</time>
      </trkpt>
      <trkpt lat="45.98156" lon="4.80692">
        <ele>227</ele>
        <time>2017-07-06T09:18:33Z</time>
      </trkpt>
      <trkpt lat="45.98165" lon="4.80692">
        <ele>227</ele>
        <time>2017-07-06T09:18:34Z</time>
      </trkpt>
      <trkpt lat="45.98173" lon="4.8069">
        <ele>225</ele>
        <time>2017-07-06T09:18:35Z</time>
      </trkpt>
      <trkpt lat="45.98182" lon="4.80689">
        <ele>225</ele>
        <time>2017-07-06T09:18:36Z</time>
      </trkpt>
      <trkpt lat="45.9819" lon="4.80687">
        <ele>225</ele>
        <time>2017-07-06T09:18:37Z</time>
      </trkpt>
      <trkpt lat="45.98199" lon="4.80684">
        <ele>225</ele>
        <time>2017-07-06T09:18:38Z</time>
      </trkpt>
      <trkpt lat="45.98207" lon="4.8068">
        <ele>224</ele>
        <time>2017-07-06T09:18:39Z</time>
      </trkpt>
      <trkpt lat="45.98215" lon="4.80676">
        <ele>224</ele>
        <time>2017-07-06T09:18:40Z</time>
      </trkpt>
      <trkpt lat="45.98222" lon="4.80669">
        <ele>224</ele>
        <time>2017-07-06T09:18:41Z</time>
      </trkpt>
      <trkpt lat="45.98227" lon="4.8066">
        <ele>223</ele>
        <time>2017-07-06T09:18:42Z</time>
      </trkpt>
      <trkpt lat="45.98232" lon="4.80649">
        <ele>223</ele>
        <time>2017-07-06T09:18:43Z</time>
      </trkpt>
      <trkpt lat="45.98236" lon="4.80637">
        <ele>224</ele>
        <time>2017-07-06T09:18:44Z</time>
      </trkpt>
      <trkpt lat="45.98239" lon="4.80625">
        <ele>224</ele>
        <time>2017-07-06T09:18:45Z</time>
      </trkpt>
      <trkpt lat="45.98243" lon="4.80613">
        <ele>224</ele>
        <time>2017-07-06T09:18:46Z</time>
      </trkpt>
      <trkpt lat="45.98246" lon="4.80602">
        <ele>224</ele>
        <time>2017-07-06T09:18:47Z</time>
      </trkpt>
      <trkpt lat="45.98249" lon="4.8059">
        <ele>224</ele>
        <time>2017-07-06T09:18:48Z</time>
      </trkpt>
      <trkpt lat="45.98253" lon="4.80579">
        <ele>224</ele>
        <time>2017-07-06T09:18:49Z</time>
      </trkpt>
      <trkpt lat="45.98256" lon="4.80568">
        <ele>224</ele>
        <time>2017-07-06T09:18:50Z</time>
      </trkpt>
      <trkpt lat="45.98259" lon="4.80557">
        <ele>224</ele>
        <time>2017-07-06T09:18:51Z</time>
      </trkpt>
      <trkpt lat="45.98262" lon="4.80546">
        <ele>224</ele>
        <time>2017-07-06T09:18:52Z</time>
      </trkpt>
      <trkpt lat="45.98265" lon="4.80536">
        <ele>224</ele>
        <time>2017-07-06T09:18:53Z</time>
      </trkpt>
      <trkpt lat="45.98268" lon="4.80527">
        <ele>224</ele>
        <time>2017-07-06T09:18:54Z</time>
      </trkpt>
      <trkpt lat="45.9827" lon="4.80517">
        <ele>223</ele>
        <time>2017-07-06T09:18:55Z</time>
      </trkpt>
      <trkpt lat="45.98272" lon="4.80506">
        <ele>223</ele>
        <time>2017-07-06T09:18:56Z</time>
      </trkpt>
      <trkpt lat="45.98275" lon="4.80497">
        <ele>223</ele>
        <time>2017-07-06T09:18:57Z</time>
      </trkpt>
      <trkpt lat="45.98278" lon="4.80488">
        <ele>223</ele>
        <time>2017-07-06T09:18:58Z</time>
      </trkpt>
      <trkpt lat="45.9828" lon="4.80479">
        <ele>223</ele>
        <time>2017-07-06T09:18:59Z</time>
      </trkpt>
      <trkpt lat="45.98281" lon="4.80471">
        <ele>223</ele>
        <time>2017-07-06T09:19:00Z</time>
      </trkpt>
      <trkpt lat="45.98281" lon="4.80463">
        <ele>223</ele>
        <time>2017-07-06T09:19:01Z</time>
      </trkpt>
      <trkpt lat="45.98282" lon="4.80456">
        <ele>223</ele>
        <time>2017-07-06T09:19:02Z</time>
      </trkpt>
      <trkpt lat="45.98284" lon="4.80447">
        <ele>223</ele>
        <time>2017-07-06T09:19:03Z</time>
      </trkpt>
      <trkpt lat="45.98286" lon="4.8044">
        <ele>224</ele>
        <time>2017-07-06T09:19:04Z</time>
      </trkpt>
      <trkpt lat="45.98287" lon="4.80433">
        <ele>224</ele>
        <time>2017-07-06T09:19:05Z</time>
      </trkpt>
      <trkpt lat="45.98289" lon="4.80421">
        <ele>224</ele>
        <time>2017-07-06T09:19:07Z</time>
      </trkpt>
      <trkpt lat="45.9829" lon="4.80415">
        <ele>224</ele>
        <time>2017-07-06T09:19:08Z</time>
      </trkpt>
      <trkpt lat="45.98291" lon="4.80409">
        <ele>224</ele>
        <time>2017-07-06T09:19:09Z</time>
      </trkpt>
      <trkpt lat="45.98292" lon="4.80403">
        <ele>224</ele>
        <time>2017-07-06T09:19:10Z</time>
      </trkpt>
      <trkpt lat="45.98294" lon="4.80395">
        <ele>224</ele>
        <time>2017-07-06T09:19:11Z</time>
      </trkpt>
      <trkpt lat="45.98295" lon="4.80388">
        <ele>224</ele>
        <time>2017-07-06T09:19:12Z</time>
      </trkpt>
      <trkpt lat="45.98297" lon="4.80381">
        <ele>225</ele>
        <time>2017-07-06T09:19:13Z</time>
      </trkpt>
      <trkpt lat="45.98298" lon="4.80375">
        <ele>225</ele>
        <time>2017-07-06T09:19:14Z</time>
      </trkpt>
      <trkpt lat="45.983" lon="4.80368">
        <ele>225</ele>
        <time>2017-07-06T09:19:15Z</time>
      </trkpt>
      <trkpt lat="45.98301" lon="4.80362">
        <ele>225</ele>
        <time>2017-07-06T09:19:16Z</time>
      </trkpt>
      <trkpt lat="45.98303" lon="4.8035">
        <ele>225</ele>
        <time>2017-07-06T09:19:18Z</time>
      </trkpt>
      <trkpt lat="45.98304" lon="4.80344">
        <ele>225</ele>
        <time>2017-07-06T09:19:19Z</time>
      </trkpt>
      <trkpt lat="45.98306" lon="4.80337">
        <ele>226</ele>
        <time>2017-07-06T09:19:20Z</time>
      </trkpt>
      <trkpt lat="45.98308" lon="4.8033">
        <ele>226</ele>
        <time>2017-07-06T09:19:21Z</time>
      </trkpt>
      <trkpt lat="45.98309" lon="4.80324">
        <ele>226</ele>
        <time>2017-07-06T09:19:22Z</time>
      </trkpt>
      <trkpt lat="45.9831" lon="4.80317">
        <ele>226</ele>
        <time>2017-07-06T09:19:23Z</time>
      </trkpt>
      <trkpt lat="45.98311" lon="4.8031">
        <ele>226</ele>
        <time>2017-07-06T09:19:24Z</time>
      </trkpt>
      <trkpt lat="45.98313" lon="4.80303">
        <ele>226</ele>
        <time>2017-07-06T09:19:25Z</time>
      </trkpt>
      <trkpt lat="45.98315" lon="4.80292">
        <ele>226</ele>
        <time>2017-07-06T09:19:27Z</time>
      </trkpt>
      <trkpt lat="45.98316" lon="4.80284">
        <ele>226</ele>
        <time>2017-07-06T09:19:28Z</time>
      </trkpt>
      <trkpt lat="45.98318" lon="4.80274">
        <ele>227</ele>
        <time>2017-07-06T09:19:30Z</time>
      </trkpt>
      <trkpt lat="45.9832" lon="4.80268">
        <ele>227</ele>
        <time>2017-07-06T09:19:31Z</time>
      </trkpt>
      <trkpt lat="45.98323" lon="4.80257">
        <ele>228</ele>
        <time>2017-07-06T09:19:33Z</time>
      </trkpt>
      <trkpt lat="45.98325" lon="4.80251">
        <ele>229</ele>
        <time>2017-07-06T09:19:34Z</time>
      </trkpt>
      <trkpt lat="45.98327" lon="4.80245">
        <ele>229</ele>
        <time>2017-07-06T09:19:35Z</time>
      </trkpt>
      <trkpt lat="45.98329" lon="4.80239">
        <ele>228</ele>
        <time>2017-07-06T09:19:36Z</time>
      </trkpt>
      <trkpt lat="45.98329" lon="4.80228">
        <ele>228</ele>
        <time>2017-07-06T09:19:38Z</time>
      </trkpt>
      <trkpt lat="45.98328" lon="4.80223">
        <ele>227</ele>
        <time>2017-07-06T09:19:39Z</time>
      </trkpt>
      <trkpt lat="45.98326" lon="4.80211">
        <ele>227</ele>
        <time>2017-07-06T09:19:41Z</time>
      </trkpt>
      <trkpt lat="45.98324" lon="4.80205">
        <ele>227</ele>
        <time>2017-07-06T09:19:42Z</time>
      </trkpt>
      <trkpt lat="45.98322" lon="4.80195">
        <ele>227</ele>
        <time>2017-07-06T09:19:44Z</time>
      </trkpt>
      <trkpt lat="45.9832" lon="4.80189">
        <ele>227</ele>
        <time>2017-07-06T09:19:45Z</time>
      </trkpt>
      <trkpt lat="45.98319" lon="4.80182">
        <ele>227</ele>
        <time>2017-07-06T09:19:46Z</time>
      </trkpt>
      <trkpt lat="45.98317" lon="4.80176">
        <ele>227</ele>
        <time>2017-07-06T09:19:47Z</time>
      </trkpt>
      <trkpt lat="45.98315" lon="4.8017">
        <ele>227</ele>
        <time>2017-07-06T09:19:48Z</time>
      </trkpt>
      <trkpt lat="45.98312" lon="4.80163">
        <ele>228</ele>
        <time>2017-07-06T09:19:49Z</time>
      </trkpt>
      <trkpt lat="45.9831" lon="4.80157">
        <ele>228</ele>
        <time>2017-07-06T09:19:50Z</time>
      </trkpt>
      <trkpt lat="45.98308" lon="4.8015">
        <ele>228</ele>
        <time>2017-07-06T09:19:51Z</time>
      </trkpt>
      <trkpt lat="45.98306" lon="4.80144">
        <ele>228</ele>
        <time>2017-07-06T09:19:52Z</time>
      </trkpt>
      <trkpt lat="45.98304" lon="4.80138">
        <ele>228</ele>
        <time>2017-07-06T09:19:53Z</time>
      </trkpt>
      <trkpt lat="45.98302" lon="4.80132">
        <ele>228</ele>
        <time>2017-07-06T09:19:54Z</time>
      </trkpt>
      <trkpt lat="45.983" lon="4.80126">
        <ele>228</ele>
        <time>2017-07-06T09:19:55Z</time>
      </trkpt>
      <trkpt lat="45.98297" lon="4.80119">
        <ele>228</ele>
        <time>2017-07-06T09:19:56Z</time>
      </trkpt>
      <trkpt lat="45.98295" lon="4.80113">
        <ele>228</ele>
        <time>2017-07-06T09:19:57Z</time>
      </trkpt>
      <trkpt lat="45.98292" lon="4.80107">
        <ele>228</ele>
        <time>2017-07-06T09:19:58Z</time>
      </trkpt>
      <trkpt lat="45.9829" lon="4.801">
        <ele>228</ele>
        <time>2017-07-06T09:19:59Z</time>
      </trkpt>
      <trkpt lat="45.98288" lon="4.80094">
        <ele>228</ele>
        <time>2017-07-06T09:20:00Z</time>
      </trkpt>
      <trkpt lat="45.98286" lon="4.80088">
        <ele>228</ele>
        <time>2017-07-06T09:20:01Z</time>
      </trkpt>
      <trkpt lat="45.98285" lon="4.80081">
        <ele>229</ele>
        <time>2017-07-06T09:20:02Z</time>
      </trkpt>
      <trkpt lat="45.98283" lon="4.80075">
        <ele>229</ele>
        <time>2017-07-06T09:20:03Z</time>
      </trkpt>
      <trkpt lat="45.98281" lon="4.80068">
        <ele>229</ele>
        <time>2017-07-06T09:20:04Z</time>
      </trkpt>
      <trkpt lat="45.98278" lon="4.8006">
        <ele>229</ele>
        <time>2017-07-06T09:20:05Z</time>
      </trkpt>
      <trkpt lat="45.98275" lon="4.80053">
        <ele>229</ele>
        <time>2017-07-06T09:20:06Z</time>
      </trkpt>
      <trkpt lat="45.98272" lon="4.80045">
        <ele>229</ele>
        <time>2017-07-06T09:20:07Z</time>
      </trkpt>
      <trkpt lat="45.98269" lon="4.80038">
        <ele>229</ele>
        <time>2017-07-06T09:20:08Z</time>
      </trkpt>
      <trkpt lat="45.98266" lon="4.80031">
        <ele>228</ele>
        <time>2017-07-06T09:20:09Z</time>
      </trkpt>
      <trkpt lat="45.98264" lon="4.80023">
        <ele>228</ele>
        <time>2017-07-06T09:20:10Z</time>
      </trkpt>
      <trkpt lat="45.98262" lon="4.80017">
        <ele>228</ele>
        <time>2017-07-06T09:20:11Z</time>
      </trkpt>
      <trkpt lat="45.9826" lon="4.8001">
        <ele>228</ele>
        <time>2017-07-06T09:20:12Z</time>
      </trkpt>
      <trkpt lat="45.98257" lon="4.80004">
        <ele>227</ele>
        <time>2017-07-06T09:20:13Z</time>
      </trkpt>
      <trkpt lat="45.98255" lon="4.79998">
        <ele>227</ele>
        <time>2017-07-06T09:20:14Z</time>
      </trkpt>
      <trkpt lat="45.98252" lon="4.79992">
        <ele>227</ele>
        <time>2017-07-06T09:20:15Z</time>
      </trkpt>
      <trkpt lat="45.9825" lon="4.79986">
        <ele>226</ele>
        <time>2017-07-06T09:20:16Z</time>
      </trkpt>
      <trkpt lat="45.98248" lon="4.79979">
        <ele>225</ele>
        <time>2017-07-06T09:20:17Z</time>
      </trkpt>
      <trkpt lat="45.98246" lon="4.79973">
        <ele>225</ele>
        <time>2017-07-06T09:20:18Z</time>
      </trkpt>
      <trkpt lat="45.98243" lon="4.79966">
        <ele>225</ele>
        <time>2017-07-06T09:20:19Z</time>
      </trkpt>
      <trkpt lat="45.98241" lon="4.79958">
        <ele>225</ele>
        <time>2017-07-06T09:20:20Z</time>
      </trkpt>
      <trkpt lat="45.98239" lon="4.79951">
        <ele>225</ele>
        <time>2017-07-06T09:20:21Z</time>
      </trkpt>
      <trkpt lat="45.98237" lon="4.79944">
        <ele>225</ele>
        <time>2017-07-06T09:20:22Z</time>
      </trkpt>
      <trkpt lat="45.98234" lon="4.79937">
        <ele>225</ele>
        <time>2017-07-06T09:20:23Z</time>
      </trkpt>
      <trkpt lat="45.98232" lon="4.79929">
        <ele>225</ele>
        <time>2017-07-06T09:20:24Z</time>
      </trkpt>
      <trkpt lat="45.98229" lon="4.79922">
        <ele>225</ele>
        <time>2017-07-06T09:20:25Z</time>
      </trkpt>
      <trkpt lat="45.98227" lon="4.79914">
        <ele>225</ele>
        <time>2017-07-06T09:20:26Z</time>
      </trkpt>
      <trkpt lat="45.98225" lon="4.79907">
        <ele>225</ele>
        <time>2017-07-06T09:20:27Z</time>
      </trkpt>
      <trkpt lat="45.98222" lon="4.79901">
        <ele>225</ele>
        <time>2017-07-06T09:20:28Z</time>
      </trkpt>
      <trkpt lat="45.9822" lon="4.79894">
        <ele>225</ele>
        <time>2017-07-06T09:20:29Z</time>
      </trkpt>
      <trkpt lat="45.98217" lon="4.79888">
        <ele>225</ele>
        <time>2017-07-06T09:20:30Z</time>
      </trkpt>
      <trkpt lat="45.98215" lon="4.79882">
        <ele>225</ele>
        <time>2017-07-06T09:20:31Z</time>
      </trkpt>
      <trkpt lat="45.98213" lon="4.79876">
        <ele>225</ele>
        <time>2017-07-06T09:20:32Z</time>
      </trkpt>
      <trkpt lat="45.98211" lon="4.7987">
        <ele>225</ele>
        <time>2017-07-06T09:20:33Z</time>
      </trkpt>
      <trkpt lat="45.98209" lon="4.79864">
        <ele>225</ele>
        <time>2017-07-06T09:20:34Z</time>
      </trkpt>
      <trkpt lat="45.98207" lon="4.79858">
        <ele>225</ele>
        <time>2017-07-06T09:20:35Z</time>
      </trkpt>
      <trkpt lat="45.98205" lon="4.79852">
        <ele>225</ele>
        <time>2017-07-06T09:20:36Z</time>
      </trkpt>
      <trkpt lat="45.98202" lon="4.79846">
        <ele>225</ele>
        <time>2017-07-06T09:20:37Z</time>
      </trkpt>
      <trkpt lat="45.982" lon="4.7984">
        <ele>225</ele>
        <time>2017-07-06T09:20:38Z</time>
      </trkpt>
      <trkpt lat="45.98197" lon="4.79833">
        <ele>225</ele>
        <time>2017-07-06T09:20:39Z</time>
      </trkpt>
      <trkpt lat="45.98195" lon="4.79826">
        <ele>225</ele>
        <time>2017-07-06T09:20:40Z</time>
      </trkpt>
      <trkpt lat="45.98193" lon="4.79819">
        <ele>225</ele>
        <time>2017-07-06T09:20:41Z</time>
      </trkpt>
      <trkpt lat="45.98191" lon="4.79812">
        <ele>225</ele>
        <time>2017-07-06T09:20:42Z</time>
      </trkpt>
      <trkpt lat="45.98188" lon="4.79805">
        <ele>226</ele>
        <time>2017-07-06T09:20:43Z</time>
      </trkpt>
      <trkpt lat="45.98186" lon="4.79798">
        <ele>226</ele>
        <time>2017-07-06T09:20:44Z</time>
      </trkpt>
      <trkpt lat="45.98184" lon="4.7979">
        <ele>226</ele>
        <time>2017-07-06T09:20:45Z</time>
      </trkpt>
      <trkpt lat="45.98184" lon="4.79783">
        <ele>226</ele>
        <time>2017-07-06T09:20:46Z</time>
      </trkpt>
      <trkpt lat="45.98184" lon="4.79776">
        <ele>226</ele>
        <time>2017-07-06T09:20:47Z</time>
      </trkpt>
      <trkpt lat="45.98184" lon="4.79769">
        <ele>226</ele>
        <time>2017-07-06T09:20:48Z</time>
      </trkpt>
      <trkpt lat="45.98185" lon="4.79763">
        <ele>226</ele>
        <time>2017-07-06T09:20:49Z</time>
      </trkpt>
      <trkpt lat="45.98184" lon="4.79756">
        <ele>226</ele>
        <time>2017-07-06T09:20:50Z</time>
      </trkpt>
      <trkpt lat="45.98183" lon="4.7975">
        <ele>227</ele>
        <time>2017-07-06T09:20:51Z</time>
      </trkpt>
      <trkpt lat="45.98177" lon="4.7974">
        <ele>227</ele>
        <time>2017-07-06T09:20:53Z</time>
      </trkpt>
      <trkpt lat="45.98173" lon="4.79739">
        <ele>227</ele>
        <time>2017-07-06T09:20:54Z</time>
      </trkpt>
      <trkpt lat="45.98168" lon="4.79739">
        <ele>227</ele>
        <time>2017-07-06T09:20:55Z</time>
      </trkpt>
      <trkpt lat="45.98164" lon="4.79741">
        <ele>226</ele>
        <time>2017-07-06T09:20:56Z</time>
      </trkpt>
      <trkpt lat="45.98159" lon="4.79745">
        <ele>226</ele>
        <time>2017-07-06T09:20:57Z</time>
      </trkpt>
      <trkpt lat="45.98154" lon="4.79748">
        <ele>226</ele>
        <time>2017-07-06T09:20:58Z</time>
      </trkpt>
      <trkpt lat="45.98149" lon="4.79751">
        <ele>225</ele>
        <time>2017-07-06T09:20:59Z</time>
      </trkpt>
      <trkpt lat="45.98143" lon="4.79753">
        <ele>225</ele>
        <time>2017-07-06T09:21:00Z</time>
      </trkpt>
      <trkpt lat="45.98138" lon="4.79755">
        <ele>224</ele>
        <time>2017-07-06T09:21:01Z</time>
      </trkpt>
      <trkpt lat="45.98133" lon="4.79757">
        <ele>224</ele>
        <time>2017-07-06T09:21:02Z</time>
      </trkpt>
      <trkpt lat="45.98127" lon="4.79758">
        <ele>224</ele>
        <time>2017-07-06T09:21:03Z</time>
      </trkpt>
      <trkpt lat="45.98122" lon="4.79759">
        <ele>224</ele>
        <time>2017-07-06T09:21:04Z</time>
      </trkpt>
      <trkpt lat="45.98116" lon="4.7976">
        <ele>224</ele>
        <time>2017-07-06T09:21:05Z</time>
      </trkpt>
      <trkpt lat="45.9811" lon="4.79761">
        <ele>224</ele>
        <time>2017-07-06T09:21:06Z</time>
      </trkpt>
      <trkpt lat="45.98104" lon="4.79762">
        <ele>224</ele>
        <time>2017-07-06T09:21:07Z</time>
      </trkpt>
      <trkpt lat="45.98098" lon="4.79763">
        <ele>223</ele>
        <time>2017-07-06T09:21:08Z</time>
      </trkpt>
      <trkpt lat="45.98092" lon="4.79764">
        <ele>223</ele>
        <time>2017-07-06T09:21:09Z</time>
      </trkpt>
      <trkpt lat="45.98085" lon="4.79764">
        <ele>223</ele>
        <time>2017-07-06T09:21:10Z</time>
      </trkpt>
      <trkpt lat="45.9808" lon="4.79765">
        <ele>223</ele>
        <time>2017-07-06T09:21:11Z</time>
      </trkpt>
      <trkpt lat="45.98074" lon="4.79766">
        <ele>223</ele>
        <time>2017-07-06T09:21:12Z</time>
      </trkpt>
      <trkpt lat="45.98068" lon="4.79767">
        <ele>223</ele>
        <time>2017-07-06T09:21:13Z</time>
      </trkpt>
      <trkpt lat="45.98063" lon="4.79767">
        <ele>223</ele>
        <time>2017-07-06T09:21:14Z</time>
      </trkpt>
      <trkpt lat="45.98057" lon="4.79768">
        <ele>223</ele>
        <time>2017-07-06T09:21:15Z</time>
      </trkpt>
      <trkpt lat="45.98052" lon="4.79768">
        <ele>223</ele>
        <time>2017-07-06T09:21:16Z</time>
      </trkpt>
      <trkpt lat="45.98046" lon="4.79769">
        <ele>223</ele>
        <time>2017-07-06T09:21:17Z</time>
      </trkpt>
      <trkpt lat="45.98041" lon="4.7977">
        <ele>223</ele>
        <time>2017-07-06T09:21:18Z</time>
      </trkpt>
      <trkpt lat="45.98035" lon="4.7977">
        <ele>223</ele>
        <time>2017-07-06T09:21:19Z</time>
      </trkpt>
      <trkpt lat="45.9803" lon="4.79771">
        <ele>223</ele>
        <time>2017-07-06T09:21:20Z</time>
      </trkpt>
      <trkpt lat="45.98024" lon="4.79771">
        <ele>223</ele>
        <time>2017-07-06T09:21:21Z</time>
      </trkpt>
      <trkpt lat="45.98019" lon="4.79772">
        <ele>223</ele>
        <time>2017-07-06T09:21:22Z</time>
      </trkpt>
      <trkpt lat="45.98014" lon="4.79773">
        <ele>223</ele>
        <time>2017-07-06T09:21:23Z</time>
      </trkpt>
      <trkpt lat="45.98009" lon="4.79774">
        <ele>223</ele>
        <time>2017-07-06T09:21:24Z</time>
      </trkpt>
      <trkpt lat="45.98004" lon="4.79774">
        <ele>223</ele>
        <time>2017-07-06T09:21:25Z</time>
      </trkpt>
      <trkpt lat="45.97999" lon="4.79775">
        <ele>224</ele>
        <time>2017-07-06T09:21:26Z</time>
      </trkpt>
      <trkpt lat="45.97994" lon="4.79776">
        <ele>224</ele>
        <time>2017-07-06T09:21:27Z</time>
      </trkpt>
      <trkpt lat="45.97989" lon="4.79776">
        <ele>224</ele>
        <time>2017-07-06T09:21:28Z</time>
      </trkpt>
      <trkpt lat="45.97984" lon="4.79777">
        <ele>224</ele>
        <time>2017-07-06T09:21:29Z</time>
      </trkpt>
      <trkpt lat="45.97978" lon="4.79778">
        <ele>224</ele>
        <time>2017-07-06T09:21:30Z</time>
      </trkpt>
      <trkpt lat="45.97973" lon="4.79779">
        <ele>224</ele>
        <time>2017-07-06T09:21:31Z</time>
      </trkpt>
      <trkpt lat="45.97968" lon="4.7978">
        <ele>224</ele>
        <time>2017-07-06T09:21:32Z</time>
      </trkpt>
      <trkpt lat="45.97963" lon="4.7978">
        <ele>224</ele>
        <time>2017-07-06T09:21:33Z</time>
      </trkpt>
      <trkpt lat="45.97957" lon="4.79781">
        <ele>224</ele>
        <time>2017-07-06T09:21:34Z</time>
      </trkpt>
      <trkpt lat="45.97952" lon="4.79782">
        <ele>224</ele>
        <time>2017-07-06T09:21:35Z</time>
      </trkpt>
      <trkpt lat="45.97946" lon="4.79782">
        <ele>224</ele>
        <time>2017-07-06T09:21:36Z</time>
      </trkpt>
      <trkpt lat="45.97941" lon="4.79783">
        <ele>224</ele>
        <time>2017-07-06T09:21:37Z</time>
      </trkpt>
      <trkpt lat="45.97934" lon="4.79784">
        <ele>224</ele>
        <time>2017-07-06T09:21:38Z</time>
      </trkpt>
      <trkpt lat="45.97928" lon="4.79785">
        <ele>225</ele>
        <time>2017-07-06T09:21:39Z</time>
      </trkpt>
      <trkpt lat="45.97922" lon="4.79787">
        <ele>225</ele>
        <time>2017-07-06T09:21:40Z</time>
      </trkpt>
      <trkpt lat="45.97915" lon="4.79788">
        <ele>225</ele>
        <time>2017-07-06T09:21:41Z</time>
      </trkpt>
      <trkpt lat="45.97909" lon="4.79789">
        <ele>225</ele>
        <time>2017-07-06T09:21:42Z</time>
      </trkpt>
      <trkpt lat="45.97903" lon="4.7979">
        <ele>225</ele>
        <time>2017-07-06T09:21:43Z</time>
      </trkpt>
      <trkpt lat="45.97897" lon="4.79791">
        <ele>224</ele>
        <time>2017-07-06T09:21:44Z</time>
      </trkpt>
      <trkpt lat="45.97892" lon="4.79792">
        <ele>224</ele>
        <time>2017-07-06T09:21:45Z</time>
      </trkpt>
      <trkpt lat="45.97886" lon="4.79793">
        <ele>224</ele>
        <time>2017-07-06T09:21:46Z</time>
      </trkpt>
      <trkpt lat="45.9788" lon="4.79795">
        <ele>224</ele>
        <time>2017-07-06T09:21:47Z</time>
      </trkpt>
      <trkpt lat="45.97875" lon="4.79796">
        <ele>224</ele>
        <time>2017-07-06T09:21:48Z</time>
      </trkpt>
      <trkpt lat="45.97869" lon="4.79797">
        <ele>224</ele>
        <time>2017-07-06T09:21:49Z</time>
      </trkpt>
      <trkpt lat="45.97864" lon="4.79798">
        <ele>224</ele>
        <time>2017-07-06T09:21:50Z</time>
      </trkpt>
      <trkpt lat="45.97858" lon="4.79799">
        <ele>224</ele>
        <time>2017-07-06T09:21:51Z</time>
      </trkpt>
      <trkpt lat="45.97853" lon="4.798">
        <ele>224</ele>
        <time>2017-07-06T09:21:52Z</time>
      </trkpt>
      <trkpt lat="45.97848" lon="4.79801">
        <ele>224</ele>
        <time>2017-07-06T09:21:53Z</time>
      </trkpt>
      <trkpt lat="45.97843" lon="4.79802">
        <ele>224</ele>
        <time>2017-07-06T09:21:54Z</time>
      </trkpt>
      <trkpt lat="45.97839" lon="4.79802">
        <ele>224</ele>
        <time>2017-07-06T09:21:55Z</time>
      </trkpt>
      <trkpt lat="45.97834" lon="4.79803">
        <ele>224</ele>
        <time>2017-07-06T09:21:56Z</time>
      </trkpt>
      <trkpt lat="45.97829" lon="4.79804">
        <ele>223</ele>
        <time>2017-07-06T09:21:57Z</time>
      </trkpt>
      <trkpt lat="45.97824" lon="4.79804">
        <ele>223</ele>
        <time>2017-07-06T09:21:58Z</time>
      </trkpt>
      <trkpt lat="45.97819" lon="4.79805">
        <ele>223</ele>
        <time>2017-07-06T09:21:59Z</time>
      </trkpt>
      <trkpt lat="45.97814" lon="4.79806">
        <ele>223</ele>
        <time>2017-07-06T09:22:00Z</time>
      </trkpt>
      <trkpt lat="45.97809" lon="4.79806">
        <ele>223</ele>
        <time>2017-07-06T09:22:01Z</time>
      </trkpt>
      <trkpt lat="45.97804" lon="4.79807">
        <ele>223</ele>
        <time>2017-07-06T09:22:02Z</time>
      </trkpt>
      <trkpt lat="45.97799" lon="4.79808">
        <ele>223</ele>
        <time>2017-07-06T09:22:03Z</time>
      </trkpt>
      <trkpt lat="45.97794" lon="4.7981">
        <ele>223</ele>
        <time>2017-07-06T09:22:04Z</time>
      </trkpt>
      <trkpt lat="45.97789" lon="4.79812">
        <ele>223</ele>
        <time>2017-07-06T09:22:05Z</time>
      </trkpt>
      <trkpt lat="45.97783" lon="4.79813">
        <ele>223</ele>
        <time>2017-07-06T09:22:06Z</time>
      </trkpt>
      <trkpt lat="45.97778" lon="4.79814">
        <ele>223</ele>
        <time>2017-07-06T09:22:07Z</time>
      </trkpt>
      <trkpt lat="45.97772" lon="4.79815">
        <ele>223</ele>
        <time>2017-07-06T09:22:08Z</time>
      </trkpt>
      <trkpt lat="45.97767" lon="4.79816">
        <ele>223</ele>
        <time>2017-07-06T09:22:09Z</time>
      </trkpt>
      <trkpt lat="45.97762" lon="4.79817">
        <ele>223</ele>
        <time>2017-07-06T09:22:10Z</time>
      </trkpt>
      <trkpt lat="45.97756" lon="4.79818">
        <ele>223</ele>
        <time>2017-07-06T09:22:11Z</time>
      </trkpt>
      <trkpt lat="45.9775" lon="4.79818">
        <ele>223</ele>
        <time>2017-07-06T09:22:12Z</time>
      </trkpt>
      <trkpt lat="45.97744" lon="4.79819">
        <ele>223</ele>
        <time>2017-07-06T09:22:13Z</time>
      </trkpt>
      <trkpt lat="45.97738" lon="4.7982">
        <ele>223</ele>
        <time>2017-07-06T09:22:14Z</time>
      </trkpt>
      <trkpt lat="45.97733" lon="4.7982">
        <ele>223</ele>
        <time>2017-07-06T09:22:15Z</time>
      </trkpt>
      <trkpt lat="45.97727" lon="4.79821">
        <ele>223</ele>
        <time>2017-07-06T09:22:16Z</time>
      </trkpt>
      <trkpt lat="45.97721" lon="4.79822">
        <ele>223</ele>
        <time>2017-07-06T09:22:17Z</time>
      </trkpt>
      <trkpt lat="45.97716" lon="4.79823">
        <ele>223</ele>
        <time>2017-07-06T09:22:18Z</time>
      </trkpt>
      <trkpt lat="45.9771" lon="4.79825">
        <ele>223</ele>
        <time>2017-07-06T09:22:19Z</time>
      </trkpt>
      <trkpt lat="45.97705" lon="4.79826">
        <ele>223</ele>
        <time>2017-07-06T09:22:20Z</time>
      </trkpt>
      <trkpt lat="45.977" lon="4.79827">
        <ele>223</ele>
        <time>2017-07-06T09:22:21Z</time>
      </trkpt>
      <trkpt lat="45.97695" lon="4.79828">
        <ele>223</ele>
        <time>2017-07-06T09:22:22Z</time>
      </trkpt>
      <trkpt lat="45.9769" lon="4.79829">
        <ele>223</ele>
        <time>2017-07-06T09:22:23Z</time>
      </trkpt>
      <trkpt lat="45.97684" lon="4.7983">
        <ele>223</ele>
        <time>2017-07-06T09:22:24Z</time>
      </trkpt>
      <trkpt lat="45.97679" lon="4.79832">
        <ele>223</ele>
        <time>2017-07-06T09:22:25Z</time>
      </trkpt>
      <trkpt lat="45.97674" lon="4.79833">
        <ele>222</ele>
        <time>2017-07-06T09:22:26Z</time>
      </trkpt>
      <trkpt lat="45.97669" lon="4.79834">
        <ele>222</ele>
        <time>2017-07-06T09:22:27Z</time>
      </trkpt>
      <trkpt lat="45.97664" lon="4.79836">
        <ele>222</ele>
        <time>2017-07-06T09:22:28Z</time>
      </trkpt>
      <trkpt lat="45.97659" lon="4.79837">
        <ele>221</ele>
        <time>2017-07-06T09:22:29Z</time>
      </trkpt>
      <trkpt lat="45.97653" lon="4.79839">
        <ele>221</ele>
        <time>2017-07-06T09:22:30Z</time>
      </trkpt>
      <trkpt lat="45.97648" lon="4.79841">
        <ele>221</ele>
        <time>2017-07-06T09:22:31Z</time>
      </trkpt>
      <trkpt lat="45.97643" lon="4.79843">
        <ele>221</ele>
        <time>2017-07-06T09:22:32Z</time>
      </trkpt>
      <trkpt lat="45.97638" lon="4.79845">
        <ele>221</ele>
        <time>2017-07-06T09:22:33Z</time>
      </trkpt>
      <trkpt lat="45.97634" lon="4.79846">
        <ele>221</ele>
        <time>2017-07-06T09:22:34Z</time>
      </trkpt>
      <trkpt lat="45.97629" lon="4.79847">
        <ele>221</ele>
        <time>2017-07-06T09:22:35Z</time>
      </trkpt>
      <trkpt lat="45.97624" lon="4.79848">
        <ele>221</ele>
        <time>2017-07-06T09:22:36Z</time>
      </trkpt>
      <trkpt lat="45.97619" lon="4.7985">
        <ele>221</ele>
        <time>2017-07-06T09:22:37Z</time>
      </trkpt>
      <trkpt lat="45.97614" lon="4.79851">
        <ele>221</ele>
        <time>2017-07-06T09:22:38Z</time>
      </trkpt>
      <trkpt lat="45.9761" lon="4.79853">
        <ele>221</ele>
        <time>2017-07-06T09:22:39Z</time>
      </trkpt>
      <trkpt lat="45.97605" lon="4.79855">
        <ele>221</ele>
        <time>2017-07-06T09:22:40Z</time>
      </trkpt>
      <trkpt lat="45.97601" lon="4.79857">
        <ele>221</ele>
        <time>2017-07-06T09:22:41Z</time>
      </trkpt>
      <trkpt lat="45.97596" lon="4.79859">
        <ele>221</ele>
        <time>2017-07-06T09:22:42Z</time>
      </trkpt>
      <trkpt lat="45.97592" lon="4.7986">
        <ele>221</ele>
        <time>2017-07-06T09:22:43Z</time>
      </trkpt>
      <trkpt lat="45.97587" lon="4.79862">
        <ele>221</ele>
        <time>2017-07-06T09:22:44Z</time>
      </trkpt>
      <trkpt lat="45.97582" lon="4.79864">
        <ele>222</ele>
        <time>2017-07-06T09:22:45Z</time>
      </trkpt>
      <trkpt lat="45.97578" lon="4.79866">
        <ele>222</ele>
        <time>2017-07-06T09:22:46Z</time>
      </trkpt>
      <trkpt lat="45.97573" lon="4.79868">
        <ele>222</ele>
        <time>2017-07-06T09:22:47Z</time>
      </trkpt>
      <trkpt lat="45.97569" lon="4.7987">
        <ele>222</ele>
        <time>2017-07-06T09:22:48Z</time>
      </trkpt>
      <trkpt lat="45.97564" lon="4.79872">
        <ele>222</ele>
        <time>2017-07-06T09:22:49Z</time>
      </trkpt>
      <trkpt lat="45.9756" lon="4.79873">
        <ele>222</ele>
        <time>2017-07-06T09:22:50Z</time>
      </trkpt>
      <trkpt lat="45.97555" lon="4.79875">
        <ele>222</ele>
        <time>2017-07-06T09:22:51Z</time>
      </trkpt>
      <trkpt lat="45.9755" lon="4.79877">
        <ele>222</ele>
        <time>2017-07-06T09:22:52Z</time>
      </trkpt>
      <trkpt lat="45.97545" lon="4.79878">
        <ele>222</ele>
        <time>2017-07-06T09:22:53Z</time>
      </trkpt>
      <trkpt lat="45.9754" lon="4.79879">
        <ele>222</ele>
        <time>2017-07-06T09:22:54Z</time>
      </trkpt>
      <trkpt lat="45.97534" lon="4.7988">
        <ele>222</ele>
        <time>2017-07-06T09:22:55Z</time>
      </trkpt>
      <trkpt lat="45.97528" lon="4.79881">
        <ele>222</ele>
        <time>2017-07-06T09:22:56Z</time>
      </trkpt>
      <trkpt lat="45.97522" lon="4.79883">
        <ele>222</ele>
        <time>2017-07-06T09:22:57Z</time>
      </trkpt>
      <trkpt lat="45.97516" lon="4.79884">
        <ele>222</ele>
        <time>2017-07-06T09:22:58Z</time>
      </trkpt>
      <trkpt lat="45.97509" lon="4.79885">
        <ele>221</ele>
        <time>2017-07-06T09:22:59Z</time>
      </trkpt>
      <trkpt lat="45.97503" lon="4.79886">
        <ele>221</ele>
        <time>2017-07-06T09:23:00Z</time>
      </trkpt>
      <trkpt lat="45.97496" lon="4.79887">
        <ele>221</ele>
        <time>2017-07-06T09:23:01Z</time>
      </trkpt>
      <trkpt lat="45.97489" lon="4.79888">
        <ele>221</ele>
        <time>2017-07-06T09:23:02Z</time>
      </trkpt>
      <trkpt lat="45.97481" lon="4.79888">
        <ele>221</ele>
        <time>2017-07-06T09:23:03Z</time>
      </trkpt>
      <trkpt lat="45.97474" lon="4.79888">
        <ele>221</ele>
        <time>2017-07-06T09:23:04Z</time>
      </trkpt>
      <trkpt lat="45.97467" lon="4.79888">
        <ele>221</ele>
        <time>2017-07-06T09:23:05Z</time>
      </trkpt>
      <trkpt lat="45.9746" lon="4.79887">
        <ele>221</ele>
        <time>2017-07-06T09:23:06Z</time>
      </trkpt>
      <trkpt lat="45.97453" lon="4.79887">
        <ele>221</ele>
        <time>2017-07-06T09:23:07Z</time>
      </trkpt>
      <trkpt lat="45.97446" lon="4.79887">
        <ele>220</ele>
        <time>2017-07-06T09:23:08Z</time>
      </trkpt>
      <trkpt lat="45.97439" lon="4.79887">
        <ele>220</ele>
        <time>2017-07-06T09:23:09Z</time>
      </trkpt>
      <trkpt lat="45.97433" lon="4.79888">
        <ele>220</ele>
        <time>2017-07-06T09:23:10Z</time>
      </trkpt>
      <trkpt lat="45.97426" lon="4.79888">
        <ele>220</ele>
        <time>2017-07-06T09:23:11Z</time>
      </trkpt>
      <trkpt lat="45.9742" lon="4.79889">
        <ele>220</ele>
        <time>2017-07-06T09:23:12Z</time>
      </trkpt>
      <trkpt lat="45.97413" lon="4.7989">
        <ele>218</ele>
        <time>2017-07-06T09:23:13Z</time>
      </trkpt>
      <trkpt lat="45.97407" lon="4.79892">
        <ele>218</ele>
        <time>2017-07-06T09:23:14Z</time>
      </trkpt>
      <trkpt lat="45.974" lon="4.79893">
        <ele>217</ele>
        <time>2017-07-06T09:23:15Z</time>
      </trkpt>
      <trkpt lat="45.97393" lon="4.79894">
        <ele>217</ele>
        <time>2017-07-06T09:23:16Z</time>
      </trkpt>
      <trkpt lat="45.97387" lon="4.79895">
        <ele>217</ele>
        <time>2017-07-06T09:23:17Z</time>
      </trkpt>
      <trkpt lat="45.9738" lon="4.79897">
        <ele>217</ele>
        <time>2017-07-06T09:23:18Z</time>
      </trkpt>
      <trkpt lat="45.97374" lon="4.79898">
        <ele>217</ele>
        <time>2017-07-06T09:23:19Z</time>
      </trkpt>
      <trkpt lat="45.97367" lon="4.79899">
        <ele>217</ele>
        <time>2017-07-06T09:23:20Z</time>
      </trkpt>
      <trkpt lat="45.97361" lon="4.79901">
        <ele>216</ele>
        <time>2017-07-06T09:23:21Z</time>
      </trkpt>
      <trkpt lat="45.97354" lon="4.79902">
        <ele>216</ele>
        <time>2017-07-06T09:23:22Z</time>
      </trkpt>
      <trkpt lat="45.97347" lon="4.79903">
        <ele>216</ele>
        <time>2017-07-06T09:23:23Z</time>
      </trkpt>
      <trkpt lat="45.97341" lon="4.79904">
        <ele>215</ele>
        <time>2017-07-06T09:23:24Z</time>
      </trkpt>
      <trkpt lat="45.97335" lon="4.79905">
        <ele>215</ele>
        <time>2017-07-06T09:23:25Z</time>
      </trkpt>
      <trkpt lat="45.97328" lon="4.79906">
        <ele>213</ele>
        <time>2017-07-06T09:23:26Z</time>
      </trkpt>
      <trkpt lat="45.97321" lon="4.79906">
        <ele>213</ele>
        <time>2017-07-06T09:23:27Z</time>
      </trkpt>
      <trkpt lat="45.97314" lon="4.79907">
        <ele>213</ele>
        <time>2017-07-06T09:23:28Z</time>
      </trkpt>
      <trkpt lat="45.97308" lon="4.79908">
        <ele>213</ele>
        <time>2017-07-06T09:23:29Z</time>
      </trkpt>
      <trkpt lat="45.97301" lon="4.79909">
        <ele>213</ele>
        <time>2017-07-06T09:23:30Z</time>
      </trkpt>
      <trkpt lat="45.97294" lon="4.7991">
        <ele>213</ele>
        <time>2017-07-06T09:23:31Z</time>
      </trkpt>
      <trkpt lat="45.97288" lon="4.79911">
        <ele>213</ele>
        <time>2017-07-06T09:23:32Z</time>
      </trkpt>
      <trkpt lat="45.97281" lon="4.79913">
        <ele>213</ele>
        <time>2017-07-06T09:23:33Z</time>
      </trkpt>
      <trkpt lat="45.97274" lon="4.79914">
        <ele>213</ele>
        <time>2017-07-06T09:23:34Z</time>
      </trkpt>
      <trkpt lat="45.97268" lon="4.79915">
        <ele>213</ele>
        <time>2017-07-06T09:23:35Z</time>
      </trkpt>
      <trkpt lat="45.97262" lon="4.79916">
        <ele>213</ele>
        <time>2017-07-06T09:23:36Z</time>
      </trkpt>
      <trkpt lat="45.97256" lon="4.79909">
        <ele>212</ele>
        <time>2017-07-06T09:23:38Z</time>
      </trkpt>
      <trkpt lat="45.97254" lon="4.79903">
        <ele>213</ele>
        <time>2017-07-06T09:23:39Z</time>
      </trkpt>
      <trkpt lat="45.97252" lon="4.79896">
        <ele>213</ele>
        <time>2017-07-06T09:23:40Z</time>
      </trkpt>
      <trkpt lat="45.97249" lon="4.79889">
        <ele>211</ele>
        <time>2017-07-06T09:23:41Z</time>
      </trkpt>
      <trkpt lat="45.97247" lon="4.79881">
        <ele>211</ele>
        <time>2017-07-06T09:23:42Z</time>
      </trkpt>
      <trkpt lat="45.97244" lon="4.79872">
        <ele>211</ele>
        <time>2017-07-06T09:23:43Z</time>
      </trkpt>
      <trkpt lat="45.97242" lon="4.79864">
        <ele>211</ele>
        <time>2017-07-06T09:23:44Z</time>
      </trkpt>
      <trkpt lat="45.97239" lon="4.79855">
        <ele>211</ele>
        <time>2017-07-06T09:23:45Z</time>
      </trkpt>
      <trkpt lat="45.97239" lon="4.79847">
        <ele>211</ele>
        <time>2017-07-06T09:23:46Z</time>
      </trkpt>
      <trkpt lat="45.97239" lon="4.79837">
        <ele>212</ele>
        <time>2017-07-06T09:23:47Z</time>
      </trkpt>
      <trkpt lat="45.9724" lon="4.79828">
        <ele>211</ele>
        <time>2017-07-06T09:23:48Z</time>
      </trkpt>
      <trkpt lat="45.9724" lon="4.79819">
        <ele>211</ele>
        <time>2017-07-06T09:23:49Z</time>
      </trkpt>
      <trkpt lat="45.9724" lon="4.7981">
        <ele>210</ele>
        <time>2017-07-06T09:23:50Z</time>
      </trkpt>
      <trkpt lat="45.97241" lon="4.79801">
        <ele>210</ele>
        <time>2017-07-06T09:23:51Z</time>
      </trkpt>
      <trkpt lat="45.97241" lon="4.79792">
        <ele>210</ele>
        <time>2017-07-06T09:23:52Z</time>
      </trkpt>
      <trkpt lat="45.97242" lon="4.79783">
        <ele>210</ele>
        <time>2017-07-06T09:23:53Z</time>
      </trkpt>
      <trkpt lat="45.97242" lon="4.79774">
        <ele>210</ele>
        <time>2017-07-06T09:23:54Z</time>
      </trkpt>
      <trkpt lat="45.97243" lon="4.79764">
        <ele>209</ele>
        <time>2017-07-06T09:23:55Z</time>
      </trkpt>
      <trkpt lat="45.97243" lon="4.79755">
        <ele>209</ele>
        <time>2017-07-06T09:23:56Z</time>
      </trkpt>
      <trkpt lat="45.97244" lon="4.79747">
        <ele>209</ele>
        <time>2017-07-06T09:23:57Z</time>
      </trkpt>
      <trkpt lat="45.97246" lon="4.79738">
        <ele>209</ele>
        <time>2017-07-06T09:23:58Z</time>
      </trkpt>
      <trkpt lat="45.97247" lon="4.79729">
        <ele>209</ele>
        <time>2017-07-06T09:23:59Z</time>
      </trkpt>
      <trkpt lat="45.97248" lon="4.79721">
        <ele>209</ele>
        <time>2017-07-06T09:24:00Z</time>
      </trkpt>
      <trkpt lat="45.97249" lon="4.79712">
        <ele>209</ele>
        <time>2017-07-06T09:24:01Z</time>
      </trkpt>
      <trkpt lat="45.9725" lon="4.79702">
        <ele>212</ele>
        <time>2017-07-06T09:24:02Z</time>
      </trkpt>
      <trkpt lat="45.97252" lon="4.79693">
        <ele>212</ele>
        <time>2017-07-06T09:24:03Z</time>
      </trkpt>
      <trkpt lat="45.97253" lon="4.79684">
        <ele>211</ele>
        <time>2017-07-06T09:24:04Z</time>
      </trkpt>
      <trkpt lat="45.97254" lon="4.79675">
        <ele>210</ele>
        <time>2017-07-06T09:24:05Z</time>
      </trkpt>
      <trkpt lat="45.97256" lon="4.79667">
        <ele>209</ele>
        <time>2017-07-06T09:24:06Z</time>
      </trkpt>
      <trkpt lat="45.97257" lon="4.79659">
        <ele>210</ele>
        <time>2017-07-06T09:24:07Z</time>
      </trkpt>
      <trkpt lat="45.97258" lon="4.79651">
        <ele>212</ele>
        <time>2017-07-06T09:24:08Z</time>
      </trkpt>
      <trkpt lat="45.97258" lon="4.79642">
        <ele>212</ele>
        <time>2017-07-06T09:24:09Z</time>
      </trkpt>
      <trkpt lat="45.97257" lon="4.79633">
        <ele>213</ele>
        <time>2017-07-06T09:24:10Z</time>
      </trkpt>
      <trkpt lat="45.97257" lon="4.79624">
        <ele>213</ele>
        <time>2017-07-06T09:24:11Z</time>
      </trkpt>
      <trkpt lat="45.97256" lon="4.79615">
        <ele>213</ele>
        <time>2017-07-06T09:24:12Z</time>
      </trkpt>
      <trkpt lat="45.97256" lon="4.79606">
        <ele>213</ele>
        <time>2017-07-06T09:24:13Z</time>
      </trkpt>
      <trkpt lat="45.97257" lon="4.79597">
        <ele>212</ele>
        <time>2017-07-06T09:24:14Z</time>
      </trkpt>
      <trkpt lat="45.97257" lon="4.79588">
        <ele>211</ele>
        <time>2017-07-06T09:24:15Z</time>
      </trkpt>
      <trkpt lat="45.97256" lon="4.7958">
        <ele>211</ele>
        <time>2017-07-06T09:24:16Z</time>
      </trkpt>
      <trkpt lat="45.97256" lon="4.79572">
        <ele>212</ele>
        <time>2017-07-06T09:24:17Z</time>
      </trkpt>
      <trkpt lat="45.97255" lon="4.79565">
        <ele>213</ele>
        <time>2017-07-06T09:24:18Z</time>
      </trkpt>
      <trkpt lat="45.97254" lon="4.79557">
        <ele>213</ele>
        <time>2017-07-06T09:24:19Z</time>
      </trkpt>
      <trkpt lat="45.97252" lon="4.7955">
        <ele>214</ele>
        <time>2017-07-06T09:24:20Z</time>
      </trkpt>
      <trkpt lat="45.97251" lon="4.79542">
        <ele>214</ele>
        <time>2017-07-06T09:24:21Z</time>
      </trkpt>
      <trkpt lat="45.97249" lon="4.79535">
        <ele>210</ele>
        <time>2017-07-06T09:24:22Z</time>
      </trkpt>
      <trkpt lat="45.97247" lon="4.79528">
        <ele>210</ele>
        <time>2017-07-06T09:24:23Z</time>
      </trkpt>
      <trkpt lat="45.97246" lon="4.7952">
        <ele>210</ele>
        <time>2017-07-06T09:24:24Z</time>
      </trkpt>
      <trkpt lat="45.97244" lon="4.79512">
        <ele>210</ele>
        <time>2017-07-06T09:24:25Z</time>
      </trkpt>
      <trkpt lat="45.97243" lon="4.79504">
        <ele>210</ele>
        <time>2017-07-06T09:24:26Z</time>
      </trkpt>
      <trkpt lat="45.97243" lon="4.79496">
        <ele>210</ele>
        <time>2017-07-06T09:24:27Z</time>
      </trkpt>
      <trkpt lat="45.97242" lon="4.79488">
        <ele>210</ele>
        <time>2017-07-06T09:24:28Z</time>
      </trkpt>
      <trkpt lat="45.9724" lon="4.7948">
        <ele>209</ele>
        <time>2017-07-06T09:24:29Z</time>
      </trkpt>
      <trkpt lat="45.97237" lon="4.79472">
        <ele>209</ele>
        <time>2017-07-06T09:24:30Z</time>
      </trkpt>
      <trkpt lat="45.97235" lon="4.79465">
        <ele>209</ele>
        <time>2017-07-06T09:24:31Z</time>
      </trkpt>
      <trkpt lat="45.97232" lon="4.79458">
        <ele>209</ele>
        <time>2017-07-06T09:24:32Z</time>
      </trkpt>
      <trkpt lat="45.9723" lon="4.79451">
        <ele>209</ele>
        <time>2017-07-06T09:24:33Z</time>
      </trkpt>
      <trkpt lat="45.97228" lon="4.79444">
        <ele>209</ele>
        <time>2017-07-06T09:24:34Z</time>
      </trkpt>
      <trkpt lat="45.97225" lon="4.79437">
        <ele>209</ele>
        <time>2017-07-06T09:24:35Z</time>
      </trkpt>
      <trkpt lat="45.97222" lon="4.7943">
        <ele>209</ele>
        <time>2017-07-06T09:24:36Z</time>
      </trkpt>
      <trkpt lat="45.97219" lon="4.79423">
        <ele>208</ele>
        <time>2017-07-06T09:24:37Z</time>
      </trkpt>
      <trkpt lat="45.97217" lon="4.79417">
        <ele>208</ele>
        <time>2017-07-06T09:24:38Z</time>
      </trkpt>
      <trkpt lat="45.97215" lon="4.79411">
        <ele>208</ele>
        <time>2017-07-06T09:24:39Z</time>
      </trkpt>
      <trkpt lat="45.97213" lon="4.79404">
        <ele>208</ele>
        <time>2017-07-06T09:24:40Z</time>
      </trkpt>
      <trkpt lat="45.9721" lon="4.79398">
        <ele>208</ele>
        <time>2017-07-06T09:24:41Z</time>
      </trkpt>
      <trkpt lat="45.97208" lon="4.79391">
        <ele>208</ele>
        <time>2017-07-06T09:24:42Z</time>
      </trkpt>
      <trkpt lat="45.97205" lon="4.79385">
        <ele>208</ele>
        <time>2017-07-06T09:24:43Z</time>
      </trkpt>
      <trkpt lat="45.972" lon="4.79377">
        <ele>207</ele>
        <time>2017-07-06T09:24:44Z</time>
      </trkpt>
      <trkpt lat="45.97197" lon="4.7937">
        <ele>207</ele>
        <time>2017-07-06T09:24:45Z</time>
      </trkpt>
      <trkpt lat="45.97195" lon="4.79363">
        <ele>207</ele>
        <time>2017-07-06T09:24:46Z</time>
      </trkpt>
      <trkpt lat="45.97191" lon="4.79356">
        <ele>207</ele>
        <time>2017-07-06T09:24:47Z</time>
      </trkpt>
      <trkpt lat="45.97189" lon="4.79348">
        <ele>207</ele>
        <time>2017-07-06T09:24:48Z</time>
      </trkpt>
      <trkpt lat="45.97186" lon="4.79341">
        <ele>207</ele>
        <time>2017-07-06T09:24:49Z</time>
      </trkpt>
      <trkpt lat="45.97183" lon="4.79334">
        <ele>206</ele>
        <time>2017-07-06T09:24:50Z</time>
      </trkpt>
      <trkpt lat="45.9718" lon="4.79327">
        <ele>207</ele>
        <time>2017-07-06T09:24:51Z</time>
      </trkpt>
      <trkpt lat="45.97177" lon="4.7932">
        <ele>207</ele>
        <time>2017-07-06T09:24:52Z</time>
      </trkpt>
      <trkpt lat="45.97174" lon="4.79313">
        <ele>207</ele>
        <time>2017-07-06T09:24:53Z</time>
      </trkpt>
      <trkpt lat="45.97172" lon="4.79305">
        <ele>207</ele>
        <time>2017-07-06T09:24:54Z</time>
      </trkpt>
      <trkpt lat="45.97169" lon="4.79297">
        <ele>207</ele>
        <time>2017-07-06T09:24:55Z</time>
      </trkpt>
      <trkpt lat="45.97166" lon="4.79289">
        <ele>204</ele>
        <time>2017-07-06T09:24:56Z</time>
      </trkpt>
      <trkpt lat="45.97163" lon="4.79281">
        <ele>204</ele>
        <time>2017-07-06T09:24:57Z</time>
      </trkpt>
      <trkpt lat="45.9716" lon="4.79272">
        <ele>204</ele>
        <time>2017-07-06T09:24:58Z</time>
      </trkpt>
      <trkpt lat="45.97157" lon="4.79264">
        <ele>205</ele>
        <time>2017-07-06T09:24:59Z</time>
      </trkpt>
      <trkpt lat="45.97154" lon="4.79256">
        <ele>205</ele>
        <time>2017-07-06T09:25:00Z</time>
      </trkpt>
      <trkpt lat="45.97151" lon="4.79248">
        <ele>205</ele>
        <time>2017-07-06T09:25:01Z</time>
      </trkpt>
      <trkpt lat="45.97147" lon="4.79241">
        <ele>205</ele>
        <time>2017-07-06T09:25:02Z</time>
      </trkpt>
      <trkpt lat="45.97144" lon="4.79234">
        <ele>205</ele>
        <time>2017-07-06T09:25:03Z</time>
      </trkpt>
      <trkpt lat="45.97141" lon="4.79226">
        <ele>205</ele>
        <time>2017-07-06T09:25:04Z</time>
      </trkpt>
      <trkpt lat="45.97138" lon="4.79218">
        <ele>206</ele>
        <time>2017-07-06T09:25:05Z</time>
      </trkpt>
      <trkpt lat="45.97135" lon="4.7921">
        <ele>206</ele>
        <time>2017-07-06T09:25:06Z</time>
      </trkpt>
      <trkpt lat="45.97131" lon="4.79203">
        <ele>206</ele>
        <time>2017-07-06T09:25:07Z</time>
      </trkpt>
      <trkpt lat="45.97128" lon="4.79195">
        <ele>206</ele>
        <time>2017-07-06T09:25:08Z</time>
      </trkpt>
      <trkpt lat="45.97124" lon="4.79186">
        <ele>206</ele>
        <time>2017-07-06T09:25:09Z</time>
      </trkpt>
      <trkpt lat="45.97121" lon="4.79178">
        <ele>206</ele>
        <time>2017-07-06T09:25:10Z</time>
      </trkpt>
      <trkpt lat="45.97117" lon="4.7917">
        <ele>206</ele>
        <time>2017-07-06T09:25:11Z</time>
      </trkpt>
      <trkpt lat="45.97114" lon="4.79163">
        <ele>207</ele>
        <time>2017-07-06T09:25:12Z</time>
      </trkpt>
      <trkpt lat="45.9711" lon="4.79156">
        <ele>206</ele>
        <time>2017-07-06T09:25:13Z</time>
      </trkpt>
      <trkpt lat="45.97107" lon="4.79149">
        <ele>206</ele>
        <time>2017-07-06T09:25:14Z</time>
      </trkpt>
      <trkpt lat="45.97103" lon="4.79143">
        <ele>206</ele>
        <time>2017-07-06T09:25:15Z</time>
      </trkpt>
      <trkpt lat="45.97099" lon="4.79137">
        <ele>206</ele>
        <time>2017-07-06T09:25:16Z</time>
      </trkpt>
      <trkpt lat="45.97095" lon="4.79131">
        <ele>206</ele>
        <time>2017-07-06T09:25:17Z</time>
      </trkpt>
      <trkpt lat="45.97092" lon="4.79125">
        <ele>206</ele>
        <time>2017-07-06T09:25:18Z</time>
      </trkpt>
      <trkpt lat="45.97089" lon="4.79118">
        <ele>206</ele>
        <time>2017-07-06T09:25:19Z</time>
      </trkpt>
      <trkpt lat="45.97086" lon="4.79111">
        <ele>206</ele>
        <time>2017-07-06T09:25:20Z</time>
      </trkpt>
      <trkpt lat="45.97083" lon="4.79104">
        <ele>204</ele>
        <time>2017-07-06T09:25:21Z</time>
      </trkpt>
      <trkpt lat="45.97081" lon="4.79096">
        <ele>204</ele>
        <time>2017-07-06T09:25:22Z</time>
      </trkpt>
      <trkpt lat="45.97079" lon="4.79088">
        <ele>204</ele>
        <time>2017-07-06T09:25:23Z</time>
      </trkpt>
      <trkpt lat="45.97078" lon="4.7908">
        <ele>204</ele>
        <time>2017-07-06T09:25:24Z</time>
      </trkpt>
      <trkpt lat="45.97076" lon="4.79072">
        <ele>204</ele>
        <time>2017-07-06T09:25:25Z</time>
      </trkpt>
      <trkpt lat="45.97074" lon="4.79065">
        <ele>204</ele>
        <time>2017-07-06T09:25:26Z</time>
      </trkpt>
      <trkpt lat="45.97072" lon="4.79058">
        <ele>203</ele>
        <time>2017-07-06T09:25:27Z</time>
      </trkpt>
      <trkpt lat="45.9707" lon="4.79051">
        <ele>203</ele>
        <time>2017-07-06T09:25:28Z</time>
      </trkpt>
      <trkpt lat="45.97069" lon="4.79043">
        <ele>203</ele>
        <time>2017-07-06T09:25:29Z</time>
      </trkpt>
      <trkpt lat="45.97067" lon="4.79035">
        <ele>203</ele>
        <time>2017-07-06T09:25:30Z</time>
      </trkpt>
      <trkpt lat="45.97065" lon="4.79027">
        <ele>204</ele>
        <time>2017-07-06T09:25:31Z</time>
      </trkpt>
      <trkpt lat="45.97062" lon="4.79019">
        <ele>204</ele>
        <time>2017-07-06T09:25:32Z</time>
      </trkpt>
      <trkpt lat="45.9706" lon="4.79013">
        <ele>204</ele>
        <time>2017-07-06T09:25:33Z</time>
      </trkpt>
      <trkpt lat="45.97057" lon="4.79006">
        <ele>204</ele>
        <time>2017-07-06T09:25:34Z</time>
      </trkpt>
      <trkpt lat="45.97055" lon="4.79">
        <ele>205</ele>
        <time>2017-07-06T09:25:35Z</time>
      </trkpt>
      <trkpt lat="45.97052" lon="4.78993">
        <ele>205</ele>
        <time>2017-07-06T09:25:36Z</time>
      </trkpt>
      <trkpt lat="45.9705" lon="4.78986">
        <ele>205</ele>
        <time>2017-07-06T09:25:37Z</time>
      </trkpt>
      <trkpt lat="45.97047" lon="4.78979">
        <ele>205</ele>
        <time>2017-07-06T09:25:38Z</time>
      </trkpt>
      <trkpt lat="45.97043" lon="4.78972">
        <ele>205</ele>
        <time>2017-07-06T09:25:39Z</time>
      </trkpt>
      <trkpt lat="45.9704" lon="4.78965">
        <ele>205</ele>
        <time>2017-07-06T09:25:40Z</time>
      </trkpt>
      <trkpt lat="45.97036" lon="4.78958">
        <ele>205</ele>
        <time>2017-07-06T09:25:41Z</time>
      </trkpt>
      <trkpt lat="45.97033" lon="4.78951">
        <ele>205</ele>
        <time>2017-07-06T09:25:42Z</time>
      </trkpt>
      <trkpt lat="45.97029" lon="4.78945">
        <ele>205</ele>
        <time>2017-07-06T09:25:43Z</time>
      </trkpt>
      <trkpt lat="45.97026" lon="4.78938">
        <ele>205</ele>
        <time>2017-07-06T09:25:44Z</time>
      </trkpt>
      <trkpt lat="45.97022" lon="4.78933">
        <ele>205</ele>
        <time>2017-07-06T09:25:45Z</time>
      </trkpt>
      <trkpt lat="45.97018" lon="4.78926">
        <ele>205</ele>
        <time>2017-07-06T09:25:46Z</time>
      </trkpt>
      <trkpt lat="45.97014" lon="4.7892">
        <ele>205</ele>
        <time>2017-07-06T09:25:47Z</time>
      </trkpt>
      <trkpt lat="45.9701" lon="4.78914">
        <ele>205</ele>
        <time>2017-07-06T09:25:48Z</time>
      </trkpt>
      <trkpt lat="45.97005" lon="4.78908">
        <ele>205</ele>
        <time>2017-07-06T09:25:49Z</time>
      </trkpt>
      <trkpt lat="45.97001" lon="4.78902">
        <ele>206</ele>
        <time>2017-07-06T09:25:50Z</time>
      </trkpt>
      <trkpt lat="45.96996" lon="4.78897">
        <ele>203</ele>
        <time>2017-07-06T09:25:51Z</time>
      </trkpt>
      <trkpt lat="45.96992" lon="4.78891">
        <ele>203</ele>
        <time>2017-07-06T09:25:52Z</time>
      </trkpt>
      <trkpt lat="45.96987" lon="4.78885">
        <ele>203</ele>
        <time>2017-07-06T09:25:53Z</time>
      </trkpt>
      <trkpt lat="45.96983" lon="4.7888">
        <ele>203</ele>
        <time>2017-07-06T09:25:54Z</time>
      </trkpt>
      <trkpt lat="45.96978" lon="4.78875">
        <ele>203</ele>
        <time>2017-07-06T09:25:55Z</time>
      </trkpt>
      <trkpt lat="45.96973" lon="4.78869">
        <ele>203</ele>
        <time>2017-07-06T09:25:56Z</time>
      </trkpt>
      <trkpt lat="45.96968" lon="4.78864">
        <ele>203</ele>
        <time>2017-07-06T09:25:57Z</time>
      </trkpt>
      <trkpt lat="45.96963" lon="4.78858">
        <ele>203</ele>
        <time>2017-07-06T09:25:58Z</time>
      </trkpt>
      <trkpt lat="45.96958" lon="4.78852">
        <ele>203</ele>
        <time>2017-07-06T09:25:59Z</time>
      </trkpt>
      <trkpt lat="45.96953" lon="4.78846">
        <ele>203</ele>
        <time>2017-07-06T09:26:00Z</time>
      </trkpt>
      <trkpt lat="45.96948" lon="4.7884">
        <ele>202</ele>
        <time>2017-07-06T09:26:01Z</time>
      </trkpt>
      <trkpt lat="45.96943" lon="4.78834">
        <ele>202</ele>
        <time>2017-07-06T09:26:02Z</time>
      </trkpt>
      <trkpt lat="45.96939" lon="4.78828">
        <ele>202</ele>
        <time>2017-07-06T09:26:03Z</time>
      </trkpt>
      <trkpt lat="45.96935" lon="4.78822">
        <ele>202</ele>
        <time>2017-07-06T09:26:04Z</time>
      </trkpt>
      <trkpt lat="45.96931" lon="4.78816">
        <ele>202</ele>
        <time>2017-07-06T09:26:05Z</time>
      </trkpt>
      <trkpt lat="45.96926" lon="4.7881">
        <ele>203</ele>
        <time>2017-07-06T09:26:06Z</time>
      </trkpt>
      <trkpt lat="45.96923" lon="4.78803">
        <ele>203</ele>
        <time>2017-07-06T09:26:07Z</time>
      </trkpt>
      <trkpt lat="45.96919" lon="4.78797">
        <ele>203</ele>
        <time>2017-07-06T09:26:08Z</time>
      </trkpt>
      <trkpt lat="45.96916" lon="4.7879">
        <ele>201</ele>
        <time>2017-07-06T09:26:09Z</time>
      </trkpt>
      <trkpt lat="45.96912" lon="4.78782">
        <ele>201</ele>
        <time>2017-07-06T09:26:10Z</time>
      </trkpt>
      <trkpt lat="45.96908" lon="4.78774">
        <ele>201</ele>
        <time>2017-07-06T09:26:11Z</time>
      </trkpt>
      <trkpt lat="45.96904" lon="4.78767">
        <ele>201</ele>
        <time>2017-07-06T09:26:12Z</time>
      </trkpt>
      <trkpt lat="45.96901" lon="4.78759">
        <ele>202</ele>
        <time>2017-07-06T09:26:13Z</time>
      </trkpt>
      <trkpt lat="45.96897" lon="4.78751">
        <ele>202</ele>
        <time>2017-07-06T09:26:14Z</time>
      </trkpt>
      <trkpt lat="45.96894" lon="4.78744">
        <ele>202</ele>
        <time>2017-07-06T09:26:15Z</time>
      </trkpt>
      <trkpt lat="45.96891" lon="4.78737">
        <ele>202</ele>
        <time>2017-07-06T09:26:16Z</time>
      </trkpt>
      <trkpt lat="45.96887" lon="4.78729">
        <ele>202</ele>
        <time>2017-07-06T09:26:17Z</time>
      </trkpt>
      <trkpt lat="45.96884" lon="4.78722">
        <ele>202</ele>
        <time>2017-07-06T09:26:18Z</time>
      </trkpt>
      <trkpt lat="45.96881" lon="4.78715">
        <ele>202</ele>
        <time>2017-07-06T09:26:19Z</time>
      </trkpt>
      <trkpt lat="45.96877" lon="4.78709">
        <ele>202</ele>
        <time>2017-07-06T09:26:20Z</time>
      </trkpt>
      <trkpt lat="45.96874" lon="4.78702">
        <ele>202</ele>
        <time>2017-07-06T09:26:21Z</time>
      </trkpt>
      <trkpt lat="45.96871" lon="4.78696">
        <ele>202</ele>
        <time>2017-07-06T09:26:22Z</time>
      </trkpt>
      <trkpt lat="45.96868" lon="4.78689">
        <ele>202</ele>
        <time>2017-07-06T09:26:23Z</time>
      </trkpt>
      <trkpt lat="45.96864" lon="4.78682">
        <ele>202</ele>
        <time>2017-07-06T09:26:24Z</time>
      </trkpt>
      <trkpt lat="45.96861" lon="4.78676">
        <ele>202</ele>
        <time>2017-07-06T09:26:25Z</time>
      </trkpt>
      <trkpt lat="45.96858" lon="4.78669">
        <ele>202</ele>
        <time>2017-07-06T09:26:26Z</time>
      </trkpt>
      <trkpt lat="45.96854" lon="4.78662">
        <ele>203</ele>
        <time>2017-07-06T09:26:27Z</time>
      </trkpt>
      <trkpt lat="45.9685" lon="4.78654">
        <ele>203</ele>
        <time>2017-07-06T09:26:28Z</time>
      </trkpt>
      <trkpt lat="45.96846" lon="4.78647">
        <ele>203</ele>
        <time>2017-07-06T09:26:29Z</time>
      </trkpt>
      <trkpt lat="45.96843" lon="4.7864">
        <ele>203</ele>
        <time>2017-07-06T09:26:30Z</time>
      </trkpt>
      <trkpt lat="45.96839" lon="4.78632">
        <ele>203</ele>
        <time>2017-07-06T09:26:31Z</time>
      </trkpt>
      <trkpt lat="45.96837" lon="4.78625">
        <ele>203</ele>
        <time>2017-07-06T09:26:32Z</time>
      </trkpt>
      <trkpt lat="45.96835" lon="4.78617">
        <ele>203</ele>
        <time>2017-07-06T09:26:33Z</time>
      </trkpt>
      <trkpt lat="45.96832" lon="4.7861">
        <ele>202</ele>
        <time>2017-07-06T09:26:34Z</time>
      </trkpt>
      <trkpt lat="45.9683" lon="4.78604">
        <ele>202</ele>
        <time>2017-07-06T09:26:35Z</time>
      </trkpt>
      <trkpt lat="45.96827" lon="4.78597">
        <ele>202</ele>
        <time>2017-07-06T09:26:36Z</time>
      </trkpt>
      <trkpt lat="45.96825" lon="4.78591">
        <ele>202</ele>
        <time>2017-07-06T09:26:37Z</time>
      </trkpt>
      <trkpt lat="45.96822" lon="4.78584">
        <ele>202</ele>
        <time>2017-07-06T09:26:38Z</time>
      </trkpt>
      <trkpt lat="45.96819" lon="4.78579">
        <ele>203</ele>
        <time>2017-07-06T09:26:39Z</time>
      </trkpt>
      <trkpt lat="45.96815" lon="4.78573">
        <ele>203</ele>
        <time>2017-07-06T09:26:40Z</time>
      </trkpt>
      <trkpt lat="45.96812" lon="4.78568">
        <ele>203</ele>
        <time>2017-07-06T09:26:41Z</time>
      </trkpt>
      <trkpt lat="45.96809" lon="4.78563">
        <ele>203</ele>
        <time>2017-07-06T09:26:42Z</time>
      </trkpt>
      <trkpt lat="45.96805" lon="4.78557">
        <ele>203</ele>
        <time>2017-07-06T09:26:43Z</time>
      </trkpt>
      <trkpt lat="45.96801" lon="4.78551">
        <ele>203</ele>
        <time>2017-07-06T09:26:44Z</time>
      </trkpt>
      <trkpt lat="45.96797" lon="4.78543">
        <ele>203</ele>
        <time>2017-07-06T09:26:45Z</time>
      </trkpt>
      <trkpt lat="45.96793" lon="4.78537">
        <ele>203</ele>
        <time>2017-07-06T09:26:46Z</time>
      </trkpt>
      <trkpt lat="45.96788" lon="4.7853">
        <ele>203</ele>
        <time>2017-07-06T09:26:47Z</time>
      </trkpt>
      <trkpt lat="45.96784" lon="4.78524">
        <ele>203</ele>
        <time>2017-07-06T09:26:48Z</time>
      </trkpt>
      <trkpt lat="45.96779" lon="4.78517">
        <ele>203</ele>
        <time>2017-07-06T09:26:49Z</time>
      </trkpt>
      <trkpt lat="45.96775" lon="4.78511">
        <ele>203</ele>
        <time>2017-07-06T09:26:50Z</time>
      </trkpt>
      <trkpt lat="45.96771" lon="4.78504">
        <ele>203</ele>
        <time>2017-07-06T09:26:51Z</time>
      </trkpt>
      <trkpt lat="45.96767" lon="4.78498">
        <ele>205</ele>
        <time>2017-07-06T09:26:52Z</time>
      </trkpt>
      <trkpt lat="45.96762" lon="4.78493">
        <ele>204</ele>
        <time>2017-07-06T09:26:53Z</time>
      </trkpt>
      <trkpt lat="45.96757" lon="4.78486">
        <ele>205</ele>
        <time>2017-07-06T09:26:54Z</time>
      </trkpt>
      <trkpt lat="45.96752" lon="4.7848">
        <ele>205</ele>
        <time>2017-07-06T09:26:55Z</time>
      </trkpt>
      <trkpt lat="45.96747" lon="4.78474">
        <ele>203</ele>
        <time>2017-07-06T09:26:56Z</time>
      </trkpt>
      <trkpt lat="45.96741" lon="4.78468">
        <ele>203</ele>
        <time>2017-07-06T09:26:57Z</time>
      </trkpt>
      <trkpt lat="45.96735" lon="4.78463">
        <ele>203</ele>
        <time>2017-07-06T09:26:58Z</time>
      </trkpt>
      <trkpt lat="45.9673" lon="4.78458">
        <ele>203</ele>
        <time>2017-07-06T09:26:59Z</time>
      </trkpt>
      <trkpt lat="45.96725" lon="4.78453">
        <ele>203</ele>
        <time>2017-07-06T09:27:00Z</time>
      </trkpt>
      <trkpt lat="45.9672" lon="4.78448">
        <ele>203</ele>
        <time>2017-07-06T09:27:01Z</time>
      </trkpt>
      <trkpt lat="45.96715" lon="4.78444">
        <ele>203</ele>
        <time>2017-07-06T09:27:02Z</time>
      </trkpt>
      <trkpt lat="45.96711" lon="4.7844">
        <ele>203</ele>
        <time>2017-07-06T09:27:03Z</time>
      </trkpt>
      <trkpt lat="45.96707" lon="4.78436">
        <ele>203</ele>
        <time>2017-07-06T09:27:04Z</time>
      </trkpt>
      <trkpt lat="45.96703" lon="4.7843">
        <ele>203</ele>
        <time>2017-07-06T09:27:05Z</time>
      </trkpt>
      <trkpt lat="45.96699" lon="4.78424">
        <ele>203</ele>
        <time>2017-07-06T09:27:06Z</time>
      </trkpt>
      <trkpt lat="45.96695" lon="4.78419">
        <ele>202</ele>
        <time>2017-07-06T09:27:07Z</time>
      </trkpt>
      <trkpt lat="45.96691" lon="4.78415">
        <ele>204</ele>
        <time>2017-07-06T09:27:08Z</time>
      </trkpt>
      <trkpt lat="45.96686" lon="4.7841">
        <ele>204</ele>
        <time>2017-07-06T09:27:09Z</time>
      </trkpt>
      <trkpt lat="45.96682" lon="4.78405">
        <ele>204</ele>
        <time>2017-07-06T09:27:10Z</time>
      </trkpt>
      <trkpt lat="45.96677" lon="4.78401">
        <ele>204</ele>
        <time>2017-07-06T09:27:11Z</time>
      </trkpt>
      <trkpt lat="45.96672" lon="4.78397">
        <ele>204</ele>
        <time>2017-07-06T09:27:12Z</time>
      </trkpt>
      <trkpt lat="45.96668" lon="4.78391">
        <ele>205</ele>
        <time>2017-07-06T09:27:13Z</time>
      </trkpt>
      <trkpt lat="45.96664" lon="4.78387">
        <ele>201</ele>
        <time>2017-07-06T09:27:14Z</time>
      </trkpt>
      <trkpt lat="45.96659" lon="4.78382">
        <ele>201</ele>
        <time>2017-07-06T09:27:15Z</time>
      </trkpt>
      <trkpt lat="45.96655" lon="4.78378">
        <ele>201</ele>
        <time>2017-07-06T09:27:16Z</time>
      </trkpt>
      <trkpt lat="45.9665" lon="4.78374">
        <ele>202</ele>
        <time>2017-07-06T09:27:17Z</time>
      </trkpt>
      <trkpt lat="45.96646" lon="4.7837">
        <ele>202</ele>
        <time>2017-07-06T09:27:18Z</time>
      </trkpt>
      <trkpt lat="45.96642" lon="4.78366">
        <ele>202</ele>
        <time>2017-07-06T09:27:19Z</time>
      </trkpt>
      <trkpt lat="45.96637" lon="4.78362">
        <ele>201</ele>
        <time>2017-07-06T09:27:20Z</time>
      </trkpt>
      <trkpt lat="45.96632" lon="4.78357">
        <ele>201</ele>
        <time>2017-07-06T09:27:21Z</time>
      </trkpt>
      <trkpt lat="45.96626" lon="4.78352">
        <ele>201</ele>
        <time>2017-07-06T09:27:22Z</time>
      </trkpt>
      <trkpt lat="45.96621" lon="4.78347">
        <ele>201</ele>
        <time>2017-07-06T09:27:23Z</time>
      </trkpt>
      <trkpt lat="45.96615" lon="4.78342">
        <ele>201</ele>
        <time>2017-07-06T09:27:24Z</time>
      </trkpt>
      <trkpt lat="45.96609" lon="4.78336">
        <ele>200</ele>
        <time>2017-07-06T09:27:25Z</time>
      </trkpt>
      <trkpt lat="45.96603" lon="4.7833">
        <ele>203</ele>
        <time>2017-07-06T09:27:26Z</time>
      </trkpt>
      <trkpt lat="45.96597" lon="4.78325">
        <ele>202</ele>
        <time>2017-07-06T09:27:27Z</time>
      </trkpt>
      <trkpt lat="45.96592" lon="4.78319">
        <ele>202</ele>
        <time>2017-07-06T09:27:28Z</time>
      </trkpt>
      <trkpt lat="45.96586" lon="4.78314">
        <ele>203</ele>
        <time>2017-07-06T09:27:29Z</time>
      </trkpt>
      <trkpt lat="45.96581" lon="4.78308">
        <ele>200</ele>
        <time>2017-07-06T09:27:30Z</time>
      </trkpt>
      <trkpt lat="45.96575" lon="4.78303">
        <ele>200</ele>
        <time>2017-07-06T09:27:31Z</time>
      </trkpt>
      <trkpt lat="45.9657" lon="4.78297">
        <ele>200</ele>
        <time>2017-07-06T09:27:32Z</time>
      </trkpt>
      <trkpt lat="45.96565" lon="4.78292">
        <ele>200</ele>
        <time>2017-07-06T09:27:33Z</time>
      </trkpt>
      <trkpt lat="45.9656" lon="4.78287">
        <ele>200</ele>
        <time>2017-07-06T09:27:34Z</time>
      </trkpt>
      <trkpt lat="45.96556" lon="4.78282">
        <ele>200</ele>
        <time>2017-07-06T09:27:35Z</time>
      </trkpt>
      <trkpt lat="45.96552" lon="4.78276">
        <ele>200</ele>
        <time>2017-07-06T09:27:36Z</time>
      </trkpt>
      <trkpt lat="45.96547" lon="4.7827">
        <ele>200</ele>
        <time>2017-07-06T09:27:37Z</time>
      </trkpt>
      <trkpt lat="45.96543" lon="4.78264">
        <ele>200</ele>
        <time>2017-07-06T09:27:38Z</time>
      </trkpt>
      <trkpt lat="45.96539" lon="4.78258">
        <ele>200</ele>
        <time>2017-07-06T09:27:39Z</time>
      </trkpt>
      <trkpt lat="45.96535" lon="4.78251">
        <ele>200</ele>
        <time>2017-07-06T09:27:40Z</time>
      </trkpt>
      <trkpt lat="45.96531" lon="4.78245">
        <ele>204</ele>
        <time>2017-07-06T09:27:41Z</time>
      </trkpt>
      <trkpt lat="45.96527" lon="4.78238">
        <ele>204</ele>
        <time>2017-07-06T09:27:42Z</time>
      </trkpt>
      <trkpt lat="45.96524" lon="4.78232">
        <ele>204</ele>
        <time>2017-07-06T09:27:43Z</time>
      </trkpt>
      <trkpt lat="45.96521" lon="4.78226">
        <ele>204</ele>
        <time>2017-07-06T09:27:44Z</time>
      </trkpt>
      <trkpt lat="45.96518" lon="4.7822">
        <ele>205</ele>
        <time>2017-07-06T09:27:45Z</time>
      </trkpt>
      <trkpt lat="45.96514" lon="4.78214">
        <ele>205</ele>
        <time>2017-07-06T09:27:46Z</time>
      </trkpt>
      <trkpt lat="45.9651" lon="4.78208">
        <ele>205</ele>
        <time>2017-07-06T09:27:47Z</time>
      </trkpt>
      <trkpt lat="45.96505" lon="4.78202">
        <ele>205</ele>
        <time>2017-07-06T09:27:48Z</time>
      </trkpt>
      <trkpt lat="45.965" lon="4.78198">
        <ele>201</ele>
        <time>2017-07-06T09:27:49Z</time>
      </trkpt>
      <trkpt lat="45.96494" lon="4.78195">
        <ele>201</ele>
        <time>2017-07-06T09:27:50Z</time>
      </trkpt>
      <trkpt lat="45.96489" lon="4.78193">
        <ele>201</ele>
        <time>2017-07-06T09:27:51Z</time>
      </trkpt>
      <trkpt lat="45.96483" lon="4.7819">
        <ele>201</ele>
        <time>2017-07-06T09:27:52Z</time>
      </trkpt>
      <trkpt lat="45.96477" lon="4.78187">
        <ele>201</ele>
        <time>2017-07-06T09:27:53Z</time>
      </trkpt>
      <trkpt lat="45.96472" lon="4.78184">
        <ele>200</ele>
        <time>2017-07-06T09:27:54Z</time>
      </trkpt>
      <trkpt lat="45.96467" lon="4.78179">
        <ele>200</ele>
        <time>2017-07-06T09:27:55Z</time>
      </trkpt>
      <trkpt lat="45.96462" lon="4.78174">
        <ele>200</ele>
        <time>2017-07-06T09:27:56Z</time>
      </trkpt>
      <trkpt lat="45.96456" lon="4.78169">
        <ele>200</ele>
        <time>2017-07-06T09:27:57Z</time>
      </trkpt>
      <trkpt lat="45.9645" lon="4.78164">
        <ele>204</ele>
        <time>2017-07-06T09:27:58Z</time>
      </trkpt>
      <trkpt lat="45.96445" lon="4.78159">
        <ele>203</ele>
        <time>2017-07-06T09:27:59Z</time>
      </trkpt>
      <trkpt lat="45.96439" lon="4.78153">
        <ele>203</ele>
        <time>2017-07-06T09:28:00Z</time>
      </trkpt>
      <trkpt lat="45.96435" lon="4.78149">
        <ele>203</ele>
        <time>2017-07-06T09:28:01Z</time>
      </trkpt>
      <trkpt lat="45.9643" lon="4.78144">
        <ele>203</ele>
        <time>2017-07-06T09:28:02Z</time>
      </trkpt>
      <trkpt lat="45.96425" lon="4.78139">
        <ele>203</ele>
        <time>2017-07-06T09:28:03Z</time>
      </trkpt>
      <trkpt lat="45.96421" lon="4.78135">
        <ele>203</ele>
        <time>2017-07-06T09:28:04Z</time>
      </trkpt>
      <trkpt lat="45.96416" lon="4.78131">
        <ele>199</ele>
        <time>2017-07-06T09:28:05Z</time>
      </trkpt>
      <trkpt lat="45.96411" lon="4.78127">
        <ele>200</ele>
        <time>2017-07-06T09:28:06Z</time>
      </trkpt>
      <trkpt lat="45.96406" lon="4.78123">
        <ele>200</ele>
        <time>2017-07-06T09:28:07Z</time>
      </trkpt>
      <trkpt lat="45.96401" lon="4.78119">
        <ele>200</ele>
        <time>2017-07-06T09:28:08Z</time>
      </trkpt>
      <trkpt lat="45.96397" lon="4.78114">
        <ele>200</ele>
        <time>2017-07-06T09:28:09Z</time>
      </trkpt>
      <trkpt lat="45.96393" lon="4.78109">
        <ele>200</ele>
        <time>2017-07-06T09:28:10Z</time>
      </trkpt>
      <trkpt lat="45.96389" lon="4.78105">
        <ele>200</ele>
        <time>2017-07-06T09:28:11Z</time>
      </trkpt>
      <trkpt lat="45.96385" lon="4.78101">
        <ele>200</ele>
        <time>2017-07-06T09:28:12Z</time>
      </trkpt>
      <trkpt lat="45.96381" lon="4.78098">
        <ele>200</ele>
        <time>2017-07-06T09:28:13Z</time>
      </trkpt>
      <trkpt lat="45.96375" lon="4.78094">
        <ele>200</ele>
        <time>2017-07-06T09:28:14Z</time>
      </trkpt>
      <trkpt lat="45.96371" lon="4.78089">
        <ele>199</ele>
        <time>2017-07-06T09:28:15Z</time>
      </trkpt>
      <trkpt lat="45.96366" lon="4.78085">
        <ele>199</ele>
        <time>2017-07-06T09:28:16Z</time>
      </trkpt>
      <trkpt lat="45.96363" lon="4.78082">
        <ele>202</ele>
        <time>2017-07-06T09:28:17Z</time>
      </trkpt>
      <trkpt lat="45.96358" lon="4.78077">
        <ele>202</ele>
        <time>2017-07-06T09:28:18Z</time>
      </trkpt>
      <trkpt lat="45.96353" lon="4.78072">
        <ele>202</ele>
        <time>2017-07-06T09:28:19Z</time>
      </trkpt>
      <trkpt lat="45.96349" lon="4.78066">
        <ele>202</ele>
        <time>2017-07-06T09:28:20Z</time>
      </trkpt>
      <trkpt lat="45.96345" lon="4.78061">
        <ele>202</ele>
        <time>2017-07-06T09:28:21Z</time>
      </trkpt>
      <trkpt lat="45.96341" lon="4.78055">
        <ele>202</ele>
        <time>2017-07-06T09:28:22Z</time>
      </trkpt>
      <trkpt lat="45.96338" lon="4.7805">
        <ele>203</ele>
        <time>2017-07-06T09:28:23Z</time>
      </trkpt>
      <trkpt lat="45.96334" lon="4.78044">
        <ele>203</ele>
        <time>2017-07-06T09:28:24Z</time>
      </trkpt>
      <trkpt lat="45.9633" lon="4.78039">
        <ele>200</ele>
        <time>2017-07-06T09:28:25Z</time>
      </trkpt>
      <trkpt lat="45.96326" lon="4.78034">
        <ele>200</ele>
        <time>2017-07-06T09:28:26Z</time>
      </trkpt>
      <trkpt lat="45.96322" lon="4.78029">
        <ele>200</ele>
        <time>2017-07-06T09:28:27Z</time>
      </trkpt>
      <trkpt lat="45.96317" lon="4.78023">
        <ele>200</ele>
        <time>2017-07-06T09:28:28Z</time>
      </trkpt>
      <trkpt lat="45.96312" lon="4.78018">
        <ele>200</ele>
        <time>2017-07-06T09:28:29Z</time>
      </trkpt>
      <trkpt lat="45.96307" lon="4.78012">
        <ele>200</ele>
        <time>2017-07-06T09:28:30Z</time>
      </trkpt>
      <trkpt lat="45.96302" lon="4.78007">
        <ele>200</ele>
        <time>2017-07-06T09:28:31Z</time>
      </trkpt>
      <trkpt lat="45.96297" lon="4.78002">
        <ele>200</ele>
        <time>2017-07-06T09:28:32Z</time>
      </trkpt>
      <trkpt lat="45.96292" lon="4.77997">
        <ele>204</ele>
        <time>2017-07-06T09:28:33Z</time>
      </trkpt>
      <trkpt lat="45.96287" lon="4.77993">
        <ele>204</ele>
        <time>2017-07-06T09:28:34Z</time>
      </trkpt>
      <trkpt lat="45.96282" lon="4.77989">
        <ele>204</ele>
        <time>2017-07-06T09:28:35Z</time>
      </trkpt>
      <trkpt lat="45.96277" lon="4.77984">
        <ele>203</ele>
        <time>2017-07-06T09:28:36Z</time>
      </trkpt>
      <trkpt lat="45.96273" lon="4.77979">
        <ele>203</ele>
        <time>2017-07-06T09:28:37Z</time>
      </trkpt>
      <trkpt lat="45.96267" lon="4.77975">
        <ele>203</ele>
        <time>2017-07-06T09:28:38Z</time>
      </trkpt>
      <trkpt lat="45.96263" lon="4.7797">
        <ele>204</ele>
        <time>2017-07-06T09:28:39Z</time>
      </trkpt>
      <trkpt lat="45.96258" lon="4.77965">
        <ele>204</ele>
        <time>2017-07-06T09:28:40Z</time>
      </trkpt>
      <trkpt lat="45.96253" lon="4.7796">
        <ele>205</ele>
        <time>2017-07-06T09:28:41Z</time>
      </trkpt>
      <trkpt lat="45.96248" lon="4.77954">
        <ele>200</ele>
        <time>2017-07-06T09:28:42Z</time>
      </trkpt>
      <trkpt lat="45.96244" lon="4.77949">
        <ele>200</ele>
        <time>2017-07-06T09:28:43Z</time>
      </trkpt>
      <trkpt lat="45.9624" lon="4.77944">
        <ele>201</ele>
        <time>2017-07-06T09:28:44Z</time>
      </trkpt>
      <trkpt lat="45.96236" lon="4.77938">
        <ele>201</ele>
        <time>2017-07-06T09:28:45Z</time>
      </trkpt>
      <trkpt lat="45.96232" lon="4.77931">
        <ele>201</ele>
        <time>2017-07-06T09:28:46Z</time>
      </trkpt>
      <trkpt lat="45.96227" lon="4.77925">
        <ele>201</ele>
        <time>2017-07-06T09:28:47Z</time>
      </trkpt>
      <trkpt lat="45.96222" lon="4.77919">
        <ele>201</ele>
        <time>2017-07-06T09:28:48Z</time>
      </trkpt>
      <trkpt lat="45.96218" lon="4.77914">
        <ele>203</ele>
        <time>2017-07-06T09:28:49Z</time>
      </trkpt>
      <trkpt lat="45.96214" lon="4.77907">
        <ele>203</ele>
        <time>2017-07-06T09:28:50Z</time>
      </trkpt>
      <trkpt lat="45.96209" lon="4.77901">
        <ele>203</ele>
        <time>2017-07-06T09:28:51Z</time>
      </trkpt>
      <trkpt lat="45.96206" lon="4.77895">
        <ele>202</ele>
        <time>2017-07-06T09:28:52Z</time>
      </trkpt>
      <trkpt lat="45.96201" lon="4.77887">
        <ele>202</ele>
        <time>2017-07-06T09:28:53Z</time>
      </trkpt>
      <trkpt lat="45.96196" lon="4.7788">
        <ele>202</ele>
        <time>2017-07-06T09:28:54Z</time>
      </trkpt>
      <trkpt lat="45.96192" lon="4.77874">
        <ele>202</ele>
        <time>2017-07-06T09:28:55Z</time>
      </trkpt>
      <trkpt lat="45.96189" lon="4.77868">
        <ele>202</ele>
        <time>2017-07-06T09:28:56Z</time>
      </trkpt>
      <trkpt lat="45.96185" lon="4.77862">
        <ele>202</ele>
        <time>2017-07-06T09:28:57Z</time>
      </trkpt>
      <trkpt lat="45.96181" lon="4.77856">
        <ele>201</ele>
        <time>2017-07-06T09:28:58Z</time>
      </trkpt>
      <trkpt lat="45.96177" lon="4.7785">
        <ele>201</ele>
        <time>2017-07-06T09:28:59Z</time>
      </trkpt>
      <trkpt lat="45.96172" lon="4.77843">
        <ele>200</ele>
        <time>2017-07-06T09:29:00Z</time>
      </trkpt>
      <trkpt lat="45.96168" lon="4.77837">
        <ele>200</ele>
        <time>2017-07-06T09:29:01Z</time>
      </trkpt>
      <trkpt lat="45.96164" lon="4.7783">
        <ele>199</ele>
        <time>2017-07-06T09:29:02Z</time>
      </trkpt>
      <trkpt lat="45.9616" lon="4.77824">
        <ele>198</ele>
        <time>2017-07-06T09:29:03Z</time>
      </trkpt>
      <trkpt lat="45.96156" lon="4.77817">
        <ele>198</ele>
        <time>2017-07-06T09:29:04Z</time>
      </trkpt>
      <trkpt lat="45.96153" lon="4.77811">
        <ele>198</ele>
        <time>2017-07-06T09:29:05Z</time>
      </trkpt>
      <trkpt lat="45.96149" lon="4.77804">
        <ele>198</ele>
        <time>2017-07-06T09:29:06Z</time>
      </trkpt>
      <trkpt lat="45.96146" lon="4.77799">
        <ele>198</ele>
        <time>2017-07-06T09:29:07Z</time>
      </trkpt>
      <trkpt lat="45.96142" lon="4.77793">
        <ele>198</ele>
        <time>2017-07-06T09:29:08Z</time>
      </trkpt>
      <trkpt lat="45.96139" lon="4.77787">
        <ele>198</ele>
        <time>2017-07-06T09:29:09Z</time>
      </trkpt>
      <trkpt lat="45.96135" lon="4.77782">
        <ele>198</ele>
        <time>2017-07-06T09:29:10Z</time>
      </trkpt>
      <trkpt lat="45.96132" lon="4.77777">
        <ele>198</ele>
        <time>2017-07-06T09:29:11Z</time>
      </trkpt>
      <trkpt lat="45.96128" lon="4.77771">
        <ele>198</ele>
        <time>2017-07-06T09:29:12Z</time>
      </trkpt>
      <trkpt lat="45.96125" lon="4.77765">
        <ele>198</ele>
        <time>2017-07-06T09:29:13Z</time>
      </trkpt>
      <trkpt lat="45.96122" lon="4.77759">
        <ele>197</ele>
        <time>2017-07-06T09:29:14Z</time>
      </trkpt>
      <trkpt lat="45.96118" lon="4.77753">
        <ele>197</ele>
        <time>2017-07-06T09:29:15Z</time>
      </trkpt>
      <trkpt lat="45.96114" lon="4.77746">
        <ele>199</ele>
        <time>2017-07-06T09:29:16Z</time>
      </trkpt>
      <trkpt lat="45.9611" lon="4.77739">
        <ele>199</ele>
        <time>2017-07-06T09:29:17Z</time>
      </trkpt>
      <trkpt lat="45.96106" lon="4.77733">
        <ele>199</ele>
        <time>2017-07-06T09:29:18Z</time>
      </trkpt>
      <trkpt lat="45.96102" lon="4.77726">
        <ele>199</ele>
        <time>2017-07-06T09:29:19Z</time>
      </trkpt>
      <trkpt lat="45.96098" lon="4.7772">
        <ele>199</ele>
        <time>2017-07-06T09:29:20Z</time>
      </trkpt>
      <trkpt lat="45.96094" lon="4.77715">
        <ele>200</ele>
        <time>2017-07-06T09:29:21Z</time>
      </trkpt>
      <trkpt lat="45.9609" lon="4.77708">
        <ele>200</ele>
        <time>2017-07-06T09:29:22Z</time>
      </trkpt>
      <trkpt lat="45.96086" lon="4.77702">
        <ele>200</ele>
        <time>2017-07-06T09:29:23Z</time>
      </trkpt>
      <trkpt lat="45.96082" lon="4.77695">
        <ele>197</ele>
        <time>2017-07-06T09:29:24Z</time>
      </trkpt>
      <trkpt lat="45.96079" lon="4.77689">
        <ele>198</ele>
        <time>2017-07-06T09:29:25Z</time>
      </trkpt>
      <trkpt lat="45.96075" lon="4.77684">
        <ele>198</ele>
        <time>2017-07-06T09:29:26Z</time>
      </trkpt>
      <trkpt lat="45.96071" lon="4.77678">
        <ele>198</ele>
        <time>2017-07-06T09:29:27Z</time>
      </trkpt>
      <trkpt lat="45.96067" lon="4.77673">
        <ele>198</ele>
        <time>2017-07-06T09:29:28Z</time>
      </trkpt>
      <trkpt lat="45.96063" lon="4.77667">
        <ele>198</ele>
        <time>2017-07-06T09:29:29Z</time>
      </trkpt>
      <trkpt lat="45.96058" lon="4.77661">
        <ele>200</ele>
        <time>2017-07-06T09:29:30Z</time>
      </trkpt>
      <trkpt lat="45.96054" lon="4.77655">
        <ele>200</ele>
        <time>2017-07-06T09:29:31Z</time>
      </trkpt>
      <trkpt lat="45.96051" lon="4.7765">
        <ele>200</ele>
        <time>2017-07-06T09:29:32Z</time>
      </trkpt>
      <trkpt lat="45.96047" lon="4.77644">
        <ele>200</ele>
        <time>2017-07-06T09:29:33Z</time>
      </trkpt>
      <trkpt lat="45.96043" lon="4.77638">
        <ele>200</ele>
        <time>2017-07-06T09:29:34Z</time>
      </trkpt>
      <trkpt lat="45.96039" lon="4.77633">
        <ele>199</ele>
        <time>2017-07-06T09:29:35Z</time>
      </trkpt>
      <trkpt lat="45.96034" lon="4.77628">
        <ele>199</ele>
        <time>2017-07-06T09:29:36Z</time>
      </trkpt>
      <trkpt lat="45.9603" lon="4.77623">
        <ele>199</ele>
        <time>2017-07-06T09:29:37Z</time>
      </trkpt>
      <trkpt lat="45.96026" lon="4.77618">
        <ele>199</ele>
        <time>2017-07-06T09:29:38Z</time>
      </trkpt>
      <trkpt lat="45.96022" lon="4.77613">
        <ele>199</ele>
        <time>2017-07-06T09:29:39Z</time>
      </trkpt>
      <trkpt lat="45.96018" lon="4.77607">
        <ele>199</ele>
        <time>2017-07-06T09:29:40Z</time>
      </trkpt>
      <trkpt lat="45.96014" lon="4.77603">
        <ele>199</ele>
        <time>2017-07-06T09:29:41Z</time>
      </trkpt>
      <trkpt lat="45.96007" lon="4.77599">
        <ele>198</ele>
        <time>2017-07-06T09:29:46Z</time>
      </trkpt>
      <trkpt lat="45.96006" lon="4.77598">
        <ele>198</ele>
        <time>2017-07-06T09:29:47Z</time>
      </trkpt>
      <trkpt lat="45.95999" lon="4.77592">
        <ele>196</ele>
        <time>2017-07-06T09:29:50Z</time>
      </trkpt>
      <trkpt lat="45.95996" lon="4.77589">
        <ele>196</ele>
        <time>2017-07-06T09:29:51Z</time>
      </trkpt>
      <trkpt lat="45.95992" lon="4.77578">
        <ele>196</ele>
        <time>2017-07-06T09:29:53Z</time>
      </trkpt>
      <trkpt lat="45.9599" lon="4.77572">
        <ele>196</ele>
        <time>2017-07-06T09:29:54Z</time>
      </trkpt>
      <trkpt lat="45.95988" lon="4.77566">
        <ele>196</ele>
        <time>2017-07-06T09:29:55Z</time>
      </trkpt>
      <trkpt lat="45.95985" lon="4.77559">
        <ele>196</ele>
        <time>2017-07-06T09:29:56Z</time>
      </trkpt>
      <trkpt lat="45.95983" lon="4.77553">
        <ele>196</ele>
        <time>2017-07-06T09:29:57Z</time>
      </trkpt>
      <trkpt lat="45.9598" lon="4.77547">
        <ele>196</ele>
        <time>2017-07-06T09:29:58Z</time>
      </trkpt>
      <trkpt lat="45.95977" lon="4.77541">
        <ele>196</ele>
        <time>2017-07-06T09:29:59Z</time>
      </trkpt>
      <trkpt lat="45.95975" lon="4.77536">
        <ele>196</ele>
        <time>2017-07-06T09:30:00Z</time>
      </trkpt>
      <trkpt lat="45.95972" lon="4.77529">
        <ele>196</ele>
        <time>2017-07-06T09:30:01Z</time>
      </trkpt>
      <trkpt lat="45.95969" lon="4.77522">
        <ele>196</ele>
        <time>2017-07-06T09:30:02Z</time>
      </trkpt>
      <trkpt lat="45.95966" lon="4.77515">
        <ele>196</ele>
        <time>2017-07-06T09:30:03Z</time>
      </trkpt>
      <trkpt lat="45.95963" lon="4.77508">
        <ele>195</ele>
        <time>2017-07-06T09:30:04Z</time>
      </trkpt>
      <trkpt lat="45.9596" lon="4.77501">
        <ele>195</ele>
        <time>2017-07-06T09:30:05Z</time>
      </trkpt>
      <trkpt lat="45.95956" lon="4.77493">
        <ele>196</ele>
        <time>2017-07-06T09:30:06Z</time>
      </trkpt>
      <trkpt lat="45.95953" lon="4.77485">
        <ele>196</ele>
        <time>2017-07-06T09:30:07Z</time>
      </trkpt>
      <trkpt lat="45.9595" lon="4.77477">
        <ele>196</ele>
        <time>2017-07-06T09:30:08Z</time>
      </trkpt>
      <trkpt lat="45.95947" lon="4.77469">
        <ele>196</ele>
        <time>2017-07-06T09:30:09Z</time>
      </trkpt>
      <trkpt lat="45.95944" lon="4.7746">
        <ele>196</ele>
        <time>2017-07-06T09:30:10Z</time>
      </trkpt>
      <trkpt lat="45.95941" lon="4.77452">
        <ele>196</ele>
        <time>2017-07-06T09:30:11Z</time>
      </trkpt>
      <trkpt lat="45.95938" lon="4.77444">
        <ele>196</ele>
        <time>2017-07-06T09:30:12Z</time>
      </trkpt>
      <trkpt lat="45.95935" lon="4.77436">
        <ele>195</ele>
        <time>2017-07-06T09:30:13Z</time>
      </trkpt>
      <trkpt lat="45.95932" lon="4.77427">
        <ele>195</ele>
        <time>2017-07-06T09:30:14Z</time>
      </trkpt>
      <trkpt lat="45.95929" lon="4.77419">
        <ele>195</ele>
        <time>2017-07-06T09:30:15Z</time>
      </trkpt>
      <trkpt lat="45.95925" lon="4.7741">
        <ele>195</ele>
        <time>2017-07-06T09:30:16Z</time>
      </trkpt>
      <trkpt lat="45.95923" lon="4.774">
        <ele>196</ele>
        <time>2017-07-06T09:30:17Z</time>
      </trkpt>
      <trkpt lat="45.9592" lon="4.7739">
        <ele>196</ele>
        <time>2017-07-06T09:30:18Z</time>
      </trkpt>
      <trkpt lat="45.95916" lon="4.7738">
        <ele>193</ele>
        <time>2017-07-06T09:30:19Z</time>
      </trkpt>
      <trkpt lat="45.95914" lon="4.77369">
        <ele>193</ele>
        <time>2017-07-06T09:30:20Z</time>
      </trkpt>
      <trkpt lat="45.9591" lon="4.7736">
        <ele>193</ele>
        <time>2017-07-06T09:30:21Z</time>
      </trkpt>
      <trkpt lat="45.95908" lon="4.77351">
        <ele>193</ele>
        <time>2017-07-06T09:30:22Z</time>
      </trkpt>
      <trkpt lat="45.95905" lon="4.77342">
        <ele>194</ele>
        <time>2017-07-06T09:30:23Z</time>
      </trkpt>
      <trkpt lat="45.95903" lon="4.77333">
        <ele>194</ele>
        <time>2017-07-06T09:30:24Z</time>
      </trkpt>
      <trkpt lat="45.959" lon="4.77325">
        <ele>194</ele>
        <time>2017-07-06T09:30:25Z</time>
      </trkpt>
      <trkpt lat="45.95898" lon="4.77317">
        <ele>193</ele>
        <time>2017-07-06T09:30:26Z</time>
      </trkpt>
      <trkpt lat="45.95895" lon="4.77308">
        <ele>193</ele>
        <time>2017-07-06T09:30:27Z</time>
      </trkpt>
      <trkpt lat="45.95893" lon="4.773">
        <ele>193</ele>
        <time>2017-07-06T09:30:28Z</time>
      </trkpt>
      <trkpt lat="45.95891" lon="4.77291">
        <ele>193</ele>
        <time>2017-07-06T09:30:29Z</time>
      </trkpt>
      <trkpt lat="45.95889" lon="4.77282">
        <ele>193</ele>
        <time>2017-07-06T09:30:30Z</time>
      </trkpt>
      <trkpt lat="45.95887" lon="4.77273">
        <ele>193</ele>
        <time>2017-07-06T09:30:31Z</time>
      </trkpt>
      <trkpt lat="45.95885" lon="4.77264">
        <ele>193</ele>
        <time>2017-07-06T09:30:32Z</time>
      </trkpt>
      <trkpt lat="45.95882" lon="4.77254">
        <ele>193</ele>
        <time>2017-07-06T09:30:33Z</time>
      </trkpt>
      <trkpt lat="45.9588" lon="4.77243">
        <ele>193</ele>
        <time>2017-07-06T09:30:34Z</time>
      </trkpt>
      <trkpt lat="45.95877" lon="4.77232">
        <ele>193</ele>
        <time>2017-07-06T09:30:35Z</time>
      </trkpt>
      <trkpt lat="45.95875" lon="4.77221">
        <ele>193</ele>
        <time>2017-07-06T09:30:36Z</time>
      </trkpt>
      <trkpt lat="45.95872" lon="4.77211">
        <ele>193</ele>
        <time>2017-07-06T09:30:37Z</time>
      </trkpt>
      <trkpt lat="45.9587" lon="4.77201">
        <ele>193</ele>
        <time>2017-07-06T09:30:38Z</time>
      </trkpt>
      <trkpt lat="45.95868" lon="4.77192">
        <ele>193</ele>
        <time>2017-07-06T09:30:39Z</time>
      </trkpt>
      <trkpt lat="45.95865" lon="4.77182">
        <ele>193</ele>
        <time>2017-07-06T09:30:40Z</time>
      </trkpt>
      <trkpt lat="45.95863" lon="4.77172">
        <ele>192</ele>
        <time>2017-07-06T09:30:41Z</time>
      </trkpt>
      <trkpt lat="45.9586" lon="4.77163">
        <ele>193</ele>
        <time>2017-07-06T09:30:42Z</time>
      </trkpt>
      <trkpt lat="45.95858" lon="4.77154">
        <ele>193</ele>
        <time>2017-07-06T09:30:43Z</time>
      </trkpt>
      <trkpt lat="45.95855" lon="4.77145">
        <ele>193</ele>
        <time>2017-07-06T09:30:44Z</time>
      </trkpt>
      <trkpt lat="45.95853" lon="4.77135">
        <ele>193</ele>
        <time>2017-07-06T09:30:45Z</time>
      </trkpt>
      <trkpt lat="45.9585" lon="4.77126">
        <ele>193</ele>
        <time>2017-07-06T09:30:46Z</time>
      </trkpt>
      <trkpt lat="45.95847" lon="4.77116">
        <ele>193</ele>
        <time>2017-07-06T09:30:47Z</time>
      </trkpt>
      <trkpt lat="45.95844" lon="4.77106">
        <ele>193</ele>
        <time>2017-07-06T09:30:48Z</time>
      </trkpt>
      <trkpt lat="45.95841" lon="4.77095">
        <ele>193</ele>
        <time>2017-07-06T09:30:49Z</time>
      </trkpt>
      <trkpt lat="45.95838" lon="4.77085">
        <ele>192</ele>
        <time>2017-07-06T09:30:50Z</time>
      </trkpt>
      <trkpt lat="45.95834" lon="4.77074">
        <ele>192</ele>
        <time>2017-07-06T09:30:51Z</time>
      </trkpt>
      <trkpt lat="45.9583" lon="4.77064">
        <ele>191</ele>
        <time>2017-07-06T09:30:52Z</time>
      </trkpt>
      <trkpt lat="45.95826" lon="4.77056">
        <ele>190</ele>
        <time>2017-07-06T09:30:53Z</time>
      </trkpt>
      <trkpt lat="45.95821" lon="4.77047">
        <ele>190</ele>
        <time>2017-07-06T09:30:54Z</time>
      </trkpt>
      <trkpt lat="45.95818" lon="4.77038">
        <ele>190</ele>
        <time>2017-07-06T09:30:55Z</time>
      </trkpt>
      <trkpt lat="45.95814" lon="4.7703">
        <ele>190</ele>
        <time>2017-07-06T09:30:56Z</time>
      </trkpt>
      <trkpt lat="45.95811" lon="4.77022">
        <ele>190</ele>
        <time>2017-07-06T09:30:57Z</time>
      </trkpt>
      <trkpt lat="45.95809" lon="4.77013">
        <ele>190</ele>
        <time>2017-07-06T09:30:58Z</time>
      </trkpt>
      <trkpt lat="45.95807" lon="4.77004">
        <ele>190</ele>
        <time>2017-07-06T09:30:59Z</time>
      </trkpt>
      <trkpt lat="45.95806" lon="4.76995">
        <ele>190</ele>
        <time>2017-07-06T09:31:00Z</time>
      </trkpt>
      <trkpt lat="45.95805" lon="4.76986">
        <ele>189</ele>
        <time>2017-07-06T09:31:01Z</time>
      </trkpt>
      <trkpt lat="45.95805" lon="4.76976">
        <ele>189</ele>
        <time>2017-07-06T09:31:02Z</time>
      </trkpt>
      <trkpt lat="45.95806" lon="4.76967">
        <ele>189</ele>
        <time>2017-07-06T09:31:03Z</time>
      </trkpt>
      <trkpt lat="45.95807" lon="4.76958">
        <ele>189</ele>
        <time>2017-07-06T09:31:04Z</time>
      </trkpt>
      <trkpt lat="45.95808" lon="4.76949">
        <ele>189</ele>
        <time>2017-07-06T09:31:05Z</time>
      </trkpt>
      <trkpt lat="45.9581" lon="4.7694">
        <ele>189</ele>
        <time>2017-07-06T09:31:06Z</time>
      </trkpt>
      <trkpt lat="45.95812" lon="4.7693">
        <ele>189</ele>
        <time>2017-07-06T09:31:07Z</time>
      </trkpt>
      <trkpt lat="45.95814" lon="4.76921">
        <ele>189</ele>
        <time>2017-07-06T09:31:08Z</time>
      </trkpt>
      <trkpt lat="45.95816" lon="4.76913">
        <ele>189</ele>
        <time>2017-07-06T09:31:09Z</time>
      </trkpt>
      <trkpt lat="45.95817" lon="4.76904">
        <ele>189</ele>
        <time>2017-07-06T09:31:10Z</time>
      </trkpt>
      <trkpt lat="45.95819" lon="4.76896">
        <ele>189</ele>
        <time>2017-07-06T09:31:11Z</time>
      </trkpt>
      <trkpt lat="45.95821" lon="4.76888">
        <ele>189</ele>
        <time>2017-07-06T09:31:12Z</time>
      </trkpt>
      <trkpt lat="45.95822" lon="4.7688">
        <ele>189</ele>
        <time>2017-07-06T09:31:13Z</time>
      </trkpt>
      <trkpt lat="45.95823" lon="4.76872">
        <ele>189</ele>
        <time>2017-07-06T09:31:14Z</time>
      </trkpt>
      <trkpt lat="45.95825" lon="4.76864">
        <ele>189</ele>
        <time>2017-07-06T09:31:15Z</time>
      </trkpt>
      <trkpt lat="45.95826" lon="4.76856">
        <ele>189</ele>
        <time>2017-07-06T09:31:16Z</time>
      </trkpt>
      <trkpt lat="45.95827" lon="4.76849">
        <ele>190</ele>
        <time>2017-07-06T09:31:17Z</time>
      </trkpt>
      <trkpt lat="45.95828" lon="4.76841">
        <ele>190</ele>
        <time>2017-07-06T09:31:18Z</time>
      </trkpt>
      <trkpt lat="45.9583" lon="4.76834">
        <ele>190</ele>
        <time>2017-07-06T09:31:19Z</time>
      </trkpt>
      <trkpt lat="45.95831" lon="4.76827">
        <ele>190</ele>
        <time>2017-07-06T09:31:20Z</time>
      </trkpt>
      <trkpt lat="45.95832" lon="4.7682">
        <ele>190</ele>
        <time>2017-07-06T09:31:21Z</time>
      </trkpt>
      <trkpt lat="45.95833" lon="4.76813">
        <ele>190</ele>
        <time>2017-07-06T09:31:22Z</time>
      </trkpt>
      <trkpt lat="45.95836" lon="4.76801">
        <ele>191</ele>
        <time>2017-07-06T09:31:24Z</time>
      </trkpt>
      <trkpt lat="45.95837" lon="4.76794">
        <ele>191</ele>
        <time>2017-07-06T09:31:25Z</time>
      </trkpt>
      <trkpt lat="45.95837" lon="4.76786">
        <ele>191</ele>
        <time>2017-07-06T09:31:26Z</time>
      </trkpt>
      <trkpt lat="45.95835" lon="4.76779">
        <ele>191</ele>
        <time>2017-07-06T09:31:27Z</time>
      </trkpt>
      <trkpt lat="45.95833" lon="4.76772">
        <ele>190</ele>
        <time>2017-07-06T09:31:28Z</time>
      </trkpt>
      <trkpt lat="45.95831" lon="4.76765">
        <ele>190</ele>
        <time>2017-07-06T09:31:29Z</time>
      </trkpt>
      <trkpt lat="45.9583" lon="4.76757">
        <ele>191</ele>
        <time>2017-07-06T09:31:30Z</time>
      </trkpt>
      <trkpt lat="45.95828" lon="4.76749">
        <ele>191</ele>
        <time>2017-07-06T09:31:31Z</time>
      </trkpt>
      <trkpt lat="45.95827" lon="4.7674">
        <ele>190</ele>
        <time>2017-07-06T09:31:32Z</time>
      </trkpt>
      <trkpt lat="45.95825" lon="4.76731">
        <ele>190</ele>
        <time>2017-07-06T09:31:33Z</time>
      </trkpt>
      <trkpt lat="45.95824" lon="4.76722">
        <ele>190</ele>
        <time>2017-07-06T09:31:34Z</time>
      </trkpt>
      <trkpt lat="45.95823" lon="4.76713">
        <ele>189</ele>
        <time>2017-07-06T09:31:35Z</time>
      </trkpt>
      <trkpt lat="45.95822" lon="4.76705">
        <ele>189</ele>
        <time>2017-07-06T09:31:36Z</time>
      </trkpt>
      <trkpt lat="45.9582" lon="4.76696">
        <ele>189</ele>
        <time>2017-07-06T09:31:37Z</time>
      </trkpt>
      <trkpt lat="45.95819" lon="4.76688">
        <ele>189</ele>
        <time>2017-07-06T09:31:38Z</time>
      </trkpt>
      <trkpt lat="45.95818" lon="4.7668">
        <ele>189</ele>
        <time>2017-07-06T09:31:39Z</time>
      </trkpt>
      <trkpt lat="45.95817" lon="4.76672">
        <ele>189</ele>
        <time>2017-07-06T09:31:40Z</time>
      </trkpt>
      <trkpt lat="45.95815" lon="4.76664">
        <ele>188</ele>
        <time>2017-07-06T09:31:41Z</time>
      </trkpt>
      <trkpt lat="45.95814" lon="4.76656">
        <ele>188</ele>
        <time>2017-07-06T09:31:42Z</time>
      </trkpt>
      <trkpt lat="45.95813" lon="4.76648">
        <ele>188</ele>
        <time>2017-07-06T09:31:43Z</time>
      </trkpt>
      <trkpt lat="45.95812" lon="4.7664">
        <ele>188</ele>
        <time>2017-07-06T09:31:44Z</time>
      </trkpt>
      <trkpt lat="45.95811" lon="4.76631">
        <ele>188</ele>
        <time>2017-07-06T09:31:45Z</time>
      </trkpt>
      <trkpt lat="45.9581" lon="4.76623">
        <ele>188</ele>
        <time>2017-07-06T09:31:46Z</time>
      </trkpt>
      <trkpt lat="45.95809" lon="4.76613">
        <ele>188</ele>
        <time>2017-07-06T09:31:47Z</time>
      </trkpt>
      <trkpt lat="45.95807" lon="4.76604">
        <ele>188</ele>
        <time>2017-07-06T09:31:48Z</time>
      </trkpt>
      <trkpt lat="45.95806" lon="4.76595">
        <ele>188</ele>
        <time>2017-07-06T09:31:49Z</time>
      </trkpt>
      <trkpt lat="45.95804" lon="4.76585">
        <ele>188</ele>
        <time>2017-07-06T09:31:50Z</time>
      </trkpt>
      <trkpt lat="45.95803" lon="4.76576">
        <ele>187</ele>
        <time>2017-07-06T09:31:51Z</time>
      </trkpt>
      <trkpt lat="45.95802" lon="4.76567">
        <ele>187</ele>
        <time>2017-07-06T09:31:52Z</time>
      </trkpt>
      <trkpt lat="45.958" lon="4.76558">
        <ele>187</ele>
        <time>2017-07-06T09:31:53Z</time>
      </trkpt>
      <trkpt lat="45.95799" lon="4.76549">
        <ele>187</ele>
        <time>2017-07-06T09:31:54Z</time>
      </trkpt>
      <trkpt lat="45.95798" lon="4.7654">
        <ele>187</ele>
        <time>2017-07-06T09:31:55Z</time>
      </trkpt>
      <trkpt lat="45.95796" lon="4.76531">
        <ele>187</ele>
        <time>2017-07-06T09:31:56Z</time>
      </trkpt>
      <trkpt lat="45.95795" lon="4.76522">
        <ele>187</ele>
        <time>2017-07-06T09:31:57Z</time>
      </trkpt>
      <trkpt lat="45.95793" lon="4.76514">
        <ele>187</ele>
        <time>2017-07-06T09:31:58Z</time>
      </trkpt>
      <trkpt lat="45.95792" lon="4.76506">
        <ele>187</ele>
        <time>2017-07-06T09:31:59Z</time>
      </trkpt>
      <trkpt lat="45.95791" lon="4.76498">
        <ele>186</ele>
        <time>2017-07-06T09:32:00Z</time>
      </trkpt>
      <trkpt lat="45.95789" lon="4.7649">
        <ele>186</ele>
        <time>2017-07-06T09:32:01Z</time>
      </trkpt>
      <trkpt lat="45.95788" lon="4.76482">
        <ele>186</ele>
        <time>2017-07-06T09:32:02Z</time>
      </trkpt>
      <trkpt lat="45.95787" lon="4.76474">
        <ele>186</ele>
        <time>2017-07-06T09:32:03Z</time>
      </trkpt>
      <trkpt lat="45.95786" lon="4.76465">
        <ele>186</ele>
        <time>2017-07-06T09:32:04Z</time>
      </trkpt>
      <trkpt lat="45.95784" lon="4.76456">
        <ele>186</ele>
        <time>2017-07-06T09:32:05Z</time>
      </trkpt>
      <trkpt lat="45.95783" lon="4.76447">
        <ele>186</ele>
        <time>2017-07-06T09:32:06Z</time>
      </trkpt>
      <trkpt lat="45.95782" lon="4.76438">
        <ele>186</ele>
        <time>2017-07-06T09:32:07Z</time>
      </trkpt>
      <trkpt lat="45.9578" lon="4.76429">
        <ele>186</ele>
        <time>2017-07-06T09:32:08Z</time>
      </trkpt>
      <trkpt lat="45.95779" lon="4.76421">
        <ele>186</ele>
        <time>2017-07-06T09:32:09Z</time>
      </trkpt>
      <trkpt lat="45.95778" lon="4.76413">
        <ele>186</ele>
        <time>2017-07-06T09:32:10Z</time>
      </trkpt>
      <trkpt lat="45.95777" lon="4.76404">
        <ele>186</ele>
        <time>2017-07-06T09:32:11Z</time>
      </trkpt>
      <trkpt lat="45.95777" lon="4.76396">
        <ele>186</ele>
        <time>2017-07-06T09:32:12Z</time>
      </trkpt>
      <trkpt lat="45.95776" lon="4.76387">
        <ele>186</ele>
        <time>2017-07-06T09:32:13Z</time>
      </trkpt>
      <trkpt lat="45.95776" lon="4.76379">
        <ele>186</ele>
        <time>2017-07-06T09:32:14Z</time>
      </trkpt>
      <trkpt lat="45.95775" lon="4.76371">
        <ele>186</ele>
        <time>2017-07-06T09:32:15Z</time>
      </trkpt>
      <trkpt lat="45.95775" lon="4.76363">
        <ele>186</ele>
        <time>2017-07-06T09:32:16Z</time>
      </trkpt>
      <trkpt lat="45.95775" lon="4.76355">
        <ele>186</ele>
        <time>2017-07-06T09:32:17Z</time>
      </trkpt>
      <trkpt lat="45.95774" lon="4.76347">
        <ele>186</ele>
        <time>2017-07-06T09:32:18Z</time>
      </trkpt>
      <trkpt lat="45.95774" lon="4.7634">
        <ele>186</ele>
        <time>2017-07-06T09:32:19Z</time>
      </trkpt>
      <trkpt lat="45.95773" lon="4.76333">
        <ele>185</ele>
        <time>2017-07-06T09:32:20Z</time>
      </trkpt>
      <trkpt lat="45.95773" lon="4.76325">
        <ele>185</ele>
        <time>2017-07-06T09:32:21Z</time>
      </trkpt>
      <trkpt lat="45.95772" lon="4.76317">
        <ele>185</ele>
        <time>2017-07-06T09:32:22Z</time>
      </trkpt>
      <trkpt lat="45.95772" lon="4.76309">
        <ele>186</ele>
        <time>2017-07-06T09:32:23Z</time>
      </trkpt>
      <trkpt lat="45.95771" lon="4.76299">
        <ele>186</ele>
        <time>2017-07-06T09:32:24Z</time>
      </trkpt>
      <trkpt lat="45.95771" lon="4.7629">
        <ele>186</ele>
        <time>2017-07-06T09:32:25Z</time>
      </trkpt>
      <trkpt lat="45.9577" lon="4.76281">
        <ele>186</ele>
        <time>2017-07-06T09:32:26Z</time>
      </trkpt>
      <trkpt lat="45.9577" lon="4.76271">
        <ele>186</ele>
        <time>2017-07-06T09:32:27Z</time>
      </trkpt>
      <trkpt lat="45.9577" lon="4.76262">
        <ele>185</ele>
        <time>2017-07-06T09:32:28Z</time>
      </trkpt>
      <trkpt lat="45.95769" lon="4.76254">
        <ele>185</ele>
        <time>2017-07-06T09:32:29Z</time>
      </trkpt>
      <trkpt lat="45.95769" lon="4.76246">
        <ele>186</ele>
        <time>2017-07-06T09:32:30Z</time>
      </trkpt>
      <trkpt lat="45.95768" lon="4.76237">
        <ele>186</ele>
        <time>2017-07-06T09:32:31Z</time>
      </trkpt>
      <trkpt lat="45.95768" lon="4.76229">
        <ele>186</ele>
        <time>2017-07-06T09:32:32Z</time>
      </trkpt>
      <trkpt lat="45.95768" lon="4.76221">
        <ele>186</ele>
        <time>2017-07-06T09:32:33Z</time>
      </trkpt>
      <trkpt lat="45.95768" lon="4.76214">
        <ele>186</ele>
        <time>2017-07-06T09:32:34Z</time>
      </trkpt>
      <trkpt lat="45.95767" lon="4.76205">
        <ele>186</ele>
        <time>2017-07-06T09:32:35Z</time>
      </trkpt>
      <trkpt lat="45.95766" lon="4.76197">
        <ele>186</ele>
        <time>2017-07-06T09:32:36Z</time>
      </trkpt>
      <trkpt lat="45.95766" lon="4.76189">
        <ele>186</ele>
        <time>2017-07-06T09:32:37Z</time>
      </trkpt>
      <trkpt lat="45.95765" lon="4.76181">
        <ele>186</ele>
        <time>2017-07-06T09:32:38Z</time>
      </trkpt>
      <trkpt lat="45.95765" lon="4.76172">
        <ele>185</ele>
        <time>2017-07-06T09:32:39Z</time>
      </trkpt>
      <trkpt lat="45.95764" lon="4.76163">
        <ele>186</ele>
        <time>2017-07-06T09:32:40Z</time>
      </trkpt>
      <trkpt lat="45.95764" lon="4.76154">
        <ele>186</ele>
        <time>2017-07-06T09:32:41Z</time>
      </trkpt>
      <trkpt lat="45.95763" lon="4.76145">
        <ele>186</ele>
        <time>2017-07-06T09:32:42Z</time>
      </trkpt>
      <trkpt lat="45.95762" lon="4.76136">
        <ele>186</ele>
        <time>2017-07-06T09:32:43Z</time>
      </trkpt>
      <trkpt lat="45.95761" lon="4.76126">
        <ele>186</ele>
        <time>2017-07-06T09:32:44Z</time>
      </trkpt>
      <trkpt lat="45.9576" lon="4.76117">
        <ele>186</ele>
        <time>2017-07-06T09:32:45Z</time>
      </trkpt>
      <trkpt lat="45.95759" lon="4.76109">
        <ele>186</ele>
        <time>2017-07-06T09:32:46Z</time>
      </trkpt>
      <trkpt lat="45.95757" lon="4.76101">
        <ele>186</ele>
        <time>2017-07-06T09:32:47Z</time>
      </trkpt>
      <trkpt lat="45.95755" lon="4.76093">
        <ele>186</ele>
        <time>2017-07-06T09:32:48Z</time>
      </trkpt>
      <trkpt lat="45.95753" lon="4.76086">
        <ele>185</ele>
        <time>2017-07-06T09:32:49Z</time>
      </trkpt>
      <trkpt lat="45.9575" lon="4.76079">
        <ele>185</ele>
        <time>2017-07-06T09:32:50Z</time>
      </trkpt>
      <trkpt lat="45.95748" lon="4.76071">
        <ele>185</ele>
        <time>2017-07-06T09:32:51Z</time>
      </trkpt>
      <trkpt lat="45.95745" lon="4.76064">
        <ele>185</ele>
        <time>2017-07-06T09:32:52Z</time>
      </trkpt>
      <trkpt lat="45.95742" lon="4.76056">
        <ele>184</ele>
        <time>2017-07-06T09:32:53Z</time>
      </trkpt>
      <trkpt lat="45.95739" lon="4.76048">
        <ele>184</ele>
        <time>2017-07-06T09:32:54Z</time>
      </trkpt>
      <trkpt lat="45.95736" lon="4.7604">
        <ele>184</ele>
        <time>2017-07-06T09:32:55Z</time>
      </trkpt>
      <trkpt lat="45.95732" lon="4.76033">
        <ele>184</ele>
        <time>2017-07-06T09:32:56Z</time>
      </trkpt>
      <trkpt lat="45.95729" lon="4.76025">
        <ele>185</ele>
        <time>2017-07-06T09:32:57Z</time>
      </trkpt>
      <trkpt lat="45.95725" lon="4.76018">
        <ele>185</ele>
        <time>2017-07-06T09:32:58Z</time>
      </trkpt>
      <trkpt lat="45.95722" lon="4.76011">
        <ele>185</ele>
        <time>2017-07-06T09:32:59Z</time>
      </trkpt>
      <trkpt lat="45.95718" lon="4.76004">
        <ele>184</ele>
        <time>2017-07-06T09:33:00Z</time>
      </trkpt>
      <trkpt lat="45.95715" lon="4.75997">
        <ele>185</ele>
        <time>2017-07-06T09:33:01Z</time>
      </trkpt>
      <trkpt lat="45.95712" lon="4.7599">
        <ele>185</ele>
        <time>2017-07-06T09:33:02Z</time>
      </trkpt>
      <trkpt lat="45.95709" lon="4.75983">
        <ele>185</ele>
        <time>2017-07-06T09:33:03Z</time>
      </trkpt>
      <trkpt lat="45.95706" lon="4.75977">
        <ele>185</ele>
        <time>2017-07-06T09:33:04Z</time>
      </trkpt>
      <trkpt lat="45.95703" lon="4.75971">
        <ele>185</ele>
        <time>2017-07-06T09:33:05Z</time>
      </trkpt>
      <trkpt lat="45.957" lon="4.75965">
        <ele>185</ele>
        <time>2017-07-06T09:33:06Z</time>
      </trkpt>
      <trkpt lat="45.95697" lon="4.75959">
        <ele>185</ele>
        <time>2017-07-06T09:33:07Z</time>
      </trkpt>
      <trkpt lat="45.95694" lon="4.75952">
        <ele>185</ele>
        <time>2017-07-06T09:33:08Z</time>
      </trkpt>
      <trkpt lat="45.95692" lon="4.75945">
        <ele>185</ele>
        <time>2017-07-06T09:33:09Z</time>
      </trkpt>
      <trkpt lat="45.95688" lon="4.75938">
        <ele>185</ele>
        <time>2017-07-06T09:33:10Z</time>
      </trkpt>
      <trkpt lat="45.95685" lon="4.7593">
        <ele>185</ele>
        <time>2017-07-06T09:33:11Z</time>
      </trkpt>
      <trkpt lat="45.95682" lon="4.75922">
        <ele>185</ele>
        <time>2017-07-06T09:33:12Z</time>
      </trkpt>
      <trkpt lat="45.95679" lon="4.75915">
        <ele>185</ele>
        <time>2017-07-06T09:33:13Z</time>
      </trkpt>
      <trkpt lat="45.95676" lon="4.75907">
        <ele>185</ele>
        <time>2017-07-06T09:33:14Z</time>
      </trkpt>
      <trkpt lat="45.95673" lon="4.759">
        <ele>185</ele>
        <time>2017-07-06T09:33:15Z</time>
      </trkpt>
      <trkpt lat="45.9567" lon="4.75893">
        <ele>186</ele>
        <time>2017-07-06T09:33:16Z</time>
      </trkpt>
      <trkpt lat="45.95668" lon="4.75887">
        <ele>186</ele>
        <time>2017-07-06T09:33:17Z</time>
      </trkpt>
      <trkpt lat="45.95665" lon="4.7588">
        <ele>184</ele>
        <time>2017-07-06T09:33:18Z</time>
      </trkpt>
      <trkpt lat="45.95663" lon="4.75873">
        <ele>184</ele>
        <time>2017-07-06T09:33:19Z</time>
      </trkpt>
      <trkpt lat="45.95661" lon="4.75865">
        <ele>184</ele>
        <time>2017-07-06T09:33:20Z</time>
      </trkpt>
      <trkpt lat="45.95659" lon="4.75858">
        <ele>184</ele>
        <time>2017-07-06T09:33:21Z</time>
      </trkpt>
      <trkpt lat="45.95657" lon="4.7585">
        <ele>185</ele>
        <time>2017-07-06T09:33:22Z</time>
      </trkpt>
      <trkpt lat="45.95655" lon="4.75842">
        <ele>185</ele>
        <time>2017-07-06T09:33:23Z</time>
      </trkpt>
      <trkpt lat="45.95653" lon="4.75834">
        <ele>185</ele>
        <time>2017-07-06T09:33:24Z</time>
      </trkpt>
      <trkpt lat="45.95651" lon="4.75826">
        <ele>185</ele>
        <time>2017-07-06T09:33:25Z</time>
      </trkpt>
      <trkpt lat="45.95649" lon="4.75819">
        <ele>185</ele>
        <time>2017-07-06T09:33:26Z</time>
      </trkpt>
      <trkpt lat="45.95648" lon="4.75812">
        <ele>185</ele>
        <time>2017-07-06T09:33:27Z</time>
      </trkpt>
      <trkpt lat="45.95647" lon="4.75804">
        <ele>185</ele>
        <time>2017-07-06T09:33:28Z</time>
      </trkpt>
      <trkpt lat="45.95646" lon="4.75798">
        <ele>185</ele>
        <time>2017-07-06T09:33:29Z</time>
      </trkpt>
      <trkpt lat="45.95645" lon="4.75791">
        <ele>185</ele>
        <time>2017-07-06T09:33:30Z</time>
      </trkpt>
      <trkpt lat="45.95643" lon="4.75784">
        <ele>186</ele>
        <time>2017-07-06T09:33:31Z</time>
      </trkpt>
      <trkpt lat="45.95642" lon="4.75777">
        <ele>186</ele>
        <time>2017-07-06T09:33:32Z</time>
      </trkpt>
      <trkpt lat="45.9564" lon="4.7577">
        <ele>186</ele>
        <time>2017-07-06T09:33:33Z</time>
      </trkpt>
      <trkpt lat="45.95639" lon="4.75763">
        <ele>186</ele>
        <time>2017-07-06T09:33:34Z</time>
      </trkpt>
      <trkpt lat="45.95638" lon="4.75756">
        <ele>186</ele>
        <time>2017-07-06T09:33:35Z</time>
      </trkpt>
      <trkpt lat="45.95638" lon="4.75749">
        <ele>187</ele>
        <time>2017-07-06T09:33:36Z</time>
      </trkpt>
      <trkpt lat="45.95637" lon="4.75741">
        <ele>187</ele>
        <time>2017-07-06T09:33:37Z</time>
      </trkpt>
      <trkpt lat="45.95636" lon="4.75733">
        <ele>187</ele>
        <time>2017-07-06T09:33:38Z</time>
      </trkpt>
      <trkpt lat="45.95635" lon="4.75726">
        <ele>187</ele>
        <time>2017-07-06T09:33:39Z</time>
      </trkpt>
      <trkpt lat="45.95634" lon="4.75718">
        <ele>187</ele>
        <time>2017-07-06T09:33:40Z</time>
      </trkpt>
      <trkpt lat="45.95633" lon="4.7571">
        <ele>187</ele>
        <time>2017-07-06T09:33:41Z</time>
      </trkpt>
      <trkpt lat="45.95632" lon="4.75702">
        <ele>187</ele>
        <time>2017-07-06T09:33:42Z</time>
      </trkpt>
      <trkpt lat="45.9563" lon="4.75695">
        <ele>187</ele>
        <time>2017-07-06T09:33:43Z</time>
      </trkpt>
      <trkpt lat="45.95629" lon="4.75688">
        <ele>187</ele>
        <time>2017-07-06T09:33:44Z</time>
      </trkpt>
      <trkpt lat="45.95628" lon="4.75681">
        <ele>187</ele>
        <time>2017-07-06T09:33:45Z</time>
      </trkpt>
      <trkpt lat="45.95626" lon="4.75674">
        <ele>187</ele>
        <time>2017-07-06T09:33:46Z</time>
      </trkpt>
      <trkpt lat="45.95625" lon="4.75667">
        <ele>187</ele>
        <time>2017-07-06T09:33:47Z</time>
      </trkpt>
      <trkpt lat="45.95624" lon="4.75661">
        <ele>188</ele>
        <time>2017-07-06T09:33:48Z</time>
      </trkpt>
      <trkpt lat="45.95622" lon="4.75654">
        <ele>188</ele>
        <time>2017-07-06T09:33:49Z</time>
      </trkpt>
      <trkpt lat="45.95621" lon="4.75648">
        <ele>188</ele>
        <time>2017-07-06T09:33:50Z</time>
      </trkpt>
      <trkpt lat="45.9562" lon="4.75642">
        <ele>188</ele>
        <time>2017-07-06T09:33:51Z</time>
      </trkpt>
      <trkpt lat="45.95618" lon="4.75636">
        <ele>188</ele>
        <time>2017-07-06T09:33:52Z</time>
      </trkpt>
      <trkpt lat="45.95617" lon="4.75629">
        <ele>188</ele>
        <time>2017-07-06T09:33:53Z</time>
      </trkpt>
      <trkpt lat="45.95615" lon="4.75623">
        <ele>188</ele>
        <time>2017-07-06T09:33:54Z</time>
      </trkpt>
      <trkpt lat="45.95613" lon="4.75616">
        <ele>188</ele>
        <time>2017-07-06T09:33:55Z</time>
      </trkpt>
      <trkpt lat="45.95611" lon="4.75609">
        <ele>188</ele>
        <time>2017-07-06T09:33:56Z</time>
      </trkpt>
      <trkpt lat="45.95609" lon="4.75603">
        <ele>188</ele>
        <time>2017-07-06T09:33:57Z</time>
      </trkpt>
      <trkpt lat="45.95606" lon="4.75597">
        <ele>187</ele>
        <time>2017-07-06T09:33:58Z</time>
      </trkpt>
      <trkpt lat="45.95604" lon="4.75591">
        <ele>187</ele>
        <time>2017-07-06T09:33:59Z</time>
      </trkpt>
      <trkpt lat="45.95601" lon="4.75585">
        <ele>187</ele>
        <time>2017-07-06T09:34:00Z</time>
      </trkpt>
      <trkpt lat="45.95598" lon="4.7558">
        <ele>188</ele>
        <time>2017-07-06T09:34:01Z</time>
      </trkpt>
      <trkpt lat="45.95595" lon="4.75574">
        <ele>188</ele>
        <time>2017-07-06T09:34:02Z</time>
      </trkpt>
      <trkpt lat="45.95593" lon="4.75569">
        <ele>188</ele>
        <time>2017-07-06T09:34:03Z</time>
      </trkpt>
      <trkpt lat="45.9559" lon="4.75564">
        <ele>188</ele>
        <time>2017-07-06T09:34:04Z</time>
      </trkpt>
      <trkpt lat="45.95587" lon="4.75558">
        <ele>188</ele>
        <time>2017-07-06T09:34:05Z</time>
      </trkpt>
      <trkpt lat="45.95584" lon="4.75553">
        <ele>188</ele>
        <time>2017-07-06T09:34:06Z</time>
      </trkpt>
      <trkpt lat="45.9558" lon="4.75547">
        <ele>186</ele>
        <time>2017-07-06T09:34:07Z</time>
      </trkpt>
      <trkpt lat="45.95577" lon="4.75542">
        <ele>186</ele>
        <time>2017-07-06T09:34:08Z</time>
      </trkpt>
      <trkpt lat="45.95572" lon="4.75538">
        <ele>186</ele>
        <time>2017-07-06T09:34:09Z</time>
      </trkpt>
      <trkpt lat="45.95568" lon="4.75533">
        <ele>186</ele>
        <time>2017-07-06T09:34:10Z</time>
      </trkpt>
      <trkpt lat="45.95564" lon="4.75528">
        <ele>186</ele>
        <time>2017-07-06T09:34:11Z</time>
      </trkpt>
      <trkpt lat="45.9556" lon="4.75523">
        <ele>186</ele>
        <time>2017-07-06T09:34:12Z</time>
      </trkpt>
      <trkpt lat="45.95556" lon="4.75518">
        <ele>186</ele>
        <time>2017-07-06T09:34:13Z</time>
      </trkpt>
      <trkpt lat="45.95552" lon="4.75513">
        <ele>186</ele>
        <time>2017-07-06T09:34:14Z</time>
      </trkpt>
      <trkpt lat="45.95548" lon="4.75508">
        <ele>186</ele>
        <time>2017-07-06T09:34:15Z</time>
      </trkpt>
      <trkpt lat="45.95544" lon="4.75499">
        <ele>187</ele>
        <time>2017-07-06T09:34:17Z</time>
      </trkpt>
      <trkpt lat="45.95542" lon="4.75495">
        <ele>187</ele>
        <time>2017-07-06T09:34:18Z</time>
      </trkpt>
      <trkpt lat="45.95542" lon="4.75485">
        <ele>187</ele>
        <time>2017-07-06T09:34:20Z</time>
      </trkpt>
      <trkpt lat="45.95542" lon="4.7548">
        <ele>187</ele>
        <time>2017-07-06T09:34:21Z</time>
      </trkpt>
      <trkpt lat="45.95542" lon="4.75473">
        <ele>187</ele>
        <time>2017-07-06T09:34:22Z</time>
      </trkpt>
      <trkpt lat="45.95541" lon="4.75466">
        <ele>187</ele>
        <time>2017-07-06T09:34:23Z</time>
      </trkpt>
      <trkpt lat="45.9554" lon="4.75459">
        <ele>187</ele>
        <time>2017-07-06T09:34:24Z</time>
      </trkpt>
      <trkpt lat="45.95537" lon="4.75453">
        <ele>187</ele>
        <time>2017-07-06T09:34:25Z</time>
      </trkpt>
      <trkpt lat="45.95532" lon="4.75448">
        <ele>187</ele>
        <time>2017-07-06T09:34:26Z</time>
      </trkpt>
      <trkpt lat="45.95527" lon="4.75443">
        <ele>187</ele>
        <time>2017-07-06T09:34:27Z</time>
      </trkpt>
      <trkpt lat="45.95522" lon="4.75436">
        <ele>187</ele>
        <time>2017-07-06T09:34:28Z</time>
      </trkpt>
      <trkpt lat="45.95518" lon="4.75428">
        <ele>187</ele>
        <time>2017-07-06T09:34:29Z</time>
      </trkpt>
      <trkpt lat="45.95515" lon="4.7542">
        <ele>186</ele>
        <time>2017-07-06T09:34:30Z</time>
      </trkpt>
      <trkpt lat="45.95512" lon="4.75412">
        <ele>187</ele>
        <time>2017-07-06T09:34:31Z</time>
      </trkpt>
      <trkpt lat="45.95509" lon="4.75404">
        <ele>187</ele>
        <time>2017-07-06T09:34:32Z</time>
      </trkpt>
      <trkpt lat="45.95506" lon="4.75396">
        <ele>188</ele>
        <time>2017-07-06T09:34:33Z</time>
      </trkpt>
      <trkpt lat="45.95503" lon="4.75387">
        <ele>188</ele>
        <time>2017-07-06T09:34:34Z</time>
      </trkpt>
      <trkpt lat="45.95499" lon="4.7538">
        <ele>185</ele>
        <time>2017-07-06T09:34:35Z</time>
      </trkpt>
      <trkpt lat="45.95496" lon="4.75372">
        <ele>185</ele>
        <time>2017-07-06T09:34:36Z</time>
      </trkpt>
      <trkpt lat="45.95492" lon="4.75365">
        <ele>186</ele>
        <time>2017-07-06T09:34:37Z</time>
      </trkpt>
      <trkpt lat="45.95489" lon="4.75359">
        <ele>186</ele>
        <time>2017-07-06T09:34:38Z</time>
      </trkpt>
      <trkpt lat="45.95486" lon="4.75352">
        <ele>186</ele>
        <time>2017-07-06T09:34:39Z</time>
      </trkpt>
      <trkpt lat="45.95483" lon="4.75346">
        <ele>186</ele>
        <time>2017-07-06T09:34:40Z</time>
      </trkpt>
      <trkpt lat="45.9548" lon="4.75341">
        <ele>186</ele>
        <time>2017-07-06T09:34:41Z</time>
      </trkpt>
      <trkpt lat="45.95477" lon="4.75335">
        <ele>186</ele>
        <time>2017-07-06T09:34:42Z</time>
      </trkpt>
      <trkpt lat="45.95474" lon="4.7533">
        <ele>188</ele>
        <time>2017-07-06T09:34:43Z</time>
      </trkpt>
      <trkpt lat="45.95472" lon="4.75325">
        <ele>188</ele>
        <time>2017-07-06T09:34:44Z</time>
      </trkpt>
      <trkpt lat="45.95469" lon="4.75319">
        <ele>188</ele>
        <time>2017-07-06T09:34:45Z</time>
      </trkpt>
      <trkpt lat="45.95466" lon="4.75314">
        <ele>188</ele>
        <time>2017-07-06T09:34:46Z</time>
      </trkpt>
      <trkpt lat="45.95463" lon="4.75309">
        <ele>188</ele>
        <time>2017-07-06T09:34:47Z</time>
      </trkpt>
      <trkpt lat="45.9546" lon="4.75304">
        <ele>188</ele>
        <time>2017-07-06T09:34:48Z</time>
      </trkpt>
      <trkpt lat="45.95457" lon="4.75298">
        <ele>188</ele>
        <time>2017-07-06T09:34:49Z</time>
      </trkpt>
      <trkpt lat="45.95454" lon="4.75293">
        <ele>188</ele>
        <time>2017-07-06T09:34:50Z</time>
      </trkpt>
      <trkpt lat="45.95452" lon="4.75288">
        <ele>188</ele>
        <time>2017-07-06T09:34:51Z</time>
      </trkpt>
      <trkpt lat="45.95449" lon="4.75282">
        <ele>189</ele>
        <time>2017-07-06T09:34:52Z</time>
      </trkpt>
      <trkpt lat="45.95446" lon="4.75277">
        <ele>189</ele>
        <time>2017-07-06T09:34:53Z</time>
      </trkpt>
      <trkpt lat="45.95443" lon="4.75271">
        <ele>189</ele>
        <time>2017-07-06T09:34:54Z</time>
      </trkpt>
      <trkpt lat="45.95441" lon="4.75265">
        <ele>189</ele>
        <time>2017-07-06T09:34:55Z</time>
      </trkpt>
      <trkpt lat="45.95438" lon="4.7526">
        <ele>189</ele>
        <time>2017-07-06T09:34:56Z</time>
      </trkpt>
      <trkpt lat="45.95435" lon="4.75254">
        <ele>189</ele>
        <time>2017-07-06T09:34:57Z</time>
      </trkpt>
      <trkpt lat="45.95432" lon="4.75248">
        <ele>190</ele>
        <time>2017-07-06T09:34:58Z</time>
      </trkpt>
      <trkpt lat="45.95429" lon="4.75241">
        <ele>190</ele>
        <time>2017-07-06T09:34:59Z</time>
      </trkpt>
      <trkpt lat="45.95426" lon="4.75235">
        <ele>190</ele>
        <time>2017-07-06T09:35:00Z</time>
      </trkpt>
      <trkpt lat="45.95422" lon="4.75228">
        <ele>191</ele>
        <time>2017-07-06T09:35:01Z</time>
      </trkpt>
      <trkpt lat="45.95419" lon="4.75222">
        <ele>191</ele>
        <time>2017-07-06T09:35:02Z</time>
      </trkpt>
      <trkpt lat="45.95416" lon="4.75216">
        <ele>189</ele>
        <time>2017-07-06T09:35:03Z</time>
      </trkpt>
      <trkpt lat="45.95412" lon="4.75211">
        <ele>189</ele>
        <time>2017-07-06T09:35:04Z</time>
      </trkpt>
      <trkpt lat="45.95409" lon="4.75205">
        <ele>189</ele>
        <time>2017-07-06T09:35:05Z</time>
      </trkpt>
      <trkpt lat="45.95406" lon="4.752">
        <ele>189</ele>
        <time>2017-07-06T09:35:06Z</time>
      </trkpt>
      <trkpt lat="45.95403" lon="4.75195">
        <ele>189</ele>
        <time>2017-07-06T09:35:07Z</time>
      </trkpt>
      <trkpt lat="45.954" lon="4.7519">
        <ele>189</ele>
        <time>2017-07-06T09:35:08Z</time>
      </trkpt>
      <trkpt lat="45.95397" lon="4.75185">
        <ele>189</ele>
        <time>2017-07-06T09:35:09Z</time>
      </trkpt>
      <trkpt lat="45.95392" lon="4.75175">
        <ele>189</ele>
        <time>2017-07-06T09:35:11Z</time>
      </trkpt>
      <trkpt lat="45.95389" lon="4.7517">
        <ele>189</ele>
        <time>2017-07-06T09:35:12Z</time>
      </trkpt>
      <trkpt lat="45.95383" lon="4.7516">
        <ele>191</ele>
        <time>2017-07-06T09:35:14Z</time>
      </trkpt>
      <trkpt lat="45.95381" lon="4.75155">
        <ele>191</ele>
        <time>2017-07-06T09:35:15Z</time>
      </trkpt>
      <trkpt lat="45.95378" lon="4.7515">
        <ele>191</ele>
        <time>2017-07-06T09:35:16Z</time>
      </trkpt>
      <trkpt lat="45.95374" lon="4.75145">
        <ele>191</ele>
        <time>2017-07-06T09:35:17Z</time>
      </trkpt>
      <trkpt lat="45.95371" lon="4.7514">
        <ele>191</ele>
        <time>2017-07-06T09:35:18Z</time>
      </trkpt>
      <trkpt lat="45.95368" lon="4.75135">
        <ele>191</ele>
        <time>2017-07-06T09:35:19Z</time>
      </trkpt>
      <trkpt lat="45.95362" lon="4.75126">
        <ele>191</ele>
        <time>2017-07-06T09:35:21Z</time>
      </trkpt>
      <trkpt lat="45.95359" lon="4.75121">
        <ele>191</ele>
        <time>2017-07-06T09:35:22Z</time>
      </trkpt>
      <trkpt lat="45.95353" lon="4.75112">
        <ele>192</ele>
        <time>2017-07-06T09:35:24Z</time>
      </trkpt>
      <trkpt lat="45.9535" lon="4.75107">
        <ele>192</ele>
        <time>2017-07-06T09:35:25Z</time>
      </trkpt>
      <trkpt lat="45.95345" lon="4.75098">
        <ele>192</ele>
        <time>2017-07-06T09:35:27Z</time>
      </trkpt>
      <trkpt lat="45.95341" lon="4.75093">
        <ele>192</ele>
        <time>2017-07-06T09:35:28Z</time>
      </trkpt>
      <trkpt lat="45.95335" lon="4.75085">
        <ele>193</ele>
        <time>2017-07-06T09:35:30Z</time>
      </trkpt>
      <trkpt lat="45.95332" lon="4.7508">
        <ele>193</ele>
        <time>2017-07-06T09:35:31Z</time>
      </trkpt>
      <trkpt lat="45.95326" lon="4.7507">
        <ele>192</ele>
        <time>2017-07-06T09:35:33Z</time>
      </trkpt>
      <trkpt lat="45.95323" lon="4.75065">
        <ele>192</ele>
        <time>2017-07-06T09:35:34Z</time>
      </trkpt>
      <trkpt lat="45.95318" lon="4.75056">
        <ele>192</ele>
        <time>2017-07-06T09:35:36Z</time>
      </trkpt>
      <trkpt lat="45.95315" lon="4.75051">
        <ele>192</ele>
        <time>2017-07-06T09:35:37Z</time>
      </trkpt>
      <trkpt lat="45.95309" lon="4.75042">
        <ele>192</ele>
        <time>2017-07-06T09:35:39Z</time>
      </trkpt>
      <trkpt lat="45.95306" lon="4.75038">
        <ele>192</ele>
        <time>2017-07-06T09:35:40Z</time>
      </trkpt>
      <trkpt lat="45.953" lon="4.75028">
        <ele>192</ele>
        <time>2017-07-06T09:35:42Z</time>
      </trkpt>
      <trkpt lat="45.95298" lon="4.75024">
        <ele>192</ele>
        <time>2017-07-06T09:35:43Z</time>
      </trkpt>
      <trkpt lat="45.95292" lon="4.75016">
        <ele>191</ele>
        <time>2017-07-06T09:35:45Z</time>
      </trkpt>
      <trkpt lat="45.95289" lon="4.75011">
        <ele>191</ele>
        <time>2017-07-06T09:35:46Z</time>
      </trkpt>
      <trkpt lat="45.95283" lon="4.75002">
        <ele>191</ele>
        <time>2017-07-06T09:35:48Z</time>
      </trkpt>
      <trkpt lat="45.9528" lon="4.74997">
        <ele>192</ele>
        <time>2017-07-06T09:35:49Z</time>
      </trkpt>
      <trkpt lat="45.95277" lon="4.74992">
        <ele>192</ele>
        <time>2017-07-06T09:35:50Z</time>
      </trkpt>
      <trkpt lat="45.95274" lon="4.74987">
        <ele>192</ele>
        <time>2017-07-06T09:35:51Z</time>
      </trkpt>
      <trkpt lat="45.95271" lon="4.74982">
        <ele>192</ele>
        <time>2017-07-06T09:35:52Z</time>
      </trkpt>
      <trkpt lat="45.95268" lon="4.74977">
        <ele>192</ele>
        <time>2017-07-06T09:35:53Z</time>
      </trkpt>
      <trkpt lat="45.95265" lon="4.74972">
        <ele>192</ele>
        <time>2017-07-06T09:35:54Z</time>
      </trkpt>
      <trkpt lat="45.95262" lon="4.74967">
        <ele>192</ele>
        <time>2017-07-06T09:35:55Z</time>
      </trkpt>
      <trkpt lat="45.95256" lon="4.74958">
        <ele>192</ele>
        <time>2017-07-06T09:35:57Z</time>
      </trkpt>
      <trkpt lat="45.95253" lon="4.74954">
        <ele>192</ele>
        <time>2017-07-06T09:35:58Z</time>
      </trkpt>
      <trkpt lat="45.95247" lon="4.74945">
        <ele>192</ele>
        <time>2017-07-06T09:36:00Z</time>
      </trkpt>
      <trkpt lat="45.95244" lon="4.7494">
        <ele>192</ele>
        <time>2017-07-06T09:36:01Z</time>
      </trkpt>
      <trkpt lat="45.9524" lon="4.74935">
        <ele>192</ele>
        <time>2017-07-06T09:36:02Z</time>
      </trkpt>
      <trkpt lat="45.95237" lon="4.7493">
        <ele>192</ele>
        <time>2017-07-06T09:36:03Z</time>
      </trkpt>
      <trkpt lat="45.95234" lon="4.74925">
        <ele>192</ele>
        <time>2017-07-06T09:36:04Z</time>
      </trkpt>
      <trkpt lat="45.95231" lon="4.7492">
        <ele>192</ele>
        <time>2017-07-06T09:36:05Z</time>
      </trkpt>
      <trkpt lat="45.95224" lon="4.74911">
        <ele>193</ele>
        <time>2017-07-06T09:36:07Z</time>
      </trkpt>
      <trkpt lat="45.95221" lon="4.74907">
        <ele>193</ele>
        <time>2017-07-06T09:36:08Z</time>
      </trkpt>
      <trkpt lat="45.95216" lon="4.74898">
        <ele>193</ele>
        <time>2017-07-06T09:36:10Z</time>
      </trkpt>
      <trkpt lat="45.95213" lon="4.74893">
        <ele>193</ele>
        <time>2017-07-06T09:36:11Z</time>
      </trkpt>
      <trkpt lat="45.9521" lon="4.74888">
        <ele>193</ele>
        <time>2017-07-06T09:36:12Z</time>
      </trkpt>
      <trkpt lat="45.95207" lon="4.74883">
        <ele>194</ele>
        <time>2017-07-06T09:36:13Z</time>
      </trkpt>
      <trkpt lat="45.95204" lon="4.74878">
        <ele>194</ele>
        <time>2017-07-06T09:36:14Z</time>
      </trkpt>
      <trkpt lat="45.95201" lon="4.74872">
        <ele>194</ele>
        <time>2017-07-06T09:36:15Z</time>
      </trkpt>
      <trkpt lat="45.95198" lon="4.74867">
        <ele>194</ele>
        <time>2017-07-06T09:36:16Z</time>
      </trkpt>
      <trkpt lat="45.95195" lon="4.74862">
        <ele>194</ele>
        <time>2017-07-06T09:36:17Z</time>
      </trkpt>
      <trkpt lat="45.95192" lon="4.74857">
        <ele>194</ele>
        <time>2017-07-06T09:36:18Z</time>
      </trkpt>
      <trkpt lat="45.95188" lon="4.74852">
        <ele>194</ele>
        <time>2017-07-06T09:36:19Z</time>
      </trkpt>
      <trkpt lat="45.95185" lon="4.74847">
        <ele>194</ele>
        <time>2017-07-06T09:36:20Z</time>
      </trkpt>
      <trkpt lat="45.95182" lon="4.74842">
        <ele>194</ele>
        <time>2017-07-06T09:36:21Z</time>
      </trkpt>
      <trkpt lat="45.95178" lon="4.74837">
        <ele>194</ele>
        <time>2017-07-06T09:36:22Z</time>
      </trkpt>
      <trkpt lat="45.95175" lon="4.74831">
        <ele>194</ele>
        <time>2017-07-06T09:36:23Z</time>
      </trkpt>
      <trkpt lat="45.95171" lon="4.74825">
        <ele>194</ele>
        <time>2017-07-06T09:36:24Z</time>
      </trkpt>
      <trkpt lat="45.95167" lon="4.7482">
        <ele>194</ele>
        <time>2017-07-06T09:36:25Z</time>
      </trkpt>
      <trkpt lat="45.95163" lon="4.74814">
        <ele>194</ele>
        <time>2017-07-06T09:36:26Z</time>
      </trkpt>
      <trkpt lat="45.9516" lon="4.74809">
        <ele>194</ele>
        <time>2017-07-06T09:36:27Z</time>
      </trkpt>
      <trkpt lat="45.95157" lon="4.74803">
        <ele>194</ele>
        <time>2017-07-06T09:36:28Z</time>
      </trkpt>
      <trkpt lat="45.95153" lon="4.74798">
        <ele>194</ele>
        <time>2017-07-06T09:36:29Z</time>
      </trkpt>
      <trkpt lat="45.9515" lon="4.74793">
        <ele>194</ele>
        <time>2017-07-06T09:36:30Z</time>
      </trkpt>
      <trkpt lat="45.95147" lon="4.74788">
        <ele>194</ele>
        <time>2017-07-06T09:36:31Z</time>
      </trkpt>
      <trkpt lat="45.95144" lon="4.74783">
        <ele>194</ele>
        <time>2017-07-06T09:36:32Z</time>
      </trkpt>
      <trkpt lat="45.95141" lon="4.74777">
        <ele>194</ele>
        <time>2017-07-06T09:36:33Z</time>
      </trkpt>
      <trkpt lat="45.95137" lon="4.74772">
        <ele>194</ele>
        <time>2017-07-06T09:36:34Z</time>
      </trkpt>
      <trkpt lat="45.95134" lon="4.74767">
        <ele>194</ele>
        <time>2017-07-06T09:36:35Z</time>
      </trkpt>
      <trkpt lat="45.9513" lon="4.74761">
        <ele>194</ele>
        <time>2017-07-06T09:36:36Z</time>
      </trkpt>
      <trkpt lat="45.95127" lon="4.74755">
        <ele>194</ele>
        <time>2017-07-06T09:36:37Z</time>
      </trkpt>
      <trkpt lat="45.95123" lon="4.74749">
        <ele>194</ele>
        <time>2017-07-06T09:36:38Z</time>
      </trkpt>
      <trkpt lat="45.95119" lon="4.74743">
        <ele>194</ele>
        <time>2017-07-06T09:36:39Z</time>
      </trkpt>
      <trkpt lat="45.95115" lon="4.74737">
        <ele>194</ele>
        <time>2017-07-06T09:36:40Z</time>
      </trkpt>
      <trkpt lat="45.95112" lon="4.7473">
        <ele>194</ele>
        <time>2017-07-06T09:36:41Z</time>
      </trkpt>
      <trkpt lat="45.95108" lon="4.74723">
        <ele>194</ele>
        <time>2017-07-06T09:36:42Z</time>
      </trkpt>
      <trkpt lat="45.95105" lon="4.74717">
        <ele>194</ele>
        <time>2017-07-06T09:36:43Z</time>
      </trkpt>
      <trkpt lat="45.95102" lon="4.74711">
        <ele>194</ele>
        <time>2017-07-06T09:36:44Z</time>
      </trkpt>
      <trkpt lat="45.95098" lon="4.74705">
        <ele>194</ele>
        <time>2017-07-06T09:36:45Z</time>
      </trkpt>
      <trkpt lat="45.95095" lon="4.747">
        <ele>194</ele>
        <time>2017-07-06T09:36:46Z</time>
      </trkpt>
      <trkpt lat="45.95092" lon="4.74694">
        <ele>194</ele>
        <time>2017-07-06T09:36:47Z</time>
      </trkpt>
      <trkpt lat="45.95089" lon="4.74689">
        <ele>195</ele>
        <time>2017-07-06T09:36:48Z</time>
      </trkpt>
      <trkpt lat="45.95085" lon="4.74684">
        <ele>195</ele>
        <time>2017-07-06T09:36:49Z</time>
      </trkpt>
      <trkpt lat="45.95082" lon="4.74678">
        <ele>194</ele>
        <time>2017-07-06T09:36:50Z</time>
      </trkpt>
      <trkpt lat="45.95078" lon="4.74672">
        <ele>195</ele>
        <time>2017-07-06T09:36:51Z</time>
      </trkpt>
      <trkpt lat="45.95075" lon="4.74666">
        <ele>195</ele>
        <time>2017-07-06T09:36:52Z</time>
      </trkpt>
      <trkpt lat="45.95072" lon="4.7466">
        <ele>195</ele>
        <time>2017-07-06T09:36:53Z</time>
      </trkpt>
      <trkpt lat="45.95068" lon="4.74654">
        <ele>195</ele>
        <time>2017-07-06T09:36:54Z</time>
      </trkpt>
      <trkpt lat="45.95065" lon="4.74648">
        <ele>195</ele>
        <time>2017-07-06T09:36:55Z</time>
      </trkpt>
      <trkpt lat="45.95062" lon="4.74642">
        <ele>194</ele>
        <time>2017-07-06T09:36:56Z</time>
      </trkpt>
      <trkpt lat="45.95059" lon="4.74636">
        <ele>194</ele>
        <time>2017-07-06T09:36:57Z</time>
      </trkpt>
      <trkpt lat="45.95056" lon="4.7463">
        <ele>194</ele>
        <time>2017-07-06T09:36:58Z</time>
      </trkpt>
      <trkpt lat="45.95052" lon="4.74624">
        <ele>194</ele>
        <time>2017-07-06T09:36:59Z</time>
      </trkpt>
      <trkpt lat="45.95049" lon="4.74618">
        <ele>194</ele>
        <time>2017-07-06T09:37:00Z</time>
      </trkpt>
      <trkpt lat="45.95046" lon="4.74611">
        <ele>194</ele>
        <time>2017-07-06T09:37:01Z</time>
      </trkpt>
      <trkpt lat="45.95042" lon="4.74605">
        <ele>194</ele>
        <time>2017-07-06T09:37:02Z</time>
      </trkpt>
      <trkpt lat="45.95038" lon="4.74599">
        <ele>194</ele>
        <time>2017-07-06T09:37:03Z</time>
      </trkpt>
      <trkpt lat="45.95035" lon="4.74592">
        <ele>194</ele>
        <time>2017-07-06T09:37:04Z</time>
      </trkpt>
      <trkpt lat="45.95031" lon="4.74586">
        <ele>194</ele>
        <time>2017-07-06T09:37:05Z</time>
      </trkpt>
      <trkpt lat="45.95027" lon="4.7458">
        <ele>194</ele>
        <time>2017-07-06T09:37:06Z</time>
      </trkpt>
      <trkpt lat="45.95024" lon="4.74574">
        <ele>194</ele>
        <time>2017-07-06T09:37:07Z</time>
      </trkpt>
      <trkpt lat="45.95021" lon="4.74569">
        <ele>194</ele>
        <time>2017-07-06T09:37:08Z</time>
      </trkpt>
      <trkpt lat="45.95017" lon="4.74563">
        <ele>194</ele>
        <time>2017-07-06T09:37:09Z</time>
      </trkpt>
      <trkpt lat="45.95015" lon="4.74556">
        <ele>194</ele>
        <time>2017-07-06T09:37:10Z</time>
      </trkpt>
      <trkpt lat="45.95012" lon="4.7455">
        <ele>194</ele>
        <time>2017-07-06T09:37:11Z</time>
      </trkpt>
      <trkpt lat="45.95009" lon="4.74544">
        <ele>194</ele>
        <time>2017-07-06T09:37:12Z</time>
      </trkpt>
      <trkpt lat="45.95005" lon="4.74538">
        <ele>194</ele>
        <time>2017-07-06T09:37:13Z</time>
      </trkpt>
      <trkpt lat="45.95002" lon="4.74532">
        <ele>194</ele>
        <time>2017-07-06T09:37:14Z</time>
      </trkpt>
      <trkpt lat="45.94999" lon="4.74526">
        <ele>193</ele>
        <time>2017-07-06T09:37:15Z</time>
      </trkpt>
      <trkpt lat="45.94996" lon="4.74519">
        <ele>193</ele>
        <time>2017-07-06T09:37:16Z</time>
      </trkpt>
      <trkpt lat="45.94992" lon="4.74513">
        <ele>193</ele>
        <time>2017-07-06T09:37:17Z</time>
      </trkpt>
      <trkpt lat="45.94988" lon="4.74506">
        <ele>193</ele>
        <time>2017-07-06T09:37:18Z</time>
      </trkpt>
      <trkpt lat="45.94985" lon="4.74499">
        <ele>193</ele>
        <time>2017-07-06T09:37:19Z</time>
      </trkpt>
      <trkpt lat="45.94981" lon="4.74491">
        <ele>193</ele>
        <time>2017-07-06T09:37:20Z</time>
      </trkpt>
      <trkpt lat="45.94977" lon="4.74484">
        <ele>193</ele>
        <time>2017-07-06T09:37:21Z</time>
      </trkpt>
      <trkpt lat="45.94974" lon="4.74477">
        <ele>193</ele>
        <time>2017-07-06T09:37:22Z</time>
      </trkpt>
      <trkpt lat="45.9497" lon="4.7447">
        <ele>193</ele>
        <time>2017-07-06T09:37:23Z</time>
      </trkpt>
      <trkpt lat="45.94966" lon="4.74463">
        <ele>193</ele>
        <time>2017-07-06T09:37:24Z</time>
      </trkpt>
      <trkpt lat="45.94963" lon="4.74456">
        <ele>192</ele>
        <time>2017-07-06T09:37:25Z</time>
      </trkpt>
      <trkpt lat="45.94959" lon="4.7445">
        <ele>192</ele>
        <time>2017-07-06T09:37:26Z</time>
      </trkpt>
      <trkpt lat="45.94956" lon="4.74443">
        <ele>192</ele>
        <time>2017-07-06T09:37:27Z</time>
      </trkpt>
      <trkpt lat="45.94953" lon="4.74437">
        <ele>192</ele>
        <time>2017-07-06T09:37:28Z</time>
      </trkpt>
      <trkpt lat="45.94949" lon="4.7443">
        <ele>192</ele>
        <time>2017-07-06T09:37:29Z</time>
      </trkpt>
      <trkpt lat="45.94946" lon="4.74424">
        <ele>192</ele>
        <time>2017-07-06T09:37:30Z</time>
      </trkpt>
      <trkpt lat="45.94943" lon="4.74417">
        <ele>192</ele>
        <time>2017-07-06T09:37:31Z</time>
      </trkpt>
      <trkpt lat="45.94939" lon="4.74411">
        <ele>192</ele>
        <time>2017-07-06T09:37:32Z</time>
      </trkpt>
      <trkpt lat="45.94936" lon="4.74404">
        <ele>192</ele>
        <time>2017-07-06T09:37:33Z</time>
      </trkpt>
      <trkpt lat="45.94932" lon="4.74397">
        <ele>192</ele>
        <time>2017-07-06T09:37:34Z</time>
      </trkpt>
      <trkpt lat="45.94928" lon="4.7439">
        <ele>192</ele>
        <time>2017-07-06T09:37:35Z</time>
      </trkpt>
      <trkpt lat="45.94924" lon="4.74384">
        <ele>192</ele>
        <time>2017-07-06T09:37:36Z</time>
      </trkpt>
      <trkpt lat="45.9492" lon="4.74377">
        <ele>192</ele>
        <time>2017-07-06T09:37:37Z</time>
      </trkpt>
      <trkpt lat="45.94917" lon="4.7437">
        <ele>192</ele>
        <time>2017-07-06T09:37:38Z</time>
      </trkpt>
      <trkpt lat="45.94914" lon="4.74363">
        <ele>191</ele>
        <time>2017-07-06T09:37:39Z</time>
      </trkpt>
      <trkpt lat="45.9491" lon="4.74356">
        <ele>191</ele>
        <time>2017-07-06T09:37:40Z</time>
      </trkpt>
      <trkpt lat="45.94907" lon="4.74349">
        <ele>191</ele>
        <time>2017-07-06T09:37:41Z</time>
      </trkpt>
      <trkpt lat="45.94904" lon="4.74343">
        <ele>191</ele>
        <time>2017-07-06T09:37:42Z</time>
      </trkpt>
      <trkpt lat="45.949" lon="4.74337">
        <ele>191</ele>
        <time>2017-07-06T09:37:43Z</time>
      </trkpt>
      <trkpt lat="45.94897" lon="4.7433">
        <ele>191</ele>
        <time>2017-07-06T09:37:44Z</time>
      </trkpt>
      <trkpt lat="45.94894" lon="4.74323">
        <ele>191</ele>
        <time>2017-07-06T09:37:45Z</time>
      </trkpt>
      <trkpt lat="45.9489" lon="4.74316">
        <ele>191</ele>
        <time>2017-07-06T09:37:46Z</time>
      </trkpt>
      <trkpt lat="45.94887" lon="4.74309">
        <ele>191</ele>
        <time>2017-07-06T09:37:47Z</time>
      </trkpt>
      <trkpt lat="45.94883" lon="4.74302">
        <ele>191</ele>
        <time>2017-07-06T09:37:48Z</time>
      </trkpt>
      <trkpt lat="45.9488" lon="4.74295">
        <ele>191</ele>
        <time>2017-07-06T09:37:49Z</time>
      </trkpt>
      <trkpt lat="45.94876" lon="4.74288">
        <ele>191</ele>
        <time>2017-07-06T09:37:50Z</time>
      </trkpt>
      <trkpt lat="45.94873" lon="4.74281">
        <ele>191</ele>
        <time>2017-07-06T09:37:51Z</time>
      </trkpt>
      <trkpt lat="45.94869" lon="4.74275">
        <ele>191</ele>
        <time>2017-07-06T09:37:52Z</time>
      </trkpt>
      <trkpt lat="45.94866" lon="4.74268">
        <ele>190</ele>
        <time>2017-07-06T09:37:53Z</time>
      </trkpt>
      <trkpt lat="45.94862" lon="4.7426">
        <ele>190</ele>
        <time>2017-07-06T09:37:54Z</time>
      </trkpt>
      <trkpt lat="45.94858" lon="4.74252">
        <ele>190</ele>
        <time>2017-07-06T09:37:55Z</time>
      </trkpt>
      <trkpt lat="45.94853" lon="4.74243">
        <ele>190</ele>
        <time>2017-07-06T09:37:56Z</time>
      </trkpt>
      <trkpt lat="45.94849" lon="4.74235">
        <ele>190</ele>
        <time>2017-07-06T09:37:57Z</time>
      </trkpt>
      <trkpt lat="45.94845" lon="4.74227">
        <ele>190</ele>
        <time>2017-07-06T09:37:58Z</time>
      </trkpt>
      <trkpt lat="45.94841" lon="4.74219">
        <ele>190</ele>
        <time>2017-07-06T09:37:59Z</time>
      </trkpt>
      <trkpt lat="45.94836" lon="4.74212">
        <ele>190</ele>
        <time>2017-07-06T09:38:00Z</time>
      </trkpt>
      <trkpt lat="45.94832" lon="4.74204">
        <ele>189</ele>
        <time>2017-07-06T09:38:01Z</time>
      </trkpt>
      <trkpt lat="45.94828" lon="4.74197">
        <ele>189</ele>
        <time>2017-07-06T09:38:02Z</time>
      </trkpt>
      <trkpt lat="45.94824" lon="4.7419">
        <ele>189</ele>
        <time>2017-07-06T09:38:03Z</time>
      </trkpt>
      <trkpt lat="45.94821" lon="4.74183">
        <ele>189</ele>
        <time>2017-07-06T09:38:04Z</time>
      </trkpt>
      <trkpt lat="45.94816" lon="4.74176">
        <ele>189</ele>
        <time>2017-07-06T09:38:05Z</time>
      </trkpt>
      <trkpt lat="45.94812" lon="4.7417">
        <ele>189</ele>
        <time>2017-07-06T09:38:06Z</time>
      </trkpt>
      <trkpt lat="45.94808" lon="4.74164">
        <ele>189</ele>
        <time>2017-07-06T09:38:07Z</time>
      </trkpt>
      <trkpt lat="45.94805" lon="4.74157">
        <ele>189</ele>
        <time>2017-07-06T09:38:08Z</time>
      </trkpt>
      <trkpt lat="45.94801" lon="4.7415">
        <ele>189</ele>
        <time>2017-07-06T09:38:09Z</time>
      </trkpt>
      <trkpt lat="45.94797" lon="4.74143">
        <ele>189</ele>
        <time>2017-07-06T09:38:10Z</time>
      </trkpt>
      <trkpt lat="45.94792" lon="4.74136">
        <ele>189</ele>
        <time>2017-07-06T09:38:11Z</time>
      </trkpt>
      <trkpt lat="45.94788" lon="4.74129">
        <ele>189</ele>
        <time>2017-07-06T09:38:12Z</time>
      </trkpt>
      <trkpt lat="45.94784" lon="4.74123">
        <ele>189</ele>
        <time>2017-07-06T09:38:13Z</time>
      </trkpt>
      <trkpt lat="45.94779" lon="4.74117">
        <ele>189</ele>
        <time>2017-07-06T09:38:14Z</time>
      </trkpt>
      <trkpt lat="45.94776" lon="4.74111">
        <ele>189</ele>
        <time>2017-07-06T09:38:15Z</time>
      </trkpt>
      <trkpt lat="45.94772" lon="4.74106">
        <ele>189</ele>
        <time>2017-07-06T09:38:16Z</time>
      </trkpt>
      <trkpt lat="45.94768" lon="4.741">
        <ele>189</ele>
        <time>2017-07-06T09:38:17Z</time>
      </trkpt>
      <trkpt lat="45.94765" lon="4.74095">
        <ele>189</ele>
        <time>2017-07-06T09:38:18Z</time>
      </trkpt>
      <trkpt lat="45.94761" lon="4.7409">
        <ele>189</ele>
        <time>2017-07-06T09:38:19Z</time>
      </trkpt>
      <trkpt lat="45.94758" lon="4.74085">
        <ele>189</ele>
        <time>2017-07-06T09:38:20Z</time>
      </trkpt>
      <trkpt lat="45.94754" lon="4.74079">
        <ele>189</ele>
        <time>2017-07-06T09:38:21Z</time>
      </trkpt>
      <trkpt lat="45.94749" lon="4.74072">
        <ele>188</ele>
        <time>2017-07-06T09:38:22Z</time>
      </trkpt>
      <trkpt lat="45.94745" lon="4.74066">
        <ele>188</ele>
        <time>2017-07-06T09:38:23Z</time>
      </trkpt>
      <trkpt lat="45.94741" lon="4.74061">
        <ele>188</ele>
        <time>2017-07-06T09:38:24Z</time>
      </trkpt>
      <trkpt lat="45.94736" lon="4.74055">
        <ele>188</ele>
        <time>2017-07-06T09:38:25Z</time>
      </trkpt>
      <trkpt lat="45.94732" lon="4.7405">
        <ele>188</ele>
        <time>2017-07-06T09:38:26Z</time>
      </trkpt>
      <trkpt lat="45.94728" lon="4.74044">
        <ele>188</ele>
        <time>2017-07-06T09:38:27Z</time>
      </trkpt>
      <trkpt lat="45.94724" lon="4.74039">
        <ele>187</ele>
        <time>2017-07-06T09:38:28Z</time>
      </trkpt>
      <trkpt lat="45.9472" lon="4.74034">
        <ele>187</ele>
        <time>2017-07-06T09:38:29Z</time>
      </trkpt>
      <trkpt lat="45.94716" lon="4.74028">
        <ele>187</ele>
        <time>2017-07-06T09:38:30Z</time>
      </trkpt>
      <trkpt lat="45.94712" lon="4.74023">
        <ele>187</ele>
        <time>2017-07-06T09:38:31Z</time>
      </trkpt>
      <trkpt lat="45.94708" lon="4.74017">
        <ele>187</ele>
        <time>2017-07-06T09:38:32Z</time>
      </trkpt>
      <trkpt lat="45.94704" lon="4.74012">
        <ele>187</ele>
        <time>2017-07-06T09:38:33Z</time>
      </trkpt>
      <trkpt lat="45.947" lon="4.74007">
        <ele>187</ele>
        <time>2017-07-06T09:38:34Z</time>
      </trkpt>
      <trkpt lat="45.94696" lon="4.74001">
        <ele>187</ele>
        <time>2017-07-06T09:38:35Z</time>
      </trkpt>
      <trkpt lat="45.94691" lon="4.73996">
        <ele>187</ele>
        <time>2017-07-06T09:38:36Z</time>
      </trkpt>
      <trkpt lat="45.94686" lon="4.7399">
        <ele>187</ele>
        <time>2017-07-06T09:38:37Z</time>
      </trkpt>
      <trkpt lat="45.94682" lon="4.73984">
        <ele>187</ele>
        <time>2017-07-06T09:38:38Z</time>
      </trkpt>
      <trkpt lat="45.94678" lon="4.73978">
        <ele>187</ele>
        <time>2017-07-06T09:38:39Z</time>
      </trkpt>
      <trkpt lat="45.94673" lon="4.73972">
        <ele>187</ele>
        <time>2017-07-06T09:38:40Z</time>
      </trkpt>
      <trkpt lat="45.94669" lon="4.73967">
        <ele>187</ele>
        <time>2017-07-06T09:38:41Z</time>
      </trkpt>
      <trkpt lat="45.94665" lon="4.73961">
        <ele>187</ele>
        <time>2017-07-06T09:38:42Z</time>
      </trkpt>
      <trkpt lat="45.9466" lon="4.73955">
        <ele>187</ele>
        <time>2017-07-06T09:38:43Z</time>
      </trkpt>
      <trkpt lat="45.94656" lon="4.73949">
        <ele>187</ele>
        <time>2017-07-06T09:38:44Z</time>
      </trkpt>
      <trkpt lat="45.94651" lon="4.73944">
        <ele>187</ele>
        <time>2017-07-06T09:38:45Z</time>
      </trkpt>
      <trkpt lat="45.94647" lon="4.73938">
        <ele>187</ele>
        <time>2017-07-06T09:38:46Z</time>
      </trkpt>
      <trkpt lat="45.94643" lon="4.73933">
        <ele>187</ele>
        <time>2017-07-06T09:38:47Z</time>
      </trkpt>
      <trkpt lat="45.94639" lon="4.73927">
        <ele>187</ele>
        <time>2017-07-06T09:38:48Z</time>
      </trkpt>
      <trkpt lat="45.94635" lon="4.73922">
        <ele>187</ele>
        <time>2017-07-06T09:38:49Z</time>
      </trkpt>
      <trkpt lat="45.9463" lon="4.73917">
        <ele>187</ele>
        <time>2017-07-06T09:38:50Z</time>
      </trkpt>
      <trkpt lat="45.94626" lon="4.73911">
        <ele>187</ele>
        <time>2017-07-06T09:38:51Z</time>
      </trkpt>
      <trkpt lat="45.94622" lon="4.73905">
        <ele>187</ele>
        <time>2017-07-06T09:38:52Z</time>
      </trkpt>
      <trkpt lat="45.94618" lon="4.739">
        <ele>187</ele>
        <time>2017-07-06T09:38:53Z</time>
      </trkpt>
      <trkpt lat="45.94614" lon="4.73895">
        <ele>187</ele>
        <time>2017-07-06T09:38:54Z</time>
      </trkpt>
      <trkpt lat="45.9461" lon="4.7389">
        <ele>187</ele>
        <time>2017-07-06T09:38:55Z</time>
      </trkpt>
      <trkpt lat="45.94606" lon="4.73885">
        <ele>187</ele>
        <time>2017-07-06T09:38:56Z</time>
      </trkpt>
      <trkpt lat="45.94601" lon="4.7388">
        <ele>187</ele>
        <time>2017-07-06T09:38:57Z</time>
      </trkpt>
      <trkpt lat="45.94597" lon="4.73875">
        <ele>187</ele>
        <time>2017-07-06T09:38:58Z</time>
      </trkpt>
      <trkpt lat="45.94592" lon="4.7387">
        <ele>187</ele>
        <time>2017-07-06T09:38:59Z</time>
      </trkpt>
      <trkpt lat="45.94588" lon="4.73866">
        <ele>187</ele>
        <time>2017-07-06T09:39:00Z</time>
      </trkpt>
      <trkpt lat="45.94584" lon="4.73861">
        <ele>187</ele>
        <time>2017-07-06T09:39:01Z</time>
      </trkpt>
      <trkpt lat="45.94579" lon="4.73856">
        <ele>186</ele>
        <time>2017-07-06T09:39:02Z</time>
      </trkpt>
      <trkpt lat="45.94575" lon="4.73851">
        <ele>186</ele>
        <time>2017-07-06T09:39:03Z</time>
      </trkpt>
      <trkpt lat="45.94571" lon="4.73847">
        <ele>186</ele>
        <time>2017-07-06T09:39:04Z</time>
      </trkpt>
      <trkpt lat="45.94566" lon="4.73842">
        <ele>186</ele>
        <time>2017-07-06T09:39:05Z</time>
      </trkpt>
      <trkpt lat="45.94562" lon="4.73837">
        <ele>186</ele>
        <time>2017-07-06T09:39:06Z</time>
      </trkpt>
      <trkpt lat="45.94556" lon="4.73833">
        <ele>186</ele>
        <time>2017-07-06T09:39:07Z</time>
      </trkpt>
      <trkpt lat="45.94551" lon="4.73828">
        <ele>186</ele>
        <time>2017-07-06T09:39:08Z</time>
      </trkpt>
      <trkpt lat="45.94546" lon="4.73823">
        <ele>186</ele>
        <time>2017-07-06T09:39:09Z</time>
      </trkpt>
      <trkpt lat="45.94541" lon="4.73818">
        <ele>186</ele>
        <time>2017-07-06T09:39:10Z</time>
      </trkpt>
      <trkpt lat="45.94536" lon="4.73813">
        <ele>186</ele>
        <time>2017-07-06T09:39:11Z</time>
      </trkpt>
      <trkpt lat="45.94531" lon="4.73809">
        <ele>186</ele>
        <time>2017-07-06T09:39:12Z</time>
      </trkpt>
      <trkpt lat="45.94527" lon="4.73804">
        <ele>186</ele>
        <time>2017-07-06T09:39:13Z</time>
      </trkpt>
      <trkpt lat="45.94522" lon="4.738">
        <ele>186</ele>
        <time>2017-07-06T09:39:14Z</time>
      </trkpt>
      <trkpt lat="45.94518" lon="4.73795">
        <ele>186</ele>
        <time>2017-07-06T09:39:15Z</time>
      </trkpt>
      <trkpt lat="45.94513" lon="4.73791">
        <ele>186</ele>
        <time>2017-07-06T09:39:16Z</time>
      </trkpt>
      <trkpt lat="45.94509" lon="4.73786">
        <ele>186</ele>
        <time>2017-07-06T09:39:17Z</time>
      </trkpt>
      <trkpt lat="45.94505" lon="4.73781">
        <ele>186</ele>
        <time>2017-07-06T09:39:18Z</time>
      </trkpt>
      <trkpt lat="45.94501" lon="4.73776">
        <ele>186</ele>
        <time>2017-07-06T09:39:19Z</time>
      </trkpt>
      <trkpt lat="45.94497" lon="4.73771">
        <ele>186</ele>
        <time>2017-07-06T09:39:20Z</time>
      </trkpt>
      <trkpt lat="45.94494" lon="4.73766">
        <ele>186</ele>
        <time>2017-07-06T09:39:21Z</time>
      </trkpt>
      <trkpt lat="45.9449" lon="4.73756">
        <ele>186</ele>
        <time>2017-07-06T09:39:23Z</time>
      </trkpt>
      <trkpt lat="45.94489" lon="4.7375">
        <ele>186</ele>
        <time>2017-07-06T09:39:24Z</time>
      </trkpt>
      <trkpt lat="45.9449" lon="4.73737">
        <ele>186</ele>
        <time>2017-07-06T09:39:26Z</time>
      </trkpt>
      <trkpt lat="45.94491" lon="4.7373">
        <ele>186</ele>
        <time>2017-07-06T09:39:27Z</time>
      </trkpt>
      <trkpt lat="45.94492" lon="4.73722">
        <ele>186</ele>
        <time>2017-07-06T09:39:28Z</time>
      </trkpt>
      <trkpt lat="45.94493" lon="4.73714">
        <ele>186</ele>
        <time>2017-07-06T09:39:29Z</time>
      </trkpt>
      <trkpt lat="45.94493" lon="4.73705">
        <ele>186</ele>
        <time>2017-07-06T09:39:30Z</time>
      </trkpt>
      <trkpt lat="45.94494" lon="4.73697">
        <ele>186</ele>
        <time>2017-07-06T09:39:31Z</time>
      </trkpt>
      <trkpt lat="45.94496" lon="4.73689">
        <ele>186</ele>
        <time>2017-07-06T09:39:32Z</time>
      </trkpt>
      <trkpt lat="45.94497" lon="4.73681">
        <ele>185</ele>
        <time>2017-07-06T09:39:33Z</time>
      </trkpt>
      <trkpt lat="45.94498" lon="4.73672">
        <ele>185</ele>
        <time>2017-07-06T09:39:34Z</time>
      </trkpt>
      <trkpt lat="45.94498" lon="4.73663">
        <ele>185</ele>
        <time>2017-07-06T09:39:35Z</time>
      </trkpt>
      <trkpt lat="45.94499" lon="4.73655">
        <ele>185</ele>
        <time>2017-07-06T09:39:36Z</time>
      </trkpt>
      <trkpt lat="45.945" lon="4.73647">
        <ele>184</ele>
        <time>2017-07-06T09:39:37Z</time>
      </trkpt>
      <trkpt lat="45.94502" lon="4.73639">
        <ele>184</ele>
        <time>2017-07-06T09:39:38Z</time>
      </trkpt>
      <trkpt lat="45.94503" lon="4.73631">
        <ele>184</ele>
        <time>2017-07-06T09:39:39Z</time>
      </trkpt>
      <trkpt lat="45.94504" lon="4.73622">
        <ele>184</ele>
        <time>2017-07-06T09:39:40Z</time>
      </trkpt>
      <trkpt lat="45.94504" lon="4.73613">
        <ele>184</ele>
        <time>2017-07-06T09:39:41Z</time>
      </trkpt>
      <trkpt lat="45.94505" lon="4.73604">
        <ele>184</ele>
        <time>2017-07-06T09:39:42Z</time>
      </trkpt>
      <trkpt lat="45.94505" lon="4.73595">
        <ele>184</ele>
        <time>2017-07-06T09:39:43Z</time>
      </trkpt>
      <trkpt lat="45.94506" lon="4.73586">
        <ele>185</ele>
        <time>2017-07-06T09:39:44Z</time>
      </trkpt>
      <trkpt lat="45.94506" lon="4.73577">
        <ele>184</ele>
        <time>2017-07-06T09:39:45Z</time>
      </trkpt>
      <trkpt lat="45.94506" lon="4.73567">
        <ele>184</ele>
        <time>2017-07-06T09:39:46Z</time>
      </trkpt>
      <trkpt lat="45.94507" lon="4.73558">
        <ele>184</ele>
        <time>2017-07-06T09:39:47Z</time>
      </trkpt>
      <trkpt lat="45.94507" lon="4.73549">
        <ele>183</ele>
        <time>2017-07-06T09:39:48Z</time>
      </trkpt>
      <trkpt lat="45.94507" lon="4.7354">
        <ele>183</ele>
        <time>2017-07-06T09:39:49Z</time>
      </trkpt>
      <trkpt lat="45.94507" lon="4.7353">
        <ele>183</ele>
        <time>2017-07-06T09:39:50Z</time>
      </trkpt>
      <trkpt lat="45.94507" lon="4.73521">
        <ele>183</ele>
        <time>2017-07-06T09:39:51Z</time>
      </trkpt>
      <trkpt lat="45.94507" lon="4.73512">
        <ele>183</ele>
        <time>2017-07-06T09:39:52Z</time>
      </trkpt>
      <trkpt lat="45.94507" lon="4.73502">
        <ele>183</ele>
        <time>2017-07-06T09:39:53Z</time>
      </trkpt>
      <trkpt lat="45.94507" lon="4.73492">
        <ele>182</ele>
        <time>2017-07-06T09:39:54Z</time>
      </trkpt>
      <trkpt lat="45.94507" lon="4.73482">
        <ele>182</ele>
        <time>2017-07-06T09:39:55Z</time>
      </trkpt>
      <trkpt lat="45.94507" lon="4.73472">
        <ele>182</ele>
        <time>2017-07-06T09:39:56Z</time>
      </trkpt>
      <trkpt lat="45.94508" lon="4.73462">
        <ele>181</ele>
        <time>2017-07-06T09:39:57Z</time>
      </trkpt>
      <trkpt lat="45.94508" lon="4.73451">
        <ele>181</ele>
        <time>2017-07-06T09:39:58Z</time>
      </trkpt>
      <trkpt lat="45.94508" lon="4.73441">
        <ele>181</ele>
        <time>2017-07-06T09:39:59Z</time>
      </trkpt>
      <trkpt lat="45.94508" lon="4.7343">
        <ele>180</ele>
        <time>2017-07-06T09:40:00Z</time>
      </trkpt>
      <trkpt lat="45.94507" lon="4.7342">
        <ele>180</ele>
        <time>2017-07-06T09:40:01Z</time>
      </trkpt>
      <trkpt lat="45.94506" lon="4.73409">
        <ele>179</ele>
        <time>2017-07-06T09:40:02Z</time>
      </trkpt>
      <trkpt lat="45.94506" lon="4.73398">
        <ele>179</ele>
        <time>2017-07-06T09:40:03Z</time>
      </trkpt>
      <trkpt lat="45.94506" lon="4.73387">
        <ele>179</ele>
        <time>2017-07-06T09:40:04Z</time>
      </trkpt>
      <trkpt lat="45.94505" lon="4.73376">
        <ele>178</ele>
        <time>2017-07-06T09:40:05Z</time>
      </trkpt>
      <trkpt lat="45.94504" lon="4.73365">
        <ele>178</ele>
        <time>2017-07-06T09:40:06Z</time>
      </trkpt>
      <trkpt lat="45.94502" lon="4.73354">
        <ele>178</ele>
        <time>2017-07-06T09:40:07Z</time>
      </trkpt>
      <trkpt lat="45.94501" lon="4.73343">
        <ele>177</ele>
        <time>2017-07-06T09:40:08Z</time>
      </trkpt>
      <trkpt lat="45.945" lon="4.73332">
        <ele>177</ele>
        <time>2017-07-06T09:40:09Z</time>
      </trkpt>
      <trkpt lat="45.94499" lon="4.73321">
        <ele>177</ele>
        <time>2017-07-06T09:40:10Z</time>
      </trkpt>
      <trkpt lat="45.94498" lon="4.7331">
        <ele>177</ele>
        <time>2017-07-06T09:40:11Z</time>
      </trkpt>
      <trkpt lat="45.94496" lon="4.73298">
        <ele>177</ele>
        <time>2017-07-06T09:40:12Z</time>
      </trkpt>
      <trkpt lat="45.94495" lon="4.73286">
        <ele>177</ele>
        <time>2017-07-06T09:40:13Z</time>
      </trkpt>
      <trkpt lat="45.94493" lon="4.73275">
        <ele>177</ele>
        <time>2017-07-06T09:40:14Z</time>
      </trkpt>
      <trkpt lat="45.94491" lon="4.73264">
        <ele>176</ele>
        <time>2017-07-06T09:40:15Z</time>
      </trkpt>
      <trkpt lat="45.9449" lon="4.73253">
        <ele>176</ele>
        <time>2017-07-06T09:40:16Z</time>
      </trkpt>
      <trkpt lat="45.94489" lon="4.73241">
        <ele>175</ele>
        <time>2017-07-06T09:40:17Z</time>
      </trkpt>
      <trkpt lat="45.94487" lon="4.7323">
        <ele>175</ele>
        <time>2017-07-06T09:40:18Z</time>
      </trkpt>
      <trkpt lat="45.94486" lon="4.73218">
        <ele>175</ele>
        <time>2017-07-06T09:40:19Z</time>
      </trkpt>
      <trkpt lat="45.94484" lon="4.73206">
        <ele>175</ele>
        <time>2017-07-06T09:40:20Z</time>
      </trkpt>
      <trkpt lat="45.94482" lon="4.73193">
        <ele>174</ele>
        <time>2017-07-06T09:40:21Z</time>
      </trkpt>
      <trkpt lat="45.94481" lon="4.73181">
        <ele>174</ele>
        <time>2017-07-06T09:40:22Z</time>
      </trkpt>
      <trkpt lat="45.9448" lon="4.73169">
        <ele>174</ele>
        <time>2017-07-06T09:40:23Z</time>
      </trkpt>
      <trkpt lat="45.94479" lon="4.73158">
        <ele>173</ele>
        <time>2017-07-06T09:40:24Z</time>
      </trkpt>
      <trkpt lat="45.94478" lon="4.73147">
        <ele>172</ele>
        <time>2017-07-06T09:40:25Z</time>
      </trkpt>
      <trkpt lat="45.94477" lon="4.73136">
        <ele>172</ele>
        <time>2017-07-06T09:40:26Z</time>
      </trkpt>
      <trkpt lat="45.94476" lon="4.73125">
        <ele>172</ele>
        <time>2017-07-06T09:40:27Z</time>
      </trkpt>
      <trkpt lat="45.94474" lon="4.73115">
        <ele>172</ele>
        <time>2017-07-06T09:40:28Z</time>
      </trkpt>
      <trkpt lat="45.94473" lon="4.73104">
        <ele>172</ele>
        <time>2017-07-06T09:40:29Z</time>
      </trkpt>
      <trkpt lat="45.94472" lon="4.73094">
        <ele>172</ele>
        <time>2017-07-06T09:40:30Z</time>
      </trkpt>
      <trkpt lat="45.9447" lon="4.73084">
        <ele>172</ele>
        <time>2017-07-06T09:40:31Z</time>
      </trkpt>
      <trkpt lat="45.94468" lon="4.73074">
        <ele>170</ele>
        <time>2017-07-06T09:40:32Z</time>
      </trkpt>
      <trkpt lat="45.94466" lon="4.73065">
        <ele>170</ele>
        <time>2017-07-06T09:40:33Z</time>
      </trkpt>
      <trkpt lat="45.94465" lon="4.73056">
        <ele>170</ele>
        <time>2017-07-06T09:40:34Z</time>
      </trkpt>
      <trkpt lat="45.94463" lon="4.73048">
        <ele>170</ele>
        <time>2017-07-06T09:40:35Z</time>
      </trkpt>
      <trkpt lat="45.94461" lon="4.73039">
        <ele>170</ele>
        <time>2017-07-06T09:40:36Z</time>
      </trkpt>
      <trkpt lat="45.94459" lon="4.73032">
        <ele>169</ele>
        <time>2017-07-06T09:40:37Z</time>
      </trkpt>
      <trkpt lat="45.94458" lon="4.73024">
        <ele>169</ele>
        <time>2017-07-06T09:40:38Z</time>
      </trkpt>
      <trkpt lat="45.94457" lon="4.73016">
        <ele>169</ele>
        <time>2017-07-06T09:40:39Z</time>
      </trkpt>
      <trkpt lat="45.94455" lon="4.73007">
        <ele>169</ele>
        <time>2017-07-06T09:40:40Z</time>
      </trkpt>
      <trkpt lat="45.94454" lon="4.72999">
        <ele>168</ele>
        <time>2017-07-06T09:40:41Z</time>
      </trkpt>
      <trkpt lat="45.94453" lon="4.72991">
        <ele>167</ele>
        <time>2017-07-06T09:40:42Z</time>
      </trkpt>
      <trkpt lat="45.94451" lon="4.72982">
        <ele>167</ele>
        <time>2017-07-06T09:40:43Z</time>
      </trkpt>
      <trkpt lat="45.9445" lon="4.72973">
        <ele>167</ele>
        <time>2017-07-06T09:40:44Z</time>
      </trkpt>
      <trkpt lat="45.94448" lon="4.72965">
        <ele>167</ele>
        <time>2017-07-06T09:40:45Z</time>
      </trkpt>
      <trkpt lat="45.94447" lon="4.72956">
        <ele>167</ele>
        <time>2017-07-06T09:40:46Z</time>
      </trkpt>
      <trkpt lat="45.94446" lon="4.72948">
        <ele>167</ele>
        <time>2017-07-06T09:40:47Z</time>
      </trkpt>
      <trkpt lat="45.94445" lon="4.7294">
        <ele>167</ele>
        <time>2017-07-06T09:40:48Z</time>
      </trkpt>
      <trkpt lat="45.94444" lon="4.72932">
        <ele>167</ele>
        <time>2017-07-06T09:40:49Z</time>
      </trkpt>
      <trkpt lat="45.94443" lon="4.72924">
        <ele>167</ele>
        <time>2017-07-06T09:40:50Z</time>
      </trkpt>
      <trkpt lat="45.94442" lon="4.72916">
        <ele>166</ele>
        <time>2017-07-06T09:40:51Z</time>
      </trkpt>
      <trkpt lat="45.94441" lon="4.72909">
        <ele>166</ele>
        <time>2017-07-06T09:40:52Z</time>
      </trkpt>
      <trkpt lat="45.9444" lon="4.72901">
        <ele>166</ele>
        <time>2017-07-06T09:40:53Z</time>
      </trkpt>
      <trkpt lat="45.94439" lon="4.72894">
        <ele>166</ele>
        <time>2017-07-06T09:40:54Z</time>
      </trkpt>
      <trkpt lat="45.94438" lon="4.72887">
        <ele>166</ele>
        <time>2017-07-06T09:40:55Z</time>
      </trkpt>
      <trkpt lat="45.94437" lon="4.7288">
        <ele>166</ele>
        <time>2017-07-06T09:40:56Z</time>
      </trkpt>
      <trkpt lat="45.94436" lon="4.72873">
        <ele>166</ele>
        <time>2017-07-06T09:40:57Z</time>
      </trkpt>
      <trkpt lat="45.94435" lon="4.72865">
        <ele>166</ele>
        <time>2017-07-06T09:40:58Z</time>
      </trkpt>
      <trkpt lat="45.94435" lon="4.72858">
        <ele>166</ele>
        <time>2017-07-06T09:40:59Z</time>
      </trkpt>
      <trkpt lat="45.94434" lon="4.7285">
        <ele>166</ele>
        <time>2017-07-06T09:41:00Z</time>
      </trkpt>
      <trkpt lat="45.94433" lon="4.72842">
        <ele>166</ele>
        <time>2017-07-06T09:41:01Z</time>
      </trkpt>
      <trkpt lat="45.94432" lon="4.72833">
        <ele>167</ele>
        <time>2017-07-06T09:41:02Z</time>
      </trkpt>
      <trkpt lat="45.9443" lon="4.72825">
        <ele>167</ele>
        <time>2017-07-06T09:41:03Z</time>
      </trkpt>
      <trkpt lat="45.94429" lon="4.72816">
        <ele>167</ele>
        <time>2017-07-06T09:41:04Z</time>
      </trkpt>
      <trkpt lat="45.94428" lon="4.72806">
        <ele>167</ele>
        <time>2017-07-06T09:41:05Z</time>
      </trkpt>
      <trkpt lat="45.94427" lon="4.72796">
        <ele>167</ele>
        <time>2017-07-06T09:41:06Z</time>
      </trkpt>
      <trkpt lat="45.94425" lon="4.72787">
        <ele>168</ele>
        <time>2017-07-06T09:41:07Z</time>
      </trkpt>
      <trkpt lat="45.94424" lon="4.72777">
        <ele>168</ele>
        <time>2017-07-06T09:41:08Z</time>
      </trkpt>
      <trkpt lat="45.94422" lon="4.72767">
        <ele>169</ele>
        <time>2017-07-06T09:41:09Z</time>
      </trkpt>
      <trkpt lat="45.94421" lon="4.72756">
        <ele>170</ele>
        <time>2017-07-06T09:41:10Z</time>
      </trkpt>
      <trkpt lat="45.94419" lon="4.72746">
        <ele>171</ele>
        <time>2017-07-06T09:41:11Z</time>
      </trkpt>
      <trkpt lat="45.94418" lon="4.72736">
        <ele>171</ele>
        <time>2017-07-06T09:41:12Z</time>
      </trkpt>
      <trkpt lat="45.94416" lon="4.72726">
        <ele>172</ele>
        <time>2017-07-06T09:41:13Z</time>
      </trkpt>
      <trkpt lat="45.94416" lon="4.72716">
        <ele>172</ele>
        <time>2017-07-06T09:41:14Z</time>
      </trkpt>
      <trkpt lat="45.94414" lon="4.72707">
        <ele>172</ele>
        <time>2017-07-06T09:41:15Z</time>
      </trkpt>
      <trkpt lat="45.94413" lon="4.72697">
        <ele>173</ele>
        <time>2017-07-06T09:41:16Z</time>
      </trkpt>
      <trkpt lat="45.94412" lon="4.72688">
        <ele>173</ele>
        <time>2017-07-06T09:41:17Z</time>
      </trkpt>
      <trkpt lat="45.94411" lon="4.72678">
        <ele>173</ele>
        <time>2017-07-06T09:41:18Z</time>
      </trkpt>
      <trkpt lat="45.9441" lon="4.72668">
        <ele>173</ele>
        <time>2017-07-06T09:41:19Z</time>
      </trkpt>
      <trkpt lat="45.94409" lon="4.72659">
        <ele>174</ele>
        <time>2017-07-06T09:41:20Z</time>
      </trkpt>
      <trkpt lat="45.94408" lon="4.72649">
        <ele>174</ele>
        <time>2017-07-06T09:41:21Z</time>
      </trkpt>
      <trkpt lat="45.94407" lon="4.72639">
        <ele>174</ele>
        <time>2017-07-06T09:41:22Z</time>
      </trkpt>
      <trkpt lat="45.94406" lon="4.7263">
        <ele>174</ele>
        <time>2017-07-06T09:41:23Z</time>
      </trkpt>
      <trkpt lat="45.94405" lon="4.72621">
        <ele>173</ele>
        <time>2017-07-06T09:41:24Z</time>
      </trkpt>
      <trkpt lat="45.94404" lon="4.72612">
        <ele>173</ele>
        <time>2017-07-06T09:41:25Z</time>
      </trkpt>
      <trkpt lat="45.94403" lon="4.72603">
        <ele>173</ele>
        <time>2017-07-06T09:41:26Z</time>
      </trkpt>
      <trkpt lat="45.94402" lon="4.72595">
        <ele>173</ele>
        <time>2017-07-06T09:41:27Z</time>
      </trkpt>
      <trkpt lat="45.944" lon="4.72586">
        <ele>173</ele>
        <time>2017-07-06T09:41:28Z</time>
      </trkpt>
      <trkpt lat="45.94399" lon="4.72578">
        <ele>173</ele>
        <time>2017-07-06T09:41:29Z</time>
      </trkpt>
      <trkpt lat="45.94397" lon="4.7257">
        <ele>173</ele>
        <time>2017-07-06T09:41:30Z</time>
      </trkpt>
      <trkpt lat="45.94396" lon="4.72561">
        <ele>173</ele>
        <time>2017-07-06T09:41:31Z</time>
      </trkpt>
      <trkpt lat="45.94394" lon="4.72552">
        <ele>173</ele>
        <time>2017-07-06T09:41:32Z</time>
      </trkpt>
      <trkpt lat="45.94392" lon="4.72542">
        <ele>173</ele>
        <time>2017-07-06T09:41:33Z</time>
      </trkpt>
      <trkpt lat="45.9439" lon="4.72533">
        <ele>174</ele>
        <time>2017-07-06T09:41:34Z</time>
      </trkpt>
      <trkpt lat="45.94388" lon="4.72525">
        <ele>174</ele>
        <time>2017-07-06T09:41:35Z</time>
      </trkpt>
      <trkpt lat="45.94386" lon="4.72517">
        <ele>174</ele>
        <time>2017-07-06T09:41:36Z</time>
      </trkpt>
      <trkpt lat="45.94384" lon="4.72509">
        <ele>174</ele>
        <time>2017-07-06T09:41:37Z</time>
      </trkpt>
      <trkpt lat="45.94381" lon="4.72501">
        <ele>174</ele>
        <time>2017-07-06T09:41:38Z</time>
      </trkpt>
      <trkpt lat="45.94378" lon="4.72493">
        <ele>173</ele>
        <time>2017-07-06T09:41:39Z</time>
      </trkpt>
      <trkpt lat="45.94376" lon="4.72486">
        <ele>173</ele>
        <time>2017-07-06T09:41:40Z</time>
      </trkpt>
      <trkpt lat="45.94373" lon="4.72479">
        <ele>173</ele>
        <time>2017-07-06T09:41:41Z</time>
      </trkpt>
      <trkpt lat="45.94371" lon="4.72473">
        <ele>173</ele>
        <time>2017-07-06T09:41:42Z</time>
      </trkpt>
      <trkpt lat="45.94369" lon="4.72466">
        <ele>173</ele>
        <time>2017-07-06T09:41:43Z</time>
      </trkpt>
      <trkpt lat="45.94367" lon="4.72459">
        <ele>173</ele>
        <time>2017-07-06T09:41:44Z</time>
      </trkpt>
      <trkpt lat="45.94364" lon="4.72453">
        <ele>173</ele>
        <time>2017-07-06T09:41:45Z</time>
      </trkpt>
      <trkpt lat="45.94361" lon="4.72445">
        <ele>173</ele>
        <time>2017-07-06T09:41:46Z</time>
      </trkpt>
      <trkpt lat="45.94359" lon="4.72438">
        <ele>173</ele>
        <time>2017-07-06T09:41:47Z</time>
      </trkpt>
      <trkpt lat="45.94357" lon="4.72431">
        <ele>173</ele>
        <time>2017-07-06T09:41:48Z</time>
      </trkpt>
      <trkpt lat="45.94354" lon="4.72425">
        <ele>173</ele>
        <time>2017-07-06T09:41:49Z</time>
      </trkpt>
      <trkpt lat="45.94352" lon="4.72418">
        <ele>173</ele>
        <time>2017-07-06T09:41:50Z</time>
      </trkpt>
      <trkpt lat="45.9435" lon="4.72412">
        <ele>173</ele>
        <time>2017-07-06T09:41:51Z</time>
      </trkpt>
      <trkpt lat="45.94347" lon="4.72406">
        <ele>173</ele>
        <time>2017-07-06T09:41:52Z</time>
      </trkpt>
      <trkpt lat="45.94344" lon="4.72401">
        <ele>172</ele>
        <time>2017-07-06T09:41:53Z</time>
      </trkpt>
      <trkpt lat="45.94342" lon="4.72394">
        <ele>172</ele>
        <time>2017-07-06T09:41:54Z</time>
      </trkpt>
      <trkpt lat="45.9434" lon="4.72388">
        <ele>172</ele>
        <time>2017-07-06T09:41:55Z</time>
      </trkpt>
      <trkpt lat="45.94337" lon="4.72381">
        <ele>172</ele>
        <time>2017-07-06T09:41:56Z</time>
      </trkpt>
      <trkpt lat="45.94333" lon="4.72374">
        <ele>172</ele>
        <time>2017-07-06T09:41:57Z</time>
      </trkpt>
      <trkpt lat="45.9433" lon="4.72367">
        <ele>172</ele>
        <time>2017-07-06T09:41:58Z</time>
      </trkpt>
      <trkpt lat="45.94328" lon="4.7236">
        <ele>172</ele>
        <time>2017-07-06T09:41:59Z</time>
      </trkpt>
      <trkpt lat="45.94325" lon="4.72353">
        <ele>172</ele>
        <time>2017-07-06T09:42:00Z</time>
      </trkpt>
      <trkpt lat="45.94322" lon="4.72346">
        <ele>172</ele>
        <time>2017-07-06T09:42:01Z</time>
      </trkpt>
      <trkpt lat="45.94318" lon="4.72339">
        <ele>172</ele>
        <time>2017-07-06T09:42:02Z</time>
      </trkpt>
      <trkpt lat="45.94315" lon="4.72332">
        <ele>172</ele>
        <time>2017-07-06T09:42:03Z</time>
      </trkpt>
      <trkpt lat="45.94312" lon="4.72325">
        <ele>172</ele>
        <time>2017-07-06T09:42:04Z</time>
      </trkpt>
      <trkpt lat="45.94309" lon="4.72318">
        <ele>171</ele>
        <time>2017-07-06T09:42:05Z</time>
      </trkpt>
      <trkpt lat="45.94307" lon="4.72311">
        <ele>171</ele>
        <time>2017-07-06T09:42:06Z</time>
      </trkpt>
      <trkpt lat="45.94303" lon="4.72304">
        <ele>171</ele>
        <time>2017-07-06T09:42:07Z</time>
      </trkpt>
      <trkpt lat="45.943" lon="4.72297">
        <ele>171</ele>
        <time>2017-07-06T09:42:08Z</time>
      </trkpt>
      <trkpt lat="45.94298" lon="4.72291">
        <ele>171</ele>
        <time>2017-07-06T09:42:09Z</time>
      </trkpt>
      <trkpt lat="45.94295" lon="4.72285">
        <ele>171</ele>
        <time>2017-07-06T09:42:10Z</time>
      </trkpt>
      <trkpt lat="45.94291" lon="4.72279">
        <ele>171</ele>
        <time>2017-07-06T09:42:11Z</time>
      </trkpt>
      <trkpt lat="45.94286" lon="4.72275">
        <ele>171</ele>
        <time>2017-07-06T09:42:12Z</time>
      </trkpt>
      <trkpt lat="45.9428" lon="4.72272">
        <ele>171</ele>
        <time>2017-07-06T09:42:13Z</time>
      </trkpt>
      <trkpt lat="45.94273" lon="4.72271">
        <ele>171</ele>
        <time>2017-07-06T09:42:14Z</time>
      </trkpt>
      <trkpt lat="45.94267" lon="4.72272">
        <ele>171</ele>
        <time>2017-07-06T09:42:15Z</time>
      </trkpt>
      <trkpt lat="45.94262" lon="4.72274">
        <ele>171</ele>
        <time>2017-07-06T09:42:16Z</time>
      </trkpt>
      <trkpt lat="45.94256" lon="4.72276">
        <ele>171</ele>
        <time>2017-07-06T09:42:17Z</time>
      </trkpt>
      <trkpt lat="45.9425" lon="4.72278">
        <ele>171</ele>
        <time>2017-07-06T09:42:18Z</time>
      </trkpt>
      <trkpt lat="45.94245" lon="4.72279">
        <ele>171</ele>
        <time>2017-07-06T09:42:19Z</time>
      </trkpt>
      <trkpt lat="45.94239" lon="4.72281">
        <ele>171</ele>
        <time>2017-07-06T09:42:20Z</time>
      </trkpt>
      <trkpt lat="45.94234" lon="4.72283">
        <ele>171</ele>
        <time>2017-07-06T09:42:21Z</time>
      </trkpt>
      <trkpt lat="45.94229" lon="4.72285">
        <ele>171</ele>
        <time>2017-07-06T09:42:22Z</time>
      </trkpt>
      <trkpt lat="45.94224" lon="4.72286">
        <ele>171</ele>
        <time>2017-07-06T09:42:23Z</time>
      </trkpt>
      <trkpt lat="45.94219" lon="4.72287">
        <ele>171</ele>
        <time>2017-07-06T09:42:24Z</time>
      </trkpt>
      <trkpt lat="45.94214" lon="4.72288">
        <ele>171</ele>
        <time>2017-07-06T09:42:25Z</time>
      </trkpt>
      <trkpt lat="45.94208" lon="4.72288">
        <ele>171</ele>
        <time>2017-07-06T09:42:26Z</time>
      </trkpt>
      <trkpt lat="45.94203" lon="4.72289">
        <ele>171</ele>
        <time>2017-07-06T09:42:27Z</time>
      </trkpt>
      <trkpt lat="45.94197" lon="4.72289">
        <ele>171</ele>
        <time>2017-07-06T09:42:28Z</time>
      </trkpt>
      <trkpt lat="45.94191" lon="4.72289">
        <ele>171</ele>
        <time>2017-07-06T09:42:29Z</time>
      </trkpt>
      <trkpt lat="45.94185" lon="4.72288">
        <ele>171</ele>
        <time>2017-07-06T09:42:30Z</time>
      </trkpt>
      <trkpt lat="45.94179" lon="4.72288">
        <ele>171</ele>
        <time>2017-07-06T09:42:31Z</time>
      </trkpt>
      <trkpt lat="45.94174" lon="4.72287">
        <ele>171</ele>
        <time>2017-07-06T09:42:32Z</time>
      </trkpt>
      <trkpt lat="45.94169" lon="4.72287">
        <ele>171</ele>
        <time>2017-07-06T09:42:33Z</time>
      </trkpt>
      <trkpt lat="45.94164" lon="4.72285">
        <ele>171</ele>
        <time>2017-07-06T09:42:34Z</time>
      </trkpt>
      <trkpt lat="45.94159" lon="4.72284">
        <ele>171</ele>
        <time>2017-07-06T09:42:35Z</time>
      </trkpt>
      <trkpt lat="45.94154" lon="4.72283">
        <ele>171</ele>
        <time>2017-07-06T09:42:36Z</time>
      </trkpt>
      <trkpt lat="45.94149" lon="4.72281">
        <ele>171</ele>
        <time>2017-07-06T09:42:37Z</time>
      </trkpt>
      <trkpt lat="45.94144" lon="4.72279">
        <ele>171</ele>
        <time>2017-07-06T09:42:38Z</time>
      </trkpt>
      <trkpt lat="45.94139" lon="4.72276">
        <ele>171</ele>
        <time>2017-07-06T09:42:39Z</time>
      </trkpt>
      <trkpt lat="45.94134" lon="4.72273">
        <ele>171</ele>
        <time>2017-07-06T09:42:40Z</time>
      </trkpt>
      <trkpt lat="45.94129" lon="4.7227">
        <ele>171</ele>
        <time>2017-07-06T09:42:41Z</time>
      </trkpt>
      <trkpt lat="45.94124" lon="4.72267">
        <ele>171</ele>
        <time>2017-07-06T09:42:42Z</time>
      </trkpt>
      <trkpt lat="45.94118" lon="4.72265">
        <ele>171</ele>
        <time>2017-07-06T09:42:43Z</time>
      </trkpt>
      <trkpt lat="45.94113" lon="4.72264">
        <ele>171</ele>
        <time>2017-07-06T09:42:44Z</time>
      </trkpt>
      <trkpt lat="45.94107" lon="4.72263">
        <ele>171</ele>
        <time>2017-07-06T09:42:45Z</time>
      </trkpt>
      <trkpt lat="45.94101" lon="4.72263">
        <ele>171</ele>
        <time>2017-07-06T09:42:46Z</time>
      </trkpt>
      <trkpt lat="45.94096" lon="4.72263">
        <ele>171</ele>
        <time>2017-07-06T09:42:47Z</time>
      </trkpt>
      <trkpt lat="45.9409" lon="4.72265">
        <ele>171</ele>
        <time>2017-07-06T09:42:48Z</time>
      </trkpt>
      <trkpt lat="45.94084" lon="4.72267">
        <ele>171</ele>
        <time>2017-07-06T09:42:49Z</time>
      </trkpt>
      <trkpt lat="45.94078" lon="4.7227">
        <ele>171</ele>
        <time>2017-07-06T09:42:50Z</time>
      </trkpt>
      <trkpt lat="45.94073" lon="4.72274">
        <ele>171</ele>
        <time>2017-07-06T09:42:51Z</time>
      </trkpt>
      <trkpt lat="45.94068" lon="4.72279">
        <ele>171</ele>
        <time>2017-07-06T09:42:52Z</time>
      </trkpt>
      <trkpt lat="45.94063" lon="4.72285">
        <ele>171</ele>
        <time>2017-07-06T09:42:53Z</time>
      </trkpt>
      <trkpt lat="45.94059" lon="4.7229">
        <ele>171</ele>
        <time>2017-07-06T09:42:54Z</time>
      </trkpt>
      <trkpt lat="45.94055" lon="4.72296">
        <ele>171</ele>
        <time>2017-07-06T09:42:55Z</time>
      </trkpt>
      <trkpt lat="45.94051" lon="4.72301">
        <ele>171</ele>
        <time>2017-07-06T09:42:56Z</time>
      </trkpt>
      <trkpt lat="45.94046" lon="4.72306">
        <ele>171</ele>
        <time>2017-07-06T09:42:57Z</time>
      </trkpt>
      <trkpt lat="45.94042" lon="4.72311">
        <ele>171</ele>
        <time>2017-07-06T09:42:58Z</time>
      </trkpt>
      <trkpt lat="45.94038" lon="4.72316">
        <ele>171</ele>
        <time>2017-07-06T09:42:59Z</time>
      </trkpt>
      <trkpt lat="45.94034" lon="4.72321">
        <ele>171</ele>
        <time>2017-07-06T09:43:00Z</time>
      </trkpt>
      <trkpt lat="45.9403" lon="4.72326">
        <ele>171</ele>
        <time>2017-07-06T09:43:01Z</time>
      </trkpt>
      <trkpt lat="45.94026" lon="4.72332">
        <ele>171</ele>
        <time>2017-07-06T09:43:02Z</time>
      </trkpt>
      <trkpt lat="45.94021" lon="4.72337">
        <ele>171</ele>
        <time>2017-07-06T09:43:03Z</time>
      </trkpt>
      <trkpt lat="45.94017" lon="4.72343">
        <ele>171</ele>
        <time>2017-07-06T09:43:04Z</time>
      </trkpt>
      <trkpt lat="45.94013" lon="4.72348">
        <ele>171</ele>
        <time>2017-07-06T09:43:05Z</time>
      </trkpt>
      <trkpt lat="45.94008" lon="4.72354">
        <ele>171</ele>
        <time>2017-07-06T09:43:06Z</time>
      </trkpt>
      <trkpt lat="45.94004" lon="4.7236">
        <ele>171</ele>
        <time>2017-07-06T09:43:07Z</time>
      </trkpt>
      <trkpt lat="45.93999" lon="4.72365">
        <ele>171</ele>
        <time>2017-07-06T09:43:08Z</time>
      </trkpt>
      <trkpt lat="45.93994" lon="4.72371">
        <ele>171</ele>
        <time>2017-07-06T09:43:09Z</time>
      </trkpt>
      <trkpt lat="45.9399" lon="4.72376">
        <ele>171</ele>
        <time>2017-07-06T09:43:10Z</time>
      </trkpt>
      <trkpt lat="45.93986" lon="4.72381">
        <ele>171</ele>
        <time>2017-07-06T09:43:11Z</time>
      </trkpt>
      <trkpt lat="45.93981" lon="4.72386">
        <ele>171</ele>
        <time>2017-07-06T09:43:12Z</time>
      </trkpt>
      <trkpt lat="45.93978" lon="4.72391">
        <ele>171</ele>
        <time>2017-07-06T09:43:13Z</time>
      </trkpt>
      <trkpt lat="45.93974" lon="4.72395">
        <ele>171</ele>
        <time>2017-07-06T09:43:14Z</time>
      </trkpt>
      <trkpt lat="45.93971" lon="4.72401">
        <ele>171</ele>
        <time>2017-07-06T09:43:15Z</time>
      </trkpt>
      <trkpt lat="45.93966" lon="4.72406">
        <ele>171</ele>
        <time>2017-07-06T09:43:16Z</time>
      </trkpt>
      <trkpt lat="45.93962" lon="4.7241">
        <ele>171</ele>
        <time>2017-07-06T09:43:17Z</time>
      </trkpt>
      <trkpt lat="45.93959" lon="4.72415">
        <ele>171</ele>
        <time>2017-07-06T09:43:18Z</time>
      </trkpt>
      <trkpt lat="45.93955" lon="4.72419">
        <ele>171</ele>
        <time>2017-07-06T09:43:19Z</time>
      </trkpt>
      <trkpt lat="45.93952" lon="4.72424">
        <ele>171</ele>
        <time>2017-07-06T09:43:20Z</time>
      </trkpt>
      <trkpt lat="45.93948" lon="4.72428">
        <ele>171</ele>
        <time>2017-07-06T09:43:21Z</time>
      </trkpt>
      <trkpt lat="45.93945" lon="4.72433">
        <ele>171</ele>
        <time>2017-07-06T09:43:22Z</time>
      </trkpt>
      <trkpt lat="45.93941" lon="4.72438">
        <ele>171</ele>
        <time>2017-07-06T09:43:23Z</time>
      </trkpt>
      <trkpt lat="45.93938" lon="4.72443">
        <ele>171</ele>
        <time>2017-07-06T09:43:24Z</time>
      </trkpt>
      <trkpt lat="45.93934" lon="4.72448">
        <ele>171</ele>
        <time>2017-07-06T09:43:25Z</time>
      </trkpt>
      <trkpt lat="45.9393" lon="4.72454">
        <ele>171</ele>
        <time>2017-07-06T09:43:26Z</time>
      </trkpt>
      <trkpt lat="45.93925" lon="4.72459">
        <ele>171</ele>
        <time>2017-07-06T09:43:27Z</time>
      </trkpt>
      <trkpt lat="45.9392" lon="4.72465">
        <ele>171</ele>
        <time>2017-07-06T09:43:28Z</time>
      </trkpt>
      <trkpt lat="45.93916" lon="4.7247">
        <ele>172</ele>
        <time>2017-07-06T09:43:29Z</time>
      </trkpt>
      <trkpt lat="45.93912" lon="4.72475">
        <ele>172</ele>
        <time>2017-07-06T09:43:30Z</time>
      </trkpt>
      <trkpt lat="45.93907" lon="4.7248">
        <ele>172</ele>
        <time>2017-07-06T09:43:31Z</time>
      </trkpt>
      <trkpt lat="45.93903" lon="4.72486">
        <ele>172</ele>
        <time>2017-07-06T09:43:32Z</time>
      </trkpt>
      <trkpt lat="45.93899" lon="4.7249">
        <ele>172</ele>
        <time>2017-07-06T09:43:33Z</time>
      </trkpt>
      <trkpt lat="45.93896" lon="4.72495">
        <ele>172</ele>
        <time>2017-07-06T09:43:34Z</time>
      </trkpt>
      <trkpt lat="45.93892" lon="4.72499">
        <ele>172</ele>
        <time>2017-07-06T09:43:35Z</time>
      </trkpt>
      <trkpt lat="45.93888" lon="4.72503">
        <ele>173</ele>
        <time>2017-07-06T09:43:36Z</time>
      </trkpt>
      <trkpt lat="45.93884" lon="4.72507">
        <ele>173</ele>
        <time>2017-07-06T09:43:37Z</time>
      </trkpt>
      <trkpt lat="45.93877" lon="4.72513">
        <ele>173</ele>
        <time>2017-07-06T09:43:39Z</time>
      </trkpt>
      <trkpt lat="45.93873" lon="4.72514">
        <ele>173</ele>
        <time>2017-07-06T09:43:40Z</time>
      </trkpt>
      <trkpt lat="45.93865" lon="4.72512">
        <ele>173</ele>
        <time>2017-07-06T09:43:42Z</time>
      </trkpt>
      <trkpt lat="45.93862" lon="4.72509">
        <ele>173</ele>
        <time>2017-07-06T09:43:43Z</time>
      </trkpt>
      <trkpt lat="45.93855" lon="4.72504">
        <ele>173</ele>
        <time>2017-07-06T09:43:45Z</time>
      </trkpt>
      <trkpt lat="45.93851" lon="4.72501">
        <ele>174</ele>
        <time>2017-07-06T09:43:46Z</time>
      </trkpt>
      <trkpt lat="45.93843" lon="4.72498">
        <ele>173</ele>
        <time>2017-07-06T09:43:48Z</time>
      </trkpt>
      <trkpt lat="45.93839" lon="4.72497">
        <ele>174</ele>
        <time>2017-07-06T09:43:49Z</time>
      </trkpt>
      <trkpt lat="45.93836" lon="4.72495">
        <ele>174</ele>
        <time>2017-07-06T09:43:50Z</time>
      </trkpt>
      <trkpt lat="45.93832" lon="4.72482">
        <ele>173</ele>
        <time>2017-07-06T09:43:51Z</time>
      </trkpt>
      <trkpt lat="45.93828" lon="4.72474">
        <ele>173</ele>
        <time>2017-07-06T09:43:52Z</time>
      </trkpt>
      <trkpt lat="45.93825" lon="4.72467">
        <ele>172</ele>
        <time>2017-07-06T09:43:53Z</time>
      </trkpt>
      <trkpt lat="45.93818" lon="4.72461">
        <ele>172</ele>
        <time>2017-07-06T09:43:55Z</time>
      </trkpt>
      <trkpt lat="45.93815" lon="4.72458">
        <ele>172</ele>
        <time>2017-07-06T09:43:56Z</time>
      </trkpt>
      <trkpt lat="45.93811" lon="4.72454">
        <ele>172</ele>
        <time>2017-07-06T09:43:57Z</time>
      </trkpt>
      <trkpt lat="45.93807" lon="4.7245">
        <ele>172</ele>
        <time>2017-07-06T09:43:58Z</time>
      </trkpt>
      <trkpt lat="45.93803" lon="4.72447">
        <ele>172</ele>
        <time>2017-07-06T09:43:59Z</time>
      </trkpt>
      <trkpt lat="45.93799" lon="4.72443">
        <ele>172</ele>
        <time>2017-07-06T09:44:00Z</time>
      </trkpt>
      <trkpt lat="45.93791" lon="4.72437">
        <ele>172</ele>
        <time>2017-07-06T09:44:02Z</time>
      </trkpt>
      <trkpt lat="45.93787" lon="4.72433">
        <ele>172</ele>
        <time>2017-07-06T09:44:03Z</time>
      </trkpt>
      <trkpt lat="45.93779" lon="4.72427">
        <ele>172</ele>
        <time>2017-07-06T09:44:05Z</time>
      </trkpt>
      <trkpt lat="45.93776" lon="4.72423">
        <ele>171</ele>
        <time>2017-07-06T09:44:06Z</time>
      </trkpt>
      <trkpt lat="45.93772" lon="4.72419">
        <ele>171</ele>
        <time>2017-07-06T09:44:07Z</time>
      </trkpt>
      <trkpt lat="45.93768" lon="4.72415">
        <ele>171</ele>
        <time>2017-07-06T09:44:08Z</time>
      </trkpt>
      <trkpt lat="45.93764" lon="4.7241">
        <ele>171</ele>
        <time>2017-07-06T09:44:09Z</time>
      </trkpt>
      <trkpt lat="45.9376" lon="4.72405">
        <ele>171</ele>
        <time>2017-07-06T09:44:10Z</time>
      </trkpt>
      <trkpt lat="45.93756" lon="4.72401">
        <ele>171</ele>
        <time>2017-07-06T09:44:11Z</time>
      </trkpt>
      <trkpt lat="45.93752" lon="4.72398">
        <ele>171</ele>
        <time>2017-07-06T09:44:12Z</time>
      </trkpt>
      <trkpt lat="45.93748" lon="4.72393">
        <ele>171</ele>
        <time>2017-07-06T09:44:13Z</time>
      </trkpt>
      <trkpt lat="45.93744" lon="4.7239">
        <ele>171</ele>
        <time>2017-07-06T09:44:14Z</time>
      </trkpt>
      <trkpt lat="45.93737" lon="4.72383">
        <ele>171</ele>
        <time>2017-07-06T09:44:16Z</time>
      </trkpt>
      <trkpt lat="45.93732" lon="4.72379">
        <ele>171</ele>
        <time>2017-07-06T09:44:17Z</time>
      </trkpt>
      <trkpt lat="45.93728" lon="4.72374">
        <ele>172</ele>
        <time>2017-07-06T09:44:18Z</time>
      </trkpt>
      <trkpt lat="45.93724" lon="4.7237">
        <ele>172</ele>
        <time>2017-07-06T09:44:19Z</time>
      </trkpt>
      <trkpt lat="45.93719" lon="4.72365">
        <ele>172</ele>
        <time>2017-07-06T09:44:20Z</time>
      </trkpt>
      <trkpt lat="45.93714" lon="4.72361">
        <ele>172</ele>
        <time>2017-07-06T09:44:21Z</time>
      </trkpt>
      <trkpt lat="45.93709" lon="4.72357">
        <ele>172</ele>
        <time>2017-07-06T09:44:22Z</time>
      </trkpt>
      <trkpt lat="45.93704" lon="4.72353">
        <ele>171</ele>
        <time>2017-07-06T09:44:23Z</time>
      </trkpt>
      <trkpt lat="45.93699" lon="4.7235">
        <ele>171</ele>
        <time>2017-07-06T09:44:24Z</time>
      </trkpt>
      <trkpt lat="45.93695" lon="4.72348">
        <ele>171</ele>
        <time>2017-07-06T09:44:25Z</time>
      </trkpt>
      <trkpt lat="45.93688" lon="4.7234">
        <ele>171</ele>
        <time>2017-07-06T09:44:27Z</time>
      </trkpt>
      <trkpt lat="45.93685" lon="4.72337">
        <ele>171</ele>
        <time>2017-07-06T09:44:28Z</time>
      </trkpt>
      <trkpt lat="45.93681" lon="4.72333">
        <ele>171</ele>
        <time>2017-07-06T09:44:29Z</time>
      </trkpt>
      <trkpt lat="45.93677" lon="4.72328">
        <ele>171</ele>
        <time>2017-07-06T09:44:30Z</time>
      </trkpt>
      <trkpt lat="45.93672" lon="4.72323">
        <ele>171</ele>
        <time>2017-07-06T09:44:31Z</time>
      </trkpt>
      <trkpt lat="45.93668" lon="4.72319">
        <ele>171</ele>
        <time>2017-07-06T09:44:32Z</time>
      </trkpt>
      <trkpt lat="45.93664" lon="4.72314">
        <ele>172</ele>
        <time>2017-07-06T09:44:33Z</time>
      </trkpt>
      <trkpt lat="45.93659" lon="4.72309">
        <ele>172</ele>
        <time>2017-07-06T09:44:34Z</time>
      </trkpt>
      <trkpt lat="45.93656" lon="4.72304">
        <ele>172</ele>
        <time>2017-07-06T09:44:35Z</time>
      </trkpt>
      <trkpt lat="45.93652" lon="4.72301">
        <ele>172</ele>
        <time>2017-07-06T09:44:36Z</time>
      </trkpt>
      <trkpt lat="45.93648" lon="4.72297">
        <ele>172</ele>
        <time>2017-07-06T09:44:37Z</time>
      </trkpt>
      <trkpt lat="45.93644" lon="4.72294">
        <ele>172</ele>
        <time>2017-07-06T09:44:38Z</time>
      </trkpt>
      <trkpt lat="45.9364" lon="4.72291">
        <ele>172</ele>
        <time>2017-07-06T09:44:39Z</time>
      </trkpt>
      <trkpt lat="45.93636" lon="4.72288">
        <ele>172</ele>
        <time>2017-07-06T09:44:40Z</time>
      </trkpt>
      <trkpt lat="45.93629" lon="4.72281">
        <ele>172</ele>
        <time>2017-07-06T09:44:42Z</time>
      </trkpt>
      <trkpt lat="45.93625" lon="4.72278">
        <ele>172</ele>
        <time>2017-07-06T09:44:43Z</time>
      </trkpt>
      <trkpt lat="45.9362" lon="4.72274">
        <ele>172</ele>
        <time>2017-07-06T09:44:44Z</time>
      </trkpt>
      <trkpt lat="45.93616" lon="4.7227">
        <ele>172</ele>
        <time>2017-07-06T09:44:45Z</time>
      </trkpt>
      <trkpt lat="45.93609" lon="4.72265">
        <ele>172</ele>
        <time>2017-07-06T09:44:47Z</time>
      </trkpt>
      <trkpt lat="45.93604" lon="4.72262">
        <ele>173</ele>
        <time>2017-07-06T09:44:48Z</time>
      </trkpt>
      <trkpt lat="45.93599" lon="4.72259">
        <ele>173</ele>
        <time>2017-07-06T09:44:49Z</time>
      </trkpt>
      <trkpt lat="45.93595" lon="4.72256">
        <ele>173</ele>
        <time>2017-07-06T09:44:50Z</time>
      </trkpt>
      <trkpt lat="45.9359" lon="4.72253">
        <ele>173</ele>
        <time>2017-07-06T09:44:51Z</time>
      </trkpt>
      <trkpt lat="45.93586" lon="4.72244">
        <ele>173</ele>
        <time>2017-07-06T09:44:52Z</time>
      </trkpt>
      <trkpt lat="45.93581" lon="4.7224">
        <ele>173</ele>
        <time>2017-07-06T09:44:53Z</time>
      </trkpt>
      <trkpt lat="45.93577" lon="4.72236">
        <ele>173</ele>
        <time>2017-07-06T09:44:54Z</time>
      </trkpt>
      <trkpt lat="45.93571" lon="4.72228">
        <ele>173</ele>
        <time>2017-07-06T09:44:56Z</time>
      </trkpt>
      <trkpt lat="45.93568" lon="4.72225">
        <ele>173</ele>
        <time>2017-07-06T09:44:57Z</time>
      </trkpt>
      <trkpt lat="45.93563" lon="4.72219">
        <ele>173</ele>
        <time>2017-07-06T09:45:00Z</time>
      </trkpt>
      <trkpt lat="45.93563" lon="4.72219">
        <ele>173</ele>
        <time>2017-07-06T09:45:01Z</time>
      </trkpt>
      <trkpt lat="45.93564" lon="4.7222">
        <ele>173</ele>
        <time>2017-07-06T09:45:13Z</time>
      </trkpt>
      <trkpt lat="45.93563" lon="4.72218">
        <ele>173</ele>
        <time>2017-07-06T09:45:14Z</time>
      </trkpt>
      <trkpt lat="45.93555" lon="4.72213">
        <ele>173</ele>
        <time>2017-07-06T09:45:20Z</time>
      </trkpt>
      <trkpt lat="45.93553" lon="4.72215">
        <ele>173</ele>
        <time>2017-07-06T09:45:21Z</time>
      </trkpt>
      <trkpt lat="45.93549" lon="4.72224">
        <ele>172</ele>
        <time>2017-07-06T09:45:24Z</time>
      </trkpt>
      <trkpt lat="45.93547" lon="4.72229">
        <ele>172</ele>
        <time>2017-07-06T09:45:25Z</time>
      </trkpt>
      <trkpt lat="45.93542" lon="4.72238">
        <ele>172</ele>
        <time>2017-07-06T09:45:28Z</time>
      </trkpt>
      <trkpt lat="45.9354" lon="4.72242">
        <ele>172</ele>
        <time>2017-07-06T09:45:29Z</time>
      </trkpt>
      <trkpt lat="45.93537" lon="4.72251">
        <ele>172</ele>
        <time>2017-07-06T09:45:31Z</time>
      </trkpt>
      <trkpt lat="45.93534" lon="4.72256">
        <ele>172</ele>
        <time>2017-07-06T09:45:32Z</time>
      </trkpt>
      <trkpt lat="45.93532" lon="4.72262">
        <ele>172</ele>
        <time>2017-07-06T09:45:33Z</time>
      </trkpt>
      <trkpt lat="45.9353" lon="4.72268">
        <ele>172</ele>
        <time>2017-07-06T09:45:34Z</time>
      </trkpt>
      <trkpt lat="45.93528" lon="4.72273">
        <ele>172</ele>
        <time>2017-07-06T09:45:35Z</time>
      </trkpt>
      <trkpt lat="45.93525" lon="4.72279">
        <ele>172</ele>
        <time>2017-07-06T09:45:36Z</time>
      </trkpt>
      <trkpt lat="45.93523" lon="4.72285">
        <ele>172</ele>
        <time>2017-07-06T09:45:37Z</time>
      </trkpt>
      <trkpt lat="45.9352" lon="4.7229">
        <ele>172</ele>
        <time>2017-07-06T09:45:38Z</time>
      </trkpt>
      <trkpt lat="45.93516" lon="4.72296">
        <ele>172</ele>
        <time>2017-07-06T09:45:39Z</time>
      </trkpt>
      <trkpt lat="45.93513" lon="4.72302">
        <ele>172</ele>
        <time>2017-07-06T09:45:40Z</time>
      </trkpt>
      <trkpt lat="45.93509" lon="4.72308">
        <ele>173</ele>
        <time>2017-07-06T09:45:41Z</time>
      </trkpt>
      <trkpt lat="45.93505" lon="4.72314">
        <ele>173</ele>
        <time>2017-07-06T09:45:42Z</time>
      </trkpt>
      <trkpt lat="45.93501" lon="4.72319">
        <ele>173</ele>
        <time>2017-07-06T09:45:43Z</time>
      </trkpt>
      <trkpt lat="45.93497" lon="4.72325">
        <ele>173</ele>
        <time>2017-07-06T09:45:44Z</time>
      </trkpt>
      <trkpt lat="45.93492" lon="4.72331">
        <ele>173</ele>
        <time>2017-07-06T09:45:45Z</time>
      </trkpt>
      <trkpt lat="45.93488" lon="4.72336">
        <ele>173</ele>
        <time>2017-07-06T09:45:46Z</time>
      </trkpt>
      <trkpt lat="45.93484" lon="4.72342">
        <ele>173</ele>
        <time>2017-07-06T09:45:47Z</time>
      </trkpt>
      <trkpt lat="45.9348" lon="4.72348">
        <ele>173</ele>
        <time>2017-07-06T09:45:48Z</time>
      </trkpt>
      <trkpt lat="45.93476" lon="4.72354">
        <ele>173</ele>
        <time>2017-07-06T09:45:49Z</time>
      </trkpt>
      <trkpt lat="45.93472" lon="4.7236">
        <ele>173</ele>
        <time>2017-07-06T09:45:50Z</time>
      </trkpt>
      <trkpt lat="45.93469" lon="4.72366">
        <ele>173</ele>
        <time>2017-07-06T09:45:51Z</time>
      </trkpt>
      <trkpt lat="45.93464" lon="4.72372">
        <ele>173</ele>
        <time>2017-07-06T09:45:52Z</time>
      </trkpt>
      <trkpt lat="45.9346" lon="4.72378">
        <ele>173</ele>
        <time>2017-07-06T09:45:53Z</time>
      </trkpt>
      <trkpt lat="45.93455" lon="4.72383">
        <ele>173</ele>
        <time>2017-07-06T09:45:54Z</time>
      </trkpt>
      <trkpt lat="45.9345" lon="4.72388">
        <ele>173</ele>
        <time>2017-07-06T09:45:55Z</time>
      </trkpt>
      <trkpt lat="45.93445" lon="4.72392">
        <ele>173</ele>
        <time>2017-07-06T09:45:56Z</time>
      </trkpt>
      <trkpt lat="45.9344" lon="4.72396">
        <ele>173</ele>
        <time>2017-07-06T09:45:57Z</time>
      </trkpt>
      <trkpt lat="45.93435" lon="4.72399">
        <ele>173</ele>
        <time>2017-07-06T09:45:58Z</time>
      </trkpt>
      <trkpt lat="45.93429" lon="4.72402">
        <ele>174</ele>
        <time>2017-07-06T09:45:59Z</time>
      </trkpt>
      <trkpt lat="45.93424" lon="4.72405">
        <ele>174</ele>
        <time>2017-07-06T09:46:00Z</time>
      </trkpt>
      <trkpt lat="45.93418" lon="4.72408">
        <ele>174</ele>
        <time>2017-07-06T09:46:01Z</time>
      </trkpt>
      <trkpt lat="45.93412" lon="4.72409">
        <ele>174</ele>
        <time>2017-07-06T09:46:02Z</time>
      </trkpt>
      <trkpt lat="45.93407" lon="4.72409">
        <ele>174</ele>
        <time>2017-07-06T09:46:03Z</time>
      </trkpt>
      <trkpt lat="45.93402" lon="4.72407">
        <ele>174</ele>
        <time>2017-07-06T09:46:04Z</time>
      </trkpt>
      <trkpt lat="45.93397" lon="4.72407">
        <ele>174</ele>
        <time>2017-07-06T09:46:05Z</time>
      </trkpt>
      <trkpt lat="45.93392" lon="4.72409">
        <ele>174</ele>
        <time>2017-07-06T09:46:06Z</time>
      </trkpt>
      <trkpt lat="45.93388" lon="4.72418">
        <ele>173</ele>
        <time>2017-07-06T09:46:08Z</time>
      </trkpt>
      <trkpt lat="45.93388" lon="4.72425">
        <ele>173</ele>
        <time>2017-07-06T09:46:09Z</time>
      </trkpt>
      <trkpt lat="45.9339" lon="4.72433">
        <ele>173</ele>
        <time>2017-07-06T09:46:10Z</time>
      </trkpt>
      <trkpt lat="45.93392" lon="4.7244">
        <ele>173</ele>
        <time>2017-07-06T09:46:11Z</time>
      </trkpt>
      <trkpt lat="45.93394" lon="4.72448">
        <ele>173</ele>
        <time>2017-07-06T09:46:12Z</time>
      </trkpt>
      <trkpt lat="45.93394" lon="4.72455">
        <ele>173</ele>
        <time>2017-07-06T09:46:13Z</time>
      </trkpt>
      <trkpt lat="45.93392" lon="4.72462">
        <ele>173</ele>
        <time>2017-07-06T09:46:14Z</time>
      </trkpt>
      <trkpt lat="45.93388" lon="4.72467">
        <ele>173</ele>
        <time>2017-07-06T09:46:15Z</time>
      </trkpt>
      <trkpt lat="45.93384" lon="4.72471">
        <ele>173</ele>
        <time>2017-07-06T09:46:16Z</time>
      </trkpt>
      <trkpt lat="45.93381" lon="4.72476">
        <ele>173</ele>
        <time>2017-07-06T09:46:17Z</time>
      </trkpt>
      <trkpt lat="45.93377" lon="4.7248">
        <ele>173</ele>
        <time>2017-07-06T09:46:18Z</time>
      </trkpt>
      <trkpt lat="45.93373" lon="4.72485">
        <ele>173</ele>
        <time>2017-07-06T09:46:19Z</time>
      </trkpt>
      <trkpt lat="45.93369" lon="4.72489">
        <ele>173</ele>
        <time>2017-07-06T09:46:20Z</time>
      </trkpt>
      <trkpt lat="45.93365" lon="4.72494">
        <ele>173</ele>
        <time>2017-07-06T09:46:21Z</time>
      </trkpt>
      <trkpt lat="45.9336" lon="4.72498">
        <ele>173</ele>
        <time>2017-07-06T09:46:22Z</time>
      </trkpt>
      <trkpt lat="45.93356" lon="4.72503">
        <ele>172</ele>
        <time>2017-07-06T09:46:23Z</time>
      </trkpt>
      <trkpt lat="45.93351" lon="4.72508">
        <ele>172</ele>
        <time>2017-07-06T09:46:24Z</time>
      </trkpt>
      <trkpt lat="45.93347" lon="4.72513">
        <ele>172</ele>
        <time>2017-07-06T09:46:25Z</time>
      </trkpt>
      <trkpt lat="45.93343" lon="4.72518">
        <ele>172</ele>
        <time>2017-07-06T09:46:26Z</time>
      </trkpt>
      <trkpt lat="45.93339" lon="4.72524">
        <ele>172</ele>
        <time>2017-07-06T09:46:27Z</time>
      </trkpt>
      <trkpt lat="45.93335" lon="4.72528">
        <ele>172</ele>
        <time>2017-07-06T09:46:28Z</time>
      </trkpt>
      <trkpt lat="45.9333" lon="4.72533">
        <ele>172</ele>
        <time>2017-07-06T09:46:29Z</time>
      </trkpt>
      <trkpt lat="45.93326" lon="4.72538">
        <ele>172</ele>
        <time>2017-07-06T09:46:30Z</time>
      </trkpt>
      <trkpt lat="45.93322" lon="4.72543">
        <ele>172</ele>
        <time>2017-07-06T09:46:31Z</time>
      </trkpt>
      <trkpt lat="45.93318" lon="4.72548">
        <ele>172</ele>
        <time>2017-07-06T09:46:32Z</time>
      </trkpt>
      <trkpt lat="45.93314" lon="4.72552">
        <ele>172</ele>
        <time>2017-07-06T09:46:33Z</time>
      </trkpt>
      <trkpt lat="45.93311" lon="4.72557">
        <ele>172</ele>
        <time>2017-07-06T09:46:34Z</time>
      </trkpt>
      <trkpt lat="45.93307" lon="4.72561">
        <ele>172</ele>
        <time>2017-07-06T09:46:35Z</time>
      </trkpt>
      <trkpt lat="45.93304" lon="4.72566">
        <ele>171</ele>
        <time>2017-07-06T09:46:36Z</time>
      </trkpt>
      <trkpt lat="45.933" lon="4.7257">
        <ele>171</ele>
        <time>2017-07-06T09:46:37Z</time>
      </trkpt>
      <trkpt lat="45.93296" lon="4.72575">
        <ele>171</ele>
        <time>2017-07-06T09:46:38Z</time>
      </trkpt>
      <trkpt lat="45.93292" lon="4.72579">
        <ele>171</ele>
        <time>2017-07-06T09:46:39Z</time>
      </trkpt>
      <trkpt lat="45.93288" lon="4.72584">
        <ele>170</ele>
        <time>2017-07-06T09:46:40Z</time>
      </trkpt>
      <trkpt lat="45.93284" lon="4.72588">
        <ele>170</ele>
        <time>2017-07-06T09:46:41Z</time>
      </trkpt>
      <trkpt lat="45.9328" lon="4.72593">
        <ele>170</ele>
        <time>2017-07-06T09:46:42Z</time>
      </trkpt>
      <trkpt lat="45.93276" lon="4.72598">
        <ele>170</ele>
        <time>2017-07-06T09:46:43Z</time>
      </trkpt>
      <trkpt lat="45.93271" lon="4.72603">
        <ele>170</ele>
        <time>2017-07-06T09:46:44Z</time>
      </trkpt>
      <trkpt lat="45.93267" lon="4.72608">
        <ele>170</ele>
        <time>2017-07-06T09:46:45Z</time>
      </trkpt>
      <trkpt lat="45.93263" lon="4.72612">
        <ele>170</ele>
        <time>2017-07-06T09:46:46Z</time>
      </trkpt>
      <trkpt lat="45.93259" lon="4.72616">
        <ele>170</ele>
        <time>2017-07-06T09:46:47Z</time>
      </trkpt>
      <trkpt lat="45.93256" lon="4.7262">
        <ele>170</ele>
        <time>2017-07-06T09:46:48Z</time>
      </trkpt>
      <trkpt lat="45.93252" lon="4.72624">
        <ele>170</ele>
        <time>2017-07-06T09:46:49Z</time>
      </trkpt>
      <trkpt lat="45.93248" lon="4.72629">
        <ele>170</ele>
        <time>2017-07-06T09:46:50Z</time>
      </trkpt>
      <trkpt lat="45.93244" lon="4.72633">
        <ele>170</ele>
        <time>2017-07-06T09:46:51Z</time>
      </trkpt>
      <trkpt lat="45.9324" lon="4.72638">
        <ele>170</ele>
        <time>2017-07-06T09:46:52Z</time>
      </trkpt>
      <trkpt lat="45.93236" lon="4.72642">
        <ele>170</ele>
        <time>2017-07-06T09:46:53Z</time>
      </trkpt>
      <trkpt lat="45.93232" lon="4.72647">
        <ele>170</ele>
        <time>2017-07-06T09:46:54Z</time>
      </trkpt>
      <trkpt lat="45.93228" lon="4.72652">
        <ele>170</ele>
        <time>2017-07-06T09:46:55Z</time>
      </trkpt>
      <trkpt lat="45.93225" lon="4.72656">
        <ele>170</ele>
        <time>2017-07-06T09:46:56Z</time>
      </trkpt>
      <trkpt lat="45.93221" lon="4.7266">
        <ele>170</ele>
        <time>2017-07-06T09:46:57Z</time>
      </trkpt>
      <trkpt lat="45.93217" lon="4.72664">
        <ele>170</ele>
        <time>2017-07-06T09:46:58Z</time>
      </trkpt>
      <trkpt lat="45.93214" lon="4.72669">
        <ele>169</ele>
        <time>2017-07-06T09:46:59Z</time>
      </trkpt>
      <trkpt lat="45.93209" lon="4.72673">
        <ele>169</ele>
        <time>2017-07-06T09:47:00Z</time>
      </trkpt>
      <trkpt lat="45.93205" lon="4.72678">
        <ele>169</ele>
        <time>2017-07-06T09:47:01Z</time>
      </trkpt>
      <trkpt lat="45.93201" lon="4.72684">
        <ele>169</ele>
        <time>2017-07-06T09:47:02Z</time>
      </trkpt>
      <trkpt lat="45.93196" lon="4.72689">
        <ele>169</ele>
        <time>2017-07-06T09:47:03Z</time>
      </trkpt>
      <trkpt lat="45.93192" lon="4.72694">
        <ele>169</ele>
        <time>2017-07-06T09:47:04Z</time>
      </trkpt>
      <trkpt lat="45.93188" lon="4.72698">
        <ele>169</ele>
        <time>2017-07-06T09:47:05Z</time>
      </trkpt>
      <trkpt lat="45.93185" lon="4.72702">
        <ele>169</ele>
        <time>2017-07-06T09:47:06Z</time>
      </trkpt>
      <trkpt lat="45.93181" lon="4.72707">
        <ele>169</ele>
        <time>2017-07-06T09:47:07Z</time>
      </trkpt>
      <trkpt lat="45.93177" lon="4.72712">
        <ele>169</ele>
        <time>2017-07-06T09:47:08Z</time>
      </trkpt>
      <trkpt lat="45.93173" lon="4.72716">
        <ele>170</ele>
        <time>2017-07-06T09:47:09Z</time>
      </trkpt>
      <trkpt lat="45.93168" lon="4.72721">
        <ele>170</ele>
        <time>2017-07-06T09:47:10Z</time>
      </trkpt>
      <trkpt lat="45.93164" lon="4.72726">
        <ele>170</ele>
        <time>2017-07-06T09:47:11Z</time>
      </trkpt>
      <trkpt lat="45.93159" lon="4.72731">
        <ele>170</ele>
        <time>2017-07-06T09:47:12Z</time>
      </trkpt>
      <trkpt lat="45.93155" lon="4.72737">
        <ele>170</ele>
        <time>2017-07-06T09:47:13Z</time>
      </trkpt>
      <trkpt lat="45.9315" lon="4.72742">
        <ele>170</ele>
        <time>2017-07-06T09:47:14Z</time>
      </trkpt>
      <trkpt lat="45.93145" lon="4.72748">
        <ele>170</ele>
        <time>2017-07-06T09:47:15Z</time>
      </trkpt>
      <trkpt lat="45.93141" lon="4.72753">
        <ele>171</ele>
        <time>2017-07-06T09:47:16Z</time>
      </trkpt>
      <trkpt lat="45.93136" lon="4.72759">
        <ele>171</ele>
        <time>2017-07-06T09:47:17Z</time>
      </trkpt>
      <trkpt lat="45.93131" lon="4.72765">
        <ele>171</ele>
        <time>2017-07-06T09:47:18Z</time>
      </trkpt>
      <trkpt lat="45.93126" lon="4.72771">
        <ele>171</ele>
        <time>2017-07-06T09:47:19Z</time>
      </trkpt>
      <trkpt lat="45.93121" lon="4.72777">
        <ele>171</ele>
        <time>2017-07-06T09:47:20Z</time>
      </trkpt>
      <trkpt lat="45.93116" lon="4.72783">
        <ele>171</ele>
        <time>2017-07-06T09:47:21Z</time>
      </trkpt>
      <trkpt lat="45.93111" lon="4.72789">
        <ele>171</ele>
        <time>2017-07-06T09:47:22Z</time>
      </trkpt>
      <trkpt lat="45.93107" lon="4.72795">
        <ele>171</ele>
        <time>2017-07-06T09:47:23Z</time>
      </trkpt>
      <trkpt lat="45.93102" lon="4.728">
        <ele>171</ele>
        <time>2017-07-06T09:47:24Z</time>
      </trkpt>
      <trkpt lat="45.93097" lon="4.72805">
        <ele>171</ele>
        <time>2017-07-06T09:47:25Z</time>
      </trkpt>
      <trkpt lat="45.93092" lon="4.7281">
        <ele>172</ele>
        <time>2017-07-06T09:47:26Z</time>
      </trkpt>
      <trkpt lat="45.93088" lon="4.72815">
        <ele>172</ele>
        <time>2017-07-06T09:47:27Z</time>
      </trkpt>
      <trkpt lat="45.93084" lon="4.72819">
        <ele>172</ele>
        <time>2017-07-06T09:47:28Z</time>
      </trkpt>
      <trkpt lat="45.9308" lon="4.72823">
        <ele>173</ele>
        <time>2017-07-06T09:47:29Z</time>
      </trkpt>
      <trkpt lat="45.93077" lon="4.72826">
        <ele>173</ele>
        <time>2017-07-06T09:47:30Z</time>
      </trkpt>
      <trkpt lat="45.93073" lon="4.72831">
        <ele>173</ele>
        <time>2017-07-06T09:47:31Z</time>
      </trkpt>
      <trkpt lat="45.93069" lon="4.72835">
        <ele>173</ele>
        <time>2017-07-06T09:47:32Z</time>
      </trkpt>
      <trkpt lat="45.93064" lon="4.7284">
        <ele>173</ele>
        <time>2017-07-06T09:47:33Z</time>
      </trkpt>
      <trkpt lat="45.93061" lon="4.72849">
        <ele>172</ele>
        <time>2017-07-06T09:47:34Z</time>
      </trkpt>
      <trkpt lat="45.93056" lon="4.72857">
        <ele>172</ele>
        <time>2017-07-06T09:47:35Z</time>
      </trkpt>
      <trkpt lat="45.93051" lon="4.72861">
        <ele>172</ele>
        <time>2017-07-06T09:47:36Z</time>
      </trkpt>
      <trkpt lat="45.93047" lon="4.72864">
        <ele>172</ele>
        <time>2017-07-06T09:47:37Z</time>
      </trkpt>
      <trkpt lat="45.93043" lon="4.72868">
        <ele>172</ele>
        <time>2017-07-06T09:47:38Z</time>
      </trkpt>
      <trkpt lat="45.93039" lon="4.72872">
        <ele>172</ele>
        <time>2017-07-06T09:47:39Z</time>
      </trkpt>
      <trkpt lat="45.93035" lon="4.72878">
        <ele>172</ele>
        <time>2017-07-06T09:47:40Z</time>
      </trkpt>
      <trkpt lat="45.93031" lon="4.72883">
        <ele>172</ele>
        <time>2017-07-06T09:47:41Z</time>
      </trkpt>
      <trkpt lat="45.93027" lon="4.72888">
        <ele>172</ele>
        <time>2017-07-06T09:47:42Z</time>
      </trkpt>
      <trkpt lat="45.93023" lon="4.72893">
        <ele>172</ele>
        <time>2017-07-06T09:47:43Z</time>
      </trkpt>
      <trkpt lat="45.93019" lon="4.72898">
        <ele>172</ele>
        <time>2017-07-06T09:47:44Z</time>
      </trkpt>
      <trkpt lat="45.93015" lon="4.72902">
        <ele>172</ele>
        <time>2017-07-06T09:47:45Z</time>
      </trkpt>
      <trkpt lat="45.93011" lon="4.72907">
        <ele>171</ele>
        <time>2017-07-06T09:47:46Z</time>
      </trkpt>
      <trkpt lat="45.93007" lon="4.72911">
        <ele>171</ele>
        <time>2017-07-06T09:47:47Z</time>
      </trkpt>
      <trkpt lat="45.93003" lon="4.72915">
        <ele>171</ele>
        <time>2017-07-06T09:47:48Z</time>
      </trkpt>
      <trkpt lat="45.93" lon="4.72919">
        <ele>171</ele>
        <time>2017-07-06T09:47:49Z</time>
      </trkpt>
      <trkpt lat="45.92996" lon="4.72924">
        <ele>171</ele>
        <time>2017-07-06T09:47:50Z</time>
      </trkpt>
      <trkpt lat="45.92992" lon="4.72928">
        <ele>171</ele>
        <time>2017-07-06T09:47:51Z</time>
      </trkpt>
      <trkpt lat="45.92988" lon="4.72933">
        <ele>171</ele>
        <time>2017-07-06T09:47:52Z</time>
      </trkpt>
      <trkpt lat="45.92984" lon="4.72938">
        <ele>171</ele>
        <time>2017-07-06T09:47:53Z</time>
      </trkpt>
      <trkpt lat="45.9298" lon="4.72943">
        <ele>171</ele>
        <time>2017-07-06T09:47:54Z</time>
      </trkpt>
      <trkpt lat="45.92976" lon="4.72947">
        <ele>171</ele>
        <time>2017-07-06T09:47:55Z</time>
      </trkpt>
      <trkpt lat="45.92973" lon="4.72952">
        <ele>171</ele>
        <time>2017-07-06T09:47:56Z</time>
      </trkpt>
      <trkpt lat="45.92969" lon="4.72955">
        <ele>171</ele>
        <time>2017-07-06T09:47:57Z</time>
      </trkpt>
      <trkpt lat="45.92962" lon="4.72963">
        <ele>171</ele>
        <time>2017-07-06T09:47:59Z</time>
      </trkpt>
      <trkpt lat="45.92959" lon="4.72967">
        <ele>171</ele>
        <time>2017-07-06T09:48:00Z</time>
      </trkpt>
      <trkpt lat="45.92952" lon="4.72974">
        <ele>171</ele>
        <time>2017-07-06T09:48:02Z</time>
      </trkpt>
      <trkpt lat="45.92949" lon="4.72978">
        <ele>171</ele>
        <time>2017-07-06T09:48:03Z</time>
      </trkpt>
      <trkpt lat="45.92945" lon="4.72982">
        <ele>171</ele>
        <time>2017-07-06T09:48:04Z</time>
      </trkpt>
      <trkpt lat="45.92941" lon="4.72987">
        <ele>171</ele>
        <time>2017-07-06T09:48:05Z</time>
      </trkpt>
      <trkpt lat="45.92938" lon="4.72991">
        <ele>171</ele>
        <time>2017-07-06T09:48:06Z</time>
      </trkpt>
      <trkpt lat="45.92934" lon="4.72996">
        <ele>172</ele>
        <time>2017-07-06T09:48:07Z</time>
      </trkpt>
      <trkpt lat="45.9293" lon="4.73001">
        <ele>172</ele>
        <time>2017-07-06T09:48:08Z</time>
      </trkpt>
      <trkpt lat="45.92926" lon="4.73005">
        <ele>172</ele>
        <time>2017-07-06T09:48:09Z</time>
      </trkpt>
      <trkpt lat="45.92922" lon="4.7301">
        <ele>172</ele>
        <time>2017-07-06T09:48:10Z</time>
      </trkpt>
      <trkpt lat="45.92919" lon="4.73015">
        <ele>172</ele>
        <time>2017-07-06T09:48:11Z</time>
      </trkpt>
      <trkpt lat="45.92915" lon="4.7302">
        <ele>172</ele>
        <time>2017-07-06T09:48:12Z</time>
      </trkpt>
      <trkpt lat="45.92911" lon="4.73025">
        <ele>172</ele>
        <time>2017-07-06T09:48:13Z</time>
      </trkpt>
      <trkpt lat="45.92908" lon="4.7303">
        <ele>172</ele>
        <time>2017-07-06T09:48:14Z</time>
      </trkpt>
      <trkpt lat="45.92904" lon="4.73035">
        <ele>172</ele>
        <time>2017-07-06T09:48:15Z</time>
      </trkpt>
      <trkpt lat="45.92901" lon="4.73039">
        <ele>172</ele>
        <time>2017-07-06T09:48:16Z</time>
      </trkpt>
      <trkpt lat="45.92898" lon="4.73044">
        <ele>172</ele>
        <time>2017-07-06T09:48:17Z</time>
      </trkpt>
      <trkpt lat="45.92893" lon="4.73053">
        <ele>172</ele>
        <time>2017-07-06T09:48:19Z</time>
      </trkpt>
      <trkpt lat="45.9289" lon="4.73058">
        <ele>172</ele>
        <time>2017-07-06T09:48:20Z</time>
      </trkpt>
      <trkpt lat="45.92884" lon="4.73067">
        <ele>172</ele>
        <time>2017-07-06T09:48:22Z</time>
      </trkpt>
      <trkpt lat="45.9288" lon="4.73071">
        <ele>172</ele>
        <time>2017-07-06T09:48:23Z</time>
      </trkpt>
      <trkpt lat="45.92874" lon="4.7308">
        <ele>172</ele>
        <time>2017-07-06T09:48:25Z</time>
      </trkpt>
      <trkpt lat="45.92871" lon="4.73085">
        <ele>172</ele>
        <time>2017-07-06T09:48:26Z</time>
      </trkpt>
      <trkpt lat="45.92868" lon="4.7309">
        <ele>172</ele>
        <time>2017-07-06T09:48:27Z</time>
      </trkpt>
      <trkpt lat="45.92864" lon="4.73094">
        <ele>171</ele>
        <time>2017-07-06T09:48:28Z</time>
      </trkpt>
      <trkpt lat="45.92857" lon="4.731">
        <ele>171</ele>
        <time>2017-07-06T09:48:30Z</time>
      </trkpt>
      <trkpt lat="45.92853" lon="4.73099">
        <ele>171</ele>
        <time>2017-07-06T09:48:31Z</time>
      </trkpt>
      <trkpt lat="45.92848" lon="4.73091">
        <ele>171</ele>
        <time>2017-07-06T09:48:33Z</time>
      </trkpt>
      <trkpt lat="45.92848" lon="4.73086">
        <ele>171</ele>
        <time>2017-07-06T09:48:34Z</time>
      </trkpt>
      <trkpt lat="45.92847" lon="4.73074">
        <ele>171</ele>
        <time>2017-07-06T09:48:36Z</time>
      </trkpt>
      <trkpt lat="45.92846" lon="4.73067">
        <ele>171</ele>
        <time>2017-07-06T09:48:37Z</time>
      </trkpt>
      <trkpt lat="45.92844" lon="4.73061">
        <ele>171</ele>
        <time>2017-07-06T09:48:38Z</time>
      </trkpt>
      <trkpt lat="45.92843" lon="4.73054">
        <ele>171</ele>
        <time>2017-07-06T09:48:39Z</time>
      </trkpt>
      <trkpt lat="45.92842" lon="4.73048">
        <ele>171</ele>
        <time>2017-07-06T09:48:40Z</time>
      </trkpt>
      <trkpt lat="45.92842" lon="4.73041">
        <ele>171</ele>
        <time>2017-07-06T09:48:41Z</time>
      </trkpt>
      <trkpt lat="45.9284" lon="4.73034">
        <ele>171</ele>
        <time>2017-07-06T09:48:42Z</time>
      </trkpt>
      <trkpt lat="45.92839" lon="4.73028">
        <ele>171</ele>
        <time>2017-07-06T09:48:43Z</time>
      </trkpt>
      <trkpt lat="45.92838" lon="4.73022">
        <ele>171</ele>
        <time>2017-07-06T09:48:44Z</time>
      </trkpt>
      <trkpt lat="45.92836" lon="4.73015">
        <ele>171</ele>
        <time>2017-07-06T09:48:45Z</time>
      </trkpt>
      <trkpt lat="45.92834" lon="4.73004">
        <ele>170</ele>
        <time>2017-07-06T09:48:47Z</time>
      </trkpt>
      <trkpt lat="45.92834" lon="4.72998">
        <ele>170</ele>
        <time>2017-07-06T09:48:48Z</time>
      </trkpt>
      <trkpt lat="45.92833" lon="4.72987">
        <ele>170</ele>
        <time>2017-07-06T09:48:50Z</time>
      </trkpt>
      <trkpt lat="45.92832" lon="4.72981">
        <ele>170</ele>
        <time>2017-07-06T09:48:51Z</time>
      </trkpt>
      <trkpt lat="45.92832" lon="4.72969">
        <ele>170</ele>
        <time>2017-07-06T09:48:53Z</time>
      </trkpt>
      <trkpt lat="45.92831" lon="4.72963">
        <ele>170</ele>
        <time>2017-07-06T09:48:54Z</time>
      </trkpt>
      <trkpt lat="45.9283" lon="4.72957">
        <ele>170</ele>
        <time>2017-07-06T09:48:55Z</time>
      </trkpt>
      <trkpt lat="45.92829" lon="4.7295">
        <ele>170</ele>
        <time>2017-07-06T09:48:56Z</time>
      </trkpt>
      <trkpt lat="45.92828" lon="4.72943">
        <ele>170</ele>
        <time>2017-07-06T09:48:57Z</time>
      </trkpt>
      <trkpt lat="45.92827" lon="4.72935">
        <ele>170</ele>
        <time>2017-07-06T09:48:58Z</time>
      </trkpt>
      <trkpt lat="45.92827" lon="4.72927">
        <ele>170</ele>
        <time>2017-07-06T09:48:59Z</time>
      </trkpt>
      <trkpt lat="45.92826" lon="4.7292">
        <ele>170</ele>
        <time>2017-07-06T09:49:00Z</time>
      </trkpt>
      <trkpt lat="45.92825" lon="4.72913">
        <ele>170</ele>
        <time>2017-07-06T09:49:01Z</time>
      </trkpt>
      <trkpt lat="45.92825" lon="4.72906">
        <ele>170</ele>
        <time>2017-07-06T09:49:02Z</time>
      </trkpt>
      <trkpt lat="45.92824" lon="4.72899">
        <ele>170</ele>
        <time>2017-07-06T09:49:03Z</time>
      </trkpt>
      <trkpt lat="45.92823" lon="4.72892">
        <ele>170</ele>
        <time>2017-07-06T09:49:04Z</time>
      </trkpt>
      <trkpt lat="45.92821" lon="4.72885">
        <ele>170</ele>
        <time>2017-07-06T09:49:05Z</time>
      </trkpt>
      <trkpt lat="45.9282" lon="4.72878">
        <ele>170</ele>
        <time>2017-07-06T09:49:06Z</time>
      </trkpt>
      <trkpt lat="45.92818" lon="4.72872">
        <ele>170</ele>
        <time>2017-07-06T09:49:07Z</time>
      </trkpt>
      <trkpt lat="45.92817" lon="4.72865">
        <ele>170</ele>
        <time>2017-07-06T09:49:08Z</time>
      </trkpt>
      <trkpt lat="45.92815" lon="4.72859">
        <ele>170</ele>
        <time>2017-07-06T09:49:09Z</time>
      </trkpt>
      <trkpt lat="45.92814" lon="4.72852">
        <ele>170</ele>
        <time>2017-07-06T09:49:10Z</time>
      </trkpt>
      <trkpt lat="45.92812" lon="4.72844">
        <ele>170</ele>
        <time>2017-07-06T09:49:11Z</time>
      </trkpt>
      <trkpt lat="45.92811" lon="4.72837">
        <ele>170</ele>
        <time>2017-07-06T09:49:12Z</time>
      </trkpt>
      <trkpt lat="45.9281" lon="4.7283">
        <ele>171</ele>
        <time>2017-07-06T09:49:13Z</time>
      </trkpt>
      <trkpt lat="45.92808" lon="4.72824">
        <ele>171</ele>
        <time>2017-07-06T09:49:14Z</time>
      </trkpt>
      <trkpt lat="45.92807" lon="4.72817">
        <ele>171</ele>
        <time>2017-07-06T09:49:15Z</time>
      </trkpt>
      <trkpt lat="45.92806" lon="4.72811">
        <ele>171</ele>
        <time>2017-07-06T09:49:16Z</time>
      </trkpt>
      <trkpt lat="45.92805" lon="4.72804">
        <ele>171</ele>
        <time>2017-07-06T09:49:17Z</time>
      </trkpt>
      <trkpt lat="45.92804" lon="4.72798">
        <ele>171</ele>
        <time>2017-07-06T09:49:18Z</time>
      </trkpt>
      <trkpt lat="45.92799" lon="4.72788">
        <ele>171</ele>
        <time>2017-07-06T09:49:20Z</time>
      </trkpt>
      <trkpt lat="45.92795" lon="4.72786">
        <ele>171</ele>
        <time>2017-07-06T09:49:21Z</time>
      </trkpt>
      <trkpt lat="45.92787" lon="4.72791">
        <ele>170</ele>
        <time>2017-07-06T09:49:23Z</time>
      </trkpt>
      <trkpt lat="45.92783" lon="4.72794">
        <ele>170</ele>
        <time>2017-07-06T09:49:24Z</time>
      </trkpt>
      <trkpt lat="45.92779" lon="4.72797">
        <ele>170</ele>
        <time>2017-07-06T09:49:25Z</time>
      </trkpt>
      <trkpt lat="45.92775" lon="4.728">
        <ele>170</ele>
        <time>2017-07-06T09:49:26Z</time>
      </trkpt>
      <trkpt lat="45.92768" lon="4.72807">
        <ele>170</ele>
        <time>2017-07-06T09:49:28Z</time>
      </trkpt>
      <trkpt lat="45.92764" lon="4.72811">
        <ele>170</ele>
        <time>2017-07-06T09:49:29Z</time>
      </trkpt>
      <trkpt lat="45.92759" lon="4.72815">
        <ele>170</ele>
        <time>2017-07-06T09:49:30Z</time>
      </trkpt>
      <trkpt lat="45.92755" lon="4.72819">
        <ele>170</ele>
        <time>2017-07-06T09:49:31Z</time>
      </trkpt>
      <trkpt lat="45.92751" lon="4.72823">
        <ele>170</ele>
        <time>2017-07-06T09:49:32Z</time>
      </trkpt>
      <trkpt lat="45.92747" lon="4.72826">
        <ele>169</ele>
        <time>2017-07-06T09:49:33Z</time>
      </trkpt>
      <trkpt lat="45.92739" lon="4.72831">
        <ele>169</ele>
        <time>2017-07-06T09:49:35Z</time>
      </trkpt>
      <trkpt lat="45.92736" lon="4.72834">
        <ele>169</ele>
        <time>2017-07-06T09:49:36Z</time>
      </trkpt>
      <trkpt lat="45.92732" lon="4.72837">
        <ele>169</ele>
        <time>2017-07-06T09:49:37Z</time>
      </trkpt>
      <trkpt lat="45.92728" lon="4.7284">
        <ele>169</ele>
        <time>2017-07-06T09:49:38Z</time>
      </trkpt>
      <trkpt lat="45.92723" lon="4.72844">
        <ele>169</ele>
        <time>2017-07-06T09:49:39Z</time>
      </trkpt>
      <trkpt lat="45.92719" lon="4.72847">
        <ele>169</ele>
        <time>2017-07-06T09:49:40Z</time>
      </trkpt>
      <trkpt lat="45.92714" lon="4.72851">
        <ele>169</ele>
        <time>2017-07-06T09:49:41Z</time>
      </trkpt>
      <trkpt lat="45.92709" lon="4.72854">
        <ele>169</ele>
        <time>2017-07-06T09:49:42Z</time>
      </trkpt>
      <trkpt lat="45.92705" lon="4.72857">
        <ele>169</ele>
        <time>2017-07-06T09:49:43Z</time>
      </trkpt>
      <trkpt lat="45.927" lon="4.72861">
        <ele>169</ele>
        <time>2017-07-06T09:49:44Z</time>
      </trkpt>
      <trkpt lat="45.92695" lon="4.72865">
        <ele>169</ele>
        <time>2017-07-06T09:49:45Z</time>
      </trkpt>
      <trkpt lat="45.92691" lon="4.72869">
        <ele>169</ele>
        <time>2017-07-06T09:49:46Z</time>
      </trkpt>
      <trkpt lat="45.92686" lon="4.72872">
        <ele>169</ele>
        <time>2017-07-06T09:49:47Z</time>
      </trkpt>
      <trkpt lat="45.92682" lon="4.72875">
        <ele>170</ele>
        <time>2017-07-06T09:49:48Z</time>
      </trkpt>
      <trkpt lat="45.92678" lon="4.72878">
        <ele>170</ele>
        <time>2017-07-06T09:49:49Z</time>
      </trkpt>
      <trkpt lat="45.92673" lon="4.72882">
        <ele>170</ele>
        <time>2017-07-06T09:49:50Z</time>
      </trkpt>
      <trkpt lat="45.92669" lon="4.72885">
        <ele>170</ele>
        <time>2017-07-06T09:49:51Z</time>
      </trkpt>
      <trkpt lat="45.92664" lon="4.72889">
        <ele>169</ele>
        <time>2017-07-06T09:49:52Z</time>
      </trkpt>
      <trkpt lat="45.9266" lon="4.72892">
        <ele>169</ele>
        <time>2017-07-06T09:49:53Z</time>
      </trkpt>
      <trkpt lat="45.92655" lon="4.72896">
        <ele>170</ele>
        <time>2017-07-06T09:49:54Z</time>
      </trkpt>
      <trkpt lat="45.9265" lon="4.729">
        <ele>170</ele>
        <time>2017-07-06T09:49:55Z</time>
      </trkpt>
      <trkpt lat="45.92646" lon="4.72903">
        <ele>170</ele>
        <time>2017-07-06T09:49:56Z</time>
      </trkpt>
      <trkpt lat="45.92642" lon="4.72907">
        <ele>169</ele>
        <time>2017-07-06T09:49:57Z</time>
      </trkpt>
      <trkpt lat="45.92638" lon="4.7291">
        <ele>169</ele>
        <time>2017-07-06T09:49:58Z</time>
      </trkpt>
      <trkpt lat="45.92634" lon="4.72914">
        <ele>169</ele>
        <time>2017-07-06T09:49:59Z</time>
      </trkpt>
      <trkpt lat="45.9263" lon="4.72917">
        <ele>170</ele>
        <time>2017-07-06T09:50:00Z</time>
      </trkpt>
      <trkpt lat="45.92626" lon="4.7292">
        <ele>170</ele>
        <time>2017-07-06T09:50:01Z</time>
      </trkpt>
      <trkpt lat="45.92622" lon="4.72924">
        <ele>169</ele>
        <time>2017-07-06T09:50:02Z</time>
      </trkpt>
      <trkpt lat="45.92617" lon="4.72929">
        <ele>169</ele>
        <time>2017-07-06T09:50:03Z</time>
      </trkpt>
      <trkpt lat="45.92613" lon="4.72933">
        <ele>169</ele>
        <time>2017-07-06T09:50:04Z</time>
      </trkpt>
      <trkpt lat="45.92608" lon="4.72938">
        <ele>169</ele>
        <time>2017-07-06T09:50:05Z</time>
      </trkpt>
      <trkpt lat="45.92603" lon="4.72943">
        <ele>169</ele>
        <time>2017-07-06T09:50:06Z</time>
      </trkpt>
      <trkpt lat="45.92598" lon="4.72947">
        <ele>169</ele>
        <time>2017-07-06T09:50:07Z</time>
      </trkpt>
      <trkpt lat="45.92594" lon="4.72952">
        <ele>169</ele>
        <time>2017-07-06T09:50:08Z</time>
      </trkpt>
      <trkpt lat="45.9259" lon="4.72957">
        <ele>169</ele>
        <time>2017-07-06T09:50:09Z</time>
      </trkpt>
      <trkpt lat="45.92587" lon="4.72961">
        <ele>169</ele>
        <time>2017-07-06T09:50:10Z</time>
      </trkpt>
      <trkpt lat="45.9258" lon="4.72969">
        <ele>169</ele>
        <time>2017-07-06T09:50:12Z</time>
      </trkpt>
      <trkpt lat="45.92576" lon="4.72972">
        <ele>169</ele>
        <time>2017-07-06T09:50:13Z</time>
      </trkpt>
      <trkpt lat="45.92569" lon="4.72979">
        <ele>169</ele>
        <time>2017-07-06T09:50:15Z</time>
      </trkpt>
      <trkpt lat="45.92565" lon="4.72983">
        <ele>169</ele>
        <time>2017-07-06T09:50:16Z</time>
      </trkpt>
      <trkpt lat="45.92561" lon="4.72987">
        <ele>169</ele>
        <time>2017-07-06T09:50:17Z</time>
      </trkpt>
      <trkpt lat="45.92556" lon="4.72991">
        <ele>169</ele>
        <time>2017-07-06T09:50:18Z</time>
      </trkpt>
      <trkpt lat="45.92552" lon="4.72994">
        <ele>169</ele>
        <time>2017-07-06T09:50:19Z</time>
      </trkpt>
      <trkpt lat="45.92548" lon="4.72998">
        <ele>169</ele>
        <time>2017-07-06T09:50:20Z</time>
      </trkpt>
      <trkpt lat="45.92544" lon="4.73002">
        <ele>169</ele>
        <time>2017-07-06T09:50:21Z</time>
      </trkpt>
      <trkpt lat="45.9254" lon="4.73006">
        <ele>169</ele>
        <time>2017-07-06T09:50:22Z</time>
      </trkpt>
      <trkpt lat="45.92536" lon="4.73009">
        <ele>169</ele>
        <time>2017-07-06T09:50:23Z</time>
      </trkpt>
      <trkpt lat="45.92532" lon="4.73013">
        <ele>169</ele>
        <time>2017-07-06T09:50:24Z</time>
      </trkpt>
      <trkpt lat="45.92525" lon="4.7302">
        <ele>169</ele>
        <time>2017-07-06T09:50:26Z</time>
      </trkpt>
      <trkpt lat="45.92521" lon="4.73024">
        <ele>169</ele>
        <time>2017-07-06T09:50:27Z</time>
      </trkpt>
      <trkpt lat="45.92513" lon="4.7303">
        <ele>169</ele>
        <time>2017-07-06T09:50:29Z</time>
      </trkpt>
      <trkpt lat="45.92509" lon="4.73034">
        <ele>169</ele>
        <time>2017-07-06T09:50:30Z</time>
      </trkpt>
      <trkpt lat="45.92505" lon="4.73038">
        <ele>169</ele>
        <time>2017-07-06T09:50:31Z</time>
      </trkpt>
      <trkpt lat="45.92501" lon="4.73042">
        <ele>169</ele>
        <time>2017-07-06T09:50:32Z</time>
      </trkpt>
      <trkpt lat="45.92497" lon="4.73045">
        <ele>170</ele>
        <time>2017-07-06T09:50:33Z</time>
      </trkpt>
      <trkpt lat="45.92493" lon="4.73048">
        <ele>170</ele>
        <time>2017-07-06T09:50:34Z</time>
      </trkpt>
      <trkpt lat="45.9249" lon="4.73052">
        <ele>170</ele>
        <time>2017-07-06T09:50:35Z</time>
      </trkpt>
      <trkpt lat="45.92486" lon="4.73055">
        <ele>170</ele>
        <time>2017-07-06T09:50:36Z</time>
      </trkpt>
      <trkpt lat="45.92482" lon="4.73059">
        <ele>170</ele>
        <time>2017-07-06T09:50:37Z</time>
      </trkpt>
      <trkpt lat="45.92478" lon="4.73063">
        <ele>170</ele>
        <time>2017-07-06T09:50:38Z</time>
      </trkpt>
      <trkpt lat="45.92474" lon="4.73066">
        <ele>170</ele>
        <time>2017-07-06T09:50:39Z</time>
      </trkpt>
      <trkpt lat="45.92469" lon="4.7307">
        <ele>170</ele>
        <time>2017-07-06T09:50:40Z</time>
      </trkpt>
      <trkpt lat="45.92465" lon="4.73073">
        <ele>170</ele>
        <time>2017-07-06T09:50:41Z</time>
      </trkpt>
      <trkpt lat="45.92461" lon="4.73076">
        <ele>170</ele>
        <time>2017-07-06T09:50:42Z</time>
      </trkpt>
      <trkpt lat="45.92457" lon="4.7308">
        <ele>170</ele>
        <time>2017-07-06T09:50:43Z</time>
      </trkpt>
      <trkpt lat="45.92453" lon="4.73084">
        <ele>170</ele>
        <time>2017-07-06T09:50:44Z</time>
      </trkpt>
      <trkpt lat="45.92448" lon="4.73088">
        <ele>170</ele>
        <time>2017-07-06T09:50:45Z</time>
      </trkpt>
      <trkpt lat="45.92444" lon="4.73092">
        <ele>170</ele>
        <time>2017-07-06T09:50:46Z</time>
      </trkpt>
      <trkpt lat="45.9244" lon="4.73096">
        <ele>170</ele>
        <time>2017-07-06T09:50:47Z</time>
      </trkpt>
      <trkpt lat="45.92435" lon="4.73099">
        <ele>171</ele>
        <time>2017-07-06T09:50:48Z</time>
      </trkpt>
      <trkpt lat="45.92431" lon="4.73103">
        <ele>171</ele>
        <time>2017-07-06T09:50:49Z</time>
      </trkpt>
      <trkpt lat="45.92427" lon="4.73106">
        <ele>171</ele>
        <time>2017-07-06T09:50:50Z</time>
      </trkpt>
      <trkpt lat="45.9242" lon="4.73112">
        <ele>170</ele>
        <time>2017-07-06T09:50:52Z</time>
      </trkpt>
      <trkpt lat="45.92417" lon="4.73115">
        <ele>171</ele>
        <time>2017-07-06T09:50:53Z</time>
      </trkpt>
      <trkpt lat="45.92412" lon="4.73124">
        <ele>171</ele>
        <time>2017-07-06T09:50:55Z</time>
      </trkpt>
      <trkpt lat="45.92411" lon="4.7313">
        <ele>171</ele>
        <time>2017-07-06T09:50:56Z</time>
      </trkpt>
      <trkpt lat="45.9241" lon="4.73137">
        <ele>171</ele>
        <time>2017-07-06T09:50:57Z</time>
      </trkpt>
      <trkpt lat="45.9241" lon="4.73144">
        <ele>171</ele>
        <time>2017-07-06T09:50:58Z</time>
      </trkpt>
      <trkpt lat="45.92409" lon="4.73151">
        <ele>171</ele>
        <time>2017-07-06T09:50:59Z</time>
      </trkpt>
      <trkpt lat="45.92409" lon="4.73158">
        <ele>170</ele>
        <time>2017-07-06T09:51:00Z</time>
      </trkpt>
      <trkpt lat="45.92409" lon="4.73166">
        <ele>170</ele>
        <time>2017-07-06T09:51:01Z</time>
      </trkpt>
      <trkpt lat="45.92409" lon="4.73173">
        <ele>170</ele>
        <time>2017-07-06T09:51:02Z</time>
      </trkpt>
      <trkpt lat="45.92409" lon="4.7318">
        <ele>171</ele>
        <time>2017-07-06T09:51:03Z</time>
      </trkpt>
      <trkpt lat="45.92409" lon="4.73187">
        <ele>171</ele>
        <time>2017-07-06T09:51:04Z</time>
      </trkpt>
      <trkpt lat="45.92409" lon="4.73199">
        <ele>171</ele>
        <time>2017-07-06T09:51:06Z</time>
      </trkpt>
      <trkpt lat="45.92409" lon="4.73205">
        <ele>171</ele>
        <time>2017-07-06T09:51:07Z</time>
      </trkpt>
      <trkpt lat="45.92409" lon="4.73212">
        <ele>171</ele>
        <time>2017-07-06T09:51:08Z</time>
      </trkpt>
      <trkpt lat="45.92409" lon="4.73218">
        <ele>171</ele>
        <time>2017-07-06T09:51:09Z</time>
      </trkpt>
      <trkpt lat="45.92409" lon="4.73225">
        <ele>171</ele>
        <time>2017-07-06T09:51:10Z</time>
      </trkpt>
      <trkpt lat="45.92409" lon="4.73232">
        <ele>171</ele>
        <time>2017-07-06T09:51:11Z</time>
      </trkpt>
      <trkpt lat="45.9241" lon="4.73239">
        <ele>171</ele>
        <time>2017-07-06T09:51:12Z</time>
      </trkpt>
      <trkpt lat="45.9241" lon="4.73246">
        <ele>171</ele>
        <time>2017-07-06T09:51:13Z</time>
      </trkpt>
      <trkpt lat="45.9241" lon="4.73253">
        <ele>171</ele>
        <time>2017-07-06T09:51:14Z</time>
      </trkpt>
      <trkpt lat="45.92411" lon="4.73261">
        <ele>171</ele>
        <time>2017-07-06T09:51:15Z</time>
      </trkpt>
      <trkpt lat="45.92412" lon="4.73268">
        <ele>171</ele>
        <time>2017-07-06T09:51:16Z</time>
      </trkpt>
      <trkpt lat="45.92412" lon="4.73275">
        <ele>171</ele>
        <time>2017-07-06T09:51:17Z</time>
      </trkpt>
      <trkpt lat="45.92413" lon="4.73287">
        <ele>171</ele>
        <time>2017-07-06T09:51:19Z</time>
      </trkpt>
      <trkpt lat="45.92413" lon="4.73294">
        <ele>171</ele>
        <time>2017-07-06T09:51:20Z</time>
      </trkpt>
      <trkpt lat="45.92414" lon="4.73305">
        <ele>171</ele>
        <time>2017-07-06T09:51:22Z</time>
      </trkpt>
      <trkpt lat="45.92414" lon="4.73311">
        <ele>171</ele>
        <time>2017-07-06T09:51:23Z</time>
      </trkpt>
      <trkpt lat="45.92415" lon="4.73317">
        <ele>171</ele>
        <time>2017-07-06T09:51:24Z</time>
      </trkpt>
      <trkpt lat="45.92416" lon="4.73324">
        <ele>171</ele>
        <time>2017-07-06T09:51:25Z</time>
      </trkpt>
      <trkpt lat="45.92416" lon="4.73331">
        <ele>171</ele>
        <time>2017-07-06T09:51:26Z</time>
      </trkpt>
      <trkpt lat="45.92417" lon="4.73339">
        <ele>171</ele>
        <time>2017-07-06T09:51:27Z</time>
      </trkpt>
      <trkpt lat="45.92418" lon="4.73346">
        <ele>171</ele>
        <time>2017-07-06T09:51:28Z</time>
      </trkpt>
      <trkpt lat="45.92419" lon="4.73353">
        <ele>171</ele>
        <time>2017-07-06T09:51:29Z</time>
      </trkpt>
      <trkpt lat="45.92421" lon="4.73365">
        <ele>172</ele>
        <time>2017-07-06T09:51:31Z</time>
      </trkpt>
      <trkpt lat="45.92422" lon="4.73371">
        <ele>172</ele>
        <time>2017-07-06T09:51:32Z</time>
      </trkpt>
      <trkpt lat="45.92424" lon="4.73383">
        <ele>172</ele>
        <time>2017-07-06T09:51:34Z</time>
      </trkpt>
      <trkpt lat="45.92425" lon="4.7339">
        <ele>172</ele>
        <time>2017-07-06T09:51:35Z</time>
      </trkpt>
      <trkpt lat="45.92427" lon="4.73397">
        <ele>172</ele>
        <time>2017-07-06T09:51:36Z</time>
      </trkpt>
      <trkpt lat="45.9243" lon="4.73403">
        <ele>172</ele>
        <time>2017-07-06T09:51:37Z</time>
      </trkpt>
      <trkpt lat="45.92433" lon="4.73409">
        <ele>172</ele>
        <time>2017-07-06T09:51:38Z</time>
      </trkpt>
      <trkpt lat="45.92437" lon="4.73413">
        <ele>172</ele>
        <time>2017-07-06T09:51:39Z</time>
      </trkpt>
      <trkpt lat="45.92442" lon="4.73416">
        <ele>172</ele>
        <time>2017-07-06T09:51:40Z</time>
      </trkpt>
      <trkpt lat="45.92445" lon="4.73419">
        <ele>173</ele>
        <time>2017-07-06T09:51:41Z</time>
      </trkpt>
      <trkpt lat="45.92453" lon="4.73424">
        <ele>173</ele>
        <time>2017-07-06T09:51:43Z</time>
      </trkpt>
      <trkpt lat="45.92456" lon="4.73427">
        <ele>173</ele>
        <time>2017-07-06T09:51:44Z</time>
      </trkpt>
      <trkpt lat="45.92462" lon="4.73436">
        <ele>173</ele>
        <time>2017-07-06T09:51:46Z</time>
      </trkpt>
      <trkpt lat="45.92464" lon="4.73443">
        <ele>173</ele>
        <time>2017-07-06T09:51:47Z</time>
      </trkpt>
      <trkpt lat="45.92466" lon="4.73449">
        <ele>173</ele>
        <time>2017-07-06T09:51:48Z</time>
      </trkpt>
      <trkpt lat="45.92468" lon="4.73456">
        <ele>173</ele>
        <time>2017-07-06T09:51:49Z</time>
      </trkpt>
      <trkpt lat="45.9247" lon="4.73468">
        <ele>173</ele>
        <time>2017-07-06T09:51:51Z</time>
      </trkpt>
      <trkpt lat="45.92471" lon="4.73474">
        <ele>173</ele>
        <time>2017-07-06T09:51:52Z</time>
      </trkpt>
      <trkpt lat="45.92471" lon="4.73485">
        <ele>173</ele>
        <time>2017-07-06T09:51:54Z</time>
      </trkpt>
      <trkpt lat="45.9247" lon="4.73491">
        <ele>173</ele>
        <time>2017-07-06T09:51:55Z</time>
      </trkpt>
      <trkpt lat="45.9247" lon="4.73497">
        <ele>173</ele>
        <time>2017-07-06T09:51:56Z</time>
      </trkpt>
      <trkpt lat="45.92469" lon="4.73504">
        <ele>174</ele>
        <time>2017-07-06T09:51:57Z</time>
      </trkpt>
      <trkpt lat="45.92468" lon="4.73511">
        <ele>174</ele>
        <time>2017-07-06T09:51:58Z</time>
      </trkpt>
      <trkpt lat="45.92468" lon="4.73517">
        <ele>174</ele>
        <time>2017-07-06T09:51:59Z</time>
      </trkpt>
      <trkpt lat="45.92468" lon="4.73529">
        <ele>174</ele>
        <time>2017-07-06T09:52:01Z</time>
      </trkpt>
      <trkpt lat="45.92467" lon="4.73535">
        <ele>174</ele>
        <time>2017-07-06T09:52:02Z</time>
      </trkpt>
      <trkpt lat="45.92467" lon="4.73543">
        <ele>173</ele>
        <time>2017-07-06T09:52:04Z</time>
      </trkpt>
      <trkpt lat="45.92467" lon="4.73548">
        <ele>173</ele>
        <time>2017-07-06T09:52:05Z</time>
      </trkpt>
      <trkpt lat="45.92467" lon="4.73558">
        <ele>173</ele>
        <time>2017-07-06T09:52:07Z</time>
      </trkpt>
      <trkpt lat="45.92467" lon="4.73564">
        <ele>173</ele>
        <time>2017-07-06T09:52:08Z</time>
      </trkpt>
      <trkpt lat="45.92468" lon="4.73577">
        <ele>173</ele>
        <time>2017-07-06T09:52:10Z</time>
      </trkpt>
      <trkpt lat="45.92468" lon="4.73583">
        <ele>173</ele>
        <time>2017-07-06T09:52:11Z</time>
      </trkpt>
      <trkpt lat="45.92468" lon="4.7359">
        <ele>174</ele>
        <time>2017-07-06T09:52:12Z</time>
      </trkpt>
      <trkpt lat="45.92467" lon="4.73597">
        <ele>174</ele>
        <time>2017-07-06T09:52:13Z</time>
      </trkpt>
      <trkpt lat="45.92468" lon="4.73604">
        <ele>174</ele>
        <time>2017-07-06T09:52:14Z</time>
      </trkpt>
      <trkpt lat="45.92469" lon="4.73611">
        <ele>174</ele>
        <time>2017-07-06T09:52:15Z</time>
      </trkpt>
      <trkpt lat="45.9247" lon="4.73618">
        <ele>174</ele>
        <time>2017-07-06T09:52:16Z</time>
      </trkpt>
      <trkpt lat="45.9247" lon="4.73624">
        <ele>174</ele>
        <time>2017-07-06T09:52:17Z</time>
      </trkpt>
      <trkpt lat="45.9247" lon="4.73631">
        <ele>174</ele>
        <time>2017-07-06T09:52:18Z</time>
      </trkpt>
      <trkpt lat="45.9247" lon="4.73637">
        <ele>174</ele>
        <time>2017-07-06T09:52:19Z</time>
      </trkpt>
      <trkpt lat="45.9247" lon="4.73649">
        <ele>174</ele>
        <time>2017-07-06T09:52:21Z</time>
      </trkpt>
      <trkpt lat="45.92469" lon="4.73654">
        <ele>174</ele>
        <time>2017-07-06T09:52:22Z</time>
      </trkpt>
      <trkpt lat="45.92468" lon="4.73665">
        <ele>174</ele>
        <time>2017-07-06T09:52:24Z</time>
      </trkpt>
      <trkpt lat="45.92469" lon="4.7367">
        <ele>174</ele>
        <time>2017-07-06T09:52:25Z</time>
      </trkpt>
      <trkpt lat="45.92468" lon="4.73678">
        <ele>174</ele>
        <time>2017-07-06T09:52:27Z</time>
      </trkpt>
      <trkpt lat="45.92467" lon="4.73683">
        <ele>174</ele>
        <time>2017-07-06T09:52:28Z</time>
      </trkpt>
      <trkpt lat="45.92466" lon="4.73695">
        <ele>174</ele>
        <time>2017-07-06T09:52:31Z</time>
      </trkpt>
      <trkpt lat="45.92465" lon="4.73696">
        <ele>174</ele>
        <time>2017-07-06T09:52:32Z</time>
      </trkpt>
      <trkpt lat="45.92466" lon="4.73699">
        <ele>174</ele>
        <time>2017-07-06T09:52:37Z</time>
      </trkpt>
      <trkpt lat="45.92465" lon="4.737">
        <ele>174</ele>
        <time>2017-07-06T09:52:38Z</time>
      </trkpt>
      <trkpt lat="45.92463" lon="4.73702">
        <ele>174</ele>
        <time>2017-07-06T09:53:08.933Z</time>
      </trkpt>
    </trkseg>
  </trk>
</gpx>